<?xml version="1.0" encoding="UTF-8" standalone="no" ?>
<gpx xmlns="http://www.topografix.com/GPX/1/1" xmlns:xsi="http://www.w3.org/2001/XMLSchema-instance" xsi:schemaLocation="http://www.topografix.com/GPX/1/1 http://www.topografix.com/GPX/1/1/gpx.xsd" version="1.1" creator="VisuGPX - https://www.visugpx.com">
  <metadata>
    <name>70km Nez de boeuf 2024</name>
    <desc><![CDATA[Trace VTT Nez de boeufs 72 km - 1400 m D+ - 2024]]></desc>
  </metadata>
  <trk>
    <name><![CDATA[70km Nez de boeuf 2024]]></name>
    <trkseg>
      <trkpt lat="48.37922" lon="2.37764">
        <ele>74.4</ele>
        <time>2024-05-26T18:51:56.000Z</time>
      </trkpt>
      <trkpt lat="48.37886" lon="2.3776">
        <ele>74.29</ele>
        <time>2024-05-26T18:51:56.007Z</time>
      </trkpt>
      <trkpt lat="48.37879" lon="2.37756">
        <ele>74.22</ele>
        <time>2024-05-26T18:51:56.016Z</time>
      </trkpt>
      <trkpt lat="48.37877" lon="2.37753">
        <ele>74.2</ele>
        <time>2024-05-26T18:51:56.025Z</time>
      </trkpt>
      <trkpt lat="48.37873" lon="2.37754">
        <ele>74.17</ele>
        <time>2024-05-26T18:51:56.035Z</time>
      </trkpt>
      <trkpt lat="48.3787" lon="2.37768">
        <ele>73.95</ele>
        <time>2024-05-26T18:51:56.047Z</time>
      </trkpt>
      <trkpt lat="48.37859" lon="2.37772">
        <ele>73.81</ele>
        <time>2024-05-26T18:51:56.061Z</time>
      </trkpt>
      <trkpt lat="48.37844" lon="2.37778">
        <ele>73.61</ele>
        <time>2024-05-26T18:51:56.078Z</time>
      </trkpt>
      <trkpt lat="48.37808" lon="2.37782">
        <ele>73.35</ele>
        <time>2024-05-26T18:51:56.103Z</time>
      </trkpt>
      <trkpt lat="48.37797" lon="2.37782">
        <ele>73.13</ele>
        <time>2024-05-26T18:51:56.130Z</time>
      </trkpt>
      <trkpt lat="48.37772" lon="2.37784">
        <ele>72.85</ele>
        <time>2024-05-26T18:51:56.162Z</time>
      </trkpt>
      <trkpt lat="48.37734" lon="2.37784">
        <ele>72.63</ele>
        <time>2024-05-26T18:51:56.202Z</time>
      </trkpt>
      <trkpt lat="48.37699" lon="2.37788">
        <ele>72.61</ele>
        <time>2024-05-26T18:51:56.248Z</time>
      </trkpt>
      <trkpt lat="48.37663" lon="2.37789">
        <ele>72.47</ele>
        <time>2024-05-26T18:51:56.302Z</time>
      </trkpt>
      <trkpt lat="48.37631" lon="2.37795">
        <ele>72.39</ele>
        <time>2024-05-26T18:51:56.362Z</time>
      </trkpt>
      <trkpt lat="48.37625" lon="2.37796">
        <ele>72.34</ele>
        <time>2024-05-26T18:51:56.423Z</time>
      </trkpt>
      <trkpt lat="48.37605" lon="2.37809">
        <ele>72.23</ele>
        <time>2024-05-26T18:51:56.489Z</time>
      </trkpt>
      <trkpt lat="48.37595" lon="2.37817">
        <ele>72.14</ele>
        <time>2024-05-26T18:51:56.557Z</time>
      </trkpt>
      <trkpt lat="48.37573" lon="2.37826">
        <ele>72.08</ele>
        <time>2024-05-26T18:51:56.630Z</time>
      </trkpt>
      <trkpt lat="48.37563" lon="2.37828">
        <ele>72.14</ele>
        <time>2024-05-26T18:51:56.705Z</time>
      </trkpt>
      <trkpt lat="48.37553" lon="2.37828">
        <ele>72.29</ele>
        <time>2024-05-26T18:51:56.782Z</time>
      </trkpt>
      <trkpt lat="48.37546" lon="2.3782">
        <ele>72.52</ele>
        <time>2024-05-26T18:51:56.860Z</time>
      </trkpt>
      <trkpt lat="48.3755" lon="2.37812">
        <ele>72.83</ele>
        <time>2024-05-26T18:51:56.940Z</time>
      </trkpt>
      <trkpt lat="48.37541" lon="2.37806">
        <ele>73.2</ele>
        <time>2024-05-26T18:51:57.022Z</time>
      </trkpt>
      <trkpt lat="48.37532" lon="2.37808">
        <ele>73.59</ele>
        <time>2024-05-26T18:51:57.106Z</time>
      </trkpt>
      <trkpt lat="48.37521" lon="2.37808">
        <ele>74</ele>
        <time>2024-05-26T18:51:57.192Z</time>
      </trkpt>
      <trkpt lat="48.37515" lon="2.37809">
        <ele>74.44</ele>
        <time>2024-05-26T18:51:57.279Z</time>
      </trkpt>
      <trkpt lat="48.37476" lon="2.3782">
        <ele>74.82</ele>
        <time>2024-05-26T18:51:57.374Z</time>
      </trkpt>
      <trkpt lat="48.37443" lon="2.37827">
        <ele>75.27</ele>
        <time>2024-05-26T18:51:57.476Z</time>
      </trkpt>
      <trkpt lat="48.37396" lon="2.37838">
        <ele>75.79</ele>
        <time>2024-05-26T18:51:57.587Z</time>
      </trkpt>
      <trkpt lat="48.37385" lon="2.37841">
        <ele>76.36</ele>
        <time>2024-05-26T18:51:57.700Z</time>
      </trkpt>
      <trkpt lat="48.37376" lon="2.37835">
        <ele>77.02</ele>
        <time>2024-05-26T18:51:57.815Z</time>
      </trkpt>
      <trkpt lat="48.37366" lon="2.3781">
        <ele>77.78</ele>
        <time>2024-05-26T18:51:57.934Z</time>
      </trkpt>
      <trkpt lat="48.37358" lon="2.37782">
        <ele>78.69</ele>
        <time>2024-05-26T18:51:58.057Z</time>
      </trkpt>
      <trkpt lat="48.37357" lon="2.37775">
        <ele>79.58</ele>
        <time>2024-05-26T18:51:58.181Z</time>
      </trkpt>
      <trkpt lat="48.37357" lon="2.37768">
        <ele>80.49</ele>
        <time>2024-05-26T18:51:58.306Z</time>
      </trkpt>
      <trkpt lat="48.37357" lon="2.37755">
        <ele>81.46</ele>
        <time>2024-05-26T18:51:58.433Z</time>
      </trkpt>
      <trkpt lat="48.37356" lon="2.37736">
        <ele>82.55</ele>
        <time>2024-05-26T18:51:58.562Z</time>
      </trkpt>
      <trkpt lat="48.37356" lon="2.37721">
        <ele>83.71</ele>
        <time>2024-05-26T18:51:58.693Z</time>
      </trkpt>
      <trkpt lat="48.37356" lon="2.37706">
        <ele>84.94</ele>
        <time>2024-05-26T18:51:58.826Z</time>
      </trkpt>
      <trkpt lat="48.37357" lon="2.37697">
        <ele>86.17</ele>
        <time>2024-05-26T18:51:58.961Z</time>
      </trkpt>
      <trkpt lat="48.37357" lon="2.37687">
        <ele>87.38</ele>
        <time>2024-05-26T18:51:59.097Z</time>
      </trkpt>
      <trkpt lat="48.37358" lon="2.37678">
        <ele>88.55</ele>
        <time>2024-05-26T18:51:59.234Z</time>
      </trkpt>
      <trkpt lat="48.37358" lon="2.37673">
        <ele>89.67</ele>
        <time>2024-05-26T18:51:59.372Z</time>
      </trkpt>
      <trkpt lat="48.3736" lon="2.37664">
        <ele>90.78</ele>
        <time>2024-05-26T18:51:59.511Z</time>
      </trkpt>
      <trkpt lat="48.3736" lon="2.3765">
        <ele>91.86</ele>
        <time>2024-05-26T18:51:59.652Z</time>
      </trkpt>
      <trkpt lat="48.37359" lon="2.37645">
        <ele>92.88</ele>
        <time>2024-05-26T18:51:59.794Z</time>
      </trkpt>
      <trkpt lat="48.37359" lon="2.37636">
        <ele>93.86</ele>
        <time>2024-05-26T18:51:59.937Z</time>
      </trkpt>
      <trkpt lat="48.3736" lon="2.37631">
        <ele>94.76</ele>
        <time>2024-05-26T18:52:00.080Z</time>
      </trkpt>
      <trkpt lat="48.3736" lon="2.37618">
        <ele>95.61</ele>
        <time>2024-05-26T18:52:00.225Z</time>
      </trkpt>
      <trkpt lat="48.37361" lon="2.37606">
        <ele>96.42</ele>
        <time>2024-05-26T18:52:00.372Z</time>
      </trkpt>
      <trkpt lat="48.37361" lon="2.37596">
        <ele>97.21</ele>
        <time>2024-05-26T18:52:00.520Z</time>
      </trkpt>
      <trkpt lat="48.37357" lon="2.37587">
        <ele>97.99</ele>
        <time>2024-05-26T18:52:00.670Z</time>
      </trkpt>
      <trkpt lat="48.37354" lon="2.37578">
        <ele>98.73</ele>
        <time>2024-05-26T18:52:00.821Z</time>
      </trkpt>
      <trkpt lat="48.37351" lon="2.37575">
        <ele>99.43</ele>
        <time>2024-05-26T18:52:00.973Z</time>
      </trkpt>
      <trkpt lat="48.37348" lon="2.37571">
        <ele>100.09</ele>
        <time>2024-05-26T18:52:01.125Z</time>
      </trkpt>
      <trkpt lat="48.37345" lon="2.37567">
        <ele>100.72</ele>
        <time>2024-05-26T18:52:01.278Z</time>
      </trkpt>
      <trkpt lat="48.37343" lon="2.37565">
        <ele>101.32</ele>
        <time>2024-05-26T18:52:01.432Z</time>
      </trkpt>
      <trkpt lat="48.37342" lon="2.37564">
        <ele>101.87</ele>
        <time>2024-05-26T18:52:01.586Z</time>
      </trkpt>
      <trkpt lat="48.37341" lon="2.37562">
        <ele>102.4</ele>
        <time>2024-05-26T18:52:01.740Z</time>
      </trkpt>
      <trkpt lat="48.37337" lon="2.37558">
        <ele>102.93</ele>
        <time>2024-05-26T18:52:01.895Z</time>
      </trkpt>
      <trkpt lat="48.37337" lon="2.37556">
        <ele>103.42</ele>
        <time>2024-05-26T18:52:02.050Z</time>
      </trkpt>
      <trkpt lat="48.37335" lon="2.37552">
        <ele>103.91</ele>
        <time>2024-05-26T18:52:02.206Z</time>
      </trkpt>
      <trkpt lat="48.37334" lon="2.37549">
        <ele>104.36</ele>
        <time>2024-05-26T18:52:02.363Z</time>
      </trkpt>
      <trkpt lat="48.37332" lon="2.37547">
        <ele>104.81</ele>
        <time>2024-05-26T18:52:02.520Z</time>
      </trkpt>
      <trkpt lat="48.37328" lon="2.37541">
        <ele>105.25</ele>
        <time>2024-05-26T18:52:02.678Z</time>
      </trkpt>
      <trkpt lat="48.37327" lon="2.37539">
        <ele>105.67</ele>
        <time>2024-05-26T18:52:02.836Z</time>
      </trkpt>
      <trkpt lat="48.37323" lon="2.37532">
        <ele>106.1</ele>
        <time>2024-05-26T18:52:02.996Z</time>
      </trkpt>
      <trkpt lat="48.37322" lon="2.3753">
        <ele>106.51</ele>
        <time>2024-05-26T18:52:03.156Z</time>
      </trkpt>
      <trkpt lat="48.3732" lon="2.37527">
        <ele>106.92</ele>
        <time>2024-05-26T18:52:03.316Z</time>
      </trkpt>
      <trkpt lat="48.37318" lon="2.37522">
        <ele>107.33</ele>
        <time>2024-05-26T18:52:03.477Z</time>
      </trkpt>
      <trkpt lat="48.37318" lon="2.37515">
        <ele>107.77</ele>
        <time>2024-05-26T18:52:03.639Z</time>
      </trkpt>
      <trkpt lat="48.37319" lon="2.37513">
        <ele>108.18</ele>
        <time>2024-05-26T18:52:03.802Z</time>
      </trkpt>
      <trkpt lat="48.3732" lon="2.3751">
        <ele>108.58</ele>
        <time>2024-05-26T18:52:03.965Z</time>
      </trkpt>
      <trkpt lat="48.37321" lon="2.37507">
        <ele>108.98</ele>
        <time>2024-05-26T18:52:04.128Z</time>
      </trkpt>
      <trkpt lat="48.37321" lon="2.37505">
        <ele>109.39</ele>
        <time>2024-05-26T18:52:04.292Z</time>
      </trkpt>
      <trkpt lat="48.3732" lon="2.37499">
        <ele>109.81</ele>
        <time>2024-05-26T18:52:04.457Z</time>
      </trkpt>
      <trkpt lat="48.37317" lon="2.37484">
        <ele>110.3</ele>
        <time>2024-05-26T18:52:04.624Z</time>
      </trkpt>
      <trkpt lat="48.37317" lon="2.37472">
        <ele>110.78</ele>
        <time>2024-05-26T18:52:04.792Z</time>
      </trkpt>
      <trkpt lat="48.37318" lon="2.37461">
        <ele>111.26</ele>
        <time>2024-05-26T18:52:04.962Z</time>
      </trkpt>
      <trkpt lat="48.37317" lon="2.37454">
        <ele>111.74</ele>
        <time>2024-05-26T18:52:05.133Z</time>
      </trkpt>
      <trkpt lat="48.37317" lon="2.37441">
        <ele>112.27</ele>
        <time>2024-05-26T18:52:05.305Z</time>
      </trkpt>
      <trkpt lat="48.37317" lon="2.37437">
        <ele>112.75</ele>
        <time>2024-05-26T18:52:05.478Z</time>
      </trkpt>
      <trkpt lat="48.37317" lon="2.3742">
        <ele>113.27</ele>
        <time>2024-05-26T18:52:05.653Z</time>
      </trkpt>
      <trkpt lat="48.37316" lon="2.37404">
        <ele>113.81</ele>
        <time>2024-05-26T18:52:05.830Z</time>
      </trkpt>
      <trkpt lat="48.37316" lon="2.37401">
        <ele>114.3</ele>
        <time>2024-05-26T18:52:06.008Z</time>
      </trkpt>
      <trkpt lat="48.3732" lon="2.3739">
        <ele>114.77</ele>
        <time>2024-05-26T18:52:06.187Z</time>
      </trkpt>
      <trkpt lat="48.37322" lon="2.37384">
        <ele>115.24</ele>
        <time>2024-05-26T18:52:06.367Z</time>
      </trkpt>
      <trkpt lat="48.37325" lon="2.37377">
        <ele>115.72</ele>
        <time>2024-05-26T18:52:06.548Z</time>
      </trkpt>
      <trkpt lat="48.37332" lon="2.37364">
        <ele>116.21</ele>
        <time>2024-05-26T18:52:06.732Z</time>
      </trkpt>
      <trkpt lat="48.37336" lon="2.37357">
        <ele>116.68</ele>
        <time>2024-05-26T18:52:06.917Z</time>
      </trkpt>
      <trkpt lat="48.3735" lon="2.37339">
        <ele>117.19</ele>
        <time>2024-05-26T18:52:07.106Z</time>
      </trkpt>
      <trkpt lat="48.37358" lon="2.37329">
        <ele>117.66</ele>
        <time>2024-05-26T18:52:07.297Z</time>
      </trkpt>
      <trkpt lat="48.37365" lon="2.37318">
        <ele>118.09</ele>
        <time>2024-05-26T18:52:07.490Z</time>
      </trkpt>
      <trkpt lat="48.37365" lon="2.37315">
        <ele>118.51</ele>
        <time>2024-05-26T18:52:07.683Z</time>
      </trkpt>
      <trkpt lat="48.37365" lon="2.37311">
        <ele>118.91</ele>
        <time>2024-05-26T18:52:07.877Z</time>
      </trkpt>
      <trkpt lat="48.37365" lon="2.373">
        <ele>119.32</ele>
        <time>2024-05-26T18:52:08.072Z</time>
      </trkpt>
      <trkpt lat="48.37367" lon="2.37286">
        <ele>119.73</ele>
        <time>2024-05-26T18:52:08.269Z</time>
      </trkpt>
      <trkpt lat="48.37369" lon="2.37273">
        <ele>120.1</ele>
        <time>2024-05-26T18:52:08.468Z</time>
      </trkpt>
      <trkpt lat="48.37371" lon="2.37255">
        <ele>120.45</ele>
        <time>2024-05-26T18:52:08.669Z</time>
      </trkpt>
      <trkpt lat="48.37371" lon="2.3725">
        <ele>120.79</ele>
        <time>2024-05-26T18:52:08.871Z</time>
      </trkpt>
      <trkpt lat="48.37375" lon="2.37207">
        <ele>121.15</ele>
        <time>2024-05-26T18:52:09.079Z</time>
      </trkpt>
      <trkpt lat="48.37376" lon="2.37196">
        <ele>121.49</ele>
        <time>2024-05-26T18:52:09.288Z</time>
      </trkpt>
      <trkpt lat="48.37381" lon="2.37154">
        <ele>121.81</ele>
        <time>2024-05-26T18:52:09.503Z</time>
      </trkpt>
      <trkpt lat="48.37385" lon="2.37105">
        <ele>122.14</ele>
        <time>2024-05-26T18:52:09.724Z</time>
      </trkpt>
      <trkpt lat="48.37386" lon="2.37099">
        <ele>122.42</ele>
        <time>2024-05-26T18:52:09.946Z</time>
      </trkpt>
      <trkpt lat="48.37387" lon="2.37086">
        <ele>122.68</ele>
        <time>2024-05-26T18:52:10.170Z</time>
      </trkpt>
      <trkpt lat="48.37388" lon="2.37045">
        <ele>122.93</ele>
        <time>2024-05-26T18:52:10.399Z</time>
      </trkpt>
      <trkpt lat="48.3739" lon="2.36988">
        <ele>123.16</ele>
        <time>2024-05-26T18:52:10.636Z</time>
      </trkpt>
      <trkpt lat="48.37391" lon="2.36915">
        <ele>123.42</ele>
        <time>2024-05-26T18:52:10.883Z</time>
      </trkpt>
      <trkpt lat="48.37393" lon="2.36838">
        <ele>123.63</ele>
        <time>2024-05-26T18:52:11.140Z</time>
      </trkpt>
      <trkpt lat="48.37395" lon="2.36759">
        <ele>123.79</ele>
        <time>2024-05-26T18:52:11.408Z</time>
      </trkpt>
      <trkpt lat="48.37397" lon="2.36681">
        <ele>123.98</ele>
        <time>2024-05-26T18:52:11.686Z</time>
      </trkpt>
      <trkpt lat="48.37399" lon="2.36595">
        <ele>124.12</ele>
        <time>2024-05-26T18:52:11.975Z</time>
      </trkpt>
      <trkpt lat="48.374" lon="2.36543">
        <ele>124.27</ele>
        <time>2024-05-26T18:52:12.271Z</time>
      </trkpt>
      <trkpt lat="48.37402" lon="2.36465">
        <ele>124.4</ele>
        <time>2024-05-26T18:52:12.578Z</time>
      </trkpt>
      <trkpt lat="48.37403" lon="2.36404">
        <ele>124.46</ele>
        <time>2024-05-26T18:52:12.893Z</time>
      </trkpt>
      <trkpt lat="48.37404" lon="2.36389">
        <ele>124.54</ele>
        <time>2024-05-26T18:52:13.210Z</time>
      </trkpt>
      <trkpt lat="48.37404" lon="2.3639">
        <ele>124.6</ele>
        <time>2024-05-26T18:52:13.527Z</time>
      </trkpt>
      <trkpt lat="48.37404" lon="2.3639">
        <ele>124.65</ele>
        <time>2024-05-26T18:52:13.844Z</time>
      </trkpt>
      <trkpt lat="48.37404" lon="2.3639">
        <ele>124.68</ele>
        <time>2024-05-26T18:52:14.161Z</time>
      </trkpt>
      <trkpt lat="48.37405" lon="2.36388">
        <ele>124.7</ele>
        <time>2024-05-26T18:52:14.479Z</time>
      </trkpt>
      <trkpt lat="48.37405" lon="2.36375">
        <ele>124.7</ele>
        <time>2024-05-26T18:52:14.798Z</time>
      </trkpt>
      <trkpt lat="48.37405" lon="2.36346">
        <ele>124.68</ele>
        <time>2024-05-26T18:52:15.121Z</time>
      </trkpt>
      <trkpt lat="48.37408" lon="2.36288">
        <ele>124.67</ele>
        <time>2024-05-26T18:52:15.452Z</time>
      </trkpt>
      <trkpt lat="48.37408" lon="2.3628">
        <ele>124.62</ele>
        <time>2024-05-26T18:52:15.784Z</time>
      </trkpt>
      <trkpt lat="48.3741" lon="2.36264">
        <ele>124.56</ele>
        <time>2024-05-26T18:52:16.118Z</time>
      </trkpt>
      <trkpt lat="48.37409" lon="2.36249">
        <ele>124.47</ele>
        <time>2024-05-26T18:52:16.454Z</time>
      </trkpt>
      <trkpt lat="48.37409" lon="2.36242">
        <ele>124.36</ele>
        <time>2024-05-26T18:52:16.791Z</time>
      </trkpt>
      <trkpt lat="48.3741" lon="2.36202">
        <ele>124.23</ele>
        <time>2024-05-26T18:52:17.133Z</time>
      </trkpt>
      <trkpt lat="48.37412" lon="2.36129">
        <ele>124.03</ele>
        <time>2024-05-26T18:52:17.485Z</time>
      </trkpt>
      <trkpt lat="48.37412" lon="2.36121">
        <ele>123.85</ele>
        <time>2024-05-26T18:52:17.838Z</time>
      </trkpt>
      <trkpt lat="48.37413" lon="2.36072">
        <ele>123.61</ele>
        <time>2024-05-26T18:52:18.198Z</time>
      </trkpt>
      <trkpt lat="48.37412" lon="2.36056">
        <ele>123.38</ele>
        <time>2024-05-26T18:52:18.560Z</time>
      </trkpt>
      <trkpt lat="48.37412" lon="2.36025">
        <ele>123.12</ele>
        <time>2024-05-26T18:52:18.926Z</time>
      </trkpt>
      <trkpt lat="48.37413" lon="2.36003">
        <ele>122.84</ele>
        <time>2024-05-26T18:52:19.295Z</time>
      </trkpt>
      <trkpt lat="48.37418" lon="2.35994">
        <ele>122.54</ele>
        <time>2024-05-26T18:52:19.665Z</time>
      </trkpt>
      <trkpt lat="48.3743" lon="2.35998">
        <ele>122.19</ele>
        <time>2024-05-26T18:52:20.038Z</time>
      </trkpt>
      <trkpt lat="48.37435" lon="2.36002">
        <ele>121.83</ele>
        <time>2024-05-26T18:52:20.412Z</time>
      </trkpt>
      <trkpt lat="48.37471" lon="2.36028">
        <ele>121.48</ele>
        <time>2024-05-26T18:52:20.794Z</time>
      </trkpt>
      <trkpt lat="48.37512" lon="2.36056">
        <ele>121.1</ele>
        <time>2024-05-26T18:52:21.185Z</time>
      </trkpt>
      <trkpt lat="48.37558" lon="2.36087">
        <ele>120.59</ele>
        <time>2024-05-26T18:52:21.586Z</time>
      </trkpt>
      <trkpt lat="48.37575" lon="2.36098">
        <ele>120.1</ele>
        <time>2024-05-26T18:52:21.991Z</time>
      </trkpt>
      <trkpt lat="48.37585" lon="2.36107">
        <ele>119.59</ele>
        <time>2024-05-26T18:52:22.398Z</time>
      </trkpt>
      <trkpt lat="48.37596" lon="2.36113">
        <ele>119.05</ele>
        <time>2024-05-26T18:52:22.808Z</time>
      </trkpt>
      <trkpt lat="48.37635" lon="2.36138">
        <ele>118.49</ele>
        <time>2024-05-26T18:52:23.226Z</time>
      </trkpt>
      <trkpt lat="48.37671" lon="2.36158">
        <ele>117.89</ele>
        <time>2024-05-26T18:52:23.652Z</time>
      </trkpt>
      <trkpt lat="48.37683" lon="2.36166">
        <ele>117.27</ele>
        <time>2024-05-26T18:52:24.080Z</time>
      </trkpt>
      <trkpt lat="48.37694" lon="2.36175">
        <ele>116.63</ele>
        <time>2024-05-26T18:52:24.511Z</time>
      </trkpt>
      <trkpt lat="48.3771" lon="2.36192">
        <ele>115.95</ele>
        <time>2024-05-26T18:52:24.946Z</time>
      </trkpt>
      <trkpt lat="48.37713" lon="2.36199">
        <ele>115.27</ele>
        <time>2024-05-26T18:52:25.382Z</time>
      </trkpt>
      <trkpt lat="48.37716" lon="2.36213">
        <ele>114.57</ele>
        <time>2024-05-26T18:52:25.820Z</time>
      </trkpt>
      <trkpt lat="48.37727" lon="2.36232">
        <ele>113.82</ele>
        <time>2024-05-26T18:52:26.261Z</time>
      </trkpt>
      <trkpt lat="48.37745" lon="2.36258">
        <ele>112.98</ele>
        <time>2024-05-26T18:52:26.707Z</time>
      </trkpt>
      <trkpt lat="48.37751" lon="2.36268">
        <ele>112.17</ele>
        <time>2024-05-26T18:52:27.155Z</time>
      </trkpt>
      <trkpt lat="48.37762" lon="2.36288">
        <ele>111.3</ele>
        <time>2024-05-26T18:52:27.606Z</time>
      </trkpt>
      <trkpt lat="48.37768" lon="2.36299">
        <ele>110.43</ele>
        <time>2024-05-26T18:52:28.059Z</time>
      </trkpt>
      <trkpt lat="48.3778" lon="2.36324">
        <ele>109.52</ele>
        <time>2024-05-26T18:52:28.516Z</time>
      </trkpt>
      <trkpt lat="48.3779" lon="2.36355">
        <ele>108.62</ele>
        <time>2024-05-26T18:52:28.978Z</time>
      </trkpt>
      <trkpt lat="48.37794" lon="2.3637">
        <ele>107.69</ele>
        <time>2024-05-26T18:52:29.442Z</time>
      </trkpt>
      <trkpt lat="48.37795" lon="2.36386">
        <ele>106.75</ele>
        <time>2024-05-26T18:52:29.908Z</time>
      </trkpt>
      <trkpt lat="48.37796" lon="2.36401">
        <ele>105.81</ele>
        <time>2024-05-26T18:52:30.376Z</time>
      </trkpt>
      <trkpt lat="48.37797" lon="2.36416">
        <ele>104.87</ele>
        <time>2024-05-26T18:52:30.846Z</time>
      </trkpt>
      <trkpt lat="48.37799" lon="2.36431">
        <ele>103.92</ele>
        <time>2024-05-26T18:52:31.318Z</time>
      </trkpt>
      <trkpt lat="48.37801" lon="2.36445">
        <ele>102.96</ele>
        <time>2024-05-26T18:52:31.792Z</time>
      </trkpt>
      <trkpt lat="48.37804" lon="2.36457">
        <ele>102.01</ele>
        <time>2024-05-26T18:52:32.268Z</time>
      </trkpt>
      <trkpt lat="48.37809" lon="2.36481">
        <ele>101.05</ele>
        <time>2024-05-26T18:52:32.747Z</time>
      </trkpt>
      <trkpt lat="48.37818" lon="2.36505">
        <ele>100.07</ele>
        <time>2024-05-26T18:52:33.230Z</time>
      </trkpt>
      <trkpt lat="48.37827" lon="2.36527">
        <ele>99.09</ele>
        <time>2024-05-26T18:52:33.717Z</time>
      </trkpt>
      <trkpt lat="48.37832" lon="2.36537">
        <ele>98.13</ele>
        <time>2024-05-26T18:52:34.205Z</time>
      </trkpt>
      <trkpt lat="48.37843" lon="2.36556">
        <ele>97.18</ele>
        <time>2024-05-26T18:52:34.697Z</time>
      </trkpt>
      <trkpt lat="48.37856" lon="2.36574">
        <ele>96.25</ele>
        <time>2024-05-26T18:52:35.192Z</time>
      </trkpt>
      <trkpt lat="48.37867" lon="2.36593">
        <ele>95.33</ele>
        <time>2024-05-26T18:52:35.690Z</time>
      </trkpt>
      <trkpt lat="48.37873" lon="2.36604">
        <ele>94.45</ele>
        <time>2024-05-26T18:52:36.190Z</time>
      </trkpt>
      <trkpt lat="48.37878" lon="2.36615">
        <ele>93.57</ele>
        <time>2024-05-26T18:52:36.692Z</time>
      </trkpt>
      <trkpt lat="48.37883" lon="2.36638">
        <ele>92.68</ele>
        <time>2024-05-26T18:52:37.197Z</time>
      </trkpt>
      <trkpt lat="48.37891" lon="2.36663">
        <ele>91.85</ele>
        <time>2024-05-26T18:52:37.706Z</time>
      </trkpt>
      <trkpt lat="48.37895" lon="2.36675">
        <ele>91.05</ele>
        <time>2024-05-26T18:52:38.217Z</time>
      </trkpt>
      <trkpt lat="48.379" lon="2.36686">
        <ele>90.28</ele>
        <time>2024-05-26T18:52:38.730Z</time>
      </trkpt>
      <trkpt lat="48.37904" lon="2.36696">
        <ele>89.52</ele>
        <time>2024-05-26T18:52:39.244Z</time>
      </trkpt>
      <trkpt lat="48.37914" lon="2.36729">
        <ele>88.79</ele>
        <time>2024-05-26T18:52:39.763Z</time>
      </trkpt>
      <trkpt lat="48.37917" lon="2.36739">
        <ele>88.12</ele>
        <time>2024-05-26T18:52:40.283Z</time>
      </trkpt>
      <trkpt lat="48.37926" lon="2.3677">
        <ele>87.47</ele>
        <time>2024-05-26T18:52:40.808Z</time>
      </trkpt>
      <trkpt lat="48.37927" lon="2.36782">
        <ele>86.85</ele>
        <time>2024-05-26T18:52:41.334Z</time>
      </trkpt>
      <trkpt lat="48.3794" lon="2.36828">
        <ele>86.22</ele>
        <time>2024-05-26T18:52:41.867Z</time>
      </trkpt>
      <trkpt lat="48.3795" lon="2.36848">
        <ele>85.69</ele>
        <time>2024-05-26T18:52:42.404Z</time>
      </trkpt>
      <trkpt lat="48.37962" lon="2.36867">
        <ele>85.17</ele>
        <time>2024-05-26T18:52:42.944Z</time>
      </trkpt>
      <trkpt lat="48.37983" lon="2.36892">
        <ele>84.63</ele>
        <time>2024-05-26T18:52:43.489Z</time>
      </trkpt>
      <trkpt lat="48.37998" lon="2.36907">
        <ele>84.16</ele>
        <time>2024-05-26T18:52:44.038Z</time>
      </trkpt>
      <trkpt lat="48.38032" lon="2.36939">
        <ele>83.77</ele>
        <time>2024-05-26T18:52:44.595Z</time>
      </trkpt>
      <trkpt lat="48.38039" lon="2.36945">
        <ele>83.4</ele>
        <time>2024-05-26T18:52:45.154Z</time>
      </trkpt>
      <trkpt lat="48.38065" lon="2.3697">
        <ele>82.98</ele>
        <time>2024-05-26T18:52:45.719Z</time>
      </trkpt>
      <trkpt lat="48.38073" lon="2.36976">
        <ele>82.68</ele>
        <time>2024-05-26T18:52:46.286Z</time>
      </trkpt>
      <trkpt lat="48.38106" lon="2.37006">
        <ele>82.33</ele>
        <time>2024-05-26T18:52:46.860Z</time>
      </trkpt>
      <trkpt lat="48.38113" lon="2.37016">
        <ele>82.13</ele>
        <time>2024-05-26T18:52:47.436Z</time>
      </trkpt>
      <trkpt lat="48.38124" lon="2.37034">
        <ele>81.96</ele>
        <time>2024-05-26T18:52:48.015Z</time>
      </trkpt>
      <trkpt lat="48.38135" lon="2.37051">
        <ele>81.82</ele>
        <time>2024-05-26T18:52:48.598Z</time>
      </trkpt>
      <trkpt lat="48.38147" lon="2.37068">
        <ele>81.81</ele>
        <time>2024-05-26T18:52:49.184Z</time>
      </trkpt>
      <trkpt lat="48.38166" lon="2.37106">
        <ele>81.87</ele>
        <time>2024-05-26T18:52:49.776Z</time>
      </trkpt>
      <trkpt lat="48.38173" lon="2.37121">
        <ele>81.94</ele>
        <time>2024-05-26T18:52:50.371Z</time>
      </trkpt>
      <trkpt lat="48.38182" lon="2.37128">
        <ele>82.12</ele>
        <time>2024-05-26T18:52:50.968Z</time>
      </trkpt>
      <trkpt lat="48.38197" lon="2.37131">
        <ele>82.4</ele>
        <time>2024-05-26T18:52:51.568Z</time>
      </trkpt>
      <trkpt lat="48.38204" lon="2.37131">
        <ele>82.65</ele>
        <time>2024-05-26T18:52:52.169Z</time>
      </trkpt>
      <trkpt lat="48.38207" lon="2.37132">
        <ele>82.93</ele>
        <time>2024-05-26T18:52:52.771Z</time>
      </trkpt>
      <trkpt lat="48.38213" lon="2.37132">
        <ele>83.27</ele>
        <time>2024-05-26T18:52:53.374Z</time>
      </trkpt>
      <trkpt lat="48.3822" lon="2.37129">
        <ele>83.66</ele>
        <time>2024-05-26T18:52:53.978Z</time>
      </trkpt>
      <trkpt lat="48.3823" lon="2.37134">
        <ele>84.06</ele>
        <time>2024-05-26T18:52:54.585Z</time>
      </trkpt>
      <trkpt lat="48.38231" lon="2.37134">
        <ele>84.47</ele>
        <time>2024-05-26T18:52:55.192Z</time>
      </trkpt>
      <trkpt lat="48.38246" lon="2.37136">
        <ele>84.96</ele>
        <time>2024-05-26T18:52:55.802Z</time>
      </trkpt>
      <trkpt lat="48.38261" lon="2.3714">
        <ele>85.51</ele>
        <time>2024-05-26T18:52:56.415Z</time>
      </trkpt>
      <trkpt lat="48.38281" lon="2.37149">
        <ele>86.09</ele>
        <time>2024-05-26T18:52:57.032Z</time>
      </trkpt>
      <trkpt lat="48.38297" lon="2.37158">
        <ele>86.62</ele>
        <time>2024-05-26T18:52:57.652Z</time>
      </trkpt>
      <trkpt lat="48.38303" lon="2.37165">
        <ele>87.16</ele>
        <time>2024-05-26T18:52:58.274Z</time>
      </trkpt>
      <trkpt lat="48.38309" lon="2.37177">
        <ele>87.69</ele>
        <time>2024-05-26T18:52:58.898Z</time>
      </trkpt>
      <trkpt lat="48.38321" lon="2.37193">
        <ele>88.23</ele>
        <time>2024-05-26T18:52:59.525Z</time>
      </trkpt>
      <trkpt lat="48.38323" lon="2.37195">
        <ele>88.79</ele>
        <time>2024-05-26T18:53:00.153Z</time>
      </trkpt>
      <trkpt lat="48.38328" lon="2.37198">
        <ele>89.37</ele>
        <time>2024-05-26T18:53:00.782Z</time>
      </trkpt>
      <trkpt lat="48.38336" lon="2.37201">
        <ele>89.98</ele>
        <time>2024-05-26T18:53:01.412Z</time>
      </trkpt>
      <trkpt lat="48.38341" lon="2.37203">
        <ele>90.59</ele>
        <time>2024-05-26T18:53:02.043Z</time>
      </trkpt>
      <trkpt lat="48.38353" lon="2.37203">
        <ele>91.21</ele>
        <time>2024-05-26T18:53:02.677Z</time>
      </trkpt>
      <trkpt lat="48.38369" lon="2.3721">
        <ele>91.85</ele>
        <time>2024-05-26T18:53:03.314Z</time>
      </trkpt>
      <trkpt lat="48.38372" lon="2.37214">
        <ele>92.47</ele>
        <time>2024-05-26T18:53:03.952Z</time>
      </trkpt>
      <trkpt lat="48.3838" lon="2.37223">
        <ele>93.09</ele>
        <time>2024-05-26T18:53:04.592Z</time>
      </trkpt>
      <trkpt lat="48.38387" lon="2.37227">
        <ele>93.73</ele>
        <time>2024-05-26T18:53:05.233Z</time>
      </trkpt>
      <trkpt lat="48.38396" lon="2.37231">
        <ele>94.39</ele>
        <time>2024-05-26T18:53:05.876Z</time>
      </trkpt>
      <trkpt lat="48.38407" lon="2.37239">
        <ele>95.06</ele>
        <time>2024-05-26T18:53:06.522Z</time>
      </trkpt>
      <trkpt lat="48.38414" lon="2.37246">
        <ele>95.72</ele>
        <time>2024-05-26T18:53:07.169Z</time>
      </trkpt>
      <trkpt lat="48.38425" lon="2.37259">
        <ele>96.39</ele>
        <time>2024-05-26T18:53:07.819Z</time>
      </trkpt>
      <trkpt lat="48.38439" lon="2.37276">
        <ele>97.06</ele>
        <time>2024-05-26T18:53:08.473Z</time>
      </trkpt>
      <trkpt lat="48.38441" lon="2.37279">
        <ele>97.73</ele>
        <time>2024-05-26T18:53:09.127Z</time>
      </trkpt>
      <trkpt lat="48.38448" lon="2.37291">
        <ele>98.37</ele>
        <time>2024-05-26T18:53:09.784Z</time>
      </trkpt>
      <trkpt lat="48.38453" lon="2.37297">
        <ele>99.03</ele>
        <time>2024-05-26T18:53:10.442Z</time>
      </trkpt>
      <trkpt lat="48.38469" lon="2.3731">
        <ele>99.76</ele>
        <time>2024-05-26T18:53:11.104Z</time>
      </trkpt>
      <trkpt lat="48.38493" lon="2.37326">
        <ele>100.46</ele>
        <time>2024-05-26T18:53:11.771Z</time>
      </trkpt>
      <trkpt lat="48.38504" lon="2.37339">
        <ele>101.11</ele>
        <time>2024-05-26T18:53:12.441Z</time>
      </trkpt>
      <trkpt lat="48.38509" lon="2.37341">
        <ele>101.8</ele>
        <time>2024-05-26T18:53:13.112Z</time>
      </trkpt>
      <trkpt lat="48.3853" lon="2.37351">
        <ele>102.5</ele>
        <time>2024-05-26T18:53:13.787Z</time>
      </trkpt>
      <trkpt lat="48.38541" lon="2.37358">
        <ele>103.25</ele>
        <time>2024-05-26T18:53:14.464Z</time>
      </trkpt>
      <trkpt lat="48.38553" lon="2.37365">
        <ele>104.01</ele>
        <time>2024-05-26T18:53:15.144Z</time>
      </trkpt>
      <trkpt lat="48.38582" lon="2.37387">
        <ele>104.73</ele>
        <time>2024-05-26T18:53:15.830Z</time>
      </trkpt>
      <trkpt lat="48.3859" lon="2.37397">
        <ele>105.42</ele>
        <time>2024-05-26T18:53:16.519Z</time>
      </trkpt>
      <trkpt lat="48.38591" lon="2.37395">
        <ele>106.17</ele>
        <time>2024-05-26T18:53:17.208Z</time>
      </trkpt>
      <trkpt lat="48.38591" lon="2.37392">
        <ele>106.92</ele>
        <time>2024-05-26T18:53:17.897Z</time>
      </trkpt>
      <trkpt lat="48.38596" lon="2.37381">
        <ele>107.73</ele>
        <time>2024-05-26T18:53:18.588Z</time>
      </trkpt>
      <trkpt lat="48.38597" lon="2.37376">
        <ele>108.5</ele>
        <time>2024-05-26T18:53:19.280Z</time>
      </trkpt>
      <trkpt lat="48.38596" lon="2.37372">
        <ele>109.27</ele>
        <time>2024-05-26T18:53:19.972Z</time>
      </trkpt>
      <trkpt lat="48.38596" lon="2.37369">
        <ele>110.03</ele>
        <time>2024-05-26T18:53:20.665Z</time>
      </trkpt>
      <trkpt lat="48.38597" lon="2.37365">
        <ele>110.79</ele>
        <time>2024-05-26T18:53:21.358Z</time>
      </trkpt>
      <trkpt lat="48.38598" lon="2.37358">
        <ele>111.58</ele>
        <time>2024-05-26T18:53:22.052Z</time>
      </trkpt>
      <trkpt lat="48.38597" lon="2.37347">
        <ele>112.34</ele>
        <time>2024-05-26T18:53:22.748Z</time>
      </trkpt>
      <trkpt lat="48.38595" lon="2.37336">
        <ele>113.09</ele>
        <time>2024-05-26T18:53:23.445Z</time>
      </trkpt>
      <trkpt lat="48.38594" lon="2.37324">
        <ele>113.83</ele>
        <time>2024-05-26T18:53:24.144Z</time>
      </trkpt>
      <trkpt lat="48.38595" lon="2.3732">
        <ele>114.53</ele>
        <time>2024-05-26T18:53:24.843Z</time>
      </trkpt>
      <trkpt lat="48.38595" lon="2.37311">
        <ele>115.24</ele>
        <time>2024-05-26T18:53:25.544Z</time>
      </trkpt>
      <trkpt lat="48.38595" lon="2.37293">
        <ele>115.98</ele>
        <time>2024-05-26T18:53:26.247Z</time>
      </trkpt>
      <trkpt lat="48.38598" lon="2.37263">
        <ele>116.71</ele>
        <time>2024-05-26T18:53:26.954Z</time>
      </trkpt>
      <trkpt lat="48.38599" lon="2.37259">
        <ele>117.32</ele>
        <time>2024-05-26T18:53:27.661Z</time>
      </trkpt>
      <trkpt lat="48.386" lon="2.37236">
        <ele>117.96</ele>
        <time>2024-05-26T18:53:28.372Z</time>
      </trkpt>
      <trkpt lat="48.38599" lon="2.37213">
        <ele>118.54</ele>
        <time>2024-05-26T18:53:29.086Z</time>
      </trkpt>
      <trkpt lat="48.386" lon="2.3721">
        <ele>119.05</ele>
        <time>2024-05-26T18:53:29.800Z</time>
      </trkpt>
      <trkpt lat="48.38606" lon="2.37197">
        <ele>119.55</ele>
        <time>2024-05-26T18:53:30.516Z</time>
      </trkpt>
      <trkpt lat="48.38613" lon="2.37189">
        <ele>119.98</ele>
        <time>2024-05-26T18:53:31.234Z</time>
      </trkpt>
      <trkpt lat="48.38615" lon="2.37186">
        <ele>120.34</ele>
        <time>2024-05-26T18:53:31.953Z</time>
      </trkpt>
      <trkpt lat="48.38626" lon="2.37172">
        <ele>120.66</ele>
        <time>2024-05-26T18:53:32.674Z</time>
      </trkpt>
      <trkpt lat="48.38628" lon="2.37169">
        <ele>120.94</ele>
        <time>2024-05-26T18:53:33.396Z</time>
      </trkpt>
      <trkpt lat="48.38634" lon="2.37158">
        <ele>121.17</ele>
        <time>2024-05-26T18:53:34.120Z</time>
      </trkpt>
      <trkpt lat="48.38634" lon="2.37154">
        <ele>121.37</ele>
        <time>2024-05-26T18:53:34.845Z</time>
      </trkpt>
      <trkpt lat="48.38635" lon="2.37146">
        <ele>121.52</ele>
        <time>2024-05-26T18:53:35.571Z</time>
      </trkpt>
      <trkpt lat="48.38635" lon="2.37133">
        <ele>121.64</ele>
        <time>2024-05-26T18:53:36.298Z</time>
      </trkpt>
      <trkpt lat="48.38636" lon="2.37129">
        <ele>121.71</ele>
        <time>2024-05-26T18:53:37.026Z</time>
      </trkpt>
      <trkpt lat="48.38637" lon="2.37118">
        <ele>121.73</ele>
        <time>2024-05-26T18:53:37.755Z</time>
      </trkpt>
      <trkpt lat="48.38638" lon="2.37112">
        <ele>121.72</ele>
        <time>2024-05-26T18:53:38.485Z</time>
      </trkpt>
      <trkpt lat="48.38645" lon="2.37097">
        <ele>121.7</ele>
        <time>2024-05-26T18:53:39.218Z</time>
      </trkpt>
      <trkpt lat="48.3865" lon="2.37066">
        <ele>121.6</ele>
        <time>2024-05-26T18:53:39.955Z</time>
      </trkpt>
      <trkpt lat="48.3865" lon="2.3706">
        <ele>121.5</ele>
        <time>2024-05-26T18:53:40.693Z</time>
      </trkpt>
      <trkpt lat="48.3865" lon="2.37029">
        <ele>121.37</ele>
        <time>2024-05-26T18:53:41.435Z</time>
      </trkpt>
      <trkpt lat="48.38643" lon="2.36993">
        <ele>121.19</ele>
        <time>2024-05-26T18:53:42.182Z</time>
      </trkpt>
      <trkpt lat="48.38641" lon="2.36966">
        <ele>121.01</ele>
        <time>2024-05-26T18:53:42.932Z</time>
      </trkpt>
      <trkpt lat="48.38639" lon="2.36958">
        <ele>120.81</ele>
        <time>2024-05-26T18:53:43.684Z</time>
      </trkpt>
      <trkpt lat="48.38639" lon="2.36933">
        <ele>120.55</ele>
        <time>2024-05-26T18:53:44.439Z</time>
      </trkpt>
      <trkpt lat="48.3864" lon="2.36908">
        <ele>120.29</ele>
        <time>2024-05-26T18:53:45.197Z</time>
      </trkpt>
      <trkpt lat="48.38639" lon="2.36894">
        <ele>120.03</ele>
        <time>2024-05-26T18:53:45.957Z</time>
      </trkpt>
      <trkpt lat="48.38641" lon="2.36883">
        <ele>119.77</ele>
        <time>2024-05-26T18:53:46.719Z</time>
      </trkpt>
      <trkpt lat="48.38647" lon="2.36895">
        <ele>119.55</ele>
        <time>2024-05-26T18:53:47.483Z</time>
      </trkpt>
      <trkpt lat="48.38654" lon="2.36903">
        <ele>119.32</ele>
        <time>2024-05-26T18:53:48.248Z</time>
      </trkpt>
      <trkpt lat="48.3867" lon="2.36924">
        <ele>119.09</ele>
        <time>2024-05-26T18:53:49.018Z</time>
      </trkpt>
      <trkpt lat="48.3868" lon="2.36943">
        <ele>118.88</ele>
        <time>2024-05-26T18:53:49.791Z</time>
      </trkpt>
      <trkpt lat="48.38685" lon="2.36955">
        <ele>118.67</ele>
        <time>2024-05-26T18:53:50.566Z</time>
      </trkpt>
      <trkpt lat="48.38694" lon="2.36972">
        <ele>118.45</ele>
        <time>2024-05-26T18:53:51.344Z</time>
      </trkpt>
      <trkpt lat="48.38696" lon="2.3698">
        <ele>118.27</ele>
        <time>2024-05-26T18:53:52.123Z</time>
      </trkpt>
      <trkpt lat="48.38701" lon="2.36997">
        <ele>118.08</ele>
        <time>2024-05-26T18:53:52.904Z</time>
      </trkpt>
      <trkpt lat="48.3871" lon="2.37016">
        <ele>117.91</ele>
        <time>2024-05-26T18:53:53.688Z</time>
      </trkpt>
      <trkpt lat="48.38712" lon="2.3702">
        <ele>117.73</ele>
        <time>2024-05-26T18:53:54.473Z</time>
      </trkpt>
      <trkpt lat="48.3872" lon="2.37038">
        <ele>117.58</ele>
        <time>2024-05-26T18:53:55.261Z</time>
      </trkpt>
      <trkpt lat="48.38726" lon="2.37055">
        <ele>117.45</ele>
        <time>2024-05-26T18:53:56.052Z</time>
      </trkpt>
      <trkpt lat="48.38728" lon="2.37059">
        <ele>117.33</ele>
        <time>2024-05-26T18:53:56.843Z</time>
      </trkpt>
      <trkpt lat="48.38734" lon="2.37077">
        <ele>117.24</ele>
        <time>2024-05-26T18:53:57.637Z</time>
      </trkpt>
      <trkpt lat="48.38736" lon="2.37079">
        <ele>117.15</ele>
        <time>2024-05-26T18:53:58.431Z</time>
      </trkpt>
      <trkpt lat="48.38756" lon="2.37095">
        <ele>116.94</ele>
        <time>2024-05-26T18:53:59.230Z</time>
      </trkpt>
      <trkpt lat="48.38764" lon="2.37103">
        <ele>116.8</ele>
        <time>2024-05-26T18:54:00.031Z</time>
      </trkpt>
      <trkpt lat="48.38779" lon="2.37123">
        <ele>116.68</ele>
        <time>2024-05-26T18:54:00.836Z</time>
      </trkpt>
      <trkpt lat="48.38782" lon="2.37139">
        <ele>116.69</ele>
        <time>2024-05-26T18:54:01.643Z</time>
      </trkpt>
      <trkpt lat="48.38782" lon="2.37143">
        <ele>116.69</ele>
        <time>2024-05-26T18:54:02.451Z</time>
      </trkpt>
      <trkpt lat="48.38785" lon="2.37155">
        <ele>116.73</ele>
        <time>2024-05-26T18:54:03.260Z</time>
      </trkpt>
      <trkpt lat="48.38787" lon="2.37167">
        <ele>116.81</ele>
        <time>2024-05-26T18:54:04.071Z</time>
      </trkpt>
      <trkpt lat="48.3879" lon="2.37191">
        <ele>116.9</ele>
        <time>2024-05-26T18:54:04.885Z</time>
      </trkpt>
      <trkpt lat="48.3879" lon="2.37199">
        <ele>116.98</ele>
        <time>2024-05-26T18:54:05.700Z</time>
      </trkpt>
      <trkpt lat="48.38788" lon="2.37204">
        <ele>117.07</ele>
        <time>2024-05-26T18:54:06.516Z</time>
      </trkpt>
      <trkpt lat="48.38785" lon="2.37211">
        <ele>117.19</ele>
        <time>2024-05-26T18:54:07.333Z</time>
      </trkpt>
      <trkpt lat="48.38779" lon="2.37217">
        <ele>117.33</ele>
        <time>2024-05-26T18:54:08.152Z</time>
      </trkpt>
      <trkpt lat="48.38763" lon="2.37226">
        <ele>117.48</ele>
        <time>2024-05-26T18:54:08.974Z</time>
      </trkpt>
      <trkpt lat="48.38746" lon="2.37234">
        <ele>117.6</ele>
        <time>2024-05-26T18:54:09.799Z</time>
      </trkpt>
      <trkpt lat="48.38733" lon="2.37239">
        <ele>117.69</ele>
        <time>2024-05-26T18:54:10.627Z</time>
      </trkpt>
      <trkpt lat="48.387" lon="2.3725">
        <ele>117.74</ele>
        <time>2024-05-26T18:54:11.462Z</time>
      </trkpt>
      <trkpt lat="48.38691" lon="2.37254">
        <ele>117.82</ele>
        <time>2024-05-26T18:54:12.299Z</time>
      </trkpt>
      <trkpt lat="48.38675" lon="2.37257">
        <ele>117.88</ele>
        <time>2024-05-26T18:54:13.139Z</time>
      </trkpt>
      <trkpt lat="48.3867" lon="2.37258">
        <ele>117.94</ele>
        <time>2024-05-26T18:54:13.980Z</time>
      </trkpt>
      <trkpt lat="48.38656" lon="2.37264">
        <ele>117.99</ele>
        <time>2024-05-26T18:54:14.824Z</time>
      </trkpt>
      <trkpt lat="48.38652" lon="2.37267">
        <ele>118.05</ele>
        <time>2024-05-26T18:54:15.669Z</time>
      </trkpt>
      <trkpt lat="48.38647" lon="2.37282">
        <ele>118.1</ele>
        <time>2024-05-26T18:54:16.516Z</time>
      </trkpt>
      <trkpt lat="48.38651" lon="2.37293">
        <ele>118.14</ele>
        <time>2024-05-26T18:54:17.365Z</time>
      </trkpt>
      <trkpt lat="48.38653" lon="2.37304">
        <ele>118.14</ele>
        <time>2024-05-26T18:54:18.215Z</time>
      </trkpt>
      <trkpt lat="48.38659" lon="2.37322">
        <ele>118.13</ele>
        <time>2024-05-26T18:54:19.068Z</time>
      </trkpt>
      <trkpt lat="48.38666" lon="2.37341">
        <ele>118.11</ele>
        <time>2024-05-26T18:54:19.924Z</time>
      </trkpt>
      <trkpt lat="48.38669" lon="2.3735">
        <ele>118.09</ele>
        <time>2024-05-26T18:54:20.781Z</time>
      </trkpt>
      <trkpt lat="48.38672" lon="2.37351">
        <ele>118.08</ele>
        <time>2024-05-26T18:54:21.639Z</time>
      </trkpt>
      <trkpt lat="48.3868" lon="2.37355">
        <ele>118.06</ele>
        <time>2024-05-26T18:54:22.499Z</time>
      </trkpt>
      <trkpt lat="48.38683" lon="2.37359">
        <ele>118.01</ele>
        <time>2024-05-26T18:54:23.359Z</time>
      </trkpt>
      <trkpt lat="48.38696" lon="2.37381">
        <ele>117.88</ele>
        <time>2024-05-26T18:54:24.223Z</time>
      </trkpt>
      <trkpt lat="48.38704" lon="2.37386">
        <ele>117.8</ele>
        <time>2024-05-26T18:54:25.089Z</time>
      </trkpt>
      <trkpt lat="48.3871" lon="2.37388">
        <ele>117.73</ele>
        <time>2024-05-26T18:54:25.956Z</time>
      </trkpt>
      <trkpt lat="48.38712" lon="2.37389">
        <ele>117.63</ele>
        <time>2024-05-26T18:54:26.824Z</time>
      </trkpt>
      <trkpt lat="48.38714" lon="2.37391">
        <ele>117.5</ele>
        <time>2024-05-26T18:54:27.692Z</time>
      </trkpt>
      <trkpt lat="48.38719" lon="2.37397">
        <ele>117.36</ele>
        <time>2024-05-26T18:54:28.562Z</time>
      </trkpt>
      <trkpt lat="48.38721" lon="2.374">
        <ele>117.2</ele>
        <time>2024-05-26T18:54:29.432Z</time>
      </trkpt>
      <trkpt lat="48.3874" lon="2.37414">
        <ele>117</ele>
        <time>2024-05-26T18:54:30.306Z</time>
      </trkpt>
      <trkpt lat="48.38754" lon="2.37426">
        <ele>116.76</ele>
        <time>2024-05-26T18:54:31.183Z</time>
      </trkpt>
      <trkpt lat="48.38769" lon="2.37439">
        <ele>116.47</ele>
        <time>2024-05-26T18:54:32.064Z</time>
      </trkpt>
      <trkpt lat="48.38772" lon="2.37439">
        <ele>116.25</ele>
        <time>2024-05-26T18:54:32.946Z</time>
      </trkpt>
      <trkpt lat="48.38777" lon="2.37435">
        <ele>116.02</ele>
        <time>2024-05-26T18:54:33.829Z</time>
      </trkpt>
      <trkpt lat="48.3879" lon="2.37433">
        <ele>115.76</ele>
        <time>2024-05-26T18:54:34.714Z</time>
      </trkpt>
      <trkpt lat="48.38802" lon="2.37425">
        <ele>115.5</ele>
        <time>2024-05-26T18:54:35.602Z</time>
      </trkpt>
      <trkpt lat="48.38814" lon="2.37414">
        <ele>115.18</ele>
        <time>2024-05-26T18:54:36.493Z</time>
      </trkpt>
      <trkpt lat="48.38816" lon="2.3741">
        <ele>114.89</ele>
        <time>2024-05-26T18:54:37.384Z</time>
      </trkpt>
      <trkpt lat="48.38816" lon="2.37404">
        <ele>114.62</ele>
        <time>2024-05-26T18:54:38.276Z</time>
      </trkpt>
      <trkpt lat="48.38818" lon="2.37394">
        <ele>114.33</ele>
        <time>2024-05-26T18:54:39.170Z</time>
      </trkpt>
      <trkpt lat="48.38822" lon="2.37379">
        <ele>114.04</ele>
        <time>2024-05-26T18:54:40.066Z</time>
      </trkpt>
      <trkpt lat="48.38831" lon="2.37356">
        <ele>113.68</ele>
        <time>2024-05-26T18:54:40.965Z</time>
      </trkpt>
      <trkpt lat="48.38831" lon="2.37352">
        <ele>113.31</ele>
        <time>2024-05-26T18:54:41.865Z</time>
      </trkpt>
      <trkpt lat="48.38831" lon="2.37341">
        <ele>112.91</ele>
        <time>2024-05-26T18:54:42.766Z</time>
      </trkpt>
      <trkpt lat="48.38829" lon="2.37334">
        <ele>112.5</ele>
        <time>2024-05-26T18:54:43.668Z</time>
      </trkpt>
      <trkpt lat="48.38827" lon="2.37321">
        <ele>112.08</ele>
        <time>2024-05-26T18:54:44.572Z</time>
      </trkpt>
      <trkpt lat="48.38823" lon="2.37301">
        <ele>111.65</ele>
        <time>2024-05-26T18:54:45.479Z</time>
      </trkpt>
      <trkpt lat="48.38819" lon="2.37282">
        <ele>111.19</ele>
        <time>2024-05-26T18:54:46.389Z</time>
      </trkpt>
      <trkpt lat="48.38819" lon="2.37271">
        <ele>110.67</ele>
        <time>2024-05-26T18:54:47.300Z</time>
      </trkpt>
      <trkpt lat="48.38824" lon="2.3726">
        <ele>110.08</ele>
        <time>2024-05-26T18:54:48.213Z</time>
      </trkpt>
      <trkpt lat="48.38832" lon="2.37246">
        <ele>109.43</ele>
        <time>2024-05-26T18:54:49.128Z</time>
      </trkpt>
      <trkpt lat="48.38837" lon="2.37238">
        <ele>108.79</ele>
        <time>2024-05-26T18:54:50.045Z</time>
      </trkpt>
      <trkpt lat="48.38844" lon="2.37229">
        <ele>108.12</ele>
        <time>2024-05-26T18:54:50.964Z</time>
      </trkpt>
      <trkpt lat="48.38843" lon="2.37227">
        <ele>107.52</ele>
        <time>2024-05-26T18:54:51.883Z</time>
      </trkpt>
      <trkpt lat="48.38846" lon="2.37215">
        <ele>106.85</ele>
        <time>2024-05-26T18:54:52.804Z</time>
      </trkpt>
      <trkpt lat="48.38853" lon="2.37201">
        <ele>106.1</ele>
        <time>2024-05-26T18:54:53.727Z</time>
      </trkpt>
      <trkpt lat="48.38852" lon="2.37189">
        <ele>105.41</ele>
        <time>2024-05-26T18:54:54.652Z</time>
      </trkpt>
      <trkpt lat="48.38842" lon="2.37173">
        <ele>104.8</ele>
        <time>2024-05-26T18:54:55.580Z</time>
      </trkpt>
      <trkpt lat="48.38832" lon="2.37157">
        <ele>104.17</ele>
        <time>2024-05-26T18:54:56.510Z</time>
      </trkpt>
      <trkpt lat="48.38818" lon="2.37135">
        <ele>103.51</ele>
        <time>2024-05-26T18:54:57.445Z</time>
      </trkpt>
      <trkpt lat="48.388" lon="2.37109">
        <ele>102.8</ele>
        <time>2024-05-26T18:54:58.384Z</time>
      </trkpt>
      <trkpt lat="48.38791" lon="2.37098">
        <ele>102.04</ele>
        <time>2024-05-26T18:54:59.326Z</time>
      </trkpt>
      <trkpt lat="48.38783" lon="2.37087">
        <ele>101.25</ele>
        <time>2024-05-26T18:55:00.270Z</time>
      </trkpt>
      <trkpt lat="48.38772" lon="2.3707">
        <ele>100.42</ele>
        <time>2024-05-26T18:55:01.217Z</time>
      </trkpt>
      <trkpt lat="48.38771" lon="2.37068">
        <ele>99.58</ele>
        <time>2024-05-26T18:55:02.165Z</time>
      </trkpt>
      <trkpt lat="48.38762" lon="2.37055">
        <ele>98.73</ele>
        <time>2024-05-26T18:55:03.115Z</time>
      </trkpt>
      <trkpt lat="48.38763" lon="2.37052">
        <ele>97.8</ele>
        <time>2024-05-26T18:55:04.065Z</time>
      </trkpt>
      <trkpt lat="48.3877" lon="2.37046">
        <ele>96.74</ele>
        <time>2024-05-26T18:55:05.017Z</time>
      </trkpt>
      <trkpt lat="48.38773" lon="2.37044">
        <ele>95.74</ele>
        <time>2024-05-26T18:55:05.970Z</time>
      </trkpt>
      <trkpt lat="48.38784" lon="2.37033">
        <ele>94.64</ele>
        <time>2024-05-26T18:55:06.925Z</time>
      </trkpt>
      <trkpt lat="48.38794" lon="2.37023">
        <ele>93.59</ele>
        <time>2024-05-26T18:55:07.883Z</time>
      </trkpt>
      <trkpt lat="48.38797" lon="2.37021">
        <ele>92.58</ele>
        <time>2024-05-26T18:55:08.841Z</time>
      </trkpt>
      <trkpt lat="48.38803" lon="2.37013">
        <ele>91.51</ele>
        <time>2024-05-26T18:55:09.801Z</time>
      </trkpt>
      <trkpt lat="48.38805" lon="2.37012">
        <ele>90.48</ele>
        <time>2024-05-26T18:55:10.762Z</time>
      </trkpt>
      <trkpt lat="48.3881" lon="2.3701">
        <ele>89.44</ele>
        <time>2024-05-26T18:55:11.723Z</time>
      </trkpt>
      <trkpt lat="48.38817" lon="2.37003">
        <ele>88.35</ele>
        <time>2024-05-26T18:55:12.686Z</time>
      </trkpt>
      <trkpt lat="48.38821" lon="2.36994">
        <ele>87.26</ele>
        <time>2024-05-26T18:55:13.651Z</time>
      </trkpt>
      <trkpt lat="48.38824" lon="2.36987">
        <ele>86.2</ele>
        <time>2024-05-26T18:55:14.617Z</time>
      </trkpt>
      <trkpt lat="48.38828" lon="2.36978">
        <ele>85.13</ele>
        <time>2024-05-26T18:55:15.584Z</time>
      </trkpt>
      <trkpt lat="48.38829" lon="2.36975">
        <ele>84.11</ele>
        <time>2024-05-26T18:55:16.552Z</time>
      </trkpt>
      <trkpt lat="48.38833" lon="2.36966">
        <ele>83.06</ele>
        <time>2024-05-26T18:55:17.521Z</time>
      </trkpt>
      <trkpt lat="48.38833" lon="2.36959">
        <ele>82.06</ele>
        <time>2024-05-26T18:55:18.491Z</time>
      </trkpt>
      <trkpt lat="48.38831" lon="2.36939">
        <ele>81.06</ele>
        <time>2024-05-26T18:55:19.464Z</time>
      </trkpt>
      <trkpt lat="48.38821" lon="2.36918">
        <ele>80.15</ele>
        <time>2024-05-26T18:55:20.440Z</time>
      </trkpt>
      <trkpt lat="48.38812" lon="2.36892">
        <ele>79.29</ele>
        <time>2024-05-26T18:55:21.420Z</time>
      </trkpt>
      <trkpt lat="48.38818" lon="2.36874">
        <ele>78.4</ele>
        <time>2024-05-26T18:55:22.403Z</time>
      </trkpt>
      <trkpt lat="48.38829" lon="2.36863">
        <ele>77.55</ele>
        <time>2024-05-26T18:55:23.388Z</time>
      </trkpt>
      <trkpt lat="48.38847" lon="2.36858">
        <ele>76.67</ele>
        <time>2024-05-26T18:55:24.377Z</time>
      </trkpt>
      <trkpt lat="48.38872" lon="2.36859">
        <ele>75.77</ele>
        <time>2024-05-26T18:55:25.371Z</time>
      </trkpt>
      <trkpt lat="48.38892" lon="2.36865">
        <ele>74.95</ele>
        <time>2024-05-26T18:55:26.369Z</time>
      </trkpt>
      <trkpt lat="48.38897" lon="2.36869">
        <ele>74.21</ele>
        <time>2024-05-26T18:55:27.368Z</time>
      </trkpt>
      <trkpt lat="48.38912" lon="2.36898">
        <ele>73.46</ele>
        <time>2024-05-26T18:55:28.372Z</time>
      </trkpt>
      <trkpt lat="48.38933" lon="2.36952">
        <ele>72.73</ele>
        <time>2024-05-26T18:55:29.385Z</time>
      </trkpt>
      <trkpt lat="48.38959" lon="2.37012">
        <ele>72.08</ele>
        <time>2024-05-26T18:55:30.407Z</time>
      </trkpt>
      <trkpt lat="48.38963" lon="2.37022">
        <ele>71.52</ele>
        <time>2024-05-26T18:55:31.431Z</time>
      </trkpt>
      <trkpt lat="48.38972" lon="2.37044">
        <ele>71.02</ele>
        <time>2024-05-26T18:55:32.458Z</time>
      </trkpt>
      <trkpt lat="48.3899" lon="2.3709">
        <ele>70.6</ele>
        <time>2024-05-26T18:55:33.492Z</time>
      </trkpt>
      <trkpt lat="48.39018" lon="2.37152">
        <ele>70.14</ele>
        <time>2024-05-26T18:55:34.536Z</time>
      </trkpt>
      <trkpt lat="48.39032" lon="2.37182">
        <ele>69.78</ele>
        <time>2024-05-26T18:55:35.585Z</time>
      </trkpt>
      <trkpt lat="48.39042" lon="2.37213">
        <ele>69.47</ele>
        <time>2024-05-26T18:55:36.639Z</time>
      </trkpt>
      <trkpt lat="48.3905" lon="2.37233">
        <ele>69.24</ele>
        <time>2024-05-26T18:55:37.696Z</time>
      </trkpt>
      <trkpt lat="48.3907" lon="2.3728">
        <ele>68.95</ele>
        <time>2024-05-26T18:55:38.760Z</time>
      </trkpt>
      <trkpt lat="48.39084" lon="2.37307">
        <ele>68.82</ele>
        <time>2024-05-26T18:55:39.829Z</time>
      </trkpt>
      <trkpt lat="48.39094" lon="2.37325">
        <ele>68.83</ele>
        <time>2024-05-26T18:55:40.901Z</time>
      </trkpt>
      <trkpt lat="48.39127" lon="2.37381">
        <ele>68.93</ele>
        <time>2024-05-26T18:55:41.983Z</time>
      </trkpt>
      <trkpt lat="48.39139" lon="2.3738">
        <ele>69.08</ele>
        <time>2024-05-26T18:55:43.067Z</time>
      </trkpt>
      <trkpt lat="48.39153" lon="2.37367">
        <ele>69.33</ele>
        <time>2024-05-26T18:55:44.154Z</time>
      </trkpt>
      <trkpt lat="48.39157" lon="2.37363">
        <ele>69.62</ele>
        <time>2024-05-26T18:55:45.242Z</time>
      </trkpt>
      <trkpt lat="48.39162" lon="2.37343">
        <ele>69.99</ele>
        <time>2024-05-26T18:55:46.333Z</time>
      </trkpt>
      <trkpt lat="48.39163" lon="2.37335">
        <ele>70.42</ele>
        <time>2024-05-26T18:55:47.425Z</time>
      </trkpt>
      <trkpt lat="48.39166" lon="2.37312">
        <ele>70.93</ele>
        <time>2024-05-26T18:55:48.521Z</time>
      </trkpt>
      <trkpt lat="48.3917" lon="2.37296">
        <ele>71.5</ele>
        <time>2024-05-26T18:55:49.619Z</time>
      </trkpt>
      <trkpt lat="48.39187" lon="2.37254">
        <ele>72.14</ele>
        <time>2024-05-26T18:55:50.723Z</time>
      </trkpt>
      <trkpt lat="48.39195" lon="2.37233">
        <ele>72.8</ele>
        <time>2024-05-26T18:55:51.831Z</time>
      </trkpt>
      <trkpt lat="48.39202" lon="2.37222">
        <ele>73.54</ele>
        <time>2024-05-26T18:55:52.941Z</time>
      </trkpt>
      <trkpt lat="48.3922" lon="2.37215">
        <ele>74.36</ele>
        <time>2024-05-26T18:55:54.054Z</time>
      </trkpt>
      <trkpt lat="48.39225" lon="2.37218">
        <ele>75.22</ele>
        <time>2024-05-26T18:55:55.168Z</time>
      </trkpt>
      <trkpt lat="48.39229" lon="2.3722">
        <ele>76.14</ele>
        <time>2024-05-26T18:55:56.283Z</time>
      </trkpt>
      <trkpt lat="48.39253" lon="2.37231">
        <ele>77.18</ele>
        <time>2024-05-26T18:55:57.403Z</time>
      </trkpt>
      <trkpt lat="48.39285" lon="2.37246">
        <ele>78.25</ele>
        <time>2024-05-26T18:55:58.530Z</time>
      </trkpt>
      <trkpt lat="48.39323" lon="2.37259">
        <ele>79.34</ele>
        <time>2024-05-26T18:55:59.665Z</time>
      </trkpt>
      <trkpt lat="48.39342" lon="2.37267">
        <ele>80.46</ele>
        <time>2024-05-26T18:56:00.804Z</time>
      </trkpt>
      <trkpt lat="48.39348" lon="2.37276">
        <ele>81.61</ele>
        <time>2024-05-26T18:56:01.944Z</time>
      </trkpt>
      <trkpt lat="48.39355" lon="2.37294">
        <ele>82.8</ele>
        <time>2024-05-26T18:56:03.087Z</time>
      </trkpt>
      <trkpt lat="48.39359" lon="2.37307">
        <ele>84.01</ele>
        <time>2024-05-26T18:56:04.232Z</time>
      </trkpt>
      <trkpt lat="48.39373" lon="2.37351">
        <ele>85.24</ele>
        <time>2024-05-26T18:56:05.383Z</time>
      </trkpt>
      <trkpt lat="48.39381" lon="2.37372">
        <ele>86.48</ele>
        <time>2024-05-26T18:56:06.538Z</time>
      </trkpt>
      <trkpt lat="48.39384" lon="2.37373">
        <ele>87.74</ele>
        <time>2024-05-26T18:56:07.693Z</time>
      </trkpt>
      <trkpt lat="48.3939" lon="2.37371">
        <ele>89.01</ele>
        <time>2024-05-26T18:56:08.850Z</time>
      </trkpt>
      <trkpt lat="48.39402" lon="2.37357">
        <ele>90.33</ele>
        <time>2024-05-26T18:56:10.010Z</time>
      </trkpt>
      <trkpt lat="48.39404" lon="2.37353">
        <ele>91.64</ele>
        <time>2024-05-26T18:56:11.170Z</time>
      </trkpt>
      <trkpt lat="48.39417" lon="2.37332">
        <ele>93.01</ele>
        <time>2024-05-26T18:56:12.334Z</time>
      </trkpt>
      <trkpt lat="48.39426" lon="2.37314">
        <ele>94.4</ele>
        <time>2024-05-26T18:56:13.501Z</time>
      </trkpt>
      <trkpt lat="48.39437" lon="2.37294">
        <ele>95.85</ele>
        <time>2024-05-26T18:56:14.672Z</time>
      </trkpt>
      <trkpt lat="48.3945" lon="2.37269">
        <ele>97.27</ele>
        <time>2024-05-26T18:56:15.847Z</time>
      </trkpt>
      <trkpt lat="48.39456" lon="2.37247">
        <ele>98.6</ele>
        <time>2024-05-26T18:56:17.025Z</time>
      </trkpt>
      <trkpt lat="48.39465" lon="2.37226">
        <ele>99.92</ele>
        <time>2024-05-26T18:56:18.206Z</time>
      </trkpt>
      <trkpt lat="48.39469" lon="2.37214">
        <ele>101.18</ele>
        <time>2024-05-26T18:56:19.389Z</time>
      </trkpt>
      <trkpt lat="48.39472" lon="2.37203">
        <ele>102.42</ele>
        <time>2024-05-26T18:56:20.574Z</time>
      </trkpt>
      <trkpt lat="48.39477" lon="2.37172">
        <ele>103.69</ele>
        <time>2024-05-26T18:56:21.763Z</time>
      </trkpt>
      <trkpt lat="48.39481" lon="2.37143">
        <ele>104.93</ele>
        <time>2024-05-26T18:56:22.956Z</time>
      </trkpt>
      <trkpt lat="48.39477" lon="2.37122">
        <ele>106.07</ele>
        <time>2024-05-26T18:56:24.152Z</time>
      </trkpt>
      <trkpt lat="48.39469" lon="2.3711">
        <ele>107.11</ele>
        <time>2024-05-26T18:56:25.350Z</time>
      </trkpt>
      <trkpt lat="48.39464" lon="2.37092">
        <ele>108.11</ele>
        <time>2024-05-26T18:56:26.551Z</time>
      </trkpt>
      <trkpt lat="48.39462" lon="2.37079">
        <ele>109.06</ele>
        <time>2024-05-26T18:56:27.753Z</time>
      </trkpt>
      <trkpt lat="48.39466" lon="2.37068">
        <ele>109.99</ele>
        <time>2024-05-26T18:56:28.957Z</time>
      </trkpt>
      <trkpt lat="48.39475" lon="2.37053">
        <ele>110.9</ele>
        <time>2024-05-26T18:56:30.164Z</time>
      </trkpt>
      <trkpt lat="48.3948" lon="2.37035">
        <ele>111.71</ele>
        <time>2024-05-26T18:56:31.373Z</time>
      </trkpt>
      <trkpt lat="48.39489" lon="2.37039">
        <ele>112.49</ele>
        <time>2024-05-26T18:56:32.584Z</time>
      </trkpt>
      <trkpt lat="48.39491" lon="2.37041">
        <ele>113.16</ele>
        <time>2024-05-26T18:56:33.796Z</time>
      </trkpt>
      <trkpt lat="48.39504" lon="2.37061">
        <ele>113.81</ele>
        <time>2024-05-26T18:56:35.011Z</time>
      </trkpt>
      <trkpt lat="48.39502" lon="2.37082">
        <ele>114.32</ele>
        <time>2024-05-26T18:56:36.229Z</time>
      </trkpt>
      <trkpt lat="48.39505" lon="2.37103">
        <ele>114.79</ele>
        <time>2024-05-26T18:56:37.450Z</time>
      </trkpt>
      <trkpt lat="48.39505" lon="2.37105">
        <ele>115.22</ele>
        <time>2024-05-26T18:56:38.671Z</time>
      </trkpt>
      <trkpt lat="48.39513" lon="2.37117">
        <ele>115.6</ele>
        <time>2024-05-26T18:56:39.895Z</time>
      </trkpt>
      <trkpt lat="48.39514" lon="2.37121">
        <ele>115.92</ele>
        <time>2024-05-26T18:56:41.119Z</time>
      </trkpt>
      <trkpt lat="48.39514" lon="2.37124">
        <ele>116.18</ele>
        <time>2024-05-26T18:56:42.344Z</time>
      </trkpt>
      <trkpt lat="48.39515" lon="2.37127">
        <ele>116.38</ele>
        <time>2024-05-26T18:56:43.569Z</time>
      </trkpt>
      <trkpt lat="48.39519" lon="2.3714">
        <ele>116.52</ele>
        <time>2024-05-26T18:56:44.796Z</time>
      </trkpt>
      <trkpt lat="48.39523" lon="2.37149">
        <ele>116.64</ele>
        <time>2024-05-26T18:56:46.024Z</time>
      </trkpt>
      <trkpt lat="48.3953" lon="2.37153">
        <ele>116.72</ele>
        <time>2024-05-26T18:56:47.254Z</time>
      </trkpt>
      <trkpt lat="48.39533" lon="2.37157">
        <ele>116.74</ele>
        <time>2024-05-26T18:56:48.485Z</time>
      </trkpt>
      <trkpt lat="48.39543" lon="2.37163">
        <ele>116.74</ele>
        <time>2024-05-26T18:56:49.718Z</time>
      </trkpt>
      <trkpt lat="48.39554" lon="2.37167">
        <ele>116.73</ele>
        <time>2024-05-26T18:56:50.953Z</time>
      </trkpt>
      <trkpt lat="48.39558" lon="2.37178">
        <ele>116.65</ele>
        <time>2024-05-26T18:56:52.190Z</time>
      </trkpt>
      <trkpt lat="48.3956" lon="2.37188">
        <ele>116.53</ele>
        <time>2024-05-26T18:56:53.428Z</time>
      </trkpt>
      <trkpt lat="48.39561" lon="2.37201">
        <ele>116.39</ele>
        <time>2024-05-26T18:56:54.668Z</time>
      </trkpt>
      <trkpt lat="48.3956" lon="2.37204">
        <ele>116.21</ele>
        <time>2024-05-26T18:56:55.908Z</time>
      </trkpt>
      <trkpt lat="48.3955" lon="2.37212">
        <ele>116.01</ele>
        <time>2024-05-26T18:56:57.150Z</time>
      </trkpt>
      <trkpt lat="48.3954" lon="2.37228">
        <ele>115.72</ele>
        <time>2024-05-26T18:56:58.395Z</time>
      </trkpt>
      <trkpt lat="48.39534" lon="2.3724">
        <ele>115.46</ele>
        <time>2024-05-26T18:56:59.642Z</time>
      </trkpt>
      <trkpt lat="48.39535" lon="2.3725">
        <ele>115.22</ele>
        <time>2024-05-26T18:57:00.891Z</time>
      </trkpt>
      <trkpt lat="48.39532" lon="2.37258">
        <ele>114.96</ele>
        <time>2024-05-26T18:57:02.141Z</time>
      </trkpt>
      <trkpt lat="48.39527" lon="2.37269">
        <ele>114.7</ele>
        <time>2024-05-26T18:57:03.393Z</time>
      </trkpt>
      <trkpt lat="48.39526" lon="2.37276">
        <ele>114.46</ele>
        <time>2024-05-26T18:57:04.646Z</time>
      </trkpt>
      <trkpt lat="48.39528" lon="2.37293">
        <ele>114.2</ele>
        <time>2024-05-26T18:57:05.901Z</time>
      </trkpt>
      <trkpt lat="48.39535" lon="2.37296">
        <ele>114.01</ele>
        <time>2024-05-26T18:57:07.157Z</time>
      </trkpt>
      <trkpt lat="48.39543" lon="2.37301">
        <ele>113.84</ele>
        <time>2024-05-26T18:57:08.415Z</time>
      </trkpt>
      <trkpt lat="48.39548" lon="2.37305">
        <ele>113.68</ele>
        <time>2024-05-26T18:57:09.674Z</time>
      </trkpt>
      <trkpt lat="48.39561" lon="2.37319">
        <ele>113.46</ele>
        <time>2024-05-26T18:57:10.936Z</time>
      </trkpt>
      <trkpt lat="48.39562" lon="2.37319">
        <ele>113.35</ele>
        <time>2024-05-26T18:57:12.199Z</time>
      </trkpt>
      <trkpt lat="48.3957" lon="2.37319">
        <ele>113.26</ele>
        <time>2024-05-26T18:57:13.463Z</time>
      </trkpt>
      <trkpt lat="48.39574" lon="2.37322">
        <ele>113.19</ele>
        <time>2024-05-26T18:57:14.728Z</time>
      </trkpt>
      <trkpt lat="48.3958" lon="2.37328">
        <ele>113.13</ele>
        <time>2024-05-26T18:57:15.995Z</time>
      </trkpt>
      <trkpt lat="48.39596" lon="2.37332">
        <ele>113.11</ele>
        <time>2024-05-26T18:57:17.265Z</time>
      </trkpt>
      <trkpt lat="48.39602" lon="2.3732">
        <ele>113.24</ele>
        <time>2024-05-26T18:57:18.537Z</time>
      </trkpt>
      <trkpt lat="48.39605" lon="2.37315">
        <ele>113.35</ele>
        <time>2024-05-26T18:57:19.810Z</time>
      </trkpt>
      <trkpt lat="48.39608" lon="2.37307">
        <ele>113.51</ele>
        <time>2024-05-26T18:57:21.084Z</time>
      </trkpt>
      <trkpt lat="48.39614" lon="2.3729">
        <ele>113.75</ele>
        <time>2024-05-26T18:57:22.361Z</time>
      </trkpt>
      <trkpt lat="48.39619" lon="2.37269">
        <ele>114.03</ele>
        <time>2024-05-26T18:57:23.641Z</time>
      </trkpt>
      <trkpt lat="48.39619" lon="2.37261">
        <ele>114.24</ele>
        <time>2024-05-26T18:57:24.922Z</time>
      </trkpt>
      <trkpt lat="48.3962" lon="2.37254">
        <ele>114.48</ele>
        <time>2024-05-26T18:57:26.204Z</time>
      </trkpt>
      <trkpt lat="48.39624" lon="2.37231">
        <ele>114.78</ele>
        <time>2024-05-26T18:57:27.489Z</time>
      </trkpt>
      <trkpt lat="48.39629" lon="2.37208">
        <ele>115.08</ele>
        <time>2024-05-26T18:57:28.777Z</time>
      </trkpt>
      <trkpt lat="48.39633" lon="2.37182">
        <ele>115.39</ele>
        <time>2024-05-26T18:57:30.069Z</time>
      </trkpt>
      <trkpt lat="48.39634" lon="2.37175">
        <ele>115.67</ele>
        <time>2024-05-26T18:57:31.361Z</time>
      </trkpt>
      <trkpt lat="48.39638" lon="2.37165">
        <ele>115.96</ele>
        <time>2024-05-26T18:57:32.655Z</time>
      </trkpt>
      <trkpt lat="48.39643" lon="2.37151">
        <ele>116.26</ele>
        <time>2024-05-26T18:57:33.951Z</time>
      </trkpt>
      <trkpt lat="48.39646" lon="2.37144">
        <ele>116.56</ele>
        <time>2024-05-26T18:57:35.248Z</time>
      </trkpt>
      <trkpt lat="48.3966" lon="2.37124">
        <ele>116.84</ele>
        <time>2024-05-26T18:57:36.549Z</time>
      </trkpt>
      <trkpt lat="48.39662" lon="2.37119">
        <ele>117.13</ele>
        <time>2024-05-26T18:57:37.851Z</time>
      </trkpt>
      <trkpt lat="48.39668" lon="2.37101">
        <ele>117.41</ele>
        <time>2024-05-26T18:57:39.156Z</time>
      </trkpt>
      <trkpt lat="48.39677" lon="2.37083">
        <ele>117.66</ele>
        <time>2024-05-26T18:57:40.463Z</time>
      </trkpt>
      <trkpt lat="48.39681" lon="2.37075">
        <ele>117.92</ele>
        <time>2024-05-26T18:57:41.772Z</time>
      </trkpt>
      <trkpt lat="48.39689" lon="2.37061">
        <ele>118.22</ele>
        <time>2024-05-26T18:57:43.083Z</time>
      </trkpt>
      <trkpt lat="48.39696" lon="2.37039">
        <ele>118.5</ele>
        <time>2024-05-26T18:57:44.397Z</time>
      </trkpt>
      <trkpt lat="48.39692" lon="2.37022">
        <ele>118.78</ele>
        <time>2024-05-26T18:57:45.714Z</time>
      </trkpt>
      <trkpt lat="48.39683" lon="2.3701">
        <ele>119.03</ele>
        <time>2024-05-26T18:57:47.033Z</time>
      </trkpt>
      <trkpt lat="48.39675" lon="2.37">
        <ele>119.27</ele>
        <time>2024-05-26T18:57:48.354Z</time>
      </trkpt>
      <trkpt lat="48.39668" lon="2.36994">
        <ele>119.53</ele>
        <time>2024-05-26T18:57:49.677Z</time>
      </trkpt>
      <trkpt lat="48.39663" lon="2.3699">
        <ele>119.78</ele>
        <time>2024-05-26T18:57:51.001Z</time>
      </trkpt>
      <trkpt lat="48.39655" lon="2.36981">
        <ele>120.03</ele>
        <time>2024-05-26T18:57:52.327Z</time>
      </trkpt>
      <trkpt lat="48.39647" lon="2.36976">
        <ele>120.27</ele>
        <time>2024-05-26T18:57:53.655Z</time>
      </trkpt>
      <trkpt lat="48.39643" lon="2.36975">
        <ele>120.49</ele>
        <time>2024-05-26T18:57:54.984Z</time>
      </trkpt>
      <trkpt lat="48.39636" lon="2.36972">
        <ele>120.72</ele>
        <time>2024-05-26T18:57:56.314Z</time>
      </trkpt>
      <trkpt lat="48.39635" lon="2.36969">
        <ele>120.93</ele>
        <time>2024-05-26T18:57:57.645Z</time>
      </trkpt>
      <trkpt lat="48.39628" lon="2.36968">
        <ele>121.13</ele>
        <time>2024-05-26T18:57:58.977Z</time>
      </trkpt>
      <trkpt lat="48.39616" lon="2.36982">
        <ele>121.31</ele>
        <time>2024-05-26T18:58:00.312Z</time>
      </trkpt>
      <trkpt lat="48.39602" lon="2.36988">
        <ele>121.49</ele>
        <time>2024-05-26T18:58:01.650Z</time>
      </trkpt>
      <trkpt lat="48.39597" lon="2.36989">
        <ele>121.68</ele>
        <time>2024-05-26T18:58:02.989Z</time>
      </trkpt>
      <trkpt lat="48.39583" lon="2.36992">
        <ele>121.89</ele>
        <time>2024-05-26T18:58:04.331Z</time>
      </trkpt>
      <trkpt lat="48.39561" lon="2.36996">
        <ele>122.03</ele>
        <time>2024-05-26T18:58:05.677Z</time>
      </trkpt>
      <trkpt lat="48.39556" lon="2.36998">
        <ele>122.18</ele>
        <time>2024-05-26T18:58:07.024Z</time>
      </trkpt>
      <trkpt lat="48.39543" lon="2.36998">
        <ele>122.3</ele>
        <time>2024-05-26T18:58:08.374Z</time>
      </trkpt>
      <trkpt lat="48.39541" lon="2.36995">
        <ele>122.44</ele>
        <time>2024-05-26T18:58:09.724Z</time>
      </trkpt>
      <trkpt lat="48.39537" lon="2.36987">
        <ele>122.58</ele>
        <time>2024-05-26T18:58:11.076Z</time>
      </trkpt>
      <trkpt lat="48.39538" lon="2.36978">
        <ele>122.72</ele>
        <time>2024-05-26T18:58:12.429Z</time>
      </trkpt>
      <trkpt lat="48.3954" lon="2.36968">
        <ele>122.85</ele>
        <time>2024-05-26T18:58:13.783Z</time>
      </trkpt>
      <trkpt lat="48.39545" lon="2.36961">
        <ele>122.96</ele>
        <time>2024-05-26T18:58:15.139Z</time>
      </trkpt>
      <trkpt lat="48.39549" lon="2.36961">
        <ele>123.07</ele>
        <time>2024-05-26T18:58:16.495Z</time>
      </trkpt>
      <trkpt lat="48.3957" lon="2.36953">
        <ele>123.17</ele>
        <time>2024-05-26T18:58:17.856Z</time>
      </trkpt>
      <trkpt lat="48.39603" lon="2.36938">
        <ele>123.22</ele>
        <time>2024-05-26T18:58:19.224Z</time>
      </trkpt>
      <trkpt lat="48.39624" lon="2.36935">
        <ele>123.3</ele>
        <time>2024-05-26T18:58:20.596Z</time>
      </trkpt>
      <trkpt lat="48.39638" lon="2.36937">
        <ele>123.38</ele>
        <time>2024-05-26T18:58:21.971Z</time>
      </trkpt>
      <trkpt lat="48.39664" lon="2.36938">
        <ele>123.47</ele>
        <time>2024-05-26T18:58:23.351Z</time>
      </trkpt>
      <trkpt lat="48.39686" lon="2.3695">
        <ele>123.51</ele>
        <time>2024-05-26T18:58:24.736Z</time>
      </trkpt>
      <trkpt lat="48.39704" lon="2.36957">
        <ele>123.54</ele>
        <time>2024-05-26T18:58:26.124Z</time>
      </trkpt>
      <trkpt lat="48.39717" lon="2.36958">
        <ele>123.56</ele>
        <time>2024-05-26T18:58:27.515Z</time>
      </trkpt>
      <trkpt lat="48.39721" lon="2.3696">
        <ele>123.59</ele>
        <time>2024-05-26T18:58:28.907Z</time>
      </trkpt>
      <trkpt lat="48.39736" lon="2.36965">
        <ele>123.61</ele>
        <time>2024-05-26T18:58:30.302Z</time>
      </trkpt>
      <trkpt lat="48.39749" lon="2.36969">
        <ele>123.62</ele>
        <time>2024-05-26T18:58:31.699Z</time>
      </trkpt>
      <trkpt lat="48.39787" lon="2.3698">
        <ele>123.63</ele>
        <time>2024-05-26T18:58:33.104Z</time>
      </trkpt>
      <trkpt lat="48.39802" lon="2.36974">
        <ele>123.66</ele>
        <time>2024-05-26T18:58:34.512Z</time>
      </trkpt>
      <trkpt lat="48.39811" lon="2.36955">
        <ele>123.65</ele>
        <time>2024-05-26T18:58:35.923Z</time>
      </trkpt>
      <trkpt lat="48.39816" lon="2.36928">
        <ele>123.65</ele>
        <time>2024-05-26T18:58:37.338Z</time>
      </trkpt>
      <trkpt lat="48.39816" lon="2.3692">
        <ele>123.62</ele>
        <time>2024-05-26T18:58:38.754Z</time>
      </trkpt>
      <trkpt lat="48.39815" lon="2.36896">
        <ele>123.59</ele>
        <time>2024-05-26T18:58:40.173Z</time>
      </trkpt>
      <trkpt lat="48.39813" lon="2.36872">
        <ele>123.56</ele>
        <time>2024-05-26T18:58:41.596Z</time>
      </trkpt>
      <trkpt lat="48.39809" lon="2.36832">
        <ele>123.51</ele>
        <time>2024-05-26T18:58:43.024Z</time>
      </trkpt>
      <trkpt lat="48.3981" lon="2.36817">
        <ele>123.41</ele>
        <time>2024-05-26T18:58:44.454Z</time>
      </trkpt>
      <trkpt lat="48.39811" lon="2.3681">
        <ele>123.3</ele>
        <time>2024-05-26T18:58:45.885Z</time>
      </trkpt>
      <trkpt lat="48.39817" lon="2.36799">
        <ele>123.19</ele>
        <time>2024-05-26T18:58:47.318Z</time>
      </trkpt>
      <trkpt lat="48.39829" lon="2.368">
        <ele>123.08</ele>
        <time>2024-05-26T18:58:48.753Z</time>
      </trkpt>
      <trkpt lat="48.39838" lon="2.36817">
        <ele>122.94</ele>
        <time>2024-05-26T18:58:50.191Z</time>
      </trkpt>
      <trkpt lat="48.39842" lon="2.36829">
        <ele>122.78</ele>
        <time>2024-05-26T18:58:51.631Z</time>
      </trkpt>
      <trkpt lat="48.39843" lon="2.36834">
        <ele>122.59</ele>
        <time>2024-05-26T18:58:53.072Z</time>
      </trkpt>
      <trkpt lat="48.39853" lon="2.36858">
        <ele>122.38</ele>
        <time>2024-05-26T18:58:54.516Z</time>
      </trkpt>
      <trkpt lat="48.39859" lon="2.36872">
        <ele>122.17</ele>
        <time>2024-05-26T18:58:55.963Z</time>
      </trkpt>
      <trkpt lat="48.39866" lon="2.36888">
        <ele>121.93</ele>
        <time>2024-05-26T18:58:57.412Z</time>
      </trkpt>
      <trkpt lat="48.39872" lon="2.36897">
        <ele>121.67</ele>
        <time>2024-05-26T18:58:58.863Z</time>
      </trkpt>
      <trkpt lat="48.39874" lon="2.36902">
        <ele>121.4</ele>
        <time>2024-05-26T18:59:00.315Z</time>
      </trkpt>
      <trkpt lat="48.3988" lon="2.36915">
        <ele>121.09</ele>
        <time>2024-05-26T18:59:01.769Z</time>
      </trkpt>
      <trkpt lat="48.39883" lon="2.36919">
        <ele>120.8</ele>
        <time>2024-05-26T18:59:03.223Z</time>
      </trkpt>
      <trkpt lat="48.39885" lon="2.36923">
        <ele>120.48</ele>
        <time>2024-05-26T18:59:04.678Z</time>
      </trkpt>
      <trkpt lat="48.39894" lon="2.36939">
        <ele>120.13</ele>
        <time>2024-05-26T18:59:06.136Z</time>
      </trkpt>
      <trkpt lat="48.39899" lon="2.36948">
        <ele>119.78</ele>
        <time>2024-05-26T18:59:07.596Z</time>
      </trkpt>
      <trkpt lat="48.399" lon="2.36954">
        <ele>119.44</ele>
        <time>2024-05-26T18:59:09.056Z</time>
      </trkpt>
      <trkpt lat="48.39897" lon="2.36966">
        <ele>119.11</ele>
        <time>2024-05-26T18:59:10.518Z</time>
      </trkpt>
      <trkpt lat="48.39896" lon="2.36968">
        <ele>118.74</ele>
        <time>2024-05-26T18:59:11.980Z</time>
      </trkpt>
      <trkpt lat="48.39896" lon="2.36971">
        <ele>118.36</ele>
        <time>2024-05-26T18:59:13.443Z</time>
      </trkpt>
      <trkpt lat="48.39896" lon="2.36973">
        <ele>117.97</ele>
        <time>2024-05-26T18:59:14.906Z</time>
      </trkpt>
      <trkpt lat="48.39897" lon="2.36975">
        <ele>117.57</ele>
        <time>2024-05-26T18:59:16.369Z</time>
      </trkpt>
      <trkpt lat="48.39899" lon="2.36976">
        <ele>117.16</ele>
        <time>2024-05-26T18:59:17.833Z</time>
      </trkpt>
      <trkpt lat="48.39905" lon="2.36981">
        <ele>116.73</ele>
        <time>2024-05-26T18:59:19.298Z</time>
      </trkpt>
      <trkpt lat="48.39908" lon="2.36985">
        <ele>116.3</ele>
        <time>2024-05-26T18:59:20.764Z</time>
      </trkpt>
      <trkpt lat="48.39918" lon="2.36993">
        <ele>115.86</ele>
        <time>2024-05-26T18:59:22.232Z</time>
      </trkpt>
      <trkpt lat="48.39927" lon="2.37">
        <ele>115.41</ele>
        <time>2024-05-26T18:59:23.702Z</time>
      </trkpt>
      <trkpt lat="48.39949" lon="2.37009">
        <ele>114.92</ele>
        <time>2024-05-26T18:59:25.177Z</time>
      </trkpt>
      <trkpt lat="48.39974" lon="2.37022">
        <ele>114.4</ele>
        <time>2024-05-26T18:59:26.657Z</time>
      </trkpt>
      <trkpt lat="48.39993" lon="2.37042">
        <ele>113.9</ele>
        <time>2024-05-26T18:59:28.142Z</time>
      </trkpt>
      <trkpt lat="48.40013" lon="2.37058">
        <ele>113.4</ele>
        <time>2024-05-26T18:59:29.631Z</time>
      </trkpt>
      <trkpt lat="48.40017" lon="2.37062">
        <ele>112.97</ele>
        <time>2024-05-26T18:59:31.121Z</time>
      </trkpt>
      <trkpt lat="48.40025" lon="2.37075">
        <ele>112.57</ele>
        <time>2024-05-26T18:59:32.614Z</time>
      </trkpt>
      <trkpt lat="48.40033" lon="2.37097">
        <ele>112.25</ele>
        <time>2024-05-26T18:59:34.110Z</time>
      </trkpt>
      <trkpt lat="48.40035" lon="2.37101">
        <ele>111.88</ele>
        <time>2024-05-26T18:59:35.607Z</time>
      </trkpt>
      <trkpt lat="48.40037" lon="2.37112">
        <ele>111.56</ele>
        <time>2024-05-26T18:59:37.105Z</time>
      </trkpt>
      <trkpt lat="48.40038" lon="2.37115">
        <ele>111.22</ele>
        <time>2024-05-26T18:59:38.604Z</time>
      </trkpt>
      <trkpt lat="48.40041" lon="2.37125">
        <ele>110.91</ele>
        <time>2024-05-26T18:59:40.104Z</time>
      </trkpt>
      <trkpt lat="48.40042" lon="2.37136">
        <ele>110.61</ele>
        <time>2024-05-26T18:59:41.605Z</time>
      </trkpt>
      <trkpt lat="48.40043" lon="2.37144">
        <ele>110.34</ele>
        <time>2024-05-26T18:59:43.108Z</time>
      </trkpt>
      <trkpt lat="48.40048" lon="2.37168">
        <ele>110.12</ele>
        <time>2024-05-26T18:59:44.614Z</time>
      </trkpt>
      <trkpt lat="48.4005" lon="2.3718">
        <ele>109.88</ele>
        <time>2024-05-26T18:59:46.122Z</time>
      </trkpt>
      <trkpt lat="48.40052" lon="2.37181">
        <ele>109.65</ele>
        <time>2024-05-26T18:59:47.630Z</time>
      </trkpt>
      <trkpt lat="48.40056" lon="2.3719">
        <ele>109.43</ele>
        <time>2024-05-26T18:59:49.139Z</time>
      </trkpt>
      <trkpt lat="48.40057" lon="2.37192">
        <ele>109.26</ele>
        <time>2024-05-26T18:59:50.649Z</time>
      </trkpt>
      <trkpt lat="48.40064" lon="2.37206">
        <ele>109.04</ele>
        <time>2024-05-26T18:59:52.161Z</time>
      </trkpt>
      <trkpt lat="48.40073" lon="2.37205">
        <ele>108.86</ele>
        <time>2024-05-26T18:59:53.675Z</time>
      </trkpt>
      <trkpt lat="48.40077" lon="2.37204">
        <ele>108.75</ele>
        <time>2024-05-26T18:59:55.190Z</time>
      </trkpt>
      <trkpt lat="48.40087" lon="2.37204">
        <ele>108.62</ele>
        <time>2024-05-26T18:59:56.707Z</time>
      </trkpt>
      <trkpt lat="48.40088" lon="2.37202">
        <ele>108.62</ele>
        <time>2024-05-26T18:59:58.224Z</time>
      </trkpt>
      <trkpt lat="48.40089" lon="2.37196">
        <ele>108.64</ele>
        <time>2024-05-26T18:59:59.742Z</time>
      </trkpt>
      <trkpt lat="48.40091" lon="2.37189">
        <ele>108.7</ele>
        <time>2024-05-26T19:00:01.261Z</time>
      </trkpt>
      <trkpt lat="48.40095" lon="2.3717">
        <ele>108.77</ele>
        <time>2024-05-26T19:00:02.783Z</time>
      </trkpt>
      <trkpt lat="48.40093" lon="2.37147">
        <ele>108.91</ele>
        <time>2024-05-26T19:00:04.308Z</time>
      </trkpt>
      <trkpt lat="48.40092" lon="2.37135">
        <ele>109.13</ele>
        <time>2024-05-26T19:00:05.834Z</time>
      </trkpt>
      <trkpt lat="48.40085" lon="2.37109">
        <ele>109.39</ele>
        <time>2024-05-26T19:00:07.364Z</time>
      </trkpt>
      <trkpt lat="48.40071" lon="2.37086">
        <ele>109.66</ele>
        <time>2024-05-26T19:00:08.898Z</time>
      </trkpt>
      <trkpt lat="48.40058" lon="2.37069">
        <ele>110</ele>
        <time>2024-05-26T19:00:10.436Z</time>
      </trkpt>
      <trkpt lat="48.40042" lon="2.37048">
        <ele>110.39</ele>
        <time>2024-05-26T19:00:11.978Z</time>
      </trkpt>
      <trkpt lat="48.40028" lon="2.37031">
        <ele>110.89</ele>
        <time>2024-05-26T19:00:13.523Z</time>
      </trkpt>
      <trkpt lat="48.40024" lon="2.37024">
        <ele>111.38</ele>
        <time>2024-05-26T19:00:15.070Z</time>
      </trkpt>
      <trkpt lat="48.4001" lon="2.37002">
        <ele>111.94</ele>
        <time>2024-05-26T19:00:16.621Z</time>
      </trkpt>
      <trkpt lat="48.39989" lon="2.36974">
        <ele>112.58</ele>
        <time>2024-05-26T19:00:18.177Z</time>
      </trkpt>
      <trkpt lat="48.39986" lon="2.36971">
        <ele>113.17</ele>
        <time>2024-05-26T19:00:19.734Z</time>
      </trkpt>
      <trkpt lat="48.39962" lon="2.36949">
        <ele>113.86</ele>
        <time>2024-05-26T19:00:21.297Z</time>
      </trkpt>
      <trkpt lat="48.39942" lon="2.36928">
        <ele>114.54</ele>
        <time>2024-05-26T19:00:22.865Z</time>
      </trkpt>
      <trkpt lat="48.39917" lon="2.36902">
        <ele>115.26</ele>
        <time>2024-05-26T19:00:24.439Z</time>
      </trkpt>
      <trkpt lat="48.399" lon="2.36879">
        <ele>115.99</ele>
        <time>2024-05-26T19:00:26.017Z</time>
      </trkpt>
      <trkpt lat="48.39889" lon="2.36856">
        <ele>116.69</ele>
        <time>2024-05-26T19:00:27.599Z</time>
      </trkpt>
      <trkpt lat="48.39882" lon="2.36819">
        <ele>117.36</ele>
        <time>2024-05-26T19:00:29.186Z</time>
      </trkpt>
      <trkpt lat="48.39876" lon="2.36782">
        <ele>118.06</ele>
        <time>2024-05-26T19:00:30.778Z</time>
      </trkpt>
      <trkpt lat="48.39872" lon="2.36751">
        <ele>118.73</ele>
        <time>2024-05-26T19:00:32.374Z</time>
      </trkpt>
      <trkpt lat="48.39866" lon="2.36711">
        <ele>119.41</ele>
        <time>2024-05-26T19:00:33.976Z</time>
      </trkpt>
      <trkpt lat="48.39861" lon="2.36665">
        <ele>120.08</ele>
        <time>2024-05-26T19:00:35.584Z</time>
      </trkpt>
      <trkpt lat="48.39854" lon="2.36617">
        <ele>120.75</ele>
        <time>2024-05-26T19:00:37.199Z</time>
      </trkpt>
      <trkpt lat="48.39848" lon="2.36576">
        <ele>121.43</ele>
        <time>2024-05-26T19:00:38.819Z</time>
      </trkpt>
      <trkpt lat="48.39845" lon="2.36546">
        <ele>122.06</ele>
        <time>2024-05-26T19:00:40.443Z</time>
      </trkpt>
      <trkpt lat="48.39844" lon="2.3654">
        <ele>122.63</ele>
        <time>2024-05-26T19:00:42.068Z</time>
      </trkpt>
      <trkpt lat="48.39842" lon="2.365">
        <ele>123.19</ele>
        <time>2024-05-26T19:00:43.698Z</time>
      </trkpt>
      <trkpt lat="48.39838" lon="2.36464">
        <ele>123.74</ele>
        <time>2024-05-26T19:00:45.333Z</time>
      </trkpt>
      <trkpt lat="48.39831" lon="2.36431">
        <ele>124.25</ele>
        <time>2024-05-26T19:00:46.973Z</time>
      </trkpt>
      <trkpt lat="48.39831" lon="2.36426">
        <ele>124.69</ele>
        <time>2024-05-26T19:00:48.614Z</time>
      </trkpt>
      <trkpt lat="48.39824" lon="2.3639">
        <ele>125.09</ele>
        <time>2024-05-26T19:00:50.259Z</time>
      </trkpt>
      <trkpt lat="48.39815" lon="2.36357">
        <ele>125.4</ele>
        <time>2024-05-26T19:00:51.909Z</time>
      </trkpt>
      <trkpt lat="48.39817" lon="2.36344">
        <ele>125.68</ele>
        <time>2024-05-26T19:00:53.561Z</time>
      </trkpt>
      <trkpt lat="48.39819" lon="2.36345">
        <ele>125.93</ele>
        <time>2024-05-26T19:00:55.214Z</time>
      </trkpt>
      <trkpt lat="48.39821" lon="2.36347">
        <ele>126.14</ele>
        <time>2024-05-26T19:00:56.867Z</time>
      </trkpt>
      <trkpt lat="48.39827" lon="2.36363">
        <ele>126.31</ele>
        <time>2024-05-26T19:00:58.523Z</time>
      </trkpt>
      <trkpt lat="48.39832" lon="2.36372">
        <ele>126.42</ele>
        <time>2024-05-26T19:01:00.180Z</time>
      </trkpt>
      <trkpt lat="48.39833" lon="2.36377">
        <ele>126.47</ele>
        <time>2024-05-26T19:01:01.838Z</time>
      </trkpt>
      <trkpt lat="48.39833" lon="2.36382">
        <ele>126.47</ele>
        <time>2024-05-26T19:01:03.497Z</time>
      </trkpt>
      <trkpt lat="48.39834" lon="2.36396">
        <ele>126.42</ele>
        <time>2024-05-26T19:01:05.157Z</time>
      </trkpt>
      <trkpt lat="48.3984" lon="2.36424">
        <ele>126.31</ele>
        <time>2024-05-26T19:01:06.821Z</time>
      </trkpt>
      <trkpt lat="48.39843" lon="2.36449">
        <ele>126.12</ele>
        <time>2024-05-26T19:01:08.489Z</time>
      </trkpt>
      <trkpt lat="48.3985" lon="2.36474">
        <ele>125.87</ele>
        <time>2024-05-26T19:01:10.160Z</time>
      </trkpt>
      <trkpt lat="48.39854" lon="2.36477">
        <ele>125.61</ele>
        <time>2024-05-26T19:01:11.832Z</time>
      </trkpt>
      <trkpt lat="48.39863" lon="2.36483">
        <ele>125.28</ele>
        <time>2024-05-26T19:01:13.506Z</time>
      </trkpt>
      <trkpt lat="48.39868" lon="2.36491">
        <ele>124.91</ele>
        <time>2024-05-26T19:01:15.182Z</time>
      </trkpt>
      <trkpt lat="48.39878" lon="2.36502">
        <ele>124.47</ele>
        <time>2024-05-26T19:01:16.860Z</time>
      </trkpt>
      <trkpt lat="48.39895" lon="2.36514">
        <ele>123.95</ele>
        <time>2024-05-26T19:01:18.542Z</time>
      </trkpt>
      <trkpt lat="48.399" lon="2.36532">
        <ele>123.43</ele>
        <time>2024-05-26T19:01:20.226Z</time>
      </trkpt>
      <trkpt lat="48.39904" lon="2.36554">
        <ele>122.88</ele>
        <time>2024-05-26T19:01:21.913Z</time>
      </trkpt>
      <trkpt lat="48.39903" lon="2.36557">
        <ele>122.33</ele>
        <time>2024-05-26T19:01:23.601Z</time>
      </trkpt>
      <trkpt lat="48.39905" lon="2.36571">
        <ele>121.73</ele>
        <time>2024-05-26T19:01:25.291Z</time>
      </trkpt>
      <trkpt lat="48.39913" lon="2.3658">
        <ele>121.08</ele>
        <time>2024-05-26T19:01:26.983Z</time>
      </trkpt>
      <trkpt lat="48.39914" lon="2.36583">
        <ele>120.43</ele>
        <time>2024-05-26T19:01:28.675Z</time>
      </trkpt>
      <trkpt lat="48.39915" lon="2.36586">
        <ele>119.75</ele>
        <time>2024-05-26T19:01:30.368Z</time>
      </trkpt>
      <trkpt lat="48.3992" lon="2.36599">
        <ele>119.03</ele>
        <time>2024-05-26T19:01:32.063Z</time>
      </trkpt>
      <trkpt lat="48.39929" lon="2.36621">
        <ele>118.26</ele>
        <time>2024-05-26T19:01:33.761Z</time>
      </trkpt>
      <trkpt lat="48.39933" lon="2.36643">
        <ele>117.48</ele>
        <time>2024-05-26T19:01:35.462Z</time>
      </trkpt>
      <trkpt lat="48.39936" lon="2.3667">
        <ele>116.68</ele>
        <time>2024-05-26T19:01:37.167Z</time>
      </trkpt>
      <trkpt lat="48.39937" lon="2.3668">
        <ele>115.91</ele>
        <time>2024-05-26T19:01:38.873Z</time>
      </trkpt>
      <trkpt lat="48.39939" lon="2.36697">
        <ele>115.1</ele>
        <time>2024-05-26T19:01:40.581Z</time>
      </trkpt>
      <trkpt lat="48.39939" lon="2.36705">
        <ele>114.29</ele>
        <time>2024-05-26T19:01:42.291Z</time>
      </trkpt>
      <trkpt lat="48.39938" lon="2.36718">
        <ele>113.48</ele>
        <time>2024-05-26T19:01:44.002Z</time>
      </trkpt>
      <trkpt lat="48.39942" lon="2.36735">
        <ele>112.65</ele>
        <time>2024-05-26T19:01:45.716Z</time>
      </trkpt>
      <trkpt lat="48.39943" lon="2.36738">
        <ele>111.83</ele>
        <time>2024-05-26T19:01:47.430Z</time>
      </trkpt>
      <trkpt lat="48.39947" lon="2.36756">
        <ele>110.98</ele>
        <time>2024-05-26T19:01:49.147Z</time>
      </trkpt>
      <trkpt lat="48.39956" lon="2.36777">
        <ele>110.1</ele>
        <time>2024-05-26T19:01:50.867Z</time>
      </trkpt>
      <trkpt lat="48.3996" lon="2.36783">
        <ele>109.26</ele>
        <time>2024-05-26T19:01:52.588Z</time>
      </trkpt>
      <trkpt lat="48.3997" lon="2.36793">
        <ele>108.39</ele>
        <time>2024-05-26T19:01:54.312Z</time>
      </trkpt>
      <trkpt lat="48.39975" lon="2.36802">
        <ele>107.56</ele>
        <time>2024-05-26T19:01:56.037Z</time>
      </trkpt>
      <trkpt lat="48.3998" lon="2.36812">
        <ele>106.76</ele>
        <time>2024-05-26T19:01:57.764Z</time>
      </trkpt>
      <trkpt lat="48.39988" lon="2.36832">
        <ele>105.96</ele>
        <time>2024-05-26T19:01:59.494Z</time>
      </trkpt>
      <trkpt lat="48.39994" lon="2.36845">
        <ele>105.19</ele>
        <time>2024-05-26T19:02:01.226Z</time>
      </trkpt>
      <trkpt lat="48.39996" lon="2.36855">
        <ele>104.44</ele>
        <time>2024-05-26T19:02:02.959Z</time>
      </trkpt>
      <trkpt lat="48.39999" lon="2.36875">
        <ele>103.7</ele>
        <time>2024-05-26T19:02:04.695Z</time>
      </trkpt>
      <trkpt lat="48.40001" lon="2.36877">
        <ele>102.95</ele>
        <time>2024-05-26T19:02:06.431Z</time>
      </trkpt>
      <trkpt lat="48.40006" lon="2.36887">
        <ele>102.2</ele>
        <time>2024-05-26T19:02:08.169Z</time>
      </trkpt>
      <trkpt lat="48.4001" lon="2.36902">
        <ele>101.47</ele>
        <time>2024-05-26T19:02:09.909Z</time>
      </trkpt>
      <trkpt lat="48.4001" lon="2.36912">
        <ele>100.77</ele>
        <time>2024-05-26T19:02:11.651Z</time>
      </trkpt>
      <trkpt lat="48.40014" lon="2.36934">
        <ele>100.13</ele>
        <time>2024-05-26T19:02:13.396Z</time>
      </trkpt>
      <trkpt lat="48.40017" lon="2.36964">
        <ele>99.5</ele>
        <time>2024-05-26T19:02:15.145Z</time>
      </trkpt>
      <trkpt lat="48.40024" lon="2.36983">
        <ele>98.83</ele>
        <time>2024-05-26T19:02:16.897Z</time>
      </trkpt>
      <trkpt lat="48.40034" lon="2.37">
        <ele>98.15</ele>
        <time>2024-05-26T19:02:18.652Z</time>
      </trkpt>
      <trkpt lat="48.40051" lon="2.37019">
        <ele>97.46</ele>
        <time>2024-05-26T19:02:20.411Z</time>
      </trkpt>
      <trkpt lat="48.40067" lon="2.37035">
        <ele>96.8</ele>
        <time>2024-05-26T19:02:22.174Z</time>
      </trkpt>
      <trkpt lat="48.40079" lon="2.37052">
        <ele>96.24</ele>
        <time>2024-05-26T19:02:23.940Z</time>
      </trkpt>
      <trkpt lat="48.40081" lon="2.37056">
        <ele>95.74</ele>
        <time>2024-05-26T19:02:25.707Z</time>
      </trkpt>
      <trkpt lat="48.40083" lon="2.3706">
        <ele>95.29</ele>
        <time>2024-05-26T19:02:27.474Z</time>
      </trkpt>
      <trkpt lat="48.40086" lon="2.37065">
        <ele>94.86</ele>
        <time>2024-05-26T19:02:29.242Z</time>
      </trkpt>
      <trkpt lat="48.40098" lon="2.37084">
        <ele>94.48</ele>
        <time>2024-05-26T19:02:31.014Z</time>
      </trkpt>
      <trkpt lat="48.401" lon="2.37087">
        <ele>94.09</ele>
        <time>2024-05-26T19:02:32.786Z</time>
      </trkpt>
      <trkpt lat="48.40111" lon="2.37097">
        <ele>93.69</ele>
        <time>2024-05-26T19:02:34.561Z</time>
      </trkpt>
      <trkpt lat="48.40119" lon="2.37103">
        <ele>93.32</ele>
        <time>2024-05-26T19:02:36.338Z</time>
      </trkpt>
      <trkpt lat="48.40124" lon="2.37105">
        <ele>92.98</ele>
        <time>2024-05-26T19:02:38.116Z</time>
      </trkpt>
      <trkpt lat="48.40135" lon="2.37112">
        <ele>92.63</ele>
        <time>2024-05-26T19:02:39.896Z</time>
      </trkpt>
      <trkpt lat="48.40137" lon="2.37117">
        <ele>92.4</ele>
        <time>2024-05-26T19:02:41.677Z</time>
      </trkpt>
      <trkpt lat="48.40142" lon="2.37129">
        <ele>92.19</ele>
        <time>2024-05-26T19:02:43.460Z</time>
      </trkpt>
      <trkpt lat="48.40144" lon="2.37142">
        <ele>92.03</ele>
        <time>2024-05-26T19:02:45.245Z</time>
      </trkpt>
      <trkpt lat="48.40144" lon="2.37145">
        <ele>91.88</ele>
        <time>2024-05-26T19:02:47.030Z</time>
      </trkpt>
      <trkpt lat="48.40142" lon="2.37163">
        <ele>91.8</ele>
        <time>2024-05-26T19:02:48.817Z</time>
      </trkpt>
      <trkpt lat="48.40141" lon="2.37165">
        <ele>91.7</ele>
        <time>2024-05-26T19:02:50.605Z</time>
      </trkpt>
      <trkpt lat="48.40144" lon="2.3717">
        <ele>91.6</ele>
        <time>2024-05-26T19:02:52.394Z</time>
      </trkpt>
      <trkpt lat="48.40148" lon="2.37179">
        <ele>91.52</ele>
        <time>2024-05-26T19:02:54.184Z</time>
      </trkpt>
      <trkpt lat="48.40148" lon="2.37179">
        <ele>91.48</ele>
        <time>2024-05-26T19:02:55.974Z</time>
      </trkpt>
      <trkpt lat="48.40148" lon="2.3718">
        <ele>91.46</ele>
        <time>2024-05-26T19:02:57.764Z</time>
      </trkpt>
      <trkpt lat="48.40148" lon="2.3718">
        <ele>91.46</ele>
        <time>2024-05-26T19:02:59.554Z</time>
      </trkpt>
      <trkpt lat="48.40148" lon="2.3718">
        <ele>91.47</ele>
        <time>2024-05-26T19:03:01.344Z</time>
      </trkpt>
      <trkpt lat="48.40147" lon="2.37182">
        <ele>91.51</ele>
        <time>2024-05-26T19:03:03.135Z</time>
      </trkpt>
      <trkpt lat="48.40147" lon="2.37182">
        <ele>91.56</ele>
        <time>2024-05-26T19:03:04.926Z</time>
      </trkpt>
      <trkpt lat="48.40147" lon="2.37181">
        <ele>91.63</ele>
        <time>2024-05-26T19:03:06.717Z</time>
      </trkpt>
      <trkpt lat="48.40147" lon="2.37181">
        <ele>91.71</ele>
        <time>2024-05-26T19:03:08.508Z</time>
      </trkpt>
      <trkpt lat="48.40148" lon="2.37179">
        <ele>91.79</ele>
        <time>2024-05-26T19:03:10.299Z</time>
      </trkpt>
      <trkpt lat="48.40148" lon="2.37182">
        <ele>91.91</ele>
        <time>2024-05-26T19:03:12.091Z</time>
      </trkpt>
      <trkpt lat="48.40148" lon="2.37184">
        <ele>92.03</ele>
        <time>2024-05-26T19:03:13.883Z</time>
      </trkpt>
      <trkpt lat="48.40145" lon="2.37206">
        <ele>92.21</ele>
        <time>2024-05-26T19:03:15.678Z</time>
      </trkpt>
      <trkpt lat="48.40144" lon="2.37213">
        <ele>92.38</ele>
        <time>2024-05-26T19:03:17.474Z</time>
      </trkpt>
      <trkpt lat="48.40145" lon="2.37217">
        <ele>92.53</ele>
        <time>2024-05-26T19:03:19.270Z</time>
      </trkpt>
      <trkpt lat="48.40149" lon="2.37234">
        <ele>92.65</ele>
        <time>2024-05-26T19:03:21.069Z</time>
      </trkpt>
      <trkpt lat="48.40154" lon="2.37258">
        <ele>92.75</ele>
        <time>2024-05-26T19:03:22.871Z</time>
      </trkpt>
      <trkpt lat="48.40156" lon="2.37267">
        <ele>92.9</ele>
        <time>2024-05-26T19:03:24.674Z</time>
      </trkpt>
      <trkpt lat="48.40153" lon="2.37286">
        <ele>93.12</ele>
        <time>2024-05-26T19:03:26.480Z</time>
      </trkpt>
      <trkpt lat="48.4015" lon="2.37304">
        <ele>93.35</ele>
        <time>2024-05-26T19:03:28.288Z</time>
      </trkpt>
      <trkpt lat="48.4015" lon="2.37311">
        <ele>93.55</ele>
        <time>2024-05-26T19:03:30.097Z</time>
      </trkpt>
      <trkpt lat="48.4015" lon="2.37318">
        <ele>93.75</ele>
        <time>2024-05-26T19:03:31.907Z</time>
      </trkpt>
      <trkpt lat="48.4015" lon="2.37328">
        <ele>93.93</ele>
        <time>2024-05-26T19:03:33.719Z</time>
      </trkpt>
      <trkpt lat="48.40149" lon="2.3733">
        <ele>94.15</ele>
        <time>2024-05-26T19:03:35.531Z</time>
      </trkpt>
      <trkpt lat="48.40145" lon="2.37345">
        <ele>94.38</ele>
        <time>2024-05-26T19:03:37.345Z</time>
      </trkpt>
      <trkpt lat="48.40142" lon="2.37347">
        <ele>94.61</ele>
        <time>2024-05-26T19:03:39.160Z</time>
      </trkpt>
      <trkpt lat="48.40134" lon="2.37357">
        <ele>94.86</ele>
        <time>2024-05-26T19:03:40.977Z</time>
      </trkpt>
      <trkpt lat="48.40131" lon="2.37363">
        <ele>95.1</ele>
        <time>2024-05-26T19:03:42.795Z</time>
      </trkpt>
      <trkpt lat="48.40127" lon="2.37369">
        <ele>95.33</ele>
        <time>2024-05-26T19:03:44.614Z</time>
      </trkpt>
      <trkpt lat="48.40126" lon="2.37375">
        <ele>95.57</ele>
        <time>2024-05-26T19:03:46.434Z</time>
      </trkpt>
      <trkpt lat="48.40126" lon="2.37379">
        <ele>95.79</ele>
        <time>2024-05-26T19:03:48.254Z</time>
      </trkpt>
      <trkpt lat="48.40128" lon="2.37401">
        <ele>96.01</ele>
        <time>2024-05-26T19:03:50.077Z</time>
      </trkpt>
      <trkpt lat="48.4013" lon="2.37407">
        <ele>96.26</ele>
        <time>2024-05-26T19:03:51.901Z</time>
      </trkpt>
      <trkpt lat="48.40132" lon="2.3741">
        <ele>96.49</ele>
        <time>2024-05-26T19:03:53.726Z</time>
      </trkpt>
      <trkpt lat="48.40134" lon="2.37415">
        <ele>96.73</ele>
        <time>2024-05-26T19:03:55.551Z</time>
      </trkpt>
      <trkpt lat="48.40137" lon="2.37434">
        <ele>97.01</ele>
        <time>2024-05-26T19:03:57.379Z</time>
      </trkpt>
      <trkpt lat="48.40136" lon="2.37439">
        <ele>97.24</ele>
        <time>2024-05-26T19:03:59.208Z</time>
      </trkpt>
      <trkpt lat="48.40133" lon="2.3745">
        <ele>97.46</ele>
        <time>2024-05-26T19:04:01.038Z</time>
      </trkpt>
      <trkpt lat="48.40132" lon="2.37466">
        <ele>97.67</ele>
        <time>2024-05-26T19:04:02.870Z</time>
      </trkpt>
      <trkpt lat="48.40133" lon="2.37468">
        <ele>97.9</ele>
        <time>2024-05-26T19:04:04.703Z</time>
      </trkpt>
      <trkpt lat="48.40137" lon="2.37473">
        <ele>98.14</ele>
        <time>2024-05-26T19:04:06.537Z</time>
      </trkpt>
      <trkpt lat="48.40138" lon="2.37476">
        <ele>98.35</ele>
        <time>2024-05-26T19:04:08.371Z</time>
      </trkpt>
      <trkpt lat="48.4014" lon="2.37487">
        <ele>98.56</ele>
        <time>2024-05-26T19:04:10.207Z</time>
      </trkpt>
      <trkpt lat="48.40142" lon="2.37491">
        <ele>98.76</ele>
        <time>2024-05-26T19:04:12.043Z</time>
      </trkpt>
      <trkpt lat="48.40147" lon="2.37496">
        <ele>98.97</ele>
        <time>2024-05-26T19:04:13.881Z</time>
      </trkpt>
      <trkpt lat="48.40147" lon="2.37501">
        <ele>99.13</ele>
        <time>2024-05-26T19:04:15.719Z</time>
      </trkpt>
      <trkpt lat="48.40148" lon="2.37505">
        <ele>99.29</ele>
        <time>2024-05-26T19:04:17.558Z</time>
      </trkpt>
      <trkpt lat="48.40154" lon="2.37515">
        <ele>99.47</ele>
        <time>2024-05-26T19:04:19.399Z</time>
      </trkpt>
      <trkpt lat="48.40156" lon="2.37519">
        <ele>99.6</ele>
        <time>2024-05-26T19:04:21.240Z</time>
      </trkpt>
      <trkpt lat="48.40158" lon="2.37522">
        <ele>99.72</ele>
        <time>2024-05-26T19:04:23.082Z</time>
      </trkpt>
      <trkpt lat="48.40159" lon="2.37523">
        <ele>99.82</ele>
        <time>2024-05-26T19:04:24.924Z</time>
      </trkpt>
      <trkpt lat="48.40161" lon="2.37524">
        <ele>99.9</ele>
        <time>2024-05-26T19:04:26.766Z</time>
      </trkpt>
      <trkpt lat="48.40161" lon="2.37525">
        <ele>99.95</ele>
        <time>2024-05-26T19:04:28.608Z</time>
      </trkpt>
      <trkpt lat="48.40161" lon="2.37527">
        <ele>99.98</ele>
        <time>2024-05-26T19:04:30.451Z</time>
      </trkpt>
      <trkpt lat="48.40162" lon="2.37526">
        <ele>99.99</ele>
        <time>2024-05-26T19:04:32.294Z</time>
      </trkpt>
      <trkpt lat="48.40161" lon="2.37527">
        <ele>99.97</ele>
        <time>2024-05-26T19:04:34.137Z</time>
      </trkpt>
      <trkpt lat="48.40158" lon="2.3753">
        <ele>99.9</ele>
        <time>2024-05-26T19:04:35.981Z</time>
      </trkpt>
      <trkpt lat="48.40161" lon="2.37533">
        <ele>99.85</ele>
        <time>2024-05-26T19:04:37.825Z</time>
      </trkpt>
      <trkpt lat="48.40163" lon="2.37534">
        <ele>99.79</ele>
        <time>2024-05-26T19:04:39.670Z</time>
      </trkpt>
      <trkpt lat="48.40168" lon="2.37532">
        <ele>99.73</ele>
        <time>2024-05-26T19:04:41.516Z</time>
      </trkpt>
      <trkpt lat="48.40173" lon="2.37533">
        <ele>99.63</ele>
        <time>2024-05-26T19:04:43.363Z</time>
      </trkpt>
      <trkpt lat="48.40186" lon="2.37537">
        <ele>99.53</ele>
        <time>2024-05-26T19:04:45.213Z</time>
      </trkpt>
      <trkpt lat="48.40198" lon="2.37537">
        <ele>99.4</ele>
        <time>2024-05-26T19:04:47.065Z</time>
      </trkpt>
      <trkpt lat="48.40207" lon="2.37536">
        <ele>99.24</ele>
        <time>2024-05-26T19:04:48.919Z</time>
      </trkpt>
      <trkpt lat="48.4022" lon="2.37541">
        <ele>99.04</ele>
        <time>2024-05-26T19:04:50.775Z</time>
      </trkpt>
      <trkpt lat="48.40235" lon="2.37553">
        <ele>98.7</ele>
        <time>2024-05-26T19:04:52.635Z</time>
      </trkpt>
      <trkpt lat="48.40241" lon="2.37561">
        <ele>98.4</ele>
        <time>2024-05-26T19:04:54.496Z</time>
      </trkpt>
      <trkpt lat="48.40243" lon="2.37566">
        <ele>98.12</ele>
        <time>2024-05-26T19:04:56.358Z</time>
      </trkpt>
      <trkpt lat="48.40251" lon="2.37576">
        <ele>97.76</ele>
        <time>2024-05-26T19:04:58.222Z</time>
      </trkpt>
      <trkpt lat="48.40264" lon="2.37581">
        <ele>97.39</ele>
        <time>2024-05-26T19:05:00.089Z</time>
      </trkpt>
      <trkpt lat="48.4027" lon="2.37581">
        <ele>97.07</ele>
        <time>2024-05-26T19:05:01.957Z</time>
      </trkpt>
      <trkpt lat="48.40285" lon="2.37562">
        <ele>96.74</ele>
        <time>2024-05-26T19:05:03.829Z</time>
      </trkpt>
      <trkpt lat="48.40286" lon="2.37561">
        <ele>96.42</ele>
        <time>2024-05-26T19:05:05.701Z</time>
      </trkpt>
      <trkpt lat="48.40297" lon="2.37562">
        <ele>96.01</ele>
        <time>2024-05-26T19:05:07.575Z</time>
      </trkpt>
      <trkpt lat="48.40305" lon="2.37572">
        <ele>95.63</ele>
        <time>2024-05-26T19:05:09.452Z</time>
      </trkpt>
      <trkpt lat="48.40311" lon="2.37565">
        <ele>95.24</ele>
        <time>2024-05-26T19:05:11.330Z</time>
      </trkpt>
      <trkpt lat="48.40317" lon="2.3755">
        <ele>94.9</ele>
        <time>2024-05-26T19:05:13.210Z</time>
      </trkpt>
      <trkpt lat="48.40317" lon="2.37543">
        <ele>94.58</ele>
        <time>2024-05-26T19:05:15.091Z</time>
      </trkpt>
      <trkpt lat="48.40313" lon="2.37539">
        <ele>94.28</ele>
        <time>2024-05-26T19:05:16.973Z</time>
      </trkpt>
      <trkpt lat="48.40307" lon="2.37531">
        <ele>94</ele>
        <time>2024-05-26T19:05:18.857Z</time>
      </trkpt>
      <trkpt lat="48.40306" lon="2.37526">
        <ele>93.68</ele>
        <time>2024-05-26T19:05:20.742Z</time>
      </trkpt>
      <trkpt lat="48.40302" lon="2.37517">
        <ele>93.36</ele>
        <time>2024-05-26T19:05:22.628Z</time>
      </trkpt>
      <trkpt lat="48.40296" lon="2.375">
        <ele>93.06</ele>
        <time>2024-05-26T19:05:24.517Z</time>
      </trkpt>
      <trkpt lat="48.40295" lon="2.37498">
        <ele>92.73</ele>
        <time>2024-05-26T19:05:26.406Z</time>
      </trkpt>
      <trkpt lat="48.40289" lon="2.37491">
        <ele>92.43</ele>
        <time>2024-05-26T19:05:28.296Z</time>
      </trkpt>
      <trkpt lat="48.40288" lon="2.3749">
        <ele>92.08</ele>
        <time>2024-05-26T19:05:30.187Z</time>
      </trkpt>
      <trkpt lat="48.40281" lon="2.37482">
        <ele>91.79</ele>
        <time>2024-05-26T19:05:32.080Z</time>
      </trkpt>
      <trkpt lat="48.40279" lon="2.3748">
        <ele>91.41</ele>
        <time>2024-05-26T19:05:33.973Z</time>
      </trkpt>
      <trkpt lat="48.40278" lon="2.37478">
        <ele>91.02</ele>
        <time>2024-05-26T19:05:35.866Z</time>
      </trkpt>
      <trkpt lat="48.40272" lon="2.37469">
        <ele>90.65</ele>
        <time>2024-05-26T19:05:37.761Z</time>
      </trkpt>
      <trkpt lat="48.40266" lon="2.3746">
        <ele>90.23</ele>
        <time>2024-05-26T19:05:39.658Z</time>
      </trkpt>
      <trkpt lat="48.40262" lon="2.37451">
        <ele>89.77</ele>
        <time>2024-05-26T19:05:41.556Z</time>
      </trkpt>
      <trkpt lat="48.40263" lon="2.3745">
        <ele>89.29</ele>
        <time>2024-05-26T19:05:43.454Z</time>
      </trkpt>
      <trkpt lat="48.40264" lon="2.3745">
        <ele>88.78</ele>
        <time>2024-05-26T19:05:45.353Z</time>
      </trkpt>
      <trkpt lat="48.40264" lon="2.37451">
        <ele>88.26</ele>
        <time>2024-05-26T19:05:47.252Z</time>
      </trkpt>
      <trkpt lat="48.40266" lon="2.3746">
        <ele>87.74</ele>
        <time>2024-05-26T19:05:49.152Z</time>
      </trkpt>
      <trkpt lat="48.40267" lon="2.37464">
        <ele>87.18</ele>
        <time>2024-05-26T19:05:51.053Z</time>
      </trkpt>
      <trkpt lat="48.40268" lon="2.37463">
        <ele>86.57</ele>
        <time>2024-05-26T19:05:52.954Z</time>
      </trkpt>
      <trkpt lat="48.40268" lon="2.37461">
        <ele>85.95</ele>
        <time>2024-05-26T19:05:54.855Z</time>
      </trkpt>
      <trkpt lat="48.40269" lon="2.37452">
        <ele>85.26</ele>
        <time>2024-05-26T19:05:56.757Z</time>
      </trkpt>
      <trkpt lat="48.40271" lon="2.37429">
        <ele>84.48</ele>
        <time>2024-05-26T19:05:58.663Z</time>
      </trkpt>
      <trkpt lat="48.40273" lon="2.37425">
        <ele>83.76</ele>
        <time>2024-05-26T19:06:00.569Z</time>
      </trkpt>
      <trkpt lat="48.40278" lon="2.37422">
        <ele>83.01</ele>
        <time>2024-05-26T19:06:02.476Z</time>
      </trkpt>
      <trkpt lat="48.40284" lon="2.37422">
        <ele>82.23</ele>
        <time>2024-05-26T19:06:04.385Z</time>
      </trkpt>
      <trkpt lat="48.40289" lon="2.3742">
        <ele>81.47</ele>
        <time>2024-05-26T19:06:06.295Z</time>
      </trkpt>
      <trkpt lat="48.40309" lon="2.37417">
        <ele>80.6</ele>
        <time>2024-05-26T19:06:08.209Z</time>
      </trkpt>
      <trkpt lat="48.40319" lon="2.37416">
        <ele>79.8</ele>
        <time>2024-05-26T19:06:10.125Z</time>
      </trkpt>
      <trkpt lat="48.40335" lon="2.37426">
        <ele>78.99</ele>
        <time>2024-05-26T19:06:12.044Z</time>
      </trkpt>
      <trkpt lat="48.40347" lon="2.37456">
        <ele>78.23</ele>
        <time>2024-05-26T19:06:13.968Z</time>
      </trkpt>
      <trkpt lat="48.40348" lon="2.3748">
        <ele>77.49</ele>
        <time>2024-05-26T19:06:15.895Z</time>
      </trkpt>
      <trkpt lat="48.40349" lon="2.37498">
        <ele>76.76</ele>
        <time>2024-05-26T19:06:17.824Z</time>
      </trkpt>
      <trkpt lat="48.4035" lon="2.37548">
        <ele>76</ele>
        <time>2024-05-26T19:06:19.760Z</time>
      </trkpt>
      <trkpt lat="48.40351" lon="2.37567">
        <ele>75.23</ele>
        <time>2024-05-26T19:06:21.698Z</time>
      </trkpt>
      <trkpt lat="48.40352" lon="2.37585">
        <ele>74.45</ele>
        <time>2024-05-26T19:06:23.639Z</time>
      </trkpt>
      <trkpt lat="48.40352" lon="2.37595">
        <ele>73.73</ele>
        <time>2024-05-26T19:06:25.581Z</time>
      </trkpt>
      <trkpt lat="48.40344" lon="2.37652">
        <ele>72.95</ele>
        <time>2024-05-26T19:06:27.531Z</time>
      </trkpt>
      <trkpt lat="48.40329" lon="2.37709">
        <ele>72.2</ele>
        <time>2024-05-26T19:06:29.489Z</time>
      </trkpt>
      <trkpt lat="48.40317" lon="2.37727">
        <ele>71.54</ele>
        <time>2024-05-26T19:06:31.451Z</time>
      </trkpt>
      <trkpt lat="48.40312" lon="2.37734">
        <ele>70.87</ele>
        <time>2024-05-26T19:06:33.414Z</time>
      </trkpt>
      <trkpt lat="48.40279" lon="2.37778">
        <ele>70.16</ele>
        <time>2024-05-26T19:06:35.386Z</time>
      </trkpt>
      <trkpt lat="48.40254" lon="2.37829">
        <ele>69.47</ele>
        <time>2024-05-26T19:06:37.366Z</time>
      </trkpt>
      <trkpt lat="48.4025" lon="2.37841">
        <ele>68.88</ele>
        <time>2024-05-26T19:06:39.348Z</time>
      </trkpt>
      <trkpt lat="48.40249" lon="2.37856">
        <ele>68.29</ele>
        <time>2024-05-26T19:06:41.332Z</time>
      </trkpt>
      <trkpt lat="48.4025" lon="2.37864">
        <ele>67.73</ele>
        <time>2024-05-26T19:06:43.317Z</time>
      </trkpt>
      <trkpt lat="48.40256" lon="2.3788">
        <ele>67.21</ele>
        <time>2024-05-26T19:06:45.304Z</time>
      </trkpt>
      <trkpt lat="48.4026" lon="2.37904">
        <ele>66.71</ele>
        <time>2024-05-26T19:06:47.295Z</time>
      </trkpt>
      <trkpt lat="48.40257" lon="2.37922">
        <ele>66.24</ele>
        <time>2024-05-26T19:06:49.288Z</time>
      </trkpt>
      <trkpt lat="48.40251" lon="2.37949">
        <ele>65.79</ele>
        <time>2024-05-26T19:06:51.285Z</time>
      </trkpt>
      <trkpt lat="48.4023" lon="2.38023">
        <ele>65.27</ele>
        <time>2024-05-26T19:06:53.293Z</time>
      </trkpt>
      <trkpt lat="48.40228" lon="2.38033">
        <ele>64.89</ele>
        <time>2024-05-26T19:06:55.302Z</time>
      </trkpt>
      <trkpt lat="48.40213" lon="2.38084">
        <ele>64.53</ele>
        <time>2024-05-26T19:06:57.319Z</time>
      </trkpt>
      <trkpt lat="48.40211" lon="2.38091">
        <ele>64.19</ele>
        <time>2024-05-26T19:06:59.337Z</time>
      </trkpt>
      <trkpt lat="48.40198" lon="2.38133">
        <ele>63.86</ele>
        <time>2024-05-26T19:07:01.361Z</time>
      </trkpt>
      <trkpt lat="48.40183" lon="2.38138">
        <ele>63.58</ele>
        <time>2024-05-26T19:07:03.388Z</time>
      </trkpt>
      <trkpt lat="48.40177" lon="2.38136">
        <ele>63.34</ele>
        <time>2024-05-26T19:07:05.416Z</time>
      </trkpt>
      <trkpt lat="48.40155" lon="2.38133">
        <ele>63.13</ele>
        <time>2024-05-26T19:07:07.448Z</time>
      </trkpt>
      <trkpt lat="48.40149" lon="2.38131">
        <ele>62.93</ele>
        <time>2024-05-26T19:07:09.482Z</time>
      </trkpt>
      <trkpt lat="48.40119" lon="2.38123">
        <ele>62.74</ele>
        <time>2024-05-26T19:07:11.522Z</time>
      </trkpt>
      <trkpt lat="48.40107" lon="2.3812">
        <ele>62.57</ele>
        <time>2024-05-26T19:07:13.564Z</time>
      </trkpt>
      <trkpt lat="48.40069" lon="2.38112">
        <ele>62.38</ele>
        <time>2024-05-26T19:07:15.614Z</time>
      </trkpt>
      <trkpt lat="48.40057" lon="2.3811">
        <ele>62.26</ele>
        <time>2024-05-26T19:07:17.666Z</time>
      </trkpt>
      <trkpt lat="48.40016" lon="2.38103">
        <ele>62.2</ele>
        <time>2024-05-26T19:07:19.726Z</time>
      </trkpt>
      <trkpt lat="48.40005" lon="2.38101">
        <ele>62.12</ele>
        <time>2024-05-26T19:07:21.789Z</time>
      </trkpt>
      <trkpt lat="48.39972" lon="2.38096">
        <ele>62.02</ele>
        <time>2024-05-26T19:07:23.858Z</time>
      </trkpt>
      <trkpt lat="48.39967" lon="2.38095">
        <ele>61.97</ele>
        <time>2024-05-26T19:07:25.928Z</time>
      </trkpt>
      <trkpt lat="48.39947" lon="2.3809">
        <ele>61.96</ele>
        <time>2024-05-26T19:07:28.002Z</time>
      </trkpt>
      <trkpt lat="48.39938" lon="2.38088">
        <ele>61.95</ele>
        <time>2024-05-26T19:07:30.078Z</time>
      </trkpt>
      <trkpt lat="48.39928" lon="2.38085">
        <ele>61.96</ele>
        <time>2024-05-26T19:07:32.156Z</time>
      </trkpt>
      <trkpt lat="48.39917" lon="2.38085">
        <ele>61.98</ele>
        <time>2024-05-26T19:07:34.237Z</time>
      </trkpt>
      <trkpt lat="48.39912" lon="2.38086">
        <ele>61.97</ele>
        <time>2024-05-26T19:07:36.319Z</time>
      </trkpt>
      <trkpt lat="48.39875" lon="2.38097">
        <ele>61.98</ele>
        <time>2024-05-26T19:07:38.408Z</time>
      </trkpt>
      <trkpt lat="48.39837" lon="2.3811">
        <ele>61.94</ele>
        <time>2024-05-26T19:07:40.505Z</time>
      </trkpt>
      <trkpt lat="48.39831" lon="2.3811">
        <ele>61.94</ele>
        <time>2024-05-26T19:07:42.603Z</time>
      </trkpt>
      <trkpt lat="48.39803" lon="2.38109">
        <ele>61.92</ele>
        <time>2024-05-26T19:07:44.707Z</time>
      </trkpt>
      <trkpt lat="48.39793" lon="2.38107">
        <ele>61.9</ele>
        <time>2024-05-26T19:07:46.813Z</time>
      </trkpt>
      <trkpt lat="48.39774" lon="2.38091">
        <ele>61.9</ele>
        <time>2024-05-26T19:07:48.923Z</time>
      </trkpt>
      <trkpt lat="48.39742" lon="2.38057">
        <ele>61.79</ele>
        <time>2024-05-26T19:07:51.041Z</time>
      </trkpt>
      <trkpt lat="48.39708" lon="2.38025">
        <ele>61.7</ele>
        <time>2024-05-26T19:07:53.167Z</time>
      </trkpt>
      <trkpt lat="48.39669" lon="2.37993">
        <ele>61.68</ele>
        <time>2024-05-26T19:07:55.302Z</time>
      </trkpt>
      <trkpt lat="48.39664" lon="2.37988">
        <ele>61.65</ele>
        <time>2024-05-26T19:07:57.438Z</time>
      </trkpt>
      <trkpt lat="48.39655" lon="2.37982">
        <ele>61.62</ele>
        <time>2024-05-26T19:07:59.576Z</time>
      </trkpt>
      <trkpt lat="48.39647" lon="2.37989">
        <ele>61.56</ele>
        <time>2024-05-26T19:08:01.716Z</time>
      </trkpt>
      <trkpt lat="48.39645" lon="2.38016">
        <ele>61.51</ele>
        <time>2024-05-26T19:08:03.860Z</time>
      </trkpt>
      <trkpt lat="48.39642" lon="2.381">
        <ele>61.46</ele>
        <time>2024-05-26T19:08:06.015Z</time>
      </trkpt>
      <trkpt lat="48.39641" lon="2.38123">
        <ele>61.39</ele>
        <time>2024-05-26T19:08:08.173Z</time>
      </trkpt>
      <trkpt lat="48.39639" lon="2.38186">
        <ele>61.27</ele>
        <time>2024-05-26T19:08:10.339Z</time>
      </trkpt>
      <trkpt lat="48.39638" lon="2.38207">
        <ele>61.23</ele>
        <time>2024-05-26T19:08:12.508Z</time>
      </trkpt>
      <trkpt lat="48.39633" lon="2.38267">
        <ele>61.23</ele>
        <time>2024-05-26T19:08:14.685Z</time>
      </trkpt>
      <trkpt lat="48.3963" lon="2.38304">
        <ele>61.22</ele>
        <time>2024-05-26T19:08:16.867Z</time>
      </trkpt>
      <trkpt lat="48.39629" lon="2.38328">
        <ele>61.23</ele>
        <time>2024-05-26T19:08:19.052Z</time>
      </trkpt>
      <trkpt lat="48.39622" lon="2.38343">
        <ele>61.18</ele>
        <time>2024-05-26T19:08:21.240Z</time>
      </trkpt>
      <trkpt lat="48.39605" lon="2.38344">
        <ele>61.09</ele>
        <time>2024-05-26T19:08:23.431Z</time>
      </trkpt>
      <trkpt lat="48.39593" lon="2.38346">
        <ele>61.02</ele>
        <time>2024-05-26T19:08:25.625Z</time>
      </trkpt>
      <trkpt lat="48.39574" lon="2.38348">
        <ele>60.95</ele>
        <time>2024-05-26T19:08:27.822Z</time>
      </trkpt>
      <trkpt lat="48.39568" lon="2.38348">
        <ele>60.89</ele>
        <time>2024-05-26T19:08:30.021Z</time>
      </trkpt>
      <trkpt lat="48.39562" lon="2.3835">
        <ele>60.83</ele>
        <time>2024-05-26T19:08:32.221Z</time>
      </trkpt>
      <trkpt lat="48.39539" lon="2.38351">
        <ele>60.79</ele>
        <time>2024-05-26T19:08:34.425Z</time>
      </trkpt>
      <trkpt lat="48.39534" lon="2.38353">
        <ele>60.75</ele>
        <time>2024-05-26T19:08:36.630Z</time>
      </trkpt>
      <trkpt lat="48.39513" lon="2.38353">
        <ele>60.72</ele>
        <time>2024-05-26T19:08:38.840Z</time>
      </trkpt>
      <trkpt lat="48.39478" lon="2.38353">
        <ele>60.68</ele>
        <time>2024-05-26T19:08:41.056Z</time>
      </trkpt>
      <trkpt lat="48.39472" lon="2.38352">
        <ele>60.64</ele>
        <time>2024-05-26T19:08:43.274Z</time>
      </trkpt>
      <trkpt lat="48.3947" lon="2.38349">
        <ele>60.6</ele>
        <time>2024-05-26T19:08:45.492Z</time>
      </trkpt>
      <trkpt lat="48.39457" lon="2.38332">
        <ele>60.53</ele>
        <time>2024-05-26T19:08:47.714Z</time>
      </trkpt>
      <trkpt lat="48.39451" lon="2.38323">
        <ele>60.49</ele>
        <time>2024-05-26T19:08:49.937Z</time>
      </trkpt>
      <trkpt lat="48.39444" lon="2.38315">
        <ele>60.46</ele>
        <time>2024-05-26T19:08:52.162Z</time>
      </trkpt>
      <trkpt lat="48.39436" lon="2.38313">
        <ele>60.44</ele>
        <time>2024-05-26T19:08:54.389Z</time>
      </trkpt>
      <trkpt lat="48.39429" lon="2.38325">
        <ele>60.44</ele>
        <time>2024-05-26T19:08:56.618Z</time>
      </trkpt>
      <trkpt lat="48.39427" lon="2.38339">
        <ele>60.45</ele>
        <time>2024-05-26T19:08:58.849Z</time>
      </trkpt>
      <trkpt lat="48.39426" lon="2.38347">
        <ele>60.46</ele>
        <time>2024-05-26T19:09:01.081Z</time>
      </trkpt>
      <trkpt lat="48.39425" lon="2.38355">
        <ele>60.46</ele>
        <time>2024-05-26T19:09:03.314Z</time>
      </trkpt>
      <trkpt lat="48.39422" lon="2.38408">
        <ele>60.49</ele>
        <time>2024-05-26T19:09:05.554Z</time>
      </trkpt>
      <trkpt lat="48.39421" lon="2.38418">
        <ele>60.5</ele>
        <time>2024-05-26T19:09:07.795Z</time>
      </trkpt>
      <trkpt lat="48.39413" lon="2.38458">
        <ele>60.55</ele>
        <time>2024-05-26T19:09:10.042Z</time>
      </trkpt>
      <trkpt lat="48.3941" lon="2.38466">
        <ele>60.59</ele>
        <time>2024-05-26T19:09:12.290Z</time>
      </trkpt>
      <trkpt lat="48.39397" lon="2.38495">
        <ele>60.65</ele>
        <time>2024-05-26T19:09:14.543Z</time>
      </trkpt>
      <trkpt lat="48.39373" lon="2.3855">
        <ele>60.7</ele>
        <time>2024-05-26T19:09:16.805Z</time>
      </trkpt>
      <trkpt lat="48.3937" lon="2.38558">
        <ele>60.76</ele>
        <time>2024-05-26T19:09:19.068Z</time>
      </trkpt>
      <trkpt lat="48.39368" lon="2.38566">
        <ele>60.84</ele>
        <time>2024-05-26T19:09:21.332Z</time>
      </trkpt>
      <trkpt lat="48.39359" lon="2.38599">
        <ele>60.93</ele>
        <time>2024-05-26T19:09:23.601Z</time>
      </trkpt>
      <trkpt lat="48.39343" lon="2.38651">
        <ele>61.06</ele>
        <time>2024-05-26T19:09:25.877Z</time>
      </trkpt>
      <trkpt lat="48.39337" lon="2.38671">
        <ele>61.16</ele>
        <time>2024-05-26T19:09:28.156Z</time>
      </trkpt>
      <trkpt lat="48.39328" lon="2.387">
        <ele>61.25</ele>
        <time>2024-05-26T19:09:30.440Z</time>
      </trkpt>
      <trkpt lat="48.39315" lon="2.38761">
        <ele>61.42</ele>
        <time>2024-05-26T19:09:32.732Z</time>
      </trkpt>
      <trkpt lat="48.39304" lon="2.3882">
        <ele>61.59</ele>
        <time>2024-05-26T19:09:35.032Z</time>
      </trkpt>
      <trkpt lat="48.39295" lon="2.38864">
        <ele>61.7</ele>
        <time>2024-05-26T19:09:37.338Z</time>
      </trkpt>
      <trkpt lat="48.39282" lon="2.38922">
        <ele>61.79</ele>
        <time>2024-05-26T19:09:39.653Z</time>
      </trkpt>
      <trkpt lat="48.39273" lon="2.38968">
        <ele>61.95</ele>
        <time>2024-05-26T19:09:41.974Z</time>
      </trkpt>
      <trkpt lat="48.39272" lon="2.38975">
        <ele>62.12</ele>
        <time>2024-05-26T19:09:44.296Z</time>
      </trkpt>
      <trkpt lat="48.3927" lon="2.38982">
        <ele>62.3</ele>
        <time>2024-05-26T19:09:46.619Z</time>
      </trkpt>
      <trkpt lat="48.39265" lon="2.39011">
        <ele>62.48</ele>
        <time>2024-05-26T19:09:48.946Z</time>
      </trkpt>
      <trkpt lat="48.39257" lon="2.39055">
        <ele>62.64</ele>
        <time>2024-05-26T19:09:51.279Z</time>
      </trkpt>
      <trkpt lat="48.39249" lon="2.39099">
        <ele>62.84</ele>
        <time>2024-05-26T19:09:53.618Z</time>
      </trkpt>
      <trkpt lat="48.3924" lon="2.39142">
        <ele>63.03</ele>
        <time>2024-05-26T19:09:55.963Z</time>
      </trkpt>
      <trkpt lat="48.39238" lon="2.39164">
        <ele>63.22</ele>
        <time>2024-05-26T19:09:58.311Z</time>
      </trkpt>
      <trkpt lat="48.39238" lon="2.39179">
        <ele>63.42</ele>
        <time>2024-05-26T19:10:00.661Z</time>
      </trkpt>
      <trkpt lat="48.39238" lon="2.39185">
        <ele>63.63</ele>
        <time>2024-05-26T19:10:03.012Z</time>
      </trkpt>
      <trkpt lat="48.39238" lon="2.39192">
        <ele>63.85</ele>
        <time>2024-05-26T19:10:05.364Z</time>
      </trkpt>
      <trkpt lat="48.3924" lon="2.39229">
        <ele>64.06</ele>
        <time>2024-05-26T19:10:07.721Z</time>
      </trkpt>
      <trkpt lat="48.3924" lon="2.39236">
        <ele>64.29</ele>
        <time>2024-05-26T19:10:10.079Z</time>
      </trkpt>
      <trkpt lat="48.39243" lon="2.39286">
        <ele>64.52</ele>
        <time>2024-05-26T19:10:12.443Z</time>
      </trkpt>
      <trkpt lat="48.39248" lon="2.3932">
        <ele>64.79</ele>
        <time>2024-05-26T19:10:14.812Z</time>
      </trkpt>
      <trkpt lat="48.3925" lon="2.39335">
        <ele>65.04</ele>
        <time>2024-05-26T19:10:17.183Z</time>
      </trkpt>
      <trkpt lat="48.39258" lon="2.39375">
        <ele>65.29</ele>
        <time>2024-05-26T19:10:19.560Z</time>
      </trkpt>
      <trkpt lat="48.39263" lon="2.3939">
        <ele>65.53</ele>
        <time>2024-05-26T19:10:21.939Z</time>
      </trkpt>
      <trkpt lat="48.39278" lon="2.39438">
        <ele>65.78</ele>
        <time>2024-05-26T19:10:24.325Z</time>
      </trkpt>
      <trkpt lat="48.39296" lon="2.39493">
        <ele>65.99</ele>
        <time>2024-05-26T19:10:26.719Z</time>
      </trkpt>
      <trkpt lat="48.393" lon="2.39507">
        <ele>66.21</ele>
        <time>2024-05-26T19:10:29.115Z</time>
      </trkpt>
      <trkpt lat="48.39302" lon="2.39514">
        <ele>66.43</ele>
        <time>2024-05-26T19:10:31.512Z</time>
      </trkpt>
      <trkpt lat="48.393" lon="2.39526">
        <ele>66.65</ele>
        <time>2024-05-26T19:10:33.911Z</time>
      </trkpt>
      <trkpt lat="48.39287" lon="2.39528">
        <ele>66.87</ele>
        <time>2024-05-26T19:10:36.313Z</time>
      </trkpt>
      <trkpt lat="48.3927" lon="2.39509">
        <ele>67.07</ele>
        <time>2024-05-26T19:10:38.719Z</time>
      </trkpt>
      <trkpt lat="48.39267" lon="2.39503">
        <ele>67.26</ele>
        <time>2024-05-26T19:10:41.126Z</time>
      </trkpt>
      <trkpt lat="48.39263" lon="2.39496">
        <ele>67.44</ele>
        <time>2024-05-26T19:10:43.534Z</time>
      </trkpt>
      <trkpt lat="48.39246" lon="2.39461">
        <ele>67.62</ele>
        <time>2024-05-26T19:10:45.948Z</time>
      </trkpt>
      <trkpt lat="48.39225" lon="2.39411">
        <ele>67.76</ele>
        <time>2024-05-26T19:10:48.370Z</time>
      </trkpt>
      <trkpt lat="48.39201" lon="2.39363">
        <ele>67.93</ele>
        <time>2024-05-26T19:10:50.800Z</time>
      </trkpt>
      <trkpt lat="48.39177" lon="2.39302">
        <ele>68.01</ele>
        <time>2024-05-26T19:10:53.239Z</time>
      </trkpt>
      <trkpt lat="48.39159" lon="2.39281">
        <ele>68.13</ele>
        <time>2024-05-26T19:10:55.683Z</time>
      </trkpt>
      <trkpt lat="48.39137" lon="2.3928">
        <ele>68.3</ele>
        <time>2024-05-26T19:10:58.131Z</time>
      </trkpt>
      <trkpt lat="48.39127" lon="2.39278">
        <ele>68.4</ele>
        <time>2024-05-26T19:11:00.581Z</time>
      </trkpt>
      <trkpt lat="48.39122" lon="2.39276">
        <ele>68.47</ele>
        <time>2024-05-26T19:11:03.032Z</time>
      </trkpt>
      <trkpt lat="48.39118" lon="2.39274">
        <ele>68.52</ele>
        <time>2024-05-26T19:11:05.484Z</time>
      </trkpt>
      <trkpt lat="48.39093" lon="2.39256">
        <ele>68.56</ele>
        <time>2024-05-26T19:11:07.941Z</time>
      </trkpt>
      <trkpt lat="48.39072" lon="2.39234">
        <ele>68.58</ele>
        <time>2024-05-26T19:11:10.404Z</time>
      </trkpt>
      <trkpt lat="48.39064" lon="2.39227">
        <ele>68.58</ele>
        <time>2024-05-26T19:11:12.868Z</time>
      </trkpt>
      <trkpt lat="48.39047" lon="2.3921">
        <ele>68.57</ele>
        <time>2024-05-26T19:11:15.337Z</time>
      </trkpt>
      <trkpt lat="48.39023" lon="2.39185">
        <ele>68.54</ele>
        <time>2024-05-26T19:11:17.811Z</time>
      </trkpt>
      <trkpt lat="48.39014" lon="2.39174">
        <ele>68.49</ele>
        <time>2024-05-26T19:11:20.288Z</time>
      </trkpt>
      <trkpt lat="48.38988" lon="2.39139">
        <ele>68.44</ele>
        <time>2024-05-26T19:11:22.772Z</time>
      </trkpt>
      <trkpt lat="48.38985" lon="2.39133">
        <ele>68.37</ele>
        <time>2024-05-26T19:11:25.257Z</time>
      </trkpt>
      <trkpt lat="48.38964" lon="2.39105">
        <ele>68.26</ele>
        <time>2024-05-26T19:11:27.747Z</time>
      </trkpt>
      <trkpt lat="48.38935" lon="2.39063">
        <ele>68.1</ele>
        <time>2024-05-26T19:11:30.245Z</time>
      </trkpt>
      <trkpt lat="48.38925" lon="2.39055">
        <ele>68</ele>
        <time>2024-05-26T19:11:32.746Z</time>
      </trkpt>
      <trkpt lat="48.38908" lon="2.39047">
        <ele>67.9</ele>
        <time>2024-05-26T19:11:35.250Z</time>
      </trkpt>
      <trkpt lat="48.38897" lon="2.39045">
        <ele>67.79</ele>
        <time>2024-05-26T19:11:37.756Z</time>
      </trkpt>
      <trkpt lat="48.38875" lon="2.39042">
        <ele>67.7</ele>
        <time>2024-05-26T19:11:40.267Z</time>
      </trkpt>
      <trkpt lat="48.38842" lon="2.39039">
        <ele>67.63</ele>
        <time>2024-05-26T19:11:42.784Z</time>
      </trkpt>
      <trkpt lat="48.38814" lon="2.39037">
        <ele>67.52</ele>
        <time>2024-05-26T19:11:45.307Z</time>
      </trkpt>
      <trkpt lat="48.38785" lon="2.39031">
        <ele>67.41</ele>
        <time>2024-05-26T19:11:47.836Z</time>
      </trkpt>
      <trkpt lat="48.38761" lon="2.3903">
        <ele>67.32</ele>
        <time>2024-05-26T19:11:50.370Z</time>
      </trkpt>
      <trkpt lat="48.38749" lon="2.39028">
        <ele>67.22</ele>
        <time>2024-05-26T19:11:52.906Z</time>
      </trkpt>
      <trkpt lat="48.3873" lon="2.39027">
        <ele>67.12</ele>
        <time>2024-05-26T19:11:55.446Z</time>
      </trkpt>
      <trkpt lat="48.38724" lon="2.39028">
        <ele>67.04</ele>
        <time>2024-05-26T19:11:57.987Z</time>
      </trkpt>
      <trkpt lat="48.38718" lon="2.39029">
        <ele>66.97</ele>
        <time>2024-05-26T19:12:00.529Z</time>
      </trkpt>
      <trkpt lat="48.38706" lon="2.39029">
        <ele>66.9</ele>
        <time>2024-05-26T19:12:03.074Z</time>
      </trkpt>
      <trkpt lat="48.38684" lon="2.39031">
        <ele>66.84</ele>
        <time>2024-05-26T19:12:05.623Z</time>
      </trkpt>
      <trkpt lat="48.38633" lon="2.3904">
        <ele>66.81</ele>
        <time>2024-05-26T19:12:08.182Z</time>
      </trkpt>
      <trkpt lat="48.3861" lon="2.39046">
        <ele>66.87</ele>
        <time>2024-05-26T19:12:10.746Z</time>
      </trkpt>
      <trkpt lat="48.386" lon="2.39049">
        <ele>66.9</ele>
        <time>2024-05-26T19:12:13.312Z</time>
      </trkpt>
      <trkpt lat="48.38595" lon="2.3905">
        <ele>66.93</ele>
        <time>2024-05-26T19:12:15.879Z</time>
      </trkpt>
      <trkpt lat="48.38568" lon="2.39058">
        <ele>67</ele>
        <time>2024-05-26T19:12:18.452Z</time>
      </trkpt>
      <trkpt lat="48.38563" lon="2.39059">
        <ele>67.07</ele>
        <time>2024-05-26T19:12:21.026Z</time>
      </trkpt>
      <trkpt lat="48.38541" lon="2.39064">
        <ele>67.14</ele>
        <time>2024-05-26T19:12:23.604Z</time>
      </trkpt>
      <trkpt lat="48.38536" lon="2.39065">
        <ele>67.25</ele>
        <time>2024-05-26T19:12:26.183Z</time>
      </trkpt>
      <trkpt lat="48.38525" lon="2.39067">
        <ele>67.38</ele>
        <time>2024-05-26T19:12:28.764Z</time>
      </trkpt>
      <trkpt lat="48.38521" lon="2.3907">
        <ele>67.54</ele>
        <time>2024-05-26T19:12:31.346Z</time>
      </trkpt>
      <trkpt lat="48.38511" lon="2.39092">
        <ele>67.8</ele>
        <time>2024-05-26T19:12:33.932Z</time>
      </trkpt>
      <trkpt lat="48.3851" lon="2.39096">
        <ele>68.02</ele>
        <time>2024-05-26T19:12:36.518Z</time>
      </trkpt>
      <trkpt lat="48.38506" lon="2.39104">
        <ele>68.26</ele>
        <time>2024-05-26T19:12:39.106Z</time>
      </trkpt>
      <trkpt lat="48.38496" lon="2.39113">
        <ele>68.53</ele>
        <time>2024-05-26T19:12:41.696Z</time>
      </trkpt>
      <trkpt lat="48.38486" lon="2.39119">
        <ele>68.83</ele>
        <time>2024-05-26T19:12:44.288Z</time>
      </trkpt>
      <trkpt lat="48.38482" lon="2.3913">
        <ele>69.17</ele>
        <time>2024-05-26T19:12:46.882Z</time>
      </trkpt>
      <trkpt lat="48.38468" lon="2.39139">
        <ele>69.49</ele>
        <time>2024-05-26T19:12:49.479Z</time>
      </trkpt>
      <trkpt lat="48.38449" lon="2.39147">
        <ele>69.89</ele>
        <time>2024-05-26T19:12:52.080Z</time>
      </trkpt>
      <trkpt lat="48.38432" lon="2.39155">
        <ele>70.29</ele>
        <time>2024-05-26T19:12:54.684Z</time>
      </trkpt>
      <trkpt lat="48.38424" lon="2.39158">
        <ele>70.69</ele>
        <time>2024-05-26T19:12:57.290Z</time>
      </trkpt>
      <trkpt lat="48.38411" lon="2.39164">
        <ele>71.11</ele>
        <time>2024-05-26T19:12:59.899Z</time>
      </trkpt>
      <trkpt lat="48.38393" lon="2.39178">
        <ele>71.58</ele>
        <time>2024-05-26T19:13:02.512Z</time>
      </trkpt>
      <trkpt lat="48.38378" lon="2.39188">
        <ele>72.05</ele>
        <time>2024-05-26T19:13:05.128Z</time>
      </trkpt>
      <trkpt lat="48.38364" lon="2.39196">
        <ele>72.54</ele>
        <time>2024-05-26T19:13:07.747Z</time>
      </trkpt>
      <trkpt lat="48.38351" lon="2.39202">
        <ele>73.07</ele>
        <time>2024-05-26T19:13:10.369Z</time>
      </trkpt>
      <trkpt lat="48.3834" lon="2.39203">
        <ele>73.62</ele>
        <time>2024-05-26T19:13:12.993Z</time>
      </trkpt>
      <trkpt lat="48.38304" lon="2.39212">
        <ele>74.21</ele>
        <time>2024-05-26T19:13:15.624Z</time>
      </trkpt>
      <trkpt lat="48.38293" lon="2.39214">
        <ele>74.81</ele>
        <time>2024-05-26T19:13:18.258Z</time>
      </trkpt>
      <trkpt lat="48.38287" lon="2.39216">
        <ele>75.43</ele>
        <time>2024-05-26T19:13:20.893Z</time>
      </trkpt>
      <trkpt lat="48.38278" lon="2.39222">
        <ele>76.09</ele>
        <time>2024-05-26T19:13:23.530Z</time>
      </trkpt>
      <trkpt lat="48.38266" lon="2.39237">
        <ele>76.8</ele>
        <time>2024-05-26T19:13:26.170Z</time>
      </trkpt>
      <trkpt lat="48.38255" lon="2.3925">
        <ele>77.53</ele>
        <time>2024-05-26T19:13:28.813Z</time>
      </trkpt>
      <trkpt lat="48.3825" lon="2.39256">
        <ele>78.25</ele>
        <time>2024-05-26T19:13:31.457Z</time>
      </trkpt>
      <trkpt lat="48.38229" lon="2.39277">
        <ele>79.01</ele>
        <time>2024-05-26T19:13:34.106Z</time>
      </trkpt>
      <trkpt lat="48.38223" lon="2.39286">
        <ele>79.76</ele>
        <time>2024-05-26T19:13:36.757Z</time>
      </trkpt>
      <trkpt lat="48.38215" lon="2.39304">
        <ele>80.55</ele>
        <time>2024-05-26T19:13:39.411Z</time>
      </trkpt>
      <trkpt lat="48.38206" lon="2.39333">
        <ele>81.39</ele>
        <time>2024-05-26T19:13:42.069Z</time>
      </trkpt>
      <trkpt lat="48.38203" lon="2.3934">
        <ele>82.21</ele>
        <time>2024-05-26T19:13:44.728Z</time>
      </trkpt>
      <trkpt lat="48.38199" lon="2.39343">
        <ele>83.03</ele>
        <time>2024-05-26T19:13:47.388Z</time>
      </trkpt>
      <trkpt lat="48.38183" lon="2.39341">
        <ele>83.85</ele>
        <time>2024-05-26T19:13:50.051Z</time>
      </trkpt>
      <trkpt lat="48.38172" lon="2.39347">
        <ele>84.67</ele>
        <time>2024-05-26T19:13:52.717Z</time>
      </trkpt>
      <trkpt lat="48.38165" lon="2.39352">
        <ele>85.5</ele>
        <time>2024-05-26T19:13:55.384Z</time>
      </trkpt>
      <trkpt lat="48.38155" lon="2.39362">
        <ele>86.33</ele>
        <time>2024-05-26T19:13:58.053Z</time>
      </trkpt>
      <trkpt lat="48.38142" lon="2.3939">
        <ele>87.17</ele>
        <time>2024-05-26T19:14:00.727Z</time>
      </trkpt>
      <trkpt lat="48.38145" lon="2.39408">
        <ele>88.06</ele>
        <time>2024-05-26T19:14:03.403Z</time>
      </trkpt>
      <trkpt lat="48.38151" lon="2.39437">
        <ele>89</ele>
        <time>2024-05-26T19:14:06.083Z</time>
      </trkpt>
      <trkpt lat="48.38158" lon="2.3946">
        <ele>89.99</ele>
        <time>2024-05-26T19:14:08.767Z</time>
      </trkpt>
      <trkpt lat="48.38163" lon="2.39487">
        <ele>90.95</ele>
        <time>2024-05-26T19:14:11.455Z</time>
      </trkpt>
      <trkpt lat="48.38168" lon="2.39504">
        <ele>91.88</ele>
        <time>2024-05-26T19:14:14.145Z</time>
      </trkpt>
      <trkpt lat="48.38173" lon="2.39527">
        <ele>92.82</ele>
        <time>2024-05-26T19:14:16.838Z</time>
      </trkpt>
      <trkpt lat="48.3818" lon="2.3955">
        <ele>93.7</ele>
        <time>2024-05-26T19:14:19.535Z</time>
      </trkpt>
      <trkpt lat="48.3819" lon="2.39571">
        <ele>94.61</ele>
        <time>2024-05-26T19:14:22.235Z</time>
      </trkpt>
      <trkpt lat="48.38197" lon="2.39591">
        <ele>95.48</ele>
        <time>2024-05-26T19:14:24.938Z</time>
      </trkpt>
      <trkpt lat="48.38206" lon="2.39612">
        <ele>96.35</ele>
        <time>2024-05-26T19:14:27.644Z</time>
      </trkpt>
      <trkpt lat="48.38213" lon="2.39629">
        <ele>97.18</ele>
        <time>2024-05-26T19:14:30.353Z</time>
      </trkpt>
      <trkpt lat="48.38219" lon="2.39648">
        <ele>97.99</ele>
        <time>2024-05-26T19:14:33.065Z</time>
      </trkpt>
      <trkpt lat="48.38227" lon="2.39667">
        <ele>98.81</ele>
        <time>2024-05-26T19:14:35.780Z</time>
      </trkpt>
      <trkpt lat="48.38234" lon="2.39683">
        <ele>99.6</ele>
        <time>2024-05-26T19:14:38.497Z</time>
      </trkpt>
      <trkpt lat="48.38235" lon="2.39685">
        <ele>100.32</ele>
        <time>2024-05-26T19:14:41.215Z</time>
      </trkpt>
      <trkpt lat="48.38243" lon="2.39693">
        <ele>101.07</ele>
        <time>2024-05-26T19:14:43.935Z</time>
      </trkpt>
      <trkpt lat="48.38246" lon="2.39698">
        <ele>101.75</ele>
        <time>2024-05-26T19:14:46.656Z</time>
      </trkpt>
      <trkpt lat="48.38249" lon="2.39705">
        <ele>102.41</ele>
        <time>2024-05-26T19:14:49.378Z</time>
      </trkpt>
      <trkpt lat="48.38257" lon="2.39726">
        <ele>103.08</ele>
        <time>2024-05-26T19:14:52.103Z</time>
      </trkpt>
      <trkpt lat="48.38264" lon="2.39756">
        <ele>103.67</ele>
        <time>2024-05-26T19:14:54.832Z</time>
      </trkpt>
      <trkpt lat="48.38266" lon="2.39787">
        <ele>104.17</ele>
        <time>2024-05-26T19:14:57.565Z</time>
      </trkpt>
      <trkpt lat="48.38266" lon="2.39798">
        <ele>104.65</ele>
        <time>2024-05-26T19:15:00.300Z</time>
      </trkpt>
      <trkpt lat="48.38265" lon="2.39814">
        <ele>105.1</ele>
        <time>2024-05-26T19:15:03.037Z</time>
      </trkpt>
      <trkpt lat="48.38266" lon="2.39823">
        <ele>105.54</ele>
        <time>2024-05-26T19:15:05.775Z</time>
      </trkpt>
      <trkpt lat="48.3827" lon="2.39845">
        <ele>106</ele>
        <time>2024-05-26T19:15:08.516Z</time>
      </trkpt>
      <trkpt lat="48.38271" lon="2.39869">
        <ele>106.4</ele>
        <time>2024-05-26T19:15:11.260Z</time>
      </trkpt>
      <trkpt lat="48.38273" lon="2.39874">
        <ele>106.79</ele>
        <time>2024-05-26T19:15:14.005Z</time>
      </trkpt>
      <trkpt lat="48.38274" lon="2.3988">
        <ele>107.15</ele>
        <time>2024-05-26T19:15:16.751Z</time>
      </trkpt>
      <trkpt lat="48.38278" lon="2.39902">
        <ele>107.49</ele>
        <time>2024-05-26T19:15:19.500Z</time>
      </trkpt>
      <trkpt lat="48.38284" lon="2.39923">
        <ele>107.83</ele>
        <time>2024-05-26T19:15:22.252Z</time>
      </trkpt>
      <trkpt lat="48.38285" lon="2.39936">
        <ele>108.12</ele>
        <time>2024-05-26T19:15:25.006Z</time>
      </trkpt>
      <trkpt lat="48.38285" lon="2.39947">
        <ele>108.37</ele>
        <time>2024-05-26T19:15:27.761Z</time>
      </trkpt>
      <trkpt lat="48.38281" lon="2.39953">
        <ele>108.6</ele>
        <time>2024-05-26T19:15:30.517Z</time>
      </trkpt>
      <trkpt lat="48.38275" lon="2.39967">
        <ele>108.78</ele>
        <time>2024-05-26T19:15:33.276Z</time>
      </trkpt>
      <trkpt lat="48.38272" lon="2.39986">
        <ele>108.99</ele>
        <time>2024-05-26T19:15:36.037Z</time>
      </trkpt>
      <trkpt lat="48.38275" lon="2.40017">
        <ele>109.24</ele>
        <time>2024-05-26T19:15:38.802Z</time>
      </trkpt>
      <trkpt lat="48.38281" lon="2.40041">
        <ele>109.48</ele>
        <time>2024-05-26T19:15:41.571Z</time>
      </trkpt>
      <trkpt lat="48.38288" lon="2.40055">
        <ele>109.74</ele>
        <time>2024-05-26T19:15:44.342Z</time>
      </trkpt>
      <trkpt lat="48.38289" lon="2.40058">
        <ele>109.95</ele>
        <time>2024-05-26T19:15:47.114Z</time>
      </trkpt>
      <trkpt lat="48.38291" lon="2.40065">
        <ele>110.16</ele>
        <time>2024-05-26T19:15:49.887Z</time>
      </trkpt>
      <trkpt lat="48.3829" lon="2.4008">
        <ele>110.36</ele>
        <time>2024-05-26T19:15:52.662Z</time>
      </trkpt>
      <trkpt lat="48.3829" lon="2.40086">
        <ele>110.55</ele>
        <time>2024-05-26T19:15:55.437Z</time>
      </trkpt>
      <trkpt lat="48.38288" lon="2.40091">
        <ele>110.74</ele>
        <time>2024-05-26T19:15:58.213Z</time>
      </trkpt>
      <trkpt lat="48.38282" lon="2.40122">
        <ele>110.96</ele>
        <time>2024-05-26T19:16:00.993Z</time>
      </trkpt>
      <trkpt lat="48.38277" lon="2.40162">
        <ele>111.24</ele>
        <time>2024-05-26T19:16:03.779Z</time>
      </trkpt>
      <trkpt lat="48.38274" lon="2.4018">
        <ele>111.47</ele>
        <time>2024-05-26T19:16:06.567Z</time>
      </trkpt>
      <trkpt lat="48.38272" lon="2.40185">
        <ele>111.69</ele>
        <time>2024-05-26T19:16:09.356Z</time>
      </trkpt>
      <trkpt lat="48.38262" lon="2.40186">
        <ele>111.92</ele>
        <time>2024-05-26T19:16:12.147Z</time>
      </trkpt>
      <trkpt lat="48.38249" lon="2.4018">
        <ele>112.15</ele>
        <time>2024-05-26T19:16:14.941Z</time>
      </trkpt>
      <trkpt lat="48.38247" lon="2.40176">
        <ele>112.38</ele>
        <time>2024-05-26T19:16:17.735Z</time>
      </trkpt>
      <trkpt lat="48.38244" lon="2.4016">
        <ele>112.6</ele>
        <time>2024-05-26T19:16:20.532Z</time>
      </trkpt>
      <trkpt lat="48.38242" lon="2.40156">
        <ele>112.84</ele>
        <time>2024-05-26T19:16:23.329Z</time>
      </trkpt>
      <trkpt lat="48.38237" lon="2.40146">
        <ele>113.1</ele>
        <time>2024-05-26T19:16:26.128Z</time>
      </trkpt>
      <trkpt lat="48.38233" lon="2.40141">
        <ele>113.36</ele>
        <time>2024-05-26T19:16:28.928Z</time>
      </trkpt>
      <trkpt lat="48.38229" lon="2.40127">
        <ele>113.63</ele>
        <time>2024-05-26T19:16:31.730Z</time>
      </trkpt>
      <trkpt lat="48.38228" lon="2.40124">
        <ele>113.91</ele>
        <time>2024-05-26T19:16:34.533Z</time>
      </trkpt>
      <trkpt lat="48.38225" lon="2.40122">
        <ele>114.21</ele>
        <time>2024-05-26T19:16:37.336Z</time>
      </trkpt>
      <trkpt lat="48.38222" lon="2.40117">
        <ele>114.52</ele>
        <time>2024-05-26T19:16:40.140Z</time>
      </trkpt>
      <trkpt lat="48.38218" lon="2.40107">
        <ele>114.83</ele>
        <time>2024-05-26T19:16:42.946Z</time>
      </trkpt>
      <trkpt lat="48.38212" lon="2.4008">
        <ele>115.16</ele>
        <time>2024-05-26T19:16:45.755Z</time>
      </trkpt>
      <trkpt lat="48.38202" lon="2.4006">
        <ele>115.5</ele>
        <time>2024-05-26T19:16:48.568Z</time>
      </trkpt>
      <trkpt lat="48.38182" lon="2.40043">
        <ele>115.85</ele>
        <time>2024-05-26T19:16:51.385Z</time>
      </trkpt>
      <trkpt lat="48.38164" lon="2.40026">
        <ele>116.16</ele>
        <time>2024-05-26T19:16:54.207Z</time>
      </trkpt>
      <trkpt lat="48.3815" lon="2.40021">
        <ele>116.53</ele>
        <time>2024-05-26T19:16:57.031Z</time>
      </trkpt>
      <trkpt lat="48.38141" lon="2.4002">
        <ele>116.9</ele>
        <time>2024-05-26T19:16:59.857Z</time>
      </trkpt>
      <trkpt lat="48.38126" lon="2.40022">
        <ele>117.33</ele>
        <time>2024-05-26T19:17:02.686Z</time>
      </trkpt>
      <trkpt lat="48.3812" lon="2.40022">
        <ele>117.7</ele>
        <time>2024-05-26T19:17:05.516Z</time>
      </trkpt>
      <trkpt lat="48.38105" lon="2.40008">
        <ele>118.07</ele>
        <time>2024-05-26T19:17:08.350Z</time>
      </trkpt>
      <trkpt lat="48.38087" lon="2.39993">
        <ele>118.41</ele>
        <time>2024-05-26T19:17:11.188Z</time>
      </trkpt>
      <trkpt lat="48.3808" lon="2.39984">
        <ele>118.72</ele>
        <time>2024-05-26T19:17:14.028Z</time>
      </trkpt>
      <trkpt lat="48.38068" lon="2.3997">
        <ele>119.04</ele>
        <time>2024-05-26T19:17:16.871Z</time>
      </trkpt>
      <trkpt lat="48.38055" lon="2.39955">
        <ele>119.36</ele>
        <time>2024-05-26T19:17:19.717Z</time>
      </trkpt>
      <trkpt lat="48.3805" lon="2.39944">
        <ele>119.68</ele>
        <time>2024-05-26T19:17:22.565Z</time>
      </trkpt>
      <trkpt lat="48.38044" lon="2.39927">
        <ele>119.96</ele>
        <time>2024-05-26T19:17:25.416Z</time>
      </trkpt>
      <trkpt lat="48.38038" lon="2.39904">
        <ele>120.23</ele>
        <time>2024-05-26T19:17:28.270Z</time>
      </trkpt>
      <trkpt lat="48.38025" lon="2.39877">
        <ele>120.54</ele>
        <time>2024-05-26T19:17:31.128Z</time>
      </trkpt>
      <trkpt lat="48.38021" lon="2.39873">
        <ele>120.85</ele>
        <time>2024-05-26T19:17:33.987Z</time>
      </trkpt>
      <trkpt lat="48.38015" lon="2.3987">
        <ele>121.17</ele>
        <time>2024-05-26T19:17:36.848Z</time>
      </trkpt>
      <trkpt lat="48.38003" lon="2.39863">
        <ele>121.5</ele>
        <time>2024-05-26T19:17:39.711Z</time>
      </trkpt>
      <trkpt lat="48.37995" lon="2.39859">
        <ele>121.8</ele>
        <time>2024-05-26T19:17:42.576Z</time>
      </trkpt>
      <trkpt lat="48.37994" lon="2.39859">
        <ele>122.02</ele>
        <time>2024-05-26T19:17:45.441Z</time>
      </trkpt>
      <trkpt lat="48.37983" lon="2.39857">
        <ele>122.25</ele>
        <time>2024-05-26T19:17:48.308Z</time>
      </trkpt>
      <trkpt lat="48.37979" lon="2.39857">
        <ele>122.43</ele>
        <time>2024-05-26T19:17:51.176Z</time>
      </trkpt>
      <trkpt lat="48.37974" lon="2.39859">
        <ele>122.59</ele>
        <time>2024-05-26T19:17:54.045Z</time>
      </trkpt>
      <trkpt lat="48.37972" lon="2.39859">
        <ele>122.7</ele>
        <time>2024-05-26T19:17:56.914Z</time>
      </trkpt>
      <trkpt lat="48.37968" lon="2.39862">
        <ele>122.78</ele>
        <time>2024-05-26T19:17:59.784Z</time>
      </trkpt>
      <trkpt lat="48.3796" lon="2.39867">
        <ele>122.83</ele>
        <time>2024-05-26T19:18:02.656Z</time>
      </trkpt>
      <trkpt lat="48.37953" lon="2.39872">
        <ele>122.84</ele>
        <time>2024-05-26T19:18:05.530Z</time>
      </trkpt>
      <trkpt lat="48.37951" lon="2.39875">
        <ele>122.8</ele>
        <time>2024-05-26T19:18:08.404Z</time>
      </trkpt>
      <trkpt lat="48.37951" lon="2.39878">
        <ele>122.72</ele>
        <time>2024-05-26T19:18:11.279Z</time>
      </trkpt>
      <trkpt lat="48.37945" lon="2.39892">
        <ele>122.61</ele>
        <time>2024-05-26T19:18:14.156Z</time>
      </trkpt>
      <trkpt lat="48.37934" lon="2.39898">
        <ele>122.42</ele>
        <time>2024-05-26T19:18:17.035Z</time>
      </trkpt>
      <trkpt lat="48.37935" lon="2.39885">
        <ele>122.24</ele>
        <time>2024-05-26T19:18:19.916Z</time>
      </trkpt>
      <trkpt lat="48.37934" lon="2.3988">
        <ele>122</ele>
        <time>2024-05-26T19:18:22.797Z</time>
      </trkpt>
      <trkpt lat="48.37933" lon="2.39875">
        <ele>121.71</ele>
        <time>2024-05-26T19:18:25.679Z</time>
      </trkpt>
      <trkpt lat="48.3793" lon="2.39866">
        <ele>121.37</ele>
        <time>2024-05-26T19:18:28.563Z</time>
      </trkpt>
      <trkpt lat="48.37921" lon="2.39851">
        <ele>120.99</ele>
        <time>2024-05-26T19:18:31.449Z</time>
      </trkpt>
      <trkpt lat="48.3792" lon="2.39846">
        <ele>120.57</ele>
        <time>2024-05-26T19:18:34.336Z</time>
      </trkpt>
      <trkpt lat="48.37917" lon="2.39825">
        <ele>120.1</ele>
        <time>2024-05-26T19:18:37.226Z</time>
      </trkpt>
      <trkpt lat="48.37916" lon="2.39811">
        <ele>119.59</ele>
        <time>2024-05-26T19:18:40.118Z</time>
      </trkpt>
      <trkpt lat="48.37916" lon="2.39789">
        <ele>119.01</ele>
        <time>2024-05-26T19:18:43.013Z</time>
      </trkpt>
      <trkpt lat="48.37913" lon="2.39763">
        <ele>118.39</ele>
        <time>2024-05-26T19:18:45.911Z</time>
      </trkpt>
      <trkpt lat="48.379" lon="2.39736">
        <ele>117.73</ele>
        <time>2024-05-26T19:18:48.814Z</time>
      </trkpt>
      <trkpt lat="48.37897" lon="2.39731">
        <ele>117.08</ele>
        <time>2024-05-26T19:18:51.717Z</time>
      </trkpt>
      <trkpt lat="48.37891" lon="2.39725">
        <ele>116.4</ele>
        <time>2024-05-26T19:18:54.622Z</time>
      </trkpt>
      <trkpt lat="48.3788" lon="2.39699">
        <ele>115.62</ele>
        <time>2024-05-26T19:18:57.531Z</time>
      </trkpt>
      <trkpt lat="48.37869" lon="2.39687">
        <ele>114.83</ele>
        <time>2024-05-26T19:19:00.443Z</time>
      </trkpt>
      <trkpt lat="48.37865" lon="2.39676">
        <ele>114.04</ele>
        <time>2024-05-26T19:19:03.356Z</time>
      </trkpt>
      <trkpt lat="48.37868" lon="2.39666">
        <ele>113.27</ele>
        <time>2024-05-26T19:19:06.271Z</time>
      </trkpt>
      <trkpt lat="48.37872" lon="2.39639">
        <ele>112.41</ele>
        <time>2024-05-26T19:19:09.190Z</time>
      </trkpt>
      <trkpt lat="48.37871" lon="2.39624">
        <ele>111.54</ele>
        <time>2024-05-26T19:19:12.111Z</time>
      </trkpt>
      <trkpt lat="48.37867" lon="2.39605">
        <ele>110.65</ele>
        <time>2024-05-26T19:19:15.034Z</time>
      </trkpt>
      <trkpt lat="48.37868" lon="2.39596">
        <ele>109.81</ele>
        <time>2024-05-26T19:19:17.958Z</time>
      </trkpt>
      <trkpt lat="48.37867" lon="2.39588">
        <ele>108.96</ele>
        <time>2024-05-26T19:19:20.883Z</time>
      </trkpt>
      <trkpt lat="48.37867" lon="2.39585">
        <ele>108.13</ele>
        <time>2024-05-26T19:19:23.809Z</time>
      </trkpt>
      <trkpt lat="48.37865" lon="2.39584">
        <ele>107.31</ele>
        <time>2024-05-26T19:19:26.735Z</time>
      </trkpt>
      <trkpt lat="48.37863" lon="2.39582">
        <ele>106.47</ele>
        <time>2024-05-26T19:19:29.662Z</time>
      </trkpt>
      <trkpt lat="48.37859" lon="2.39576">
        <ele>105.61</ele>
        <time>2024-05-26T19:19:32.590Z</time>
      </trkpt>
      <trkpt lat="48.37856" lon="2.39573">
        <ele>104.78</ele>
        <time>2024-05-26T19:19:35.519Z</time>
      </trkpt>
      <trkpt lat="48.37855" lon="2.39572">
        <ele>103.96</ele>
        <time>2024-05-26T19:19:38.448Z</time>
      </trkpt>
      <trkpt lat="48.37855" lon="2.39573">
        <ele>103.16</ele>
        <time>2024-05-26T19:19:41.377Z</time>
      </trkpt>
      <trkpt lat="48.3786" lon="2.39578">
        <ele>102.4</ele>
        <time>2024-05-26T19:19:44.307Z</time>
      </trkpt>
      <trkpt lat="48.37861" lon="2.39576">
        <ele>101.59</ele>
        <time>2024-05-26T19:19:47.238Z</time>
      </trkpt>
      <trkpt lat="48.37863" lon="2.39577">
        <ele>100.8</ele>
        <time>2024-05-26T19:19:50.169Z</time>
      </trkpt>
      <trkpt lat="48.37862" lon="2.39576">
        <ele>100</ele>
        <time>2024-05-26T19:19:53.100Z</time>
      </trkpt>
      <trkpt lat="48.37861" lon="2.39572">
        <ele>99.19</ele>
        <time>2024-05-26T19:19:56.032Z</time>
      </trkpt>
      <trkpt lat="48.37862" lon="2.39573">
        <ele>98.4</ele>
        <time>2024-05-26T19:19:58.964Z</time>
      </trkpt>
      <trkpt lat="48.37861" lon="2.39572">
        <ele>97.6</ele>
        <time>2024-05-26T19:20:01.896Z</time>
      </trkpt>
      <trkpt lat="48.37865" lon="2.39568">
        <ele>96.8</ele>
        <time>2024-05-26T19:20:04.829Z</time>
      </trkpt>
      <trkpt lat="48.37868" lon="2.39565">
        <ele>96</ele>
        <time>2024-05-26T19:20:07.763Z</time>
      </trkpt>
      <trkpt lat="48.37869" lon="2.39566">
        <ele>95.21</ele>
        <time>2024-05-26T19:20:10.697Z</time>
      </trkpt>
      <trkpt lat="48.37873" lon="2.39567">
        <ele>94.43</ele>
        <time>2024-05-26T19:20:13.632Z</time>
      </trkpt>
      <trkpt lat="48.37874" lon="2.39567">
        <ele>93.63</ele>
        <time>2024-05-26T19:20:16.567Z</time>
      </trkpt>
      <trkpt lat="48.37875" lon="2.39567">
        <ele>92.83</ele>
        <time>2024-05-26T19:20:19.502Z</time>
      </trkpt>
      <trkpt lat="48.37881" lon="2.39567">
        <ele>92.03</ele>
        <time>2024-05-26T19:20:22.438Z</time>
      </trkpt>
      <trkpt lat="48.37882" lon="2.39567">
        <ele>91.23</ele>
        <time>2024-05-26T19:20:25.375Z</time>
      </trkpt>
      <trkpt lat="48.37885" lon="2.39558">
        <ele>90.36</ele>
        <time>2024-05-26T19:20:28.313Z</time>
      </trkpt>
      <trkpt lat="48.3789" lon="2.39549">
        <ele>89.49</ele>
        <time>2024-05-26T19:20:31.253Z</time>
      </trkpt>
      <trkpt lat="48.37892" lon="2.39547">
        <ele>88.66</ele>
        <time>2024-05-26T19:20:34.193Z</time>
      </trkpt>
      <trkpt lat="48.379" lon="2.39542">
        <ele>87.82</ele>
        <time>2024-05-26T19:20:37.135Z</time>
      </trkpt>
      <trkpt lat="48.37909" lon="2.3954">
        <ele>86.98</ele>
        <time>2024-05-26T19:20:40.079Z</time>
      </trkpt>
      <trkpt lat="48.37917" lon="2.39541">
        <ele>86.16</ele>
        <time>2024-05-26T19:20:43.024Z</time>
      </trkpt>
      <trkpt lat="48.37921" lon="2.3954">
        <ele>85.34</ele>
        <time>2024-05-26T19:20:45.970Z</time>
      </trkpt>
      <trkpt lat="48.37923" lon="2.39542">
        <ele>84.56</ele>
        <time>2024-05-26T19:20:48.917Z</time>
      </trkpt>
      <trkpt lat="48.37923" lon="2.39542">
        <ele>83.78</ele>
        <time>2024-05-26T19:20:51.864Z</time>
      </trkpt>
      <trkpt lat="48.37926" lon="2.39544">
        <ele>83.01</ele>
        <time>2024-05-26T19:20:54.811Z</time>
      </trkpt>
      <trkpt lat="48.37927" lon="2.39544">
        <ele>82.25</ele>
        <time>2024-05-26T19:20:57.759Z</time>
      </trkpt>
      <trkpt lat="48.37935" lon="2.39551">
        <ele>81.54</ele>
        <time>2024-05-26T19:21:00.708Z</time>
      </trkpt>
      <trkpt lat="48.37946" lon="2.3955">
        <ele>80.75</ele>
        <time>2024-05-26T19:21:03.660Z</time>
      </trkpt>
      <trkpt lat="48.37949" lon="2.39549">
        <ele>80.01</ele>
        <time>2024-05-26T19:21:06.612Z</time>
      </trkpt>
      <trkpt lat="48.37966" lon="2.39543">
        <ele>79.15</ele>
        <time>2024-05-26T19:21:09.568Z</time>
      </trkpt>
      <trkpt lat="48.3797" lon="2.39543">
        <ele>78.48</ele>
        <time>2024-05-26T19:21:12.525Z</time>
      </trkpt>
      <trkpt lat="48.37975" lon="2.39541">
        <ele>77.84</ele>
        <time>2024-05-26T19:21:15.482Z</time>
      </trkpt>
      <trkpt lat="48.37975" lon="2.39537">
        <ele>77.26</ele>
        <time>2024-05-26T19:21:18.440Z</time>
      </trkpt>
      <trkpt lat="48.37975" lon="2.39533">
        <ele>76.74</ele>
        <time>2024-05-26T19:21:21.399Z</time>
      </trkpt>
      <trkpt lat="48.37974" lon="2.39531">
        <ele>76.26</ele>
        <time>2024-05-26T19:21:24.358Z</time>
      </trkpt>
      <trkpt lat="48.37968" lon="2.39514">
        <ele>75.81</ele>
        <time>2024-05-26T19:21:27.319Z</time>
      </trkpt>
      <trkpt lat="48.37957" lon="2.39488">
        <ele>75.37</ele>
        <time>2024-05-26T19:21:30.284Z</time>
      </trkpt>
      <trkpt lat="48.37951" lon="2.39472">
        <ele>75.04</ele>
        <time>2024-05-26T19:21:33.252Z</time>
      </trkpt>
      <trkpt lat="48.37943" lon="2.3945">
        <ele>74.76</ele>
        <time>2024-05-26T19:21:36.223Z</time>
      </trkpt>
      <trkpt lat="48.3794" lon="2.39447">
        <ele>74.58</ele>
        <time>2024-05-26T19:21:39.195Z</time>
      </trkpt>
      <trkpt lat="48.37938" lon="2.39445">
        <ele>74.47</ele>
        <time>2024-05-26T19:21:42.168Z</time>
      </trkpt>
      <trkpt lat="48.37926" lon="2.39432">
        <ele>74.42</ele>
        <time>2024-05-26T19:21:45.144Z</time>
      </trkpt>
      <trkpt lat="48.37913" lon="2.3941">
        <ele>74.45</ele>
        <time>2024-05-26T19:21:48.123Z</time>
      </trkpt>
      <trkpt lat="48.37894" lon="2.39381">
        <ele>74.57</ele>
        <time>2024-05-26T19:21:51.108Z</time>
      </trkpt>
      <trkpt lat="48.37873" lon="2.39357">
        <ele>74.72</ele>
        <time>2024-05-26T19:21:54.098Z</time>
      </trkpt>
      <trkpt lat="48.37854" lon="2.39344">
        <ele>74.92</ele>
        <time>2024-05-26T19:21:57.092Z</time>
      </trkpt>
      <trkpt lat="48.37835" lon="2.3934">
        <ele>75.22</ele>
        <time>2024-05-26T19:22:00.090Z</time>
      </trkpt>
      <trkpt lat="48.37813" lon="2.39337">
        <ele>75.64</ele>
        <time>2024-05-26T19:22:03.093Z</time>
      </trkpt>
      <trkpt lat="48.37796" lon="2.39345">
        <ele>76.14</ele>
        <time>2024-05-26T19:22:06.099Z</time>
      </trkpt>
      <trkpt lat="48.37779" lon="2.39373">
        <ele>76.78</ele>
        <time>2024-05-26T19:22:09.110Z</time>
      </trkpt>
      <trkpt lat="48.37759" lon="2.39414">
        <ele>77.45</ele>
        <time>2024-05-26T19:22:12.128Z</time>
      </trkpt>
      <trkpt lat="48.37745" lon="2.39449">
        <ele>78.23</ele>
        <time>2024-05-26T19:22:15.151Z</time>
      </trkpt>
      <trkpt lat="48.37734" lon="2.39488">
        <ele>79.04</ele>
        <time>2024-05-26T19:22:18.180Z</time>
      </trkpt>
      <trkpt lat="48.37728" lon="2.39525">
        <ele>79.91</ele>
        <time>2024-05-26T19:22:21.214Z</time>
      </trkpt>
      <trkpt lat="48.37731" lon="2.39549">
        <ele>80.85</ele>
        <time>2024-05-26T19:22:24.251Z</time>
      </trkpt>
      <trkpt lat="48.3774" lon="2.39577">
        <ele>81.85</ele>
        <time>2024-05-26T19:22:27.293Z</time>
      </trkpt>
      <trkpt lat="48.37753" lon="2.396">
        <ele>82.96</ele>
        <time>2024-05-26T19:22:30.338Z</time>
      </trkpt>
      <trkpt lat="48.37761" lon="2.39625">
        <ele>84.13</ele>
        <time>2024-05-26T19:22:33.387Z</time>
      </trkpt>
      <trkpt lat="48.37767" lon="2.39638">
        <ele>85.32</ele>
        <time>2024-05-26T19:22:36.438Z</time>
      </trkpt>
      <trkpt lat="48.37768" lon="2.3964">
        <ele>86.51</ele>
        <time>2024-05-26T19:22:39.490Z</time>
      </trkpt>
      <trkpt lat="48.37774" lon="2.39651">
        <ele>87.78</ele>
        <time>2024-05-26T19:22:42.544Z</time>
      </trkpt>
      <trkpt lat="48.3778" lon="2.39673">
        <ele>89.1</ele>
        <time>2024-05-26T19:22:45.601Z</time>
      </trkpt>
      <trkpt lat="48.3779" lon="2.39704">
        <ele>90.53</ele>
        <time>2024-05-26T19:22:48.662Z</time>
      </trkpt>
      <trkpt lat="48.37798" lon="2.3973">
        <ele>91.96</ele>
        <time>2024-05-26T19:22:51.727Z</time>
      </trkpt>
      <trkpt lat="48.37805" lon="2.39761">
        <ele>93.4</ele>
        <time>2024-05-26T19:22:54.797Z</time>
      </trkpt>
      <trkpt lat="48.37808" lon="2.39794">
        <ele>94.84</ele>
        <time>2024-05-26T19:22:57.871Z</time>
      </trkpt>
      <trkpt lat="48.37812" lon="2.39821">
        <ele>96.25</ele>
        <time>2024-05-26T19:23:00.949Z</time>
      </trkpt>
      <trkpt lat="48.37818" lon="2.39846">
        <ele>97.65</ele>
        <time>2024-05-26T19:23:04.030Z</time>
      </trkpt>
      <trkpt lat="48.37822" lon="2.3987">
        <ele>99.07</ele>
        <time>2024-05-26T19:23:07.114Z</time>
      </trkpt>
      <trkpt lat="48.37823" lon="2.39894">
        <ele>100.47</ele>
        <time>2024-05-26T19:23:10.202Z</time>
      </trkpt>
      <trkpt lat="48.37822" lon="2.39927">
        <ele>101.84</ele>
        <time>2024-05-26T19:23:13.294Z</time>
      </trkpt>
      <trkpt lat="48.37823" lon="2.39944">
        <ele>103.18</ele>
        <time>2024-05-26T19:23:16.388Z</time>
      </trkpt>
      <trkpt lat="48.37825" lon="2.39961">
        <ele>104.48</ele>
        <time>2024-05-26T19:23:19.485Z</time>
      </trkpt>
      <trkpt lat="48.37829" lon="2.39981">
        <ele>105.78</ele>
        <time>2024-05-26T19:23:22.585Z</time>
      </trkpt>
      <trkpt lat="48.37833" lon="2.39995">
        <ele>107.05</ele>
        <time>2024-05-26T19:23:25.686Z</time>
      </trkpt>
      <trkpt lat="48.37841" lon="2.40023">
        <ele>108.31</ele>
        <time>2024-05-26T19:23:28.792Z</time>
      </trkpt>
      <trkpt lat="48.37844" lon="2.40032">
        <ele>109.51</ele>
        <time>2024-05-26T19:23:31.899Z</time>
      </trkpt>
      <trkpt lat="48.37856" lon="2.40066">
        <ele>110.7</ele>
        <time>2024-05-26T19:23:35.011Z</time>
      </trkpt>
      <trkpt lat="48.37866" lon="2.40101">
        <ele>111.82</ele>
        <time>2024-05-26T19:23:38.128Z</time>
      </trkpt>
      <trkpt lat="48.37867" lon="2.40106">
        <ele>112.88</ele>
        <time>2024-05-26T19:23:41.246Z</time>
      </trkpt>
      <trkpt lat="48.37871" lon="2.40136">
        <ele>113.93</ele>
        <time>2024-05-26T19:23:44.368Z</time>
      </trkpt>
      <trkpt lat="48.37876" lon="2.4016">
        <ele>114.93</ele>
        <time>2024-05-26T19:23:47.493Z</time>
      </trkpt>
      <trkpt lat="48.37878" lon="2.40173">
        <ele>115.89</ele>
        <time>2024-05-26T19:23:50.620Z</time>
      </trkpt>
      <trkpt lat="48.37882" lon="2.40214">
        <ele>116.82</ele>
        <time>2024-05-26T19:23:53.753Z</time>
      </trkpt>
      <trkpt lat="48.37883" lon="2.40222">
        <ele>117.67</ele>
        <time>2024-05-26T19:23:56.887Z</time>
      </trkpt>
      <trkpt lat="48.37884" lon="2.40235">
        <ele>118.46</ele>
        <time>2024-05-26T19:24:00.022Z</time>
      </trkpt>
      <trkpt lat="48.3789" lon="2.40259">
        <ele>119.2</ele>
        <time>2024-05-26T19:24:03.161Z</time>
      </trkpt>
      <trkpt lat="48.37893" lon="2.40265">
        <ele>119.91</ele>
        <time>2024-05-26T19:24:06.301Z</time>
      </trkpt>
      <trkpt lat="48.37898" lon="2.40276">
        <ele>120.58</ele>
        <time>2024-05-26T19:24:09.443Z</time>
      </trkpt>
      <trkpt lat="48.3791" lon="2.40294">
        <ele>121.22</ele>
        <time>2024-05-26T19:24:12.588Z</time>
      </trkpt>
      <trkpt lat="48.37936" lon="2.40331">
        <ele>121.8</ele>
        <time>2024-05-26T19:24:15.740Z</time>
      </trkpt>
      <trkpt lat="48.37939" lon="2.40336">
        <ele>122.36</ele>
        <time>2024-05-26T19:24:18.893Z</time>
      </trkpt>
      <trkpt lat="48.37969" lon="2.40382">
        <ele>122.93</ele>
        <time>2024-05-26T19:24:22.055Z</time>
      </trkpt>
      <trkpt lat="48.37999" lon="2.4042">
        <ele>123.41</ele>
        <time>2024-05-26T19:24:25.224Z</time>
      </trkpt>
      <trkpt lat="48.38045" lon="2.40462">
        <ele>123.84</ele>
        <time>2024-05-26T19:24:28.404Z</time>
      </trkpt>
      <trkpt lat="48.38063" lon="2.4048">
        <ele>124.26</ele>
        <time>2024-05-26T19:24:31.589Z</time>
      </trkpt>
      <trkpt lat="48.3807" lon="2.40493">
        <ele>124.64</ele>
        <time>2024-05-26T19:24:34.776Z</time>
      </trkpt>
      <trkpt lat="48.38072" lon="2.40499">
        <ele>124.99</ele>
        <time>2024-05-26T19:24:37.964Z</time>
      </trkpt>
      <trkpt lat="48.38086" lon="2.40521">
        <ele>125.35</ele>
        <time>2024-05-26T19:24:41.156Z</time>
      </trkpt>
      <trkpt lat="48.3809" lon="2.40525">
        <ele>125.64</ele>
        <time>2024-05-26T19:24:44.349Z</time>
      </trkpt>
      <trkpt lat="48.38097" lon="2.40534">
        <ele>125.9</ele>
        <time>2024-05-26T19:24:47.544Z</time>
      </trkpt>
      <trkpt lat="48.38103" lon="2.40546">
        <ele>126.13</ele>
        <time>2024-05-26T19:24:50.740Z</time>
      </trkpt>
      <trkpt lat="48.38108" lon="2.40559">
        <ele>126.34</ele>
        <time>2024-05-26T19:24:53.938Z</time>
      </trkpt>
      <trkpt lat="48.38122" lon="2.406">
        <ele>126.52</ele>
        <time>2024-05-26T19:24:57.143Z</time>
      </trkpt>
      <trkpt lat="48.38148" lon="2.40672">
        <ele>126.72</ele>
        <time>2024-05-26T19:25:00.359Z</time>
      </trkpt>
      <trkpt lat="48.38166" lon="2.40725">
        <ele>126.86</ele>
        <time>2024-05-26T19:25:03.582Z</time>
      </trkpt>
      <trkpt lat="48.38171" lon="2.4074">
        <ele>126.98</ele>
        <time>2024-05-26T19:25:06.808Z</time>
      </trkpt>
      <trkpt lat="48.38193" lon="2.40807">
        <ele>127.1</ele>
        <time>2024-05-26T19:25:10.044Z</time>
      </trkpt>
      <trkpt lat="48.38206" lon="2.40844">
        <ele>127.23</ele>
        <time>2024-05-26T19:25:13.285Z</time>
      </trkpt>
      <trkpt lat="48.38216" lon="2.40874">
        <ele>127.34</ele>
        <time>2024-05-26T19:25:16.531Z</time>
      </trkpt>
      <trkpt lat="48.38241" lon="2.4095">
        <ele>127.48</ele>
        <time>2024-05-26T19:25:19.788Z</time>
      </trkpt>
      <trkpt lat="48.38261" lon="2.4101">
        <ele>127.55</ele>
        <time>2024-05-26T19:25:23.054Z</time>
      </trkpt>
      <trkpt lat="48.38265" lon="2.41015">
        <ele>127.61</ele>
        <time>2024-05-26T19:25:26.321Z</time>
      </trkpt>
      <trkpt lat="48.3828" lon="2.41013">
        <ele>127.63</ele>
        <time>2024-05-26T19:25:29.591Z</time>
      </trkpt>
      <trkpt lat="48.38285" lon="2.41011">
        <ele>127.67</ele>
        <time>2024-05-26T19:25:32.862Z</time>
      </trkpt>
      <trkpt lat="48.38327" lon="2.40987">
        <ele>127.69</ele>
        <time>2024-05-26T19:25:36.142Z</time>
      </trkpt>
      <trkpt lat="48.38367" lon="2.40965">
        <ele>127.67</ele>
        <time>2024-05-26T19:25:39.431Z</time>
      </trkpt>
      <trkpt lat="48.38374" lon="2.40962">
        <ele>127.71</ele>
        <time>2024-05-26T19:25:42.721Z</time>
      </trkpt>
      <trkpt lat="48.38429" lon="2.40933">
        <ele>127.72</ele>
        <time>2024-05-26T19:25:46.023Z</time>
      </trkpt>
      <trkpt lat="48.38448" lon="2.40924">
        <ele>127.76</ele>
        <time>2024-05-26T19:25:49.329Z</time>
      </trkpt>
      <trkpt lat="48.38485" lon="2.40905">
        <ele>127.79</ele>
        <time>2024-05-26T19:25:52.643Z</time>
      </trkpt>
      <trkpt lat="48.38509" lon="2.40893">
        <ele>127.83</ele>
        <time>2024-05-26T19:25:55.962Z</time>
      </trkpt>
      <trkpt lat="48.38555" lon="2.40866">
        <ele>127.85</ele>
        <time>2024-05-26T19:25:59.290Z</time>
      </trkpt>
      <trkpt lat="48.38575" lon="2.40853">
        <ele>127.96</ele>
        <time>2024-05-26T19:26:02.623Z</time>
      </trkpt>
      <trkpt lat="48.38601" lon="2.4084">
        <ele>128.08</ele>
        <time>2024-05-26T19:26:05.961Z</time>
      </trkpt>
      <trkpt lat="48.38641" lon="2.40821">
        <ele>128.2</ele>
        <time>2024-05-26T19:26:09.308Z</time>
      </trkpt>
      <trkpt lat="48.38679" lon="2.40802">
        <ele>128.43</ele>
        <time>2024-05-26T19:26:12.663Z</time>
      </trkpt>
      <trkpt lat="48.38684" lon="2.40801">
        <ele>128.57</ele>
        <time>2024-05-26T19:26:16.019Z</time>
      </trkpt>
      <trkpt lat="48.38693" lon="2.40797">
        <ele>128.74</ele>
        <time>2024-05-26T19:26:19.377Z</time>
      </trkpt>
      <trkpt lat="48.38696" lon="2.40793">
        <ele>128.89</ele>
        <time>2024-05-26T19:26:22.736Z</time>
      </trkpt>
      <trkpt lat="48.38699" lon="2.40774">
        <ele>129.08</ele>
        <time>2024-05-26T19:26:26.097Z</time>
      </trkpt>
      <trkpt lat="48.38699" lon="2.40767">
        <ele>129.24</ele>
        <time>2024-05-26T19:26:29.459Z</time>
      </trkpt>
      <trkpt lat="48.38694" lon="2.40723">
        <ele>129.43</ele>
        <time>2024-05-26T19:26:32.827Z</time>
      </trkpt>
      <trkpt lat="48.38693" lon="2.40716">
        <ele>129.6</ele>
        <time>2024-05-26T19:26:36.196Z</time>
      </trkpt>
      <trkpt lat="48.38687" lon="2.40669">
        <ele>129.8</ele>
        <time>2024-05-26T19:26:39.571Z</time>
      </trkpt>
      <trkpt lat="48.38679" lon="2.40612">
        <ele>129.94</ele>
        <time>2024-05-26T19:26:42.954Z</time>
      </trkpt>
      <trkpt lat="48.38676" lon="2.40595">
        <ele>130.1</ele>
        <time>2024-05-26T19:26:46.339Z</time>
      </trkpt>
      <trkpt lat="48.38669" lon="2.4055">
        <ele>130.24</ele>
        <time>2024-05-26T19:26:49.731Z</time>
      </trkpt>
      <trkpt lat="48.38667" lon="2.40543">
        <ele>130.42</ele>
        <time>2024-05-26T19:26:53.124Z</time>
      </trkpt>
      <trkpt lat="48.38658" lon="2.4051">
        <ele>130.63</ele>
        <time>2024-05-26T19:26:56.521Z</time>
      </trkpt>
      <trkpt lat="48.38658" lon="2.40495">
        <ele>130.83</ele>
        <time>2024-05-26T19:26:59.920Z</time>
      </trkpt>
      <trkpt lat="48.38657" lon="2.40488">
        <ele>131.03</ele>
        <time>2024-05-26T19:27:03.320Z</time>
      </trkpt>
      <trkpt lat="48.38656" lon="2.40482">
        <ele>131.22</ele>
        <time>2024-05-26T19:27:06.721Z</time>
      </trkpt>
      <trkpt lat="48.38654" lon="2.40469">
        <ele>131.41</ele>
        <time>2024-05-26T19:27:10.124Z</time>
      </trkpt>
      <trkpt lat="48.38656" lon="2.40449">
        <ele>131.61</ele>
        <time>2024-05-26T19:27:13.530Z</time>
      </trkpt>
      <trkpt lat="48.3866" lon="2.40427">
        <ele>131.82</ele>
        <time>2024-05-26T19:27:16.939Z</time>
      </trkpt>
      <trkpt lat="48.38658" lon="2.40408">
        <ele>132.01</ele>
        <time>2024-05-26T19:27:20.350Z</time>
      </trkpt>
      <trkpt lat="48.38657" lon="2.40401">
        <ele>132.21</ele>
        <time>2024-05-26T19:27:23.762Z</time>
      </trkpt>
      <trkpt lat="48.38656" lon="2.40394">
        <ele>132.41</ele>
        <time>2024-05-26T19:27:27.175Z</time>
      </trkpt>
      <trkpt lat="48.38655" lon="2.40382">
        <ele>132.61</ele>
        <time>2024-05-26T19:27:30.590Z</time>
      </trkpt>
      <trkpt lat="48.38652" lon="2.40347">
        <ele>132.79</ele>
        <time>2024-05-26T19:27:34.009Z</time>
      </trkpt>
      <trkpt lat="48.38649" lon="2.40316">
        <ele>132.95</ele>
        <time>2024-05-26T19:27:37.433Z</time>
      </trkpt>
      <trkpt lat="48.3865" lon="2.40313">
        <ele>133.12</ele>
        <time>2024-05-26T19:27:40.857Z</time>
      </trkpt>
      <trkpt lat="48.38655" lon="2.4031">
        <ele>133.3</ele>
        <time>2024-05-26T19:27:44.282Z</time>
      </trkpt>
      <trkpt lat="48.38663" lon="2.40309">
        <ele>133.47</ele>
        <time>2024-05-26T19:27:47.709Z</time>
      </trkpt>
      <trkpt lat="48.38672" lon="2.40308">
        <ele>133.65</ele>
        <time>2024-05-26T19:27:51.138Z</time>
      </trkpt>
      <trkpt lat="48.38686" lon="2.40305">
        <ele>133.83</ele>
        <time>2024-05-26T19:27:54.569Z</time>
      </trkpt>
      <trkpt lat="48.38692" lon="2.40303">
        <ele>133.99</ele>
        <time>2024-05-26T19:27:58.002Z</time>
      </trkpt>
      <trkpt lat="48.38711" lon="2.40299">
        <ele>134.11</ele>
        <time>2024-05-26T19:28:01.438Z</time>
      </trkpt>
      <trkpt lat="48.38715" lon="2.40299">
        <ele>134.23</ele>
        <time>2024-05-26T19:28:04.875Z</time>
      </trkpt>
      <trkpt lat="48.38732" lon="2.40298">
        <ele>134.33</ele>
        <time>2024-05-26T19:28:08.316Z</time>
      </trkpt>
      <trkpt lat="48.38735" lon="2.40298">
        <ele>134.43</ele>
        <time>2024-05-26T19:28:11.757Z</time>
      </trkpt>
      <trkpt lat="48.38754" lon="2.40294">
        <ele>134.5</ele>
        <time>2024-05-26T19:28:15.202Z</time>
      </trkpt>
      <trkpt lat="48.38757" lon="2.40293">
        <ele>134.56</ele>
        <time>2024-05-26T19:28:18.648Z</time>
      </trkpt>
      <trkpt lat="48.38759" lon="2.40293">
        <ele>134.61</ele>
        <time>2024-05-26T19:28:22.094Z</time>
      </trkpt>
      <trkpt lat="48.38767" lon="2.40294">
        <ele>134.65</ele>
        <time>2024-05-26T19:28:25.542Z</time>
      </trkpt>
      <trkpt lat="48.38772" lon="2.40295">
        <ele>134.67</ele>
        <time>2024-05-26T19:28:28.991Z</time>
      </trkpt>
      <trkpt lat="48.38778" lon="2.40295">
        <ele>134.68</ele>
        <time>2024-05-26T19:28:32.441Z</time>
      </trkpt>
      <trkpt lat="48.38781" lon="2.40294">
        <ele>134.66</ele>
        <time>2024-05-26T19:28:35.892Z</time>
      </trkpt>
      <trkpt lat="48.38787" lon="2.40292">
        <ele>134.63</ele>
        <time>2024-05-26T19:28:39.344Z</time>
      </trkpt>
      <trkpt lat="48.38795" lon="2.40288">
        <ele>134.58</ele>
        <time>2024-05-26T19:28:42.798Z</time>
      </trkpt>
      <trkpt lat="48.38803" lon="2.40286">
        <ele>134.51</ele>
        <time>2024-05-26T19:28:46.253Z</time>
      </trkpt>
      <trkpt lat="48.38808" lon="2.40288">
        <ele>134.42</ele>
        <time>2024-05-26T19:28:49.709Z</time>
      </trkpt>
      <trkpt lat="48.3882" lon="2.40291">
        <ele>134.31</ele>
        <time>2024-05-26T19:28:53.168Z</time>
      </trkpt>
      <trkpt lat="48.38829" lon="2.40292">
        <ele>134.17</ele>
        <time>2024-05-26T19:28:56.628Z</time>
      </trkpt>
      <trkpt lat="48.3885" lon="2.4029">
        <ele>134.03</ele>
        <time>2024-05-26T19:29:00.093Z</time>
      </trkpt>
      <trkpt lat="48.3886" lon="2.40288">
        <ele>133.85</ele>
        <time>2024-05-26T19:29:03.560Z</time>
      </trkpt>
      <trkpt lat="48.38877" lon="2.40285">
        <ele>133.6</ele>
        <time>2024-05-26T19:29:07.030Z</time>
      </trkpt>
      <trkpt lat="48.38882" lon="2.40285">
        <ele>133.35</ele>
        <time>2024-05-26T19:29:10.501Z</time>
      </trkpt>
      <trkpt lat="48.38893" lon="2.40287">
        <ele>133.08</ele>
        <time>2024-05-26T19:29:13.974Z</time>
      </trkpt>
      <trkpt lat="48.38896" lon="2.40289">
        <ele>132.8</ele>
        <time>2024-05-26T19:29:17.448Z</time>
      </trkpt>
      <trkpt lat="48.38905" lon="2.40292">
        <ele>132.49</ele>
        <time>2024-05-26T19:29:20.924Z</time>
      </trkpt>
      <trkpt lat="48.38908" lon="2.40292">
        <ele>132.17</ele>
        <time>2024-05-26T19:29:24.400Z</time>
      </trkpt>
      <trkpt lat="48.38932" lon="2.40291">
        <ele>131.81</ele>
        <time>2024-05-26T19:29:27.881Z</time>
      </trkpt>
      <trkpt lat="48.38938" lon="2.40293">
        <ele>131.45</ele>
        <time>2024-05-26T19:29:31.363Z</time>
      </trkpt>
      <trkpt lat="48.38956" lon="2.40295">
        <ele>131.06</ele>
        <time>2024-05-26T19:29:34.849Z</time>
      </trkpt>
      <trkpt lat="48.38965" lon="2.40294">
        <ele>130.67</ele>
        <time>2024-05-26T19:29:38.337Z</time>
      </trkpt>
      <trkpt lat="48.38975" lon="2.40292">
        <ele>130.26</ele>
        <time>2024-05-26T19:29:41.827Z</time>
      </trkpt>
      <trkpt lat="48.38996" lon="2.40289">
        <ele>129.8</ele>
        <time>2024-05-26T19:29:45.321Z</time>
      </trkpt>
      <trkpt lat="48.39014" lon="2.40283">
        <ele>129.34</ele>
        <time>2024-05-26T19:29:48.819Z</time>
      </trkpt>
      <trkpt lat="48.39021" lon="2.40281">
        <ele>128.92</ele>
        <time>2024-05-26T19:29:52.318Z</time>
      </trkpt>
      <trkpt lat="48.39041" lon="2.40273">
        <ele>128.45</ele>
        <time>2024-05-26T19:29:55.821Z</time>
      </trkpt>
      <trkpt lat="48.3906" lon="2.40267">
        <ele>127.98</ele>
        <time>2024-05-26T19:29:59.328Z</time>
      </trkpt>
      <trkpt lat="48.3908" lon="2.40264">
        <ele>127.5</ele>
        <time>2024-05-26T19:30:02.839Z</time>
      </trkpt>
      <trkpt lat="48.39087" lon="2.40265">
        <ele>127.06</ele>
        <time>2024-05-26T19:30:06.352Z</time>
      </trkpt>
      <trkpt lat="48.39093" lon="2.40268">
        <ele>126.64</ele>
        <time>2024-05-26T19:30:09.866Z</time>
      </trkpt>
      <trkpt lat="48.39096" lon="2.40268">
        <ele>126.22</ele>
        <time>2024-05-26T19:30:13.381Z</time>
      </trkpt>
      <trkpt lat="48.39103" lon="2.40266">
        <ele>125.8</ele>
        <time>2024-05-26T19:30:16.897Z</time>
      </trkpt>
      <trkpt lat="48.39115" lon="2.40263">
        <ele>125.39</ele>
        <time>2024-05-26T19:30:20.415Z</time>
      </trkpt>
      <trkpt lat="48.39135" lon="2.40253">
        <ele>124.98</ele>
        <time>2024-05-26T19:30:23.938Z</time>
      </trkpt>
      <trkpt lat="48.39138" lon="2.40248">
        <ele>124.6</ele>
        <time>2024-05-26T19:30:27.461Z</time>
      </trkpt>
      <trkpt lat="48.39139" lon="2.40228">
        <ele>124.2</ele>
        <time>2024-05-26T19:30:30.987Z</time>
      </trkpt>
      <trkpt lat="48.3914" lon="2.40199">
        <ele>123.83</ele>
        <time>2024-05-26T19:30:34.517Z</time>
      </trkpt>
      <trkpt lat="48.39135" lon="2.40179">
        <ele>123.48</ele>
        <time>2024-05-26T19:30:38.050Z</time>
      </trkpt>
      <trkpt lat="48.39132" lon="2.40162">
        <ele>123.13</ele>
        <time>2024-05-26T19:30:41.585Z</time>
      </trkpt>
      <trkpt lat="48.39123" lon="2.40128">
        <ele>122.74</ele>
        <time>2024-05-26T19:30:45.125Z</time>
      </trkpt>
      <trkpt lat="48.3912" lon="2.40114">
        <ele>122.43</ele>
        <time>2024-05-26T19:30:48.667Z</time>
      </trkpt>
      <trkpt lat="48.39116" lon="2.4009">
        <ele>122.14</ele>
        <time>2024-05-26T19:30:52.212Z</time>
      </trkpt>
      <trkpt lat="48.3911" lon="2.40049">
        <ele>121.88</ele>
        <time>2024-05-26T19:30:55.763Z</time>
      </trkpt>
      <trkpt lat="48.391" lon="2.39999">
        <ele>121.64</ele>
        <time>2024-05-26T19:30:59.321Z</time>
      </trkpt>
      <trkpt lat="48.39096" lon="2.3998">
        <ele>121.35</ele>
        <time>2024-05-26T19:31:02.881Z</time>
      </trkpt>
      <trkpt lat="48.39091" lon="2.39955">
        <ele>121.07</ele>
        <time>2024-05-26T19:31:06.445Z</time>
      </trkpt>
      <trkpt lat="48.39085" lon="2.39935">
        <ele>120.79</ele>
        <time>2024-05-26T19:31:10.012Z</time>
      </trkpt>
      <trkpt lat="48.39078" lon="2.39916">
        <ele>120.52</ele>
        <time>2024-05-26T19:31:13.582Z</time>
      </trkpt>
      <trkpt lat="48.39077" lon="2.3991">
        <ele>120.25</ele>
        <time>2024-05-26T19:31:17.153Z</time>
      </trkpt>
      <trkpt lat="48.39071" lon="2.39883">
        <ele>119.98</ele>
        <time>2024-05-26T19:31:20.727Z</time>
      </trkpt>
      <trkpt lat="48.39063" lon="2.39847">
        <ele>119.74</ele>
        <time>2024-05-26T19:31:24.307Z</time>
      </trkpt>
      <trkpt lat="48.39055" lon="2.39813">
        <ele>119.48</ele>
        <time>2024-05-26T19:31:27.891Z</time>
      </trkpt>
      <trkpt lat="48.39053" lon="2.39807">
        <ele>119.19</ele>
        <time>2024-05-26T19:31:31.476Z</time>
      </trkpt>
      <trkpt lat="48.39043" lon="2.39777">
        <ele>118.85</ele>
        <time>2024-05-26T19:31:35.066Z</time>
      </trkpt>
      <trkpt lat="48.39035" lon="2.39746">
        <ele>118.55</ele>
        <time>2024-05-26T19:31:38.660Z</time>
      </trkpt>
      <trkpt lat="48.39017" lon="2.39719">
        <ele>118.26</ele>
        <time>2024-05-26T19:31:42.259Z</time>
      </trkpt>
      <trkpt lat="48.39006" lon="2.39698">
        <ele>117.92</ele>
        <time>2024-05-26T19:31:45.862Z</time>
      </trkpt>
      <trkpt lat="48.38994" lon="2.3968">
        <ele>117.58</ele>
        <time>2024-05-26T19:31:49.468Z</time>
      </trkpt>
      <trkpt lat="48.38987" lon="2.39661">
        <ele>117.23</ele>
        <time>2024-05-26T19:31:53.077Z</time>
      </trkpt>
      <trkpt lat="48.38987" lon="2.39653">
        <ele>116.85</ele>
        <time>2024-05-26T19:31:56.687Z</time>
      </trkpt>
      <trkpt lat="48.38995" lon="2.39621">
        <ele>116.41</ele>
        <time>2024-05-26T19:32:00.302Z</time>
      </trkpt>
      <trkpt lat="48.39013" lon="2.39601">
        <ele>115.97</ele>
        <time>2024-05-26T19:32:03.921Z</time>
      </trkpt>
      <trkpt lat="48.39023" lon="2.39597">
        <ele>115.53</ele>
        <time>2024-05-26T19:32:07.542Z</time>
      </trkpt>
      <trkpt lat="48.39027" lon="2.39597">
        <ele>115.1</ele>
        <time>2024-05-26T19:32:11.164Z</time>
      </trkpt>
      <trkpt lat="48.39031" lon="2.39597">
        <ele>114.67</ele>
        <time>2024-05-26T19:32:14.787Z</time>
      </trkpt>
      <trkpt lat="48.39034" lon="2.39598">
        <ele>114.22</ele>
        <time>2024-05-26T19:32:18.411Z</time>
      </trkpt>
      <trkpt lat="48.39042" lon="2.396">
        <ele>113.76</ele>
        <time>2024-05-26T19:32:22.036Z</time>
      </trkpt>
      <trkpt lat="48.39042" lon="2.39594">
        <ele>113.24</ele>
        <time>2024-05-26T19:32:25.662Z</time>
      </trkpt>
      <trkpt lat="48.39043" lon="2.39588">
        <ele>112.71</ele>
        <time>2024-05-26T19:32:29.289Z</time>
      </trkpt>
      <trkpt lat="48.39041" lon="2.39579">
        <ele>112.13</ele>
        <time>2024-05-26T19:32:32.917Z</time>
      </trkpt>
      <trkpt lat="48.39028" lon="2.39571">
        <ele>111.52</ele>
        <time>2024-05-26T19:32:36.548Z</time>
      </trkpt>
      <trkpt lat="48.39025" lon="2.39571">
        <ele>110.98</ele>
        <time>2024-05-26T19:32:40.179Z</time>
      </trkpt>
      <trkpt lat="48.39017" lon="2.3957">
        <ele>110.41</ele>
        <time>2024-05-26T19:32:43.812Z</time>
      </trkpt>
      <trkpt lat="48.39015" lon="2.39568">
        <ele>109.83</ele>
        <time>2024-05-26T19:32:47.446Z</time>
      </trkpt>
      <trkpt lat="48.39013" lon="2.39561">
        <ele>109.2</ele>
        <time>2024-05-26T19:32:51.081Z</time>
      </trkpt>
      <trkpt lat="48.39014" lon="2.39557">
        <ele>108.59</ele>
        <time>2024-05-26T19:32:54.716Z</time>
      </trkpt>
      <trkpt lat="48.39016" lon="2.39548">
        <ele>107.93</ele>
        <time>2024-05-26T19:32:58.352Z</time>
      </trkpt>
      <trkpt lat="48.39017" lon="2.39544">
        <ele>107.31</ele>
        <time>2024-05-26T19:33:01.989Z</time>
      </trkpt>
      <trkpt lat="48.39017" lon="2.39544">
        <ele>106.73</ele>
        <time>2024-05-26T19:33:05.626Z</time>
      </trkpt>
      <trkpt lat="48.39016" lon="2.39542">
        <ele>106.12</ele>
        <time>2024-05-26T19:33:09.263Z</time>
      </trkpt>
      <trkpt lat="48.39015" lon="2.39542">
        <ele>105.53</ele>
        <time>2024-05-26T19:33:12.900Z</time>
      </trkpt>
      <trkpt lat="48.39015" lon="2.39543">
        <ele>104.94</ele>
        <time>2024-05-26T19:33:16.538Z</time>
      </trkpt>
      <trkpt lat="48.39015" lon="2.39542">
        <ele>104.34</ele>
        <time>2024-05-26T19:33:20.176Z</time>
      </trkpt>
      <trkpt lat="48.39015" lon="2.39542">
        <ele>103.75</ele>
        <time>2024-05-26T19:33:23.814Z</time>
      </trkpt>
      <trkpt lat="48.39015" lon="2.3954">
        <ele>103.14</ele>
        <time>2024-05-26T19:33:27.452Z</time>
      </trkpt>
      <trkpt lat="48.39016" lon="2.39537">
        <ele>102.5</ele>
        <time>2024-05-26T19:33:31.090Z</time>
      </trkpt>
      <trkpt lat="48.39017" lon="2.39532">
        <ele>101.86</ele>
        <time>2024-05-26T19:33:34.729Z</time>
      </trkpt>
      <trkpt lat="48.3901" lon="2.39524">
        <ele>101.18</ele>
        <time>2024-05-26T19:33:38.370Z</time>
      </trkpt>
      <trkpt lat="48.3901" lon="2.3952">
        <ele>100.56</ele>
        <time>2024-05-26T19:33:42.011Z</time>
      </trkpt>
      <trkpt lat="48.3901" lon="2.39519">
        <ele>99.97</ele>
        <time>2024-05-26T19:33:45.653Z</time>
      </trkpt>
      <trkpt lat="48.39009" lon="2.39515">
        <ele>99.36</ele>
        <time>2024-05-26T19:33:49.295Z</time>
      </trkpt>
      <trkpt lat="48.39008" lon="2.39515">
        <ele>98.77</ele>
        <time>2024-05-26T19:33:52.937Z</time>
      </trkpt>
      <trkpt lat="48.39008" lon="2.39516">
        <ele>98.2</ele>
        <time>2024-05-26T19:33:56.579Z</time>
      </trkpt>
      <trkpt lat="48.39008" lon="2.39514">
        <ele>97.6</ele>
        <time>2024-05-26T19:34:00.222Z</time>
      </trkpt>
      <trkpt lat="48.39013" lon="2.39514">
        <ele>97</ele>
        <time>2024-05-26T19:34:03.866Z</time>
      </trkpt>
      <trkpt lat="48.39015" lon="2.39513">
        <ele>96.41</ele>
        <time>2024-05-26T19:34:07.510Z</time>
      </trkpt>
      <trkpt lat="48.39021" lon="2.39514">
        <ele>95.82</ele>
        <time>2024-05-26T19:34:11.155Z</time>
      </trkpt>
      <trkpt lat="48.39036" lon="2.39516">
        <ele>95.26</ele>
        <time>2024-05-26T19:34:14.803Z</time>
      </trkpt>
      <trkpt lat="48.39043" lon="2.39515">
        <ele>94.69</ele>
        <time>2024-05-26T19:34:18.453Z</time>
      </trkpt>
      <trkpt lat="48.3907" lon="2.39519">
        <ele>94.09</ele>
        <time>2024-05-26T19:34:22.108Z</time>
      </trkpt>
      <trkpt lat="48.39088" lon="2.39525">
        <ele>93.5</ele>
        <time>2024-05-26T19:34:25.767Z</time>
      </trkpt>
      <trkpt lat="48.39093" lon="2.39528">
        <ele>92.88</ele>
        <time>2024-05-26T19:34:29.427Z</time>
      </trkpt>
      <trkpt lat="48.39097" lon="2.3953">
        <ele>92.27</ele>
        <time>2024-05-26T19:34:33.088Z</time>
      </trkpt>
      <trkpt lat="48.39108" lon="2.39541">
        <ele>91.67</ele>
        <time>2024-05-26T19:34:36.751Z</time>
      </trkpt>
      <trkpt lat="48.39117" lon="2.39549">
        <ele>91.05</ele>
        <time>2024-05-26T19:34:40.416Z</time>
      </trkpt>
      <trkpt lat="48.39129" lon="2.39563">
        <ele>90.41</ele>
        <time>2024-05-26T19:34:44.084Z</time>
      </trkpt>
      <trkpt lat="48.39141" lon="2.39578">
        <ele>89.74</ele>
        <time>2024-05-26T19:34:47.756Z</time>
      </trkpt>
      <trkpt lat="48.39151" lon="2.39593">
        <ele>89.08</ele>
        <time>2024-05-26T19:34:51.430Z</time>
      </trkpt>
      <trkpt lat="48.39161" lon="2.39615">
        <ele>88.43</ele>
        <time>2024-05-26T19:34:55.108Z</time>
      </trkpt>
      <trkpt lat="48.3917" lon="2.39628">
        <ele>87.7</ele>
        <time>2024-05-26T19:34:58.788Z</time>
      </trkpt>
      <trkpt lat="48.39179" lon="2.39639">
        <ele>86.96</ele>
        <time>2024-05-26T19:35:02.471Z</time>
      </trkpt>
      <trkpt lat="48.39185" lon="2.39644">
        <ele>86.24</ele>
        <time>2024-05-26T19:35:06.155Z</time>
      </trkpt>
      <trkpt lat="48.39193" lon="2.39642">
        <ele>85.5</ele>
        <time>2024-05-26T19:35:09.841Z</time>
      </trkpt>
      <trkpt lat="48.39197" lon="2.39623">
        <ele>84.79</ele>
        <time>2024-05-26T19:35:13.529Z</time>
      </trkpt>
      <trkpt lat="48.39199" lon="2.39614">
        <ele>84.11</ele>
        <time>2024-05-26T19:35:17.219Z</time>
      </trkpt>
      <trkpt lat="48.39206" lon="2.396">
        <ele>83.38</ele>
        <time>2024-05-26T19:35:20.911Z</time>
      </trkpt>
      <trkpt lat="48.39215" lon="2.39603">
        <ele>82.7</ele>
        <time>2024-05-26T19:35:24.605Z</time>
      </trkpt>
      <trkpt lat="48.39223" lon="2.39615">
        <ele>82.03</ele>
        <time>2024-05-26T19:35:28.301Z</time>
      </trkpt>
      <trkpt lat="48.39231" lon="2.39628">
        <ele>81.36</ele>
        <time>2024-05-26T19:35:32.000Z</time>
      </trkpt>
      <trkpt lat="48.39237" lon="2.39641">
        <ele>80.71</ele>
        <time>2024-05-26T19:35:35.701Z</time>
      </trkpt>
      <trkpt lat="48.39241" lon="2.39653">
        <ele>80.08</ele>
        <time>2024-05-26T19:35:39.403Z</time>
      </trkpt>
      <trkpt lat="48.39245" lon="2.39665">
        <ele>79.47</ele>
        <time>2024-05-26T19:35:43.107Z</time>
      </trkpt>
      <trkpt lat="48.39246" lon="2.39677">
        <ele>78.86</ele>
        <time>2024-05-26T19:35:46.813Z</time>
      </trkpt>
      <trkpt lat="48.39245" lon="2.39693">
        <ele>78.3</ele>
        <time>2024-05-26T19:35:50.521Z</time>
      </trkpt>
      <trkpt lat="48.3925" lon="2.39713">
        <ele>77.75</ele>
        <time>2024-05-26T19:35:54.232Z</time>
      </trkpt>
      <trkpt lat="48.39252" lon="2.39722">
        <ele>77.25</ele>
        <time>2024-05-26T19:35:57.944Z</time>
      </trkpt>
      <trkpt lat="48.3925" lon="2.39735">
        <ele>76.83</ele>
        <time>2024-05-26T19:36:01.658Z</time>
      </trkpt>
      <trkpt lat="48.39249" lon="2.39758">
        <ele>76.45</ele>
        <time>2024-05-26T19:36:05.375Z</time>
      </trkpt>
      <trkpt lat="48.39254" lon="2.3977">
        <ele>76.01</ele>
        <time>2024-05-26T19:36:09.094Z</time>
      </trkpt>
      <trkpt lat="48.39257" lon="2.39777">
        <ele>75.61</ele>
        <time>2024-05-26T19:36:12.814Z</time>
      </trkpt>
      <trkpt lat="48.39259" lon="2.39784">
        <ele>75.23</ele>
        <time>2024-05-26T19:36:16.535Z</time>
      </trkpt>
      <trkpt lat="48.39262" lon="2.39805">
        <ele>74.88</ele>
        <time>2024-05-26T19:36:20.259Z</time>
      </trkpt>
      <trkpt lat="48.39261" lon="2.39809">
        <ele>74.56</ele>
        <time>2024-05-26T19:36:23.983Z</time>
      </trkpt>
      <trkpt lat="48.39257" lon="2.39812">
        <ele>74.29</ele>
        <time>2024-05-26T19:36:27.708Z</time>
      </trkpt>
      <trkpt lat="48.39248" lon="2.39829">
        <ele>74.04</ele>
        <time>2024-05-26T19:36:31.436Z</time>
      </trkpt>
      <trkpt lat="48.39244" lon="2.39862">
        <ele>73.79</ele>
        <time>2024-05-26T19:36:35.168Z</time>
      </trkpt>
      <trkpt lat="48.3924" lon="2.39891">
        <ele>73.58</ele>
        <time>2024-05-26T19:36:38.905Z</time>
      </trkpt>
      <trkpt lat="48.39234" lon="2.39917">
        <ele>73.41</ele>
        <time>2024-05-26T19:36:42.645Z</time>
      </trkpt>
      <trkpt lat="48.39234" lon="2.39926">
        <ele>73.27</ele>
        <time>2024-05-26T19:36:46.386Z</time>
      </trkpt>
      <trkpt lat="48.39235" lon="2.39933">
        <ele>73.14</ele>
        <time>2024-05-26T19:36:50.128Z</time>
      </trkpt>
      <trkpt lat="48.39238" lon="2.39936">
        <ele>73.02</ele>
        <time>2024-05-26T19:36:53.871Z</time>
      </trkpt>
      <trkpt lat="48.39247" lon="2.39938">
        <ele>72.87</ele>
        <time>2024-05-26T19:36:57.616Z</time>
      </trkpt>
      <trkpt lat="48.39254" lon="2.39942">
        <ele>72.81</ele>
        <time>2024-05-26T19:37:01.362Z</time>
      </trkpt>
      <trkpt lat="48.39263" lon="2.3995">
        <ele>72.79</ele>
        <time>2024-05-26T19:37:05.110Z</time>
      </trkpt>
      <trkpt lat="48.39276" lon="2.39959">
        <ele>72.8</ele>
        <time>2024-05-26T19:37:08.861Z</time>
      </trkpt>
      <trkpt lat="48.39279" lon="2.39959">
        <ele>72.84</ele>
        <time>2024-05-26T19:37:12.613Z</time>
      </trkpt>
      <trkpt lat="48.3929" lon="2.39963">
        <ele>72.91</ele>
        <time>2024-05-26T19:37:16.367Z</time>
      </trkpt>
      <trkpt lat="48.39293" lon="2.39966">
        <ele>73.03</ele>
        <time>2024-05-26T19:37:20.122Z</time>
      </trkpt>
      <trkpt lat="48.39305" lon="2.3997">
        <ele>73.18</ele>
        <time>2024-05-26T19:37:23.879Z</time>
      </trkpt>
      <trkpt lat="48.39309" lon="2.39972">
        <ele>73.38</ele>
        <time>2024-05-26T19:37:27.637Z</time>
      </trkpt>
      <trkpt lat="48.39332" lon="2.39979">
        <ele>73.61</ele>
        <time>2024-05-26T19:37:31.400Z</time>
      </trkpt>
      <trkpt lat="48.39344" lon="2.3999">
        <ele>73.88</ele>
        <time>2024-05-26T19:37:35.166Z</time>
      </trkpt>
      <trkpt lat="48.39347" lon="2.39994">
        <ele>74.21</ele>
        <time>2024-05-26T19:37:38.932Z</time>
      </trkpt>
      <trkpt lat="48.39348" lon="2.39997">
        <ele>74.59</ele>
        <time>2024-05-26T19:37:42.699Z</time>
      </trkpt>
      <trkpt lat="48.39351" lon="2.4001">
        <ele>75.02</ele>
        <time>2024-05-26T19:37:46.468Z</time>
      </trkpt>
      <trkpt lat="48.39356" lon="2.40017">
        <ele>75.48</ele>
        <time>2024-05-26T19:37:50.238Z</time>
      </trkpt>
      <trkpt lat="48.39357" lon="2.40018">
        <ele>76</ele>
        <time>2024-05-26T19:37:54.008Z</time>
      </trkpt>
      <trkpt lat="48.39363" lon="2.40029">
        <ele>76.57</ele>
        <time>2024-05-26T19:37:57.780Z</time>
      </trkpt>
      <trkpt lat="48.39364" lon="2.40035">
        <ele>77.19</ele>
        <time>2024-05-26T19:38:01.553Z</time>
      </trkpt>
      <trkpt lat="48.39365" lon="2.40039">
        <ele>77.86</ele>
        <time>2024-05-26T19:38:05.327Z</time>
      </trkpt>
      <trkpt lat="48.39367" lon="2.40052">
        <ele>78.6</ele>
        <time>2024-05-26T19:38:09.103Z</time>
      </trkpt>
      <trkpt lat="48.39367" lon="2.40056">
        <ele>79.36</ele>
        <time>2024-05-26T19:38:12.879Z</time>
      </trkpt>
      <trkpt lat="48.39366" lon="2.40062">
        <ele>80.18</ele>
        <time>2024-05-26T19:38:16.656Z</time>
      </trkpt>
      <trkpt lat="48.39367" lon="2.40065">
        <ele>81.04</ele>
        <time>2024-05-26T19:38:20.433Z</time>
      </trkpt>
      <trkpt lat="48.39363" lon="2.40082">
        <ele>81.99</ele>
        <time>2024-05-26T19:38:24.213Z</time>
      </trkpt>
      <trkpt lat="48.39363" lon="2.40086">
        <ele>82.92</ele>
        <time>2024-05-26T19:38:27.993Z</time>
      </trkpt>
      <trkpt lat="48.3936" lon="2.40092">
        <ele>83.93</ele>
        <time>2024-05-26T19:38:31.774Z</time>
      </trkpt>
      <trkpt lat="48.39355" lon="2.40099">
        <ele>84.97</ele>
        <time>2024-05-26T19:38:35.556Z</time>
      </trkpt>
      <trkpt lat="48.39339" lon="2.40118">
        <ele>86.1</ele>
        <time>2024-05-26T19:38:39.343Z</time>
      </trkpt>
      <trkpt lat="48.39327" lon="2.40135">
        <ele>87.25</ele>
        <time>2024-05-26T19:38:43.133Z</time>
      </trkpt>
      <trkpt lat="48.39319" lon="2.4015">
        <ele>88.38</ele>
        <time>2024-05-26T19:38:46.925Z</time>
      </trkpt>
      <trkpt lat="48.39312" lon="2.4016">
        <ele>89.55</ele>
        <time>2024-05-26T19:38:50.719Z</time>
      </trkpt>
      <trkpt lat="48.3931" lon="2.40163">
        <ele>90.7</ele>
        <time>2024-05-26T19:38:54.514Z</time>
      </trkpt>
      <trkpt lat="48.39303" lon="2.40174">
        <ele>91.92</ele>
        <time>2024-05-26T19:38:58.311Z</time>
      </trkpt>
      <trkpt lat="48.39302" lon="2.40176">
        <ele>93.1</ele>
        <time>2024-05-26T19:39:02.108Z</time>
      </trkpt>
      <trkpt lat="48.39288" lon="2.40192">
        <ele>94.4</ele>
        <time>2024-05-26T19:39:05.909Z</time>
      </trkpt>
      <trkpt lat="48.39276" lon="2.4021">
        <ele>95.72</ele>
        <time>2024-05-26T19:39:09.713Z</time>
      </trkpt>
      <trkpt lat="48.39266" lon="2.40222">
        <ele>97.03</ele>
        <time>2024-05-26T19:39:13.520Z</time>
      </trkpt>
      <trkpt lat="48.39264" lon="2.40223">
        <ele>98.22</ele>
        <time>2024-05-26T19:39:17.327Z</time>
      </trkpt>
      <trkpt lat="48.39258" lon="2.40235">
        <ele>99.48</ele>
        <time>2024-05-26T19:39:21.136Z</time>
      </trkpt>
      <trkpt lat="48.39255" lon="2.40252">
        <ele>100.7</ele>
        <time>2024-05-26T19:39:24.947Z</time>
      </trkpt>
      <trkpt lat="48.39257" lon="2.40268">
        <ele>101.87</ele>
        <time>2024-05-26T19:39:28.761Z</time>
      </trkpt>
      <trkpt lat="48.39257" lon="2.40283">
        <ele>103.02</ele>
        <time>2024-05-26T19:39:32.577Z</time>
      </trkpt>
      <trkpt lat="48.39258" lon="2.40303">
        <ele>104.15</ele>
        <time>2024-05-26T19:39:36.395Z</time>
      </trkpt>
      <trkpt lat="48.39262" lon="2.40325">
        <ele>105.24</ele>
        <time>2024-05-26T19:39:40.216Z</time>
      </trkpt>
      <trkpt lat="48.39266" lon="2.40346">
        <ele>106.32</ele>
        <time>2024-05-26T19:39:44.040Z</time>
      </trkpt>
      <trkpt lat="48.39272" lon="2.40372">
        <ele>107.37</ele>
        <time>2024-05-26T19:39:47.868Z</time>
      </trkpt>
      <trkpt lat="48.39277" lon="2.40401">
        <ele>108.39</ele>
        <time>2024-05-26T19:39:51.700Z</time>
      </trkpt>
      <trkpt lat="48.39278" lon="2.40427">
        <ele>109.38</ele>
        <time>2024-05-26T19:39:55.535Z</time>
      </trkpt>
      <trkpt lat="48.3928" lon="2.40458">
        <ele>110.33</ele>
        <time>2024-05-26T19:39:59.375Z</time>
      </trkpt>
      <trkpt lat="48.39277" lon="2.40487">
        <ele>111.27</ele>
        <time>2024-05-26T19:40:03.219Z</time>
      </trkpt>
      <trkpt lat="48.39265" lon="2.40524">
        <ele>112.21</ele>
        <time>2024-05-26T19:40:07.068Z</time>
      </trkpt>
      <trkpt lat="48.39241" lon="2.40564">
        <ele>113.11</ele>
        <time>2024-05-26T19:40:10.924Z</time>
      </trkpt>
      <trkpt lat="48.39227" lon="2.40588">
        <ele>114.01</ele>
        <time>2024-05-26T19:40:14.784Z</time>
      </trkpt>
      <trkpt lat="48.39216" lon="2.40608">
        <ele>114.87</ele>
        <time>2024-05-26T19:40:18.648Z</time>
      </trkpt>
      <trkpt lat="48.39211" lon="2.40615">
        <ele>115.65</ele>
        <time>2024-05-26T19:40:22.513Z</time>
      </trkpt>
      <trkpt lat="48.39202" lon="2.40639">
        <ele>116.4</ele>
        <time>2024-05-26T19:40:26.382Z</time>
      </trkpt>
      <trkpt lat="48.39198" lon="2.40654">
        <ele>117.1</ele>
        <time>2024-05-26T19:40:30.253Z</time>
      </trkpt>
      <trkpt lat="48.39195" lon="2.40665">
        <ele>117.76</ele>
        <time>2024-05-26T19:40:34.126Z</time>
      </trkpt>
      <trkpt lat="48.39192" lon="2.40691">
        <ele>118.36</ele>
        <time>2024-05-26T19:40:38.002Z</time>
      </trkpt>
      <trkpt lat="48.39191" lon="2.40702">
        <ele>118.94</ele>
        <time>2024-05-26T19:40:41.880Z</time>
      </trkpt>
      <trkpt lat="48.39191" lon="2.40737">
        <ele>119.52</ele>
        <time>2024-05-26T19:40:45.762Z</time>
      </trkpt>
      <trkpt lat="48.39195" lon="2.40755">
        <ele>120.05</ele>
        <time>2024-05-26T19:40:49.647Z</time>
      </trkpt>
      <trkpt lat="48.39199" lon="2.40768">
        <ele>120.54</ele>
        <time>2024-05-26T19:40:53.534Z</time>
      </trkpt>
      <trkpt lat="48.39211" lon="2.40806">
        <ele>120.99</ele>
        <time>2024-05-26T19:40:57.426Z</time>
      </trkpt>
      <trkpt lat="48.39214" lon="2.40813">
        <ele>121.42</ele>
        <time>2024-05-26T19:41:01.320Z</time>
      </trkpt>
      <trkpt lat="48.39219" lon="2.4083">
        <ele>121.8</ele>
        <time>2024-05-26T19:41:05.216Z</time>
      </trkpt>
      <trkpt lat="48.39225" lon="2.40851">
        <ele>122.22</ele>
        <time>2024-05-26T19:41:09.115Z</time>
      </trkpt>
      <trkpt lat="48.39238" lon="2.40888">
        <ele>122.64</ele>
        <time>2024-05-26T19:41:13.020Z</time>
      </trkpt>
      <trkpt lat="48.39241" lon="2.40894">
        <ele>122.98</ele>
        <time>2024-05-26T19:41:16.926Z</time>
      </trkpt>
      <trkpt lat="48.39252" lon="2.40937">
        <ele>123.36</ele>
        <time>2024-05-26T19:41:20.838Z</time>
      </trkpt>
      <trkpt lat="48.39257" lon="2.40947">
        <ele>123.64</ele>
        <time>2024-05-26T19:41:24.751Z</time>
      </trkpt>
      <trkpt lat="48.39266" lon="2.40959">
        <ele>123.9</ele>
        <time>2024-05-26T19:41:28.667Z</time>
      </trkpt>
      <trkpt lat="48.39281" lon="2.40989">
        <ele>124.1</ele>
        <time>2024-05-26T19:41:32.588Z</time>
      </trkpt>
      <trkpt lat="48.39297" lon="2.41019">
        <ele>124.28</ele>
        <time>2024-05-26T19:41:36.514Z</time>
      </trkpt>
      <trkpt lat="48.39299" lon="2.41024">
        <ele>124.47</ele>
        <time>2024-05-26T19:41:40.441Z</time>
      </trkpt>
      <trkpt lat="48.39311" lon="2.41044">
        <ele>124.64</ele>
        <time>2024-05-26T19:41:44.371Z</time>
      </trkpt>
      <trkpt lat="48.39315" lon="2.41049">
        <ele>124.81</ele>
        <time>2024-05-26T19:41:48.302Z</time>
      </trkpt>
      <trkpt lat="48.39334" lon="2.41072">
        <ele>124.98</ele>
        <time>2024-05-26T19:41:52.238Z</time>
      </trkpt>
      <trkpt lat="48.3934" lon="2.41083">
        <ele>125.14</ele>
        <time>2024-05-26T19:41:56.176Z</time>
      </trkpt>
      <trkpt lat="48.39354" lon="2.41101">
        <ele>125.29</ele>
        <time>2024-05-26T19:42:00.118Z</time>
      </trkpt>
      <trkpt lat="48.39362" lon="2.41108">
        <ele>125.42</ele>
        <time>2024-05-26T19:42:04.062Z</time>
      </trkpt>
      <trkpt lat="48.39381" lon="2.41132">
        <ele>125.56</ele>
        <time>2024-05-26T19:42:08.011Z</time>
      </trkpt>
      <trkpt lat="48.39385" lon="2.41138">
        <ele>125.67</ele>
        <time>2024-05-26T19:42:11.961Z</time>
      </trkpt>
      <trkpt lat="48.39401" lon="2.41161">
        <ele>125.79</ele>
        <time>2024-05-26T19:42:15.915Z</time>
      </trkpt>
      <trkpt lat="48.39415" lon="2.41175">
        <ele>125.89</ele>
        <time>2024-05-26T19:42:19.872Z</time>
      </trkpt>
      <trkpt lat="48.39449" lon="2.41211">
        <ele>125.9</ele>
        <time>2024-05-26T19:42:23.838Z</time>
      </trkpt>
      <trkpt lat="48.39481" lon="2.41248">
        <ele>125.97</ele>
        <time>2024-05-26T19:42:27.812Z</time>
      </trkpt>
      <trkpt lat="48.39521" lon="2.41284">
        <ele>126.05</ele>
        <time>2024-05-26T19:42:31.795Z</time>
      </trkpt>
      <trkpt lat="48.39569" lon="2.4132">
        <ele>126.11</ele>
        <time>2024-05-26T19:42:35.789Z</time>
      </trkpt>
      <trkpt lat="48.39593" lon="2.41338">
        <ele>126.17</ele>
        <time>2024-05-26T19:42:39.788Z</time>
      </trkpt>
      <trkpt lat="48.396" lon="2.41352">
        <ele>126.24</ele>
        <time>2024-05-26T19:42:43.790Z</time>
      </trkpt>
      <trkpt lat="48.39601" lon="2.41375">
        <ele>126.33</ele>
        <time>2024-05-26T19:42:47.795Z</time>
      </trkpt>
      <trkpt lat="48.39599" lon="2.41383">
        <ele>126.42</ele>
        <time>2024-05-26T19:42:51.801Z</time>
      </trkpt>
      <trkpt lat="48.39589" lon="2.4144">
        <ele>126.57</ele>
        <time>2024-05-26T19:42:55.815Z</time>
      </trkpt>
      <trkpt lat="48.39588" lon="2.41491">
        <ele>126.67</ele>
        <time>2024-05-26T19:42:59.836Z</time>
      </trkpt>
      <trkpt lat="48.39588" lon="2.41551">
        <ele>126.78</ele>
        <time>2024-05-26T19:43:03.865Z</time>
      </trkpt>
      <trkpt lat="48.39587" lon="2.41585">
        <ele>126.91</ele>
        <time>2024-05-26T19:43:07.898Z</time>
      </trkpt>
      <trkpt lat="48.39587" lon="2.41601">
        <ele>127.02</ele>
        <time>2024-05-26T19:43:11.933Z</time>
      </trkpt>
      <trkpt lat="48.3959" lon="2.41661">
        <ele>127.15</ele>
        <time>2024-05-26T19:43:15.976Z</time>
      </trkpt>
      <trkpt lat="48.39595" lon="2.41732">
        <ele>127.26</ele>
        <time>2024-05-26T19:43:20.029Z</time>
      </trkpt>
      <trkpt lat="48.39599" lon="2.41792">
        <ele>127.37</ele>
        <time>2024-05-26T19:43:24.090Z</time>
      </trkpt>
      <trkpt lat="48.39604" lon="2.41841">
        <ele>127.51</ele>
        <time>2024-05-26T19:43:28.157Z</time>
      </trkpt>
      <trkpt lat="48.3962" lon="2.41917">
        <ele>127.52</ele>
        <time>2024-05-26T19:43:32.235Z</time>
      </trkpt>
      <trkpt lat="48.39632" lon="2.41982">
        <ele>127.55</ele>
        <time>2024-05-26T19:43:36.322Z</time>
      </trkpt>
      <trkpt lat="48.39634" lon="2.4199">
        <ele>127.62</ele>
        <time>2024-05-26T19:43:40.410Z</time>
      </trkpt>
      <trkpt lat="48.39645" lon="2.42057">
        <ele>127.72</ele>
        <time>2024-05-26T19:43:44.507Z</time>
      </trkpt>
      <trkpt lat="48.39653" lon="2.42109">
        <ele>127.88</ele>
        <time>2024-05-26T19:43:48.611Z</time>
      </trkpt>
      <trkpt lat="48.39657" lon="2.42144">
        <ele>127.93</ele>
        <time>2024-05-26T19:43:52.720Z</time>
      </trkpt>
      <trkpt lat="48.39664" lon="2.42195">
        <ele>127.98</ele>
        <time>2024-05-26T19:43:56.836Z</time>
      </trkpt>
      <trkpt lat="48.39664" lon="2.42203">
        <ele>128.02</ele>
        <time>2024-05-26T19:44:00.953Z</time>
      </trkpt>
      <trkpt lat="48.39659" lon="2.42223">
        <ele>128.06</ele>
        <time>2024-05-26T19:44:05.073Z</time>
      </trkpt>
      <trkpt lat="48.39656" lon="2.42229">
        <ele>128.11</ele>
        <time>2024-05-26T19:44:09.194Z</time>
      </trkpt>
      <trkpt lat="48.39654" lon="2.42235">
        <ele>128.16</ele>
        <time>2024-05-26T19:44:13.316Z</time>
      </trkpt>
      <trkpt lat="48.3965" lon="2.42255">
        <ele>128.2</ele>
        <time>2024-05-26T19:44:17.441Z</time>
      </trkpt>
      <trkpt lat="48.3965" lon="2.42261">
        <ele>128.23</ele>
        <time>2024-05-26T19:44:21.567Z</time>
      </trkpt>
      <trkpt lat="48.39654" lon="2.42273">
        <ele>128.24</ele>
        <time>2024-05-26T19:44:25.694Z</time>
      </trkpt>
      <trkpt lat="48.39666" lon="2.42282">
        <ele>128.26</ele>
        <time>2024-05-26T19:44:29.824Z</time>
      </trkpt>
      <trkpt lat="48.39671" lon="2.42282">
        <ele>128.29</ele>
        <time>2024-05-26T19:44:33.955Z</time>
      </trkpt>
      <trkpt lat="48.39687" lon="2.42276">
        <ele>128.31</ele>
        <time>2024-05-26T19:44:38.089Z</time>
      </trkpt>
      <trkpt lat="48.39712" lon="2.42256">
        <ele>128.34</ele>
        <time>2024-05-26T19:44:42.229Z</time>
      </trkpt>
      <trkpt lat="48.39717" lon="2.42254">
        <ele>128.38</ele>
        <time>2024-05-26T19:44:46.370Z</time>
      </trkpt>
      <trkpt lat="48.39723" lon="2.42252">
        <ele>128.41</ele>
        <time>2024-05-26T19:44:50.512Z</time>
      </trkpt>
      <trkpt lat="48.39734" lon="2.42249">
        <ele>128.43</ele>
        <time>2024-05-26T19:44:54.657Z</time>
      </trkpt>
      <trkpt lat="48.39758" lon="2.42245">
        <ele>128.46</ele>
        <time>2024-05-26T19:44:58.806Z</time>
      </trkpt>
      <trkpt lat="48.39804" lon="2.42236">
        <ele>128.54</ele>
        <time>2024-05-26T19:45:02.965Z</time>
      </trkpt>
      <trkpt lat="48.39822" lon="2.4223">
        <ele>128.59</ele>
        <time>2024-05-26T19:45:07.127Z</time>
      </trkpt>
      <trkpt lat="48.39827" lon="2.42228">
        <ele>128.64</ele>
        <time>2024-05-26T19:45:11.290Z</time>
      </trkpt>
      <trkpt lat="48.39847" lon="2.42222">
        <ele>128.68</ele>
        <time>2024-05-26T19:45:15.458Z</time>
      </trkpt>
      <trkpt lat="48.39857" lon="2.42217">
        <ele>128.73</ele>
        <time>2024-05-26T19:45:19.628Z</time>
      </trkpt>
      <trkpt lat="48.39893" lon="2.42195">
        <ele>128.78</ele>
        <time>2024-05-26T19:45:23.805Z</time>
      </trkpt>
      <trkpt lat="48.39912" lon="2.42176">
        <ele>128.87</ele>
        <time>2024-05-26T19:45:27.987Z</time>
      </trkpt>
      <trkpt lat="48.39925" lon="2.42162">
        <ele>128.93</ele>
        <time>2024-05-26T19:45:32.172Z</time>
      </trkpt>
      <trkpt lat="48.39929" lon="2.42156">
        <ele>128.99</ele>
        <time>2024-05-26T19:45:36.358Z</time>
      </trkpt>
      <trkpt lat="48.39954" lon="2.4212">
        <ele>129.05</ele>
        <time>2024-05-26T19:45:40.551Z</time>
      </trkpt>
      <trkpt lat="48.39964" lon="2.42101">
        <ele>129.13</ele>
        <time>2024-05-26T19:45:44.748Z</time>
      </trkpt>
      <trkpt lat="48.39973" lon="2.42082">
        <ele>129.19</ele>
        <time>2024-05-26T19:45:48.948Z</time>
      </trkpt>
      <trkpt lat="48.39981" lon="2.42064">
        <ele>129.27</ele>
        <time>2024-05-26T19:45:53.150Z</time>
      </trkpt>
      <trkpt lat="48.39981" lon="2.42061">
        <ele>129.31</ele>
        <time>2024-05-26T19:45:57.353Z</time>
      </trkpt>
      <trkpt lat="48.3998" lon="2.42061">
        <ele>129.36</ele>
        <time>2024-05-26T19:46:01.556Z</time>
      </trkpt>
      <trkpt lat="48.3998" lon="2.42061">
        <ele>129.4</ele>
        <time>2024-05-26T19:46:05.759Z</time>
      </trkpt>
      <trkpt lat="48.3998" lon="2.4206">
        <ele>129.44</ele>
        <time>2024-05-26T19:46:09.962Z</time>
      </trkpt>
      <trkpt lat="48.39979" lon="2.4206">
        <ele>129.48</ele>
        <time>2024-05-26T19:46:14.165Z</time>
      </trkpt>
      <trkpt lat="48.39978" lon="2.4206">
        <ele>129.51</ele>
        <time>2024-05-26T19:46:18.369Z</time>
      </trkpt>
      <trkpt lat="48.39978" lon="2.4206">
        <ele>129.55</ele>
        <time>2024-05-26T19:46:22.573Z</time>
      </trkpt>
      <trkpt lat="48.39978" lon="2.4206">
        <ele>129.58</ele>
        <time>2024-05-26T19:46:26.777Z</time>
      </trkpt>
      <trkpt lat="48.39978" lon="2.42059">
        <ele>129.6</ele>
        <time>2024-05-26T19:46:30.981Z</time>
      </trkpt>
      <trkpt lat="48.39978" lon="2.4206">
        <ele>129.63</ele>
        <time>2024-05-26T19:46:35.185Z</time>
      </trkpt>
      <trkpt lat="48.39977" lon="2.42061">
        <ele>129.65</ele>
        <time>2024-05-26T19:46:39.389Z</time>
      </trkpt>
      <trkpt lat="48.39977" lon="2.42061">
        <ele>129.66</ele>
        <time>2024-05-26T19:46:43.593Z</time>
      </trkpt>
      <trkpt lat="48.39977" lon="2.42061">
        <ele>129.68</ele>
        <time>2024-05-26T19:46:47.797Z</time>
      </trkpt>
      <trkpt lat="48.39977" lon="2.42061">
        <ele>129.69</ele>
        <time>2024-05-26T19:46:52.001Z</time>
      </trkpt>
      <trkpt lat="48.39977" lon="2.42062">
        <ele>129.69</ele>
        <time>2024-05-26T19:46:56.205Z</time>
      </trkpt>
      <trkpt lat="48.39977" lon="2.42062">
        <ele>129.7</ele>
        <time>2024-05-26T19:47:00.409Z</time>
      </trkpt>
      <trkpt lat="48.39977" lon="2.42062">
        <ele>129.7</ele>
        <time>2024-05-26T19:47:04.613Z</time>
      </trkpt>
      <trkpt lat="48.39976" lon="2.42062">
        <ele>129.7</ele>
        <time>2024-05-26T19:47:08.817Z</time>
      </trkpt>
      <trkpt lat="48.39976" lon="2.42062">
        <ele>129.69</ele>
        <time>2024-05-26T19:47:13.021Z</time>
      </trkpt>
      <trkpt lat="48.39977" lon="2.4206">
        <ele>129.68</ele>
        <time>2024-05-26T19:47:17.226Z</time>
      </trkpt>
      <trkpt lat="48.39976" lon="2.42058">
        <ele>129.67</ele>
        <time>2024-05-26T19:47:21.431Z</time>
      </trkpt>
      <trkpt lat="48.39976" lon="2.42058">
        <ele>129.66</ele>
        <time>2024-05-26T19:47:25.636Z</time>
      </trkpt>
      <trkpt lat="48.39976" lon="2.42058">
        <ele>129.64</ele>
        <time>2024-05-26T19:47:29.841Z</time>
      </trkpt>
      <trkpt lat="48.39976" lon="2.42058">
        <ele>129.61</ele>
        <time>2024-05-26T19:47:34.046Z</time>
      </trkpt>
      <trkpt lat="48.39976" lon="2.42058">
        <ele>129.59</ele>
        <time>2024-05-26T19:47:38.251Z</time>
      </trkpt>
      <trkpt lat="48.39975" lon="2.42061">
        <ele>129.57</ele>
        <time>2024-05-26T19:47:42.457Z</time>
      </trkpt>
      <trkpt lat="48.39973" lon="2.42051">
        <ele>129.54</ele>
        <time>2024-05-26T19:47:46.664Z</time>
      </trkpt>
      <trkpt lat="48.39975" lon="2.42023">
        <ele>129.52</ele>
        <time>2024-05-26T19:47:50.875Z</time>
      </trkpt>
      <trkpt lat="48.39978" lon="2.41987">
        <ele>129.52</ele>
        <time>2024-05-26T19:47:55.090Z</time>
      </trkpt>
      <trkpt lat="48.39978" lon="2.41955">
        <ele>129.51</ele>
        <time>2024-05-26T19:47:59.310Z</time>
      </trkpt>
      <trkpt lat="48.39978" lon="2.41949">
        <ele>129.49</ele>
        <time>2024-05-26T19:48:03.531Z</time>
      </trkpt>
      <trkpt lat="48.39979" lon="2.41929">
        <ele>129.45</ele>
        <time>2024-05-26T19:48:07.754Z</time>
      </trkpt>
      <trkpt lat="48.39979" lon="2.41909">
        <ele>129.41</ele>
        <time>2024-05-26T19:48:11.980Z</time>
      </trkpt>
      <trkpt lat="48.39982" lon="2.41866">
        <ele>129.37</ele>
        <time>2024-05-26T19:48:16.212Z</time>
      </trkpt>
      <trkpt lat="48.39982" lon="2.41831">
        <ele>129.33</ele>
        <time>2024-05-26T19:48:20.448Z</time>
      </trkpt>
      <trkpt lat="48.39983" lon="2.41816">
        <ele>129.32</ele>
        <time>2024-05-26T19:48:24.686Z</time>
      </trkpt>
      <trkpt lat="48.39983" lon="2.41777">
        <ele>129.27</ele>
        <time>2024-05-26T19:48:28.929Z</time>
      </trkpt>
      <trkpt lat="48.39984" lon="2.41754">
        <ele>129.23</ele>
        <time>2024-05-26T19:48:33.176Z</time>
      </trkpt>
      <trkpt lat="48.39984" lon="2.41739">
        <ele>129.2</ele>
        <time>2024-05-26T19:48:37.425Z</time>
      </trkpt>
      <trkpt lat="48.39986" lon="2.41717">
        <ele>129.2</ele>
        <time>2024-05-26T19:48:41.677Z</time>
      </trkpt>
      <trkpt lat="48.39988" lon="2.41712">
        <ele>129.2</ele>
        <time>2024-05-26T19:48:45.929Z</time>
      </trkpt>
      <trkpt lat="48.39995" lon="2.41712">
        <ele>129.23</ele>
        <time>2024-05-26T19:48:50.183Z</time>
      </trkpt>
      <trkpt lat="48.39999" lon="2.41712">
        <ele>129.24</ele>
        <time>2024-05-26T19:48:54.437Z</time>
      </trkpt>
      <trkpt lat="48.40002" lon="2.41713">
        <ele>129.25</ele>
        <time>2024-05-26T19:48:58.692Z</time>
      </trkpt>
      <trkpt lat="48.40024" lon="2.41713">
        <ele>129.28</ele>
        <time>2024-05-26T19:49:02.951Z</time>
      </trkpt>
      <trkpt lat="48.40032" lon="2.41714">
        <ele>129.29</ele>
        <time>2024-05-26T19:49:07.212Z</time>
      </trkpt>
      <trkpt lat="48.40048" lon="2.41716">
        <ele>129.29</ele>
        <time>2024-05-26T19:49:11.476Z</time>
      </trkpt>
      <trkpt lat="48.40058" lon="2.41717">
        <ele>129.3</ele>
        <time>2024-05-26T19:49:15.742Z</time>
      </trkpt>
      <trkpt lat="48.40062" lon="2.41716">
        <ele>129.31</ele>
        <time>2024-05-26T19:49:20.009Z</time>
      </trkpt>
      <trkpt lat="48.40073" lon="2.41716">
        <ele>129.33</ele>
        <time>2024-05-26T19:49:24.278Z</time>
      </trkpt>
      <trkpt lat="48.4009" lon="2.41716">
        <ele>129.34</ele>
        <time>2024-05-26T19:49:28.551Z</time>
      </trkpt>
      <trkpt lat="48.401" lon="2.41716">
        <ele>129.35</ele>
        <time>2024-05-26T19:49:32.826Z</time>
      </trkpt>
      <trkpt lat="48.40105" lon="2.41716">
        <ele>129.35</ele>
        <time>2024-05-26T19:49:37.102Z</time>
      </trkpt>
      <trkpt lat="48.40128" lon="2.41716">
        <ele>129.34</ele>
        <time>2024-05-26T19:49:41.382Z</time>
      </trkpt>
      <trkpt lat="48.40139" lon="2.41716">
        <ele>129.32</ele>
        <time>2024-05-26T19:49:45.665Z</time>
      </trkpt>
      <trkpt lat="48.40152" lon="2.41714">
        <ele>129.26</ele>
        <time>2024-05-26T19:49:49.950Z</time>
      </trkpt>
      <trkpt lat="48.40181" lon="2.41707">
        <ele>129.15</ele>
        <time>2024-05-26T19:49:54.241Z</time>
      </trkpt>
      <trkpt lat="48.40199" lon="2.41705">
        <ele>129.08</ele>
        <time>2024-05-26T19:49:58.536Z</time>
      </trkpt>
      <trkpt lat="48.40217" lon="2.41702">
        <ele>129.03</ele>
        <time>2024-05-26T19:50:02.834Z</time>
      </trkpt>
      <trkpt lat="48.40236" lon="2.41698">
        <ele>128.99</ele>
        <time>2024-05-26T19:50:07.136Z</time>
      </trkpt>
      <trkpt lat="48.40246" lon="2.41698">
        <ele>128.96</ele>
        <time>2024-05-26T19:50:11.440Z</time>
      </trkpt>
      <trkpt lat="48.40255" lon="2.41698">
        <ele>128.93</ele>
        <time>2024-05-26T19:50:15.746Z</time>
      </trkpt>
      <trkpt lat="48.40267" lon="2.41699">
        <ele>128.88</ele>
        <time>2024-05-26T19:50:20.054Z</time>
      </trkpt>
      <trkpt lat="48.40272" lon="2.41697">
        <ele>128.82</ele>
        <time>2024-05-26T19:50:24.363Z</time>
      </trkpt>
      <trkpt lat="48.4028" lon="2.41692">
        <ele>128.76</ele>
        <time>2024-05-26T19:50:28.674Z</time>
      </trkpt>
      <trkpt lat="48.40282" lon="2.41689">
        <ele>128.69</ele>
        <time>2024-05-26T19:50:32.986Z</time>
      </trkpt>
      <trkpt lat="48.40287" lon="2.41678">
        <ele>128.62</ele>
        <time>2024-05-26T19:50:37.299Z</time>
      </trkpt>
      <trkpt lat="48.40292" lon="2.41667">
        <ele>128.53</ele>
        <time>2024-05-26T19:50:41.614Z</time>
      </trkpt>
      <trkpt lat="48.40293" lon="2.41656">
        <ele>128.42</ele>
        <time>2024-05-26T19:50:45.931Z</time>
      </trkpt>
      <trkpt lat="48.40293" lon="2.41651">
        <ele>128.31</ele>
        <time>2024-05-26T19:50:50.248Z</time>
      </trkpt>
      <trkpt lat="48.40289" lon="2.41644">
        <ele>128.19</ele>
        <time>2024-05-26T19:50:54.567Z</time>
      </trkpt>
      <trkpt lat="48.40285" lon="2.41634">
        <ele>128.07</ele>
        <time>2024-05-26T19:50:58.887Z</time>
      </trkpt>
      <trkpt lat="48.40283" lon="2.41627">
        <ele>127.92</ele>
        <time>2024-05-26T19:51:03.208Z</time>
      </trkpt>
      <trkpt lat="48.40278" lon="2.41612">
        <ele>127.77</ele>
        <time>2024-05-26T19:51:07.531Z</time>
      </trkpt>
      <trkpt lat="48.40276" lon="2.41606">
        <ele>127.59</ele>
        <time>2024-05-26T19:51:11.855Z</time>
      </trkpt>
      <trkpt lat="48.40271" lon="2.41584">
        <ele>127.38</ele>
        <time>2024-05-26T19:51:16.182Z</time>
      </trkpt>
      <trkpt lat="48.40269" lon="2.41576">
        <ele>127.17</ele>
        <time>2024-05-26T19:51:20.510Z</time>
      </trkpt>
      <trkpt lat="48.40268" lon="2.41568">
        <ele>126.95</ele>
        <time>2024-05-26T19:51:24.840Z</time>
      </trkpt>
      <trkpt lat="48.40263" lon="2.41548">
        <ele>126.7</ele>
        <time>2024-05-26T19:51:29.172Z</time>
      </trkpt>
      <trkpt lat="48.4026" lon="2.41542">
        <ele>126.43</ele>
        <time>2024-05-26T19:51:33.505Z</time>
      </trkpt>
      <trkpt lat="48.40258" lon="2.41515">
        <ele>126.12</ele>
        <time>2024-05-26T19:51:37.842Z</time>
      </trkpt>
      <trkpt lat="48.40261" lon="2.41502">
        <ele>125.77</ele>
        <time>2024-05-26T19:51:42.181Z</time>
      </trkpt>
      <trkpt lat="48.40264" lon="2.41488">
        <ele>125.39</ele>
        <time>2024-05-26T19:51:46.522Z</time>
      </trkpt>
      <trkpt lat="48.40262" lon="2.41477">
        <ele>125.04</ele>
        <time>2024-05-26T19:51:50.864Z</time>
      </trkpt>
      <trkpt lat="48.4026" lon="2.41472">
        <ele>124.66</ele>
        <time>2024-05-26T19:51:55.207Z</time>
      </trkpt>
      <trkpt lat="48.40256" lon="2.41465">
        <ele>124.25</ele>
        <time>2024-05-26T19:51:59.551Z</time>
      </trkpt>
      <trkpt lat="48.40248" lon="2.41447">
        <ele>123.82</ele>
        <time>2024-05-26T19:52:03.898Z</time>
      </trkpt>
      <trkpt lat="48.40246" lon="2.4144">
        <ele>123.36</ele>
        <time>2024-05-26T19:52:08.246Z</time>
      </trkpt>
      <trkpt lat="48.40243" lon="2.41418">
        <ele>122.81</ele>
        <time>2024-05-26T19:52:12.597Z</time>
      </trkpt>
      <trkpt lat="48.40243" lon="2.41411">
        <ele>122.29</ele>
        <time>2024-05-26T19:52:16.949Z</time>
      </trkpt>
      <trkpt lat="48.40235" lon="2.41379">
        <ele>121.71</ele>
        <time>2024-05-26T19:52:21.306Z</time>
      </trkpt>
      <trkpt lat="48.40236" lon="2.41374">
        <ele>121.14</ele>
        <time>2024-05-26T19:52:25.663Z</time>
      </trkpt>
      <trkpt lat="48.40236" lon="2.41364">
        <ele>120.54</ele>
        <time>2024-05-26T19:52:30.022Z</time>
      </trkpt>
      <trkpt lat="48.40232" lon="2.41353">
        <ele>119.94</ele>
        <time>2024-05-26T19:52:34.382Z</time>
      </trkpt>
      <trkpt lat="48.40231" lon="2.41341">
        <ele>119.31</ele>
        <time>2024-05-26T19:52:38.744Z</time>
      </trkpt>
      <trkpt lat="48.40232" lon="2.41335">
        <ele>118.66</ele>
        <time>2024-05-26T19:52:43.107Z</time>
      </trkpt>
      <trkpt lat="48.40234" lon="2.41316">
        <ele>117.95</ele>
        <time>2024-05-26T19:52:47.472Z</time>
      </trkpt>
      <trkpt lat="48.4024" lon="2.41293">
        <ele>117.18</ele>
        <time>2024-05-26T19:52:51.841Z</time>
      </trkpt>
      <trkpt lat="48.40242" lon="2.41276">
        <ele>116.44</ele>
        <time>2024-05-26T19:52:56.212Z</time>
      </trkpt>
      <trkpt lat="48.40244" lon="2.41261">
        <ele>115.64</ele>
        <time>2024-05-26T19:53:00.585Z</time>
      </trkpt>
      <trkpt lat="48.40249" lon="2.41249">
        <ele>114.8</ele>
        <time>2024-05-26T19:53:04.960Z</time>
      </trkpt>
      <trkpt lat="48.40255" lon="2.41246">
        <ele>113.97</ele>
        <time>2024-05-26T19:53:09.336Z</time>
      </trkpt>
      <trkpt lat="48.40263" lon="2.41242">
        <ele>113.11</ele>
        <time>2024-05-26T19:53:13.714Z</time>
      </trkpt>
      <trkpt lat="48.4027" lon="2.41236">
        <ele>112.25</ele>
        <time>2024-05-26T19:53:18.093Z</time>
      </trkpt>
      <trkpt lat="48.40272" lon="2.41217">
        <ele>111.44</ele>
        <time>2024-05-26T19:53:22.475Z</time>
      </trkpt>
      <trkpt lat="48.4027" lon="2.41205">
        <ele>110.63</ele>
        <time>2024-05-26T19:53:26.859Z</time>
      </trkpt>
      <trkpt lat="48.40268" lon="2.41195">
        <ele>109.82</ele>
        <time>2024-05-26T19:53:31.244Z</time>
      </trkpt>
      <trkpt lat="48.40267" lon="2.41193">
        <ele>109.01</ele>
        <time>2024-05-26T19:53:35.629Z</time>
      </trkpt>
      <trkpt lat="48.40267" lon="2.41192">
        <ele>108.21</ele>
        <time>2024-05-26T19:53:40.014Z</time>
      </trkpt>
      <trkpt lat="48.40267" lon="2.41192">
        <ele>107.4</ele>
        <time>2024-05-26T19:53:44.400Z</time>
      </trkpt>
      <trkpt lat="48.40267" lon="2.41191">
        <ele>106.59</ele>
        <time>2024-05-26T19:53:48.786Z</time>
      </trkpt>
      <trkpt lat="48.40268" lon="2.4119">
        <ele>105.76</ele>
        <time>2024-05-26T19:53:53.172Z</time>
      </trkpt>
      <trkpt lat="48.40268" lon="2.4119">
        <ele>104.95</ele>
        <time>2024-05-26T19:53:57.558Z</time>
      </trkpt>
      <trkpt lat="48.40266" lon="2.41183">
        <ele>104.11</ele>
        <time>2024-05-26T19:54:01.945Z</time>
      </trkpt>
      <trkpt lat="48.40257" lon="2.41165">
        <ele>103.27</ele>
        <time>2024-05-26T19:54:06.335Z</time>
      </trkpt>
      <trkpt lat="48.40251" lon="2.41157">
        <ele>102.44</ele>
        <time>2024-05-26T19:54:10.726Z</time>
      </trkpt>
      <trkpt lat="48.40249" lon="2.41151">
        <ele>101.61</ele>
        <time>2024-05-26T19:54:15.118Z</time>
      </trkpt>
      <trkpt lat="48.40247" lon="2.41147">
        <ele>100.78</ele>
        <time>2024-05-26T19:54:19.511Z</time>
      </trkpt>
      <trkpt lat="48.40245" lon="2.41145">
        <ele>99.94</ele>
        <time>2024-05-26T19:54:23.905Z</time>
      </trkpt>
      <trkpt lat="48.40237" lon="2.41143">
        <ele>99.1</ele>
        <time>2024-05-26T19:54:28.300Z</time>
      </trkpt>
      <trkpt lat="48.40224" lon="2.41143">
        <ele>98.25</ele>
        <time>2024-05-26T19:54:32.698Z</time>
      </trkpt>
      <trkpt lat="48.4022" lon="2.41146">
        <ele>97.44</ele>
        <time>2024-05-26T19:54:37.097Z</time>
      </trkpt>
      <trkpt lat="48.4022" lon="2.41147">
        <ele>96.64</ele>
        <time>2024-05-26T19:54:41.496Z</time>
      </trkpt>
      <trkpt lat="48.40212" lon="2.41156">
        <ele>95.85</ele>
        <time>2024-05-26T19:54:45.897Z</time>
      </trkpt>
      <trkpt lat="48.40201" lon="2.41156">
        <ele>95</ele>
        <time>2024-05-26T19:54:50.300Z</time>
      </trkpt>
      <trkpt lat="48.4019" lon="2.4116">
        <ele>94.17</ele>
        <time>2024-05-26T19:54:54.705Z</time>
      </trkpt>
      <trkpt lat="48.40179" lon="2.41164">
        <ele>93.33</ele>
        <time>2024-05-26T19:54:59.112Z</time>
      </trkpt>
      <trkpt lat="48.40163" lon="2.41163">
        <ele>92.44</ele>
        <time>2024-05-26T19:55:03.523Z</time>
      </trkpt>
      <trkpt lat="48.4014" lon="2.41155">
        <ele>91.57</ele>
        <time>2024-05-26T19:55:07.938Z</time>
      </trkpt>
      <trkpt lat="48.40134" lon="2.41141">
        <ele>90.74</ele>
        <time>2024-05-26T19:55:12.355Z</time>
      </trkpt>
      <trkpt lat="48.4013" lon="2.41135">
        <ele>89.95</ele>
        <time>2024-05-26T19:55:16.774Z</time>
      </trkpt>
      <trkpt lat="48.40127" lon="2.41127">
        <ele>89.2</ele>
        <time>2024-05-26T19:55:21.194Z</time>
      </trkpt>
      <trkpt lat="48.40128" lon="2.41115">
        <ele>88.42</ele>
        <time>2024-05-26T19:55:25.616Z</time>
      </trkpt>
      <trkpt lat="48.40139" lon="2.411">
        <ele>87.63</ele>
        <time>2024-05-26T19:55:30.040Z</time>
      </trkpt>
      <trkpt lat="48.40143" lon="2.41091">
        <ele>86.89</ele>
        <time>2024-05-26T19:55:34.466Z</time>
      </trkpt>
      <trkpt lat="48.40152" lon="2.41087">
        <ele>86.15</ele>
        <time>2024-05-26T19:55:38.894Z</time>
      </trkpt>
      <trkpt lat="48.40166" lon="2.41082">
        <ele>85.42</ele>
        <time>2024-05-26T19:55:43.325Z</time>
      </trkpt>
      <trkpt lat="48.40186" lon="2.41069">
        <ele>84.69</ele>
        <time>2024-05-26T19:55:47.760Z</time>
      </trkpt>
      <trkpt lat="48.40211" lon="2.4105">
        <ele>83.94</ele>
        <time>2024-05-26T19:55:52.200Z</time>
      </trkpt>
      <trkpt lat="48.40229" lon="2.41043">
        <ele>83.25</ele>
        <time>2024-05-26T19:55:56.644Z</time>
      </trkpt>
      <trkpt lat="48.40249" lon="2.41025">
        <ele>82.58</ele>
        <time>2024-05-26T19:56:01.093Z</time>
      </trkpt>
      <trkpt lat="48.40254" lon="2.4102">
        <ele>82</ele>
        <time>2024-05-26T19:56:05.543Z</time>
      </trkpt>
      <trkpt lat="48.4027" lon="2.41009">
        <ele>81.45</ele>
        <time>2024-05-26T19:56:09.997Z</time>
      </trkpt>
      <trkpt lat="48.40275" lon="2.41006">
        <ele>80.92</ele>
        <time>2024-05-26T19:56:14.452Z</time>
      </trkpt>
      <trkpt lat="48.40297" lon="2.41002">
        <ele>80.36</ele>
        <time>2024-05-26T19:56:18.911Z</time>
      </trkpt>
      <trkpt lat="48.4031" lon="2.41007">
        <ele>79.86</ele>
        <time>2024-05-26T19:56:23.373Z</time>
      </trkpt>
      <trkpt lat="48.40327" lon="2.41007">
        <ele>79.37</ele>
        <time>2024-05-26T19:56:27.838Z</time>
      </trkpt>
      <trkpt lat="48.40342" lon="2.41008">
        <ele>78.94</ele>
        <time>2024-05-26T19:56:32.306Z</time>
      </trkpt>
      <trkpt lat="48.40351" lon="2.41008">
        <ele>78.56</ele>
        <time>2024-05-26T19:56:36.776Z</time>
      </trkpt>
      <trkpt lat="48.40364" lon="2.41014">
        <ele>78.21</ele>
        <time>2024-05-26T19:56:41.249Z</time>
      </trkpt>
      <trkpt lat="48.40369" lon="2.4102">
        <ele>77.91</ele>
        <time>2024-05-26T19:56:45.723Z</time>
      </trkpt>
      <trkpt lat="48.40386" lon="2.41033">
        <ele>77.64</ele>
        <time>2024-05-26T19:56:50.201Z</time>
      </trkpt>
      <trkpt lat="48.40398" lon="2.4104">
        <ele>77.39</ele>
        <time>2024-05-26T19:56:54.681Z</time>
      </trkpt>
      <trkpt lat="48.40399" lon="2.41042">
        <ele>77.17</ele>
        <time>2024-05-26T19:56:59.162Z</time>
      </trkpt>
      <trkpt lat="48.40403" lon="2.41043">
        <ele>76.98</ele>
        <time>2024-05-26T19:57:03.644Z</time>
      </trkpt>
      <trkpt lat="48.4041" lon="2.41043">
        <ele>76.82</ele>
        <time>2024-05-26T19:57:08.127Z</time>
      </trkpt>
      <trkpt lat="48.40419" lon="2.41053">
        <ele>76.68</ele>
        <time>2024-05-26T19:57:12.612Z</time>
      </trkpt>
      <trkpt lat="48.40426" lon="2.41075">
        <ele>76.56</ele>
        <time>2024-05-26T19:57:17.100Z</time>
      </trkpt>
      <trkpt lat="48.40432" lon="2.41099">
        <ele>76.52</ele>
        <time>2024-05-26T19:57:21.592Z</time>
      </trkpt>
      <trkpt lat="48.40432" lon="2.41118">
        <ele>76.5</ele>
        <time>2024-05-26T19:57:26.086Z</time>
      </trkpt>
      <trkpt lat="48.40432" lon="2.41139">
        <ele>76.5</ele>
        <time>2024-05-26T19:57:30.583Z</time>
      </trkpt>
      <trkpt lat="48.40426" lon="2.41174">
        <ele>76.56</ele>
        <time>2024-05-26T19:57:35.085Z</time>
      </trkpt>
      <trkpt lat="48.40423" lon="2.41188">
        <ele>76.6</ele>
        <time>2024-05-26T19:57:39.589Z</time>
      </trkpt>
      <trkpt lat="48.40422" lon="2.41201">
        <ele>76.62</ele>
        <time>2024-05-26T19:57:44.095Z</time>
      </trkpt>
      <trkpt lat="48.40419" lon="2.41221">
        <ele>76.67</ele>
        <time>2024-05-26T19:57:48.603Z</time>
      </trkpt>
      <trkpt lat="48.40417" lon="2.41225">
        <ele>76.74</ele>
        <time>2024-05-26T19:57:53.112Z</time>
      </trkpt>
      <trkpt lat="48.40415" lon="2.41226">
        <ele>76.82</ele>
        <time>2024-05-26T19:57:57.622Z</time>
      </trkpt>
      <trkpt lat="48.40415" lon="2.41224">
        <ele>76.91</ele>
        <time>2024-05-26T19:58:02.132Z</time>
      </trkpt>
      <trkpt lat="48.40409" lon="2.41211">
        <ele>77.03</ele>
        <time>2024-05-26T19:58:06.644Z</time>
      </trkpt>
      <trkpt lat="48.40404" lon="2.41198">
        <ele>77.17</ele>
        <time>2024-05-26T19:58:11.158Z</time>
      </trkpt>
      <trkpt lat="48.40401" lon="2.41195">
        <ele>77.31</ele>
        <time>2024-05-26T19:58:15.673Z</time>
      </trkpt>
      <trkpt lat="48.40399" lon="2.41193">
        <ele>77.46</ele>
        <time>2024-05-26T19:58:20.188Z</time>
      </trkpt>
      <trkpt lat="48.40396" lon="2.41194">
        <ele>77.63</ele>
        <time>2024-05-26T19:58:24.704Z</time>
      </trkpt>
      <trkpt lat="48.40388" lon="2.41203">
        <ele>77.83</ele>
        <time>2024-05-26T19:58:29.222Z</time>
      </trkpt>
      <trkpt lat="48.40386" lon="2.41206">
        <ele>78.02</ele>
        <time>2024-05-26T19:58:33.740Z</time>
      </trkpt>
      <trkpt lat="48.40385" lon="2.4121">
        <ele>78.22</ele>
        <time>2024-05-26T19:58:38.259Z</time>
      </trkpt>
      <trkpt lat="48.40383" lon="2.41221">
        <ele>78.44</ele>
        <time>2024-05-26T19:58:42.779Z</time>
      </trkpt>
      <trkpt lat="48.40379" lon="2.41242">
        <ele>78.65</ele>
        <time>2024-05-26T19:58:47.302Z</time>
      </trkpt>
      <trkpt lat="48.40379" lon="2.41246">
        <ele>78.89</ele>
        <time>2024-05-26T19:58:51.826Z</time>
      </trkpt>
      <trkpt lat="48.40376" lon="2.4127">
        <ele>79.16</ele>
        <time>2024-05-26T19:58:56.353Z</time>
      </trkpt>
      <trkpt lat="48.40379" lon="2.41293">
        <ele>79.45</ele>
        <time>2024-05-26T19:59:00.883Z</time>
      </trkpt>
      <trkpt lat="48.40382" lon="2.41296">
        <ele>79.78</ele>
        <time>2024-05-26T19:59:05.414Z</time>
      </trkpt>
      <trkpt lat="48.40388" lon="2.41303">
        <ele>80.12</ele>
        <time>2024-05-26T19:59:09.946Z</time>
      </trkpt>
      <trkpt lat="48.40392" lon="2.41313">
        <ele>80.5</ele>
        <time>2024-05-26T19:59:14.480Z</time>
      </trkpt>
      <trkpt lat="48.40396" lon="2.41321">
        <ele>80.92</ele>
        <time>2024-05-26T19:59:19.015Z</time>
      </trkpt>
      <trkpt lat="48.4041" lon="2.41333">
        <ele>81.32</ele>
        <time>2024-05-26T19:59:23.554Z</time>
      </trkpt>
      <trkpt lat="48.40414" lon="2.41334">
        <ele>81.79</ele>
        <time>2024-05-26T19:59:28.093Z</time>
      </trkpt>
      <trkpt lat="48.40423" lon="2.41336">
        <ele>82.25</ele>
        <time>2024-05-26T19:59:32.634Z</time>
      </trkpt>
      <trkpt lat="48.40425" lon="2.41349">
        <ele>82.82</ele>
        <time>2024-05-26T19:59:37.177Z</time>
      </trkpt>
      <trkpt lat="48.40425" lon="2.41362">
        <ele>83.44</ele>
        <time>2024-05-26T19:59:41.722Z</time>
      </trkpt>
      <trkpt lat="48.40425" lon="2.41375">
        <ele>84.1</ele>
        <time>2024-05-26T19:59:46.269Z</time>
      </trkpt>
      <trkpt lat="48.40425" lon="2.414">
        <ele>84.78</ele>
        <time>2024-05-26T19:59:50.819Z</time>
      </trkpt>
      <trkpt lat="48.40424" lon="2.41427">
        <ele>85.5</ele>
        <time>2024-05-26T19:59:55.372Z</time>
      </trkpt>
      <trkpt lat="48.40421" lon="2.41455">
        <ele>86.3</ele>
        <time>2024-05-26T19:59:59.929Z</time>
      </trkpt>
      <trkpt lat="48.40417" lon="2.41482">
        <ele>87.15</ele>
        <time>2024-05-26T20:00:04.490Z</time>
      </trkpt>
      <trkpt lat="48.40412" lon="2.41512">
        <ele>88.11</ele>
        <time>2024-05-26T20:00:09.055Z</time>
      </trkpt>
      <trkpt lat="48.40412" lon="2.41531">
        <ele>89.09</ele>
        <time>2024-05-26T20:00:13.623Z</time>
      </trkpt>
      <trkpt lat="48.40409" lon="2.41561">
        <ele>90.22</ele>
        <time>2024-05-26T20:00:18.195Z</time>
      </trkpt>
      <trkpt lat="48.40408" lon="2.41574">
        <ele>91.31</ele>
        <time>2024-05-26T20:00:22.768Z</time>
      </trkpt>
      <trkpt lat="48.40408" lon="2.41578">
        <ele>92.4</ele>
        <time>2024-05-26T20:00:27.342Z</time>
      </trkpt>
      <trkpt lat="48.40404" lon="2.41591">
        <ele>93.55</ele>
        <time>2024-05-26T20:00:31.918Z</time>
      </trkpt>
      <trkpt lat="48.40403" lon="2.416">
        <ele>94.72</ele>
        <time>2024-05-26T20:00:36.495Z</time>
      </trkpt>
      <trkpt lat="48.40401" lon="2.41612">
        <ele>95.96</ele>
        <time>2024-05-26T20:00:41.074Z</time>
      </trkpt>
      <trkpt lat="48.40401" lon="2.41616">
        <ele>97.19</ele>
        <time>2024-05-26T20:00:45.653Z</time>
      </trkpt>
      <trkpt lat="48.40398" lon="2.41636">
        <ele>98.48</ele>
        <time>2024-05-26T20:00:50.235Z</time>
      </trkpt>
      <trkpt lat="48.40397" lon="2.4166">
        <ele>99.81</ele>
        <time>2024-05-26T20:00:54.820Z</time>
      </trkpt>
      <trkpt lat="48.40395" lon="2.41678">
        <ele>101.2</ele>
        <time>2024-05-26T20:00:59.408Z</time>
      </trkpt>
      <trkpt lat="48.40395" lon="2.41699">
        <ele>102.57</ele>
        <time>2024-05-26T20:01:03.998Z</time>
      </trkpt>
      <trkpt lat="48.40393" lon="2.41707">
        <ele>103.94</ele>
        <time>2024-05-26T20:01:08.589Z</time>
      </trkpt>
      <trkpt lat="48.40392" lon="2.41712">
        <ele>105.31</ele>
        <time>2024-05-26T20:01:13.181Z</time>
      </trkpt>
      <trkpt lat="48.40389" lon="2.41725">
        <ele>106.73</ele>
        <time>2024-05-26T20:01:17.775Z</time>
      </trkpt>
      <trkpt lat="48.40388" lon="2.4173">
        <ele>108.12</ele>
        <time>2024-05-26T20:01:22.370Z</time>
      </trkpt>
      <trkpt lat="48.40383" lon="2.41747">
        <ele>109.61</ele>
        <time>2024-05-26T20:01:26.967Z</time>
      </trkpt>
      <trkpt lat="48.40376" lon="2.41771">
        <ele>111.12</ele>
        <time>2024-05-26T20:01:31.568Z</time>
      </trkpt>
      <trkpt lat="48.40372" lon="2.41794">
        <ele>112.56</ele>
        <time>2024-05-26T20:01:36.172Z</time>
      </trkpt>
      <trkpt lat="48.40373" lon="2.41804">
        <ele>113.85</ele>
        <time>2024-05-26T20:01:40.777Z</time>
      </trkpt>
      <trkpt lat="48.40373" lon="2.41814">
        <ele>115.13</ele>
        <time>2024-05-26T20:01:45.383Z</time>
      </trkpt>
      <trkpt lat="48.40371" lon="2.41827">
        <ele>116.37</ele>
        <time>2024-05-26T20:01:49.991Z</time>
      </trkpt>
      <trkpt lat="48.40367" lon="2.41842">
        <ele>117.59</ele>
        <time>2024-05-26T20:01:54.601Z</time>
      </trkpt>
      <trkpt lat="48.40361" lon="2.41856">
        <ele>118.77</ele>
        <time>2024-05-26T20:01:59.214Z</time>
      </trkpt>
      <trkpt lat="48.4036" lon="2.41857">
        <ele>119.85</ele>
        <time>2024-05-26T20:02:03.827Z</time>
      </trkpt>
      <trkpt lat="48.40361" lon="2.41858">
        <ele>120.89</ele>
        <time>2024-05-26T20:02:08.440Z</time>
      </trkpt>
      <trkpt lat="48.40359" lon="2.4186">
        <ele>121.88</ele>
        <time>2024-05-26T20:02:13.053Z</time>
      </trkpt>
      <trkpt lat="48.40357" lon="2.41866">
        <ele>122.83</ele>
        <time>2024-05-26T20:02:17.667Z</time>
      </trkpt>
      <trkpt lat="48.40347" lon="2.41885">
        <ele>123.77</ele>
        <time>2024-05-26T20:02:22.284Z</time>
      </trkpt>
      <trkpt lat="48.40345" lon="2.41888">
        <ele>124.61</ele>
        <time>2024-05-26T20:02:26.902Z</time>
      </trkpt>
      <trkpt lat="48.4034" lon="2.41897">
        <ele>125.4</ele>
        <time>2024-05-26T20:02:31.522Z</time>
      </trkpt>
      <trkpt lat="48.40345" lon="2.41912">
        <ele>126.12</ele>
        <time>2024-05-26T20:02:36.144Z</time>
      </trkpt>
      <trkpt lat="48.4036" lon="2.41931">
        <ele>126.78</ele>
        <time>2024-05-26T20:02:40.770Z</time>
      </trkpt>
      <trkpt lat="48.40377" lon="2.41953">
        <ele>127.4</ele>
        <time>2024-05-26T20:02:45.400Z</time>
      </trkpt>
      <trkpt lat="48.4038" lon="2.41958">
        <ele>127.96</ele>
        <time>2024-05-26T20:02:50.031Z</time>
      </trkpt>
      <trkpt lat="48.40392" lon="2.41977">
        <ele>128.47</ele>
        <time>2024-05-26T20:02:54.666Z</time>
      </trkpt>
      <trkpt lat="48.40411" lon="2.41989">
        <ele>128.92</ele>
        <time>2024-05-26T20:02:59.305Z</time>
      </trkpt>
      <trkpt lat="48.40442" lon="2.42002">
        <ele>129.27</ele>
        <time>2024-05-26T20:03:03.950Z</time>
      </trkpt>
      <trkpt lat="48.40465" lon="2.42013">
        <ele>129.62</ele>
        <time>2024-05-26T20:03:08.600Z</time>
      </trkpt>
      <trkpt lat="48.4047" lon="2.42011">
        <ele>129.94</ele>
        <time>2024-05-26T20:03:13.251Z</time>
      </trkpt>
      <trkpt lat="48.40484" lon="2.42003">
        <ele>130.2</ele>
        <time>2024-05-26T20:03:17.905Z</time>
      </trkpt>
      <trkpt lat="48.405" lon="2.42013">
        <ele>130.43</ele>
        <time>2024-05-26T20:03:22.563Z</time>
      </trkpt>
      <trkpt lat="48.4051" lon="2.42035">
        <ele>130.66</ele>
        <time>2024-05-26T20:03:27.224Z</time>
      </trkpt>
      <trkpt lat="48.40514" lon="2.4205">
        <ele>130.85</ele>
        <time>2024-05-26T20:03:31.887Z</time>
      </trkpt>
      <trkpt lat="48.40517" lon="2.42068">
        <ele>130.99</ele>
        <time>2024-05-26T20:03:36.553Z</time>
      </trkpt>
      <trkpt lat="48.40518" lon="2.42077">
        <ele>131.11</ele>
        <time>2024-05-26T20:03:41.220Z</time>
      </trkpt>
      <trkpt lat="48.40518" lon="2.42086">
        <ele>131.21</ele>
        <time>2024-05-26T20:03:45.888Z</time>
      </trkpt>
      <trkpt lat="48.40519" lon="2.4211">
        <ele>131.29</ele>
        <time>2024-05-26T20:03:50.559Z</time>
      </trkpt>
      <trkpt lat="48.40519" lon="2.42118">
        <ele>131.32</ele>
        <time>2024-05-26T20:03:55.231Z</time>
      </trkpt>
      <trkpt lat="48.40519" lon="2.42159">
        <ele>131.37</ele>
        <time>2024-05-26T20:03:59.909Z</time>
      </trkpt>
      <trkpt lat="48.40521" lon="2.42167">
        <ele>131.37</ele>
        <time>2024-05-26T20:04:04.588Z</time>
      </trkpt>
      <trkpt lat="48.40532" lon="2.42187">
        <ele>131.33</ele>
        <time>2024-05-26T20:04:09.270Z</time>
      </trkpt>
      <trkpt lat="48.40535" lon="2.42194">
        <ele>131.29</ele>
        <time>2024-05-26T20:04:13.953Z</time>
      </trkpt>
      <trkpt lat="48.40538" lon="2.42201">
        <ele>131.24</ele>
        <time>2024-05-26T20:04:18.638Z</time>
      </trkpt>
      <trkpt lat="48.40541" lon="2.42208">
        <ele>131.18</ele>
        <time>2024-05-26T20:04:23.324Z</time>
      </trkpt>
      <trkpt lat="48.40549" lon="2.42222">
        <ele>131.1</ele>
        <time>2024-05-26T20:04:28.012Z</time>
      </trkpt>
      <trkpt lat="48.40562" lon="2.42242">
        <ele>131</ele>
        <time>2024-05-26T20:04:32.704Z</time>
      </trkpt>
      <trkpt lat="48.40572" lon="2.42256">
        <ele>130.89</ele>
        <time>2024-05-26T20:04:37.399Z</time>
      </trkpt>
      <trkpt lat="48.40577" lon="2.42263">
        <ele>130.78</ele>
        <time>2024-05-26T20:04:42.095Z</time>
      </trkpt>
      <trkpt lat="48.40582" lon="2.42268">
        <ele>130.67</ele>
        <time>2024-05-26T20:04:46.792Z</time>
      </trkpt>
      <trkpt lat="48.40593" lon="2.42275">
        <ele>130.54</ele>
        <time>2024-05-26T20:04:51.492Z</time>
      </trkpt>
      <trkpt lat="48.40623" lon="2.42277">
        <ele>130.41</ele>
        <time>2024-05-26T20:04:56.198Z</time>
      </trkpt>
      <trkpt lat="48.40628" lon="2.42276">
        <ele>130.28</ele>
        <time>2024-05-26T20:05:00.905Z</time>
      </trkpt>
      <trkpt lat="48.40642" lon="2.42263">
        <ele>130.14</ele>
        <time>2024-05-26T20:05:05.615Z</time>
      </trkpt>
      <trkpt lat="48.40653" lon="2.42265">
        <ele>130.02</ele>
        <time>2024-05-26T20:05:10.327Z</time>
      </trkpt>
      <trkpt lat="48.40658" lon="2.4227">
        <ele>129.9</ele>
        <time>2024-05-26T20:05:15.040Z</time>
      </trkpt>
      <trkpt lat="48.40668" lon="2.42279">
        <ele>129.79</ele>
        <time>2024-05-26T20:05:19.756Z</time>
      </trkpt>
      <trkpt lat="48.40678" lon="2.42284">
        <ele>129.66</ele>
        <time>2024-05-26T20:05:24.474Z</time>
      </trkpt>
      <trkpt lat="48.407" lon="2.42294">
        <ele>129.53</ele>
        <time>2024-05-26T20:05:29.196Z</time>
      </trkpt>
      <trkpt lat="48.40705" lon="2.42296">
        <ele>129.4</ele>
        <time>2024-05-26T20:05:33.920Z</time>
      </trkpt>
      <trkpt lat="48.40728" lon="2.42299">
        <ele>129.23</ele>
        <time>2024-05-26T20:05:38.648Z</time>
      </trkpt>
      <trkpt lat="48.40734" lon="2.423">
        <ele>129.09</ele>
        <time>2024-05-26T20:05:43.377Z</time>
      </trkpt>
      <trkpt lat="48.40743" lon="2.42302">
        <ele>128.93</ele>
        <time>2024-05-26T20:05:48.108Z</time>
      </trkpt>
      <trkpt lat="48.4076" lon="2.42307">
        <ele>128.78</ele>
        <time>2024-05-26T20:05:52.843Z</time>
      </trkpt>
      <trkpt lat="48.40772" lon="2.42312">
        <ele>128.62</ele>
        <time>2024-05-26T20:05:57.580Z</time>
      </trkpt>
      <trkpt lat="48.40787" lon="2.42322">
        <ele>128.47</ele>
        <time>2024-05-26T20:06:02.320Z</time>
      </trkpt>
      <trkpt lat="48.40809" lon="2.42343">
        <ele>128.32</ele>
        <time>2024-05-26T20:06:07.066Z</time>
      </trkpt>
      <trkpt lat="48.40813" lon="2.42346">
        <ele>128.14</ele>
        <time>2024-05-26T20:06:11.813Z</time>
      </trkpt>
      <trkpt lat="48.40834" lon="2.4236">
        <ele>127.94</ele>
        <time>2024-05-26T20:06:16.564Z</time>
      </trkpt>
      <trkpt lat="48.4084" lon="2.42362">
        <ele>127.74</ele>
        <time>2024-05-26T20:06:21.316Z</time>
      </trkpt>
      <trkpt lat="48.40862" lon="2.42365">
        <ele>127.55</ele>
        <time>2024-05-26T20:06:26.073Z</time>
      </trkpt>
      <trkpt lat="48.40869" lon="2.42353">
        <ele>127.31</ele>
        <time>2024-05-26T20:06:30.832Z</time>
      </trkpt>
      <trkpt lat="48.40865" lon="2.42344">
        <ele>127.05</ele>
        <time>2024-05-26T20:06:35.592Z</time>
      </trkpt>
      <trkpt lat="48.40862" lon="2.42341">
        <ele>126.76</ele>
        <time>2024-05-26T20:06:40.353Z</time>
      </trkpt>
      <trkpt lat="48.40856" lon="2.42334">
        <ele>126.45</ele>
        <time>2024-05-26T20:06:45.116Z</time>
      </trkpt>
      <trkpt lat="48.40853" lon="2.42329">
        <ele>126.12</ele>
        <time>2024-05-26T20:06:49.880Z</time>
      </trkpt>
      <trkpt lat="48.4085" lon="2.42324">
        <ele>125.77</ele>
        <time>2024-05-26T20:06:54.644Z</time>
      </trkpt>
      <trkpt lat="48.40845" lon="2.4231">
        <ele>125.39</ele>
        <time>2024-05-26T20:06:59.411Z</time>
      </trkpt>
      <trkpt lat="48.4084" lon="2.4229">
        <ele>124.99</ele>
        <time>2024-05-26T20:07:04.180Z</time>
      </trkpt>
      <trkpt lat="48.40841" lon="2.42268">
        <ele>124.55</ele>
        <time>2024-05-26T20:07:08.952Z</time>
      </trkpt>
      <trkpt lat="48.40834" lon="2.42241">
        <ele>124.07</ele>
        <time>2024-05-26T20:07:13.728Z</time>
      </trkpt>
      <trkpt lat="48.40831" lon="2.42235">
        <ele>123.58</ele>
        <time>2024-05-26T20:07:18.505Z</time>
      </trkpt>
      <trkpt lat="48.40828" lon="2.42228">
        <ele>123.05</ele>
        <time>2024-05-26T20:07:23.283Z</time>
      </trkpt>
      <trkpt lat="48.40821" lon="2.42218">
        <ele>122.48</ele>
        <time>2024-05-26T20:07:28.063Z</time>
      </trkpt>
      <trkpt lat="48.40812" lon="2.42209">
        <ele>121.89</ele>
        <time>2024-05-26T20:07:32.845Z</time>
      </trkpt>
      <trkpt lat="48.40809" lon="2.42205">
        <ele>121.29</ele>
        <time>2024-05-26T20:07:37.628Z</time>
      </trkpt>
      <trkpt lat="48.40805" lon="2.42198">
        <ele>120.65</ele>
        <time>2024-05-26T20:07:42.412Z</time>
      </trkpt>
      <trkpt lat="48.408" lon="2.42183">
        <ele>119.97</ele>
        <time>2024-05-26T20:07:47.199Z</time>
      </trkpt>
      <trkpt lat="48.40793" lon="2.42163">
        <ele>119.25</ele>
        <time>2024-05-26T20:07:51.989Z</time>
      </trkpt>
      <trkpt lat="48.40782" lon="2.42137">
        <ele>118.54</ele>
        <time>2024-05-26T20:07:56.783Z</time>
      </trkpt>
      <trkpt lat="48.40764" lon="2.4211">
        <ele>117.84</ele>
        <time>2024-05-26T20:08:01.582Z</time>
      </trkpt>
      <trkpt lat="48.40754" lon="2.42104">
        <ele>117.08</ele>
        <time>2024-05-26T20:08:06.383Z</time>
      </trkpt>
      <trkpt lat="48.40748" lon="2.42103">
        <ele>116.3</ele>
        <time>2024-05-26T20:08:11.185Z</time>
      </trkpt>
      <trkpt lat="48.40738" lon="2.421">
        <ele>115.44</ele>
        <time>2024-05-26T20:08:15.989Z</time>
      </trkpt>
      <trkpt lat="48.40732" lon="2.421">
        <ele>114.6</ele>
        <time>2024-05-26T20:08:20.794Z</time>
      </trkpt>
      <trkpt lat="48.40727" lon="2.42099">
        <ele>113.74</ele>
        <time>2024-05-26T20:08:25.600Z</time>
      </trkpt>
      <trkpt lat="48.40722" lon="2.42092">
        <ele>112.88</ele>
        <time>2024-05-26T20:08:30.408Z</time>
      </trkpt>
      <trkpt lat="48.40721" lon="2.42077">
        <ele>112.03</ele>
        <time>2024-05-26T20:08:35.218Z</time>
      </trkpt>
      <trkpt lat="48.40718" lon="2.42064">
        <ele>111.14</ele>
        <time>2024-05-26T20:08:40.030Z</time>
      </trkpt>
      <trkpt lat="48.40715" lon="2.42055">
        <ele>110.24</ele>
        <time>2024-05-26T20:08:44.843Z</time>
      </trkpt>
      <trkpt lat="48.40713" lon="2.42047">
        <ele>109.33</ele>
        <time>2024-05-26T20:08:49.657Z</time>
      </trkpt>
      <trkpt lat="48.40712" lon="2.42026">
        <ele>108.36</ele>
        <time>2024-05-26T20:08:54.474Z</time>
      </trkpt>
      <trkpt lat="48.40719" lon="2.41998">
        <ele>107.41</ele>
        <time>2024-05-26T20:08:59.295Z</time>
      </trkpt>
      <trkpt lat="48.40722" lon="2.4199">
        <ele>106.49</ele>
        <time>2024-05-26T20:09:04.117Z</time>
      </trkpt>
      <trkpt lat="48.40733" lon="2.41952">
        <ele>105.45</ele>
        <time>2024-05-26T20:09:08.945Z</time>
      </trkpt>
      <trkpt lat="48.4074" lon="2.41911">
        <ele>104.33</ele>
        <time>2024-05-26T20:09:13.778Z</time>
      </trkpt>
      <trkpt lat="48.40743" lon="2.41907">
        <ele>103.45</ele>
        <time>2024-05-26T20:09:18.612Z</time>
      </trkpt>
      <trkpt lat="48.40743" lon="2.41906">
        <ele>102.6</ele>
        <time>2024-05-26T20:09:23.446Z</time>
      </trkpt>
      <trkpt lat="48.40743" lon="2.41906">
        <ele>101.76</ele>
        <time>2024-05-26T20:09:28.280Z</time>
      </trkpt>
      <trkpt lat="48.40743" lon="2.41907">
        <ele>100.95</ele>
        <time>2024-05-26T20:09:33.114Z</time>
      </trkpt>
      <trkpt lat="48.40743" lon="2.41907">
        <ele>100.15</ele>
        <time>2024-05-26T20:09:37.948Z</time>
      </trkpt>
      <trkpt lat="48.40743" lon="2.41906">
        <ele>99.37</ele>
        <time>2024-05-26T20:09:42.782Z</time>
      </trkpt>
      <trkpt lat="48.40743" lon="2.41906">
        <ele>98.61</ele>
        <time>2024-05-26T20:09:47.616Z</time>
      </trkpt>
      <trkpt lat="48.40743" lon="2.41906">
        <ele>97.87</ele>
        <time>2024-05-26T20:09:52.450Z</time>
      </trkpt>
      <trkpt lat="48.40743" lon="2.41906">
        <ele>97.15</ele>
        <time>2024-05-26T20:09:57.284Z</time>
      </trkpt>
      <trkpt lat="48.40744" lon="2.41905">
        <ele>96.44</ele>
        <time>2024-05-26T20:10:02.119Z</time>
      </trkpt>
      <trkpt lat="48.40744" lon="2.41905">
        <ele>95.75</ele>
        <time>2024-05-26T20:10:06.954Z</time>
      </trkpt>
      <trkpt lat="48.40743" lon="2.41905">
        <ele>95.08</ele>
        <time>2024-05-26T20:10:11.789Z</time>
      </trkpt>
      <trkpt lat="48.40743" lon="2.41905">
        <ele>94.43</ele>
        <time>2024-05-26T20:10:16.624Z</time>
      </trkpt>
      <trkpt lat="48.40744" lon="2.41904">
        <ele>93.78</ele>
        <time>2024-05-26T20:10:21.459Z</time>
      </trkpt>
      <trkpt lat="48.40743" lon="2.41902">
        <ele>93.15</ele>
        <time>2024-05-26T20:10:26.294Z</time>
      </trkpt>
      <trkpt lat="48.40743" lon="2.41902">
        <ele>92.54</ele>
        <time>2024-05-26T20:10:31.129Z</time>
      </trkpt>
      <trkpt lat="48.40743" lon="2.41902">
        <ele>91.94</ele>
        <time>2024-05-26T20:10:35.964Z</time>
      </trkpt>
      <trkpt lat="48.40743" lon="2.41901">
        <ele>91.36</ele>
        <time>2024-05-26T20:10:40.799Z</time>
      </trkpt>
      <trkpt lat="48.40743" lon="2.41901">
        <ele>90.78</ele>
        <time>2024-05-26T20:10:45.634Z</time>
      </trkpt>
      <trkpt lat="48.40744" lon="2.41901">
        <ele>90.22</ele>
        <time>2024-05-26T20:10:50.469Z</time>
      </trkpt>
      <trkpt lat="48.40744" lon="2.41901">
        <ele>89.66</ele>
        <time>2024-05-26T20:10:55.304Z</time>
      </trkpt>
      <trkpt lat="48.40745" lon="2.41901">
        <ele>89.12</ele>
        <time>2024-05-26T20:11:00.139Z</time>
      </trkpt>
      <trkpt lat="48.40744" lon="2.41902">
        <ele>88.58</ele>
        <time>2024-05-26T20:11:04.975Z</time>
      </trkpt>
      <trkpt lat="48.40744" lon="2.41902">
        <ele>88.05</ele>
        <time>2024-05-26T20:11:09.811Z</time>
      </trkpt>
      <trkpt lat="48.40744" lon="2.41902">
        <ele>87.52</ele>
        <time>2024-05-26T20:11:14.647Z</time>
      </trkpt>
      <trkpt lat="48.40744" lon="2.41901">
        <ele>87</ele>
        <time>2024-05-26T20:11:19.483Z</time>
      </trkpt>
      <trkpt lat="48.40744" lon="2.419">
        <ele>86.48</ele>
        <time>2024-05-26T20:11:24.319Z</time>
      </trkpt>
      <trkpt lat="48.40749" lon="2.41899">
        <ele>85.96</ele>
        <time>2024-05-26T20:11:29.156Z</time>
      </trkpt>
      <trkpt lat="48.40756" lon="2.41896">
        <ele>85.41</ele>
        <time>2024-05-26T20:11:33.994Z</time>
      </trkpt>
      <trkpt lat="48.40769" lon="2.41893">
        <ele>84.85</ele>
        <time>2024-05-26T20:11:38.835Z</time>
      </trkpt>
      <trkpt lat="48.40778" lon="2.41874">
        <ele>84.27</ele>
        <time>2024-05-26T20:11:43.679Z</time>
      </trkpt>
      <trkpt lat="48.40793" lon="2.41862">
        <ele>83.73</ele>
        <time>2024-05-26T20:11:48.526Z</time>
      </trkpt>
      <trkpt lat="48.40807" lon="2.41853">
        <ele>83.22</ele>
        <time>2024-05-26T20:11:53.377Z</time>
      </trkpt>
      <trkpt lat="48.40812" lon="2.4185">
        <ele>82.76</ele>
        <time>2024-05-26T20:11:58.229Z</time>
      </trkpt>
      <trkpt lat="48.40827" lon="2.41827">
        <ele>82.28</ele>
        <time>2024-05-26T20:12:03.085Z</time>
      </trkpt>
      <trkpt lat="48.40831" lon="2.41818">
        <ele>81.84</ele>
        <time>2024-05-26T20:12:07.942Z</time>
      </trkpt>
      <trkpt lat="48.40832" lon="2.4181">
        <ele>81.43</ele>
        <time>2024-05-26T20:12:12.800Z</time>
      </trkpt>
      <trkpt lat="48.40831" lon="2.41796">
        <ele>81.04</ele>
        <time>2024-05-26T20:12:17.660Z</time>
      </trkpt>
      <trkpt lat="48.40822" lon="2.41779">
        <ele>80.67</ele>
        <time>2024-05-26T20:12:22.523Z</time>
      </trkpt>
      <trkpt lat="48.4082" lon="2.41774">
        <ele>80.32</ele>
        <time>2024-05-26T20:12:27.387Z</time>
      </trkpt>
      <trkpt lat="48.40808" lon="2.41759">
        <ele>79.98</ele>
        <time>2024-05-26T20:12:32.254Z</time>
      </trkpt>
      <trkpt lat="48.40794" lon="2.41747">
        <ele>79.67</ele>
        <time>2024-05-26T20:12:37.124Z</time>
      </trkpt>
      <trkpt lat="48.40783" lon="2.41731">
        <ele>79.38</ele>
        <time>2024-05-26T20:12:41.997Z</time>
      </trkpt>
      <trkpt lat="48.4077" lon="2.4171">
        <ele>79.09</ele>
        <time>2024-05-26T20:12:46.874Z</time>
      </trkpt>
      <trkpt lat="48.40767" lon="2.41706">
        <ele>78.83</ele>
        <time>2024-05-26T20:12:51.752Z</time>
      </trkpt>
      <trkpt lat="48.40751" lon="2.41684">
        <ele>78.56</ele>
        <time>2024-05-26T20:12:56.634Z</time>
      </trkpt>
      <trkpt lat="48.40747" lon="2.41678">
        <ele>78.35</ele>
        <time>2024-05-26T20:13:01.517Z</time>
      </trkpt>
      <trkpt lat="48.40733" lon="2.41655">
        <ele>78.16</ele>
        <time>2024-05-26T20:13:06.404Z</time>
      </trkpt>
      <trkpt lat="48.40729" lon="2.41641">
        <ele>78.01</ele>
        <time>2024-05-26T20:13:11.293Z</time>
      </trkpt>
      <trkpt lat="48.40733" lon="2.41627">
        <ele>77.89</ele>
        <time>2024-05-26T20:13:16.185Z</time>
      </trkpt>
      <trkpt lat="48.40736" lon="2.41624">
        <ele>77.79</ele>
        <time>2024-05-26T20:13:21.077Z</time>
      </trkpt>
      <trkpt lat="48.40749" lon="2.4161">
        <ele>77.72</ele>
        <time>2024-05-26T20:13:25.973Z</time>
      </trkpt>
      <trkpt lat="48.40757" lon="2.41601">
        <ele>77.7</ele>
        <time>2024-05-26T20:13:30.871Z</time>
      </trkpt>
      <trkpt lat="48.40776" lon="2.41579">
        <ele>77.72</ele>
        <time>2024-05-26T20:13:35.773Z</time>
      </trkpt>
      <trkpt lat="48.40784" lon="2.4157">
        <ele>77.7</ele>
        <time>2024-05-26T20:13:40.677Z</time>
      </trkpt>
      <trkpt lat="48.40795" lon="2.41562">
        <ele>77.72</ele>
        <time>2024-05-26T20:13:45.584Z</time>
      </trkpt>
      <trkpt lat="48.40803" lon="2.41557">
        <ele>77.77</ele>
        <time>2024-05-26T20:13:50.492Z</time>
      </trkpt>
      <trkpt lat="48.40807" lon="2.41555">
        <ele>77.83</ele>
        <time>2024-05-26T20:13:55.401Z</time>
      </trkpt>
      <trkpt lat="48.40816" lon="2.41551">
        <ele>77.91</ele>
        <time>2024-05-26T20:14:00.312Z</time>
      </trkpt>
      <trkpt lat="48.40826" lon="2.41539">
        <ele>78.01</ele>
        <time>2024-05-26T20:14:05.226Z</time>
      </trkpt>
      <trkpt lat="48.40827" lon="2.4153">
        <ele>78.12</ele>
        <time>2024-05-26T20:14:10.141Z</time>
      </trkpt>
      <trkpt lat="48.40828" lon="2.41508">
        <ele>78.24</ele>
        <time>2024-05-26T20:14:15.059Z</time>
      </trkpt>
      <trkpt lat="48.40822" lon="2.41489">
        <ele>78.38</ele>
        <time>2024-05-26T20:14:19.980Z</time>
      </trkpt>
      <trkpt lat="48.40819" lon="2.41486">
        <ele>78.52</ele>
        <time>2024-05-26T20:14:24.901Z</time>
      </trkpt>
      <trkpt lat="48.40806" lon="2.4147">
        <ele>78.69</ele>
        <time>2024-05-26T20:14:29.826Z</time>
      </trkpt>
      <trkpt lat="48.408" lon="2.41449">
        <ele>78.88</ele>
        <time>2024-05-26T20:14:34.754Z</time>
      </trkpt>
      <trkpt lat="48.40793" lon="2.41433">
        <ele>79.03</ele>
        <time>2024-05-26T20:14:39.684Z</time>
      </trkpt>
      <trkpt lat="48.40789" lon="2.41421">
        <ele>79.19</ele>
        <time>2024-05-26T20:14:44.616Z</time>
      </trkpt>
      <trkpt lat="48.40788" lon="2.41403">
        <ele>79.35</ele>
        <time>2024-05-26T20:14:49.551Z</time>
      </trkpt>
      <trkpt lat="48.40789" lon="2.41398">
        <ele>79.54</ele>
        <time>2024-05-26T20:14:54.486Z</time>
      </trkpt>
      <trkpt lat="48.40787" lon="2.41386">
        <ele>79.73</ele>
        <time>2024-05-26T20:14:59.423Z</time>
      </trkpt>
      <trkpt lat="48.40785" lon="2.41382">
        <ele>79.91</ele>
        <time>2024-05-26T20:15:04.361Z</time>
      </trkpt>
      <trkpt lat="48.40774" lon="2.41358">
        <ele>80.09</ele>
        <time>2024-05-26T20:15:09.303Z</time>
      </trkpt>
      <trkpt lat="48.40771" lon="2.41339">
        <ele>80.28</ele>
        <time>2024-05-26T20:15:14.247Z</time>
      </trkpt>
      <trkpt lat="48.4077" lon="2.41333">
        <ele>80.48</ele>
        <time>2024-05-26T20:15:19.192Z</time>
      </trkpt>
      <trkpt lat="48.40761" lon="2.41319">
        <ele>80.67</ele>
        <time>2024-05-26T20:15:24.140Z</time>
      </trkpt>
      <trkpt lat="48.40758" lon="2.41314">
        <ele>80.86</ele>
        <time>2024-05-26T20:15:29.088Z</time>
      </trkpt>
      <trkpt lat="48.40755" lon="2.41303">
        <ele>81.05</ele>
        <time>2024-05-26T20:15:34.038Z</time>
      </trkpt>
      <trkpt lat="48.40756" lon="2.41299">
        <ele>81.24</ele>
        <time>2024-05-26T20:15:38.988Z</time>
      </trkpt>
      <trkpt lat="48.40766" lon="2.41297">
        <ele>81.43</ele>
        <time>2024-05-26T20:15:43.940Z</time>
      </trkpt>
      <trkpt lat="48.4077" lon="2.41283">
        <ele>81.62</ele>
        <time>2024-05-26T20:15:48.894Z</time>
      </trkpt>
      <trkpt lat="48.4077" lon="2.41272">
        <ele>81.8</ele>
        <time>2024-05-26T20:15:53.850Z</time>
      </trkpt>
      <trkpt lat="48.40771" lon="2.4126">
        <ele>81.96</ele>
        <time>2024-05-26T20:15:58.808Z</time>
      </trkpt>
      <trkpt lat="48.40768" lon="2.41245">
        <ele>82.09</ele>
        <time>2024-05-26T20:16:03.768Z</time>
      </trkpt>
      <trkpt lat="48.40767" lon="2.4124">
        <ele>82.22</ele>
        <time>2024-05-26T20:16:08.729Z</time>
      </trkpt>
      <trkpt lat="48.40768" lon="2.41229">
        <ele>82.33</ele>
        <time>2024-05-26T20:16:13.691Z</time>
      </trkpt>
      <trkpt lat="48.40775" lon="2.41216">
        <ele>82.44</ele>
        <time>2024-05-26T20:16:18.655Z</time>
      </trkpt>
      <trkpt lat="48.40778" lon="2.4121">
        <ele>82.54</ele>
        <time>2024-05-26T20:16:23.620Z</time>
      </trkpt>
      <trkpt lat="48.40781" lon="2.41205">
        <ele>82.62</ele>
        <time>2024-05-26T20:16:28.586Z</time>
      </trkpt>
      <trkpt lat="48.40786" lon="2.41193">
        <ele>82.7</ele>
        <time>2024-05-26T20:16:33.554Z</time>
      </trkpt>
      <trkpt lat="48.4079" lon="2.41189">
        <ele>82.76</ele>
        <time>2024-05-26T20:16:38.523Z</time>
      </trkpt>
      <trkpt lat="48.40797" lon="2.41184">
        <ele>82.8</ele>
        <time>2024-05-26T20:16:43.494Z</time>
      </trkpt>
      <trkpt lat="48.408" lon="2.4118">
        <ele>82.84</ele>
        <time>2024-05-26T20:16:48.465Z</time>
      </trkpt>
      <trkpt lat="48.40802" lon="2.41176">
        <ele>82.86</ele>
        <time>2024-05-26T20:16:53.437Z</time>
      </trkpt>
      <trkpt lat="48.40805" lon="2.41159">
        <ele>82.86</ele>
        <time>2024-05-26T20:16:58.411Z</time>
      </trkpt>
      <trkpt lat="48.40804" lon="2.41154">
        <ele>82.82</ele>
        <time>2024-05-26T20:17:03.386Z</time>
      </trkpt>
      <trkpt lat="48.40799" lon="2.41144">
        <ele>82.74</ele>
        <time>2024-05-26T20:17:08.363Z</time>
      </trkpt>
      <trkpt lat="48.40787" lon="2.41129">
        <ele>82.62</ele>
        <time>2024-05-26T20:17:13.343Z</time>
      </trkpt>
      <trkpt lat="48.40788" lon="2.41112">
        <ele>82.52</ele>
        <time>2024-05-26T20:17:18.325Z</time>
      </trkpt>
      <trkpt lat="48.40795" lon="2.41103">
        <ele>82.45</ele>
        <time>2024-05-26T20:17:23.309Z</time>
      </trkpt>
      <trkpt lat="48.40797" lon="2.411">
        <ele>82.33</ele>
        <time>2024-05-26T20:17:28.293Z</time>
      </trkpt>
      <trkpt lat="48.40799" lon="2.41085">
        <ele>82.21</ele>
        <time>2024-05-26T20:17:33.279Z</time>
      </trkpt>
      <trkpt lat="48.40799" lon="2.41079">
        <ele>82.05</ele>
        <time>2024-05-26T20:17:38.266Z</time>
      </trkpt>
      <trkpt lat="48.40799" lon="2.41072">
        <ele>81.86</ele>
        <time>2024-05-26T20:17:43.254Z</time>
      </trkpt>
      <trkpt lat="48.40804" lon="2.41055">
        <ele>81.67</ele>
        <time>2024-05-26T20:17:48.245Z</time>
      </trkpt>
      <trkpt lat="48.40803" lon="2.41036">
        <ele>81.46</ele>
        <time>2024-05-26T20:17:53.238Z</time>
      </trkpt>
      <trkpt lat="48.40794" lon="2.41021">
        <ele>81.21</ele>
        <time>2024-05-26T20:17:58.234Z</time>
      </trkpt>
      <trkpt lat="48.40789" lon="2.40998">
        <ele>80.94</ele>
        <time>2024-05-26T20:18:03.233Z</time>
      </trkpt>
      <trkpt lat="48.40791" lon="2.40984">
        <ele>80.68</ele>
        <time>2024-05-26T20:18:08.234Z</time>
      </trkpt>
      <trkpt lat="48.40801" lon="2.40972">
        <ele>80.41</ele>
        <time>2024-05-26T20:18:13.238Z</time>
      </trkpt>
      <trkpt lat="48.40812" lon="2.40958">
        <ele>80.16</ele>
        <time>2024-05-26T20:18:18.245Z</time>
      </trkpt>
      <trkpt lat="48.40821" lon="2.40949">
        <ele>79.86</ele>
        <time>2024-05-26T20:18:23.254Z</time>
      </trkpt>
      <trkpt lat="48.40821" lon="2.40946">
        <ele>79.52</ele>
        <time>2024-05-26T20:18:28.263Z</time>
      </trkpt>
      <trkpt lat="48.40819" lon="2.40938">
        <ele>79.17</ele>
        <time>2024-05-26T20:18:33.273Z</time>
      </trkpt>
      <trkpt lat="48.40813" lon="2.40924">
        <ele>78.8</ele>
        <time>2024-05-26T20:18:38.285Z</time>
      </trkpt>
      <trkpt lat="48.40803" lon="2.40901">
        <ele>78.44</ele>
        <time>2024-05-26T20:18:43.301Z</time>
      </trkpt>
      <trkpt lat="48.40798" lon="2.40888">
        <ele>78.07</ele>
        <time>2024-05-26T20:18:48.319Z</time>
      </trkpt>
      <trkpt lat="48.40783" lon="2.40854">
        <ele>77.67</ele>
        <time>2024-05-26T20:18:53.343Z</time>
      </trkpt>
      <trkpt lat="48.40775" lon="2.40842">
        <ele>77.28</ele>
        <time>2024-05-26T20:18:58.369Z</time>
      </trkpt>
      <trkpt lat="48.40771" lon="2.40837">
        <ele>76.91</ele>
        <time>2024-05-26T20:19:03.396Z</time>
      </trkpt>
      <trkpt lat="48.40753" lon="2.40817">
        <ele>76.5</ele>
        <time>2024-05-26T20:19:08.427Z</time>
      </trkpt>
      <trkpt lat="48.40743" lon="2.40806">
        <ele>76.15</ele>
        <time>2024-05-26T20:19:13.461Z</time>
      </trkpt>
      <trkpt lat="48.40733" lon="2.40795">
        <ele>75.82</ele>
        <time>2024-05-26T20:19:18.497Z</time>
      </trkpt>
      <trkpt lat="48.40724" lon="2.40784">
        <ele>75.52</ele>
        <time>2024-05-26T20:19:23.536Z</time>
      </trkpt>
      <trkpt lat="48.40714" lon="2.40773">
        <ele>75.24</ele>
        <time>2024-05-26T20:19:28.577Z</time>
      </trkpt>
      <trkpt lat="48.40691" lon="2.4075">
        <ele>74.95</ele>
        <time>2024-05-26T20:19:33.624Z</time>
      </trkpt>
      <trkpt lat="48.40668" lon="2.40725">
        <ele>74.72</ele>
        <time>2024-05-26T20:19:38.676Z</time>
      </trkpt>
      <trkpt lat="48.40656" lon="2.40712">
        <ele>74.59</ele>
        <time>2024-05-26T20:19:43.731Z</time>
      </trkpt>
      <trkpt lat="48.4063" lon="2.40683">
        <ele>74.49</ele>
        <time>2024-05-26T20:19:48.793Z</time>
      </trkpt>
      <trkpt lat="48.40594" lon="2.40654">
        <ele>74.44</ele>
        <time>2024-05-26T20:19:53.863Z</time>
      </trkpt>
      <trkpt lat="48.40588" lon="2.4065">
        <ele>74.5</ele>
        <time>2024-05-26T20:19:58.934Z</time>
      </trkpt>
      <trkpt lat="48.40569" lon="2.40635">
        <ele>74.59</ele>
        <time>2024-05-26T20:20:04.010Z</time>
      </trkpt>
      <trkpt lat="48.40536" lon="2.40609">
        <ele>74.73</ele>
        <time>2024-05-26T20:20:09.093Z</time>
      </trkpt>
      <trkpt lat="48.40538" lon="2.40602">
        <ele>75</ele>
        <time>2024-05-26T20:20:14.177Z</time>
      </trkpt>
      <trkpt lat="48.40541" lon="2.40602">
        <ele>75.34</ele>
        <time>2024-05-26T20:20:19.262Z</time>
      </trkpt>
      <trkpt lat="48.40544" lon="2.40601">
        <ele>75.76</ele>
        <time>2024-05-26T20:20:24.347Z</time>
      </trkpt>
      <trkpt lat="48.40555" lon="2.40597">
        <ele>76.25</ele>
        <time>2024-05-26T20:20:29.434Z</time>
      </trkpt>
      <trkpt lat="48.40576" lon="2.40586">
        <ele>76.88</ele>
        <time>2024-05-26T20:20:34.526Z</time>
      </trkpt>
      <trkpt lat="48.40597" lon="2.40573">
        <ele>77.64</ele>
        <time>2024-05-26T20:20:39.622Z</time>
      </trkpt>
      <trkpt lat="48.406" lon="2.4057">
        <ele>78.38</ele>
        <time>2024-05-26T20:20:44.719Z</time>
      </trkpt>
      <trkpt lat="48.40631" lon="2.40551">
        <ele>79.25</ele>
        <time>2024-05-26T20:20:49.823Z</time>
      </trkpt>
      <trkpt lat="48.40648" lon="2.40541">
        <ele>80.15</ele>
        <time>2024-05-26T20:20:54.931Z</time>
      </trkpt>
      <trkpt lat="48.40652" lon="2.40538">
        <ele>81.11</ele>
        <time>2024-05-26T20:21:00.039Z</time>
      </trkpt>
      <trkpt lat="48.40675" lon="2.40525">
        <ele>82.22</ele>
        <time>2024-05-26T20:21:05.152Z</time>
      </trkpt>
      <trkpt lat="48.40689" lon="2.40513">
        <ele>83.38</ele>
        <time>2024-05-26T20:21:10.269Z</time>
      </trkpt>
      <trkpt lat="48.40707" lon="2.40505">
        <ele>84.62</ele>
        <time>2024-05-26T20:21:15.389Z</time>
      </trkpt>
      <trkpt lat="48.40723" lon="2.40494">
        <ele>85.94</ele>
        <time>2024-05-26T20:21:20.513Z</time>
      </trkpt>
      <trkpt lat="48.40737" lon="2.40485">
        <ele>87.29</ele>
        <time>2024-05-26T20:21:25.640Z</time>
      </trkpt>
      <trkpt lat="48.40746" lon="2.40474">
        <ele>88.7</ele>
        <time>2024-05-26T20:21:30.769Z</time>
      </trkpt>
      <trkpt lat="48.40753" lon="2.40469">
        <ele>90.12</ele>
        <time>2024-05-26T20:21:35.900Z</time>
      </trkpt>
      <trkpt lat="48.40754" lon="2.40468">
        <ele>91.53</ele>
        <time>2024-05-26T20:21:41.031Z</time>
      </trkpt>
      <trkpt lat="48.40756" lon="2.40467">
        <ele>92.99</ele>
        <time>2024-05-26T20:21:46.162Z</time>
      </trkpt>
      <trkpt lat="48.40761" lon="2.4047">
        <ele>94.49</ele>
        <time>2024-05-26T20:21:51.295Z</time>
      </trkpt>
      <trkpt lat="48.40768" lon="2.40473">
        <ele>96.04</ele>
        <time>2024-05-26T20:21:56.429Z</time>
      </trkpt>
      <trkpt lat="48.40769" lon="2.40474">
        <ele>97.58</ele>
        <time>2024-05-26T20:22:01.563Z</time>
      </trkpt>
      <trkpt lat="48.40778" lon="2.40477">
        <ele>99.18</ele>
        <time>2024-05-26T20:22:06.699Z</time>
      </trkpt>
      <trkpt lat="48.4079" lon="2.40472">
        <ele>100.84</ele>
        <time>2024-05-26T20:22:11.837Z</time>
      </trkpt>
      <trkpt lat="48.40797" lon="2.40468">
        <ele>102.48</ele>
        <time>2024-05-26T20:22:16.977Z</time>
      </trkpt>
      <trkpt lat="48.40805" lon="2.40464">
        <ele>104.15</ele>
        <time>2024-05-26T20:22:22.119Z</time>
      </trkpt>
      <trkpt lat="48.40808" lon="2.40466">
        <ele>105.75</ele>
        <time>2024-05-26T20:22:27.261Z</time>
      </trkpt>
      <trkpt lat="48.40814" lon="2.40469">
        <ele>107.36</ele>
        <time>2024-05-26T20:22:32.405Z</time>
      </trkpt>
      <trkpt lat="48.40822" lon="2.40475">
        <ele>108.98</ele>
        <time>2024-05-26T20:22:37.550Z</time>
      </trkpt>
      <trkpt lat="48.40824" lon="2.40478">
        <ele>110.53</ele>
        <time>2024-05-26T20:22:42.696Z</time>
      </trkpt>
      <trkpt lat="48.40832" lon="2.40492">
        <ele>112.08</ele>
        <time>2024-05-26T20:22:47.844Z</time>
      </trkpt>
      <trkpt lat="48.40834" lon="2.40495">
        <ele>113.6</ele>
        <time>2024-05-26T20:22:52.993Z</time>
      </trkpt>
      <trkpt lat="48.40842" lon="2.40504">
        <ele>115.11</ele>
        <time>2024-05-26T20:22:58.144Z</time>
      </trkpt>
      <trkpt lat="48.40846" lon="2.40509">
        <ele>116.58</ele>
        <time>2024-05-26T20:23:03.296Z</time>
      </trkpt>
      <trkpt lat="48.40853" lon="2.40514">
        <ele>118.04</ele>
        <time>2024-05-26T20:23:08.450Z</time>
      </trkpt>
      <trkpt lat="48.40872" lon="2.40518">
        <ele>119.54</ele>
        <time>2024-05-26T20:23:13.607Z</time>
      </trkpt>
      <trkpt lat="48.40873" lon="2.40518">
        <ele>120.88</ele>
        <time>2024-05-26T20:23:18.765Z</time>
      </trkpt>
      <trkpt lat="48.40885" lon="2.40514">
        <ele>122.26</ele>
        <time>2024-05-26T20:23:23.925Z</time>
      </trkpt>
      <trkpt lat="48.40893" lon="2.4051">
        <ele>123.53</ele>
        <time>2024-05-26T20:23:29.087Z</time>
      </trkpt>
      <trkpt lat="48.40899" lon="2.40507">
        <ele>124.73</ele>
        <time>2024-05-26T20:23:34.250Z</time>
      </trkpt>
      <trkpt lat="48.40906" lon="2.4051">
        <ele>125.86</ele>
        <time>2024-05-26T20:23:39.414Z</time>
      </trkpt>
      <trkpt lat="48.40908" lon="2.40511">
        <ele>126.91</ele>
        <time>2024-05-26T20:23:44.579Z</time>
      </trkpt>
      <trkpt lat="48.40916" lon="2.40517">
        <ele>127.91</ele>
        <time>2024-05-26T20:23:49.746Z</time>
      </trkpt>
      <trkpt lat="48.40918" lon="2.40518">
        <ele>128.81</ele>
        <time>2024-05-26T20:23:54.913Z</time>
      </trkpt>
      <trkpt lat="48.40937" lon="2.4052">
        <ele>129.68</ele>
        <time>2024-05-26T20:24:00.084Z</time>
      </trkpt>
      <trkpt lat="48.4094" lon="2.4052">
        <ele>130.44</ele>
        <time>2024-05-26T20:24:05.255Z</time>
      </trkpt>
      <trkpt lat="48.40952" lon="2.40519">
        <ele>131.12</ele>
        <time>2024-05-26T20:24:10.429Z</time>
      </trkpt>
      <trkpt lat="48.40962" lon="2.40513">
        <ele>131.73</ele>
        <time>2024-05-26T20:24:15.605Z</time>
      </trkpt>
      <trkpt lat="48.40973" lon="2.40503">
        <ele>132.25</ele>
        <time>2024-05-26T20:24:20.784Z</time>
      </trkpt>
      <trkpt lat="48.40976" lon="2.405">
        <ele>132.66</ele>
        <time>2024-05-26T20:24:25.963Z</time>
      </trkpt>
      <trkpt lat="48.40991" lon="2.40485">
        <ele>132.98</ele>
        <time>2024-05-26T20:24:31.146Z</time>
      </trkpt>
      <trkpt lat="48.41005" lon="2.40469">
        <ele>133.22</ele>
        <time>2024-05-26T20:24:36.333Z</time>
      </trkpt>
      <trkpt lat="48.41008" lon="2.40465">
        <ele>133.37</ele>
        <time>2024-05-26T20:24:41.520Z</time>
      </trkpt>
      <trkpt lat="48.41019" lon="2.40454">
        <ele>133.42</ele>
        <time>2024-05-26T20:24:46.710Z</time>
      </trkpt>
      <trkpt lat="48.41025" lon="2.40441">
        <ele>133.39</ele>
        <time>2024-05-26T20:24:51.902Z</time>
      </trkpt>
      <trkpt lat="48.41029" lon="2.40435">
        <ele>133.26</ele>
        <time>2024-05-26T20:24:57.095Z</time>
      </trkpt>
      <trkpt lat="48.41035" lon="2.40431">
        <ele>133.03</ele>
        <time>2024-05-26T20:25:02.289Z</time>
      </trkpt>
      <trkpt lat="48.41041" lon="2.40429">
        <ele>132.71</ele>
        <time>2024-05-26T20:25:07.485Z</time>
      </trkpt>
      <trkpt lat="48.41046" lon="2.40432">
        <ele>132.32</ele>
        <time>2024-05-26T20:25:12.682Z</time>
      </trkpt>
      <trkpt lat="48.41056" lon="2.40446">
        <ele>131.82</ele>
        <time>2024-05-26T20:25:17.882Z</time>
      </trkpt>
      <trkpt lat="48.41061" lon="2.40459">
        <ele>131.23</ele>
        <time>2024-05-26T20:25:23.084Z</time>
      </trkpt>
      <trkpt lat="48.41064" lon="2.40472">
        <ele>130.56</ele>
        <time>2024-05-26T20:25:28.287Z</time>
      </trkpt>
      <trkpt lat="48.41065" lon="2.40481">
        <ele>129.82</ele>
        <time>2024-05-26T20:25:33.492Z</time>
      </trkpt>
      <trkpt lat="48.41068" lon="2.40489">
        <ele>128.98</ele>
        <time>2024-05-26T20:25:38.698Z</time>
      </trkpt>
      <trkpt lat="48.41069" lon="2.4049">
        <ele>128.08</ele>
        <time>2024-05-26T20:25:43.904Z</time>
      </trkpt>
      <trkpt lat="48.41073" lon="2.40493">
        <ele>127.08</ele>
        <time>2024-05-26T20:25:49.111Z</time>
      </trkpt>
      <trkpt lat="48.41077" lon="2.40497">
        <ele>126.01</ele>
        <time>2024-05-26T20:25:54.319Z</time>
      </trkpt>
      <trkpt lat="48.41079" lon="2.40499">
        <ele>124.87</ele>
        <time>2024-05-26T20:25:59.527Z</time>
      </trkpt>
      <trkpt lat="48.41081" lon="2.40501">
        <ele>123.66</ele>
        <time>2024-05-26T20:26:04.736Z</time>
      </trkpt>
      <trkpt lat="48.41087" lon="2.40508">
        <ele>122.37</ele>
        <time>2024-05-26T20:26:09.946Z</time>
      </trkpt>
      <trkpt lat="48.41104" lon="2.40524">
        <ele>120.97</ele>
        <time>2024-05-26T20:26:15.160Z</time>
      </trkpt>
      <trkpt lat="48.41111" lon="2.40536">
        <ele>119.57</ele>
        <time>2024-05-26T20:26:20.377Z</time>
      </trkpt>
      <trkpt lat="48.41117" lon="2.40532">
        <ele>118.09</ele>
        <time>2024-05-26T20:26:25.595Z</time>
      </trkpt>
      <trkpt lat="48.41127" lon="2.40521">
        <ele>116.51</ele>
        <time>2024-05-26T20:26:30.815Z</time>
      </trkpt>
      <trkpt lat="48.41131" lon="2.40516">
        <ele>114.94</ele>
        <time>2024-05-26T20:26:36.036Z</time>
      </trkpt>
      <trkpt lat="48.41136" lon="2.40509">
        <ele>113.31</ele>
        <time>2024-05-26T20:26:41.259Z</time>
      </trkpt>
      <trkpt lat="48.4114" lon="2.405">
        <ele>111.66</ele>
        <time>2024-05-26T20:26:46.483Z</time>
      </trkpt>
      <trkpt lat="48.41148" lon="2.40481">
        <ele>109.96</ele>
        <time>2024-05-26T20:26:51.710Z</time>
      </trkpt>
      <trkpt lat="48.41151" lon="2.40473">
        <ele>108.26</ele>
        <time>2024-05-26T20:26:56.938Z</time>
      </trkpt>
      <trkpt lat="48.41155" lon="2.40468">
        <ele>106.56</ele>
        <time>2024-05-26T20:27:02.167Z</time>
      </trkpt>
      <trkpt lat="48.41162" lon="2.4047">
        <ele>104.85</ele>
        <time>2024-05-26T20:27:07.398Z</time>
      </trkpt>
      <trkpt lat="48.41165" lon="2.40471">
        <ele>103.17</ele>
        <time>2024-05-26T20:27:12.629Z</time>
      </trkpt>
      <trkpt lat="48.41173" lon="2.40465">
        <ele>101.42</ele>
        <time>2024-05-26T20:27:17.862Z</time>
      </trkpt>
      <trkpt lat="48.41175" lon="2.40464">
        <ele>99.77</ele>
        <time>2024-05-26T20:27:23.096Z</time>
      </trkpt>
      <trkpt lat="48.41181" lon="2.40467">
        <ele>98.1</ele>
        <time>2024-05-26T20:27:28.331Z</time>
      </trkpt>
      <trkpt lat="48.41187" lon="2.40464">
        <ele>96.45</ele>
        <time>2024-05-26T20:27:33.567Z</time>
      </trkpt>
      <trkpt lat="48.41189" lon="2.40463">
        <ele>94.88</ele>
        <time>2024-05-26T20:27:38.804Z</time>
      </trkpt>
      <trkpt lat="48.412" lon="2.40461">
        <ele>93.18</ele>
        <time>2024-05-26T20:27:44.043Z</time>
      </trkpt>
      <trkpt lat="48.41215" lon="2.40463">
        <ele>91.48</ele>
        <time>2024-05-26T20:27:49.285Z</time>
      </trkpt>
      <trkpt lat="48.41219" lon="2.40473">
        <ele>90.08</ele>
        <time>2024-05-26T20:27:54.528Z</time>
      </trkpt>
      <trkpt lat="48.4122" lon="2.40477">
        <ele>88.76</ele>
        <time>2024-05-26T20:27:59.772Z</time>
      </trkpt>
      <trkpt lat="48.41222" lon="2.40491">
        <ele>87.57</ele>
        <time>2024-05-26T20:28:05.018Z</time>
      </trkpt>
      <trkpt lat="48.41223" lon="2.40496">
        <ele>86.4</ele>
        <time>2024-05-26T20:28:10.265Z</time>
      </trkpt>
      <trkpt lat="48.4123" lon="2.40512">
        <ele>85.32</ele>
        <time>2024-05-26T20:28:15.514Z</time>
      </trkpt>
      <trkpt lat="48.41243" lon="2.40515">
        <ele>84.21</ele>
        <time>2024-05-26T20:28:20.766Z</time>
      </trkpt>
      <trkpt lat="48.41254" lon="2.40511">
        <ele>83.19</ele>
        <time>2024-05-26T20:28:26.020Z</time>
      </trkpt>
      <trkpt lat="48.41266" lon="2.40507">
        <ele>82.28</ele>
        <time>2024-05-26T20:28:31.277Z</time>
      </trkpt>
      <trkpt lat="48.41275" lon="2.40516">
        <ele>81.53</ele>
        <time>2024-05-26T20:28:36.536Z</time>
      </trkpt>
      <trkpt lat="48.4128" lon="2.40529">
        <ele>80.89</ele>
        <time>2024-05-26T20:28:41.797Z</time>
      </trkpt>
      <trkpt lat="48.41281" lon="2.40536">
        <ele>80.31</ele>
        <time>2024-05-26T20:28:47.059Z</time>
      </trkpt>
      <trkpt lat="48.41282" lon="2.40543">
        <ele>79.82</ele>
        <time>2024-05-26T20:28:52.322Z</time>
      </trkpt>
      <trkpt lat="48.41285" lon="2.40561">
        <ele>79.45</ele>
        <time>2024-05-26T20:28:57.587Z</time>
      </trkpt>
      <trkpt lat="48.41287" lon="2.40567">
        <ele>79.13</ele>
        <time>2024-05-26T20:29:02.853Z</time>
      </trkpt>
      <trkpt lat="48.41297" lon="2.40593">
        <ele>78.92</ele>
        <time>2024-05-26T20:29:08.123Z</time>
      </trkpt>
      <trkpt lat="48.413" lon="2.406">
        <ele>78.79</ele>
        <time>2024-05-26T20:29:13.394Z</time>
      </trkpt>
      <trkpt lat="48.41309" lon="2.40622">
        <ele>78.75</ele>
        <time>2024-05-26T20:29:18.669Z</time>
      </trkpt>
      <trkpt lat="48.41312" lon="2.40629">
        <ele>78.79</ele>
        <time>2024-05-26T20:29:23.945Z</time>
      </trkpt>
      <trkpt lat="48.41327" lon="2.40661">
        <ele>78.93</ele>
        <time>2024-05-26T20:29:29.226Z</time>
      </trkpt>
      <trkpt lat="48.41329" lon="2.40667">
        <ele>79.15</ele>
        <time>2024-05-26T20:29:34.508Z</time>
      </trkpt>
      <trkpt lat="48.4133" lon="2.40673">
        <ele>79.44</ele>
        <time>2024-05-26T20:29:39.791Z</time>
      </trkpt>
      <trkpt lat="48.41336" lon="2.40697">
        <ele>79.83</ele>
        <time>2024-05-26T20:29:45.077Z</time>
      </trkpt>
      <trkpt lat="48.41345" lon="2.40718">
        <ele>80.29</ele>
        <time>2024-05-26T20:29:50.366Z</time>
      </trkpt>
      <trkpt lat="48.41351" lon="2.40727">
        <ele>80.81</ele>
        <time>2024-05-26T20:29:55.657Z</time>
      </trkpt>
      <trkpt lat="48.41363" lon="2.40754">
        <ele>81.39</ele>
        <time>2024-05-26T20:30:00.952Z</time>
      </trkpt>
      <trkpt lat="48.4138" lon="2.40782">
        <ele>82.06</ele>
        <time>2024-05-26T20:30:06.252Z</time>
      </trkpt>
      <trkpt lat="48.41397" lon="2.40806">
        <ele>82.8</ele>
        <time>2024-05-26T20:30:11.557Z</time>
      </trkpt>
      <trkpt lat="48.41419" lon="2.40842">
        <ele>83.61</ele>
        <time>2024-05-26T20:30:16.869Z</time>
      </trkpt>
      <trkpt lat="48.41436" lon="2.4087">
        <ele>84.47</ele>
        <time>2024-05-26T20:30:22.186Z</time>
      </trkpt>
      <trkpt lat="48.41442" lon="2.4088">
        <ele>85.41</ele>
        <time>2024-05-26T20:30:27.504Z</time>
      </trkpt>
      <trkpt lat="48.41452" lon="2.409">
        <ele>86.43</ele>
        <time>2024-05-26T20:30:32.826Z</time>
      </trkpt>
      <trkpt lat="48.41467" lon="2.40932">
        <ele>87.54</ele>
        <time>2024-05-26T20:30:38.153Z</time>
      </trkpt>
      <trkpt lat="48.4147" lon="2.40936">
        <ele>88.67</ele>
        <time>2024-05-26T20:30:43.481Z</time>
      </trkpt>
      <trkpt lat="48.41481" lon="2.40953">
        <ele>89.87</ele>
        <time>2024-05-26T20:30:48.812Z</time>
      </trkpt>
      <trkpt lat="48.41497" lon="2.40992">
        <ele>91.16</ele>
        <time>2024-05-26T20:30:54.149Z</time>
      </trkpt>
      <trkpt lat="48.41513" lon="2.41023">
        <ele>92.46</ele>
        <time>2024-05-26T20:30:59.491Z</time>
      </trkpt>
      <trkpt lat="48.41515" lon="2.41029">
        <ele>93.75</ele>
        <time>2024-05-26T20:31:04.834Z</time>
      </trkpt>
      <trkpt lat="48.41522" lon="2.41056">
        <ele>95.11</ele>
        <time>2024-05-26T20:31:10.181Z</time>
      </trkpt>
      <trkpt lat="48.4153" lon="2.41082">
        <ele>96.49</ele>
        <time>2024-05-26T20:31:15.532Z</time>
      </trkpt>
      <trkpt lat="48.41535" lon="2.41109">
        <ele>97.89</ele>
        <time>2024-05-26T20:31:20.886Z</time>
      </trkpt>
      <trkpt lat="48.41536" lon="2.41118">
        <ele>99.24</ele>
        <time>2024-05-26T20:31:26.242Z</time>
      </trkpt>
      <trkpt lat="48.41543" lon="2.41136">
        <ele>100.6</ele>
        <time>2024-05-26T20:31:31.601Z</time>
      </trkpt>
      <trkpt lat="48.41552" lon="2.41157">
        <ele>101.97</ele>
        <time>2024-05-26T20:31:36.963Z</time>
      </trkpt>
      <trkpt lat="48.41553" lon="2.41179">
        <ele>103.37</ele>
        <time>2024-05-26T20:31:42.328Z</time>
      </trkpt>
      <trkpt lat="48.41558" lon="2.41201">
        <ele>104.78</ele>
        <time>2024-05-26T20:31:47.696Z</time>
      </trkpt>
      <trkpt lat="48.4156" lon="2.41214">
        <ele>106.14</ele>
        <time>2024-05-26T20:31:53.066Z</time>
      </trkpt>
      <trkpt lat="48.41563" lon="2.4124">
        <ele>107.5</ele>
        <time>2024-05-26T20:31:58.439Z</time>
      </trkpt>
      <trkpt lat="48.41565" lon="2.41262">
        <ele>108.77</ele>
        <time>2024-05-26T20:32:03.815Z</time>
      </trkpt>
      <trkpt lat="48.41564" lon="2.41289">
        <ele>110.02</ele>
        <time>2024-05-26T20:32:09.195Z</time>
      </trkpt>
      <trkpt lat="48.41563" lon="2.4131">
        <ele>111.2</ele>
        <time>2024-05-26T20:32:14.578Z</time>
      </trkpt>
      <trkpt lat="48.41564" lon="2.4133">
        <ele>112.31</ele>
        <time>2024-05-26T20:32:19.963Z</time>
      </trkpt>
      <trkpt lat="48.41569" lon="2.41359">
        <ele>113.34</ele>
        <time>2024-05-26T20:32:25.352Z</time>
      </trkpt>
      <trkpt lat="48.41569" lon="2.41371">
        <ele>114.29</ele>
        <time>2024-05-26T20:32:30.743Z</time>
      </trkpt>
      <trkpt lat="48.41568" lon="2.41382">
        <ele>115.18</ele>
        <time>2024-05-26T20:32:36.135Z</time>
      </trkpt>
      <trkpt lat="48.41569" lon="2.41387">
        <ele>115.97</ele>
        <time>2024-05-26T20:32:41.528Z</time>
      </trkpt>
      <trkpt lat="48.41571" lon="2.41393">
        <ele>116.68</ele>
        <time>2024-05-26T20:32:46.922Z</time>
      </trkpt>
      <trkpt lat="48.41578" lon="2.41394">
        <ele>117.3</ele>
        <time>2024-05-26T20:32:52.317Z</time>
      </trkpt>
      <trkpt lat="48.41583" lon="2.41388">
        <ele>117.84</ele>
        <time>2024-05-26T20:32:57.713Z</time>
      </trkpt>
      <trkpt lat="48.41585" lon="2.41385">
        <ele>118.31</ele>
        <time>2024-05-26T20:33:03.110Z</time>
      </trkpt>
      <trkpt lat="48.41586" lon="2.41384">
        <ele>118.69</ele>
        <time>2024-05-26T20:33:08.507Z</time>
      </trkpt>
      <trkpt lat="48.41586" lon="2.41377">
        <ele>118.97</ele>
        <time>2024-05-26T20:33:13.905Z</time>
      </trkpt>
      <trkpt lat="48.41587" lon="2.4137">
        <ele>119.18</ele>
        <time>2024-05-26T20:33:19.304Z</time>
      </trkpt>
      <trkpt lat="48.41586" lon="2.41368">
        <ele>119.31</ele>
        <time>2024-05-26T20:33:24.703Z</time>
      </trkpt>
      <trkpt lat="48.41585" lon="2.41362">
        <ele>119.35</ele>
        <time>2024-05-26T20:33:30.103Z</time>
      </trkpt>
      <trkpt lat="48.41585" lon="2.41355">
        <ele>119.31</ele>
        <time>2024-05-26T20:33:35.504Z</time>
      </trkpt>
      <trkpt lat="48.41587" lon="2.41349">
        <ele>119.21</ele>
        <time>2024-05-26T20:33:40.906Z</time>
      </trkpt>
      <trkpt lat="48.41587" lon="2.41336">
        <ele>119.02</ele>
        <time>2024-05-26T20:33:46.310Z</time>
      </trkpt>
      <trkpt lat="48.41587" lon="2.41331">
        <ele>118.77</ele>
        <time>2024-05-26T20:33:51.714Z</time>
      </trkpt>
      <trkpt lat="48.41592" lon="2.41322">
        <ele>118.44</ele>
        <time>2024-05-26T20:33:57.120Z</time>
      </trkpt>
      <trkpt lat="48.41596" lon="2.41304">
        <ele>118.05</ele>
        <time>2024-05-26T20:34:02.529Z</time>
      </trkpt>
      <trkpt lat="48.41597" lon="2.41291">
        <ele>117.58</ele>
        <time>2024-05-26T20:34:07.939Z</time>
      </trkpt>
      <trkpt lat="48.41596" lon="2.4129">
        <ele>117.06</ele>
        <time>2024-05-26T20:34:13.350Z</time>
      </trkpt>
      <trkpt lat="48.41593" lon="2.41284">
        <ele>116.47</ele>
        <time>2024-05-26T20:34:18.762Z</time>
      </trkpt>
      <trkpt lat="48.41592" lon="2.41277">
        <ele>115.82</ele>
        <time>2024-05-26T20:34:24.175Z</time>
      </trkpt>
      <trkpt lat="48.41587" lon="2.41263">
        <ele>115.11</ele>
        <time>2024-05-26T20:34:29.590Z</time>
      </trkpt>
      <trkpt lat="48.41586" lon="2.41233">
        <ele>114.32</ele>
        <time>2024-05-26T20:34:35.009Z</time>
      </trkpt>
      <trkpt lat="48.41583" lon="2.41205">
        <ele>113.47</ele>
        <time>2024-05-26T20:34:40.431Z</time>
      </trkpt>
      <trkpt lat="48.41582" lon="2.41194">
        <ele>112.65</ele>
        <time>2024-05-26T20:34:45.855Z</time>
      </trkpt>
      <trkpt lat="48.41583" lon="2.41182">
        <ele>111.82</ele>
        <time>2024-05-26T20:34:51.281Z</time>
      </trkpt>
      <trkpt lat="48.41586" lon="2.41145">
        <ele>110.92</ele>
        <time>2024-05-26T20:34:56.712Z</time>
      </trkpt>
      <trkpt lat="48.41586" lon="2.41141">
        <ele>110.05</ele>
        <time>2024-05-26T20:35:02.143Z</time>
      </trkpt>
      <trkpt lat="48.41581" lon="2.41132">
        <ele>109.11</ele>
        <time>2024-05-26T20:35:07.576Z</time>
      </trkpt>
      <trkpt lat="48.41576" lon="2.41121">
        <ele>108.18</ele>
        <time>2024-05-26T20:35:13.010Z</time>
      </trkpt>
      <trkpt lat="48.41576" lon="2.41116">
        <ele>107.29</ele>
        <time>2024-05-26T20:35:18.445Z</time>
      </trkpt>
      <trkpt lat="48.41583" lon="2.41105">
        <ele>106.42</ele>
        <time>2024-05-26T20:35:23.882Z</time>
      </trkpt>
      <trkpt lat="48.41587" lon="2.411">
        <ele>105.54</ele>
        <time>2024-05-26T20:35:29.320Z</time>
      </trkpt>
      <trkpt lat="48.4159" lon="2.41091">
        <ele>104.65</ele>
        <time>2024-05-26T20:35:34.759Z</time>
      </trkpt>
      <trkpt lat="48.4159" lon="2.41087">
        <ele>103.76</ele>
        <time>2024-05-26T20:35:40.199Z</time>
      </trkpt>
      <trkpt lat="48.41589" lon="2.41086">
        <ele>102.87</ele>
        <time>2024-05-26T20:35:45.639Z</time>
      </trkpt>
      <trkpt lat="48.41588" lon="2.41083">
        <ele>101.99</ele>
        <time>2024-05-26T20:35:51.080Z</time>
      </trkpt>
      <trkpt lat="48.41586" lon="2.41072">
        <ele>101.09</ele>
        <time>2024-05-26T20:35:56.522Z</time>
      </trkpt>
      <trkpt lat="48.41595" lon="2.41056">
        <ele>100.29</ele>
        <time>2024-05-26T20:36:01.967Z</time>
      </trkpt>
      <trkpt lat="48.41596" lon="2.41052">
        <ele>99.48</ele>
        <time>2024-05-26T20:36:07.413Z</time>
      </trkpt>
      <trkpt lat="48.41603" lon="2.4104">
        <ele>98.69</ele>
        <time>2024-05-26T20:36:12.861Z</time>
      </trkpt>
      <trkpt lat="48.41618" lon="2.41027">
        <ele>97.94</ele>
        <time>2024-05-26T20:36:18.312Z</time>
      </trkpt>
      <trkpt lat="48.41619" lon="2.41023">
        <ele>97.19</ele>
        <time>2024-05-26T20:36:23.764Z</time>
      </trkpt>
      <trkpt lat="48.4163" lon="2.41008">
        <ele>96.46</ele>
        <time>2024-05-26T20:36:29.219Z</time>
      </trkpt>
      <trkpt lat="48.41633" lon="2.41004">
        <ele>95.79</ele>
        <time>2024-05-26T20:36:34.674Z</time>
      </trkpt>
      <trkpt lat="48.41644" lon="2.40994">
        <ele>95.17</ele>
        <time>2024-05-26T20:36:40.132Z</time>
      </trkpt>
      <trkpt lat="48.41648" lon="2.4099">
        <ele>94.57</ele>
        <time>2024-05-26T20:36:45.591Z</time>
      </trkpt>
      <trkpt lat="48.4166" lon="2.40974">
        <ele>94</ele>
        <time>2024-05-26T20:36:51.053Z</time>
      </trkpt>
      <trkpt lat="48.41655" lon="2.40955">
        <ele>93.33</ele>
        <time>2024-05-26T20:36:56.518Z</time>
      </trkpt>
      <trkpt lat="48.41652" lon="2.40935">
        <ele>92.71</ele>
        <time>2024-05-26T20:37:01.986Z</time>
      </trkpt>
      <trkpt lat="48.41652" lon="2.40929">
        <ele>92.24</ele>
        <time>2024-05-26T20:37:07.454Z</time>
      </trkpt>
      <trkpt lat="48.41652" lon="2.40921">
        <ele>91.8</ele>
        <time>2024-05-26T20:37:12.923Z</time>
      </trkpt>
      <trkpt lat="48.41654" lon="2.40905">
        <ele>91.4</ele>
        <time>2024-05-26T20:37:18.395Z</time>
      </trkpt>
      <trkpt lat="48.41657" lon="2.4089">
        <ele>91.06</ele>
        <time>2024-05-26T20:37:23.869Z</time>
      </trkpt>
      <trkpt lat="48.41661" lon="2.40871">
        <ele>90.77</ele>
        <time>2024-05-26T20:37:29.345Z</time>
      </trkpt>
      <trkpt lat="48.41667" lon="2.40843">
        <ele>90.53</ele>
        <time>2024-05-26T20:37:34.825Z</time>
      </trkpt>
      <trkpt lat="48.4167" lon="2.40835">
        <ele>90.38</ele>
        <time>2024-05-26T20:37:40.306Z</time>
      </trkpt>
      <trkpt lat="48.41674" lon="2.40828">
        <ele>90.27</ele>
        <time>2024-05-26T20:37:45.789Z</time>
      </trkpt>
      <trkpt lat="48.41682" lon="2.40822">
        <ele>90.22</ele>
        <time>2024-05-26T20:37:51.274Z</time>
      </trkpt>
      <trkpt lat="48.41687" lon="2.40824">
        <ele>90.25</ele>
        <time>2024-05-26T20:37:56.760Z</time>
      </trkpt>
      <trkpt lat="48.41691" lon="2.4083">
        <ele>90.33</ele>
        <time>2024-05-26T20:38:02.247Z</time>
      </trkpt>
      <trkpt lat="48.41691" lon="2.40836">
        <ele>90.47</ele>
        <time>2024-05-26T20:38:07.734Z</time>
      </trkpt>
      <trkpt lat="48.41692" lon="2.40838">
        <ele>90.64</ele>
        <time>2024-05-26T20:38:13.222Z</time>
      </trkpt>
      <trkpt lat="48.41693" lon="2.4084">
        <ele>90.87</ele>
        <time>2024-05-26T20:38:18.710Z</time>
      </trkpt>
      <trkpt lat="48.41695" lon="2.40848">
        <ele>91.17</ele>
        <time>2024-05-26T20:38:24.199Z</time>
      </trkpt>
      <trkpt lat="48.41695" lon="2.40851">
        <ele>91.49</ele>
        <time>2024-05-26T20:38:29.689Z</time>
      </trkpt>
      <trkpt lat="48.41697" lon="2.40855">
        <ele>91.87</ele>
        <time>2024-05-26T20:38:35.179Z</time>
      </trkpt>
      <trkpt lat="48.41698" lon="2.40861">
        <ele>92.29</ele>
        <time>2024-05-26T20:38:40.670Z</time>
      </trkpt>
      <trkpt lat="48.417" lon="2.40864">
        <ele>92.75</ele>
        <time>2024-05-26T20:38:46.162Z</time>
      </trkpt>
      <trkpt lat="48.41703" lon="2.40871">
        <ele>93.26</ele>
        <time>2024-05-26T20:38:51.655Z</time>
      </trkpt>
      <trkpt lat="48.41709" lon="2.40879">
        <ele>93.82</ele>
        <time>2024-05-26T20:38:57.149Z</time>
      </trkpt>
      <trkpt lat="48.41711" lon="2.40881">
        <ele>94.37</ele>
        <time>2024-05-26T20:39:02.644Z</time>
      </trkpt>
      <trkpt lat="48.41712" lon="2.40882">
        <ele>94.95</ele>
        <time>2024-05-26T20:39:08.139Z</time>
      </trkpt>
      <trkpt lat="48.41719" lon="2.40891">
        <ele>95.6</ele>
        <time>2024-05-26T20:39:13.636Z</time>
      </trkpt>
      <trkpt lat="48.41729" lon="2.40897">
        <ele>96.28</ele>
        <time>2024-05-26T20:39:19.135Z</time>
      </trkpt>
      <trkpt lat="48.4173" lon="2.409">
        <ele>96.93</ele>
        <time>2024-05-26T20:39:24.635Z</time>
      </trkpt>
      <trkpt lat="48.41733" lon="2.40906">
        <ele>97.61</ele>
        <time>2024-05-26T20:39:30.135Z</time>
      </trkpt>
      <trkpt lat="48.41741" lon="2.40909">
        <ele>98.31</ele>
        <time>2024-05-26T20:39:35.637Z</time>
      </trkpt>
      <trkpt lat="48.41742" lon="2.40909">
        <ele>98.97</ele>
        <time>2024-05-26T20:39:41.139Z</time>
      </trkpt>
      <trkpt lat="48.41745" lon="2.4091">
        <ele>99.65</ele>
        <time>2024-05-26T20:39:46.642Z</time>
      </trkpt>
      <trkpt lat="48.41747" lon="2.40913">
        <ele>100.33</ele>
        <time>2024-05-26T20:39:52.145Z</time>
      </trkpt>
      <trkpt lat="48.41762" lon="2.40917">
        <ele>101.05</ele>
        <time>2024-05-26T20:39:57.652Z</time>
      </trkpt>
      <trkpt lat="48.41767" lon="2.4092">
        <ele>101.72</ele>
        <time>2024-05-26T20:40:03.160Z</time>
      </trkpt>
      <trkpt lat="48.41773" lon="2.40929">
        <ele>102.39</ele>
        <time>2024-05-26T20:40:08.669Z</time>
      </trkpt>
      <trkpt lat="48.4178" lon="2.40939">
        <ele>103.03</ele>
        <time>2024-05-26T20:40:14.180Z</time>
      </trkpt>
      <trkpt lat="48.41782" lon="2.40945">
        <ele>103.64</ele>
        <time>2024-05-26T20:40:19.692Z</time>
      </trkpt>
      <trkpt lat="48.41792" lon="2.40967">
        <ele>104.27</ele>
        <time>2024-05-26T20:40:25.208Z</time>
      </trkpt>
      <trkpt lat="48.41801" lon="2.40981">
        <ele>104.84</ele>
        <time>2024-05-26T20:40:30.726Z</time>
      </trkpt>
      <trkpt lat="48.41812" lon="2.40991">
        <ele>105.35</ele>
        <time>2024-05-26T20:40:36.247Z</time>
      </trkpt>
      <trkpt lat="48.41815" lon="2.40991">
        <ele>105.84</ele>
        <time>2024-05-26T20:40:41.768Z</time>
      </trkpt>
      <trkpt lat="48.41832" lon="2.40989">
        <ele>106.25</ele>
        <time>2024-05-26T20:40:47.293Z</time>
      </trkpt>
      <trkpt lat="48.41851" lon="2.40992">
        <ele>106.64</ele>
        <time>2024-05-26T20:40:52.822Z</time>
      </trkpt>
      <trkpt lat="48.41857" lon="2.40994">
        <ele>107.04</ele>
        <time>2024-05-26T20:40:58.352Z</time>
      </trkpt>
      <trkpt lat="48.4186" lon="2.40993">
        <ele>107.41</ele>
        <time>2024-05-26T20:41:03.882Z</time>
      </trkpt>
      <trkpt lat="48.41865" lon="2.40991">
        <ele>107.76</ele>
        <time>2024-05-26T20:41:09.414Z</time>
      </trkpt>
      <trkpt lat="48.41873" lon="2.40989">
        <ele>108.08</ele>
        <time>2024-05-26T20:41:14.947Z</time>
      </trkpt>
      <trkpt lat="48.4189" lon="2.40981">
        <ele>108.35</ele>
        <time>2024-05-26T20:41:20.484Z</time>
      </trkpt>
      <trkpt lat="48.41892" lon="2.40979">
        <ele>108.58</ele>
        <time>2024-05-26T20:41:26.021Z</time>
      </trkpt>
      <trkpt lat="48.41907" lon="2.40974">
        <ele>108.79</ele>
        <time>2024-05-26T20:41:31.561Z</time>
      </trkpt>
      <trkpt lat="48.41914" lon="2.40973">
        <ele>108.95</ele>
        <time>2024-05-26T20:41:37.103Z</time>
      </trkpt>
      <trkpt lat="48.4192" lon="2.40969">
        <ele>109.06</ele>
        <time>2024-05-26T20:41:42.646Z</time>
      </trkpt>
      <trkpt lat="48.41939" lon="2.40958">
        <ele>109.12</ele>
        <time>2024-05-26T20:41:48.193Z</time>
      </trkpt>
      <trkpt lat="48.41942" lon="2.40956">
        <ele>109.15</ele>
        <time>2024-05-26T20:41:53.741Z</time>
      </trkpt>
      <trkpt lat="48.41957" lon="2.40943">
        <ele>109.15</ele>
        <time>2024-05-26T20:41:59.292Z</time>
      </trkpt>
      <trkpt lat="48.41969" lon="2.40934">
        <ele>109.1</ele>
        <time>2024-05-26T20:42:04.846Z</time>
      </trkpt>
      <trkpt lat="48.41972" lon="2.40932">
        <ele>108.99</ele>
        <time>2024-05-26T20:42:10.401Z</time>
      </trkpt>
      <trkpt lat="48.41987" lon="2.40922">
        <ele>108.84</ele>
        <time>2024-05-26T20:42:15.959Z</time>
      </trkpt>
      <trkpt lat="48.41989" lon="2.4092">
        <ele>108.65</ele>
        <time>2024-05-26T20:42:21.517Z</time>
      </trkpt>
      <trkpt lat="48.41998" lon="2.40914">
        <ele>108.4</ele>
        <time>2024-05-26T20:42:27.077Z</time>
      </trkpt>
      <trkpt lat="48.42002" lon="2.40913">
        <ele>108.12</ele>
        <time>2024-05-26T20:42:32.638Z</time>
      </trkpt>
      <trkpt lat="48.42009" lon="2.40908">
        <ele>107.79</ele>
        <time>2024-05-26T20:42:38.201Z</time>
      </trkpt>
      <trkpt lat="48.42014" lon="2.40905">
        <ele>107.42</ele>
        <time>2024-05-26T20:42:43.765Z</time>
      </trkpt>
      <trkpt lat="48.42019" lon="2.40901">
        <ele>107.01</ele>
        <time>2024-05-26T20:42:49.330Z</time>
      </trkpt>
      <trkpt lat="48.42027" lon="2.40885">
        <ele>106.51</ele>
        <time>2024-05-26T20:42:54.897Z</time>
      </trkpt>
      <trkpt lat="48.42031" lon="2.40878">
        <ele>106.02</ele>
        <time>2024-05-26T20:43:00.466Z</time>
      </trkpt>
      <trkpt lat="48.4204" lon="2.40878">
        <ele>105.5</ele>
        <time>2024-05-26T20:43:06.036Z</time>
      </trkpt>
      <trkpt lat="48.42052" lon="2.40886">
        <ele>104.96</ele>
        <time>2024-05-26T20:43:11.609Z</time>
      </trkpt>
      <trkpt lat="48.4206" lon="2.40897">
        <ele>104.44</ele>
        <time>2024-05-26T20:43:17.184Z</time>
      </trkpt>
      <trkpt lat="48.42062" lon="2.40901">
        <ele>103.85</ele>
        <time>2024-05-26T20:43:22.760Z</time>
      </trkpt>
      <trkpt lat="48.42075" lon="2.4091">
        <ele>103.24</ele>
        <time>2024-05-26T20:43:28.339Z</time>
      </trkpt>
      <trkpt lat="48.4209" lon="2.40912">
        <ele>102.58</ele>
        <time>2024-05-26T20:43:33.921Z</time>
      </trkpt>
      <trkpt lat="48.42093" lon="2.40911">
        <ele>101.88</ele>
        <time>2024-05-26T20:43:39.503Z</time>
      </trkpt>
      <trkpt lat="48.42098" lon="2.40902">
        <ele>101.12</ele>
        <time>2024-05-26T20:43:45.087Z</time>
      </trkpt>
      <trkpt lat="48.42102" lon="2.40891">
        <ele>100.32</ele>
        <time>2024-05-26T20:43:50.673Z</time>
      </trkpt>
      <trkpt lat="48.42101" lon="2.40885">
        <ele>99.52</ele>
        <time>2024-05-26T20:43:56.259Z</time>
      </trkpt>
      <trkpt lat="48.42092" lon="2.40865">
        <ele>98.63</ele>
        <time>2024-05-26T20:44:01.849Z</time>
      </trkpt>
      <trkpt lat="48.42089" lon="2.40858">
        <ele>97.79</ele>
        <time>2024-05-26T20:44:07.440Z</time>
      </trkpt>
      <trkpt lat="48.42087" lon="2.4084">
        <ele>96.93</ele>
        <time>2024-05-26T20:44:13.033Z</time>
      </trkpt>
      <trkpt lat="48.42086" lon="2.4083">
        <ele>96.08</ele>
        <time>2024-05-26T20:44:18.627Z</time>
      </trkpt>
      <trkpt lat="48.42089" lon="2.40799">
        <ele>95.22</ele>
        <time>2024-05-26T20:44:24.226Z</time>
      </trkpt>
      <trkpt lat="48.42092" lon="2.40767">
        <ele>94.31</ele>
        <time>2024-05-26T20:44:29.829Z</time>
      </trkpt>
      <trkpt lat="48.42093" lon="2.40756">
        <ele>93.46</ele>
        <time>2024-05-26T20:44:35.433Z</time>
      </trkpt>
      <trkpt lat="48.42095" lon="2.40746">
        <ele>92.62</ele>
        <time>2024-05-26T20:44:41.039Z</time>
      </trkpt>
      <trkpt lat="48.42097" lon="2.40738">
        <ele>91.8</ele>
        <time>2024-05-26T20:44:46.646Z</time>
      </trkpt>
      <trkpt lat="48.42098" lon="2.40717">
        <ele>90.96</ele>
        <time>2024-05-26T20:44:52.256Z</time>
      </trkpt>
      <trkpt lat="48.42091" lon="2.407">
        <ele>90.14</ele>
        <time>2024-05-26T20:44:57.868Z</time>
      </trkpt>
      <trkpt lat="48.42092" lon="2.40693">
        <ele>89.36</ele>
        <time>2024-05-26T20:45:03.481Z</time>
      </trkpt>
      <trkpt lat="48.42095" lon="2.4068">
        <ele>88.58</ele>
        <time>2024-05-26T20:45:09.096Z</time>
      </trkpt>
      <trkpt lat="48.42101" lon="2.40666">
        <ele>87.8</ele>
        <time>2024-05-26T20:45:14.713Z</time>
      </trkpt>
      <trkpt lat="48.42104" lon="2.40657">
        <ele>87.07</ele>
        <time>2024-05-26T20:45:20.332Z</time>
      </trkpt>
      <trkpt lat="48.42108" lon="2.4064">
        <ele>86.35</ele>
        <time>2024-05-26T20:45:25.953Z</time>
      </trkpt>
      <trkpt lat="48.42108" lon="2.40631">
        <ele>85.68</ele>
        <time>2024-05-26T20:45:31.575Z</time>
      </trkpt>
      <trkpt lat="48.42109" lon="2.40624">
        <ele>85.05</ele>
        <time>2024-05-26T20:45:37.198Z</time>
      </trkpt>
      <trkpt lat="48.42108" lon="2.40615">
        <ele>84.45</ele>
        <time>2024-05-26T20:45:42.822Z</time>
      </trkpt>
      <trkpt lat="48.42107" lon="2.40601">
        <ele>83.87</ele>
        <time>2024-05-26T20:45:48.448Z</time>
      </trkpt>
      <trkpt lat="48.42105" lon="2.40587">
        <ele>83.33</ele>
        <time>2024-05-26T20:45:54.076Z</time>
      </trkpt>
      <trkpt lat="48.42103" lon="2.40579">
        <ele>82.82</ele>
        <time>2024-05-26T20:45:59.705Z</time>
      </trkpt>
      <trkpt lat="48.421" lon="2.40561">
        <ele>82.32</ele>
        <time>2024-05-26T20:46:05.337Z</time>
      </trkpt>
      <trkpt lat="48.42095" lon="2.40544">
        <ele>81.84</ele>
        <time>2024-05-26T20:46:10.971Z</time>
      </trkpt>
      <trkpt lat="48.42094" lon="2.40537">
        <ele>81.41</ele>
        <time>2024-05-26T20:46:16.606Z</time>
      </trkpt>
      <trkpt lat="48.42092" lon="2.40513">
        <ele>80.99</ele>
        <time>2024-05-26T20:46:22.244Z</time>
      </trkpt>
      <trkpt lat="48.42094" lon="2.40498">
        <ele>80.62</ele>
        <time>2024-05-26T20:46:27.884Z</time>
      </trkpt>
      <trkpt lat="48.42095" lon="2.40492">
        <ele>80.3</ele>
        <time>2024-05-26T20:46:33.525Z</time>
      </trkpt>
      <trkpt lat="48.42096" lon="2.40486">
        <ele>80.01</ele>
        <time>2024-05-26T20:46:39.167Z</time>
      </trkpt>
      <trkpt lat="48.42099" lon="2.40472">
        <ele>79.75</ele>
        <time>2024-05-26T20:46:44.811Z</time>
      </trkpt>
      <trkpt lat="48.421" lon="2.40464">
        <ele>79.54</ele>
        <time>2024-05-26T20:46:50.456Z</time>
      </trkpt>
      <trkpt lat="48.42104" lon="2.40441">
        <ele>79.34</ele>
        <time>2024-05-26T20:46:56.104Z</time>
      </trkpt>
      <trkpt lat="48.42108" lon="2.40414">
        <ele>79.21</ele>
        <time>2024-05-26T20:47:01.756Z</time>
      </trkpt>
      <trkpt lat="48.4211" lon="2.40386">
        <ele>79.04</ele>
        <time>2024-05-26T20:47:07.412Z</time>
      </trkpt>
      <trkpt lat="48.42109" lon="2.40379">
        <ele>78.92</ele>
        <time>2024-05-26T20:47:13.069Z</time>
      </trkpt>
      <trkpt lat="48.42107" lon="2.40371">
        <ele>78.83</ele>
        <time>2024-05-26T20:47:18.727Z</time>
      </trkpt>
      <trkpt lat="48.42104" lon="2.40358">
        <ele>78.76</ele>
        <time>2024-05-26T20:47:24.387Z</time>
      </trkpt>
      <trkpt lat="48.42101" lon="2.40342">
        <ele>78.71</ele>
        <time>2024-05-26T20:47:30.049Z</time>
      </trkpt>
      <trkpt lat="48.421" lon="2.40333">
        <ele>78.69</ele>
        <time>2024-05-26T20:47:35.712Z</time>
      </trkpt>
      <trkpt lat="48.42098" lon="2.40324">
        <ele>78.69</ele>
        <time>2024-05-26T20:47:41.376Z</time>
      </trkpt>
      <trkpt lat="48.4209" lon="2.40296">
        <ele>78.7</ele>
        <time>2024-05-26T20:47:47.044Z</time>
      </trkpt>
      <trkpt lat="48.42087" lon="2.4029">
        <ele>78.76</ele>
        <time>2024-05-26T20:47:52.714Z</time>
      </trkpt>
      <trkpt lat="48.4208" lon="2.40277">
        <ele>78.83</ele>
        <time>2024-05-26T20:47:58.386Z</time>
      </trkpt>
      <trkpt lat="48.42071" lon="2.40251">
        <ele>78.91</ele>
        <time>2024-05-26T20:48:04.062Z</time>
      </trkpt>
      <trkpt lat="48.42062" lon="2.40232">
        <ele>79</ele>
        <time>2024-05-26T20:48:09.741Z</time>
      </trkpt>
      <trkpt lat="48.42055" lon="2.40218">
        <ele>79.11</ele>
        <time>2024-05-26T20:48:15.422Z</time>
      </trkpt>
      <trkpt lat="48.42048" lon="2.40202">
        <ele>79.22</ele>
        <time>2024-05-26T20:48:21.106Z</time>
      </trkpt>
      <trkpt lat="48.42046" lon="2.40195">
        <ele>79.36</ele>
        <time>2024-05-26T20:48:26.791Z</time>
      </trkpt>
      <trkpt lat="48.4204" lon="2.40181">
        <ele>79.5</ele>
        <time>2024-05-26T20:48:32.478Z</time>
      </trkpt>
      <trkpt lat="48.4203" lon="2.40147">
        <ele>79.67</ele>
        <time>2024-05-26T20:48:38.170Z</time>
      </trkpt>
      <trkpt lat="48.42028" lon="2.4014">
        <ele>79.82</ele>
        <time>2024-05-26T20:48:43.863Z</time>
      </trkpt>
      <trkpt lat="48.42031" lon="2.40115">
        <ele>79.99</ele>
        <time>2024-05-26T20:48:49.559Z</time>
      </trkpt>
      <trkpt lat="48.42043" lon="2.40064">
        <ele>80.18</ele>
        <time>2024-05-26T20:48:55.262Z</time>
      </trkpt>
      <trkpt lat="48.42042" lon="2.40036">
        <ele>80.33</ele>
        <time>2024-05-26T20:49:00.969Z</time>
      </trkpt>
      <trkpt lat="48.42034" lon="2.39994">
        <ele>80.48</ele>
        <time>2024-05-26T20:49:06.682Z</time>
      </trkpt>
      <trkpt lat="48.42033" lon="2.39967">
        <ele>80.64</ele>
        <time>2024-05-26T20:49:12.399Z</time>
      </trkpt>
      <trkpt lat="48.42033" lon="2.39942">
        <ele>80.76</ele>
        <time>2024-05-26T20:49:18.119Z</time>
      </trkpt>
      <trkpt lat="48.42029" lon="2.39934">
        <ele>80.83</ele>
        <time>2024-05-26T20:49:23.840Z</time>
      </trkpt>
      <trkpt lat="48.42015" lon="2.39905">
        <ele>80.89</ele>
        <time>2024-05-26T20:49:29.566Z</time>
      </trkpt>
      <trkpt lat="48.42002" lon="2.39881">
        <ele>80.9</ele>
        <time>2024-05-26T20:49:35.296Z</time>
      </trkpt>
      <trkpt lat="48.41999" lon="2.39878">
        <ele>80.89</ele>
        <time>2024-05-26T20:49:41.027Z</time>
      </trkpt>
      <trkpt lat="48.41994" lon="2.39861">
        <ele>80.86</ele>
        <time>2024-05-26T20:49:46.760Z</time>
      </trkpt>
      <trkpt lat="48.41996" lon="2.39834">
        <ele>80.8</ele>
        <time>2024-05-26T20:49:52.497Z</time>
      </trkpt>
      <trkpt lat="48.41994" lon="2.39827">
        <ele>80.7</ele>
        <time>2024-05-26T20:49:58.235Z</time>
      </trkpt>
      <trkpt lat="48.41981" lon="2.39771">
        <ele>80.49</ele>
        <time>2024-05-26T20:50:03.981Z</time>
      </trkpt>
      <trkpt lat="48.41973" lon="2.39737">
        <ele>80.29</ele>
        <time>2024-05-26T20:50:09.731Z</time>
      </trkpt>
      <trkpt lat="48.41972" lon="2.39734">
        <ele>80.1</ele>
        <time>2024-05-26T20:50:15.482Z</time>
      </trkpt>
      <trkpt lat="48.4197" lon="2.39723">
        <ele>79.87</ele>
        <time>2024-05-26T20:50:21.235Z</time>
      </trkpt>
      <trkpt lat="48.4197" lon="2.39707">
        <ele>79.62</ele>
        <time>2024-05-26T20:50:26.990Z</time>
      </trkpt>
      <trkpt lat="48.4197" lon="2.39677">
        <ele>79.34</ele>
        <time>2024-05-26T20:50:32.749Z</time>
      </trkpt>
      <trkpt lat="48.41961" lon="2.39642">
        <ele>78.99</ele>
        <time>2024-05-26T20:50:38.513Z</time>
      </trkpt>
      <trkpt lat="48.41947" lon="2.39602">
        <ele>78.58</ele>
        <time>2024-05-26T20:50:44.283Z</time>
      </trkpt>
      <trkpt lat="48.41946" lon="2.39594">
        <ele>78.24</ele>
        <time>2024-05-26T20:50:50.054Z</time>
      </trkpt>
      <trkpt lat="48.4195" lon="2.3958">
        <ele>77.88</ele>
        <time>2024-05-26T20:50:55.827Z</time>
      </trkpt>
      <trkpt lat="48.41959" lon="2.3956">
        <ele>77.52</ele>
        <time>2024-05-26T20:51:01.603Z</time>
      </trkpt>
      <trkpt lat="48.41963" lon="2.39555">
        <ele>77.14</ele>
        <time>2024-05-26T20:51:07.380Z</time>
      </trkpt>
      <trkpt lat="48.41969" lon="2.39543">
        <ele>76.75</ele>
        <time>2024-05-26T20:51:13.159Z</time>
      </trkpt>
      <trkpt lat="48.41985" lon="2.39516">
        <ele>76.36</ele>
        <time>2024-05-26T20:51:18.943Z</time>
      </trkpt>
      <trkpt lat="48.41995" lon="2.39502">
        <ele>75.94</ele>
        <time>2024-05-26T20:51:24.730Z</time>
      </trkpt>
      <trkpt lat="48.42007" lon="2.39482">
        <ele>75.5</ele>
        <time>2024-05-26T20:51:30.520Z</time>
      </trkpt>
      <trkpt lat="48.42012" lon="2.39472">
        <ele>75.02</ele>
        <time>2024-05-26T20:51:36.312Z</time>
      </trkpt>
      <trkpt lat="48.4202" lon="2.39451">
        <ele>74.51</ele>
        <time>2024-05-26T20:51:42.107Z</time>
      </trkpt>
      <trkpt lat="48.42039" lon="2.39389">
        <ele>73.95</ele>
        <time>2024-05-26T20:51:47.911Z</time>
      </trkpt>
      <trkpt lat="48.42042" lon="2.39381">
        <ele>73.47</ele>
        <time>2024-05-26T20:51:53.716Z</time>
      </trkpt>
      <trkpt lat="48.42048" lon="2.39357">
        <ele>72.96</ele>
        <time>2024-05-26T20:51:59.525Z</time>
      </trkpt>
      <trkpt lat="48.42049" lon="2.39342">
        <ele>72.44</ele>
        <time>2024-05-26T20:52:05.336Z</time>
      </trkpt>
      <trkpt lat="48.42051" lon="2.39302">
        <ele>71.88</ele>
        <time>2024-05-26T20:52:11.152Z</time>
      </trkpt>
      <trkpt lat="48.42052" lon="2.39291">
        <ele>71.37</ele>
        <time>2024-05-26T20:52:16.970Z</time>
      </trkpt>
      <trkpt lat="48.42055" lon="2.39279">
        <ele>70.86</ele>
        <time>2024-05-26T20:52:22.789Z</time>
      </trkpt>
      <trkpt lat="48.42055" lon="2.39278">
        <ele>70.37</ele>
        <time>2024-05-26T20:52:28.608Z</time>
      </trkpt>
      <trkpt lat="48.42059" lon="2.39269">
        <ele>69.91</ele>
        <time>2024-05-26T20:52:34.429Z</time>
      </trkpt>
      <trkpt lat="48.42066" lon="2.39245">
        <ele>69.44</ele>
        <time>2024-05-26T20:52:40.253Z</time>
      </trkpt>
      <trkpt lat="48.42068" lon="2.39233">
        <ele>68.97</ele>
        <time>2024-05-26T20:52:46.079Z</time>
      </trkpt>
      <trkpt lat="48.42073" lon="2.39201">
        <ele>68.53</ele>
        <time>2024-05-26T20:52:51.909Z</time>
      </trkpt>
      <trkpt lat="48.42075" lon="2.39194">
        <ele>68.09</ele>
        <time>2024-05-26T20:52:57.740Z</time>
      </trkpt>
      <trkpt lat="48.42087" lon="2.39135">
        <ele>67.66</ele>
        <time>2024-05-26T20:53:03.580Z</time>
      </trkpt>
      <trkpt lat="48.42105" lon="2.39081">
        <ele>67.11</ele>
        <time>2024-05-26T20:53:09.428Z</time>
      </trkpt>
      <trkpt lat="48.42125" lon="2.39028">
        <ele>66.72</ele>
        <time>2024-05-26T20:53:15.284Z</time>
      </trkpt>
      <trkpt lat="48.42129" lon="2.39015">
        <ele>66.35</ele>
        <time>2024-05-26T20:53:21.142Z</time>
      </trkpt>
      <trkpt lat="48.42132" lon="2.39009">
        <ele>65.98</ele>
        <time>2024-05-26T20:53:27.001Z</time>
      </trkpt>
      <trkpt lat="48.4214" lon="2.39004">
        <ele>65.63</ele>
        <time>2024-05-26T20:53:32.861Z</time>
      </trkpt>
      <trkpt lat="48.42153" lon="2.3901">
        <ele>65.3</ele>
        <time>2024-05-26T20:53:38.724Z</time>
      </trkpt>
      <trkpt lat="48.42157" lon="2.39013">
        <ele>64.98</ele>
        <time>2024-05-26T20:53:44.588Z</time>
      </trkpt>
      <trkpt lat="48.4219" lon="2.3903">
        <ele>64.65</ele>
        <time>2024-05-26T20:53:50.459Z</time>
      </trkpt>
      <trkpt lat="48.42226" lon="2.39049">
        <ele>64.31</ele>
        <time>2024-05-26T20:53:56.338Z</time>
      </trkpt>
      <trkpt lat="48.42268" lon="2.39066">
        <ele>64.06</ele>
        <time>2024-05-26T20:54:02.225Z</time>
      </trkpt>
      <trkpt lat="48.42285" lon="2.39074">
        <ele>63.85</ele>
        <time>2024-05-26T20:54:08.116Z</time>
      </trkpt>
      <trkpt lat="48.42301" lon="2.39086">
        <ele>63.67</ele>
        <time>2024-05-26T20:54:14.011Z</time>
      </trkpt>
      <trkpt lat="48.42338" lon="2.39118">
        <ele>63.46</ele>
        <time>2024-05-26T20:54:19.914Z</time>
      </trkpt>
      <trkpt lat="48.42379" lon="2.39157">
        <ele>63.11</ele>
        <time>2024-05-26T20:54:25.827Z</time>
      </trkpt>
      <trkpt lat="48.42416" lon="2.39192">
        <ele>62.84</ele>
        <time>2024-05-26T20:54:31.749Z</time>
      </trkpt>
      <trkpt lat="48.42453" lon="2.39226">
        <ele>62.78</ele>
        <time>2024-05-26T20:54:37.679Z</time>
      </trkpt>
      <trkpt lat="48.42484" lon="2.39255">
        <ele>62.7</ele>
        <time>2024-05-26T20:54:43.617Z</time>
      </trkpt>
      <trkpt lat="48.42499" lon="2.39269">
        <ele>62.58</ele>
        <time>2024-05-26T20:54:49.558Z</time>
      </trkpt>
      <trkpt lat="48.42525" lon="2.39296">
        <ele>62.49</ele>
        <time>2024-05-26T20:54:55.505Z</time>
      </trkpt>
      <trkpt lat="48.42553" lon="2.39323">
        <ele>62.44</ele>
        <time>2024-05-26T20:55:01.459Z</time>
      </trkpt>
      <trkpt lat="48.42566" lon="2.39339">
        <ele>62.4</ele>
        <time>2024-05-26T20:55:07.416Z</time>
      </trkpt>
      <trkpt lat="48.42565" lon="2.39339">
        <ele>62.35</ele>
        <time>2024-05-26T20:55:13.374Z</time>
      </trkpt>
      <trkpt lat="48.42564" lon="2.39339">
        <ele>62.31</ele>
        <time>2024-05-26T20:55:19.332Z</time>
      </trkpt>
      <trkpt lat="48.42564" lon="2.39339">
        <ele>62.29</ele>
        <time>2024-05-26T20:55:25.290Z</time>
      </trkpt>
      <trkpt lat="48.42564" lon="2.39342">
        <ele>62.28</ele>
        <time>2024-05-26T20:55:31.248Z</time>
      </trkpt>
      <trkpt lat="48.42564" lon="2.3934">
        <ele>62.28</ele>
        <time>2024-05-26T20:55:37.207Z</time>
      </trkpt>
      <trkpt lat="48.42566" lon="2.39338">
        <ele>62.3</ele>
        <time>2024-05-26T20:55:43.166Z</time>
      </trkpt>
      <trkpt lat="48.42566" lon="2.39338">
        <ele>62.32</ele>
        <time>2024-05-26T20:55:49.125Z</time>
      </trkpt>
      <trkpt lat="48.42567" lon="2.39338">
        <ele>62.36</ele>
        <time>2024-05-26T20:55:55.084Z</time>
      </trkpt>
      <trkpt lat="48.42567" lon="2.39338">
        <ele>62.4</ele>
        <time>2024-05-26T20:56:01.043Z</time>
      </trkpt>
      <trkpt lat="48.42567" lon="2.39337">
        <ele>62.45</ele>
        <time>2024-05-26T20:56:07.003Z</time>
      </trkpt>
      <trkpt lat="48.42568" lon="2.39336">
        <ele>62.51</ele>
        <time>2024-05-26T20:56:12.963Z</time>
      </trkpt>
      <trkpt lat="48.42568" lon="2.39336">
        <ele>62.58</ele>
        <time>2024-05-26T20:56:18.923Z</time>
      </trkpt>
      <trkpt lat="48.42568" lon="2.39336">
        <ele>62.65</ele>
        <time>2024-05-26T20:56:24.883Z</time>
      </trkpt>
      <trkpt lat="48.42569" lon="2.3934">
        <ele>62.72</ele>
        <time>2024-05-26T20:56:30.843Z</time>
      </trkpt>
      <trkpt lat="48.42571" lon="2.39343">
        <ele>62.81</ele>
        <time>2024-05-26T20:56:36.804Z</time>
      </trkpt>
      <trkpt lat="48.42577" lon="2.3935">
        <ele>62.9</ele>
        <time>2024-05-26T20:56:42.766Z</time>
      </trkpt>
      <trkpt lat="48.42583" lon="2.39357">
        <ele>63</ele>
        <time>2024-05-26T20:56:48.730Z</time>
      </trkpt>
      <trkpt lat="48.426" lon="2.39374">
        <ele>63.09</ele>
        <time>2024-05-26T20:56:54.698Z</time>
      </trkpt>
      <trkpt lat="48.42602" lon="2.39373">
        <ele>63.19</ele>
        <time>2024-05-26T20:57:00.666Z</time>
      </trkpt>
      <trkpt lat="48.42604" lon="2.39366">
        <ele>63.29</ele>
        <time>2024-05-26T20:57:06.635Z</time>
      </trkpt>
      <trkpt lat="48.42602" lon="2.39357">
        <ele>63.39</ele>
        <time>2024-05-26T20:57:12.606Z</time>
      </trkpt>
      <trkpt lat="48.42599" lon="2.3934">
        <ele>63.5</ele>
        <time>2024-05-26T20:57:18.579Z</time>
      </trkpt>
      <trkpt lat="48.426" lon="2.39323">
        <ele>63.6</ele>
        <time>2024-05-26T20:57:24.554Z</time>
      </trkpt>
      <trkpt lat="48.42603" lon="2.39319">
        <ele>63.7</ele>
        <time>2024-05-26T20:57:30.530Z</time>
      </trkpt>
      <trkpt lat="48.42608" lon="2.39317">
        <ele>63.81</ele>
        <time>2024-05-26T20:57:36.507Z</time>
      </trkpt>
      <trkpt lat="48.42634" lon="2.39305">
        <ele>63.91</ele>
        <time>2024-05-26T20:57:42.490Z</time>
      </trkpt>
      <trkpt lat="48.42674" lon="2.39285">
        <ele>64.03</ele>
        <time>2024-05-26T20:57:48.481Z</time>
      </trkpt>
      <trkpt lat="48.42707" lon="2.39269">
        <ele>64.25</ele>
        <time>2024-05-26T20:57:54.479Z</time>
      </trkpt>
      <trkpt lat="48.42711" lon="2.39267">
        <ele>64.38</ele>
        <time>2024-05-26T20:58:00.478Z</time>
      </trkpt>
      <trkpt lat="48.42733" lon="2.39256">
        <ele>64.54</ele>
        <time>2024-05-26T20:58:06.481Z</time>
      </trkpt>
      <trkpt lat="48.42736" lon="2.39254">
        <ele>64.67</ele>
        <time>2024-05-26T20:58:12.485Z</time>
      </trkpt>
      <trkpt lat="48.42763" lon="2.39241">
        <ele>64.83</ele>
        <time>2024-05-26T20:58:18.495Z</time>
      </trkpt>
      <trkpt lat="48.42778" lon="2.39234">
        <ele>64.99</ele>
        <time>2024-05-26T20:58:24.508Z</time>
      </trkpt>
      <trkpt lat="48.42792" lon="2.39218">
        <ele>65.15</ele>
        <time>2024-05-26T20:58:30.524Z</time>
      </trkpt>
      <trkpt lat="48.42791" lon="2.39197">
        <ele>65.28</ele>
        <time>2024-05-26T20:58:36.543Z</time>
      </trkpt>
      <trkpt lat="48.42789" lon="2.39191">
        <ele>65.41</ele>
        <time>2024-05-26T20:58:42.563Z</time>
      </trkpt>
      <trkpt lat="48.42778" lon="2.39152">
        <ele>65.52</ele>
        <time>2024-05-26T20:58:48.589Z</time>
      </trkpt>
      <trkpt lat="48.42762" lon="2.39087">
        <ele>65.67</ele>
        <time>2024-05-26T20:58:54.624Z</time>
      </trkpt>
      <trkpt lat="48.42743" lon="2.39011">
        <ele>65.82</ele>
        <time>2024-05-26T20:59:00.670Z</time>
      </trkpt>
      <trkpt lat="48.42725" lon="2.38937">
        <ele>65.96</ele>
        <time>2024-05-26T20:59:06.726Z</time>
      </trkpt>
      <trkpt lat="48.42706" lon="2.38859">
        <ele>66.04</ele>
        <time>2024-05-26T20:59:12.793Z</time>
      </trkpt>
      <trkpt lat="48.42694" lon="2.38815">
        <ele>66.2</ele>
        <time>2024-05-26T20:59:18.867Z</time>
      </trkpt>
      <trkpt lat="48.42685" lon="2.38782">
        <ele>66.35</ele>
        <time>2024-05-26T20:59:24.945Z</time>
      </trkpt>
      <trkpt lat="48.42681" lon="2.38758">
        <ele>66.55</ele>
        <time>2024-05-26T20:59:31.027Z</time>
      </trkpt>
      <trkpt lat="48.42682" lon="2.38749">
        <ele>66.79</ele>
        <time>2024-05-26T20:59:37.110Z</time>
      </trkpt>
      <trkpt lat="48.42691" lon="2.3873">
        <ele>67.05</ele>
        <time>2024-05-26T20:59:43.196Z</time>
      </trkpt>
      <trkpt lat="48.42695" lon="2.38726">
        <ele>67.34</ele>
        <time>2024-05-26T20:59:49.283Z</time>
      </trkpt>
      <trkpt lat="48.42718" lon="2.38694">
        <ele>67.66</ele>
        <time>2024-05-26T20:59:55.376Z</time>
      </trkpt>
      <trkpt lat="48.42749" lon="2.3865">
        <ele>68.08</ele>
        <time>2024-05-26T21:00:01.478Z</time>
      </trkpt>
      <trkpt lat="48.42775" lon="2.3861">
        <ele>68.44</ele>
        <time>2024-05-26T21:00:07.587Z</time>
      </trkpt>
      <trkpt lat="48.428" lon="2.38574">
        <ele>68.77</ele>
        <time>2024-05-26T21:00:13.703Z</time>
      </trkpt>
      <trkpt lat="48.42819" lon="2.38548">
        <ele>69.16</ele>
        <time>2024-05-26T21:00:19.824Z</time>
      </trkpt>
      <trkpt lat="48.42831" lon="2.38531">
        <ele>69.57</ele>
        <time>2024-05-26T21:00:25.949Z</time>
      </trkpt>
      <trkpt lat="48.42857" lon="2.38496">
        <ele>70.08</ele>
        <time>2024-05-26T21:00:32.081Z</time>
      </trkpt>
      <trkpt lat="48.42868" lon="2.38483">
        <ele>70.57</ele>
        <time>2024-05-26T21:00:38.216Z</time>
      </trkpt>
      <trkpt lat="48.42876" lon="2.38485">
        <ele>71.1</ele>
        <time>2024-05-26T21:00:44.352Z</time>
      </trkpt>
      <trkpt lat="48.4288" lon="2.38504">
        <ele>71.65</ele>
        <time>2024-05-26T21:00:50.491Z</time>
      </trkpt>
      <trkpt lat="48.42887" lon="2.38532">
        <ele>72.24</ele>
        <time>2024-05-26T21:00:56.634Z</time>
      </trkpt>
      <trkpt lat="48.42889" lon="2.38538">
        <ele>72.84</ele>
        <time>2024-05-26T21:01:02.778Z</time>
      </trkpt>
      <trkpt lat="48.42897" lon="2.38563">
        <ele>73.5</ele>
        <time>2024-05-26T21:01:08.925Z</time>
      </trkpt>
      <trkpt lat="48.42907" lon="2.38585">
        <ele>74.19</ele>
        <time>2024-05-26T21:01:15.076Z</time>
      </trkpt>
      <trkpt lat="48.42909" lon="2.38591">
        <ele>74.87</ele>
        <time>2024-05-26T21:01:21.228Z</time>
      </trkpt>
      <trkpt lat="48.42915" lon="2.38616">
        <ele>75.6</ele>
        <time>2024-05-26T21:01:27.383Z</time>
      </trkpt>
      <trkpt lat="48.42917" lon="2.38622">
        <ele>76.32</ele>
        <time>2024-05-26T21:01:33.539Z</time>
      </trkpt>
      <trkpt lat="48.42923" lon="2.38651">
        <ele>77.09</ele>
        <time>2024-05-26T21:01:39.699Z</time>
      </trkpt>
      <trkpt lat="48.42924" lon="2.38657">
        <ele>77.84</ele>
        <time>2024-05-26T21:01:45.860Z</time>
      </trkpt>
      <trkpt lat="48.42928" lon="2.38686">
        <ele>78.65</ele>
        <time>2024-05-26T21:01:52.025Z</time>
      </trkpt>
      <trkpt lat="48.42932" lon="2.38715">
        <ele>79.49</ele>
        <time>2024-05-26T21:01:58.194Z</time>
      </trkpt>
      <trkpt lat="48.42933" lon="2.38727">
        <ele>80.31</ele>
        <time>2024-05-26T21:02:04.365Z</time>
      </trkpt>
      <trkpt lat="48.42934" lon="2.38739">
        <ele>81.16</ele>
        <time>2024-05-26T21:02:10.537Z</time>
      </trkpt>
      <trkpt lat="48.42935" lon="2.38757">
        <ele>82.04</ele>
        <time>2024-05-26T21:02:16.712Z</time>
      </trkpt>
      <trkpt lat="48.42936" lon="2.38775">
        <ele>82.92</ele>
        <time>2024-05-26T21:02:22.889Z</time>
      </trkpt>
      <trkpt lat="48.42936" lon="2.38781">
        <ele>83.78</ele>
        <time>2024-05-26T21:02:29.067Z</time>
      </trkpt>
      <trkpt lat="48.42934" lon="2.3881">
        <ele>84.7</ele>
        <time>2024-05-26T21:02:35.249Z</time>
      </trkpt>
      <trkpt lat="48.42933" lon="2.38822">
        <ele>85.59</ele>
        <time>2024-05-26T21:02:41.432Z</time>
      </trkpt>
      <trkpt lat="48.42933" lon="2.38835">
        <ele>86.49</ele>
        <time>2024-05-26T21:02:47.617Z</time>
      </trkpt>
      <trkpt lat="48.42937" lon="2.38857">
        <ele>87.44</ele>
        <time>2024-05-26T21:02:53.805Z</time>
      </trkpt>
      <trkpt lat="48.42939" lon="2.38862">
        <ele>88.34</ele>
        <time>2024-05-26T21:02:59.994Z</time>
      </trkpt>
      <trkpt lat="48.42944" lon="2.38883">
        <ele>89.28</ele>
        <time>2024-05-26T21:03:06.186Z</time>
      </trkpt>
      <trkpt lat="48.42948" lon="2.38905">
        <ele>90.19</ele>
        <time>2024-05-26T21:03:12.381Z</time>
      </trkpt>
      <trkpt lat="48.4295" lon="2.3891">
        <ele>91.09</ele>
        <time>2024-05-26T21:03:18.577Z</time>
      </trkpt>
      <trkpt lat="48.42956" lon="2.38923">
        <ele>92.04</ele>
        <time>2024-05-26T21:03:24.775Z</time>
      </trkpt>
      <trkpt lat="48.42963" lon="2.38941">
        <ele>93.01</ele>
        <time>2024-05-26T21:03:30.976Z</time>
      </trkpt>
      <trkpt lat="48.42967" lon="2.38949">
        <ele>93.94</ele>
        <time>2024-05-26T21:03:37.178Z</time>
      </trkpt>
      <trkpt lat="48.42971" lon="2.38957">
        <ele>94.87</ele>
        <time>2024-05-26T21:03:43.381Z</time>
      </trkpt>
      <trkpt lat="48.42976" lon="2.38968">
        <ele>95.8</ele>
        <time>2024-05-26T21:03:49.586Z</time>
      </trkpt>
      <trkpt lat="48.42979" lon="2.38975">
        <ele>96.72</ele>
        <time>2024-05-26T21:03:55.792Z</time>
      </trkpt>
      <trkpt lat="48.42981" lon="2.3898">
        <ele>97.65</ele>
        <time>2024-05-26T21:04:01.999Z</time>
      </trkpt>
      <trkpt lat="48.42984" lon="2.38989">
        <ele>98.57</ele>
        <time>2024-05-26T21:04:08.207Z</time>
      </trkpt>
      <trkpt lat="48.42989" lon="2.39001">
        <ele>99.51</ele>
        <time>2024-05-26T21:04:14.417Z</time>
      </trkpt>
      <trkpt lat="48.42991" lon="2.39009">
        <ele>100.42</ele>
        <time>2024-05-26T21:04:20.628Z</time>
      </trkpt>
      <trkpt lat="48.42992" lon="2.39012">
        <ele>101.33</ele>
        <time>2024-05-26T21:04:26.840Z</time>
      </trkpt>
      <trkpt lat="48.42996" lon="2.39026">
        <ele>102.24</ele>
        <time>2024-05-26T21:04:33.054Z</time>
      </trkpt>
      <trkpt lat="48.42997" lon="2.39029">
        <ele>103.15</ele>
        <time>2024-05-26T21:04:39.268Z</time>
      </trkpt>
      <trkpt lat="48.43002" lon="2.39036">
        <ele>104.09</ele>
        <time>2024-05-26T21:04:45.483Z</time>
      </trkpt>
      <trkpt lat="48.43006" lon="2.39042">
        <ele>105.03</ele>
        <time>2024-05-26T21:04:51.700Z</time>
      </trkpt>
      <trkpt lat="48.43008" lon="2.39045">
        <ele>105.95</ele>
        <time>2024-05-26T21:04:57.917Z</time>
      </trkpt>
      <trkpt lat="48.43016" lon="2.39056">
        <ele>106.91</ele>
        <time>2024-05-26T21:05:04.136Z</time>
      </trkpt>
      <trkpt lat="48.4302" lon="2.39061">
        <ele>107.85</ele>
        <time>2024-05-26T21:05:10.356Z</time>
      </trkpt>
      <trkpt lat="48.43025" lon="2.39065">
        <ele>108.8</ele>
        <time>2024-05-26T21:05:16.578Z</time>
      </trkpt>
      <trkpt lat="48.43031" lon="2.39074">
        <ele>109.73</ele>
        <time>2024-05-26T21:05:22.801Z</time>
      </trkpt>
      <trkpt lat="48.43036" lon="2.39085">
        <ele>110.65</ele>
        <time>2024-05-26T21:05:29.026Z</time>
      </trkpt>
      <trkpt lat="48.43042" lon="2.39094">
        <ele>111.55</ele>
        <time>2024-05-26T21:05:35.253Z</time>
      </trkpt>
      <trkpt lat="48.4305" lon="2.39104">
        <ele>112.47</ele>
        <time>2024-05-26T21:05:41.482Z</time>
      </trkpt>
      <trkpt lat="48.43055" lon="2.3911">
        <ele>113.39</ele>
        <time>2024-05-26T21:05:47.712Z</time>
      </trkpt>
      <trkpt lat="48.43057" lon="2.39111">
        <ele>114.3</ele>
        <time>2024-05-26T21:05:53.942Z</time>
      </trkpt>
      <trkpt lat="48.43064" lon="2.39117">
        <ele>115.25</ele>
        <time>2024-05-26T21:06:00.174Z</time>
      </trkpt>
      <trkpt lat="48.43068" lon="2.39119">
        <ele>116.18</ele>
        <time>2024-05-26T21:06:06.407Z</time>
      </trkpt>
      <trkpt lat="48.43076" lon="2.39122">
        <ele>117.13</ele>
        <time>2024-05-26T21:06:12.642Z</time>
      </trkpt>
      <trkpt lat="48.43086" lon="2.39126">
        <ele>118.08</ele>
        <time>2024-05-26T21:06:18.879Z</time>
      </trkpt>
      <trkpt lat="48.43093" lon="2.39131">
        <ele>119</ele>
        <time>2024-05-26T21:06:25.117Z</time>
      </trkpt>
      <trkpt lat="48.43099" lon="2.39135">
        <ele>119.89</ele>
        <time>2024-05-26T21:06:31.357Z</time>
      </trkpt>
      <trkpt lat="48.43102" lon="2.39136">
        <ele>120.76</ele>
        <time>2024-05-26T21:06:37.597Z</time>
      </trkpt>
      <trkpt lat="48.43109" lon="2.39141">
        <ele>121.64</ele>
        <time>2024-05-26T21:06:43.839Z</time>
      </trkpt>
      <trkpt lat="48.4311" lon="2.39142">
        <ele>122.47</ele>
        <time>2024-05-26T21:06:50.081Z</time>
      </trkpt>
      <trkpt lat="48.43115" lon="2.39144">
        <ele>123.3</ele>
        <time>2024-05-26T21:06:56.324Z</time>
      </trkpt>
      <trkpt lat="48.43116" lon="2.39143">
        <ele>124.11</ele>
        <time>2024-05-26T21:07:02.567Z</time>
      </trkpt>
      <trkpt lat="48.4312" lon="2.39141">
        <ele>124.9</ele>
        <time>2024-05-26T21:07:08.811Z</time>
      </trkpt>
      <trkpt lat="48.43125" lon="2.39138">
        <ele>125.69</ele>
        <time>2024-05-26T21:07:15.056Z</time>
      </trkpt>
      <trkpt lat="48.43131" lon="2.39135">
        <ele>126.46</ele>
        <time>2024-05-26T21:07:21.302Z</time>
      </trkpt>
      <trkpt lat="48.43134" lon="2.39134">
        <ele>127.19</ele>
        <time>2024-05-26T21:07:27.549Z</time>
      </trkpt>
      <trkpt lat="48.43136" lon="2.39133">
        <ele>127.9</ele>
        <time>2024-05-26T21:07:33.796Z</time>
      </trkpt>
      <trkpt lat="48.43144" lon="2.39129">
        <ele>128.62</ele>
        <time>2024-05-26T21:07:40.045Z</time>
      </trkpt>
      <trkpt lat="48.4315" lon="2.39127">
        <ele>129.32</ele>
        <time>2024-05-26T21:07:46.295Z</time>
      </trkpt>
      <trkpt lat="48.43153" lon="2.39126">
        <ele>129.96</ele>
        <time>2024-05-26T21:07:52.546Z</time>
      </trkpt>
      <trkpt lat="48.43163" lon="2.39119">
        <ele>130.62</ele>
        <time>2024-05-26T21:07:58.799Z</time>
      </trkpt>
      <trkpt lat="48.43166" lon="2.39118">
        <ele>131.2</ele>
        <time>2024-05-26T21:08:05.053Z</time>
      </trkpt>
      <trkpt lat="48.43174" lon="2.39116">
        <ele>131.78</ele>
        <time>2024-05-26T21:08:11.308Z</time>
      </trkpt>
      <trkpt lat="48.4318" lon="2.39113">
        <ele>132.32</ele>
        <time>2024-05-26T21:08:17.565Z</time>
      </trkpt>
      <trkpt lat="48.43182" lon="2.39111">
        <ele>132.8</ele>
        <time>2024-05-26T21:08:23.822Z</time>
      </trkpt>
      <trkpt lat="48.43193" lon="2.39106">
        <ele>133.3</ele>
        <time>2024-05-26T21:08:30.081Z</time>
      </trkpt>
      <trkpt lat="48.43197" lon="2.39101">
        <ele>133.72</ele>
        <time>2024-05-26T21:08:36.341Z</time>
      </trkpt>
      <trkpt lat="48.43198" lon="2.39094">
        <ele>134.09</ele>
        <time>2024-05-26T21:08:42.602Z</time>
      </trkpt>
      <trkpt lat="48.43198" lon="2.39091">
        <ele>134.43</ele>
        <time>2024-05-26T21:08:48.864Z</time>
      </trkpt>
      <trkpt lat="48.43199" lon="2.39078">
        <ele>134.73</ele>
        <time>2024-05-26T21:08:55.127Z</time>
      </trkpt>
      <trkpt lat="48.43199" lon="2.39075">
        <ele>134.99</ele>
        <time>2024-05-26T21:09:01.391Z</time>
      </trkpt>
      <trkpt lat="48.43198" lon="2.39047">
        <ele>135.2</ele>
        <time>2024-05-26T21:09:07.659Z</time>
      </trkpt>
      <trkpt lat="48.43194" lon="2.39021">
        <ele>135.39</ele>
        <time>2024-05-26T21:09:13.930Z</time>
      </trkpt>
      <trkpt lat="48.43189" lon="2.38975">
        <ele>135.58</ele>
        <time>2024-05-26T21:09:20.207Z</time>
      </trkpt>
      <trkpt lat="48.43187" lon="2.38949">
        <ele>135.73</ele>
        <time>2024-05-26T21:09:26.488Z</time>
      </trkpt>
      <trkpt lat="48.43188" lon="2.38944">
        <ele>135.84</ele>
        <time>2024-05-26T21:09:32.770Z</time>
      </trkpt>
      <trkpt lat="48.43191" lon="2.38939">
        <ele>135.93</ele>
        <time>2024-05-26T21:09:39.053Z</time>
      </trkpt>
      <trkpt lat="48.43196" lon="2.38932">
        <ele>136</ele>
        <time>2024-05-26T21:09:45.337Z</time>
      </trkpt>
      <trkpt lat="48.43196" lon="2.38911">
        <ele>136.03</ele>
        <time>2024-05-26T21:09:51.624Z</time>
      </trkpt>
      <trkpt lat="48.43191" lon="2.38902">
        <ele>136.04</ele>
        <time>2024-05-26T21:09:57.912Z</time>
      </trkpt>
      <trkpt lat="48.4319" lon="2.38895">
        <ele>136.03</ele>
        <time>2024-05-26T21:10:04.201Z</time>
      </trkpt>
      <trkpt lat="48.43191" lon="2.38882">
        <ele>136</ele>
        <time>2024-05-26T21:10:10.492Z</time>
      </trkpt>
      <trkpt lat="48.43202" lon="2.38864">
        <ele>135.94</ele>
        <time>2024-05-26T21:10:16.786Z</time>
      </trkpt>
      <trkpt lat="48.43219" lon="2.3885">
        <ele>135.82</ele>
        <time>2024-05-26T21:10:23.084Z</time>
      </trkpt>
      <trkpt lat="48.43222" lon="2.38844">
        <ele>135.72</ele>
        <time>2024-05-26T21:10:29.383Z</time>
      </trkpt>
      <trkpt lat="48.43225" lon="2.38836">
        <ele>135.6</ele>
        <time>2024-05-26T21:10:35.683Z</time>
      </trkpt>
      <trkpt lat="48.43236" lon="2.38816">
        <ele>135.45</ele>
        <time>2024-05-26T21:10:41.987Z</time>
      </trkpt>
      <trkpt lat="48.43236" lon="2.38808">
        <ele>135.3</ele>
        <time>2024-05-26T21:10:48.292Z</time>
      </trkpt>
      <trkpt lat="48.43236" lon="2.38807">
        <ele>135.14</ele>
        <time>2024-05-26T21:10:54.597Z</time>
      </trkpt>
      <trkpt lat="48.43236" lon="2.38808">
        <ele>134.98</ele>
        <time>2024-05-26T21:11:00.902Z</time>
      </trkpt>
      <trkpt lat="48.43235" lon="2.38808">
        <ele>134.81</ele>
        <time>2024-05-26T21:11:07.207Z</time>
      </trkpt>
      <trkpt lat="48.43233" lon="2.3881">
        <ele>134.64</ele>
        <time>2024-05-26T21:11:13.513Z</time>
      </trkpt>
      <trkpt lat="48.43227" lon="2.38813">
        <ele>134.47</ele>
        <time>2024-05-26T21:11:19.820Z</time>
      </trkpt>
      <trkpt lat="48.43216" lon="2.38817">
        <ele>134.29</ele>
        <time>2024-05-26T21:11:26.129Z</time>
      </trkpt>
      <trkpt lat="48.43211" lon="2.38814">
        <ele>134.1</ele>
        <time>2024-05-26T21:11:32.439Z</time>
      </trkpt>
      <trkpt lat="48.43207" lon="2.38808">
        <ele>133.91</ele>
        <time>2024-05-26T21:11:38.750Z</time>
      </trkpt>
      <trkpt lat="48.43201" lon="2.38782">
        <ele>133.67</ele>
        <time>2024-05-26T21:11:45.065Z</time>
      </trkpt>
      <trkpt lat="48.43199" lon="2.38775">
        <ele>133.47</ele>
        <time>2024-05-26T21:11:51.381Z</time>
      </trkpt>
      <trkpt lat="48.432" lon="2.38753">
        <ele>133.23</ele>
        <time>2024-05-26T21:11:57.700Z</time>
      </trkpt>
      <trkpt lat="48.43212" lon="2.38741">
        <ele>132.99</ele>
        <time>2024-05-26T21:12:04.022Z</time>
      </trkpt>
      <trkpt lat="48.43219" lon="2.38744">
        <ele>132.83</ele>
        <time>2024-05-26T21:12:10.346Z</time>
      </trkpt>
      <trkpt lat="48.43222" lon="2.38747">
        <ele>132.69</ele>
        <time>2024-05-26T21:12:16.670Z</time>
      </trkpt>
      <trkpt lat="48.43228" lon="2.3875">
        <ele>132.54</ele>
        <time>2024-05-26T21:12:22.996Z</time>
      </trkpt>
      <trkpt lat="48.43231" lon="2.38751">
        <ele>132.41</ele>
        <time>2024-05-26T21:12:29.322Z</time>
      </trkpt>
      <trkpt lat="48.43234" lon="2.38752">
        <ele>132.29</ele>
        <time>2024-05-26T21:12:35.649Z</time>
      </trkpt>
      <trkpt lat="48.4324" lon="2.38754">
        <ele>132.17</ele>
        <time>2024-05-26T21:12:41.977Z</time>
      </trkpt>
      <trkpt lat="48.43241" lon="2.38753">
        <ele>132.07</ele>
        <time>2024-05-26T21:12:48.305Z</time>
      </trkpt>
      <trkpt lat="48.43248" lon="2.38747">
        <ele>131.95</ele>
        <time>2024-05-26T21:12:54.635Z</time>
      </trkpt>
      <trkpt lat="48.4325" lon="2.38748">
        <ele>131.87</ele>
        <time>2024-05-26T21:13:00.965Z</time>
      </trkpt>
      <trkpt lat="48.4326" lon="2.38746">
        <ele>131.82</ele>
        <time>2024-05-26T21:13:07.297Z</time>
      </trkpt>
      <trkpt lat="48.43264" lon="2.38746">
        <ele>131.77</ele>
        <time>2024-05-26T21:13:13.630Z</time>
      </trkpt>
      <trkpt lat="48.4327" lon="2.38747">
        <ele>131.73</ele>
        <time>2024-05-26T21:13:19.964Z</time>
      </trkpt>
      <trkpt lat="48.43276" lon="2.38746">
        <ele>131.7</ele>
        <time>2024-05-26T21:13:26.299Z</time>
      </trkpt>
      <trkpt lat="48.43282" lon="2.38746">
        <ele>131.69</ele>
        <time>2024-05-26T21:13:32.636Z</time>
      </trkpt>
      <trkpt lat="48.43284" lon="2.38745">
        <ele>131.67</ele>
        <time>2024-05-26T21:13:38.973Z</time>
      </trkpt>
      <trkpt lat="48.43291" lon="2.38744">
        <ele>131.67</ele>
        <time>2024-05-26T21:13:45.312Z</time>
      </trkpt>
      <trkpt lat="48.43295" lon="2.38742">
        <ele>131.66</ele>
        <time>2024-05-26T21:13:51.651Z</time>
      </trkpt>
      <trkpt lat="48.433" lon="2.3874">
        <ele>131.66</ele>
        <time>2024-05-26T21:13:57.991Z</time>
      </trkpt>
      <trkpt lat="48.43307" lon="2.38743">
        <ele>131.68</ele>
        <time>2024-05-26T21:14:04.333Z</time>
      </trkpt>
      <trkpt lat="48.43311" lon="2.38748">
        <ele>131.69</ele>
        <time>2024-05-26T21:14:10.676Z</time>
      </trkpt>
      <trkpt lat="48.43315" lon="2.3876">
        <ele>131.71</ele>
        <time>2024-05-26T21:14:17.021Z</time>
      </trkpt>
      <trkpt lat="48.43316" lon="2.38764">
        <ele>131.7</ele>
        <time>2024-05-26T21:14:23.366Z</time>
      </trkpt>
      <trkpt lat="48.43324" lon="2.38774">
        <ele>131.71</ele>
        <time>2024-05-26T21:14:29.713Z</time>
      </trkpt>
      <trkpt lat="48.43328" lon="2.38779">
        <ele>131.69</ele>
        <time>2024-05-26T21:14:36.061Z</time>
      </trkpt>
      <trkpt lat="48.4333" lon="2.38785">
        <ele>131.66</ele>
        <time>2024-05-26T21:14:42.410Z</time>
      </trkpt>
      <trkpt lat="48.43338" lon="2.38804">
        <ele>131.62</ele>
        <time>2024-05-26T21:14:48.762Z</time>
      </trkpt>
      <trkpt lat="48.43343" lon="2.38815">
        <ele>131.56</ele>
        <time>2024-05-26T21:14:55.116Z</time>
      </trkpt>
      <trkpt lat="48.43342" lon="2.38817">
        <ele>131.48</ele>
        <time>2024-05-26T21:15:01.470Z</time>
      </trkpt>
      <trkpt lat="48.43341" lon="2.38818">
        <ele>131.39</ele>
        <time>2024-05-26T21:15:07.824Z</time>
      </trkpt>
      <trkpt lat="48.43342" lon="2.38814">
        <ele>131.3</ele>
        <time>2024-05-26T21:15:14.179Z</time>
      </trkpt>
      <trkpt lat="48.43344" lon="2.38812">
        <ele>131.18</ele>
        <time>2024-05-26T21:15:20.534Z</time>
      </trkpt>
      <trkpt lat="48.43344" lon="2.38797">
        <ele>131.05</ele>
        <time>2024-05-26T21:15:26.891Z</time>
      </trkpt>
      <trkpt lat="48.43347" lon="2.38777">
        <ele>130.89</ele>
        <time>2024-05-26T21:15:33.251Z</time>
      </trkpt>
      <trkpt lat="48.43354" lon="2.38768">
        <ele>130.71</ele>
        <time>2024-05-26T21:15:39.613Z</time>
      </trkpt>
      <trkpt lat="48.43361" lon="2.3876">
        <ele>130.52</ele>
        <time>2024-05-26T21:15:45.977Z</time>
      </trkpt>
      <trkpt lat="48.43364" lon="2.38754">
        <ele>130.31</ele>
        <time>2024-05-26T21:15:52.342Z</time>
      </trkpt>
      <trkpt lat="48.43371" lon="2.3875">
        <ele>130.08</ele>
        <time>2024-05-26T21:15:58.708Z</time>
      </trkpt>
      <trkpt lat="48.43381" lon="2.38747">
        <ele>129.82</ele>
        <time>2024-05-26T21:16:05.076Z</time>
      </trkpt>
      <trkpt lat="48.43383" lon="2.38744">
        <ele>129.58</ele>
        <time>2024-05-26T21:16:11.445Z</time>
      </trkpt>
      <trkpt lat="48.43385" lon="2.38742">
        <ele>129.32</ele>
        <time>2024-05-26T21:16:17.814Z</time>
      </trkpt>
      <trkpt lat="48.4339" lon="2.38742">
        <ele>129.05</ele>
        <time>2024-05-26T21:16:24.184Z</time>
      </trkpt>
      <trkpt lat="48.43392" lon="2.38746">
        <ele>128.79</ele>
        <time>2024-05-26T21:16:30.555Z</time>
      </trkpt>
      <trkpt lat="48.43394" lon="2.3875">
        <ele>128.52</ele>
        <time>2024-05-26T21:16:36.926Z</time>
      </trkpt>
      <trkpt lat="48.43398" lon="2.38756">
        <ele>128.25</ele>
        <time>2024-05-26T21:16:43.299Z</time>
      </trkpt>
      <trkpt lat="48.434" lon="2.38761">
        <ele>127.98</ele>
        <time>2024-05-26T21:16:49.672Z</time>
      </trkpt>
      <trkpt lat="48.43402" lon="2.38763">
        <ele>127.7</ele>
        <time>2024-05-26T21:16:56.046Z</time>
      </trkpt>
      <trkpt lat="48.43407" lon="2.3877">
        <ele>127.42</ele>
        <time>2024-05-26T21:17:02.421Z</time>
      </trkpt>
      <trkpt lat="48.43412" lon="2.38775">
        <ele>127.13</ele>
        <time>2024-05-26T21:17:08.797Z</time>
      </trkpt>
      <trkpt lat="48.43418" lon="2.38781">
        <ele>126.82</ele>
        <time>2024-05-26T21:17:15.175Z</time>
      </trkpt>
      <trkpt lat="48.43428" lon="2.38787">
        <ele>126.48</ele>
        <time>2024-05-26T21:17:21.555Z</time>
      </trkpt>
      <trkpt lat="48.43433" lon="2.38788">
        <ele>126.17</ele>
        <time>2024-05-26T21:17:27.936Z</time>
      </trkpt>
      <trkpt lat="48.43436" lon="2.3879">
        <ele>125.9</ele>
        <time>2024-05-26T21:17:34.318Z</time>
      </trkpt>
      <trkpt lat="48.43441" lon="2.38794">
        <ele>125.62</ele>
        <time>2024-05-26T21:17:40.701Z</time>
      </trkpt>
      <trkpt lat="48.43445" lon="2.38793">
        <ele>125.35</ele>
        <time>2024-05-26T21:17:47.085Z</time>
      </trkpt>
      <trkpt lat="48.4345" lon="2.38793">
        <ele>125.11</ele>
        <time>2024-05-26T21:17:53.470Z</time>
      </trkpt>
      <trkpt lat="48.43452" lon="2.38795">
        <ele>124.9</ele>
        <time>2024-05-26T21:17:59.855Z</time>
      </trkpt>
      <trkpt lat="48.43454" lon="2.38799">
        <ele>124.73</ele>
        <time>2024-05-26T21:18:06.241Z</time>
      </trkpt>
      <trkpt lat="48.43457" lon="2.38804">
        <ele>124.57</ele>
        <time>2024-05-26T21:18:12.628Z</time>
      </trkpt>
      <trkpt lat="48.43459" lon="2.38807">
        <ele>124.43</ele>
        <time>2024-05-26T21:18:19.015Z</time>
      </trkpt>
      <trkpt lat="48.43461" lon="2.3881">
        <ele>124.33</ele>
        <time>2024-05-26T21:18:25.403Z</time>
      </trkpt>
      <trkpt lat="48.43462" lon="2.38813">
        <ele>124.25</ele>
        <time>2024-05-26T21:18:31.791Z</time>
      </trkpt>
      <trkpt lat="48.43463" lon="2.38818">
        <ele>124.2</ele>
        <time>2024-05-26T21:18:38.180Z</time>
      </trkpt>
      <trkpt lat="48.43473" lon="2.3883">
        <ele>124.15</ele>
        <time>2024-05-26T21:18:44.571Z</time>
      </trkpt>
      <trkpt lat="48.43478" lon="2.38845">
        <ele>124.16</ele>
        <time>2024-05-26T21:18:50.965Z</time>
      </trkpt>
      <trkpt lat="48.4348" lon="2.38848">
        <ele>124.18</ele>
        <time>2024-05-26T21:18:57.359Z</time>
      </trkpt>
      <trkpt lat="48.4348" lon="2.38853">
        <ele>124.24</ele>
        <time>2024-05-26T21:19:03.754Z</time>
      </trkpt>
      <trkpt lat="48.43479" lon="2.3886">
        <ele>124.32</ele>
        <time>2024-05-26T21:19:10.150Z</time>
      </trkpt>
      <trkpt lat="48.43478" lon="2.38865">
        <ele>124.43</ele>
        <time>2024-05-26T21:19:16.546Z</time>
      </trkpt>
      <trkpt lat="48.43478" lon="2.38867">
        <ele>124.55</ele>
        <time>2024-05-26T21:19:22.943Z</time>
      </trkpt>
      <trkpt lat="48.43477" lon="2.38868">
        <ele>124.7</ele>
        <time>2024-05-26T21:19:29.340Z</time>
      </trkpt>
      <trkpt lat="48.43475" lon="2.38875">
        <ele>124.88</ele>
        <time>2024-05-26T21:19:35.738Z</time>
      </trkpt>
      <trkpt lat="48.43472" lon="2.38881">
        <ele>125.09</ele>
        <time>2024-05-26T21:19:42.137Z</time>
      </trkpt>
      <trkpt lat="48.43471" lon="2.38883">
        <ele>125.3</ele>
        <time>2024-05-26T21:19:48.536Z</time>
      </trkpt>
      <trkpt lat="48.43469" lon="2.38887">
        <ele>125.54</ele>
        <time>2024-05-26T21:19:54.936Z</time>
      </trkpt>
      <trkpt lat="48.43468" lon="2.38889">
        <ele>125.78</ele>
        <time>2024-05-26T21:20:01.336Z</time>
      </trkpt>
      <trkpt lat="48.43467" lon="2.38893">
        <ele>126.04</ele>
        <time>2024-05-26T21:20:07.737Z</time>
      </trkpt>
      <trkpt lat="48.43466" lon="2.38896">
        <ele>126.32</ele>
        <time>2024-05-26T21:20:14.138Z</time>
      </trkpt>
      <trkpt lat="48.43465" lon="2.38898">
        <ele>126.61</ele>
        <time>2024-05-26T21:20:20.540Z</time>
      </trkpt>
      <trkpt lat="48.43465" lon="2.389">
        <ele>126.91</ele>
        <time>2024-05-26T21:20:26.942Z</time>
      </trkpt>
      <trkpt lat="48.43463" lon="2.38911">
        <ele>127.22</ele>
        <time>2024-05-26T21:20:33.345Z</time>
      </trkpt>
      <trkpt lat="48.43462" lon="2.38915">
        <ele>127.55</ele>
        <time>2024-05-26T21:20:39.749Z</time>
      </trkpt>
      <trkpt lat="48.43458" lon="2.38911">
        <ele>127.9</ele>
        <time>2024-05-26T21:20:46.154Z</time>
      </trkpt>
      <trkpt lat="48.43454" lon="2.38894">
        <ele>128.27</ele>
        <time>2024-05-26T21:20:52.561Z</time>
      </trkpt>
      <trkpt lat="48.43441" lon="2.38887">
        <ele>128.66</ele>
        <time>2024-05-26T21:20:58.971Z</time>
      </trkpt>
      <trkpt lat="48.43431" lon="2.38884">
        <ele>129.05</ele>
        <time>2024-05-26T21:21:05.383Z</time>
      </trkpt>
      <trkpt lat="48.43424" lon="2.38884">
        <ele>129.42</ele>
        <time>2024-05-26T21:21:11.797Z</time>
      </trkpt>
      <trkpt lat="48.43403" lon="2.38886">
        <ele>129.82</ele>
        <time>2024-05-26T21:21:18.215Z</time>
      </trkpt>
      <trkpt lat="48.434" lon="2.38886">
        <ele>130.18</ele>
        <time>2024-05-26T21:21:24.633Z</time>
      </trkpt>
      <trkpt lat="48.4339" lon="2.38885">
        <ele>130.55</ele>
        <time>2024-05-26T21:21:31.053Z</time>
      </trkpt>
      <trkpt lat="48.4338" lon="2.38883">
        <ele>130.91</ele>
        <time>2024-05-26T21:21:37.475Z</time>
      </trkpt>
      <trkpt lat="48.43378" lon="2.3888">
        <ele>131.27</ele>
        <time>2024-05-26T21:21:43.898Z</time>
      </trkpt>
      <trkpt lat="48.43368" lon="2.38868">
        <ele>131.63</ele>
        <time>2024-05-26T21:21:50.323Z</time>
      </trkpt>
      <trkpt lat="48.4335" lon="2.38857">
        <ele>131.99</ele>
        <time>2024-05-26T21:21:56.752Z</time>
      </trkpt>
      <trkpt lat="48.43334" lon="2.38861">
        <ele>132.33</ele>
        <time>2024-05-26T21:22:03.185Z</time>
      </trkpt>
      <trkpt lat="48.43313" lon="2.38875">
        <ele>132.63</ele>
        <time>2024-05-26T21:22:09.622Z</time>
      </trkpt>
      <trkpt lat="48.43304" lon="2.38894">
        <ele>132.99</ele>
        <time>2024-05-26T21:22:16.062Z</time>
      </trkpt>
      <trkpt lat="48.43294" lon="2.38917">
        <ele>133.31</ele>
        <time>2024-05-26T21:22:22.506Z</time>
      </trkpt>
      <trkpt lat="48.43295" lon="2.38925">
        <ele>133.62</ele>
        <time>2024-05-26T21:22:28.951Z</time>
      </trkpt>
      <trkpt lat="48.43296" lon="2.38928">
        <ele>133.92</ele>
        <time>2024-05-26T21:22:35.396Z</time>
      </trkpt>
      <trkpt lat="48.43305" lon="2.38952">
        <ele>134.2</ele>
        <time>2024-05-26T21:22:41.845Z</time>
      </trkpt>
      <trkpt lat="48.43312" lon="2.38973">
        <ele>134.48</ele>
        <time>2024-05-26T21:22:48.297Z</time>
      </trkpt>
      <trkpt lat="48.43326" lon="2.39002">
        <ele>134.77</ele>
        <time>2024-05-26T21:22:54.754Z</time>
      </trkpt>
      <trkpt lat="48.43335" lon="2.39027">
        <ele>135.01</ele>
        <time>2024-05-26T21:23:01.215Z</time>
      </trkpt>
      <trkpt lat="48.43345" lon="2.39063">
        <ele>135.24</ele>
        <time>2024-05-26T21:23:07.681Z</time>
      </trkpt>
      <trkpt lat="48.43347" lon="2.39085">
        <ele>135.51</ele>
        <time>2024-05-26T21:23:14.150Z</time>
      </trkpt>
      <trkpt lat="48.43341" lon="2.39111">
        <ele>135.8</ele>
        <time>2024-05-26T21:23:20.623Z</time>
      </trkpt>
      <trkpt lat="48.43333" lon="2.39133">
        <ele>136.05</ele>
        <time>2024-05-26T21:23:27.099Z</time>
      </trkpt>
      <trkpt lat="48.43327" lon="2.39142">
        <ele>136.29</ele>
        <time>2024-05-26T21:23:33.577Z</time>
      </trkpt>
      <trkpt lat="48.43323" lon="2.39148">
        <ele>136.5</ele>
        <time>2024-05-26T21:23:40.056Z</time>
      </trkpt>
      <trkpt lat="48.43318" lon="2.39155">
        <ele>136.71</ele>
        <time>2024-05-26T21:23:46.536Z</time>
      </trkpt>
      <trkpt lat="48.43313" lon="2.39156">
        <ele>136.9</ele>
        <time>2024-05-26T21:23:53.017Z</time>
      </trkpt>
      <trkpt lat="48.43303" lon="2.39159">
        <ele>137.1</ele>
        <time>2024-05-26T21:23:59.500Z</time>
      </trkpt>
      <trkpt lat="48.43295" lon="2.39161">
        <ele>137.26</ele>
        <time>2024-05-26T21:24:05.985Z</time>
      </trkpt>
      <trkpt lat="48.43287" lon="2.39165">
        <ele>137.41</ele>
        <time>2024-05-26T21:24:12.472Z</time>
      </trkpt>
      <trkpt lat="48.43271" lon="2.39171">
        <ele>137.55</ele>
        <time>2024-05-26T21:24:18.962Z</time>
      </trkpt>
      <trkpt lat="48.43252" lon="2.39178">
        <ele>137.67</ele>
        <time>2024-05-26T21:24:25.456Z</time>
      </trkpt>
      <trkpt lat="48.43248" lon="2.39176">
        <ele>137.78</ele>
        <time>2024-05-26T21:24:31.951Z</time>
      </trkpt>
      <trkpt lat="48.43243" lon="2.3917">
        <ele>137.88</ele>
        <time>2024-05-26T21:24:38.447Z</time>
      </trkpt>
      <trkpt lat="48.43235" lon="2.39156">
        <ele>137.97</ele>
        <time>2024-05-26T21:24:44.945Z</time>
      </trkpt>
      <trkpt lat="48.43223" lon="2.39159">
        <ele>138.01</ele>
        <time>2024-05-26T21:24:51.446Z</time>
      </trkpt>
      <trkpt lat="48.43208" lon="2.39168">
        <ele>138.04</ele>
        <time>2024-05-26T21:24:57.950Z</time>
      </trkpt>
      <trkpt lat="48.43204" lon="2.39172">
        <ele>138.1</ele>
        <time>2024-05-26T21:25:04.455Z</time>
      </trkpt>
      <trkpt lat="48.43202" lon="2.39176">
        <ele>138.17</ele>
        <time>2024-05-26T21:25:10.961Z</time>
      </trkpt>
      <trkpt lat="48.43202" lon="2.39182">
        <ele>138.24</ele>
        <time>2024-05-26T21:25:17.468Z</time>
      </trkpt>
      <trkpt lat="48.43205" lon="2.39187">
        <ele>138.32</ele>
        <time>2024-05-26T21:25:23.975Z</time>
      </trkpt>
      <trkpt lat="48.4321" lon="2.39189">
        <ele>138.39</ele>
        <time>2024-05-26T21:25:30.483Z</time>
      </trkpt>
      <trkpt lat="48.43212" lon="2.3919">
        <ele>138.46</ele>
        <time>2024-05-26T21:25:36.992Z</time>
      </trkpt>
      <trkpt lat="48.43225" lon="2.39193">
        <ele>138.55</ele>
        <time>2024-05-26T21:25:43.503Z</time>
      </trkpt>
      <trkpt lat="48.43238" lon="2.39194">
        <ele>138.62</ele>
        <time>2024-05-26T21:25:50.017Z</time>
      </trkpt>
      <trkpt lat="48.43242" lon="2.39193">
        <ele>138.67</ele>
        <time>2024-05-26T21:25:56.532Z</time>
      </trkpt>
      <trkpt lat="48.43251" lon="2.39194">
        <ele>138.71</ele>
        <time>2024-05-26T21:26:03.049Z</time>
      </trkpt>
      <trkpt lat="48.43269" lon="2.39197">
        <ele>138.75</ele>
        <time>2024-05-26T21:26:09.569Z</time>
      </trkpt>
      <trkpt lat="48.43283" lon="2.39196">
        <ele>138.77</ele>
        <time>2024-05-26T21:26:16.092Z</time>
      </trkpt>
      <trkpt lat="48.43285" lon="2.39196">
        <ele>138.76</ele>
        <time>2024-05-26T21:26:22.616Z</time>
      </trkpt>
      <trkpt lat="48.43286" lon="2.39197">
        <ele>138.75</ele>
        <time>2024-05-26T21:26:29.140Z</time>
      </trkpt>
      <trkpt lat="48.43288" lon="2.392">
        <ele>138.72</ele>
        <time>2024-05-26T21:26:35.664Z</time>
      </trkpt>
      <trkpt lat="48.4329" lon="2.39211">
        <ele>138.68</ele>
        <time>2024-05-26T21:26:42.190Z</time>
      </trkpt>
      <trkpt lat="48.4329" lon="2.39229">
        <ele>138.63</ele>
        <time>2024-05-26T21:26:48.718Z</time>
      </trkpt>
      <trkpt lat="48.43292" lon="2.39239">
        <ele>138.57</ele>
        <time>2024-05-26T21:26:55.248Z</time>
      </trkpt>
      <trkpt lat="48.43293" lon="2.39243">
        <ele>138.5</ele>
        <time>2024-05-26T21:27:01.778Z</time>
      </trkpt>
      <trkpt lat="48.43292" lon="2.39246">
        <ele>138.42</ele>
        <time>2024-05-26T21:27:08.309Z</time>
      </trkpt>
      <trkpt lat="48.43286" lon="2.39256">
        <ele>138.32</ele>
        <time>2024-05-26T21:27:14.841Z</time>
      </trkpt>
      <trkpt lat="48.43285" lon="2.39258">
        <ele>138.21</ele>
        <time>2024-05-26T21:27:21.374Z</time>
      </trkpt>
      <trkpt lat="48.43284" lon="2.39267">
        <ele>138.08</ele>
        <time>2024-05-26T21:27:27.908Z</time>
      </trkpt>
      <trkpt lat="48.43283" lon="2.39268">
        <ele>137.93</ele>
        <time>2024-05-26T21:27:34.442Z</time>
      </trkpt>
      <trkpt lat="48.43275" lon="2.39282">
        <ele>137.77</ele>
        <time>2024-05-26T21:27:40.979Z</time>
      </trkpt>
      <trkpt lat="48.43266" lon="2.39291">
        <ele>137.56</ele>
        <time>2024-05-26T21:27:47.518Z</time>
      </trkpt>
      <trkpt lat="48.43265" lon="2.39298">
        <ele>137.37</ele>
        <time>2024-05-26T21:27:54.058Z</time>
      </trkpt>
      <trkpt lat="48.43256" lon="2.39315">
        <ele>137.15</ele>
        <time>2024-05-26T21:28:00.601Z</time>
      </trkpt>
      <trkpt lat="48.4325" lon="2.39331">
        <ele>136.93</ele>
        <time>2024-05-26T21:28:07.146Z</time>
      </trkpt>
      <trkpt lat="48.43247" lon="2.39339">
        <ele>136.7</ele>
        <time>2024-05-26T21:28:13.692Z</time>
      </trkpt>
      <trkpt lat="48.43246" lon="2.39342">
        <ele>136.46</ele>
        <time>2024-05-26T21:28:20.239Z</time>
      </trkpt>
      <trkpt lat="48.43238" lon="2.3936">
        <ele>136.21</ele>
        <time>2024-05-26T21:28:26.789Z</time>
      </trkpt>
      <trkpt lat="48.43234" lon="2.3938">
        <ele>135.94</ele>
        <time>2024-05-26T21:28:33.341Z</time>
      </trkpt>
      <trkpt lat="48.43234" lon="2.39386">
        <ele>135.68</ele>
        <time>2024-05-26T21:28:39.894Z</time>
      </trkpt>
      <trkpt lat="48.43232" lon="2.394">
        <ele>135.38</ele>
        <time>2024-05-26T21:28:46.449Z</time>
      </trkpt>
      <trkpt lat="48.43231" lon="2.39405">
        <ele>135.09</ele>
        <time>2024-05-26T21:28:53.005Z</time>
      </trkpt>
      <trkpt lat="48.43229" lon="2.39405">
        <ele>134.8</ele>
        <time>2024-05-26T21:28:59.561Z</time>
      </trkpt>
      <trkpt lat="48.43218" lon="2.39404">
        <ele>134.49</ele>
        <time>2024-05-26T21:29:06.119Z</time>
      </trkpt>
      <trkpt lat="48.43218" lon="2.39393">
        <ele>134.2</ele>
        <time>2024-05-26T21:29:12.679Z</time>
      </trkpt>
      <trkpt lat="48.43218" lon="2.39389">
        <ele>133.91</ele>
        <time>2024-05-26T21:29:19.239Z</time>
      </trkpt>
      <trkpt lat="48.43217" lon="2.39387">
        <ele>133.6</ele>
        <time>2024-05-26T21:29:25.799Z</time>
      </trkpt>
      <trkpt lat="48.43216" lon="2.3938">
        <ele>133.3</ele>
        <time>2024-05-26T21:29:32.360Z</time>
      </trkpt>
      <trkpt lat="48.43214" lon="2.39376">
        <ele>132.99</ele>
        <time>2024-05-26T21:29:38.922Z</time>
      </trkpt>
      <trkpt lat="48.43205" lon="2.39361">
        <ele>132.66</ele>
        <time>2024-05-26T21:29:45.487Z</time>
      </trkpt>
      <trkpt lat="48.43196" lon="2.39347">
        <ele>132.32</ele>
        <time>2024-05-26T21:29:52.054Z</time>
      </trkpt>
      <trkpt lat="48.43188" lon="2.39339">
        <ele>131.99</ele>
        <time>2024-05-26T21:29:58.623Z</time>
      </trkpt>
      <trkpt lat="48.43176" lon="2.39325">
        <ele>131.63</ele>
        <time>2024-05-26T21:30:05.195Z</time>
      </trkpt>
      <trkpt lat="48.43173" lon="2.39322">
        <ele>131.34</ele>
        <time>2024-05-26T21:30:11.768Z</time>
      </trkpt>
      <trkpt lat="48.43168" lon="2.39317">
        <ele>131.05</ele>
        <time>2024-05-26T21:30:18.342Z</time>
      </trkpt>
      <trkpt lat="48.43166" lon="2.39317">
        <ele>130.78</ele>
        <time>2024-05-26T21:30:24.917Z</time>
      </trkpt>
      <trkpt lat="48.43153" lon="2.39326">
        <ele>130.48</ele>
        <time>2024-05-26T21:30:31.495Z</time>
      </trkpt>
      <trkpt lat="48.43147" lon="2.39325">
        <ele>130.22</ele>
        <time>2024-05-26T21:30:38.074Z</time>
      </trkpt>
      <trkpt lat="48.43144" lon="2.3933">
        <ele>130</ele>
        <time>2024-05-26T21:30:44.654Z</time>
      </trkpt>
      <trkpt lat="48.43145" lon="2.39337">
        <ele>129.82</ele>
        <time>2024-05-26T21:30:51.235Z</time>
      </trkpt>
      <trkpt lat="48.43149" lon="2.39359">
        <ele>129.67</ele>
        <time>2024-05-26T21:30:57.819Z</time>
      </trkpt>
      <trkpt lat="48.4315" lon="2.39364">
        <ele>129.52</ele>
        <time>2024-05-26T21:31:04.403Z</time>
      </trkpt>
      <trkpt lat="48.43157" lon="2.39388">
        <ele>129.45</ele>
        <time>2024-05-26T21:31:10.991Z</time>
      </trkpt>
      <trkpt lat="48.43165" lon="2.3942">
        <ele>129.4</ele>
        <time>2024-05-26T21:31:17.583Z</time>
      </trkpt>
      <trkpt lat="48.43178" lon="2.3946">
        <ele>129.29</ele>
        <time>2024-05-26T21:31:24.181Z</time>
      </trkpt>
      <trkpt lat="48.43193" lon="2.39507">
        <ele>129.2</ele>
        <time>2024-05-26T21:31:30.786Z</time>
      </trkpt>
      <trkpt lat="48.43201" lon="2.39527">
        <ele>129.1</ele>
        <time>2024-05-26T21:31:37.394Z</time>
      </trkpt>
      <trkpt lat="48.43206" lon="2.39539">
        <ele>129.03</ele>
        <time>2024-05-26T21:31:44.004Z</time>
      </trkpt>
      <trkpt lat="48.43215" lon="2.39555">
        <ele>128.97</ele>
        <time>2024-05-26T21:31:50.617Z</time>
      </trkpt>
      <trkpt lat="48.43223" lon="2.39571">
        <ele>128.94</ele>
        <time>2024-05-26T21:31:57.233Z</time>
      </trkpt>
      <trkpt lat="48.43243" lon="2.39588">
        <ele>128.95</ele>
        <time>2024-05-26T21:32:03.853Z</time>
      </trkpt>
      <trkpt lat="48.43248" lon="2.39591">
        <ele>128.97</ele>
        <time>2024-05-26T21:32:10.474Z</time>
      </trkpt>
      <trkpt lat="48.43269" lon="2.39598">
        <ele>129.01</ele>
        <time>2024-05-26T21:32:17.100Z</time>
      </trkpt>
      <trkpt lat="48.43295" lon="2.39605">
        <ele>128.98</ele>
        <time>2024-05-26T21:32:23.731Z</time>
      </trkpt>
      <trkpt lat="48.433" lon="2.39608">
        <ele>129.01</ele>
        <time>2024-05-26T21:32:30.363Z</time>
      </trkpt>
      <trkpt lat="48.43316" lon="2.39623">
        <ele>129.01</ele>
        <time>2024-05-26T21:32:36.999Z</time>
      </trkpt>
      <trkpt lat="48.43332" lon="2.39654">
        <ele>129.02</ele>
        <time>2024-05-26T21:32:43.640Z</time>
      </trkpt>
      <trkpt lat="48.43334" lon="2.39662">
        <ele>129.11</ele>
        <time>2024-05-26T21:32:50.282Z</time>
      </trkpt>
      <trkpt lat="48.43336" lon="2.3967">
        <ele>129.22</ele>
        <time>2024-05-26T21:32:56.925Z</time>
      </trkpt>
      <trkpt lat="48.43338" lon="2.39693">
        <ele>129.33</ele>
        <time>2024-05-26T21:33:03.572Z</time>
      </trkpt>
      <trkpt lat="48.4334" lon="2.39707">
        <ele>129.45</ele>
        <time>2024-05-26T21:33:10.220Z</time>
      </trkpt>
      <trkpt lat="48.43345" lon="2.39732">
        <ele>129.59</ele>
        <time>2024-05-26T21:33:16.872Z</time>
      </trkpt>
      <trkpt lat="48.43353" lon="2.39769">
        <ele>129.75</ele>
        <time>2024-05-26T21:33:23.529Z</time>
      </trkpt>
      <trkpt lat="48.43356" lon="2.39775">
        <ele>129.87</ele>
        <time>2024-05-26T21:33:30.187Z</time>
      </trkpt>
      <trkpt lat="48.43358" lon="2.3978">
        <ele>129.99</ele>
        <time>2024-05-26T21:33:36.846Z</time>
      </trkpt>
      <trkpt lat="48.43365" lon="2.39796">
        <ele>130.11</ele>
        <time>2024-05-26T21:33:43.508Z</time>
      </trkpt>
      <trkpt lat="48.43367" lon="2.39801">
        <ele>130.2</ele>
        <time>2024-05-26T21:33:50.170Z</time>
      </trkpt>
      <trkpt lat="48.43379" lon="2.39824">
        <ele>130.37</ele>
        <time>2024-05-26T21:33:56.836Z</time>
      </trkpt>
      <trkpt lat="48.43393" lon="2.39851">
        <ele>130.51</ele>
        <time>2024-05-26T21:34:03.507Z</time>
      </trkpt>
      <trkpt lat="48.4341" lon="2.3988">
        <ele>130.57</ele>
        <time>2024-05-26T21:34:10.183Z</time>
      </trkpt>
      <trkpt lat="48.43432" lon="2.39919">
        <ele>130.64</ele>
        <time>2024-05-26T21:34:16.866Z</time>
      </trkpt>
      <trkpt lat="48.43443" lon="2.3995">
        <ele>130.66</ele>
        <time>2024-05-26T21:34:23.553Z</time>
      </trkpt>
      <trkpt lat="48.43447" lon="2.39977">
        <ele>130.66</ele>
        <time>2024-05-26T21:34:30.244Z</time>
      </trkpt>
      <trkpt lat="48.43453" lon="2.40004">
        <ele>130.67</ele>
        <time>2024-05-26T21:34:36.939Z</time>
      </trkpt>
      <trkpt lat="48.43454" lon="2.4001">
        <ele>130.6</ele>
        <time>2024-05-26T21:34:43.635Z</time>
      </trkpt>
      <trkpt lat="48.4346" lon="2.40058">
        <ele>130.48</ele>
        <time>2024-05-26T21:34:50.337Z</time>
      </trkpt>
      <trkpt lat="48.4347" lon="2.40126">
        <ele>130.22</ele>
        <time>2024-05-26T21:34:57.048Z</time>
      </trkpt>
      <trkpt lat="48.43471" lon="2.40142">
        <ele>130.05</ele>
        <time>2024-05-26T21:35:03.762Z</time>
      </trkpt>
      <trkpt lat="48.43473" lon="2.40173">
        <ele>129.84</ele>
        <time>2024-05-26T21:35:10.480Z</time>
      </trkpt>
      <trkpt lat="48.43472" lon="2.40188">
        <ele>129.63</ele>
        <time>2024-05-26T21:35:17.200Z</time>
      </trkpt>
      <trkpt lat="48.43473" lon="2.4022">
        <ele>129.43</ele>
        <time>2024-05-26T21:35:23.924Z</time>
      </trkpt>
      <trkpt lat="48.43475" lon="2.40236">
        <ele>129.16</ele>
        <time>2024-05-26T21:35:30.650Z</time>
      </trkpt>
      <trkpt lat="48.43481" lon="2.40272">
        <ele>128.88</ele>
        <time>2024-05-26T21:35:37.381Z</time>
      </trkpt>
      <trkpt lat="48.4349" lon="2.40303">
        <ele>128.54</ele>
        <time>2024-05-26T21:35:44.117Z</time>
      </trkpt>
      <trkpt lat="48.4349" lon="2.40309">
        <ele>128.18</ele>
        <time>2024-05-26T21:35:50.853Z</time>
      </trkpt>
      <trkpt lat="48.43483" lon="2.40317">
        <ele>127.79</ele>
        <time>2024-05-26T21:35:57.591Z</time>
      </trkpt>
      <trkpt lat="48.43474" lon="2.40321">
        <ele>127.41</ele>
        <time>2024-05-26T21:36:04.331Z</time>
      </trkpt>
      <trkpt lat="48.43467" lon="2.40331">
        <ele>126.99</ele>
        <time>2024-05-26T21:36:11.073Z</time>
      </trkpt>
      <trkpt lat="48.43466" lon="2.40332">
        <ele>126.54</ele>
        <time>2024-05-26T21:36:17.815Z</time>
      </trkpt>
      <trkpt lat="48.43465" lon="2.40337">
        <ele>126.06</ele>
        <time>2024-05-26T21:36:24.558Z</time>
      </trkpt>
      <trkpt lat="48.43464" lon="2.4034">
        <ele>125.56</ele>
        <time>2024-05-26T21:36:31.301Z</time>
      </trkpt>
      <trkpt lat="48.43463" lon="2.40343">
        <ele>125.05</ele>
        <time>2024-05-26T21:36:38.045Z</time>
      </trkpt>
      <trkpt lat="48.43464" lon="2.40357">
        <ele>124.5</ele>
        <time>2024-05-26T21:36:44.791Z</time>
      </trkpt>
      <trkpt lat="48.43461" lon="2.40374">
        <ele>123.93</ele>
        <time>2024-05-26T21:36:51.539Z</time>
      </trkpt>
      <trkpt lat="48.4346" lon="2.40381">
        <ele>123.39</ele>
        <time>2024-05-26T21:36:58.288Z</time>
      </trkpt>
      <trkpt lat="48.43462" lon="2.40391">
        <ele>122.84</ele>
        <time>2024-05-26T21:37:05.038Z</time>
      </trkpt>
      <trkpt lat="48.43461" lon="2.40395">
        <ele>122.3</ele>
        <time>2024-05-26T21:37:11.789Z</time>
      </trkpt>
      <trkpt lat="48.43456" lon="2.40404">
        <ele>121.74</ele>
        <time>2024-05-26T21:37:18.541Z</time>
      </trkpt>
      <trkpt lat="48.43449" lon="2.4041">
        <ele>121.18</ele>
        <time>2024-05-26T21:37:25.295Z</time>
      </trkpt>
      <trkpt lat="48.43446" lon="2.4041">
        <ele>120.68</ele>
        <time>2024-05-26T21:37:32.050Z</time>
      </trkpt>
      <trkpt lat="48.43444" lon="2.40413">
        <ele>120.18</ele>
        <time>2024-05-26T21:37:38.805Z</time>
      </trkpt>
      <trkpt lat="48.43441" lon="2.40414">
        <ele>119.7</ele>
        <time>2024-05-26T21:37:45.561Z</time>
      </trkpt>
      <trkpt lat="48.43437" lon="2.40415">
        <ele>119.24</ele>
        <time>2024-05-26T21:37:52.318Z</time>
      </trkpt>
      <trkpt lat="48.43433" lon="2.40416">
        <ele>118.81</ele>
        <time>2024-05-26T21:37:59.075Z</time>
      </trkpt>
      <trkpt lat="48.43431" lon="2.40418">
        <ele>118.41</ele>
        <time>2024-05-26T21:38:05.833Z</time>
      </trkpt>
      <trkpt lat="48.43428" lon="2.40421">
        <ele>118.03</ele>
        <time>2024-05-26T21:38:12.592Z</time>
      </trkpt>
      <trkpt lat="48.43424" lon="2.40423">
        <ele>117.68</ele>
        <time>2024-05-26T21:38:19.351Z</time>
      </trkpt>
      <trkpt lat="48.43419" lon="2.40423">
        <ele>117.36</ele>
        <time>2024-05-26T21:38:26.111Z</time>
      </trkpt>
      <trkpt lat="48.43409" lon="2.40416">
        <ele>117.05</ele>
        <time>2024-05-26T21:38:32.874Z</time>
      </trkpt>
      <trkpt lat="48.43404" lon="2.40412">
        <ele>116.82</ele>
        <time>2024-05-26T21:38:39.638Z</time>
      </trkpt>
      <trkpt lat="48.434" lon="2.40406">
        <ele>116.65</ele>
        <time>2024-05-26T21:38:46.403Z</time>
      </trkpt>
      <trkpt lat="48.43397" lon="2.404">
        <ele>116.52</ele>
        <time>2024-05-26T21:38:53.169Z</time>
      </trkpt>
      <trkpt lat="48.43393" lon="2.4039">
        <ele>116.44</ele>
        <time>2024-05-26T21:38:59.936Z</time>
      </trkpt>
      <trkpt lat="48.43392" lon="2.40386">
        <ele>116.41</ele>
        <time>2024-05-26T21:39:06.704Z</time>
      </trkpt>
      <trkpt lat="48.4339" lon="2.40384">
        <ele>116.41</ele>
        <time>2024-05-26T21:39:13.473Z</time>
      </trkpt>
      <trkpt lat="48.43388" lon="2.40381">
        <ele>116.46</ele>
        <time>2024-05-26T21:39:20.242Z</time>
      </trkpt>
      <trkpt lat="48.43382" lon="2.40374">
        <ele>116.56</ele>
        <time>2024-05-26T21:39:27.012Z</time>
      </trkpt>
      <trkpt lat="48.43377" lon="2.40365">
        <ele>116.72</ele>
        <time>2024-05-26T21:39:33.784Z</time>
      </trkpt>
      <trkpt lat="48.43377" lon="2.40363">
        <ele>116.9</ele>
        <time>2024-05-26T21:39:40.556Z</time>
      </trkpt>
      <trkpt lat="48.43377" lon="2.40357">
        <ele>117.15</ele>
        <time>2024-05-26T21:39:47.329Z</time>
      </trkpt>
      <trkpt lat="48.43378" lon="2.40341">
        <ele>117.45</ele>
        <time>2024-05-26T21:39:54.104Z</time>
      </trkpt>
      <trkpt lat="48.43379" lon="2.40335">
        <ele>117.76</ele>
        <time>2024-05-26T21:40:00.880Z</time>
      </trkpt>
      <trkpt lat="48.43379" lon="2.40327">
        <ele>118.1</ele>
        <time>2024-05-26T21:40:07.657Z</time>
      </trkpt>
      <trkpt lat="48.43378" lon="2.40317">
        <ele>118.47</ele>
        <time>2024-05-26T21:40:14.436Z</time>
      </trkpt>
      <trkpt lat="48.43379" lon="2.40312">
        <ele>118.84</ele>
        <time>2024-05-26T21:40:21.215Z</time>
      </trkpt>
      <trkpt lat="48.43379" lon="2.40306">
        <ele>119.24</ele>
        <time>2024-05-26T21:40:27.995Z</time>
      </trkpt>
      <trkpt lat="48.4338" lon="2.40299">
        <ele>119.67</ele>
        <time>2024-05-26T21:40:34.776Z</time>
      </trkpt>
      <trkpt lat="48.43381" lon="2.40297">
        <ele>120.1</ele>
        <time>2024-05-26T21:40:41.557Z</time>
      </trkpt>
      <trkpt lat="48.43381" lon="2.40295">
        <ele>120.54</ele>
        <time>2024-05-26T21:40:48.339Z</time>
      </trkpt>
      <trkpt lat="48.43381" lon="2.40294">
        <ele>120.99</ele>
        <time>2024-05-26T21:40:55.121Z</time>
      </trkpt>
      <trkpt lat="48.4338" lon="2.40282">
        <ele>121.48</ele>
        <time>2024-05-26T21:41:01.904Z</time>
      </trkpt>
      <trkpt lat="48.43381" lon="2.40278">
        <ele>121.95</ele>
        <time>2024-05-26T21:41:08.688Z</time>
      </trkpt>
      <trkpt lat="48.43381" lon="2.40275">
        <ele>122.41</ele>
        <time>2024-05-26T21:41:15.472Z</time>
      </trkpt>
      <trkpt lat="48.43384" lon="2.40271">
        <ele>122.88</ele>
        <time>2024-05-26T21:41:22.257Z</time>
      </trkpt>
      <trkpt lat="48.43387" lon="2.40268">
        <ele>123.34</ele>
        <time>2024-05-26T21:41:29.043Z</time>
      </trkpt>
      <trkpt lat="48.43389" lon="2.40266">
        <ele>123.79</ele>
        <time>2024-05-26T21:41:35.829Z</time>
      </trkpt>
      <trkpt lat="48.43394" lon="2.40261">
        <ele>124.26</ele>
        <time>2024-05-26T21:41:42.617Z</time>
      </trkpt>
      <trkpt lat="48.43395" lon="2.40259">
        <ele>124.67</ele>
        <time>2024-05-26T21:41:49.405Z</time>
      </trkpt>
      <trkpt lat="48.43401" lon="2.40252">
        <ele>125.11</ele>
        <time>2024-05-26T21:41:56.194Z</time>
      </trkpt>
      <trkpt lat="48.43403" lon="2.40251">
        <ele>125.49</ele>
        <time>2024-05-26T21:42:02.984Z</time>
      </trkpt>
      <trkpt lat="48.43407" lon="2.40246">
        <ele>125.86</ele>
        <time>2024-05-26T21:42:09.775Z</time>
      </trkpt>
      <trkpt lat="48.43409" lon="2.40243">
        <ele>126.2</ele>
        <time>2024-05-26T21:42:16.566Z</time>
      </trkpt>
      <trkpt lat="48.4341" lon="2.40239">
        <ele>126.51</ele>
        <time>2024-05-26T21:42:23.358Z</time>
      </trkpt>
      <trkpt lat="48.4342" lon="2.40211">
        <ele>126.79</ele>
        <time>2024-05-26T21:42:30.154Z</time>
      </trkpt>
      <trkpt lat="48.43422" lon="2.40204">
        <ele>127.03</ele>
        <time>2024-05-26T21:42:36.951Z</time>
      </trkpt>
      <trkpt lat="48.43421" lon="2.402">
        <ele>127.24</ele>
        <time>2024-05-26T21:42:43.749Z</time>
      </trkpt>
      <trkpt lat="48.43419" lon="2.40198">
        <ele>127.42</ele>
        <time>2024-05-26T21:42:50.547Z</time>
      </trkpt>
      <trkpt lat="48.43414" lon="2.40198">
        <ele>127.56</ele>
        <time>2024-05-26T21:42:57.346Z</time>
      </trkpt>
      <trkpt lat="48.43409" lon="2.40197">
        <ele>127.67</ele>
        <time>2024-05-26T21:43:04.146Z</time>
      </trkpt>
      <trkpt lat="48.43405" lon="2.40193">
        <ele>127.75</ele>
        <time>2024-05-26T21:43:10.947Z</time>
      </trkpt>
      <trkpt lat="48.43403" lon="2.40191">
        <ele>127.8</ele>
        <time>2024-05-26T21:43:17.749Z</time>
      </trkpt>
      <trkpt lat="48.434" lon="2.4019">
        <ele>127.82</ele>
        <time>2024-05-26T21:43:24.551Z</time>
      </trkpt>
      <trkpt lat="48.434" lon="2.40191">
        <ele>127.81</ele>
        <time>2024-05-26T21:43:31.353Z</time>
      </trkpt>
      <trkpt lat="48.43397" lon="2.40197">
        <ele>127.77</ele>
        <time>2024-05-26T21:43:38.157Z</time>
      </trkpt>
      <trkpt lat="48.43394" lon="2.40197">
        <ele>127.69</ele>
        <time>2024-05-26T21:43:44.961Z</time>
      </trkpt>
      <trkpt lat="48.43388" lon="2.40191">
        <ele>127.57</ele>
        <time>2024-05-26T21:43:51.766Z</time>
      </trkpt>
      <trkpt lat="48.43384" lon="2.40184">
        <ele>127.42</ele>
        <time>2024-05-26T21:43:58.573Z</time>
      </trkpt>
      <trkpt lat="48.43373" lon="2.40172">
        <ele>127.21</ele>
        <time>2024-05-26T21:44:05.382Z</time>
      </trkpt>
      <trkpt lat="48.43369" lon="2.40161">
        <ele>127</ele>
        <time>2024-05-26T21:44:12.193Z</time>
      </trkpt>
      <trkpt lat="48.43363" lon="2.40147">
        <ele>126.76</ele>
        <time>2024-05-26T21:44:19.006Z</time>
      </trkpt>
      <trkpt lat="48.43361" lon="2.40146">
        <ele>126.5</ele>
        <time>2024-05-26T21:44:25.820Z</time>
      </trkpt>
      <trkpt lat="48.43348" lon="2.40143">
        <ele>126.17</ele>
        <time>2024-05-26T21:44:32.636Z</time>
      </trkpt>
      <trkpt lat="48.43345" lon="2.40147">
        <ele>125.86</ele>
        <time>2024-05-26T21:44:39.453Z</time>
      </trkpt>
      <trkpt lat="48.43337" lon="2.40158">
        <ele>125.53</ele>
        <time>2024-05-26T21:44:46.272Z</time>
      </trkpt>
      <trkpt lat="48.43331" lon="2.40167">
        <ele>125.17</ele>
        <time>2024-05-26T21:44:53.093Z</time>
      </trkpt>
      <trkpt lat="48.4333" lon="2.40174">
        <ele>124.8</ele>
        <time>2024-05-26T21:44:59.915Z</time>
      </trkpt>
      <trkpt lat="48.43329" lon="2.40178">
        <ele>124.42</ele>
        <time>2024-05-26T21:45:06.738Z</time>
      </trkpt>
      <trkpt lat="48.43328" lon="2.4018">
        <ele>124.02</ele>
        <time>2024-05-26T21:45:13.561Z</time>
      </trkpt>
      <trkpt lat="48.43324" lon="2.40183">
        <ele>123.57</ele>
        <time>2024-05-26T21:45:20.385Z</time>
      </trkpt>
      <trkpt lat="48.43323" lon="2.40184">
        <ele>123.15</ele>
        <time>2024-05-26T21:45:27.209Z</time>
      </trkpt>
      <trkpt lat="48.43321" lon="2.40185">
        <ele>122.7</ele>
        <time>2024-05-26T21:45:34.033Z</time>
      </trkpt>
      <trkpt lat="48.43317" lon="2.40182">
        <ele>122.23</ele>
        <time>2024-05-26T21:45:40.858Z</time>
      </trkpt>
      <trkpt lat="48.43316" lon="2.40181">
        <ele>121.77</ele>
        <time>2024-05-26T21:45:47.684Z</time>
      </trkpt>
      <trkpt lat="48.43311" lon="2.40167">
        <ele>121.29</ele>
        <time>2024-05-26T21:45:54.512Z</time>
      </trkpt>
      <trkpt lat="48.43311" lon="2.40164">
        <ele>120.82</ele>
        <time>2024-05-26T21:46:01.340Z</time>
      </trkpt>
      <trkpt lat="48.43309" lon="2.40158">
        <ele>120.32</ele>
        <time>2024-05-26T21:46:08.169Z</time>
      </trkpt>
      <trkpt lat="48.43308" lon="2.40157">
        <ele>119.82</ele>
        <time>2024-05-26T21:46:14.998Z</time>
      </trkpt>
      <trkpt lat="48.43306" lon="2.40156">
        <ele>119.3</ele>
        <time>2024-05-26T21:46:21.828Z</time>
      </trkpt>
      <trkpt lat="48.43304" lon="2.40156">
        <ele>118.77</ele>
        <time>2024-05-26T21:46:28.658Z</time>
      </trkpt>
      <trkpt lat="48.43302" lon="2.40155">
        <ele>118.22</ele>
        <time>2024-05-26T21:46:35.488Z</time>
      </trkpt>
      <trkpt lat="48.43298" lon="2.40153">
        <ele>117.65</ele>
        <time>2024-05-26T21:46:42.319Z</time>
      </trkpt>
      <trkpt lat="48.43294" lon="2.40156">
        <ele>117.07</ele>
        <time>2024-05-26T21:46:49.151Z</time>
      </trkpt>
      <trkpt lat="48.43292" lon="2.40157">
        <ele>116.5</ele>
        <time>2024-05-26T21:46:55.984Z</time>
      </trkpt>
      <trkpt lat="48.43291" lon="2.40158">
        <ele>115.92</ele>
        <time>2024-05-26T21:47:02.817Z</time>
      </trkpt>
      <trkpt lat="48.43291" lon="2.40158">
        <ele>115.34</ele>
        <time>2024-05-26T21:47:09.650Z</time>
      </trkpt>
      <trkpt lat="48.43291" lon="2.40158">
        <ele>114.75</ele>
        <time>2024-05-26T21:47:16.483Z</time>
      </trkpt>
      <trkpt lat="48.4329" lon="2.40158">
        <ele>114.14</ele>
        <time>2024-05-26T21:47:23.316Z</time>
      </trkpt>
      <trkpt lat="48.4329" lon="2.40158">
        <ele>113.51</ele>
        <time>2024-05-26T21:47:30.149Z</time>
      </trkpt>
      <trkpt lat="48.4329" lon="2.40159">
        <ele>112.88</ele>
        <time>2024-05-26T21:47:36.982Z</time>
      </trkpt>
      <trkpt lat="48.4329" lon="2.40159">
        <ele>112.22</ele>
        <time>2024-05-26T21:47:43.815Z</time>
      </trkpt>
      <trkpt lat="48.4329" lon="2.40159">
        <ele>111.55</ele>
        <time>2024-05-26T21:47:50.648Z</time>
      </trkpt>
      <trkpt lat="48.43293" lon="2.40159">
        <ele>110.88</ele>
        <time>2024-05-26T21:47:57.482Z</time>
      </trkpt>
      <trkpt lat="48.43294" lon="2.40158">
        <ele>110.16</ele>
        <time>2024-05-26T21:48:04.316Z</time>
      </trkpt>
      <trkpt lat="48.43293" lon="2.40157">
        <ele>109.42</ele>
        <time>2024-05-26T21:48:11.150Z</time>
      </trkpt>
      <trkpt lat="48.43293" lon="2.40156">
        <ele>108.65</ele>
        <time>2024-05-26T21:48:17.984Z</time>
      </trkpt>
      <trkpt lat="48.4329" lon="2.40154">
        <ele>107.83</ele>
        <time>2024-05-26T21:48:24.819Z</time>
      </trkpt>
      <trkpt lat="48.43289" lon="2.40147">
        <ele>107</ele>
        <time>2024-05-26T21:48:31.655Z</time>
      </trkpt>
      <trkpt lat="48.43289" lon="2.40139">
        <ele>106.16</ele>
        <time>2024-05-26T21:48:38.492Z</time>
      </trkpt>
      <trkpt lat="48.43286" lon="2.4011">
        <ele>105.21</ele>
        <time>2024-05-26T21:48:45.333Z</time>
      </trkpt>
      <trkpt lat="48.43285" lon="2.40106">
        <ele>104.31</ele>
        <time>2024-05-26T21:48:52.175Z</time>
      </trkpt>
      <trkpt lat="48.43279" lon="2.40093">
        <ele>103.35</ele>
        <time>2024-05-26T21:48:59.019Z</time>
      </trkpt>
      <trkpt lat="48.43262" lon="2.40073">
        <ele>102.35</ele>
        <time>2024-05-26T21:49:05.867Z</time>
      </trkpt>
      <trkpt lat="48.43259" lon="2.40069">
        <ele>101.39</ele>
        <time>2024-05-26T21:49:12.716Z</time>
      </trkpt>
      <trkpt lat="48.4325" lon="2.4006">
        <ele>100.4</ele>
        <time>2024-05-26T21:49:19.567Z</time>
      </trkpt>
      <trkpt lat="48.43248" lon="2.40058">
        <ele>99.4</ele>
        <time>2024-05-26T21:49:26.419Z</time>
      </trkpt>
      <trkpt lat="48.43236" lon="2.40062">
        <ele>98.37</ele>
        <time>2024-05-26T21:49:33.273Z</time>
      </trkpt>
      <trkpt lat="48.43231" lon="2.40064">
        <ele>97.33</ele>
        <time>2024-05-26T21:49:40.128Z</time>
      </trkpt>
      <trkpt lat="48.43225" lon="2.40066">
        <ele>96.27</ele>
        <time>2024-05-26T21:49:46.984Z</time>
      </trkpt>
      <trkpt lat="48.43208" lon="2.40074">
        <ele>95.17</ele>
        <time>2024-05-26T21:49:53.844Z</time>
      </trkpt>
      <trkpt lat="48.43174" lon="2.40084">
        <ele>93.96</ele>
        <time>2024-05-26T21:50:00.711Z</time>
      </trkpt>
      <trkpt lat="48.43166" lon="2.40088">
        <ele>92.85</ele>
        <time>2024-05-26T21:50:07.579Z</time>
      </trkpt>
      <trkpt lat="48.43157" lon="2.4009">
        <ele>91.74</ele>
        <time>2024-05-26T21:50:14.449Z</time>
      </trkpt>
      <trkpt lat="48.43139" lon="2.40094">
        <ele>90.57</ele>
        <time>2024-05-26T21:50:21.323Z</time>
      </trkpt>
      <trkpt lat="48.43121" lon="2.40098">
        <ele>89.41</ele>
        <time>2024-05-26T21:50:28.200Z</time>
      </trkpt>
      <trkpt lat="48.43104" lon="2.40102">
        <ele>88.27</ele>
        <time>2024-05-26T21:50:35.081Z</time>
      </trkpt>
      <trkpt lat="48.43088" lon="2.40107">
        <ele>87.18</ele>
        <time>2024-05-26T21:50:41.965Z</time>
      </trkpt>
      <trkpt lat="48.43071" lon="2.40111">
        <ele>86.11</ele>
        <time>2024-05-26T21:50:48.853Z</time>
      </trkpt>
      <trkpt lat="48.43054" lon="2.40117">
        <ele>85.06</ele>
        <time>2024-05-26T21:50:55.744Z</time>
      </trkpt>
      <trkpt lat="48.43046" lon="2.40119">
        <ele>84.03</ele>
        <time>2024-05-26T21:51:02.637Z</time>
      </trkpt>
      <trkpt lat="48.43016" lon="2.40135">
        <ele>82.97</ele>
        <time>2024-05-26T21:51:09.536Z</time>
      </trkpt>
      <trkpt lat="48.43002" lon="2.40142">
        <ele>81.94</ele>
        <time>2024-05-26T21:51:16.438Z</time>
      </trkpt>
      <trkpt lat="48.42987" lon="2.40148">
        <ele>80.95</ele>
        <time>2024-05-26T21:51:23.343Z</time>
      </trkpt>
      <trkpt lat="48.4298" lon="2.40151">
        <ele>80</ele>
        <time>2024-05-26T21:51:30.250Z</time>
      </trkpt>
      <trkpt lat="48.42959" lon="2.40156">
        <ele>79.05</ele>
        <time>2024-05-26T21:51:37.161Z</time>
      </trkpt>
      <trkpt lat="48.42951" lon="2.40157">
        <ele>78.17</ele>
        <time>2024-05-26T21:51:44.073Z</time>
      </trkpt>
      <trkpt lat="48.42923" lon="2.40159">
        <ele>77.32</ele>
        <time>2024-05-26T21:51:50.991Z</time>
      </trkpt>
      <trkpt lat="48.42909" lon="2.40158">
        <ele>76.51</ele>
        <time>2024-05-26T21:51:57.912Z</time>
      </trkpt>
      <trkpt lat="48.42895" lon="2.40159">
        <ele>75.74</ele>
        <time>2024-05-26T21:52:04.836Z</time>
      </trkpt>
      <trkpt lat="48.42855" lon="2.40167">
        <ele>75.02</ele>
        <time>2024-05-26T21:52:11.768Z</time>
      </trkpt>
      <trkpt lat="48.42848" lon="2.40168">
        <ele>74.28</ele>
        <time>2024-05-26T21:52:18.701Z</time>
      </trkpt>
      <trkpt lat="48.42821" lon="2.40171">
        <ele>73.53</ele>
        <time>2024-05-26T21:52:25.639Z</time>
      </trkpt>
      <trkpt lat="48.42809" lon="2.40174">
        <ele>72.86</ele>
        <time>2024-05-26T21:52:32.580Z</time>
      </trkpt>
      <trkpt lat="48.42803" lon="2.40175">
        <ele>72.23</ele>
        <time>2024-05-26T21:52:39.522Z</time>
      </trkpt>
      <trkpt lat="48.42797" lon="2.40175">
        <ele>71.64</ele>
        <time>2024-05-26T21:52:46.465Z</time>
      </trkpt>
      <trkpt lat="48.4278" lon="2.4017">
        <ele>71.04</ele>
        <time>2024-05-26T21:52:53.412Z</time>
      </trkpt>
      <trkpt lat="48.42769" lon="2.40156">
        <ele>70.49</ele>
        <time>2024-05-26T21:53:00.362Z</time>
      </trkpt>
      <trkpt lat="48.42769" lon="2.40131">
        <ele>69.96</ele>
        <time>2024-05-26T21:53:07.315Z</time>
      </trkpt>
      <trkpt lat="48.42771" lon="2.40098">
        <ele>69.52</ele>
        <time>2024-05-26T21:53:14.272Z</time>
      </trkpt>
      <trkpt lat="48.4277" lon="2.40081">
        <ele>69.12</ele>
        <time>2024-05-26T21:53:21.232Z</time>
      </trkpt>
      <trkpt lat="48.42768" lon="2.40031">
        <ele>68.76</ele>
        <time>2024-05-26T21:53:28.198Z</time>
      </trkpt>
      <trkpt lat="48.42769" lon="2.40023">
        <ele>68.47</ele>
        <time>2024-05-26T21:53:35.165Z</time>
      </trkpt>
      <trkpt lat="48.42768" lon="2.40015">
        <ele>68.21</ele>
        <time>2024-05-26T21:53:42.134Z</time>
      </trkpt>
      <trkpt lat="48.42767" lon="2.39998">
        <ele>67.98</ele>
        <time>2024-05-26T21:53:49.105Z</time>
      </trkpt>
      <trkpt lat="48.42766" lon="2.39975">
        <ele>67.81</ele>
        <time>2024-05-26T21:53:56.079Z</time>
      </trkpt>
      <trkpt lat="48.42764" lon="2.39936">
        <ele>67.67</ele>
        <time>2024-05-26T21:54:03.058Z</time>
      </trkpt>
      <trkpt lat="48.42761" lon="2.39921">
        <ele>67.58</ele>
        <time>2024-05-26T21:54:10.039Z</time>
      </trkpt>
      <trkpt lat="48.42757" lon="2.3989">
        <ele>67.51</ele>
        <time>2024-05-26T21:54:17.024Z</time>
      </trkpt>
      <trkpt lat="48.4275" lon="2.39858">
        <ele>67.51</ele>
        <time>2024-05-26T21:54:24.014Z</time>
      </trkpt>
      <trkpt lat="48.42747" lon="2.39842">
        <ele>67.56</ele>
        <time>2024-05-26T21:54:31.006Z</time>
      </trkpt>
      <trkpt lat="48.42744" lon="2.39838">
        <ele>67.65</ele>
        <time>2024-05-26T21:54:37.999Z</time>
      </trkpt>
      <trkpt lat="48.42733" lon="2.3984">
        <ele>67.77</ele>
        <time>2024-05-26T21:54:44.994Z</time>
      </trkpt>
      <trkpt lat="48.42714" lon="2.39845">
        <ele>67.94</ele>
        <time>2024-05-26T21:54:51.993Z</time>
      </trkpt>
      <trkpt lat="48.4271" lon="2.39845">
        <ele>68.16</ele>
        <time>2024-05-26T21:54:58.993Z</time>
      </trkpt>
      <trkpt lat="48.42694" lon="2.39844">
        <ele>68.41</ele>
        <time>2024-05-26T21:55:05.996Z</time>
      </trkpt>
      <trkpt lat="48.42689" lon="2.3985">
        <ele>68.7</ele>
        <time>2024-05-26T21:55:13.000Z</time>
      </trkpt>
      <trkpt lat="48.42689" lon="2.39855">
        <ele>69.03</ele>
        <time>2024-05-26T21:55:20.005Z</time>
      </trkpt>
      <trkpt lat="48.42688" lon="2.39871">
        <ele>69.4</ele>
        <time>2024-05-26T21:55:27.012Z</time>
      </trkpt>
      <trkpt lat="48.42686" lon="2.39888">
        <ele>69.81</ele>
        <time>2024-05-26T21:55:34.021Z</time>
      </trkpt>
      <trkpt lat="48.42686" lon="2.39895">
        <ele>70.23</ele>
        <time>2024-05-26T21:55:41.031Z</time>
      </trkpt>
      <trkpt lat="48.42687" lon="2.39932">
        <ele>70.71</ele>
        <time>2024-05-26T21:55:48.046Z</time>
      </trkpt>
      <trkpt lat="48.42686" lon="2.39989">
        <ele>71.23</ele>
        <time>2024-05-26T21:55:55.069Z</time>
      </trkpt>
      <trkpt lat="48.42684" lon="2.4001">
        <ele>71.7</ele>
        <time>2024-05-26T21:56:02.095Z</time>
      </trkpt>
      <trkpt lat="48.4268" lon="2.40043">
        <ele>72.18</ele>
        <time>2024-05-26T21:56:09.125Z</time>
      </trkpt>
      <trkpt lat="48.42677" lon="2.40076">
        <ele>72.73</ele>
        <time>2024-05-26T21:56:16.160Z</time>
      </trkpt>
      <trkpt lat="48.42676" lon="2.40083">
        <ele>73.27</ele>
        <time>2024-05-26T21:56:23.195Z</time>
      </trkpt>
      <trkpt lat="48.42668" lon="2.40098">
        <ele>73.84</ele>
        <time>2024-05-26T21:56:30.233Z</time>
      </trkpt>
      <trkpt lat="48.42665" lon="2.401">
        <ele>74.38</ele>
        <time>2024-05-26T21:56:37.272Z</time>
      </trkpt>
      <trkpt lat="48.42662" lon="2.40102">
        <ele>74.91</ele>
        <time>2024-05-26T21:56:44.311Z</time>
      </trkpt>
      <trkpt lat="48.4265" lon="2.40107">
        <ele>75.48</ele>
        <time>2024-05-26T21:56:51.353Z</time>
      </trkpt>
      <trkpt lat="48.42622" lon="2.40116">
        <ele>76.08</ele>
        <time>2024-05-26T21:56:58.401Z</time>
      </trkpt>
      <trkpt lat="48.42592" lon="2.40119">
        <ele>76.6</ele>
        <time>2024-05-26T21:57:05.455Z</time>
      </trkpt>
      <trkpt lat="48.42567" lon="2.40124">
        <ele>77.15</ele>
        <time>2024-05-26T21:57:12.514Z</time>
      </trkpt>
      <trkpt lat="48.42544" lon="2.4012">
        <ele>77.67</ele>
        <time>2024-05-26T21:57:19.577Z</time>
      </trkpt>
      <trkpt lat="48.4252" lon="2.40123">
        <ele>78.2</ele>
        <time>2024-05-26T21:57:26.645Z</time>
      </trkpt>
      <trkpt lat="48.4251" lon="2.40123">
        <ele>78.68</ele>
        <time>2024-05-26T21:57:33.715Z</time>
      </trkpt>
      <trkpt lat="48.42493" lon="2.40123">
        <ele>79.14</ele>
        <time>2024-05-26T21:57:40.788Z</time>
      </trkpt>
      <trkpt lat="48.42482" lon="2.40124">
        <ele>79.58</ele>
        <time>2024-05-26T21:57:47.864Z</time>
      </trkpt>
      <trkpt lat="48.42473" lon="2.40127">
        <ele>80</ele>
        <time>2024-05-26T21:57:54.942Z</time>
      </trkpt>
      <trkpt lat="48.4246" lon="2.40131">
        <ele>80.4</ele>
        <time>2024-05-26T21:58:02.022Z</time>
      </trkpt>
      <trkpt lat="48.42449" lon="2.40133">
        <ele>80.79</ele>
        <time>2024-05-26T21:58:09.104Z</time>
      </trkpt>
      <trkpt lat="48.42445" lon="2.40134">
        <ele>81.12</ele>
        <time>2024-05-26T21:58:16.187Z</time>
      </trkpt>
      <trkpt lat="48.42435" lon="2.4014">
        <ele>81.44</ele>
        <time>2024-05-26T21:58:23.272Z</time>
      </trkpt>
      <trkpt lat="48.42423" lon="2.40147">
        <ele>81.73</ele>
        <time>2024-05-26T21:58:30.360Z</time>
      </trkpt>
      <trkpt lat="48.42403" lon="2.4015">
        <ele>82.01</ele>
        <time>2024-05-26T21:58:37.452Z</time>
      </trkpt>
      <trkpt lat="48.42399" lon="2.40149">
        <ele>82.24</ele>
        <time>2024-05-26T21:58:44.545Z</time>
      </trkpt>
      <trkpt lat="48.42383" lon="2.4015">
        <ele>82.44</ele>
        <time>2024-05-26T21:58:51.641Z</time>
      </trkpt>
      <trkpt lat="48.42377" lon="2.40151">
        <ele>82.6</ele>
        <time>2024-05-26T21:58:58.738Z</time>
      </trkpt>
      <trkpt lat="48.42351" lon="2.40159">
        <ele>82.75</ele>
        <time>2024-05-26T21:59:05.841Z</time>
      </trkpt>
      <trkpt lat="48.42344" lon="2.40161">
        <ele>82.88</ele>
        <time>2024-05-26T21:59:12.945Z</time>
      </trkpt>
      <trkpt lat="48.42335" lon="2.40162">
        <ele>82.99</ele>
        <time>2024-05-26T21:59:20.051Z</time>
      </trkpt>
      <trkpt lat="48.42327" lon="2.40167">
        <ele>83.07</ele>
        <time>2024-05-26T21:59:27.158Z</time>
      </trkpt>
      <trkpt lat="48.4232" lon="2.40173">
        <ele>83.14</ele>
        <time>2024-05-26T21:59:34.267Z</time>
      </trkpt>
      <trkpt lat="48.42314" lon="2.40179">
        <ele>83.2</ele>
        <time>2024-05-26T21:59:41.378Z</time>
      </trkpt>
      <trkpt lat="48.42309" lon="2.40187">
        <ele>83.25</ele>
        <time>2024-05-26T21:59:48.490Z</time>
      </trkpt>
      <trkpt lat="48.42298" lon="2.402">
        <ele>83.3</ele>
        <time>2024-05-26T21:59:55.605Z</time>
      </trkpt>
      <trkpt lat="48.42293" lon="2.40207">
        <ele>83.36</ele>
        <time>2024-05-26T22:00:02.721Z</time>
      </trkpt>
      <trkpt lat="48.42289" lon="2.40214">
        <ele>83.43</ele>
        <time>2024-05-26T22:00:09.838Z</time>
      </trkpt>
      <trkpt lat="48.42271" lon="2.40238">
        <ele>83.49</ele>
        <time>2024-05-26T22:00:16.960Z</time>
      </trkpt>
      <trkpt lat="48.42263" lon="2.40252">
        <ele>83.58</ele>
        <time>2024-05-26T22:00:24.085Z</time>
      </trkpt>
      <trkpt lat="48.42249" lon="2.40281">
        <ele>83.71</ele>
        <time>2024-05-26T22:00:31.214Z</time>
      </trkpt>
      <trkpt lat="48.42228" lon="2.40327">
        <ele>83.76</ele>
        <time>2024-05-26T22:00:38.351Z</time>
      </trkpt>
      <trkpt lat="48.42214" lon="2.40353">
        <ele>83.88</ele>
        <time>2024-05-26T22:00:45.492Z</time>
      </trkpt>
      <trkpt lat="48.4221" lon="2.40372">
        <ele>84.02</ele>
        <time>2024-05-26T22:00:52.636Z</time>
      </trkpt>
      <trkpt lat="48.42213" lon="2.40388">
        <ele>84.19</ele>
        <time>2024-05-26T22:00:59.782Z</time>
      </trkpt>
      <trkpt lat="48.42213" lon="2.40396">
        <ele>84.38</ele>
        <time>2024-05-26T22:01:06.929Z</time>
      </trkpt>
      <trkpt lat="48.42214" lon="2.40406">
        <ele>84.6</ele>
        <time>2024-05-26T22:01:14.077Z</time>
      </trkpt>
      <trkpt lat="48.42219" lon="2.40417">
        <ele>84.85</ele>
        <time>2024-05-26T22:01:21.227Z</time>
      </trkpt>
      <trkpt lat="48.42221" lon="2.40423">
        <ele>85.11</ele>
        <time>2024-05-26T22:01:28.378Z</time>
      </trkpt>
      <trkpt lat="48.42224" lon="2.40439">
        <ele>85.42</ele>
        <time>2024-05-26T22:01:35.531Z</time>
      </trkpt>
      <trkpt lat="48.42231" lon="2.40458">
        <ele>85.74</ele>
        <time>2024-05-26T22:01:42.687Z</time>
      </trkpt>
      <trkpt lat="48.42238" lon="2.40475">
        <ele>86.11</ele>
        <time>2024-05-26T22:01:49.846Z</time>
      </trkpt>
      <trkpt lat="48.42239" lon="2.40478">
        <ele>86.49</ele>
        <time>2024-05-26T22:01:57.005Z</time>
      </trkpt>
      <trkpt lat="48.42248" lon="2.40498">
        <ele>86.95</ele>
        <time>2024-05-26T22:02:04.168Z</time>
      </trkpt>
      <trkpt lat="48.42251" lon="2.40502">
        <ele>87.39</ele>
        <time>2024-05-26T22:02:11.331Z</time>
      </trkpt>
      <trkpt lat="48.4226" lon="2.40517">
        <ele>87.9</ele>
        <time>2024-05-26T22:02:18.497Z</time>
      </trkpt>
      <trkpt lat="48.42264" lon="2.40523">
        <ele>88.4</ele>
        <time>2024-05-26T22:02:25.664Z</time>
      </trkpt>
      <trkpt lat="48.42269" lon="2.40538">
        <ele>88.94</ele>
        <time>2024-05-26T22:02:32.834Z</time>
      </trkpt>
      <trkpt lat="48.4227" lon="2.40545">
        <ele>89.48</ele>
        <time>2024-05-26T22:02:40.004Z</time>
      </trkpt>
      <trkpt lat="48.42272" lon="2.40553">
        <ele>90.06</ele>
        <time>2024-05-26T22:02:47.176Z</time>
      </trkpt>
      <trkpt lat="48.42274" lon="2.40564">
        <ele>90.64</ele>
        <time>2024-05-26T22:02:54.349Z</time>
      </trkpt>
      <trkpt lat="48.42275" lon="2.40569">
        <ele>91.25</ele>
        <time>2024-05-26T22:03:01.523Z</time>
      </trkpt>
      <trkpt lat="48.42277" lon="2.40587">
        <ele>91.91</ele>
        <time>2024-05-26T22:03:08.699Z</time>
      </trkpt>
      <trkpt lat="48.42283" lon="2.40603">
        <ele>92.63</ele>
        <time>2024-05-26T22:03:15.878Z</time>
      </trkpt>
      <trkpt lat="48.42285" lon="2.40604">
        <ele>93.33</ele>
        <time>2024-05-26T22:03:23.057Z</time>
      </trkpt>
      <trkpt lat="48.42287" lon="2.40609">
        <ele>94.06</ele>
        <time>2024-05-26T22:03:30.237Z</time>
      </trkpt>
      <trkpt lat="48.42287" lon="2.40611">
        <ele>94.8</ele>
        <time>2024-05-26T22:03:37.417Z</time>
      </trkpt>
      <trkpt lat="48.42287" lon="2.40611">
        <ele>95.56</ele>
        <time>2024-05-26T22:03:44.597Z</time>
      </trkpt>
      <trkpt lat="48.42287" lon="2.40612">
        <ele>96.34</ele>
        <time>2024-05-26T22:03:51.777Z</time>
      </trkpt>
      <trkpt lat="48.42289" lon="2.40613">
        <ele>97.15</ele>
        <time>2024-05-26T22:03:58.958Z</time>
      </trkpt>
      <trkpt lat="48.42294" lon="2.4062">
        <ele>98.01</ele>
        <time>2024-05-26T22:04:06.140Z</time>
      </trkpt>
      <trkpt lat="48.42306" lon="2.40645">
        <ele>98.95</ele>
        <time>2024-05-26T22:04:13.326Z</time>
      </trkpt>
      <trkpt lat="48.42307" lon="2.4065">
        <ele>99.82</ele>
        <time>2024-05-26T22:04:20.513Z</time>
      </trkpt>
      <trkpt lat="48.42313" lon="2.40659">
        <ele>100.72</ele>
        <time>2024-05-26T22:04:27.701Z</time>
      </trkpt>
      <trkpt lat="48.42313" lon="2.40663">
        <ele>101.62</ele>
        <time>2024-05-26T22:04:34.890Z</time>
      </trkpt>
      <trkpt lat="48.42317" lon="2.40676">
        <ele>102.54</ele>
        <time>2024-05-26T22:04:42.081Z</time>
      </trkpt>
      <trkpt lat="48.42321" lon="2.40684">
        <ele>103.47</ele>
        <time>2024-05-26T22:04:49.273Z</time>
      </trkpt>
      <trkpt lat="48.42325" lon="2.4069">
        <ele>104.42</ele>
        <time>2024-05-26T22:04:56.466Z</time>
      </trkpt>
      <trkpt lat="48.4233" lon="2.40697">
        <ele>105.38</ele>
        <time>2024-05-26T22:05:03.661Z</time>
      </trkpt>
      <trkpt lat="48.4234" lon="2.40714">
        <ele>106.36</ele>
        <time>2024-05-26T22:05:10.859Z</time>
      </trkpt>
      <trkpt lat="48.42351" lon="2.40734">
        <ele>107.36</ele>
        <time>2024-05-26T22:05:18.060Z</time>
      </trkpt>
      <trkpt lat="48.42355" lon="2.40739">
        <ele>108.33</ele>
        <time>2024-05-26T22:05:25.262Z</time>
      </trkpt>
      <trkpt lat="48.42368" lon="2.40751">
        <ele>109.34</ele>
        <time>2024-05-26T22:05:32.467Z</time>
      </trkpt>
      <trkpt lat="48.4237" lon="2.40753">
        <ele>110.32</ele>
        <time>2024-05-26T22:05:39.673Z</time>
      </trkpt>
      <trkpt lat="48.42375" lon="2.40765">
        <ele>111.31</ele>
        <time>2024-05-26T22:05:46.881Z</time>
      </trkpt>
      <trkpt lat="48.42377" lon="2.40767">
        <ele>112.28</ele>
        <time>2024-05-26T22:05:54.089Z</time>
      </trkpt>
      <trkpt lat="48.42382" lon="2.40773">
        <ele>113.26</ele>
        <time>2024-05-26T22:06:01.298Z</time>
      </trkpt>
      <trkpt lat="48.42386" lon="2.4078">
        <ele>114.23</ele>
        <time>2024-05-26T22:06:08.509Z</time>
      </trkpt>
      <trkpt lat="48.42388" lon="2.40785">
        <ele>115.18</ele>
        <time>2024-05-26T22:06:15.720Z</time>
      </trkpt>
      <trkpt lat="48.42393" lon="2.40796">
        <ele>116.16</ele>
        <time>2024-05-26T22:06:22.933Z</time>
      </trkpt>
      <trkpt lat="48.42394" lon="2.40798">
        <ele>117.08</ele>
        <time>2024-05-26T22:06:30.147Z</time>
      </trkpt>
      <trkpt lat="48.42399" lon="2.40809">
        <ele>118.02</ele>
        <time>2024-05-26T22:06:37.362Z</time>
      </trkpt>
      <trkpt lat="48.42403" lon="2.40816">
        <ele>118.93</ele>
        <time>2024-05-26T22:06:44.579Z</time>
      </trkpt>
      <trkpt lat="48.42404" lon="2.40819">
        <ele>119.79</ele>
        <time>2024-05-26T22:06:51.796Z</time>
      </trkpt>
      <trkpt lat="48.42408" lon="2.40823">
        <ele>120.65</ele>
        <time>2024-05-26T22:06:59.014Z</time>
      </trkpt>
      <trkpt lat="48.42413" lon="2.40825">
        <ele>121.48</ele>
        <time>2024-05-26T22:07:06.233Z</time>
      </trkpt>
      <trkpt lat="48.42417" lon="2.4083">
        <ele>122.28</ele>
        <time>2024-05-26T22:07:13.453Z</time>
      </trkpt>
      <trkpt lat="48.42422" lon="2.40842">
        <ele>123.1</ele>
        <time>2024-05-26T22:07:20.675Z</time>
      </trkpt>
      <trkpt lat="48.42425" lon="2.40849">
        <ele>123.84</ele>
        <time>2024-05-26T22:07:27.898Z</time>
      </trkpt>
      <trkpt lat="48.42424" lon="2.40855">
        <ele>124.53</ele>
        <time>2024-05-26T22:07:35.122Z</time>
      </trkpt>
      <trkpt lat="48.42425" lon="2.40858">
        <ele>125.18</ele>
        <time>2024-05-26T22:07:42.346Z</time>
      </trkpt>
      <trkpt lat="48.42427" lon="2.4086">
        <ele>125.78</ele>
        <time>2024-05-26T22:07:49.571Z</time>
      </trkpt>
      <trkpt lat="48.42428" lon="2.40862">
        <ele>126.34</ele>
        <time>2024-05-26T22:07:56.796Z</time>
      </trkpt>
      <trkpt lat="48.4243" lon="2.40866">
        <ele>126.87</ele>
        <time>2024-05-26T22:08:04.022Z</time>
      </trkpt>
      <trkpt lat="48.42431" lon="2.40869">
        <ele>127.34</ele>
        <time>2024-05-26T22:08:11.248Z</time>
      </trkpt>
      <trkpt lat="48.42431" lon="2.40877">
        <ele>127.78</ele>
        <time>2024-05-26T22:08:18.475Z</time>
      </trkpt>
      <trkpt lat="48.42432" lon="2.40879">
        <ele>128.16</ele>
        <time>2024-05-26T22:08:25.702Z</time>
      </trkpt>
      <trkpt lat="48.42433" lon="2.40884">
        <ele>128.5</ele>
        <time>2024-05-26T22:08:32.930Z</time>
      </trkpt>
      <trkpt lat="48.42433" lon="2.40887">
        <ele>128.78</ele>
        <time>2024-05-26T22:08:40.158Z</time>
      </trkpt>
      <trkpt lat="48.42433" lon="2.40892">
        <ele>129.02</ele>
        <time>2024-05-26T22:08:47.387Z</time>
      </trkpt>
      <trkpt lat="48.42432" lon="2.40894">
        <ele>129.2</ele>
        <time>2024-05-26T22:08:54.617Z</time>
      </trkpt>
      <trkpt lat="48.42428" lon="2.40902">
        <ele>129.33</ele>
        <time>2024-05-26T22:09:01.848Z</time>
      </trkpt>
      <trkpt lat="48.42426" lon="2.40906">
        <ele>129.42</ele>
        <time>2024-05-26T22:09:09.079Z</time>
      </trkpt>
      <trkpt lat="48.42424" lon="2.40912">
        <ele>129.46</ele>
        <time>2024-05-26T22:09:16.311Z</time>
      </trkpt>
      <trkpt lat="48.42423" lon="2.40917">
        <ele>129.46</ele>
        <time>2024-05-26T22:09:23.544Z</time>
      </trkpt>
      <trkpt lat="48.42423" lon="2.4092">
        <ele>129.41</ele>
        <time>2024-05-26T22:09:30.777Z</time>
      </trkpt>
      <trkpt lat="48.42422" lon="2.40929">
        <ele>129.32</ele>
        <time>2024-05-26T22:09:38.012Z</time>
      </trkpt>
      <trkpt lat="48.42421" lon="2.40932">
        <ele>129.17</ele>
        <time>2024-05-26T22:09:45.247Z</time>
      </trkpt>
      <trkpt lat="48.4242" lon="2.40939">
        <ele>128.98</ele>
        <time>2024-05-26T22:09:52.483Z</time>
      </trkpt>
      <trkpt lat="48.42418" lon="2.4094">
        <ele>128.73</ele>
        <time>2024-05-26T22:09:59.719Z</time>
      </trkpt>
      <trkpt lat="48.42418" lon="2.40941">
        <ele>128.43</ele>
        <time>2024-05-26T22:10:06.956Z</time>
      </trkpt>
      <trkpt lat="48.42409" lon="2.4094">
        <ele>128.07</ele>
        <time>2024-05-26T22:10:14.194Z</time>
      </trkpt>
      <trkpt lat="48.42394" lon="2.40942">
        <ele>127.66</ele>
        <time>2024-05-26T22:10:21.435Z</time>
      </trkpt>
      <trkpt lat="48.42391" lon="2.40942">
        <ele>127.23</ele>
        <time>2024-05-26T22:10:28.677Z</time>
      </trkpt>
      <trkpt lat="48.42387" lon="2.40942">
        <ele>126.76</ele>
        <time>2024-05-26T22:10:35.920Z</time>
      </trkpt>
      <trkpt lat="48.42383" lon="2.40941">
        <ele>126.25</ele>
        <time>2024-05-26T22:10:43.163Z</time>
      </trkpt>
      <trkpt lat="48.42371" lon="2.40937">
        <ele>125.67</ele>
        <time>2024-05-26T22:10:50.409Z</time>
      </trkpt>
      <trkpt lat="48.42365" lon="2.40933">
        <ele>125.08</ele>
        <time>2024-05-26T22:10:57.656Z</time>
      </trkpt>
      <trkpt lat="48.42356" lon="2.40928">
        <ele>124.45</ele>
        <time>2024-05-26T22:11:04.905Z</time>
      </trkpt>
      <trkpt lat="48.42344" lon="2.40922">
        <ele>123.8</ele>
        <time>2024-05-26T22:11:12.157Z</time>
      </trkpt>
      <trkpt lat="48.42331" lon="2.40906">
        <ele>123.11</ele>
        <time>2024-05-26T22:11:19.412Z</time>
      </trkpt>
      <trkpt lat="48.42326" lon="2.40894">
        <ele>122.42</ele>
        <time>2024-05-26T22:11:26.669Z</time>
      </trkpt>
      <trkpt lat="48.42324" lon="2.40891">
        <ele>121.73</ele>
        <time>2024-05-26T22:11:33.927Z</time>
      </trkpt>
      <trkpt lat="48.42317" lon="2.40892">
        <ele>120.99</ele>
        <time>2024-05-26T22:11:41.186Z</time>
      </trkpt>
      <trkpt lat="48.42311" lon="2.40887">
        <ele>120.24</ele>
        <time>2024-05-26T22:11:48.446Z</time>
      </trkpt>
      <trkpt lat="48.42307" lon="2.40883">
        <ele>119.49</ele>
        <time>2024-05-26T22:11:55.707Z</time>
      </trkpt>
      <trkpt lat="48.42301" lon="2.40881">
        <ele>118.73</ele>
        <time>2024-05-26T22:12:02.969Z</time>
      </trkpt>
      <trkpt lat="48.42292" lon="2.40869">
        <ele>117.93</ele>
        <time>2024-05-26T22:12:10.234Z</time>
      </trkpt>
      <trkpt lat="48.42288" lon="2.40865">
        <ele>117.15</ele>
        <time>2024-05-26T22:12:17.500Z</time>
      </trkpt>
      <trkpt lat="48.42286" lon="2.40864">
        <ele>116.38</ele>
        <time>2024-05-26T22:12:24.766Z</time>
      </trkpt>
      <trkpt lat="48.42281" lon="2.40862">
        <ele>115.6</ele>
        <time>2024-05-26T22:12:32.033Z</time>
      </trkpt>
      <trkpt lat="48.42279" lon="2.40861">
        <ele>114.83</ele>
        <time>2024-05-26T22:12:39.301Z</time>
      </trkpt>
      <trkpt lat="48.42277" lon="2.40859">
        <ele>114.05</ele>
        <time>2024-05-26T22:12:46.569Z</time>
      </trkpt>
      <trkpt lat="48.42272" lon="2.40853">
        <ele>113.25</ele>
        <time>2024-05-26T22:12:53.838Z</time>
      </trkpt>
      <trkpt lat="48.42269" lon="2.40853">
        <ele>112.48</ele>
        <time>2024-05-26T22:13:01.108Z</time>
      </trkpt>
      <trkpt lat="48.42268" lon="2.40854">
        <ele>111.72</ele>
        <time>2024-05-26T22:13:08.378Z</time>
      </trkpt>
      <trkpt lat="48.42268" lon="2.40853">
        <ele>110.97</ele>
        <time>2024-05-26T22:13:15.648Z</time>
      </trkpt>
      <trkpt lat="48.42267" lon="2.40852">
        <ele>110.22</ele>
        <time>2024-05-26T22:13:22.918Z</time>
      </trkpt>
      <trkpt lat="48.42267" lon="2.40852">
        <ele>109.48</ele>
        <time>2024-05-26T22:13:30.189Z</time>
      </trkpt>
      <trkpt lat="48.42267" lon="2.40852">
        <ele>108.75</ele>
        <time>2024-05-26T22:13:37.460Z</time>
      </trkpt>
      <trkpt lat="48.42267" lon="2.40852">
        <ele>108.04</ele>
        <time>2024-05-26T22:13:44.731Z</time>
      </trkpt>
      <trkpt lat="48.42267" lon="2.40852">
        <ele>107.32</ele>
        <time>2024-05-26T22:13:52.002Z</time>
      </trkpt>
      <trkpt lat="48.42268" lon="2.40852">
        <ele>106.62</ele>
        <time>2024-05-26T22:13:59.273Z</time>
      </trkpt>
      <trkpt lat="48.42268" lon="2.40852">
        <ele>105.93</ele>
        <time>2024-05-26T22:14:06.544Z</time>
      </trkpt>
      <trkpt lat="48.42264" lon="2.40852">
        <ele>105.22</ele>
        <time>2024-05-26T22:14:13.815Z</time>
      </trkpt>
      <trkpt lat="48.42262" lon="2.40851">
        <ele>104.54</ele>
        <time>2024-05-26T22:14:21.087Z</time>
      </trkpt>
      <trkpt lat="48.42256" lon="2.40854">
        <ele>103.84</ele>
        <time>2024-05-26T22:14:28.360Z</time>
      </trkpt>
      <trkpt lat="48.42254" lon="2.40862">
        <ele>103.19</ele>
        <time>2024-05-26T22:14:35.634Z</time>
      </trkpt>
      <trkpt lat="48.42251" lon="2.40872">
        <ele>102.55</ele>
        <time>2024-05-26T22:14:42.910Z</time>
      </trkpt>
      <trkpt lat="48.42249" lon="2.40877">
        <ele>101.92</ele>
        <time>2024-05-26T22:14:50.187Z</time>
      </trkpt>
      <trkpt lat="48.42244" lon="2.40879">
        <ele>101.3</ele>
        <time>2024-05-26T22:14:57.464Z</time>
      </trkpt>
      <trkpt lat="48.42243" lon="2.40874">
        <ele>100.69</ele>
        <time>2024-05-26T22:15:04.742Z</time>
      </trkpt>
      <trkpt lat="48.42242" lon="2.40871">
        <ele>100.11</ele>
        <time>2024-05-26T22:15:12.021Z</time>
      </trkpt>
      <trkpt lat="48.42242" lon="2.40869">
        <ele>99.55</ele>
        <time>2024-05-26T22:15:19.300Z</time>
      </trkpt>
      <trkpt lat="48.42242" lon="2.40864">
        <ele>99.01</ele>
        <time>2024-05-26T22:15:26.580Z</time>
      </trkpt>
      <trkpt lat="48.4224" lon="2.40852">
        <ele>98.46</ele>
        <time>2024-05-26T22:15:33.861Z</time>
      </trkpt>
      <trkpt lat="48.42238" lon="2.40849">
        <ele>97.95</ele>
        <time>2024-05-26T22:15:41.143Z</time>
      </trkpt>
      <trkpt lat="48.42228" lon="2.40829">
        <ele>97.37</ele>
        <time>2024-05-26T22:15:48.428Z</time>
      </trkpt>
      <trkpt lat="48.42225" lon="2.40823">
        <ele>96.91</ele>
        <time>2024-05-26T22:15:55.714Z</time>
      </trkpt>
      <trkpt lat="48.42222" lon="2.40805">
        <ele>96.43</ele>
        <time>2024-05-26T22:16:03.003Z</time>
      </trkpt>
      <trkpt lat="48.4222" lon="2.40798">
        <ele>96.02</ele>
        <time>2024-05-26T22:16:10.293Z</time>
      </trkpt>
      <trkpt lat="48.42212" lon="2.40787">
        <ele>95.64</ele>
        <time>2024-05-26T22:16:17.585Z</time>
      </trkpt>
      <trkpt lat="48.42209" lon="2.40786">
        <ele>95.32</ele>
        <time>2024-05-26T22:16:24.877Z</time>
      </trkpt>
      <trkpt lat="48.42198" lon="2.40785">
        <ele>95.02</ele>
        <time>2024-05-26T22:16:32.172Z</time>
      </trkpt>
      <trkpt lat="48.42195" lon="2.40787">
        <ele>94.78</ele>
        <time>2024-05-26T22:16:39.467Z</time>
      </trkpt>
      <trkpt lat="48.42193" lon="2.40789">
        <ele>94.58</ele>
        <time>2024-05-26T22:16:46.763Z</time>
      </trkpt>
      <trkpt lat="48.42191" lon="2.40793">
        <ele>94.43</ele>
        <time>2024-05-26T22:16:54.059Z</time>
      </trkpt>
      <trkpt lat="48.42191" lon="2.40797">
        <ele>94.31</ele>
        <time>2024-05-26T22:17:01.356Z</time>
      </trkpt>
      <trkpt lat="48.42189" lon="2.40801">
        <ele>94.24</ele>
        <time>2024-05-26T22:17:08.654Z</time>
      </trkpt>
      <trkpt lat="48.42189" lon="2.408">
        <ele>94.19</ele>
        <time>2024-05-26T22:17:15.952Z</time>
      </trkpt>
      <trkpt lat="48.42187" lon="2.40799">
        <ele>94.18</ele>
        <time>2024-05-26T22:17:23.250Z</time>
      </trkpt>
      <trkpt lat="48.42184" lon="2.40797">
        <ele>94.21</ele>
        <time>2024-05-26T22:17:30.549Z</time>
      </trkpt>
      <trkpt lat="48.42183" lon="2.40796">
        <ele>94.28</ele>
        <time>2024-05-26T22:17:37.848Z</time>
      </trkpt>
      <trkpt lat="48.42177" lon="2.40793">
        <ele>94.39</ele>
        <time>2024-05-26T22:17:45.148Z</time>
      </trkpt>
      <trkpt lat="48.4217" lon="2.40789">
        <ele>94.54</ele>
        <time>2024-05-26T22:17:52.450Z</time>
      </trkpt>
      <trkpt lat="48.42169" lon="2.4079">
        <ele>94.74</ele>
        <time>2024-05-26T22:17:59.752Z</time>
      </trkpt>
      <trkpt lat="48.42168" lon="2.40791">
        <ele>94.98</ele>
        <time>2024-05-26T22:18:07.054Z</time>
      </trkpt>
      <trkpt lat="48.42168" lon="2.40795">
        <ele>95.28</ele>
        <time>2024-05-26T22:18:14.357Z</time>
      </trkpt>
      <trkpt lat="48.42168" lon="2.40801">
        <ele>95.63</ele>
        <time>2024-05-26T22:18:21.661Z</time>
      </trkpt>
      <trkpt lat="48.42169" lon="2.40806">
        <ele>96</ele>
        <time>2024-05-26T22:18:28.965Z</time>
      </trkpt>
      <trkpt lat="48.4217" lon="2.40808">
        <ele>96.39</ele>
        <time>2024-05-26T22:18:36.270Z</time>
      </trkpt>
      <trkpt lat="48.42172" lon="2.40813">
        <ele>96.82</ele>
        <time>2024-05-26T22:18:43.575Z</time>
      </trkpt>
      <trkpt lat="48.42174" lon="2.40817">
        <ele>97.29</ele>
        <time>2024-05-26T22:18:50.881Z</time>
      </trkpt>
      <trkpt lat="48.42174" lon="2.40819">
        <ele>97.78</ele>
        <time>2024-05-26T22:18:58.187Z</time>
      </trkpt>
      <trkpt lat="48.42175" lon="2.40827">
        <ele>98.32</ele>
        <time>2024-05-26T22:19:05.494Z</time>
      </trkpt>
      <trkpt lat="48.42175" lon="2.40829">
        <ele>98.87</ele>
        <time>2024-05-26T22:19:12.802Z</time>
      </trkpt>
      <trkpt lat="48.42176" lon="2.40839">
        <ele>99.46</ele>
        <time>2024-05-26T22:19:20.111Z</time>
      </trkpt>
      <trkpt lat="48.42175" lon="2.40844">
        <ele>100.06</ele>
        <time>2024-05-26T22:19:27.421Z</time>
      </trkpt>
      <trkpt lat="48.42176" lon="2.40848">
        <ele>100.68</ele>
        <time>2024-05-26T22:19:34.731Z</time>
      </trkpt>
      <trkpt lat="48.42178" lon="2.40857">
        <ele>101.33</ele>
        <time>2024-05-26T22:19:42.042Z</time>
      </trkpt>
      <trkpt lat="48.42178" lon="2.4086">
        <ele>101.99</ele>
        <time>2024-05-26T22:19:49.354Z</time>
      </trkpt>
      <trkpt lat="48.4218" lon="2.40869">
        <ele>102.68</ele>
        <time>2024-05-26T22:19:56.667Z</time>
      </trkpt>
      <trkpt lat="48.42184" lon="2.40878">
        <ele>103.39</ele>
        <time>2024-05-26T22:20:03.982Z</time>
      </trkpt>
      <trkpt lat="48.42188" lon="2.40886">
        <ele>104.1</ele>
        <time>2024-05-26T22:20:11.298Z</time>
      </trkpt>
      <trkpt lat="48.42188" lon="2.40892">
        <ele>104.82</ele>
        <time>2024-05-26T22:20:18.615Z</time>
      </trkpt>
      <trkpt lat="48.42188" lon="2.40895">
        <ele>105.53</ele>
        <time>2024-05-26T22:20:25.932Z</time>
      </trkpt>
      <trkpt lat="48.4219" lon="2.40904">
        <ele>106.27</ele>
        <time>2024-05-26T22:20:33.250Z</time>
      </trkpt>
      <trkpt lat="48.42191" lon="2.40916">
        <ele>107.03</ele>
        <time>2024-05-26T22:20:40.570Z</time>
      </trkpt>
      <trkpt lat="48.42191" lon="2.40919">
        <ele>107.75</ele>
        <time>2024-05-26T22:20:47.890Z</time>
      </trkpt>
      <trkpt lat="48.42189" lon="2.40927">
        <ele>108.52</ele>
        <time>2024-05-26T22:20:55.212Z</time>
      </trkpt>
      <trkpt lat="48.42188" lon="2.40929">
        <ele>109.22</ele>
        <time>2024-05-26T22:21:02.534Z</time>
      </trkpt>
      <trkpt lat="48.42186" lon="2.4093">
        <ele>109.93</ele>
        <time>2024-05-26T22:21:09.856Z</time>
      </trkpt>
      <trkpt lat="48.42183" lon="2.40933">
        <ele>110.63</ele>
        <time>2024-05-26T22:21:17.179Z</time>
      </trkpt>
      <trkpt lat="48.4218" lon="2.40935">
        <ele>111.31</ele>
        <time>2024-05-26T22:21:24.503Z</time>
      </trkpt>
      <trkpt lat="48.42178" lon="2.40936">
        <ele>111.97</ele>
        <time>2024-05-26T22:21:31.827Z</time>
      </trkpt>
      <trkpt lat="48.42175" lon="2.4094">
        <ele>112.63</ele>
        <time>2024-05-26T22:21:39.152Z</time>
      </trkpt>
      <trkpt lat="48.42171" lon="2.40943">
        <ele>113.27</ele>
        <time>2024-05-26T22:21:46.478Z</time>
      </trkpt>
      <trkpt lat="48.42159" lon="2.40952">
        <ele>113.94</ele>
        <time>2024-05-26T22:21:53.806Z</time>
      </trkpt>
      <trkpt lat="48.42155" lon="2.40955">
        <ele>114.53</ele>
        <time>2024-05-26T22:22:01.135Z</time>
      </trkpt>
      <trkpt lat="48.42147" lon="2.40961">
        <ele>115.13</ele>
        <time>2024-05-26T22:22:08.466Z</time>
      </trkpt>
      <trkpt lat="48.42138" lon="2.40973">
        <ele>115.74</ele>
        <time>2024-05-26T22:22:15.800Z</time>
      </trkpt>
      <trkpt lat="48.4213" lon="2.40982">
        <ele>116.31</ele>
        <time>2024-05-26T22:22:23.135Z</time>
      </trkpt>
      <trkpt lat="48.42127" lon="2.40985">
        <ele>116.82</ele>
        <time>2024-05-26T22:22:30.471Z</time>
      </trkpt>
      <trkpt lat="48.42125" lon="2.40985">
        <ele>117.29</ele>
        <time>2024-05-26T22:22:37.808Z</time>
      </trkpt>
      <trkpt lat="48.42121" lon="2.40985">
        <ele>117.73</ele>
        <time>2024-05-26T22:22:45.145Z</time>
      </trkpt>
      <trkpt lat="48.42116" lon="2.40984">
        <ele>118.14</ele>
        <time>2024-05-26T22:22:52.483Z</time>
      </trkpt>
      <trkpt lat="48.4211" lon="2.40982">
        <ele>118.51</ele>
        <time>2024-05-26T22:22:59.823Z</time>
      </trkpt>
      <trkpt lat="48.42108" lon="2.40981">
        <ele>118.87</ele>
        <time>2024-05-26T22:23:07.163Z</time>
      </trkpt>
      <trkpt lat="48.42095" lon="2.40977">
        <ele>119.22</ele>
        <time>2024-05-26T22:23:14.506Z</time>
      </trkpt>
      <trkpt lat="48.42093" lon="2.40978">
        <ele>119.55</ele>
        <time>2024-05-26T22:23:21.849Z</time>
      </trkpt>
      <trkpt lat="48.42082" lon="2.40976">
        <ele>119.84</ele>
        <time>2024-05-26T22:23:29.194Z</time>
      </trkpt>
      <trkpt lat="48.42073" lon="2.40978">
        <ele>120.1</ele>
        <time>2024-05-26T22:23:36.541Z</time>
      </trkpt>
      <trkpt lat="48.42073" lon="2.40978">
        <ele>120.35</ele>
        <time>2024-05-26T22:23:43.888Z</time>
      </trkpt>
      <trkpt lat="48.42072" lon="2.40979">
        <ele>120.57</ele>
        <time>2024-05-26T22:23:51.235Z</time>
      </trkpt>
      <trkpt lat="48.42069" lon="2.4098">
        <ele>120.77</ele>
        <time>2024-05-26T22:23:58.583Z</time>
      </trkpt>
      <trkpt lat="48.42066" lon="2.40983">
        <ele>120.97</ele>
        <time>2024-05-26T22:24:05.932Z</time>
      </trkpt>
      <trkpt lat="48.42064" lon="2.40984">
        <ele>121.14</ele>
        <time>2024-05-26T22:24:13.281Z</time>
      </trkpt>
      <trkpt lat="48.42057" lon="2.40988">
        <ele>121.28</ele>
        <time>2024-05-26T22:24:20.632Z</time>
      </trkpt>
      <trkpt lat="48.42054" lon="2.40989">
        <ele>121.41</ele>
        <time>2024-05-26T22:24:27.983Z</time>
      </trkpt>
      <trkpt lat="48.42052" lon="2.4099">
        <ele>121.53</ele>
        <time>2024-05-26T22:24:35.335Z</time>
      </trkpt>
      <trkpt lat="48.42051" lon="2.4099">
        <ele>121.62</ele>
        <time>2024-05-26T22:24:42.687Z</time>
      </trkpt>
      <trkpt lat="48.42049" lon="2.40994">
        <ele>121.71</ele>
        <time>2024-05-26T22:24:50.040Z</time>
      </trkpt>
      <trkpt lat="48.42048" lon="2.40995">
        <ele>121.78</ele>
        <time>2024-05-26T22:24:57.393Z</time>
      </trkpt>
      <trkpt lat="48.42042" lon="2.40994">
        <ele>121.8</ele>
        <time>2024-05-26T22:25:04.747Z</time>
      </trkpt>
      <trkpt lat="48.42042" lon="2.40995">
        <ele>121.85</ele>
        <time>2024-05-26T22:25:12.101Z</time>
      </trkpt>
      <trkpt lat="48.42039" lon="2.40998">
        <ele>121.88</ele>
        <time>2024-05-26T22:25:19.456Z</time>
      </trkpt>
      <trkpt lat="48.42037" lon="2.41">
        <ele>121.9</ele>
        <time>2024-05-26T22:25:26.811Z</time>
      </trkpt>
      <trkpt lat="48.42027" lon="2.41014">
        <ele>121.88</ele>
        <time>2024-05-26T22:25:34.169Z</time>
      </trkpt>
      <trkpt lat="48.42022" lon="2.41026">
        <ele>121.89</ele>
        <time>2024-05-26T22:25:41.529Z</time>
      </trkpt>
      <trkpt lat="48.42021" lon="2.41035">
        <ele>121.91</ele>
        <time>2024-05-26T22:25:48.890Z</time>
      </trkpt>
      <trkpt lat="48.42019" lon="2.41042">
        <ele>121.91</ele>
        <time>2024-05-26T22:25:56.252Z</time>
      </trkpt>
      <trkpt lat="48.42016" lon="2.41053">
        <ele>121.9</ele>
        <time>2024-05-26T22:26:03.616Z</time>
      </trkpt>
      <trkpt lat="48.42015" lon="2.41058">
        <ele>121.89</ele>
        <time>2024-05-26T22:26:10.980Z</time>
      </trkpt>
      <trkpt lat="48.42015" lon="2.4108">
        <ele>121.93</ele>
        <time>2024-05-26T22:26:18.347Z</time>
      </trkpt>
      <trkpt lat="48.42017" lon="2.41102">
        <ele>122</ele>
        <time>2024-05-26T22:26:25.717Z</time>
      </trkpt>
      <trkpt lat="48.42017" lon="2.41105">
        <ele>121.97</ele>
        <time>2024-05-26T22:26:33.088Z</time>
      </trkpt>
      <trkpt lat="48.42017" lon="2.41112">
        <ele>121.93</ele>
        <time>2024-05-26T22:26:40.460Z</time>
      </trkpt>
      <trkpt lat="48.42017" lon="2.4112">
        <ele>121.88</ele>
        <time>2024-05-26T22:26:47.833Z</time>
      </trkpt>
      <trkpt lat="48.42015" lon="2.41122">
        <ele>121.79</ele>
        <time>2024-05-26T22:26:55.206Z</time>
      </trkpt>
      <trkpt lat="48.42012" lon="2.41128">
        <ele>121.7</ele>
        <time>2024-05-26T22:27:02.580Z</time>
      </trkpt>
      <trkpt lat="48.42011" lon="2.4113">
        <ele>121.61</ele>
        <time>2024-05-26T22:27:09.954Z</time>
      </trkpt>
      <trkpt lat="48.4201" lon="2.41135">
        <ele>121.51</ele>
        <time>2024-05-26T22:27:17.329Z</time>
      </trkpt>
      <trkpt lat="48.4201" lon="2.41138">
        <ele>121.39</ele>
        <time>2024-05-26T22:27:24.704Z</time>
      </trkpt>
      <trkpt lat="48.42009" lon="2.41144">
        <ele>121.27</ele>
        <time>2024-05-26T22:27:32.080Z</time>
      </trkpt>
      <trkpt lat="48.4201" lon="2.41147">
        <ele>121.13</ele>
        <time>2024-05-26T22:27:39.457Z</time>
      </trkpt>
      <trkpt lat="48.42011" lon="2.4115">
        <ele>120.99</ele>
        <time>2024-05-26T22:27:46.834Z</time>
      </trkpt>
      <trkpt lat="48.42012" lon="2.41152">
        <ele>120.84</ele>
        <time>2024-05-26T22:27:54.211Z</time>
      </trkpt>
      <trkpt lat="48.42013" lon="2.41156">
        <ele>120.67</ele>
        <time>2024-05-26T22:28:01.589Z</time>
      </trkpt>
      <trkpt lat="48.42012" lon="2.41159">
        <ele>120.5</ele>
        <time>2024-05-26T22:28:08.968Z</time>
      </trkpt>
      <trkpt lat="48.42013" lon="2.41176">
        <ele>120.31</ele>
        <time>2024-05-26T22:28:16.349Z</time>
      </trkpt>
      <trkpt lat="48.42013" lon="2.4118">
        <ele>120.12</ele>
        <time>2024-05-26T22:28:23.730Z</time>
      </trkpt>
      <trkpt lat="48.42014" lon="2.41192">
        <ele>119.92</ele>
        <time>2024-05-26T22:28:31.113Z</time>
      </trkpt>
      <trkpt lat="48.42014" lon="2.41204">
        <ele>119.72</ele>
        <time>2024-05-26T22:28:38.498Z</time>
      </trkpt>
      <trkpt lat="48.42014" lon="2.41212">
        <ele>119.52</ele>
        <time>2024-05-26T22:28:45.884Z</time>
      </trkpt>
      <trkpt lat="48.42013" lon="2.4123">
        <ele>119.29</ele>
        <time>2024-05-26T22:28:53.272Z</time>
      </trkpt>
      <trkpt lat="48.42007" lon="2.41247">
        <ele>119.07</ele>
        <time>2024-05-26T22:29:00.663Z</time>
      </trkpt>
      <trkpt lat="48.41999" lon="2.41264">
        <ele>118.88</ele>
        <time>2024-05-26T22:29:08.056Z</time>
      </trkpt>
      <trkpt lat="48.41984" lon="2.41271">
        <ele>118.65</ele>
        <time>2024-05-26T22:29:15.452Z</time>
      </trkpt>
      <trkpt lat="48.41977" lon="2.41273">
        <ele>118.46</ele>
        <time>2024-05-26T22:29:22.850Z</time>
      </trkpt>
      <trkpt lat="48.41969" lon="2.41275">
        <ele>118.28</ele>
        <time>2024-05-26T22:29:30.250Z</time>
      </trkpt>
      <trkpt lat="48.41961" lon="2.41277">
        <ele>118.14</ele>
        <time>2024-05-26T22:29:37.651Z</time>
      </trkpt>
      <trkpt lat="48.41953" lon="2.41279">
        <ele>118.02</ele>
        <time>2024-05-26T22:29:45.054Z</time>
      </trkpt>
      <trkpt lat="48.41946" lon="2.41282">
        <ele>117.92</ele>
        <time>2024-05-26T22:29:52.458Z</time>
      </trkpt>
      <trkpt lat="48.41939" lon="2.41285">
        <ele>117.85</ele>
        <time>2024-05-26T22:29:59.864Z</time>
      </trkpt>
      <trkpt lat="48.41932" lon="2.4129">
        <ele>117.81</ele>
        <time>2024-05-26T22:30:07.271Z</time>
      </trkpt>
      <trkpt lat="48.41926" lon="2.41295">
        <ele>117.8</ele>
        <time>2024-05-26T22:30:14.679Z</time>
      </trkpt>
      <trkpt lat="48.41922" lon="2.41298">
        <ele>117.81</ele>
        <time>2024-05-26T22:30:22.088Z</time>
      </trkpt>
      <trkpt lat="48.41914" lon="2.41303">
        <ele>117.85</ele>
        <time>2024-05-26T22:30:29.499Z</time>
      </trkpt>
      <trkpt lat="48.41912" lon="2.41303">
        <ele>117.89</ele>
        <time>2024-05-26T22:30:36.911Z</time>
      </trkpt>
      <trkpt lat="48.41905" lon="2.41301">
        <ele>117.97</ele>
        <time>2024-05-26T22:30:44.324Z</time>
      </trkpt>
      <trkpt lat="48.419" lon="2.41301">
        <ele>118.06</ele>
        <time>2024-05-26T22:30:51.738Z</time>
      </trkpt>
      <trkpt lat="48.41897" lon="2.41301">
        <ele>118.17</ele>
        <time>2024-05-26T22:30:59.153Z</time>
      </trkpt>
      <trkpt lat="48.41896" lon="2.41302">
        <ele>118.29</ele>
        <time>2024-05-26T22:31:06.568Z</time>
      </trkpt>
      <trkpt lat="48.41895" lon="2.41308">
        <ele>118.46</ele>
        <time>2024-05-26T22:31:13.984Z</time>
      </trkpt>
      <trkpt lat="48.41895" lon="2.41311">
        <ele>118.63</ele>
        <time>2024-05-26T22:31:21.400Z</time>
      </trkpt>
      <trkpt lat="48.41895" lon="2.41315">
        <ele>118.83</ele>
        <time>2024-05-26T22:31:28.817Z</time>
      </trkpt>
      <trkpt lat="48.41894" lon="2.41323">
        <ele>119.06</ele>
        <time>2024-05-26T22:31:36.235Z</time>
      </trkpt>
      <trkpt lat="48.41893" lon="2.41329">
        <ele>119.31</ele>
        <time>2024-05-26T22:31:43.653Z</time>
      </trkpt>
      <trkpt lat="48.41894" lon="2.41334">
        <ele>119.56</ele>
        <time>2024-05-26T22:31:51.072Z</time>
      </trkpt>
      <trkpt lat="48.41895" lon="2.41335">
        <ele>119.81</ele>
        <time>2024-05-26T22:31:58.491Z</time>
      </trkpt>
      <trkpt lat="48.41895" lon="2.41336">
        <ele>120.07</ele>
        <time>2024-05-26T22:32:05.911Z</time>
      </trkpt>
      <trkpt lat="48.41897" lon="2.41336">
        <ele>120.35</ele>
        <time>2024-05-26T22:32:13.331Z</time>
      </trkpt>
      <trkpt lat="48.41898" lon="2.41339">
        <ele>120.64</ele>
        <time>2024-05-26T22:32:20.751Z</time>
      </trkpt>
      <trkpt lat="48.41902" lon="2.41344">
        <ele>120.95</ele>
        <time>2024-05-26T22:32:28.172Z</time>
      </trkpt>
      <trkpt lat="48.41904" lon="2.41343">
        <ele>121.25</ele>
        <time>2024-05-26T22:32:35.594Z</time>
      </trkpt>
      <trkpt lat="48.41915" lon="2.41353">
        <ele>121.58</ele>
        <time>2024-05-26T22:32:43.018Z</time>
      </trkpt>
      <trkpt lat="48.41923" lon="2.41369">
        <ele>121.96</ele>
        <time>2024-05-26T22:32:50.445Z</time>
      </trkpt>
      <trkpt lat="48.41924" lon="2.41372">
        <ele>122.31</ele>
        <time>2024-05-26T22:32:57.872Z</time>
      </trkpt>
      <trkpt lat="48.41928" lon="2.41376">
        <ele>122.66</ele>
        <time>2024-05-26T22:33:05.300Z</time>
      </trkpt>
      <trkpt lat="48.4193" lon="2.4138">
        <ele>123.03</ele>
        <time>2024-05-26T22:33:12.729Z</time>
      </trkpt>
      <trkpt lat="48.41932" lon="2.41384">
        <ele>123.39</ele>
        <time>2024-05-26T22:33:20.159Z</time>
      </trkpt>
      <trkpt lat="48.4194" lon="2.414">
        <ele>123.8</ele>
        <time>2024-05-26T22:33:27.591Z</time>
      </trkpt>
      <trkpt lat="48.41943" lon="2.41406">
        <ele>124.18</ele>
        <time>2024-05-26T22:33:35.024Z</time>
      </trkpt>
      <trkpt lat="48.41946" lon="2.41409">
        <ele>124.55</ele>
        <time>2024-05-26T22:33:42.458Z</time>
      </trkpt>
      <trkpt lat="48.41945" lon="2.41411">
        <ele>124.91</ele>
        <time>2024-05-26T22:33:49.892Z</time>
      </trkpt>
      <trkpt lat="48.41943" lon="2.41411">
        <ele>125.27</ele>
        <time>2024-05-26T22:33:57.327Z</time>
      </trkpt>
      <trkpt lat="48.41941" lon="2.41413">
        <ele>125.63</ele>
        <time>2024-05-26T22:34:04.762Z</time>
      </trkpt>
      <trkpt lat="48.41941" lon="2.41414">
        <ele>125.98</ele>
        <time>2024-05-26T22:34:12.197Z</time>
      </trkpt>
      <trkpt lat="48.41941" lon="2.41415">
        <ele>126.32</ele>
        <time>2024-05-26T22:34:19.632Z</time>
      </trkpt>
      <trkpt lat="48.41942" lon="2.41417">
        <ele>126.66</ele>
        <time>2024-05-26T22:34:27.068Z</time>
      </trkpt>
      <trkpt lat="48.41944" lon="2.41418">
        <ele>127</ele>
        <time>2024-05-26T22:34:34.504Z</time>
      </trkpt>
      <trkpt lat="48.41944" lon="2.41416">
        <ele>127.32</ele>
        <time>2024-05-26T22:34:41.941Z</time>
      </trkpt>
      <trkpt lat="48.41947" lon="2.41415">
        <ele>127.64</ele>
        <time>2024-05-26T22:34:49.378Z</time>
      </trkpt>
      <trkpt lat="48.41949" lon="2.41422">
        <ele>127.96</ele>
        <time>2024-05-26T22:34:56.816Z</time>
      </trkpt>
      <trkpt lat="48.41949" lon="2.41426">
        <ele>128.27</ele>
        <time>2024-05-26T22:35:04.255Z</time>
      </trkpt>
      <trkpt lat="48.41949" lon="2.4144">
        <ele>128.59</ele>
        <time>2024-05-26T22:35:11.696Z</time>
      </trkpt>
      <trkpt lat="48.41948" lon="2.41444">
        <ele>128.88</ele>
        <time>2024-05-26T22:35:19.137Z</time>
      </trkpt>
      <trkpt lat="48.41947" lon="2.41449">
        <ele>129.16</ele>
        <time>2024-05-26T22:35:26.579Z</time>
      </trkpt>
      <trkpt lat="48.41946" lon="2.41451">
        <ele>129.43</ele>
        <time>2024-05-26T22:35:34.021Z</time>
      </trkpt>
      <trkpt lat="48.41943" lon="2.41459">
        <ele>129.71</ele>
        <time>2024-05-26T22:35:41.464Z</time>
      </trkpt>
      <trkpt lat="48.41942" lon="2.41461">
        <ele>129.96</ele>
        <time>2024-05-26T22:35:48.908Z</time>
      </trkpt>
      <trkpt lat="48.41941" lon="2.41464">
        <ele>130.2</ele>
        <time>2024-05-26T22:35:56.352Z</time>
      </trkpt>
      <trkpt lat="48.41936" lon="2.41475">
        <ele>130.45</ele>
        <time>2024-05-26T22:36:03.798Z</time>
      </trkpt>
      <trkpt lat="48.41929" lon="2.41487">
        <ele>130.69</ele>
        <time>2024-05-26T22:36:11.246Z</time>
      </trkpt>
      <trkpt lat="48.41927" lon="2.4149">
        <ele>130.9</ele>
        <time>2024-05-26T22:36:18.695Z</time>
      </trkpt>
      <trkpt lat="48.41916" lon="2.41504">
        <ele>131.12</ele>
        <time>2024-05-26T22:36:26.147Z</time>
      </trkpt>
      <trkpt lat="48.41905" lon="2.41508">
        <ele>131.3</ele>
        <time>2024-05-26T22:36:33.601Z</time>
      </trkpt>
      <trkpt lat="48.41903" lon="2.41508">
        <ele>131.46</ele>
        <time>2024-05-26T22:36:41.055Z</time>
      </trkpt>
      <trkpt lat="48.41895" lon="2.4151">
        <ele>131.62</ele>
        <time>2024-05-26T22:36:48.511Z</time>
      </trkpt>
      <trkpt lat="48.41884" lon="2.41507">
        <ele>131.75</ele>
        <time>2024-05-26T22:36:55.969Z</time>
      </trkpt>
      <trkpt lat="48.4187" lon="2.4151">
        <ele>131.88</ele>
        <time>2024-05-26T22:37:03.430Z</time>
      </trkpt>
      <trkpt lat="48.41855" lon="2.4151">
        <ele>132</ele>
        <time>2024-05-26T22:37:10.894Z</time>
      </trkpt>
      <trkpt lat="48.41836" lon="2.41518">
        <ele>132.09</ele>
        <time>2024-05-26T22:37:18.362Z</time>
      </trkpt>
      <trkpt lat="48.41818" lon="2.41525">
        <ele>132.17</ele>
        <time>2024-05-26T22:37:25.834Z</time>
      </trkpt>
      <trkpt lat="48.41815" lon="2.41531">
        <ele>132.26</ele>
        <time>2024-05-26T22:37:33.307Z</time>
      </trkpt>
      <trkpt lat="48.41814" lon="2.41539">
        <ele>132.33</ele>
        <time>2024-05-26T22:37:40.781Z</time>
      </trkpt>
      <trkpt lat="48.41812" lon="2.41548">
        <ele>132.39</ele>
        <time>2024-05-26T22:37:48.256Z</time>
      </trkpt>
      <trkpt lat="48.41811" lon="2.41561">
        <ele>132.44</ele>
        <time>2024-05-26T22:37:55.733Z</time>
      </trkpt>
      <trkpt lat="48.41811" lon="2.41593">
        <ele>132.5</ele>
        <time>2024-05-26T22:38:03.214Z</time>
      </trkpt>
      <trkpt lat="48.41814" lon="2.41623">
        <ele>132.56</ele>
        <time>2024-05-26T22:38:10.699Z</time>
      </trkpt>
      <trkpt lat="48.41819" lon="2.41654">
        <ele>132.62</ele>
        <time>2024-05-26T22:38:18.188Z</time>
      </trkpt>
      <trkpt lat="48.41822" lon="2.41686">
        <ele>132.68</ele>
        <time>2024-05-26T22:38:25.682Z</time>
      </trkpt>
      <trkpt lat="48.41828" lon="2.41718">
        <ele>132.72</ele>
        <time>2024-05-26T22:38:33.180Z</time>
      </trkpt>
      <trkpt lat="48.41834" lon="2.41754">
        <ele>132.76</ele>
        <time>2024-05-26T22:38:40.683Z</time>
      </trkpt>
      <trkpt lat="48.4184" lon="2.41796">
        <ele>132.81</ele>
        <time>2024-05-26T22:38:48.192Z</time>
      </trkpt>
      <trkpt lat="48.41847" lon="2.41824">
        <ele>132.86</ele>
        <time>2024-05-26T22:38:55.705Z</time>
      </trkpt>
      <trkpt lat="48.41858" lon="2.41868">
        <ele>132.93</ele>
        <time>2024-05-26T22:39:03.224Z</time>
      </trkpt>
      <trkpt lat="48.41873" lon="2.41889">
        <ele>132.96</ele>
        <time>2024-05-26T22:39:10.747Z</time>
      </trkpt>
      <trkpt lat="48.41889" lon="2.41927">
        <ele>132.94</ele>
        <time>2024-05-26T22:39:18.276Z</time>
      </trkpt>
      <trkpt lat="48.41895" lon="2.41947">
        <ele>132.94</ele>
        <time>2024-05-26T22:39:25.808Z</time>
      </trkpt>
      <trkpt lat="48.41892" lon="2.41948">
        <ele>132.97</ele>
        <time>2024-05-26T22:39:33.340Z</time>
      </trkpt>
      <trkpt lat="48.41886" lon="2.41949">
        <ele>133</ele>
        <time>2024-05-26T22:39:40.874Z</time>
      </trkpt>
      <trkpt lat="48.41872" lon="2.4195">
        <ele>133.06</ele>
        <time>2024-05-26T22:39:48.411Z</time>
      </trkpt>
      <trkpt lat="48.41848" lon="2.41947">
        <ele>133.14</ele>
        <time>2024-05-26T22:39:55.952Z</time>
      </trkpt>
      <trkpt lat="48.41827" lon="2.41936">
        <ele>133.2</ele>
        <time>2024-05-26T22:40:03.498Z</time>
      </trkpt>
      <trkpt lat="48.418" lon="2.41907">
        <ele>133.22</ele>
        <time>2024-05-26T22:40:11.050Z</time>
      </trkpt>
      <trkpt lat="48.41787" lon="2.41891">
        <ele>133.25</ele>
        <time>2024-05-26T22:40:18.606Z</time>
      </trkpt>
      <trkpt lat="48.41779" lon="2.41882">
        <ele>133.27</ele>
        <time>2024-05-26T22:40:26.164Z</time>
      </trkpt>
      <trkpt lat="48.41756" lon="2.41859">
        <ele>133.24</ele>
        <time>2024-05-26T22:40:33.727Z</time>
      </trkpt>
      <trkpt lat="48.41727" lon="2.41829">
        <ele>133.2</ele>
        <time>2024-05-26T22:40:41.297Z</time>
      </trkpt>
      <trkpt lat="48.41703" lon="2.41804">
        <ele>133.16</ele>
        <time>2024-05-26T22:40:48.873Z</time>
      </trkpt>
      <trkpt lat="48.41684" lon="2.41787">
        <ele>133.15</ele>
        <time>2024-05-26T22:40:56.453Z</time>
      </trkpt>
      <trkpt lat="48.4168" lon="2.41785">
        <ele>133.17</ele>
        <time>2024-05-26T22:41:04.034Z</time>
      </trkpt>
      <trkpt lat="48.41676" lon="2.41782">
        <ele>133.19</ele>
        <time>2024-05-26T22:41:11.616Z</time>
      </trkpt>
      <trkpt lat="48.41652" lon="2.41766">
        <ele>133.2</ele>
        <time>2024-05-26T22:41:19.204Z</time>
      </trkpt>
      <trkpt lat="48.41632" lon="2.41753">
        <ele>133.24</ele>
        <time>2024-05-26T22:41:26.796Z</time>
      </trkpt>
      <trkpt lat="48.41613" lon="2.41737">
        <ele>133.3</ele>
        <time>2024-05-26T22:41:34.392Z</time>
      </trkpt>
      <trkpt lat="48.41595" lon="2.41727">
        <ele>133.37</ele>
        <time>2024-05-26T22:41:41.992Z</time>
      </trkpt>
      <trkpt lat="48.41584" lon="2.41731">
        <ele>133.43</ele>
        <time>2024-05-26T22:41:49.594Z</time>
      </trkpt>
      <trkpt lat="48.41579" lon="2.41738">
        <ele>133.47</ele>
        <time>2024-05-26T22:41:57.198Z</time>
      </trkpt>
      <trkpt lat="48.41574" lon="2.41753">
        <ele>133.51</ele>
        <time>2024-05-26T22:42:04.804Z</time>
      </trkpt>
      <trkpt lat="48.41569" lon="2.41784">
        <ele>133.54</ele>
        <time>2024-05-26T22:42:12.414Z</time>
      </trkpt>
      <trkpt lat="48.41563" lon="2.41809">
        <ele>133.58</ele>
        <time>2024-05-26T22:42:20.028Z</time>
      </trkpt>
      <trkpt lat="48.41559" lon="2.41844">
        <ele>133.65</ele>
        <time>2024-05-26T22:42:27.647Z</time>
      </trkpt>
      <trkpt lat="48.41553" lon="2.41874">
        <ele>133.71</ele>
        <time>2024-05-26T22:42:35.270Z</time>
      </trkpt>
      <trkpt lat="48.41547" lon="2.41923">
        <ele>133.74</ele>
        <time>2024-05-26T22:42:42.899Z</time>
      </trkpt>
      <trkpt lat="48.41545" lon="2.41959">
        <ele>133.79</ele>
        <time>2024-05-26T22:42:50.533Z</time>
      </trkpt>
      <trkpt lat="48.41542" lon="2.42001">
        <ele>133.75</ele>
        <time>2024-05-26T22:42:58.173Z</time>
      </trkpt>
      <trkpt lat="48.41538" lon="2.42041">
        <ele>133.72</ele>
        <time>2024-05-26T22:43:05.818Z</time>
      </trkpt>
      <trkpt lat="48.41536" lon="2.42058">
        <ele>133.72</ele>
        <time>2024-05-26T22:43:13.465Z</time>
      </trkpt>
      <trkpt lat="48.41533" lon="2.42084">
        <ele>133.71</ele>
        <time>2024-05-26T22:43:21.116Z</time>
      </trkpt>
      <trkpt lat="48.41526" lon="2.42124">
        <ele>133.65</ele>
        <time>2024-05-26T22:43:28.772Z</time>
      </trkpt>
      <trkpt lat="48.4153" lon="2.42148">
        <ele>133.62</ele>
        <time>2024-05-26T22:43:36.432Z</time>
      </trkpt>
      <trkpt lat="48.41531" lon="2.42177">
        <ele>133.57</ele>
        <time>2024-05-26T22:43:44.096Z</time>
      </trkpt>
      <trkpt lat="48.4153" lon="2.42211">
        <ele>133.47</ele>
        <time>2024-05-26T22:43:51.764Z</time>
      </trkpt>
      <trkpt lat="48.41532" lon="2.42241">
        <ele>133.44</ele>
        <time>2024-05-26T22:43:59.436Z</time>
      </trkpt>
      <trkpt lat="48.41531" lon="2.42258">
        <ele>133.42</ele>
        <time>2024-05-26T22:44:07.111Z</time>
      </trkpt>
      <trkpt lat="48.4153" lon="2.42282">
        <ele>133.4</ele>
        <time>2024-05-26T22:44:14.789Z</time>
      </trkpt>
      <trkpt lat="48.4153" lon="2.42312">
        <ele>133.38</ele>
        <time>2024-05-26T22:44:22.471Z</time>
      </trkpt>
      <trkpt lat="48.41529" lon="2.4233">
        <ele>133.37</ele>
        <time>2024-05-26T22:44:30.155Z</time>
      </trkpt>
      <trkpt lat="48.41529" lon="2.42338">
        <ele>133.34</ele>
        <time>2024-05-26T22:44:37.840Z</time>
      </trkpt>
      <trkpt lat="48.41532" lon="2.42362">
        <ele>133.29</ele>
        <time>2024-05-26T22:44:45.528Z</time>
      </trkpt>
      <trkpt lat="48.41532" lon="2.4237">
        <ele>133.23</ele>
        <time>2024-05-26T22:44:53.217Z</time>
      </trkpt>
      <trkpt lat="48.41534" lon="2.42377">
        <ele>133.15</ele>
        <time>2024-05-26T22:45:00.908Z</time>
      </trkpt>
      <trkpt lat="48.41542" lon="2.42412">
        <ele>133.04</ele>
        <time>2024-05-26T22:45:08.603Z</time>
      </trkpt>
      <trkpt lat="48.41546" lon="2.42433">
        <ele>132.95</ele>
        <time>2024-05-26T22:45:16.301Z</time>
      </trkpt>
      <trkpt lat="48.41545" lon="2.42451">
        <ele>132.84</ele>
        <time>2024-05-26T22:45:24.002Z</time>
      </trkpt>
      <trkpt lat="48.41539" lon="2.42473">
        <ele>132.72</ele>
        <time>2024-05-26T22:45:31.706Z</time>
      </trkpt>
      <trkpt lat="48.41538" lon="2.42478">
        <ele>132.56</ele>
        <time>2024-05-26T22:45:39.411Z</time>
      </trkpt>
      <trkpt lat="48.4153" lon="2.4252">
        <ele>132.4</ele>
        <time>2024-05-26T22:45:47.121Z</time>
      </trkpt>
      <trkpt lat="48.41528" lon="2.42535">
        <ele>132.19</ele>
        <time>2024-05-26T22:45:54.833Z</time>
      </trkpt>
      <trkpt lat="48.4152" lon="2.42565">
        <ele>131.96</ele>
        <time>2024-05-26T22:46:02.550Z</time>
      </trkpt>
      <trkpt lat="48.41518" lon="2.42595">
        <ele>131.68</ele>
        <time>2024-05-26T22:46:10.271Z</time>
      </trkpt>
      <trkpt lat="48.41516" lon="2.42601">
        <ele>131.35</ele>
        <time>2024-05-26T22:46:17.993Z</time>
      </trkpt>
      <trkpt lat="48.41513" lon="2.42624">
        <ele>130.96</ele>
        <time>2024-05-26T22:46:25.718Z</time>
      </trkpt>
      <trkpt lat="48.41508" lon="2.42654">
        <ele>130.53</ele>
        <time>2024-05-26T22:46:33.447Z</time>
      </trkpt>
      <trkpt lat="48.41508" lon="2.42662">
        <ele>130.06</ele>
        <time>2024-05-26T22:46:41.177Z</time>
      </trkpt>
      <trkpt lat="48.41505" lon="2.42693">
        <ele>129.6</ele>
        <time>2024-05-26T22:46:48.911Z</time>
      </trkpt>
      <trkpt lat="48.41506" lon="2.42699">
        <ele>129.06</ele>
        <time>2024-05-26T22:46:56.646Z</time>
      </trkpt>
      <trkpt lat="48.41502" lon="2.42736">
        <ele>128.51</ele>
        <time>2024-05-26T22:47:04.386Z</time>
      </trkpt>
      <trkpt lat="48.41499" lon="2.42776">
        <ele>127.84</ele>
        <time>2024-05-26T22:47:12.131Z</time>
      </trkpt>
      <trkpt lat="48.41493" lon="2.42821">
        <ele>127.09</ele>
        <time>2024-05-26T22:47:19.882Z</time>
      </trkpt>
      <trkpt lat="48.4149" lon="2.42861">
        <ele>126.26</ele>
        <time>2024-05-26T22:47:27.639Z</time>
      </trkpt>
      <trkpt lat="48.41487" lon="2.42889">
        <ele>125.42</ele>
        <time>2024-05-26T22:47:35.400Z</time>
      </trkpt>
      <trkpt lat="48.41486" lon="2.42896">
        <ele>124.56</ele>
        <time>2024-05-26T22:47:43.161Z</time>
      </trkpt>
      <trkpt lat="48.41489" lon="2.42921">
        <ele>123.6</ele>
        <time>2024-05-26T22:47:50.926Z</time>
      </trkpt>
      <trkpt lat="48.4149" lon="2.4293">
        <ele>122.63</ele>
        <time>2024-05-26T22:47:58.692Z</time>
      </trkpt>
      <trkpt lat="48.41491" lon="2.42939">
        <ele>121.62</ele>
        <time>2024-05-26T22:48:06.459Z</time>
      </trkpt>
      <trkpt lat="48.41489" lon="2.4296">
        <ele>120.55</ele>
        <time>2024-05-26T22:48:14.229Z</time>
      </trkpt>
      <trkpt lat="48.41489" lon="2.42967">
        <ele>119.46</ele>
        <time>2024-05-26T22:48:22.000Z</time>
      </trkpt>
      <trkpt lat="48.41491" lon="2.42972">
        <ele>118.33</ele>
        <time>2024-05-26T22:48:29.772Z</time>
      </trkpt>
      <trkpt lat="48.41493" lon="2.42977">
        <ele>117.17</ele>
        <time>2024-05-26T22:48:37.545Z</time>
      </trkpt>
      <trkpt lat="48.41493" lon="2.4299">
        <ele>115.94</ele>
        <time>2024-05-26T22:48:45.319Z</time>
      </trkpt>
      <trkpt lat="48.41492" lon="2.42999">
        <ele>114.7</ele>
        <time>2024-05-26T22:48:53.095Z</time>
      </trkpt>
      <trkpt lat="48.41493" lon="2.43007">
        <ele>113.44</ele>
        <time>2024-05-26T22:49:00.872Z</time>
      </trkpt>
      <trkpt lat="48.41492" lon="2.43016">
        <ele>112.15</ele>
        <time>2024-05-26T22:49:08.650Z</time>
      </trkpt>
      <trkpt lat="48.4149" lon="2.43024">
        <ele>110.82</ele>
        <time>2024-05-26T22:49:16.429Z</time>
      </trkpt>
      <trkpt lat="48.41487" lon="2.43032">
        <ele>109.46</ele>
        <time>2024-05-26T22:49:24.209Z</time>
      </trkpt>
      <trkpt lat="48.4148" lon="2.43049">
        <ele>108.01</ele>
        <time>2024-05-26T22:49:31.992Z</time>
      </trkpt>
      <trkpt lat="48.41473" lon="2.4307">
        <ele>106.54</ele>
        <time>2024-05-26T22:49:39.778Z</time>
      </trkpt>
      <trkpt lat="48.41469" lon="2.43079">
        <ele>105.13</ele>
        <time>2024-05-26T22:49:47.565Z</time>
      </trkpt>
      <trkpt lat="48.41464" lon="2.43089">
        <ele>103.74</ele>
        <time>2024-05-26T22:49:55.354Z</time>
      </trkpt>
      <trkpt lat="48.41458" lon="2.431">
        <ele>102.35</ele>
        <time>2024-05-26T22:50:03.145Z</time>
      </trkpt>
      <trkpt lat="48.41453" lon="2.43111">
        <ele>100.96</ele>
        <time>2024-05-26T22:50:10.938Z</time>
      </trkpt>
      <trkpt lat="48.41447" lon="2.43123">
        <ele>99.59</ele>
        <time>2024-05-26T22:50:18.733Z</time>
      </trkpt>
      <trkpt lat="48.41441" lon="2.43134">
        <ele>98.21</ele>
        <time>2024-05-26T22:50:26.530Z</time>
      </trkpt>
      <trkpt lat="48.41437" lon="2.43146">
        <ele>96.88</ele>
        <time>2024-05-26T22:50:34.329Z</time>
      </trkpt>
      <trkpt lat="48.41432" lon="2.43158">
        <ele>95.57</ele>
        <time>2024-05-26T22:50:42.129Z</time>
      </trkpt>
      <trkpt lat="48.41425" lon="2.43182">
        <ele>94.24</ele>
        <time>2024-05-26T22:50:49.933Z</time>
      </trkpt>
      <trkpt lat="48.41422" lon="2.43206">
        <ele>92.94</ele>
        <time>2024-05-26T22:50:57.740Z</time>
      </trkpt>
      <trkpt lat="48.4142" lon="2.43216">
        <ele>91.71</ele>
        <time>2024-05-26T22:51:05.548Z</time>
      </trkpt>
      <trkpt lat="48.41417" lon="2.43225">
        <ele>90.51</ele>
        <time>2024-05-26T22:51:13.358Z</time>
      </trkpt>
      <trkpt lat="48.41412" lon="2.43233">
        <ele>89.36</ele>
        <time>2024-05-26T22:51:21.169Z</time>
      </trkpt>
      <trkpt lat="48.41404" lon="2.43247">
        <ele>88.22</ele>
        <time>2024-05-26T22:51:28.983Z</time>
      </trkpt>
      <trkpt lat="48.41398" lon="2.43262">
        <ele>87.13</ele>
        <time>2024-05-26T22:51:36.799Z</time>
      </trkpt>
      <trkpt lat="48.41392" lon="2.43275">
        <ele>86.08</ele>
        <time>2024-05-26T22:51:44.617Z</time>
      </trkpt>
      <trkpt lat="48.4139" lon="2.43281">
        <ele>85.08</ele>
        <time>2024-05-26T22:51:52.436Z</time>
      </trkpt>
      <trkpt lat="48.41387" lon="2.43288">
        <ele>84.14</ele>
        <time>2024-05-26T22:52:00.256Z</time>
      </trkpt>
      <trkpt lat="48.41385" lon="2.43296">
        <ele>83.23</ele>
        <time>2024-05-26T22:52:08.077Z</time>
      </trkpt>
      <trkpt lat="48.41383" lon="2.43303">
        <ele>82.38</ele>
        <time>2024-05-26T22:52:15.899Z</time>
      </trkpt>
      <trkpt lat="48.41375" lon="2.43325">
        <ele>81.52</ele>
        <time>2024-05-26T22:52:23.725Z</time>
      </trkpt>
      <trkpt lat="48.41372" lon="2.43337">
        <ele>80.76</ele>
        <time>2024-05-26T22:52:31.552Z</time>
      </trkpt>
      <trkpt lat="48.41368" lon="2.43352">
        <ele>80.03</ele>
        <time>2024-05-26T22:52:39.381Z</time>
      </trkpt>
      <trkpt lat="48.41362" lon="2.43375">
        <ele>79.35</ele>
        <time>2024-05-26T22:52:47.214Z</time>
      </trkpt>
      <trkpt lat="48.41357" lon="2.43383">
        <ele>78.73</ele>
        <time>2024-05-26T22:52:55.048Z</time>
      </trkpt>
      <trkpt lat="48.41352" lon="2.4339">
        <ele>78.15</ele>
        <time>2024-05-26T22:53:02.884Z</time>
      </trkpt>
      <trkpt lat="48.41349" lon="2.43397">
        <ele>77.61</ele>
        <time>2024-05-26T22:53:10.721Z</time>
      </trkpt>
      <trkpt lat="48.41344" lon="2.43413">
        <ele>77.09</ele>
        <time>2024-05-26T22:53:18.560Z</time>
      </trkpt>
      <trkpt lat="48.41336" lon="2.43426">
        <ele>76.64</ele>
        <time>2024-05-26T22:53:26.401Z</time>
      </trkpt>
      <trkpt lat="48.41332" lon="2.43431">
        <ele>76.24</ele>
        <time>2024-05-26T22:53:34.243Z</time>
      </trkpt>
      <trkpt lat="48.41324" lon="2.43431">
        <ele>75.88</ele>
        <time>2024-05-26T22:53:42.087Z</time>
      </trkpt>
      <trkpt lat="48.4132" lon="2.43428">
        <ele>75.57</ele>
        <time>2024-05-26T22:53:49.932Z</time>
      </trkpt>
      <trkpt lat="48.41315" lon="2.43424">
        <ele>75.29</ele>
        <time>2024-05-26T22:53:57.778Z</time>
      </trkpt>
      <trkpt lat="48.41303" lon="2.43419">
        <ele>75.06</ele>
        <time>2024-05-26T22:54:05.627Z</time>
      </trkpt>
      <trkpt lat="48.41288" lon="2.4341">
        <ele>74.85</ele>
        <time>2024-05-26T22:54:13.479Z</time>
      </trkpt>
      <trkpt lat="48.41276" lon="2.43402">
        <ele>74.69</ele>
        <time>2024-05-26T22:54:21.333Z</time>
      </trkpt>
      <trkpt lat="48.41252" lon="2.43386">
        <ele>74.56</ele>
        <time>2024-05-26T22:54:29.193Z</time>
      </trkpt>
      <trkpt lat="48.41222" lon="2.43371">
        <ele>74.43</ele>
        <time>2024-05-26T22:54:37.059Z</time>
      </trkpt>
      <trkpt lat="48.41204" lon="2.43368">
        <ele>74.32</ele>
        <time>2024-05-26T22:54:44.929Z</time>
      </trkpt>
      <trkpt lat="48.41199" lon="2.43369">
        <ele>74.24</ele>
        <time>2024-05-26T22:54:52.800Z</time>
      </trkpt>
      <trkpt lat="48.412" lon="2.43367">
        <ele>74.21</ele>
        <time>2024-05-26T22:55:00.671Z</time>
      </trkpt>
      <trkpt lat="48.41203" lon="2.43364">
        <ele>74.21</ele>
        <time>2024-05-26T22:55:08.543Z</time>
      </trkpt>
      <trkpt lat="48.41201" lon="2.43362">
        <ele>74.22</ele>
        <time>2024-05-26T22:55:16.415Z</time>
      </trkpt>
      <trkpt lat="48.41198" lon="2.43363">
        <ele>74.25</ele>
        <time>2024-05-26T22:55:24.288Z</time>
      </trkpt>
      <trkpt lat="48.41196" lon="2.43363">
        <ele>74.3</ele>
        <time>2024-05-26T22:55:32.162Z</time>
      </trkpt>
      <trkpt lat="48.41193" lon="2.43373">
        <ele>74.35</ele>
        <time>2024-05-26T22:55:40.037Z</time>
      </trkpt>
      <trkpt lat="48.41202" lon="2.43385">
        <ele>74.45</ele>
        <time>2024-05-26T22:55:47.914Z</time>
      </trkpt>
      <trkpt lat="48.41208" lon="2.43387">
        <ele>74.56</ele>
        <time>2024-05-26T22:55:55.793Z</time>
      </trkpt>
      <trkpt lat="48.41204" lon="2.43385">
        <ele>74.69</ele>
        <time>2024-05-26T22:56:03.672Z</time>
      </trkpt>
      <trkpt lat="48.41206" lon="2.43387">
        <ele>74.84</ele>
        <time>2024-05-26T22:56:11.552Z</time>
      </trkpt>
      <trkpt lat="48.41199" lon="2.43381">
        <ele>75.01</ele>
        <time>2024-05-26T22:56:19.433Z</time>
      </trkpt>
      <trkpt lat="48.41189" lon="2.4337">
        <ele>75.2</ele>
        <time>2024-05-26T22:56:27.317Z</time>
      </trkpt>
      <trkpt lat="48.41193" lon="2.43369">
        <ele>75.4</ele>
        <time>2024-05-26T22:56:35.202Z</time>
      </trkpt>
      <trkpt lat="48.41193" lon="2.43371">
        <ele>75.61</ele>
        <time>2024-05-26T22:56:43.087Z</time>
      </trkpt>
      <trkpt lat="48.41194" lon="2.4337">
        <ele>75.84</ele>
        <time>2024-05-26T22:56:50.972Z</time>
      </trkpt>
      <trkpt lat="48.41182" lon="2.43365">
        <ele>76.11</ele>
        <time>2024-05-26T22:56:58.860Z</time>
      </trkpt>
      <trkpt lat="48.41164" lon="2.43359">
        <ele>76.4</ele>
        <time>2024-05-26T22:57:06.751Z</time>
      </trkpt>
      <trkpt lat="48.41141" lon="2.4335">
        <ele>76.69</ele>
        <time>2024-05-26T22:57:14.647Z</time>
      </trkpt>
      <trkpt lat="48.41113" lon="2.4334">
        <ele>76.99</ele>
        <time>2024-05-26T22:57:22.549Z</time>
      </trkpt>
      <trkpt lat="48.41103" lon="2.43323">
        <ele>77.3</ele>
        <time>2024-05-26T22:57:30.454Z</time>
      </trkpt>
      <trkpt lat="48.4109" lon="2.43291">
        <ele>77.59</ele>
        <time>2024-05-26T22:57:38.364Z</time>
      </trkpt>
      <trkpt lat="48.41091" lon="2.43284">
        <ele>77.93</ele>
        <time>2024-05-26T22:57:46.275Z</time>
      </trkpt>
      <trkpt lat="48.4109" lon="2.43275">
        <ele>78.3</ele>
        <time>2024-05-26T22:57:54.187Z</time>
      </trkpt>
      <trkpt lat="48.4109" lon="2.43265">
        <ele>78.68</ele>
        <time>2024-05-26T22:58:02.100Z</time>
      </trkpt>
      <trkpt lat="48.41089" lon="2.43247">
        <ele>79.08</ele>
        <time>2024-05-26T22:58:10.016Z</time>
      </trkpt>
      <trkpt lat="48.4109" lon="2.43232">
        <ele>79.48</ele>
        <time>2024-05-26T22:58:17.934Z</time>
      </trkpt>
      <trkpt lat="48.41093" lon="2.43209">
        <ele>79.89</ele>
        <time>2024-05-26T22:58:25.855Z</time>
      </trkpt>
      <trkpt lat="48.41096" lon="2.43179">
        <ele>80.32</ele>
        <time>2024-05-26T22:58:33.780Z</time>
      </trkpt>
      <trkpt lat="48.41096" lon="2.43151">
        <ele>80.79</ele>
        <time>2024-05-26T22:58:41.709Z</time>
      </trkpt>
      <trkpt lat="48.41089" lon="2.43129">
        <ele>81.28</ele>
        <time>2024-05-26T22:58:49.641Z</time>
      </trkpt>
      <trkpt lat="48.41086" lon="2.43124">
        <ele>81.77</ele>
        <time>2024-05-26T22:58:57.574Z</time>
      </trkpt>
      <trkpt lat="48.41076" lon="2.43106">
        <ele>82.29</ele>
        <time>2024-05-26T22:59:05.510Z</time>
      </trkpt>
      <trkpt lat="48.41072" lon="2.43098">
        <ele>82.84</ele>
        <time>2024-05-26T22:59:13.447Z</time>
      </trkpt>
      <trkpt lat="48.41065" lon="2.43085">
        <ele>83.42</ele>
        <time>2024-05-26T22:59:21.386Z</time>
      </trkpt>
      <trkpt lat="48.41063" lon="2.43081">
        <ele>83.99</ele>
        <time>2024-05-26T22:59:29.326Z</time>
      </trkpt>
      <trkpt lat="48.4106" lon="2.43073">
        <ele>84.59</ele>
        <time>2024-05-26T22:59:37.267Z</time>
      </trkpt>
      <trkpt lat="48.41052" lon="2.43052">
        <ele>85.24</ele>
        <time>2024-05-26T22:59:45.212Z</time>
      </trkpt>
      <trkpt lat="48.41048" lon="2.43045">
        <ele>85.86</ele>
        <time>2024-05-26T22:59:53.158Z</time>
      </trkpt>
      <trkpt lat="48.41039" lon="2.43032">
        <ele>86.53</ele>
        <time>2024-05-26T23:00:01.106Z</time>
      </trkpt>
      <trkpt lat="48.41036" lon="2.43028">
        <ele>87.18</ele>
        <time>2024-05-26T23:00:09.055Z</time>
      </trkpt>
      <trkpt lat="48.41034" lon="2.43025">
        <ele>87.84</ele>
        <time>2024-05-26T23:00:17.005Z</time>
      </trkpt>
      <trkpt lat="48.41029" lon="2.43018">
        <ele>88.52</ele>
        <time>2024-05-26T23:00:24.956Z</time>
      </trkpt>
      <trkpt lat="48.41027" lon="2.43016">
        <ele>89.21</ele>
        <time>2024-05-26T23:00:32.907Z</time>
      </trkpt>
      <trkpt lat="48.41016" lon="2.43001">
        <ele>89.95</ele>
        <time>2024-05-26T23:00:40.861Z</time>
      </trkpt>
      <trkpt lat="48.41015" lon="2.42998">
        <ele>90.66</ele>
        <time>2024-05-26T23:00:48.816Z</time>
      </trkpt>
      <trkpt lat="48.41014" lon="2.42988">
        <ele>91.4</ele>
        <time>2024-05-26T23:00:56.772Z</time>
      </trkpt>
      <trkpt lat="48.41012" lon="2.42976">
        <ele>92.13</ele>
        <time>2024-05-26T23:01:04.730Z</time>
      </trkpt>
      <trkpt lat="48.41011" lon="2.42955">
        <ele>92.91</ele>
        <time>2024-05-26T23:01:12.691Z</time>
      </trkpt>
      <trkpt lat="48.41008" lon="2.42937">
        <ele>93.68</ele>
        <time>2024-05-26T23:01:20.654Z</time>
      </trkpt>
      <trkpt lat="48.41006" lon="2.42928">
        <ele>94.45</ele>
        <time>2024-05-26T23:01:28.618Z</time>
      </trkpt>
      <trkpt lat="48.40999" lon="2.42908">
        <ele>95.26</ele>
        <time>2024-05-26T23:01:36.586Z</time>
      </trkpt>
      <trkpt lat="48.40998" lon="2.42904">
        <ele>96</ele>
        <time>2024-05-26T23:01:44.554Z</time>
      </trkpt>
      <trkpt lat="48.40996" lon="2.42892">
        <ele>96.76</ele>
        <time>2024-05-26T23:01:52.524Z</time>
      </trkpt>
      <trkpt lat="48.40998" lon="2.42887">
        <ele>97.49</ele>
        <time>2024-05-26T23:02:00.494Z</time>
      </trkpt>
      <trkpt lat="48.40997" lon="2.4288">
        <ele>98.23</ele>
        <time>2024-05-26T23:02:08.465Z</time>
      </trkpt>
      <trkpt lat="48.40996" lon="2.42864">
        <ele>98.98</ele>
        <time>2024-05-26T23:02:16.438Z</time>
      </trkpt>
      <trkpt lat="48.40995" lon="2.42859">
        <ele>99.73</ele>
        <time>2024-05-26T23:02:24.412Z</time>
      </trkpt>
      <trkpt lat="48.40993" lon="2.42851">
        <ele>100.49</ele>
        <time>2024-05-26T23:02:32.387Z</time>
      </trkpt>
      <trkpt lat="48.40992" lon="2.42849">
        <ele>101.23</ele>
        <time>2024-05-26T23:02:40.363Z</time>
      </trkpt>
      <trkpt lat="48.40985" lon="2.42846">
        <ele>102.02</ele>
        <time>2024-05-26T23:02:48.340Z</time>
      </trkpt>
      <trkpt lat="48.40983" lon="2.42844">
        <ele>102.77</ele>
        <time>2024-05-26T23:02:56.318Z</time>
      </trkpt>
      <trkpt lat="48.40981" lon="2.42843">
        <ele>103.51</ele>
        <time>2024-05-26T23:03:04.296Z</time>
      </trkpt>
      <trkpt lat="48.40975" lon="2.42839">
        <ele>104.28</ele>
        <time>2024-05-26T23:03:12.275Z</time>
      </trkpt>
      <trkpt lat="48.40971" lon="2.42837">
        <ele>105.04</ele>
        <time>2024-05-26T23:03:20.255Z</time>
      </trkpt>
      <trkpt lat="48.40969" lon="2.42837">
        <ele>105.77</ele>
        <time>2024-05-26T23:03:28.236Z</time>
      </trkpt>
      <trkpt lat="48.40965" lon="2.42835">
        <ele>106.52</ele>
        <time>2024-05-26T23:03:36.217Z</time>
      </trkpt>
      <trkpt lat="48.40961" lon="2.42835">
        <ele>107.26</ele>
        <time>2024-05-26T23:03:44.199Z</time>
      </trkpt>
      <trkpt lat="48.40956" lon="2.42833">
        <ele>107.99</ele>
        <time>2024-05-26T23:03:52.182Z</time>
      </trkpt>
      <trkpt lat="48.40951" lon="2.42832">
        <ele>108.72</ele>
        <time>2024-05-26T23:04:00.166Z</time>
      </trkpt>
      <trkpt lat="48.4095" lon="2.42832">
        <ele>109.42</ele>
        <time>2024-05-26T23:04:08.150Z</time>
      </trkpt>
      <trkpt lat="48.40945" lon="2.4283">
        <ele>110.13</ele>
        <time>2024-05-26T23:04:16.135Z</time>
      </trkpt>
      <trkpt lat="48.40944" lon="2.42829">
        <ele>110.81</ele>
        <time>2024-05-26T23:04:24.121Z</time>
      </trkpt>
      <trkpt lat="48.40943" lon="2.42828">
        <ele>111.48</ele>
        <time>2024-05-26T23:04:32.107Z</time>
      </trkpt>
      <trkpt lat="48.4094" lon="2.42822">
        <ele>112.16</ele>
        <time>2024-05-26T23:04:40.094Z</time>
      </trkpt>
      <trkpt lat="48.40938" lon="2.42817">
        <ele>112.82</ele>
        <time>2024-05-26T23:04:48.082Z</time>
      </trkpt>
      <trkpt lat="48.40938" lon="2.42815">
        <ele>113.46</ele>
        <time>2024-05-26T23:04:56.070Z</time>
      </trkpt>
      <trkpt lat="48.40937" lon="2.42814">
        <ele>114.08</ele>
        <time>2024-05-26T23:05:04.058Z</time>
      </trkpt>
      <trkpt lat="48.40936" lon="2.4281">
        <ele>114.71</ele>
        <time>2024-05-26T23:05:12.047Z</time>
      </trkpt>
      <trkpt lat="48.40934" lon="2.42806">
        <ele>115.33</ele>
        <time>2024-05-26T23:05:20.036Z</time>
      </trkpt>
      <trkpt lat="48.40934" lon="2.42805">
        <ele>115.92</ele>
        <time>2024-05-26T23:05:28.026Z</time>
      </trkpt>
      <trkpt lat="48.40933" lon="2.42799">
        <ele>116.52</ele>
        <time>2024-05-26T23:05:36.016Z</time>
      </trkpt>
      <trkpt lat="48.40933" lon="2.42797">
        <ele>117.09</ele>
        <time>2024-05-26T23:05:44.007Z</time>
      </trkpt>
      <trkpt lat="48.40933" lon="2.42792">
        <ele>117.66</ele>
        <time>2024-05-26T23:05:51.998Z</time>
      </trkpt>
      <trkpt lat="48.40931" lon="2.42787">
        <ele>118.23</ele>
        <time>2024-05-26T23:05:59.990Z</time>
      </trkpt>
      <trkpt lat="48.4093" lon="2.42784">
        <ele>118.77</ele>
        <time>2024-05-26T23:06:07.982Z</time>
      </trkpt>
      <trkpt lat="48.4093" lon="2.42781">
        <ele>119.31</ele>
        <time>2024-05-26T23:06:15.975Z</time>
      </trkpt>
      <trkpt lat="48.40928" lon="2.42773">
        <ele>119.84</ele>
        <time>2024-05-26T23:06:23.969Z</time>
      </trkpt>
      <trkpt lat="48.40927" lon="2.42768">
        <ele>120.36</ele>
        <time>2024-05-26T23:06:31.964Z</time>
      </trkpt>
      <trkpt lat="48.40927" lon="2.42765">
        <ele>120.85</ele>
        <time>2024-05-26T23:06:39.959Z</time>
      </trkpt>
      <trkpt lat="48.40926" lon="2.42764">
        <ele>121.33</ele>
        <time>2024-05-26T23:06:47.954Z</time>
      </trkpt>
      <trkpt lat="48.40923" lon="2.42755">
        <ele>121.83</ele>
        <time>2024-05-26T23:06:55.951Z</time>
      </trkpt>
      <trkpt lat="48.40921" lon="2.42752">
        <ele>122.29</ele>
        <time>2024-05-26T23:07:03.948Z</time>
      </trkpt>
      <trkpt lat="48.40921" lon="2.4275">
        <ele>122.73</ele>
        <time>2024-05-26T23:07:11.945Z</time>
      </trkpt>
      <trkpt lat="48.40919" lon="2.42746">
        <ele>123.16</ele>
        <time>2024-05-26T23:07:19.943Z</time>
      </trkpt>
      <trkpt lat="48.40919" lon="2.42744">
        <ele>123.56</ele>
        <time>2024-05-26T23:07:27.941Z</time>
      </trkpt>
      <trkpt lat="48.40916" lon="2.42737">
        <ele>123.97</ele>
        <time>2024-05-26T23:07:35.940Z</time>
      </trkpt>
      <trkpt lat="48.40909" lon="2.42727">
        <ele>124.36</ele>
        <time>2024-05-26T23:07:43.941Z</time>
      </trkpt>
      <trkpt lat="48.40898" lon="2.4271">
        <ele>124.73</ele>
        <time>2024-05-26T23:07:51.945Z</time>
      </trkpt>
      <trkpt lat="48.40882" lon="2.42683">
        <ele>125.08</ele>
        <time>2024-05-26T23:07:59.954Z</time>
      </trkpt>
      <trkpt lat="48.40872" lon="2.42664">
        <ele>125.38</ele>
        <time>2024-05-26T23:08:07.967Z</time>
      </trkpt>
      <trkpt lat="48.4087" lon="2.42659">
        <ele>125.65</ele>
        <time>2024-05-26T23:08:15.980Z</time>
      </trkpt>
      <trkpt lat="48.40855" lon="2.42634">
        <ele>125.94</ele>
        <time>2024-05-26T23:08:23.998Z</time>
      </trkpt>
      <trkpt lat="48.4084" lon="2.42609">
        <ele>126.16</ele>
        <time>2024-05-26T23:08:32.020Z</time>
      </trkpt>
      <trkpt lat="48.40822" lon="2.42579">
        <ele>126.32</ele>
        <time>2024-05-26T23:08:40.048Z</time>
      </trkpt>
      <trkpt lat="48.40819" lon="2.42574">
        <ele>126.47</ele>
        <time>2024-05-26T23:08:48.077Z</time>
      </trkpt>
      <trkpt lat="48.40809" lon="2.42563">
        <ele>126.59</ele>
        <time>2024-05-26T23:08:56.108Z</time>
      </trkpt>
      <trkpt lat="48.40797" lon="2.42567">
        <ele>126.7</ele>
        <time>2024-05-26T23:09:04.141Z</time>
      </trkpt>
      <trkpt lat="48.40783" lon="2.42585">
        <ele>126.79</ele>
        <time>2024-05-26T23:09:12.178Z</time>
      </trkpt>
      <trkpt lat="48.40779" lon="2.4259">
        <ele>126.83</ele>
        <time>2024-05-26T23:09:20.216Z</time>
      </trkpt>
      <trkpt lat="48.40769" lon="2.42602">
        <ele>126.84</ele>
        <time>2024-05-26T23:09:28.257Z</time>
      </trkpt>
      <trkpt lat="48.40769" lon="2.42606">
        <ele>126.82</ele>
        <time>2024-05-26T23:09:36.298Z</time>
      </trkpt>
      <trkpt lat="48.40775" lon="2.42614">
        <ele>126.78</ele>
        <time>2024-05-26T23:09:44.341Z</time>
      </trkpt>
      <trkpt lat="48.40788" lon="2.42627">
        <ele>126.72</ele>
        <time>2024-05-26T23:09:52.387Z</time>
      </trkpt>
      <trkpt lat="48.40794" lon="2.42655">
        <ele>126.63</ele>
        <time>2024-05-26T23:10:00.437Z</time>
      </trkpt>
      <trkpt lat="48.40805" lon="2.42674">
        <ele>126.48</ele>
        <time>2024-05-26T23:10:08.490Z</time>
      </trkpt>
      <trkpt lat="48.40808" lon="2.42678">
        <ele>126.32</ele>
        <time>2024-05-26T23:10:16.544Z</time>
      </trkpt>
      <trkpt lat="48.40815" lon="2.42694">
        <ele>126.09</ele>
        <time>2024-05-26T23:10:24.601Z</time>
      </trkpt>
      <trkpt lat="48.40817" lon="2.42712">
        <ele>125.85</ele>
        <time>2024-05-26T23:10:32.660Z</time>
      </trkpt>
      <trkpt lat="48.40818" lon="2.42723">
        <ele>125.59</ele>
        <time>2024-05-26T23:10:40.721Z</time>
      </trkpt>
      <trkpt lat="48.40824" lon="2.42756">
        <ele>125.32</ele>
        <time>2024-05-26T23:10:48.786Z</time>
      </trkpt>
      <trkpt lat="48.40835" lon="2.42779">
        <ele>125.01</ele>
        <time>2024-05-26T23:10:56.855Z</time>
      </trkpt>
      <trkpt lat="48.40837" lon="2.42786">
        <ele>124.7</ele>
        <time>2024-05-26T23:11:04.925Z</time>
      </trkpt>
      <trkpt lat="48.40839" lon="2.42812">
        <ele>124.39</ele>
        <time>2024-05-26T23:11:12.998Z</time>
      </trkpt>
      <trkpt lat="48.40838" lon="2.42819">
        <ele>124.03</ele>
        <time>2024-05-26T23:11:21.072Z</time>
      </trkpt>
      <trkpt lat="48.4083" lon="2.42851">
        <ele>123.67</ele>
        <time>2024-05-26T23:11:29.151Z</time>
      </trkpt>
      <trkpt lat="48.40816" lon="2.4288">
        <ele>123.31</ele>
        <time>2024-05-26T23:11:37.235Z</time>
      </trkpt>
      <trkpt lat="48.40802" lon="2.42907">
        <ele>122.89</ele>
        <time>2024-05-26T23:11:45.323Z</time>
      </trkpt>
      <trkpt lat="48.40799" lon="2.42914">
        <ele>122.46</ele>
        <time>2024-05-26T23:11:53.412Z</time>
      </trkpt>
      <trkpt lat="48.40796" lon="2.42943">
        <ele>122</ele>
        <time>2024-05-26T23:12:01.505Z</time>
      </trkpt>
      <trkpt lat="48.40796" lon="2.4295">
        <ele>121.53</ele>
        <time>2024-05-26T23:12:09.599Z</time>
      </trkpt>
      <trkpt lat="48.40797" lon="2.42983">
        <ele>120.99</ele>
        <time>2024-05-26T23:12:17.697Z</time>
      </trkpt>
      <trkpt lat="48.40798" lon="2.43001">
        <ele>120.45</ele>
        <time>2024-05-26T23:12:25.798Z</time>
      </trkpt>
      <trkpt lat="48.40798" lon="2.43009">
        <ele>119.91</ele>
        <time>2024-05-26T23:12:33.900Z</time>
      </trkpt>
      <trkpt lat="48.40796" lon="2.43017">
        <ele>119.36</ele>
        <time>2024-05-26T23:12:42.003Z</time>
      </trkpt>
      <trkpt lat="48.40789" lon="2.43024">
        <ele>118.8</ele>
        <time>2024-05-26T23:12:50.108Z</time>
      </trkpt>
      <trkpt lat="48.40778" lon="2.43018">
        <ele>118.27</ele>
        <time>2024-05-26T23:12:58.215Z</time>
      </trkpt>
      <trkpt lat="48.40772" lon="2.43012">
        <ele>117.77</ele>
        <time>2024-05-26T23:13:06.324Z</time>
      </trkpt>
      <trkpt lat="48.40769" lon="2.4301">
        <ele>117.27</ele>
        <time>2024-05-26T23:13:14.433Z</time>
      </trkpt>
      <trkpt lat="48.40758" lon="2.42998">
        <ele>116.78</ele>
        <time>2024-05-26T23:13:22.545Z</time>
      </trkpt>
      <trkpt lat="48.40741" lon="2.42964">
        <ele>116.26</ele>
        <time>2024-05-26T23:13:30.663Z</time>
      </trkpt>
      <trkpt lat="48.40736" lon="2.42947">
        <ele>115.78</ele>
        <time>2024-05-26T23:13:38.783Z</time>
      </trkpt>
      <trkpt lat="48.40732" lon="2.4293">
        <ele>115.31</ele>
        <time>2024-05-26T23:13:46.906Z</time>
      </trkpt>
      <trkpt lat="48.40729" lon="2.42915">
        <ele>114.84</ele>
        <time>2024-05-26T23:13:55.031Z</time>
      </trkpt>
      <trkpt lat="48.40722" lon="2.42905">
        <ele>114.34</ele>
        <time>2024-05-26T23:14:03.158Z</time>
      </trkpt>
      <trkpt lat="48.40718" lon="2.42899">
        <ele>113.87</ele>
        <time>2024-05-26T23:14:11.286Z</time>
      </trkpt>
      <trkpt lat="48.40699" lon="2.42876">
        <ele>113.39</ele>
        <time>2024-05-26T23:14:19.419Z</time>
      </trkpt>
      <trkpt lat="48.40694" lon="2.4287">
        <ele>112.95</ele>
        <time>2024-05-26T23:14:27.553Z</time>
      </trkpt>
      <trkpt lat="48.40689" lon="2.42865">
        <ele>112.53</ele>
        <time>2024-05-26T23:14:35.688Z</time>
      </trkpt>
      <trkpt lat="48.40672" lon="2.42852">
        <ele>112.08</ele>
        <time>2024-05-26T23:14:43.827Z</time>
      </trkpt>
      <trkpt lat="48.40662" lon="2.42845">
        <ele>111.66</ele>
        <time>2024-05-26T23:14:51.968Z</time>
      </trkpt>
      <trkpt lat="48.40656" lon="2.42842">
        <ele>111.27</ele>
        <time>2024-05-26T23:15:00.110Z</time>
      </trkpt>
      <trkpt lat="48.40645" lon="2.42839">
        <ele>110.87</ele>
        <time>2024-05-26T23:15:08.255Z</time>
      </trkpt>
      <trkpt lat="48.40631" lon="2.42835">
        <ele>110.5</ele>
        <time>2024-05-26T23:15:16.402Z</time>
      </trkpt>
      <trkpt lat="48.40624" lon="2.42832">
        <ele>110.18</ele>
        <time>2024-05-26T23:15:24.551Z</time>
      </trkpt>
      <trkpt lat="48.40611" lon="2.42826">
        <ele>109.88</ele>
        <time>2024-05-26T23:15:32.703Z</time>
      </trkpt>
      <trkpt lat="48.40606" lon="2.42822">
        <ele>109.61</ele>
        <time>2024-05-26T23:15:40.856Z</time>
      </trkpt>
      <trkpt lat="48.40595" lon="2.42809">
        <ele>109.4</ele>
        <time>2024-05-26T23:15:49.012Z</time>
      </trkpt>
      <trkpt lat="48.40592" lon="2.42806">
        <ele>109.19</ele>
        <time>2024-05-26T23:15:57.168Z</time>
      </trkpt>
      <trkpt lat="48.40576" lon="2.42795">
        <ele>109.01</ele>
        <time>2024-05-26T23:16:05.328Z</time>
      </trkpt>
      <trkpt lat="48.40557" lon="2.42774">
        <ele>108.87</ele>
        <time>2024-05-26T23:16:13.492Z</time>
      </trkpt>
      <trkpt lat="48.40545" lon="2.42758">
        <ele>108.77</ele>
        <time>2024-05-26T23:16:21.660Z</time>
      </trkpt>
      <trkpt lat="48.40542" lon="2.42755">
        <ele>108.65</ele>
        <time>2024-05-26T23:16:29.828Z</time>
      </trkpt>
      <trkpt lat="48.40534" lon="2.42747">
        <ele>108.57</ele>
        <time>2024-05-26T23:16:37.998Z</time>
      </trkpt>
      <trkpt lat="48.40532" lon="2.42746">
        <ele>108.49</ele>
        <time>2024-05-26T23:16:46.169Z</time>
      </trkpt>
      <trkpt lat="48.40517" lon="2.42738">
        <ele>108.44</ele>
        <time>2024-05-26T23:16:54.343Z</time>
      </trkpt>
      <trkpt lat="48.40515" lon="2.42737">
        <ele>108.42</ele>
        <time>2024-05-26T23:17:02.517Z</time>
      </trkpt>
      <trkpt lat="48.40505" lon="2.42734">
        <ele>108.4</ele>
        <time>2024-05-26T23:17:10.693Z</time>
      </trkpt>
      <trkpt lat="48.40487" lon="2.4274">
        <ele>108.32</ele>
        <time>2024-05-26T23:17:18.873Z</time>
      </trkpt>
      <trkpt lat="48.40473" lon="2.42744">
        <ele>108.3</ele>
        <time>2024-05-26T23:17:27.056Z</time>
      </trkpt>
      <trkpt lat="48.40467" lon="2.42745">
        <ele>108.36</ele>
        <time>2024-05-26T23:17:35.240Z</time>
      </trkpt>
      <trkpt lat="48.40457" lon="2.42742">
        <ele>108.46</ele>
        <time>2024-05-26T23:17:43.426Z</time>
      </trkpt>
      <trkpt lat="48.40452" lon="2.42739">
        <ele>108.6</ele>
        <time>2024-05-26T23:17:51.613Z</time>
      </trkpt>
      <trkpt lat="48.40449" lon="2.42737">
        <ele>108.78</ele>
        <time>2024-05-26T23:17:59.801Z</time>
      </trkpt>
      <trkpt lat="48.40446" lon="2.42736">
        <ele>108.99</ele>
        <time>2024-05-26T23:18:07.990Z</time>
      </trkpt>
      <trkpt lat="48.40442" lon="2.42735">
        <ele>109.23</ele>
        <time>2024-05-26T23:18:16.179Z</time>
      </trkpt>
      <trkpt lat="48.40437" lon="2.42733">
        <ele>109.5</ele>
        <time>2024-05-26T23:18:24.369Z</time>
      </trkpt>
      <trkpt lat="48.40432" lon="2.4273">
        <ele>109.8</ele>
        <time>2024-05-26T23:18:32.560Z</time>
      </trkpt>
      <trkpt lat="48.40427" lon="2.42727">
        <ele>110.14</ele>
        <time>2024-05-26T23:18:40.752Z</time>
      </trkpt>
      <trkpt lat="48.40423" lon="2.42724">
        <ele>110.52</ele>
        <time>2024-05-26T23:18:48.945Z</time>
      </trkpt>
      <trkpt lat="48.40417" lon="2.42715">
        <ele>110.94</ele>
        <time>2024-05-26T23:18:57.140Z</time>
      </trkpt>
      <trkpt lat="48.40414" lon="2.42711">
        <ele>111.38</ele>
        <time>2024-05-26T23:19:05.336Z</time>
      </trkpt>
      <trkpt lat="48.40403" lon="2.42694">
        <ele>111.95</ele>
        <time>2024-05-26T23:19:13.535Z</time>
      </trkpt>
      <trkpt lat="48.40392" lon="2.42676">
        <ele>112.52</ele>
        <time>2024-05-26T23:19:21.737Z</time>
      </trkpt>
      <trkpt lat="48.4039" lon="2.42671">
        <ele>113.04</ele>
        <time>2024-05-26T23:19:29.940Z</time>
      </trkpt>
      <trkpt lat="48.40387" lon="2.42665">
        <ele>113.57</ele>
        <time>2024-05-26T23:19:38.144Z</time>
      </trkpt>
      <trkpt lat="48.40384" lon="2.42655">
        <ele>114.14</ele>
        <time>2024-05-26T23:19:46.350Z</time>
      </trkpt>
      <trkpt lat="48.40383" lon="2.42652">
        <ele>114.68</ele>
        <time>2024-05-26T23:19:54.556Z</time>
      </trkpt>
      <trkpt lat="48.40381" lon="2.42645">
        <ele>115.25</ele>
        <time>2024-05-26T23:20:02.763Z</time>
      </trkpt>
      <trkpt lat="48.40382" lon="2.42643">
        <ele>115.81</ele>
        <time>2024-05-26T23:20:10.970Z</time>
      </trkpt>
      <trkpt lat="48.40382" lon="2.42638">
        <ele>116.38</ele>
        <time>2024-05-26T23:20:19.178Z</time>
      </trkpt>
      <trkpt lat="48.40383" lon="2.42637">
        <ele>116.94</ele>
        <time>2024-05-26T23:20:27.386Z</time>
      </trkpt>
      <trkpt lat="48.40384" lon="2.42635">
        <ele>117.49</ele>
        <time>2024-05-26T23:20:35.594Z</time>
      </trkpt>
      <trkpt lat="48.40384" lon="2.42632">
        <ele>118.06</ele>
        <time>2024-05-26T23:20:43.803Z</time>
      </trkpt>
      <trkpt lat="48.40386" lon="2.42628">
        <ele>118.62</ele>
        <time>2024-05-26T23:20:52.012Z</time>
      </trkpt>
      <trkpt lat="48.40387" lon="2.42626">
        <ele>119.17</ele>
        <time>2024-05-26T23:21:00.222Z</time>
      </trkpt>
      <trkpt lat="48.40389" lon="2.42623">
        <ele>119.73</ele>
        <time>2024-05-26T23:21:08.432Z</time>
      </trkpt>
      <trkpt lat="48.40393" lon="2.42613">
        <ele>120.29</ele>
        <time>2024-05-26T23:21:16.644Z</time>
      </trkpt>
      <trkpt lat="48.40394" lon="2.42608">
        <ele>120.85</ele>
        <time>2024-05-26T23:21:24.857Z</time>
      </trkpt>
      <trkpt lat="48.40394" lon="2.426">
        <ele>121.4</ele>
        <time>2024-05-26T23:21:33.071Z</time>
      </trkpt>
      <trkpt lat="48.40394" lon="2.42598">
        <ele>121.93</ele>
        <time>2024-05-26T23:21:41.285Z</time>
      </trkpt>
      <trkpt lat="48.40398" lon="2.42576">
        <ele>122.46</ele>
        <time>2024-05-26T23:21:49.502Z</time>
      </trkpt>
      <trkpt lat="48.40399" lon="2.4257">
        <ele>122.98</ele>
        <time>2024-05-26T23:21:57.720Z</time>
      </trkpt>
      <trkpt lat="48.404" lon="2.42554">
        <ele>123.5</ele>
        <time>2024-05-26T23:22:05.940Z</time>
      </trkpt>
      <trkpt lat="48.404" lon="2.4255">
        <ele>124</ele>
        <time>2024-05-26T23:22:14.160Z</time>
      </trkpt>
      <trkpt lat="48.40398" lon="2.42533">
        <ele>124.5</ele>
        <time>2024-05-26T23:22:22.383Z</time>
      </trkpt>
      <trkpt lat="48.4039" lon="2.42527">
        <ele>125</ele>
        <time>2024-05-26T23:22:30.608Z</time>
      </trkpt>
      <trkpt lat="48.40388" lon="2.42525">
        <ele>125.48</ele>
        <time>2024-05-26T23:22:38.833Z</time>
      </trkpt>
      <trkpt lat="48.40386" lon="2.42509">
        <ele>125.93</ele>
        <time>2024-05-26T23:22:47.060Z</time>
      </trkpt>
      <trkpt lat="48.40387" lon="2.42474">
        <ele>126.37</ele>
        <time>2024-05-26T23:22:55.292Z</time>
      </trkpt>
      <trkpt lat="48.40388" lon="2.42458">
        <ele>126.83</ele>
        <time>2024-05-26T23:23:03.526Z</time>
      </trkpt>
      <trkpt lat="48.4039" lon="2.4245">
        <ele>127.28</ele>
        <time>2024-05-26T23:23:11.761Z</time>
      </trkpt>
      <trkpt lat="48.40397" lon="2.42421">
        <ele>127.75</ele>
        <time>2024-05-26T23:23:20.000Z</time>
      </trkpt>
      <trkpt lat="48.40402" lon="2.42387">
        <ele>128.21</ele>
        <time>2024-05-26T23:23:28.244Z</time>
      </trkpt>
      <trkpt lat="48.40407" lon="2.42351">
        <ele>128.64</ele>
        <time>2024-05-26T23:23:36.493Z</time>
      </trkpt>
      <trkpt lat="48.40406" lon="2.42335">
        <ele>129.06</ele>
        <time>2024-05-26T23:23:44.744Z</time>
      </trkpt>
      <trkpt lat="48.40405" lon="2.42325">
        <ele>129.45</ele>
        <time>2024-05-26T23:23:52.996Z</time>
      </trkpt>
      <trkpt lat="48.40403" lon="2.42294">
        <ele>129.87</ele>
        <time>2024-05-26T23:24:01.252Z</time>
      </trkpt>
      <trkpt lat="48.40397" lon="2.4225">
        <ele>130.27</ele>
        <time>2024-05-26T23:24:09.514Z</time>
      </trkpt>
      <trkpt lat="48.4039" lon="2.42212">
        <ele>130.61</ele>
        <time>2024-05-26T23:24:17.782Z</time>
      </trkpt>
      <trkpt lat="48.40387" lon="2.42207">
        <ele>130.92</ele>
        <time>2024-05-26T23:24:26.051Z</time>
      </trkpt>
      <trkpt lat="48.40374" lon="2.42199">
        <ele>131.23</ele>
        <time>2024-05-26T23:24:34.322Z</time>
      </trkpt>
      <trkpt lat="48.4037" lon="2.42199">
        <ele>131.51</ele>
        <time>2024-05-26T23:24:42.594Z</time>
      </trkpt>
      <trkpt lat="48.40347" lon="2.422">
        <ele>131.8</ele>
        <time>2024-05-26T23:24:50.871Z</time>
      </trkpt>
      <trkpt lat="48.40339" lon="2.42203">
        <ele>132.05</ele>
        <time>2024-05-26T23:24:59.150Z</time>
      </trkpt>
      <trkpt lat="48.40325" lon="2.42198">
        <ele>132.29</ele>
        <time>2024-05-26T23:25:07.431Z</time>
      </trkpt>
      <trkpt lat="48.40316" lon="2.42192">
        <ele>132.5</ele>
        <time>2024-05-26T23:25:15.714Z</time>
      </trkpt>
      <trkpt lat="48.40303" lon="2.42184">
        <ele>132.69</ele>
        <time>2024-05-26T23:25:24.000Z</time>
      </trkpt>
      <trkpt lat="48.4028" lon="2.42187">
        <ele>132.87</ele>
        <time>2024-05-26T23:25:32.291Z</time>
      </trkpt>
      <trkpt lat="48.40257" lon="2.42193">
        <ele>133.02</ele>
        <time>2024-05-26T23:25:40.587Z</time>
      </trkpt>
      <trkpt lat="48.40252" lon="2.42193">
        <ele>133.16</ele>
        <time>2024-05-26T23:25:48.883Z</time>
      </trkpt>
      <trkpt lat="48.40235" lon="2.4219">
        <ele>133.29</ele>
        <time>2024-05-26T23:25:57.183Z</time>
      </trkpt>
      <trkpt lat="48.40234" lon="2.42185">
        <ele>133.39</ele>
        <time>2024-05-26T23:26:05.483Z</time>
      </trkpt>
      <trkpt lat="48.40228" lon="2.42163">
        <ele>133.47</ele>
        <time>2024-05-26T23:26:13.787Z</time>
      </trkpt>
      <trkpt lat="48.40226" lon="2.4216">
        <ele>133.54</ele>
        <time>2024-05-26T23:26:22.091Z</time>
      </trkpt>
      <trkpt lat="48.40213" lon="2.42149">
        <ele>133.58</ele>
        <time>2024-05-26T23:26:30.398Z</time>
      </trkpt>
      <trkpt lat="48.40199" lon="2.42148">
        <ele>133.62</ele>
        <time>2024-05-26T23:26:38.708Z</time>
      </trkpt>
      <trkpt lat="48.40195" lon="2.42147">
        <ele>133.66</ele>
        <time>2024-05-26T23:26:47.019Z</time>
      </trkpt>
      <trkpt lat="48.4019" lon="2.42147">
        <ele>133.67</ele>
        <time>2024-05-26T23:26:55.331Z</time>
      </trkpt>
      <trkpt lat="48.4017" lon="2.42138">
        <ele>133.68</ele>
        <time>2024-05-26T23:27:03.647Z</time>
      </trkpt>
      <trkpt lat="48.40159" lon="2.42136">
        <ele>133.67</ele>
        <time>2024-05-26T23:27:11.965Z</time>
      </trkpt>
      <trkpt lat="48.40148" lon="2.42131">
        <ele>133.64</ele>
        <time>2024-05-26T23:27:20.285Z</time>
      </trkpt>
      <trkpt lat="48.40118" lon="2.42121">
        <ele>133.61</ele>
        <time>2024-05-26T23:27:28.612Z</time>
      </trkpt>
      <trkpt lat="48.40087" lon="2.42111">
        <ele>133.56</ele>
        <time>2024-05-26T23:27:36.945Z</time>
      </trkpt>
      <trkpt lat="48.40051" lon="2.42096">
        <ele>133.5</ele>
        <time>2024-05-26T23:27:45.285Z</time>
      </trkpt>
      <trkpt lat="48.40032" lon="2.42087">
        <ele>133.46</ele>
        <time>2024-05-26T23:27:53.630Z</time>
      </trkpt>
      <trkpt lat="48.4002" lon="2.42082">
        <ele>133.38</ele>
        <time>2024-05-26T23:28:01.977Z</time>
      </trkpt>
      <trkpt lat="48.40015" lon="2.42079">
        <ele>133.28</ele>
        <time>2024-05-26T23:28:10.325Z</time>
      </trkpt>
      <trkpt lat="48.39998" lon="2.42074">
        <ele>133.16</ele>
        <time>2024-05-26T23:28:18.677Z</time>
      </trkpt>
      <trkpt lat="48.39993" lon="2.42072">
        <ele>133.04</ele>
        <time>2024-05-26T23:28:27.029Z</time>
      </trkpt>
      <trkpt lat="48.39992" lon="2.4207">
        <ele>132.93</ele>
        <time>2024-05-26T23:28:35.382Z</time>
      </trkpt>
      <trkpt lat="48.39987" lon="2.42066">
        <ele>132.79</ele>
        <time>2024-05-26T23:28:43.736Z</time>
      </trkpt>
      <trkpt lat="48.39987" lon="2.42067">
        <ele>132.67</ele>
        <time>2024-05-26T23:28:52.090Z</time>
      </trkpt>
      <trkpt lat="48.39987" lon="2.42067">
        <ele>132.54</ele>
        <time>2024-05-26T23:29:00.444Z</time>
      </trkpt>
      <trkpt lat="48.39987" lon="2.42067">
        <ele>132.41</ele>
        <time>2024-05-26T23:29:08.798Z</time>
      </trkpt>
      <trkpt lat="48.39987" lon="2.42068">
        <ele>132.27</ele>
        <time>2024-05-26T23:29:17.152Z</time>
      </trkpt>
      <trkpt lat="48.39986" lon="2.42068">
        <ele>132.13</ele>
        <time>2024-05-26T23:29:25.506Z</time>
      </trkpt>
      <trkpt lat="48.39986" lon="2.42068">
        <ele>131.99</ele>
        <time>2024-05-26T23:29:33.860Z</time>
      </trkpt>
      <trkpt lat="48.39986" lon="2.42068">
        <ele>131.84</ele>
        <time>2024-05-26T23:29:42.214Z</time>
      </trkpt>
      <trkpt lat="48.39986" lon="2.42069">
        <ele>131.69</ele>
        <time>2024-05-26T23:29:50.569Z</time>
      </trkpt>
      <trkpt lat="48.39986" lon="2.42069">
        <ele>131.54</ele>
        <time>2024-05-26T23:29:58.924Z</time>
      </trkpt>
      <trkpt lat="48.39986" lon="2.42069">
        <ele>131.38</ele>
        <time>2024-05-26T23:30:07.279Z</time>
      </trkpt>
      <trkpt lat="48.39986" lon="2.42069">
        <ele>131.23</ele>
        <time>2024-05-26T23:30:15.634Z</time>
      </trkpt>
      <trkpt lat="48.39986" lon="2.42069">
        <ele>131.07</ele>
        <time>2024-05-26T23:30:23.989Z</time>
      </trkpt>
      <trkpt lat="48.39985" lon="2.42069">
        <ele>130.91</ele>
        <time>2024-05-26T23:30:32.344Z</time>
      </trkpt>
      <trkpt lat="48.39985" lon="2.42069">
        <ele>130.75</ele>
        <time>2024-05-26T23:30:40.699Z</time>
      </trkpt>
      <trkpt lat="48.39985" lon="2.42069">
        <ele>130.59</ele>
        <time>2024-05-26T23:30:49.054Z</time>
      </trkpt>
      <trkpt lat="48.39985" lon="2.42069">
        <ele>130.43</ele>
        <time>2024-05-26T23:30:57.409Z</time>
      </trkpt>
      <trkpt lat="48.39985" lon="2.42069">
        <ele>130.26</ele>
        <time>2024-05-26T23:31:05.764Z</time>
      </trkpt>
      <trkpt lat="48.39984" lon="2.42069">
        <ele>130.1</ele>
        <time>2024-05-26T23:31:14.119Z</time>
      </trkpt>
      <trkpt lat="48.39981" lon="2.42073">
        <ele>129.92</ele>
        <time>2024-05-26T23:31:22.475Z</time>
      </trkpt>
      <trkpt lat="48.39979" lon="2.42078">
        <ele>129.75</ele>
        <time>2024-05-26T23:31:30.832Z</time>
      </trkpt>
      <trkpt lat="48.39972" lon="2.42092">
        <ele>129.58</ele>
        <time>2024-05-26T23:31:39.191Z</time>
      </trkpt>
      <trkpt lat="48.39959" lon="2.42125">
        <ele>129.41</ele>
        <time>2024-05-26T23:31:47.555Z</time>
      </trkpt>
      <trkpt lat="48.39942" lon="2.42148">
        <ele>129.22</ele>
        <time>2024-05-26T23:31:55.924Z</time>
      </trkpt>
      <trkpt lat="48.39935" lon="2.42155">
        <ele>129.07</ele>
        <time>2024-05-26T23:32:04.294Z</time>
      </trkpt>
      <trkpt lat="48.39926" lon="2.42166">
        <ele>128.91</ele>
        <time>2024-05-26T23:32:12.667Z</time>
      </trkpt>
      <trkpt lat="48.39897" lon="2.42197">
        <ele>128.72</ele>
        <time>2024-05-26T23:32:21.047Z</time>
      </trkpt>
      <trkpt lat="48.39884" lon="2.42206">
        <ele>128.56</ele>
        <time>2024-05-26T23:32:29.430Z</time>
      </trkpt>
      <trkpt lat="48.39865" lon="2.42215">
        <ele>128.42</ele>
        <time>2024-05-26T23:32:37.817Z</time>
      </trkpt>
      <trkpt lat="48.39834" lon="2.42225">
        <ele>128.28</ele>
        <time>2024-05-26T23:32:46.210Z</time>
      </trkpt>
      <trkpt lat="48.39817" lon="2.42231">
        <ele>128.15</ele>
        <time>2024-05-26T23:32:54.607Z</time>
      </trkpt>
      <trkpt lat="48.39804" lon="2.42234">
        <ele>128</ele>
        <time>2024-05-26T23:33:03.006Z</time>
      </trkpt>
      <trkpt lat="48.39784" lon="2.42238">
        <ele>127.86</ele>
        <time>2024-05-26T23:33:11.409Z</time>
      </trkpt>
      <trkpt lat="48.39768" lon="2.42239">
        <ele>127.72</ele>
        <time>2024-05-26T23:33:19.815Z</time>
      </trkpt>
      <trkpt lat="48.39732" lon="2.42243">
        <ele>127.6</ele>
        <time>2024-05-26T23:33:28.229Z</time>
      </trkpt>
      <trkpt lat="48.39727" lon="2.42243">
        <ele>127.48</ele>
        <time>2024-05-26T23:33:36.644Z</time>
      </trkpt>
      <trkpt lat="48.39717" lon="2.42243">
        <ele>127.37</ele>
        <time>2024-05-26T23:33:45.061Z</time>
      </trkpt>
      <trkpt lat="48.39707" lon="2.42244">
        <ele>127.26</ele>
        <time>2024-05-26T23:33:53.480Z</time>
      </trkpt>
      <trkpt lat="48.39688" lon="2.42235">
        <ele>127.16</ele>
        <time>2024-05-26T23:34:01.903Z</time>
      </trkpt>
      <trkpt lat="48.3967" lon="2.42233">
        <ele>127.07</ele>
        <time>2024-05-26T23:34:10.329Z</time>
      </trkpt>
      <trkpt lat="48.39657" lon="2.42249">
        <ele>126.98</ele>
        <time>2024-05-26T23:34:18.759Z</time>
      </trkpt>
      <trkpt lat="48.39657" lon="2.42252">
        <ele>126.86</ele>
        <time>2024-05-26T23:34:27.189Z</time>
      </trkpt>
      <trkpt lat="48.39651" lon="2.42263">
        <ele>126.73</ele>
        <time>2024-05-26T23:34:35.621Z</time>
      </trkpt>
      <trkpt lat="48.39656" lon="2.42274">
        <ele>126.59</ele>
        <time>2024-05-26T23:34:44.055Z</time>
      </trkpt>
      <trkpt lat="48.39657" lon="2.42278">
        <ele>126.46</ele>
        <time>2024-05-26T23:34:52.489Z</time>
      </trkpt>
      <trkpt lat="48.39665" lon="2.42287">
        <ele>126.33</ele>
        <time>2024-05-26T23:35:00.925Z</time>
      </trkpt>
      <trkpt lat="48.39667" lon="2.42291">
        <ele>126.21</ele>
        <time>2024-05-26T23:35:09.362Z</time>
      </trkpt>
      <trkpt lat="48.39669" lon="2.42298">
        <ele>126.08</ele>
        <time>2024-05-26T23:35:17.800Z</time>
      </trkpt>
      <trkpt lat="48.39674" lon="2.42355">
        <ele>125.93</ele>
        <time>2024-05-26T23:35:26.246Z</time>
      </trkpt>
      <trkpt lat="48.39682" lon="2.42435">
        <ele>125.86</ele>
        <time>2024-05-26T23:35:34.702Z</time>
      </trkpt>
      <trkpt lat="48.39693" lon="2.42588">
        <ele>125.75</ele>
        <time>2024-05-26T23:35:43.179Z</time>
      </trkpt>
      <trkpt lat="48.39706" lon="2.42795">
        <ele>125.55</ele>
        <time>2024-05-26T23:35:51.684Z</time>
      </trkpt>
      <trkpt lat="48.39706" lon="2.42844">
        <ele>125.4</ele>
        <time>2024-05-26T23:36:00.195Z</time>
      </trkpt>
      <trkpt lat="48.39702" lon="2.4288">
        <ele>125.2</ele>
        <time>2024-05-26T23:36:08.711Z</time>
      </trkpt>
      <trkpt lat="48.397" lon="2.42894">
        <ele>125.05</ele>
        <time>2024-05-26T23:36:17.229Z</time>
      </trkpt>
      <trkpt lat="48.39692" lon="2.42956">
        <ele>124.96</ele>
        <time>2024-05-26T23:36:25.755Z</time>
      </trkpt>
      <trkpt lat="48.3969" lon="2.42966">
        <ele>124.86</ele>
        <time>2024-05-26T23:36:34.283Z</time>
      </trkpt>
      <trkpt lat="48.39673" lon="2.43012">
        <ele>124.75</ele>
        <time>2024-05-26T23:36:42.818Z</time>
      </trkpt>
      <trkpt lat="48.39669" lon="2.43021">
        <ele>124.63</ele>
        <time>2024-05-26T23:36:51.354Z</time>
      </trkpt>
      <trkpt lat="48.39635" lon="2.4309">
        <ele>124.5</ele>
        <time>2024-05-26T23:36:59.902Z</time>
      </trkpt>
      <trkpt lat="48.3961" lon="2.43153">
        <ele>124.28</ele>
        <time>2024-05-26T23:37:08.460Z</time>
      </trkpt>
      <trkpt lat="48.39605" lon="2.43161">
        <ele>124.18</ele>
        <time>2024-05-26T23:37:17.019Z</time>
      </trkpt>
      <trkpt lat="48.39595" lon="2.43167">
        <ele>124.11</ele>
        <time>2024-05-26T23:37:25.580Z</time>
      </trkpt>
      <trkpt lat="48.39577" lon="2.43166">
        <ele>124.08</ele>
        <time>2024-05-26T23:37:34.145Z</time>
      </trkpt>
      <trkpt lat="48.39571" lon="2.43165">
        <ele>124.01</ele>
        <time>2024-05-26T23:37:42.711Z</time>
      </trkpt>
      <trkpt lat="48.39566" lon="2.43162">
        <ele>123.94</ele>
        <time>2024-05-26T23:37:51.278Z</time>
      </trkpt>
      <trkpt lat="48.3956" lon="2.4316">
        <ele>123.86</ele>
        <time>2024-05-26T23:37:59.846Z</time>
      </trkpt>
      <trkpt lat="48.39539" lon="2.43148">
        <ele>123.79</ele>
        <time>2024-05-26T23:38:08.419Z</time>
      </trkpt>
      <trkpt lat="48.39525" lon="2.43139">
        <ele>123.67</ele>
        <time>2024-05-26T23:38:16.995Z</time>
      </trkpt>
      <trkpt lat="48.39505" lon="2.43124">
        <ele>123.5</ele>
        <time>2024-05-26T23:38:25.575Z</time>
      </trkpt>
      <trkpt lat="48.39494" lon="2.43101">
        <ele>123.33</ele>
        <time>2024-05-26T23:38:34.159Z</time>
      </trkpt>
      <trkpt lat="48.39488" lon="2.43082">
        <ele>123.15</ele>
        <time>2024-05-26T23:38:42.746Z</time>
      </trkpt>
      <trkpt lat="48.39481" lon="2.43064">
        <ele>122.97</ele>
        <time>2024-05-26T23:38:51.336Z</time>
      </trkpt>
      <trkpt lat="48.39477" lon="2.43058">
        <ele>122.8</ele>
        <time>2024-05-26T23:38:59.927Z</time>
      </trkpt>
      <trkpt lat="48.39472" lon="2.43056">
        <ele>122.62</ele>
        <time>2024-05-26T23:39:08.519Z</time>
      </trkpt>
      <trkpt lat="48.39467" lon="2.43057">
        <ele>122.44</ele>
        <time>2024-05-26T23:39:17.112Z</time>
      </trkpt>
      <trkpt lat="48.39464" lon="2.4307">
        <ele>122.26</ele>
        <time>2024-05-26T23:39:25.707Z</time>
      </trkpt>
      <trkpt lat="48.39465" lon="2.43096">
        <ele>122.08</ele>
        <time>2024-05-26T23:39:34.305Z</time>
      </trkpt>
      <trkpt lat="48.39466" lon="2.43106">
        <ele>121.87</ele>
        <time>2024-05-26T23:39:42.904Z</time>
      </trkpt>
      <trkpt lat="48.39473" lon="2.43176">
        <ele>121.59</ele>
        <time>2024-05-26T23:39:51.513Z</time>
      </trkpt>
      <trkpt lat="48.39477" lon="2.43206">
        <ele>121.3</ele>
        <time>2024-05-26T23:40:00.126Z</time>
      </trkpt>
      <trkpt lat="48.39477" lon="2.43229">
        <ele>120.97</ele>
        <time>2024-05-26T23:40:08.742Z</time>
      </trkpt>
      <trkpt lat="48.39477" lon="2.4324">
        <ele>120.67</ele>
        <time>2024-05-26T23:40:17.360Z</time>
      </trkpt>
      <trkpt lat="48.39481" lon="2.43295">
        <ele>120.38</ele>
        <time>2024-05-26T23:40:25.985Z</time>
      </trkpt>
      <trkpt lat="48.39483" lon="2.43305">
        <ele>120.06</ele>
        <time>2024-05-26T23:40:34.611Z</time>
      </trkpt>
      <trkpt lat="48.39491" lon="2.43336">
        <ele>119.73</ele>
        <time>2024-05-26T23:40:43.242Z</time>
      </trkpt>
      <trkpt lat="48.39493" lon="2.43347">
        <ele>119.37</ele>
        <time>2024-05-26T23:40:51.874Z</time>
      </trkpt>
      <trkpt lat="48.39505" lon="2.43393">
        <ele>118.94</ele>
        <time>2024-05-26T23:41:00.513Z</time>
      </trkpt>
      <trkpt lat="48.39511" lon="2.43416">
        <ele>118.53</ele>
        <time>2024-05-26T23:41:09.155Z</time>
      </trkpt>
      <trkpt lat="48.39518" lon="2.4344">
        <ele>118.06</ele>
        <time>2024-05-26T23:41:17.801Z</time>
      </trkpt>
      <trkpt lat="48.39527" lon="2.43475">
        <ele>117.58</ele>
        <time>2024-05-26T23:41:26.452Z</time>
      </trkpt>
      <trkpt lat="48.3953" lon="2.43486">
        <ele>117.07</ele>
        <time>2024-05-26T23:41:35.104Z</time>
      </trkpt>
      <trkpt lat="48.39534" lon="2.43498">
        <ele>116.55</ele>
        <time>2024-05-26T23:41:43.758Z</time>
      </trkpt>
      <trkpt lat="48.39549" lon="2.43544">
        <ele>115.98</ele>
        <time>2024-05-26T23:41:52.419Z</time>
      </trkpt>
      <trkpt lat="48.39553" lon="2.43555">
        <ele>115.42</ele>
        <time>2024-05-26T23:42:01.082Z</time>
      </trkpt>
      <trkpt lat="48.39559" lon="2.43566">
        <ele>114.85</ele>
        <time>2024-05-26T23:42:09.746Z</time>
      </trkpt>
      <trkpt lat="48.39564" lon="2.43576">
        <ele>114.25</ele>
        <time>2024-05-26T23:42:18.412Z</time>
      </trkpt>
      <trkpt lat="48.39578" lon="2.43592">
        <ele>113.61</ele>
        <time>2024-05-26T23:42:27.082Z</time>
      </trkpt>
      <trkpt lat="48.3961" lon="2.43614">
        <ele>112.95</ele>
        <time>2024-05-26T23:42:35.759Z</time>
      </trkpt>
      <trkpt lat="48.39639" lon="2.43637">
        <ele>112.33</ele>
        <time>2024-05-26T23:42:44.442Z</time>
      </trkpt>
      <trkpt lat="48.39655" lon="2.43661">
        <ele>111.67</ele>
        <time>2024-05-26T23:42:53.130Z</time>
      </trkpt>
      <trkpt lat="48.3966" lon="2.4367">
        <ele>110.99</ele>
        <time>2024-05-26T23:43:01.819Z</time>
      </trkpt>
      <trkpt lat="48.39671" lon="2.43704">
        <ele>110.24</ele>
        <time>2024-05-26T23:43:10.513Z</time>
      </trkpt>
      <trkpt lat="48.39674" lon="2.43716">
        <ele>109.51</ele>
        <time>2024-05-26T23:43:19.209Z</time>
      </trkpt>
      <trkpt lat="48.39677" lon="2.43742">
        <ele>108.76</ele>
        <time>2024-05-26T23:43:27.909Z</time>
      </trkpt>
      <trkpt lat="48.3968" lon="2.43768">
        <ele>107.97</ele>
        <time>2024-05-26T23:43:36.612Z</time>
      </trkpt>
      <trkpt lat="48.39681" lon="2.43782">
        <ele>107.18</ele>
        <time>2024-05-26T23:43:45.317Z</time>
      </trkpt>
      <trkpt lat="48.39687" lon="2.43834">
        <ele>106.31</ele>
        <time>2024-05-26T23:43:54.029Z</time>
      </trkpt>
      <trkpt lat="48.39688" lon="2.43847">
        <ele>105.53</ele>
        <time>2024-05-26T23:44:02.743Z</time>
      </trkpt>
      <trkpt lat="48.39698" lon="2.43882">
        <ele>104.76</ele>
        <time>2024-05-26T23:44:11.462Z</time>
      </trkpt>
      <trkpt lat="48.39702" lon="2.43893">
        <ele>103.95</ele>
        <time>2024-05-26T23:44:20.182Z</time>
      </trkpt>
      <trkpt lat="48.39712" lon="2.43913">
        <ele>103.1</ele>
        <time>2024-05-26T23:44:28.906Z</time>
      </trkpt>
      <trkpt lat="48.39723" lon="2.43932">
        <ele>102.25</ele>
        <time>2024-05-26T23:44:37.633Z</time>
      </trkpt>
      <trkpt lat="48.39746" lon="2.43972">
        <ele>101.37</ele>
        <time>2024-05-26T23:44:46.367Z</time>
      </trkpt>
      <trkpt lat="48.39757" lon="2.43993">
        <ele>100.47</ele>
        <time>2024-05-26T23:44:55.105Z</time>
      </trkpt>
      <trkpt lat="48.39763" lon="2.44004">
        <ele>99.56</ele>
        <time>2024-05-26T23:45:03.845Z</time>
      </trkpt>
      <trkpt lat="48.39788" lon="2.44043">
        <ele>98.55</ele>
        <time>2024-05-26T23:45:12.592Z</time>
      </trkpt>
      <trkpt lat="48.39797" lon="2.44063">
        <ele>97.58</ele>
        <time>2024-05-26T23:45:21.342Z</time>
      </trkpt>
      <trkpt lat="48.39805" lon="2.44085">
        <ele>96.6</ele>
        <time>2024-05-26T23:45:30.095Z</time>
      </trkpt>
      <trkpt lat="48.39811" lon="2.44108">
        <ele>95.64</ele>
        <time>2024-05-26T23:45:38.852Z</time>
      </trkpt>
      <trkpt lat="48.39813" lon="2.4412">
        <ele>94.69</ele>
        <time>2024-05-26T23:45:47.610Z</time>
      </trkpt>
      <trkpt lat="48.39814" lon="2.44131">
        <ele>93.75</ele>
        <time>2024-05-26T23:45:56.370Z</time>
      </trkpt>
      <trkpt lat="48.39816" lon="2.44143">
        <ele>92.78</ele>
        <time>2024-05-26T23:46:05.131Z</time>
      </trkpt>
      <trkpt lat="48.39822" lon="2.44201">
        <ele>91.76</ele>
        <time>2024-05-26T23:46:13.900Z</time>
      </trkpt>
      <trkpt lat="48.39823" lon="2.44213">
        <ele>90.76</ele>
        <time>2024-05-26T23:46:22.671Z</time>
      </trkpt>
      <trkpt lat="48.39826" lon="2.44238">
        <ele>89.75</ele>
        <time>2024-05-26T23:46:31.445Z</time>
      </trkpt>
      <trkpt lat="48.3983" lon="2.44286">
        <ele>88.74</ele>
        <time>2024-05-26T23:46:40.226Z</time>
      </trkpt>
      <trkpt lat="48.39833" lon="2.4432">
        <ele>87.69</ele>
        <time>2024-05-26T23:46:49.011Z</time>
      </trkpt>
      <trkpt lat="48.39836" lon="2.44344">
        <ele>86.64</ele>
        <time>2024-05-26T23:46:57.800Z</time>
      </trkpt>
      <trkpt lat="48.39839" lon="2.44368">
        <ele>85.59</ele>
        <time>2024-05-26T23:47:06.592Z</time>
      </trkpt>
      <trkpt lat="48.39844" lon="2.44419">
        <ele>84.49</ele>
        <time>2024-05-26T23:47:15.391Z</time>
      </trkpt>
      <trkpt lat="48.39845" lon="2.44432">
        <ele>83.5</ele>
        <time>2024-05-26T23:47:24.191Z</time>
      </trkpt>
      <trkpt lat="48.39847" lon="2.44445">
        <ele>82.53</ele>
        <time>2024-05-26T23:47:32.993Z</time>
      </trkpt>
      <trkpt lat="48.39851" lon="2.4451">
        <ele>81.52</ele>
        <time>2024-05-26T23:47:41.804Z</time>
      </trkpt>
      <trkpt lat="48.39853" lon="2.44536">
        <ele>80.58</ele>
        <time>2024-05-26T23:47:50.618Z</time>
      </trkpt>
      <trkpt lat="48.39859" lon="2.4456">
        <ele>79.62</ele>
        <time>2024-05-26T23:47:59.436Z</time>
      </trkpt>
      <trkpt lat="48.39862" lon="2.44572">
        <ele>78.69</ele>
        <time>2024-05-26T23:48:08.256Z</time>
      </trkpt>
      <trkpt lat="48.39871" lon="2.44594">
        <ele>77.76</ele>
        <time>2024-05-26T23:48:17.079Z</time>
      </trkpt>
      <trkpt lat="48.39886" lon="2.44626">
        <ele>76.85</ele>
        <time>2024-05-26T23:48:25.907Z</time>
      </trkpt>
      <trkpt lat="48.39891" lon="2.44637">
        <ele>75.98</ele>
        <time>2024-05-26T23:48:34.737Z</time>
      </trkpt>
      <trkpt lat="48.39906" lon="2.44665">
        <ele>75.11</ele>
        <time>2024-05-26T23:48:43.572Z</time>
      </trkpt>
      <trkpt lat="48.39916" lon="2.44683">
        <ele>74.3</ele>
        <time>2024-05-26T23:48:52.410Z</time>
      </trkpt>
      <trkpt lat="48.39931" lon="2.44711">
        <ele>73.49</ele>
        <time>2024-05-26T23:49:01.253Z</time>
      </trkpt>
      <trkpt lat="48.39941" lon="2.44731">
        <ele>72.7</ele>
        <time>2024-05-26T23:49:10.099Z</time>
      </trkpt>
      <trkpt lat="48.39952" lon="2.44751">
        <ele>71.95</ele>
        <time>2024-05-26T23:49:18.948Z</time>
      </trkpt>
      <trkpt lat="48.39957" lon="2.44761">
        <ele>71.23</ele>
        <time>2024-05-26T23:49:27.799Z</time>
      </trkpt>
      <trkpt lat="48.39967" lon="2.44782">
        <ele>70.53</ele>
        <time>2024-05-26T23:49:36.654Z</time>
      </trkpt>
      <trkpt lat="48.39986" lon="2.44822">
        <ele>69.82</ele>
        <time>2024-05-26T23:49:45.515Z</time>
      </trkpt>
      <trkpt lat="48.40001" lon="2.44851">
        <ele>69.13</ele>
        <time>2024-05-26T23:49:54.381Z</time>
      </trkpt>
      <trkpt lat="48.40031" lon="2.44919">
        <ele>68.44</ele>
        <time>2024-05-26T23:50:03.258Z</time>
      </trkpt>
      <trkpt lat="48.40041" lon="2.44948">
        <ele>67.94</ele>
        <time>2024-05-26T23:50:12.139Z</time>
      </trkpt>
      <trkpt lat="48.40044" lon="2.44957">
        <ele>67.4</ele>
        <time>2024-05-26T23:50:21.022Z</time>
      </trkpt>
      <trkpt lat="48.40048" lon="2.44966">
        <ele>66.9</ele>
        <time>2024-05-26T23:50:29.906Z</time>
      </trkpt>
      <trkpt lat="48.40074" lon="2.45022">
        <ele>66.4</ele>
        <time>2024-05-26T23:50:38.799Z</time>
      </trkpt>
      <trkpt lat="48.40078" lon="2.45029">
        <ele>65.93</ele>
        <time>2024-05-26T23:50:47.693Z</time>
      </trkpt>
      <trkpt lat="48.40084" lon="2.45051">
        <ele>65.42</ele>
        <time>2024-05-26T23:50:56.590Z</time>
      </trkpt>
      <trkpt lat="48.40085" lon="2.45058">
        <ele>64.99</ele>
        <time>2024-05-26T23:51:05.488Z</time>
      </trkpt>
      <trkpt lat="48.40084" lon="2.45071">
        <ele>64.58</ele>
        <time>2024-05-26T23:51:14.388Z</time>
      </trkpt>
      <trkpt lat="48.40078" lon="2.45083">
        <ele>64.21</ele>
        <time>2024-05-26T23:51:23.290Z</time>
      </trkpt>
      <trkpt lat="48.40075" lon="2.4509">
        <ele>63.89</ele>
        <time>2024-05-26T23:51:32.193Z</time>
      </trkpt>
      <trkpt lat="48.40072" lon="2.45114">
        <ele>63.58</ele>
        <time>2024-05-26T23:51:41.100Z</time>
      </trkpt>
      <trkpt lat="48.4008" lon="2.45137">
        <ele>63.28</ele>
        <time>2024-05-26T23:51:50.010Z</time>
      </trkpt>
      <trkpt lat="48.40094" lon="2.45166">
        <ele>63.02</ele>
        <time>2024-05-26T23:51:58.925Z</time>
      </trkpt>
      <trkpt lat="48.40099" lon="2.45183">
        <ele>62.8</ele>
        <time>2024-05-26T23:52:07.842Z</time>
      </trkpt>
      <trkpt lat="48.40115" lon="2.45247">
        <ele>62.6</ele>
        <time>2024-05-26T23:52:16.768Z</time>
      </trkpt>
      <trkpt lat="48.40116" lon="2.45257">
        <ele>62.44</ele>
        <time>2024-05-26T23:52:25.696Z</time>
      </trkpt>
      <trkpt lat="48.40119" lon="2.45292">
        <ele>62.33</ele>
        <time>2024-05-26T23:52:34.628Z</time>
      </trkpt>
      <trkpt lat="48.40118" lon="2.453">
        <ele>62.23</ele>
        <time>2024-05-26T23:52:43.562Z</time>
      </trkpt>
      <trkpt lat="48.40114" lon="2.45341">
        <ele>62.14</ele>
        <time>2024-05-26T23:52:52.501Z</time>
      </trkpt>
      <trkpt lat="48.40112" lon="2.45389">
        <ele>62.04</ele>
        <time>2024-05-26T23:53:01.446Z</time>
      </trkpt>
      <trkpt lat="48.40109" lon="2.45394">
        <ele>61.99</ele>
        <time>2024-05-26T23:53:10.392Z</time>
      </trkpt>
      <trkpt lat="48.40102" lon="2.45397">
        <ele>61.95</ele>
        <time>2024-05-26T23:53:19.340Z</time>
      </trkpt>
      <trkpt lat="48.40097" lon="2.45396">
        <ele>61.94</ele>
        <time>2024-05-26T23:53:28.289Z</time>
      </trkpt>
      <trkpt lat="48.40093" lon="2.45395">
        <ele>61.94</ele>
        <time>2024-05-26T23:53:37.239Z</time>
      </trkpt>
      <trkpt lat="48.40066" lon="2.45392">
        <ele>61.96</ele>
        <time>2024-05-26T23:53:46.194Z</time>
      </trkpt>
      <trkpt lat="48.40055" lon="2.45389">
        <ele>62</ele>
        <time>2024-05-26T23:53:55.151Z</time>
      </trkpt>
      <trkpt lat="48.40047" lon="2.45387">
        <ele>62.06</ele>
        <time>2024-05-26T23:54:04.110Z</time>
      </trkpt>
      <trkpt lat="48.40039" lon="2.45386">
        <ele>62.13</ele>
        <time>2024-05-26T23:54:13.070Z</time>
      </trkpt>
      <trkpt lat="48.4003" lon="2.45384">
        <ele>62.21</ele>
        <time>2024-05-26T23:54:22.032Z</time>
      </trkpt>
      <trkpt lat="48.40029" lon="2.45383">
        <ele>62.31</ele>
        <time>2024-05-26T23:54:30.995Z</time>
      </trkpt>
      <trkpt lat="48.40029" lon="2.45383">
        <ele>62.41</ele>
        <time>2024-05-26T23:54:39.958Z</time>
      </trkpt>
      <trkpt lat="48.40029" lon="2.45383">
        <ele>62.53</ele>
        <time>2024-05-26T23:54:48.921Z</time>
      </trkpt>
      <trkpt lat="48.40029" lon="2.45384">
        <ele>62.66</ele>
        <time>2024-05-26T23:54:57.884Z</time>
      </trkpt>
      <trkpt lat="48.40029" lon="2.45385">
        <ele>62.8</ele>
        <time>2024-05-26T23:55:06.847Z</time>
      </trkpt>
      <trkpt lat="48.40029" lon="2.45387">
        <ele>62.95</ele>
        <time>2024-05-26T23:55:15.810Z</time>
      </trkpt>
      <trkpt lat="48.40029" lon="2.45389">
        <ele>63.11</ele>
        <time>2024-05-26T23:55:24.773Z</time>
      </trkpt>
      <trkpt lat="48.40026" lon="2.45391">
        <ele>63.29</ele>
        <time>2024-05-26T23:55:33.737Z</time>
      </trkpt>
      <trkpt lat="48.4002" lon="2.45389">
        <ele>63.47</ele>
        <time>2024-05-26T23:55:42.702Z</time>
      </trkpt>
      <trkpt lat="48.40017" lon="2.45388">
        <ele>63.65</ele>
        <time>2024-05-26T23:55:51.668Z</time>
      </trkpt>
      <trkpt lat="48.39999" lon="2.45386">
        <ele>63.87</ele>
        <time>2024-05-26T23:56:00.638Z</time>
      </trkpt>
      <trkpt lat="48.39968" lon="2.45384">
        <ele>64.09</ele>
        <time>2024-05-26T23:56:09.614Z</time>
      </trkpt>
      <trkpt lat="48.3995" lon="2.45387">
        <ele>64.31</ele>
        <time>2024-05-26T23:56:18.593Z</time>
      </trkpt>
      <trkpt lat="48.39946" lon="2.45389">
        <ele>64.53</ele>
        <time>2024-05-26T23:56:27.573Z</time>
      </trkpt>
      <trkpt lat="48.39942" lon="2.45391">
        <ele>64.75</ele>
        <time>2024-05-26T23:56:36.554Z</time>
      </trkpt>
      <trkpt lat="48.39925" lon="2.45398">
        <ele>65</ele>
        <time>2024-05-26T23:56:45.539Z</time>
      </trkpt>
      <trkpt lat="48.39916" lon="2.454">
        <ele>65.23</ele>
        <time>2024-05-26T23:56:54.525Z</time>
      </trkpt>
      <trkpt lat="48.39885" lon="2.45409">
        <ele>65.45</ele>
        <time>2024-05-26T23:57:03.518Z</time>
      </trkpt>
      <trkpt lat="48.39867" lon="2.45413">
        <ele>65.71</ele>
        <time>2024-05-26T23:57:12.514Z</time>
      </trkpt>
      <trkpt lat="48.39853" lon="2.45416">
        <ele>65.97</ele>
        <time>2024-05-26T23:57:21.513Z</time>
      </trkpt>
      <trkpt lat="48.39839" lon="2.45418">
        <ele>66.24</ele>
        <time>2024-05-26T23:57:30.515Z</time>
      </trkpt>
      <trkpt lat="48.39821" lon="2.4542">
        <ele>66.49</ele>
        <time>2024-05-26T23:57:39.521Z</time>
      </trkpt>
      <trkpt lat="48.3979" lon="2.45426">
        <ele>66.75</ele>
        <time>2024-05-26T23:57:48.533Z</time>
      </trkpt>
      <trkpt lat="48.3974" lon="2.45441">
        <ele>66.99</ele>
        <time>2024-05-26T23:57:57.555Z</time>
      </trkpt>
      <trkpt lat="48.39711" lon="2.45451">
        <ele>67.3</ele>
        <time>2024-05-26T23:58:06.583Z</time>
      </trkpt>
      <trkpt lat="48.3969" lon="2.45455">
        <ele>67.68</ele>
        <time>2024-05-26T23:58:15.615Z</time>
      </trkpt>
      <trkpt lat="48.39648" lon="2.45462">
        <ele>68.08</ele>
        <time>2024-05-26T23:58:24.656Z</time>
      </trkpt>
      <trkpt lat="48.39634" lon="2.4546">
        <ele>68.45</ele>
        <time>2024-05-26T23:58:33.700Z</time>
      </trkpt>
      <trkpt lat="48.39625" lon="2.45457">
        <ele>68.81</ele>
        <time>2024-05-26T23:58:42.745Z</time>
      </trkpt>
      <trkpt lat="48.39616" lon="2.45455">
        <ele>69.18</ele>
        <time>2024-05-26T23:58:51.792Z</time>
      </trkpt>
      <trkpt lat="48.39612" lon="2.45453">
        <ele>69.56</ele>
        <time>2024-05-26T23:59:00.840Z</time>
      </trkpt>
      <trkpt lat="48.39599" lon="2.45448">
        <ele>69.97</ele>
        <time>2024-05-26T23:59:09.891Z</time>
      </trkpt>
      <trkpt lat="48.39567" lon="2.45437">
        <ele>70.4</ele>
        <time>2024-05-26T23:59:18.948Z</time>
      </trkpt>
      <trkpt lat="48.39541" lon="2.45425">
        <ele>70.81</ele>
        <time>2024-05-26T23:59:28.011Z</time>
      </trkpt>
      <trkpt lat="48.39513" lon="2.45414">
        <ele>71.26</ele>
        <time>2024-05-26T23:59:37.079Z</time>
      </trkpt>
      <trkpt lat="48.39505" lon="2.45413">
        <ele>71.7</ele>
        <time>2024-05-26T23:59:46.149Z</time>
      </trkpt>
      <trkpt lat="48.39494" lon="2.45421">
        <ele>72.18</ele>
        <time>2024-05-26T23:59:55.222Z</time>
      </trkpt>
      <trkpt lat="48.39493" lon="2.45443">
        <ele>72.65</ele>
        <time>2024-05-27T00:00:04.298Z</time>
      </trkpt>
      <trkpt lat="48.39498" lon="2.45464">
        <ele>73.08</ele>
        <time>2024-05-27T00:00:13.377Z</time>
      </trkpt>
      <trkpt lat="48.39499" lon="2.45472">
        <ele>73.53</ele>
        <time>2024-05-27T00:00:22.457Z</time>
      </trkpt>
      <trkpt lat="48.395" lon="2.45479">
        <ele>73.99</ele>
        <time>2024-05-27T00:00:31.537Z</time>
      </trkpt>
      <trkpt lat="48.39507" lon="2.45516">
        <ele>74.49</ele>
        <time>2024-05-27T00:00:40.623Z</time>
      </trkpt>
      <trkpt lat="48.3951" lon="2.45529">
        <ele>74.96</ele>
        <time>2024-05-27T00:00:49.711Z</time>
      </trkpt>
      <trkpt lat="48.39514" lon="2.4555">
        <ele>75.45</ele>
        <time>2024-05-27T00:00:58.801Z</time>
      </trkpt>
      <trkpt lat="48.39516" lon="2.45557">
        <ele>75.91</ele>
        <time>2024-05-27T00:01:07.892Z</time>
      </trkpt>
      <trkpt lat="48.39529" lon="2.45588">
        <ele>76.36</ele>
        <time>2024-05-27T00:01:16.988Z</time>
      </trkpt>
      <trkpt lat="48.39547" lon="2.45628">
        <ele>76.82</ele>
        <time>2024-05-27T00:01:26.091Z</time>
      </trkpt>
      <trkpt lat="48.39562" lon="2.45663">
        <ele>77.27</ele>
        <time>2024-05-27T00:01:35.199Z</time>
      </trkpt>
      <trkpt lat="48.3957" lon="2.45681">
        <ele>77.69</ele>
        <time>2024-05-27T00:01:44.310Z</time>
      </trkpt>
      <trkpt lat="48.39569" lon="2.45692">
        <ele>78.15</ele>
        <time>2024-05-27T00:01:53.423Z</time>
      </trkpt>
      <trkpt lat="48.39564" lon="2.457">
        <ele>78.6</ele>
        <time>2024-05-27T00:02:02.537Z</time>
      </trkpt>
      <trkpt lat="48.39562" lon="2.45702">
        <ele>79.04</ele>
        <time>2024-05-27T00:02:11.652Z</time>
      </trkpt>
      <trkpt lat="48.39555" lon="2.4571">
        <ele>79.5</ele>
        <time>2024-05-27T00:02:20.768Z</time>
      </trkpt>
      <trkpt lat="48.39553" lon="2.45712">
        <ele>79.93</ele>
        <time>2024-05-27T00:02:29.885Z</time>
      </trkpt>
      <trkpt lat="48.3955" lon="2.45714">
        <ele>80.34</ele>
        <time>2024-05-27T00:02:39.002Z</time>
      </trkpt>
      <trkpt lat="48.39544" lon="2.45717">
        <ele>80.75</ele>
        <time>2024-05-27T00:02:48.121Z</time>
      </trkpt>
      <trkpt lat="48.3954" lon="2.4572">
        <ele>81.15</ele>
        <time>2024-05-27T00:02:57.241Z</time>
      </trkpt>
      <trkpt lat="48.39532" lon="2.45726">
        <ele>81.54</ele>
        <time>2024-05-27T00:03:06.362Z</time>
      </trkpt>
      <trkpt lat="48.39526" lon="2.45732">
        <ele>81.91</ele>
        <time>2024-05-27T00:03:15.485Z</time>
      </trkpt>
      <trkpt lat="48.39524" lon="2.45734">
        <ele>82.25</ele>
        <time>2024-05-27T00:03:24.608Z</time>
      </trkpt>
      <trkpt lat="48.39511" lon="2.45741">
        <ele>82.6</ele>
        <time>2024-05-27T00:03:33.734Z</time>
      </trkpt>
      <trkpt lat="48.39507" lon="2.45744">
        <ele>82.91</ele>
        <time>2024-05-27T00:03:42.861Z</time>
      </trkpt>
      <trkpt lat="48.39495" lon="2.45749">
        <ele>83.22</ele>
        <time>2024-05-27T00:03:51.991Z</time>
      </trkpt>
      <trkpt lat="48.39489" lon="2.45753">
        <ele>83.5</ele>
        <time>2024-05-27T00:04:01.122Z</time>
      </trkpt>
      <trkpt lat="48.39481" lon="2.45757">
        <ele>83.76</ele>
        <time>2024-05-27T00:04:10.254Z</time>
      </trkpt>
      <trkpt lat="48.39474" lon="2.45763">
        <ele>84</ele>
        <time>2024-05-27T00:04:19.388Z</time>
      </trkpt>
      <trkpt lat="48.39469" lon="2.45773">
        <ele>84.22</ele>
        <time>2024-05-27T00:04:28.524Z</time>
      </trkpt>
      <trkpt lat="48.39467" lon="2.45776">
        <ele>84.41</ele>
        <time>2024-05-27T00:04:37.660Z</time>
      </trkpt>
      <trkpt lat="48.3946" lon="2.45792">
        <ele>84.6</ele>
        <time>2024-05-27T00:04:46.799Z</time>
      </trkpt>
      <trkpt lat="48.3946" lon="2.45795">
        <ele>84.75</ele>
        <time>2024-05-27T00:04:55.938Z</time>
      </trkpt>
      <trkpt lat="48.39465" lon="2.45801">
        <ele>84.86</ele>
        <time>2024-05-27T00:05:05.078Z</time>
      </trkpt>
      <trkpt lat="48.39468" lon="2.45804">
        <ele>84.96</ele>
        <time>2024-05-27T00:05:14.219Z</time>
      </trkpt>
      <trkpt lat="48.39476" lon="2.45816">
        <ele>85.01</ele>
        <time>2024-05-27T00:05:23.362Z</time>
      </trkpt>
      <trkpt lat="48.39478" lon="2.45834">
        <ele>85.05</ele>
        <time>2024-05-27T00:05:32.508Z</time>
      </trkpt>
      <trkpt lat="48.39481" lon="2.45851">
        <ele>85.07</ele>
        <time>2024-05-27T00:05:41.656Z</time>
      </trkpt>
      <trkpt lat="48.39484" lon="2.45867">
        <ele>85.09</ele>
        <time>2024-05-27T00:05:50.807Z</time>
      </trkpt>
      <trkpt lat="48.39484" lon="2.45885">
        <ele>85.14</ele>
        <time>2024-05-27T00:05:59.960Z</time>
      </trkpt>
      <trkpt lat="48.39482" lon="2.45893">
        <ele>85.17</ele>
        <time>2024-05-27T00:06:09.114Z</time>
      </trkpt>
      <trkpt lat="48.3948" lon="2.4591">
        <ele>85.2</ele>
        <time>2024-05-27T00:06:18.270Z</time>
      </trkpt>
      <trkpt lat="48.3948" lon="2.45918">
        <ele>85.21</ele>
        <time>2024-05-27T00:06:27.427Z</time>
      </trkpt>
      <trkpt lat="48.39481" lon="2.45927">
        <ele>85.22</ele>
        <time>2024-05-27T00:06:36.585Z</time>
      </trkpt>
      <trkpt lat="48.39482" lon="2.45934">
        <ele>85.2</ele>
        <time>2024-05-27T00:06:45.744Z</time>
      </trkpt>
      <trkpt lat="48.39482" lon="2.45942">
        <ele>85.19</ele>
        <time>2024-05-27T00:06:54.905Z</time>
      </trkpt>
      <trkpt lat="48.39481" lon="2.4595">
        <ele>85.18</ele>
        <time>2024-05-27T00:07:04.067Z</time>
      </trkpt>
      <trkpt lat="48.39473" lon="2.45975">
        <ele>85.21</ele>
        <time>2024-05-27T00:07:13.232Z</time>
      </trkpt>
      <trkpt lat="48.39467" lon="2.45984">
        <ele>85.22</ele>
        <time>2024-05-27T00:07:22.399Z</time>
      </trkpt>
      <trkpt lat="48.39461" lon="2.4599">
        <ele>85.23</ele>
        <time>2024-05-27T00:07:31.567Z</time>
      </trkpt>
      <trkpt lat="48.39452" lon="2.46003">
        <ele>85.25</ele>
        <time>2024-05-27T00:07:40.738Z</time>
      </trkpt>
      <trkpt lat="48.39443" lon="2.46021">
        <ele>85.22</ele>
        <time>2024-05-27T00:07:49.912Z</time>
      </trkpt>
      <trkpt lat="48.39439" lon="2.46028">
        <ele>85.17</ele>
        <time>2024-05-27T00:07:59.087Z</time>
      </trkpt>
      <trkpt lat="48.39427" lon="2.46041">
        <ele>85.13</ele>
        <time>2024-05-27T00:08:08.265Z</time>
      </trkpt>
      <trkpt lat="48.39415" lon="2.46038">
        <ele>85.09</ele>
        <time>2024-05-27T00:08:17.446Z</time>
      </trkpt>
      <trkpt lat="48.39399" lon="2.46034">
        <ele>85.06</ele>
        <time>2024-05-27T00:08:26.630Z</time>
      </trkpt>
      <trkpt lat="48.39397" lon="2.46034">
        <ele>85.02</ele>
        <time>2024-05-27T00:08:35.814Z</time>
      </trkpt>
      <trkpt lat="48.39382" lon="2.46027">
        <ele>85.01</ele>
        <time>2024-05-27T00:08:45.001Z</time>
      </trkpt>
      <trkpt lat="48.3938" lon="2.46026">
        <ele>84.97</ele>
        <time>2024-05-27T00:08:54.189Z</time>
      </trkpt>
      <trkpt lat="48.39373" lon="2.46026">
        <ele>84.94</ele>
        <time>2024-05-27T00:09:03.378Z</time>
      </trkpt>
      <trkpt lat="48.39371" lon="2.46028">
        <ele>84.89</ele>
        <time>2024-05-27T00:09:12.568Z</time>
      </trkpt>
      <trkpt lat="48.39368" lon="2.46036">
        <ele>84.84</ele>
        <time>2024-05-27T00:09:21.759Z</time>
      </trkpt>
      <trkpt lat="48.39366" lon="2.46044">
        <ele>84.79</ele>
        <time>2024-05-27T00:09:30.951Z</time>
      </trkpt>
      <trkpt lat="48.39356" lon="2.46071">
        <ele>84.7</ele>
        <time>2024-05-27T00:09:40.147Z</time>
      </trkpt>
      <trkpt lat="48.39355" lon="2.46075">
        <ele>84.65</ele>
        <time>2024-05-27T00:09:49.344Z</time>
      </trkpt>
      <trkpt lat="48.39353" lon="2.46085">
        <ele>84.58</ele>
        <time>2024-05-27T00:09:58.542Z</time>
      </trkpt>
      <trkpt lat="48.39344" lon="2.46102">
        <ele>84.47</ele>
        <time>2024-05-27T00:10:07.743Z</time>
      </trkpt>
      <trkpt lat="48.39338" lon="2.46111">
        <ele>84.41</ele>
        <time>2024-05-27T00:10:16.946Z</time>
      </trkpt>
      <trkpt lat="48.39318" lon="2.46124">
        <ele>84.39</ele>
        <time>2024-05-27T00:10:26.153Z</time>
      </trkpt>
      <trkpt lat="48.3931" lon="2.46129">
        <ele>84.38</ele>
        <time>2024-05-27T00:10:35.362Z</time>
      </trkpt>
      <trkpt lat="48.39308" lon="2.46133">
        <ele>84.36</ele>
        <time>2024-05-27T00:10:44.572Z</time>
      </trkpt>
      <trkpt lat="48.39305" lon="2.46138">
        <ele>84.36</ele>
        <time>2024-05-27T00:10:53.782Z</time>
      </trkpt>
      <trkpt lat="48.39295" lon="2.46142">
        <ele>84.36</ele>
        <time>2024-05-27T00:11:02.994Z</time>
      </trkpt>
      <trkpt lat="48.39292" lon="2.46139">
        <ele>84.38</ele>
        <time>2024-05-27T00:11:12.207Z</time>
      </trkpt>
      <trkpt lat="48.3929" lon="2.46135">
        <ele>84.41</ele>
        <time>2024-05-27T00:11:21.421Z</time>
      </trkpt>
      <trkpt lat="48.39289" lon="2.46133">
        <ele>84.44</ele>
        <time>2024-05-27T00:11:30.635Z</time>
      </trkpt>
      <trkpt lat="48.39287" lon="2.46128">
        <ele>84.48</ele>
        <time>2024-05-27T00:11:39.850Z</time>
      </trkpt>
      <trkpt lat="48.39285" lon="2.46123">
        <ele>84.53</ele>
        <time>2024-05-27T00:11:49.066Z</time>
      </trkpt>
      <trkpt lat="48.39283" lon="2.46116">
        <ele>84.59</ele>
        <time>2024-05-27T00:11:58.283Z</time>
      </trkpt>
      <trkpt lat="48.39281" lon="2.46107">
        <ele>84.66</ele>
        <time>2024-05-27T00:12:07.501Z</time>
      </trkpt>
      <trkpt lat="48.39279" lon="2.46106">
        <ele>84.73</ele>
        <time>2024-05-27T00:12:16.719Z</time>
      </trkpt>
      <trkpt lat="48.39277" lon="2.46104">
        <ele>84.8</ele>
        <time>2024-05-27T00:12:25.938Z</time>
      </trkpt>
      <trkpt lat="48.39275" lon="2.46103">
        <ele>84.88</ele>
        <time>2024-05-27T00:12:35.157Z</time>
      </trkpt>
      <trkpt lat="48.39273" lon="2.46101">
        <ele>84.97</ele>
        <time>2024-05-27T00:12:44.377Z</time>
      </trkpt>
      <trkpt lat="48.39269" lon="2.46101">
        <ele>85.06</ele>
        <time>2024-05-27T00:12:53.598Z</time>
      </trkpt>
      <trkpt lat="48.3926" lon="2.46093">
        <ele>85.16</ele>
        <time>2024-05-27T00:13:02.821Z</time>
      </trkpt>
      <trkpt lat="48.3926" lon="2.46091">
        <ele>85.27</ele>
        <time>2024-05-27T00:13:12.044Z</time>
      </trkpt>
      <trkpt lat="48.39261" lon="2.46084">
        <ele>85.38</ele>
        <time>2024-05-27T00:13:21.268Z</time>
      </trkpt>
      <trkpt lat="48.39263" lon="2.46075">
        <ele>85.5</ele>
        <time>2024-05-27T00:13:30.493Z</time>
      </trkpt>
      <trkpt lat="48.39264" lon="2.46065">
        <ele>85.64</ele>
        <time>2024-05-27T00:13:39.719Z</time>
      </trkpt>
      <trkpt lat="48.39272" lon="2.46053">
        <ele>85.8</ele>
        <time>2024-05-27T00:13:48.948Z</time>
      </trkpt>
      <trkpt lat="48.3928" lon="2.46047">
        <ele>85.91</ele>
        <time>2024-05-27T00:13:58.179Z</time>
      </trkpt>
      <trkpt lat="48.39283" lon="2.46043">
        <ele>86.03</ele>
        <time>2024-05-27T00:14:07.410Z</time>
      </trkpt>
      <trkpt lat="48.39284" lon="2.46038">
        <ele>86.15</ele>
        <time>2024-05-27T00:14:16.642Z</time>
      </trkpt>
      <trkpt lat="48.39284" lon="2.46035">
        <ele>86.28</ele>
        <time>2024-05-27T00:14:25.874Z</time>
      </trkpt>
      <trkpt lat="48.39285" lon="2.46029">
        <ele>86.42</ele>
        <time>2024-05-27T00:14:35.107Z</time>
      </trkpt>
      <trkpt lat="48.39288" lon="2.46025">
        <ele>86.55</ele>
        <time>2024-05-27T00:14:44.341Z</time>
      </trkpt>
      <trkpt lat="48.39289" lon="2.46023">
        <ele>86.69</ele>
        <time>2024-05-27T00:14:53.575Z</time>
      </trkpt>
      <trkpt lat="48.3929" lon="2.46023">
        <ele>86.82</ele>
        <time>2024-05-27T00:15:02.810Z</time>
      </trkpt>
      <trkpt lat="48.39292" lon="2.46026">
        <ele>86.96</ele>
        <time>2024-05-27T00:15:12.045Z</time>
      </trkpt>
      <trkpt lat="48.39293" lon="2.46029">
        <ele>87.09</ele>
        <time>2024-05-27T00:15:21.281Z</time>
      </trkpt>
      <trkpt lat="48.39293" lon="2.46031">
        <ele>87.23</ele>
        <time>2024-05-27T00:15:30.517Z</time>
      </trkpt>
      <trkpt lat="48.39293" lon="2.46039">
        <ele>87.36</ele>
        <time>2024-05-27T00:15:39.754Z</time>
      </trkpt>
      <trkpt lat="48.393" lon="2.46046">
        <ele>87.5</ele>
        <time>2024-05-27T00:15:48.993Z</time>
      </trkpt>
      <trkpt lat="48.3931" lon="2.46043">
        <ele>87.66</ele>
        <time>2024-05-27T00:15:58.234Z</time>
      </trkpt>
      <trkpt lat="48.39314" lon="2.46043">
        <ele>87.81</ele>
        <time>2024-05-27T00:16:07.475Z</time>
      </trkpt>
      <trkpt lat="48.3932" lon="2.46037">
        <ele>87.97</ele>
        <time>2024-05-27T00:16:16.718Z</time>
      </trkpt>
      <trkpt lat="48.39323" lon="2.46034">
        <ele>88.12</ele>
        <time>2024-05-27T00:16:25.962Z</time>
      </trkpt>
      <trkpt lat="48.39325" lon="2.46031">
        <ele>88.28</ele>
        <time>2024-05-27T00:16:35.206Z</time>
      </trkpt>
      <trkpt lat="48.39329" lon="2.46024">
        <ele>88.43</ele>
        <time>2024-05-27T00:16:44.451Z</time>
      </trkpt>
      <trkpt lat="48.39333" lon="2.46012">
        <ele>88.58</ele>
        <time>2024-05-27T00:16:53.698Z</time>
      </trkpt>
      <trkpt lat="48.39333" lon="2.4599">
        <ele>88.71</ele>
        <time>2024-05-27T00:17:02.948Z</time>
      </trkpt>
      <trkpt lat="48.39338" lon="2.45979">
        <ele>88.86</ele>
        <time>2024-05-27T00:17:12.200Z</time>
      </trkpt>
      <trkpt lat="48.39344" lon="2.45977">
        <ele>89.05</ele>
        <time>2024-05-27T00:17:21.453Z</time>
      </trkpt>
      <trkpt lat="48.3935" lon="2.45976">
        <ele>89.24</ele>
        <time>2024-05-27T00:17:30.707Z</time>
      </trkpt>
      <trkpt lat="48.39352" lon="2.45974">
        <ele>89.42</ele>
        <time>2024-05-27T00:17:39.962Z</time>
      </trkpt>
      <trkpt lat="48.39353" lon="2.45965">
        <ele>89.61</ele>
        <time>2024-05-27T00:17:49.218Z</time>
      </trkpt>
      <trkpt lat="48.39352" lon="2.45947">
        <ele>89.81</ele>
        <time>2024-05-27T00:17:58.476Z</time>
      </trkpt>
      <trkpt lat="48.39355" lon="2.4594">
        <ele>90</ele>
        <time>2024-05-27T00:18:07.735Z</time>
      </trkpt>
      <trkpt lat="48.39361" lon="2.4593">
        <ele>90.17</ele>
        <time>2024-05-27T00:18:16.996Z</time>
      </trkpt>
      <trkpt lat="48.39373" lon="2.45926">
        <ele>90.36</ele>
        <time>2024-05-27T00:18:26.260Z</time>
      </trkpt>
      <trkpt lat="48.39376" lon="2.45927">
        <ele>90.53</ele>
        <time>2024-05-27T00:18:35.524Z</time>
      </trkpt>
      <trkpt lat="48.39384" lon="2.45931">
        <ele>90.72</ele>
        <time>2024-05-27T00:18:44.790Z</time>
      </trkpt>
      <trkpt lat="48.39388" lon="2.45936">
        <ele>90.88</ele>
        <time>2024-05-27T00:18:54.057Z</time>
      </trkpt>
      <trkpt lat="48.39391" lon="2.45937">
        <ele>91.03</ele>
        <time>2024-05-27T00:19:03.325Z</time>
      </trkpt>
      <trkpt lat="48.39393" lon="2.45934">
        <ele>91.19</ele>
        <time>2024-05-27T00:19:12.593Z</time>
      </trkpt>
      <trkpt lat="48.39395" lon="2.45933">
        <ele>91.34</ele>
        <time>2024-05-27T00:19:21.862Z</time>
      </trkpt>
      <trkpt lat="48.39399" lon="2.45927">
        <ele>91.48</ele>
        <time>2024-05-27T00:19:31.132Z</time>
      </trkpt>
      <trkpt lat="48.39401" lon="2.45926">
        <ele>91.62</ele>
        <time>2024-05-27T00:19:40.402Z</time>
      </trkpt>
      <trkpt lat="48.39402" lon="2.45923">
        <ele>91.75</ele>
        <time>2024-05-27T00:19:49.672Z</time>
      </trkpt>
      <trkpt lat="48.39405" lon="2.45914">
        <ele>91.87</ele>
        <time>2024-05-27T00:19:58.944Z</time>
      </trkpt>
      <trkpt lat="48.39406" lon="2.45914">
        <ele>91.98</ele>
        <time>2024-05-27T00:20:08.216Z</time>
      </trkpt>
      <trkpt lat="48.39409" lon="2.45917">
        <ele>92.08</ele>
        <time>2024-05-27T00:20:17.489Z</time>
      </trkpt>
      <trkpt lat="48.3941" lon="2.45919">
        <ele>92.16</ele>
        <time>2024-05-27T00:20:26.762Z</time>
      </trkpt>
      <trkpt lat="48.39412" lon="2.45925">
        <ele>92.23</ele>
        <time>2024-05-27T00:20:36.036Z</time>
      </trkpt>
      <trkpt lat="48.39415" lon="2.45924">
        <ele>92.29</ele>
        <time>2024-05-27T00:20:45.310Z</time>
      </trkpt>
      <trkpt lat="48.39421" lon="2.45911">
        <ele>92.34</ele>
        <time>2024-05-27T00:20:54.587Z</time>
      </trkpt>
      <trkpt lat="48.39425" lon="2.45896">
        <ele>92.38</ele>
        <time>2024-05-27T00:21:03.866Z</time>
      </trkpt>
      <trkpt lat="48.39426" lon="2.4589">
        <ele>92.41</ele>
        <time>2024-05-27T00:21:13.145Z</time>
      </trkpt>
      <trkpt lat="48.39424" lon="2.45889">
        <ele>92.43</ele>
        <time>2024-05-27T00:21:22.425Z</time>
      </trkpt>
      <trkpt lat="48.39419" lon="2.45893">
        <ele>92.44</ele>
        <time>2024-05-27T00:21:31.706Z</time>
      </trkpt>
      <trkpt lat="48.39418" lon="2.45893">
        <ele>92.43</ele>
        <time>2024-05-27T00:21:40.987Z</time>
      </trkpt>
      <trkpt lat="48.39416" lon="2.45893">
        <ele>92.4</ele>
        <time>2024-05-27T00:21:50.269Z</time>
      </trkpt>
      <trkpt lat="48.39402" lon="2.45903">
        <ele>92.34</ele>
        <time>2024-05-27T00:21:59.554Z</time>
      </trkpt>
      <trkpt lat="48.39399" lon="2.45903">
        <ele>92.28</ele>
        <time>2024-05-27T00:22:08.839Z</time>
      </trkpt>
      <trkpt lat="48.39397" lon="2.45898">
        <ele>92.2</ele>
        <time>2024-05-27T00:22:18.125Z</time>
      </trkpt>
      <trkpt lat="48.39401" lon="2.45886">
        <ele>92.12</ele>
        <time>2024-05-27T00:22:27.413Z</time>
      </trkpt>
      <trkpt lat="48.39401" lon="2.45879">
        <ele>92</ele>
        <time>2024-05-27T00:22:36.702Z</time>
      </trkpt>
      <trkpt lat="48.39401" lon="2.45872">
        <ele>91.86</ele>
        <time>2024-05-27T00:22:45.992Z</time>
      </trkpt>
      <trkpt lat="48.39401" lon="2.45865">
        <ele>91.71</ele>
        <time>2024-05-27T00:22:55.283Z</time>
      </trkpt>
      <trkpt lat="48.39403" lon="2.45849">
        <ele>91.53</ele>
        <time>2024-05-27T00:23:04.576Z</time>
      </trkpt>
      <trkpt lat="48.39407" lon="2.4583">
        <ele>91.35</ele>
        <time>2024-05-27T00:23:13.872Z</time>
      </trkpt>
      <trkpt lat="48.39409" lon="2.45808">
        <ele>91.15</ele>
        <time>2024-05-27T00:23:23.170Z</time>
      </trkpt>
      <trkpt lat="48.3941" lon="2.45804">
        <ele>90.93</ele>
        <time>2024-05-27T00:23:32.469Z</time>
      </trkpt>
      <trkpt lat="48.39411" lon="2.45796">
        <ele>90.68</ele>
        <time>2024-05-27T00:23:41.769Z</time>
      </trkpt>
      <trkpt lat="48.39412" lon="2.45792">
        <ele>90.41</ele>
        <time>2024-05-27T00:23:51.070Z</time>
      </trkpt>
      <trkpt lat="48.39409" lon="2.45787">
        <ele>90.14</ele>
        <time>2024-05-27T00:24:00.372Z</time>
      </trkpt>
      <trkpt lat="48.39407" lon="2.45787">
        <ele>89.86</ele>
        <time>2024-05-27T00:24:09.674Z</time>
      </trkpt>
      <trkpt lat="48.39405" lon="2.45788">
        <ele>89.57</ele>
        <time>2024-05-27T00:24:18.976Z</time>
      </trkpt>
      <trkpt lat="48.39399" lon="2.45784">
        <ele>89.25</ele>
        <time>2024-05-27T00:24:28.280Z</time>
      </trkpt>
      <trkpt lat="48.3939" lon="2.45773">
        <ele>88.91</ele>
        <time>2024-05-27T00:24:37.586Z</time>
      </trkpt>
      <trkpt lat="48.39382" lon="2.45769">
        <ele>88.58</ele>
        <time>2024-05-27T00:24:46.894Z</time>
      </trkpt>
      <trkpt lat="48.39373" lon="2.45768">
        <ele>88.24</ele>
        <time>2024-05-27T00:24:56.204Z</time>
      </trkpt>
      <trkpt lat="48.3937" lon="2.45764">
        <ele>87.89</ele>
        <time>2024-05-27T00:25:05.514Z</time>
      </trkpt>
      <trkpt lat="48.39369" lon="2.45756">
        <ele>87.53</ele>
        <time>2024-05-27T00:25:14.825Z</time>
      </trkpt>
      <trkpt lat="48.39373" lon="2.45748">
        <ele>87.18</ele>
        <time>2024-05-27T00:25:24.138Z</time>
      </trkpt>
      <trkpt lat="48.39379" lon="2.45739">
        <ele>86.81</ele>
        <time>2024-05-27T00:25:33.452Z</time>
      </trkpt>
      <trkpt lat="48.39382" lon="2.45735">
        <ele>86.46</ele>
        <time>2024-05-27T00:25:42.767Z</time>
      </trkpt>
      <trkpt lat="48.39394" lon="2.45722">
        <ele>86.08</ele>
        <time>2024-05-27T00:25:52.085Z</time>
      </trkpt>
      <trkpt lat="48.39402" lon="2.45712">
        <ele>85.71</ele>
        <time>2024-05-27T00:26:01.405Z</time>
      </trkpt>
      <trkpt lat="48.39406" lon="2.45708">
        <ele>85.36</ele>
        <time>2024-05-27T00:26:10.726Z</time>
      </trkpt>
      <trkpt lat="48.39423" lon="2.45699">
        <ele>85.01</ele>
        <time>2024-05-27T00:26:20.051Z</time>
      </trkpt>
      <trkpt lat="48.39433" lon="2.45689">
        <ele>84.68</ele>
        <time>2024-05-27T00:26:29.378Z</time>
      </trkpt>
      <trkpt lat="48.39441" lon="2.45662">
        <ele>84.31</ele>
        <time>2024-05-27T00:26:38.709Z</time>
      </trkpt>
      <trkpt lat="48.39451" lon="2.45636">
        <ele>83.98</ele>
        <time>2024-05-27T00:26:48.044Z</time>
      </trkpt>
      <trkpt lat="48.39457" lon="2.45604">
        <ele>83.64</ele>
        <time>2024-05-27T00:26:57.384Z</time>
      </trkpt>
      <trkpt lat="48.39457" lon="2.45599">
        <ele>83.36</ele>
        <time>2024-05-27T00:27:06.724Z</time>
      </trkpt>
      <trkpt lat="48.39461" lon="2.4559">
        <ele>83.09</ele>
        <time>2024-05-27T00:27:16.066Z</time>
      </trkpt>
      <trkpt lat="48.39464" lon="2.45568">
        <ele>82.81</ele>
        <time>2024-05-27T00:27:25.411Z</time>
      </trkpt>
      <trkpt lat="48.3946" lon="2.45558">
        <ele>82.58</ele>
        <time>2024-05-27T00:27:34.757Z</time>
      </trkpt>
      <trkpt lat="48.39458" lon="2.45557">
        <ele>82.39</ele>
        <time>2024-05-27T00:27:44.104Z</time>
      </trkpt>
      <trkpt lat="48.39448" lon="2.45558">
        <ele>82.23</ele>
        <time>2024-05-27T00:27:53.453Z</time>
      </trkpt>
      <trkpt lat="48.39445" lon="2.4556">
        <ele>82.08</ele>
        <time>2024-05-27T00:28:02.802Z</time>
      </trkpt>
      <trkpt lat="48.39432" lon="2.45561">
        <ele>81.96</ele>
        <time>2024-05-27T00:28:12.154Z</time>
      </trkpt>
      <trkpt lat="48.39424" lon="2.45561">
        <ele>81.85</ele>
        <time>2024-05-27T00:28:21.508Z</time>
      </trkpt>
      <trkpt lat="48.39422" lon="2.45563">
        <ele>81.76</ele>
        <time>2024-05-27T00:28:30.862Z</time>
      </trkpt>
      <trkpt lat="48.39418" lon="2.45566">
        <ele>81.7</ele>
        <time>2024-05-27T00:28:40.217Z</time>
      </trkpt>
      <trkpt lat="48.39417" lon="2.45569">
        <ele>81.66</ele>
        <time>2024-05-27T00:28:49.572Z</time>
      </trkpt>
      <trkpt lat="48.39417" lon="2.45572">
        <ele>81.64</ele>
        <time>2024-05-27T00:28:58.928Z</time>
      </trkpt>
      <trkpt lat="48.39414" lon="2.45579">
        <ele>81.64</ele>
        <time>2024-05-27T00:29:08.285Z</time>
      </trkpt>
      <trkpt lat="48.39414" lon="2.45584">
        <ele>81.66</ele>
        <time>2024-05-27T00:29:17.642Z</time>
      </trkpt>
      <trkpt lat="48.39412" lon="2.45588">
        <ele>81.68</ele>
        <time>2024-05-27T00:29:27.000Z</time>
      </trkpt>
      <trkpt lat="48.3941" lon="2.45592">
        <ele>81.72</ele>
        <time>2024-05-27T00:29:36.359Z</time>
      </trkpt>
      <trkpt lat="48.39406" lon="2.45596">
        <ele>81.76</ele>
        <time>2024-05-27T00:29:45.719Z</time>
      </trkpt>
      <trkpt lat="48.39398" lon="2.45599">
        <ele>81.83</ele>
        <time>2024-05-27T00:29:55.081Z</time>
      </trkpt>
      <trkpt lat="48.39392" lon="2.456">
        <ele>81.91</ele>
        <time>2024-05-27T00:30:04.444Z</time>
      </trkpt>
      <trkpt lat="48.39387" lon="2.45602">
        <ele>82</ele>
        <time>2024-05-27T00:30:13.808Z</time>
      </trkpt>
      <trkpt lat="48.39377" lon="2.45613">
        <ele>82.1</ele>
        <time>2024-05-27T00:30:23.174Z</time>
      </trkpt>
      <trkpt lat="48.39356" lon="2.45633">
        <ele>82.22</ele>
        <time>2024-05-27T00:30:32.545Z</time>
      </trkpt>
      <trkpt lat="48.39353" lon="2.45634">
        <ele>82.34</ele>
        <time>2024-05-27T00:30:41.917Z</time>
      </trkpt>
      <trkpt lat="48.39345" lon="2.45635">
        <ele>82.49</ele>
        <time>2024-05-27T00:30:51.290Z</time>
      </trkpt>
      <trkpt lat="48.39341" lon="2.45639">
        <ele>82.64</ele>
        <time>2024-05-27T00:31:00.664Z</time>
      </trkpt>
      <trkpt lat="48.39338" lon="2.45643">
        <ele>82.79</ele>
        <time>2024-05-27T00:31:10.039Z</time>
      </trkpt>
      <trkpt lat="48.39334" lon="2.45659">
        <ele>82.95</ele>
        <time>2024-05-27T00:31:19.416Z</time>
      </trkpt>
      <trkpt lat="48.39331" lon="2.45667">
        <ele>83.09</ele>
        <time>2024-05-27T00:31:28.795Z</time>
      </trkpt>
      <trkpt lat="48.39329" lon="2.45667">
        <ele>83.22</ele>
        <time>2024-05-27T00:31:38.174Z</time>
      </trkpt>
      <trkpt lat="48.39326" lon="2.45666">
        <ele>83.34</ele>
        <time>2024-05-27T00:31:47.553Z</time>
      </trkpt>
      <trkpt lat="48.3932" lon="2.45666">
        <ele>83.47</ele>
        <time>2024-05-27T00:31:56.934Z</time>
      </trkpt>
      <trkpt lat="48.39318" lon="2.45668">
        <ele>83.57</ele>
        <time>2024-05-27T00:32:06.315Z</time>
      </trkpt>
      <trkpt lat="48.39314" lon="2.45671">
        <ele>83.68</ele>
        <time>2024-05-27T00:32:15.697Z</time>
      </trkpt>
      <trkpt lat="48.3931" lon="2.45672">
        <ele>83.78</ele>
        <time>2024-05-27T00:32:25.080Z</time>
      </trkpt>
      <trkpt lat="48.39306" lon="2.45673">
        <ele>83.86</ele>
        <time>2024-05-27T00:32:34.464Z</time>
      </trkpt>
      <trkpt lat="48.39304" lon="2.45674">
        <ele>83.94</ele>
        <time>2024-05-27T00:32:43.848Z</time>
      </trkpt>
      <trkpt lat="48.39301" lon="2.45673">
        <ele>84</ele>
        <time>2024-05-27T00:32:53.233Z</time>
      </trkpt>
      <trkpt lat="48.393" lon="2.45673">
        <ele>84.05</ele>
        <time>2024-05-27T00:33:02.618Z</time>
      </trkpt>
      <trkpt lat="48.39298" lon="2.45672">
        <ele>84.09</ele>
        <time>2024-05-27T00:33:12.003Z</time>
      </trkpt>
      <trkpt lat="48.39296" lon="2.45669">
        <ele>84.12</ele>
        <time>2024-05-27T00:33:21.389Z</time>
      </trkpt>
      <trkpt lat="48.39291" lon="2.45664">
        <ele>84.15</ele>
        <time>2024-05-27T00:33:30.776Z</time>
      </trkpt>
      <trkpt lat="48.3929" lon="2.45663">
        <ele>84.16</ele>
        <time>2024-05-27T00:33:40.163Z</time>
      </trkpt>
      <trkpt lat="48.3928" lon="2.45657">
        <ele>84.16</ele>
        <time>2024-05-27T00:33:49.553Z</time>
      </trkpt>
      <trkpt lat="48.39277" lon="2.45657">
        <ele>84.17</ele>
        <time>2024-05-27T00:33:58.943Z</time>
      </trkpt>
      <trkpt lat="48.39266" lon="2.45646">
        <ele>84.16</ele>
        <time>2024-05-27T00:34:08.336Z</time>
      </trkpt>
      <trkpt lat="48.39264" lon="2.45641">
        <ele>84.15</ele>
        <time>2024-05-27T00:34:17.730Z</time>
      </trkpt>
      <trkpt lat="48.39258" lon="2.45622">
        <ele>84.06</ele>
        <time>2024-05-27T00:34:27.126Z</time>
      </trkpt>
      <trkpt lat="48.39256" lon="2.45609">
        <ele>84.02</ele>
        <time>2024-05-27T00:34:36.524Z</time>
      </trkpt>
      <trkpt lat="48.39253" lon="2.456">
        <ele>83.96</ele>
        <time>2024-05-27T00:34:45.924Z</time>
      </trkpt>
      <trkpt lat="48.39243" lon="2.45593">
        <ele>83.94</ele>
        <time>2024-05-27T00:34:55.326Z</time>
      </trkpt>
      <trkpt lat="48.39238" lon="2.45591">
        <ele>83.95</ele>
        <time>2024-05-27T00:35:04.729Z</time>
      </trkpt>
      <trkpt lat="48.39233" lon="2.45589">
        <ele>83.97</ele>
        <time>2024-05-27T00:35:14.133Z</time>
      </trkpt>
      <trkpt lat="48.39231" lon="2.45585">
        <ele>83.97</ele>
        <time>2024-05-27T00:35:23.537Z</time>
      </trkpt>
      <trkpt lat="48.39223" lon="2.45569">
        <ele>83.96</ele>
        <time>2024-05-27T00:35:32.944Z</time>
      </trkpt>
      <trkpt lat="48.39221" lon="2.45565">
        <ele>84.01</ele>
        <time>2024-05-27T00:35:42.352Z</time>
      </trkpt>
      <trkpt lat="48.39215" lon="2.45561">
        <ele>84.09</ele>
        <time>2024-05-27T00:35:51.761Z</time>
      </trkpt>
      <trkpt lat="48.39213" lon="2.45562">
        <ele>84.19</ele>
        <time>2024-05-27T00:36:01.170Z</time>
      </trkpt>
      <trkpt lat="48.39212" lon="2.45564">
        <ele>84.31</ele>
        <time>2024-05-27T00:36:10.580Z</time>
      </trkpt>
      <trkpt lat="48.39206" lon="2.45569">
        <ele>84.49</ele>
        <time>2024-05-27T00:36:19.991Z</time>
      </trkpt>
      <trkpt lat="48.39197" lon="2.45563">
        <ele>84.67</ele>
        <time>2024-05-27T00:36:29.404Z</time>
      </trkpt>
      <trkpt lat="48.39196" lon="2.4556">
        <ele>84.82</ele>
        <time>2024-05-27T00:36:38.818Z</time>
      </trkpt>
      <trkpt lat="48.39192" lon="2.45544">
        <ele>84.97</ele>
        <time>2024-05-27T00:36:48.234Z</time>
      </trkpt>
      <trkpt lat="48.39188" lon="2.45539">
        <ele>85.17</ele>
        <time>2024-05-27T00:36:57.651Z</time>
      </trkpt>
      <trkpt lat="48.39181" lon="2.45528">
        <ele>85.4</ele>
        <time>2024-05-27T00:37:07.070Z</time>
      </trkpt>
      <trkpt lat="48.39177" lon="2.45516">
        <ele>85.63</ele>
        <time>2024-05-27T00:37:16.491Z</time>
      </trkpt>
      <trkpt lat="48.3916" lon="2.45503">
        <ele>85.96</ele>
        <time>2024-05-27T00:37:25.915Z</time>
      </trkpt>
      <trkpt lat="48.39157" lon="2.45501">
        <ele>86.24</ele>
        <time>2024-05-27T00:37:35.340Z</time>
      </trkpt>
      <trkpt lat="48.39145" lon="2.45492">
        <ele>86.57</ele>
        <time>2024-05-27T00:37:44.768Z</time>
      </trkpt>
      <trkpt lat="48.39131" lon="2.45479">
        <ele>86.91</ele>
        <time>2024-05-27T00:37:54.199Z</time>
      </trkpt>
      <trkpt lat="48.39129" lon="2.45478">
        <ele>87.24</ele>
        <time>2024-05-27T00:38:03.631Z</time>
      </trkpt>
      <trkpt lat="48.39121" lon="2.45473">
        <ele>87.59</ele>
        <time>2024-05-27T00:38:13.064Z</time>
      </trkpt>
      <trkpt lat="48.39118" lon="2.45471">
        <ele>87.95</ele>
        <time>2024-05-27T00:38:22.498Z</time>
      </trkpt>
      <trkpt lat="48.39097" lon="2.45455">
        <ele>88.35</ele>
        <time>2024-05-27T00:38:31.937Z</time>
      </trkpt>
      <trkpt lat="48.39075" lon="2.45436">
        <ele>88.74</ele>
        <time>2024-05-27T00:38:41.381Z</time>
      </trkpt>
      <trkpt lat="48.3907" lon="2.45433">
        <ele>89.16</ele>
        <time>2024-05-27T00:38:50.826Z</time>
      </trkpt>
      <trkpt lat="48.39056" lon="2.45427">
        <ele>89.6</ele>
        <time>2024-05-27T00:39:00.274Z</time>
      </trkpt>
      <trkpt lat="48.39052" lon="2.45425">
        <ele>90.05</ele>
        <time>2024-05-27T00:39:09.723Z</time>
      </trkpt>
      <trkpt lat="48.39028" lon="2.45409">
        <ele>90.52</ele>
        <time>2024-05-27T00:39:19.177Z</time>
      </trkpt>
      <trkpt lat="48.39019" lon="2.45407">
        <ele>91.04</ele>
        <time>2024-05-27T00:39:28.633Z</time>
      </trkpt>
      <trkpt lat="48.39016" lon="2.4541">
        <ele>91.57</ele>
        <time>2024-05-27T00:39:38.089Z</time>
      </trkpt>
      <trkpt lat="48.39001" lon="2.4542">
        <ele>92.16</ele>
        <time>2024-05-27T00:39:47.549Z</time>
      </trkpt>
      <trkpt lat="48.38996" lon="2.45425">
        <ele>92.73</ele>
        <time>2024-05-27T00:39:57.010Z</time>
      </trkpt>
      <trkpt lat="48.38989" lon="2.45428">
        <ele>93.32</ele>
        <time>2024-05-27T00:40:06.472Z</time>
      </trkpt>
      <trkpt lat="48.38983" lon="2.45432">
        <ele>93.93</ele>
        <time>2024-05-27T00:40:15.936Z</time>
      </trkpt>
      <trkpt lat="48.38981" lon="2.45435">
        <ele>94.57</ele>
        <time>2024-05-27T00:40:25.400Z</time>
      </trkpt>
      <trkpt lat="48.38971" lon="2.45451">
        <ele>95.23</ele>
        <time>2024-05-27T00:40:34.867Z</time>
      </trkpt>
      <trkpt lat="48.38965" lon="2.4546">
        <ele>95.92</ele>
        <time>2024-05-27T00:40:44.336Z</time>
      </trkpt>
      <trkpt lat="48.3896" lon="2.45469">
        <ele>96.63</ele>
        <time>2024-05-27T00:40:53.806Z</time>
      </trkpt>
      <trkpt lat="48.38958" lon="2.45472">
        <ele>97.36</ele>
        <time>2024-05-27T00:41:03.277Z</time>
      </trkpt>
      <trkpt lat="48.38953" lon="2.4548">
        <ele>98.12</ele>
        <time>2024-05-27T00:41:12.749Z</time>
      </trkpt>
      <trkpt lat="48.38948" lon="2.45487">
        <ele>98.9</ele>
        <time>2024-05-27T00:41:22.223Z</time>
      </trkpt>
      <trkpt lat="48.38942" lon="2.45496">
        <ele>99.7</ele>
        <time>2024-05-27T00:41:31.698Z</time>
      </trkpt>
      <trkpt lat="48.38938" lon="2.45504">
        <ele>100.51</ele>
        <time>2024-05-27T00:41:41.175Z</time>
      </trkpt>
      <trkpt lat="48.38935" lon="2.4551">
        <ele>101.34</ele>
        <time>2024-05-27T00:41:50.653Z</time>
      </trkpt>
      <trkpt lat="48.38927" lon="2.45523">
        <ele>102.19</ele>
        <time>2024-05-27T00:42:00.133Z</time>
      </trkpt>
      <trkpt lat="48.38924" lon="2.45528">
        <ele>103.05</ele>
        <time>2024-05-27T00:42:09.614Z</time>
      </trkpt>
      <trkpt lat="48.38913" lon="2.4555">
        <ele>103.93</ele>
        <time>2024-05-27T00:42:19.099Z</time>
      </trkpt>
      <trkpt lat="48.38902" lon="2.45565">
        <ele>104.86</ele>
        <time>2024-05-27T00:42:28.587Z</time>
      </trkpt>
      <trkpt lat="48.38898" lon="2.45571">
        <ele>105.76</ele>
        <time>2024-05-27T00:42:38.076Z</time>
      </trkpt>
      <trkpt lat="48.38892" lon="2.45578">
        <ele>106.68</ele>
        <time>2024-05-27T00:42:47.566Z</time>
      </trkpt>
      <trkpt lat="48.38883" lon="2.45587">
        <ele>107.63</ele>
        <time>2024-05-27T00:42:57.058Z</time>
      </trkpt>
      <trkpt lat="48.3888" lon="2.4559">
        <ele>108.52</ele>
        <time>2024-05-27T00:43:06.551Z</time>
      </trkpt>
      <trkpt lat="48.38871" lon="2.45597">
        <ele>109.45</ele>
        <time>2024-05-27T00:43:16.046Z</time>
      </trkpt>
      <trkpt lat="48.38868" lon="2.45599">
        <ele>110.32</ele>
        <time>2024-05-27T00:43:25.542Z</time>
      </trkpt>
      <trkpt lat="48.38862" lon="2.45602">
        <ele>111.19</ele>
        <time>2024-05-27T00:43:35.039Z</time>
      </trkpt>
      <trkpt lat="48.38861" lon="2.45603">
        <ele>112</ele>
        <time>2024-05-27T00:43:44.537Z</time>
      </trkpt>
      <trkpt lat="48.38856" lon="2.45605">
        <ele>112.81</ele>
        <time>2024-05-27T00:43:54.035Z</time>
      </trkpt>
      <trkpt lat="48.38852" lon="2.45608">
        <ele>113.59</ele>
        <time>2024-05-27T00:44:03.534Z</time>
      </trkpt>
      <trkpt lat="48.38849" lon="2.4561">
        <ele>114.33</ele>
        <time>2024-05-27T00:44:13.034Z</time>
      </trkpt>
      <trkpt lat="48.38845" lon="2.45613">
        <ele>115.03</ele>
        <time>2024-05-27T00:44:22.535Z</time>
      </trkpt>
      <trkpt lat="48.38844" lon="2.45614">
        <ele>115.68</ele>
        <time>2024-05-27T00:44:32.036Z</time>
      </trkpt>
      <trkpt lat="48.38843" lon="2.45615">
        <ele>116.29</ele>
        <time>2024-05-27T00:44:41.537Z</time>
      </trkpt>
      <trkpt lat="48.38839" lon="2.45619">
        <ele>116.88</ele>
        <time>2024-05-27T00:44:51.039Z</time>
      </trkpt>
      <trkpt lat="48.38833" lon="2.45622">
        <ele>117.44</ele>
        <time>2024-05-27T00:45:00.543Z</time>
      </trkpt>
      <trkpt lat="48.38831" lon="2.45622">
        <ele>117.91</ele>
        <time>2024-05-27T00:45:10.047Z</time>
      </trkpt>
      <trkpt lat="48.38827" lon="2.45623">
        <ele>118.35</ele>
        <time>2024-05-27T00:45:19.552Z</time>
      </trkpt>
      <trkpt lat="48.38822" lon="2.45623">
        <ele>118.73</ele>
        <time>2024-05-27T00:45:29.058Z</time>
      </trkpt>
      <trkpt lat="48.38821" lon="2.45623">
        <ele>119.04</ele>
        <time>2024-05-27T00:45:38.564Z</time>
      </trkpt>
      <trkpt lat="48.38816" lon="2.45624">
        <ele>119.32</ele>
        <time>2024-05-27T00:45:48.071Z</time>
      </trkpt>
      <trkpt lat="48.38813" lon="2.45622">
        <ele>119.51</ele>
        <time>2024-05-27T00:45:57.579Z</time>
      </trkpt>
      <trkpt lat="48.38809" lon="2.45621">
        <ele>119.66</ele>
        <time>2024-05-27T00:46:07.088Z</time>
      </trkpt>
      <trkpt lat="48.38807" lon="2.45618">
        <ele>119.72</ele>
        <time>2024-05-27T00:46:16.597Z</time>
      </trkpt>
      <trkpt lat="48.38807" lon="2.45616">
        <ele>119.72</ele>
        <time>2024-05-27T00:46:26.106Z</time>
      </trkpt>
      <trkpt lat="48.38807" lon="2.45601">
        <ele>119.59</ele>
        <time>2024-05-27T00:46:35.617Z</time>
      </trkpt>
      <trkpt lat="48.38803" lon="2.45573">
        <ele>119.36</ele>
        <time>2024-05-27T00:46:45.132Z</time>
      </trkpt>
      <trkpt lat="48.38803" lon="2.45544">
        <ele>119.06</ele>
        <time>2024-05-27T00:46:54.651Z</time>
      </trkpt>
      <trkpt lat="48.38801" lon="2.45537">
        <ele>118.84</ele>
        <time>2024-05-27T00:47:04.171Z</time>
      </trkpt>
      <trkpt lat="48.38798" lon="2.45531">
        <ele>118.58</ele>
        <time>2024-05-27T00:47:13.692Z</time>
      </trkpt>
      <trkpt lat="48.38795" lon="2.45525">
        <ele>118.27</ele>
        <time>2024-05-27T00:47:23.214Z</time>
      </trkpt>
      <trkpt lat="48.38792" lon="2.45521">
        <ele>117.9</ele>
        <time>2024-05-27T00:47:32.737Z</time>
      </trkpt>
      <trkpt lat="48.38786" lon="2.45512">
        <ele>117.5</ele>
        <time>2024-05-27T00:47:42.262Z</time>
      </trkpt>
      <trkpt lat="48.38781" lon="2.45508">
        <ele>117.07</ele>
        <time>2024-05-27T00:47:51.788Z</time>
      </trkpt>
      <trkpt lat="48.38771" lon="2.45498">
        <ele>116.59</ele>
        <time>2024-05-27T00:48:01.316Z</time>
      </trkpt>
      <trkpt lat="48.3876" lon="2.4549">
        <ele>116.04</ele>
        <time>2024-05-27T00:48:10.847Z</time>
      </trkpt>
      <trkpt lat="48.38756" lon="2.45485">
        <ele>115.43</ele>
        <time>2024-05-27T00:48:20.379Z</time>
      </trkpt>
      <trkpt lat="48.38746" lon="2.45474">
        <ele>114.77</ele>
        <time>2024-05-27T00:48:29.913Z</time>
      </trkpt>
      <trkpt lat="48.38742" lon="2.45471">
        <ele>114.05</ele>
        <time>2024-05-27T00:48:39.448Z</time>
      </trkpt>
      <trkpt lat="48.38726" lon="2.45461">
        <ele>113.21</ele>
        <time>2024-05-27T00:48:48.986Z</time>
      </trkpt>
      <trkpt lat="48.38713" lon="2.45463">
        <ele>112.43</ele>
        <time>2024-05-27T00:48:58.527Z</time>
      </trkpt>
      <trkpt lat="48.38711" lon="2.45463">
        <ele>111.63</ele>
        <time>2024-05-27T00:49:08.068Z</time>
      </trkpt>
      <trkpt lat="48.38707" lon="2.45463">
        <ele>110.79</ele>
        <time>2024-05-27T00:49:17.610Z</time>
      </trkpt>
      <trkpt lat="48.38704" lon="2.4546">
        <ele>109.9</ele>
        <time>2024-05-27T00:49:27.153Z</time>
      </trkpt>
      <trkpt lat="48.387" lon="2.45456">
        <ele>108.98</ele>
        <time>2024-05-27T00:49:36.697Z</time>
      </trkpt>
      <trkpt lat="48.3869" lon="2.45445">
        <ele>107.98</ele>
        <time>2024-05-27T00:49:46.243Z</time>
      </trkpt>
      <trkpt lat="48.38687" lon="2.45441">
        <ele>107</ele>
        <time>2024-05-27T00:49:55.790Z</time>
      </trkpt>
      <trkpt lat="48.38672" lon="2.45432">
        <ele>106.01</ele>
        <time>2024-05-27T00:50:05.340Z</time>
      </trkpt>
      <trkpt lat="48.38667" lon="2.45431">
        <ele>105.02</ele>
        <time>2024-05-27T00:50:14.892Z</time>
      </trkpt>
      <trkpt lat="48.38655" lon="2.45426">
        <ele>103.99</ele>
        <time>2024-05-27T00:50:24.446Z</time>
      </trkpt>
      <trkpt lat="48.3865" lon="2.4542">
        <ele>102.95</ele>
        <time>2024-05-27T00:50:34.001Z</time>
      </trkpt>
      <trkpt lat="48.38645" lon="2.45404">
        <ele>101.84</ele>
        <time>2024-05-27T00:50:43.559Z</time>
      </trkpt>
      <trkpt lat="48.38643" lon="2.45396">
        <ele>100.78</ele>
        <time>2024-05-27T00:50:53.118Z</time>
      </trkpt>
      <trkpt lat="48.38643" lon="2.45373">
        <ele>99.69</ele>
        <time>2024-05-27T00:51:02.680Z</time>
      </trkpt>
      <trkpt lat="48.38646" lon="2.45352">
        <ele>98.57</ele>
        <time>2024-05-27T00:51:12.245Z</time>
      </trkpt>
      <trkpt lat="48.38646" lon="2.45347">
        <ele>97.53</ele>
        <time>2024-05-27T00:51:21.810Z</time>
      </trkpt>
      <trkpt lat="48.38642" lon="2.45334">
        <ele>96.48</ele>
        <time>2024-05-27T00:51:31.377Z</time>
      </trkpt>
      <trkpt lat="48.38639" lon="2.45327">
        <ele>95.46</ele>
        <time>2024-05-27T00:51:40.945Z</time>
      </trkpt>
      <trkpt lat="48.38635" lon="2.45319">
        <ele>94.46</ele>
        <time>2024-05-27T00:51:50.515Z</time>
      </trkpt>
      <trkpt lat="48.38631" lon="2.45312">
        <ele>93.47</ele>
        <time>2024-05-27T00:52:00.086Z</time>
      </trkpt>
      <trkpt lat="48.38626" lon="2.45306">
        <ele>92.5</ele>
        <time>2024-05-27T00:52:09.658Z</time>
      </trkpt>
      <trkpt lat="48.3862" lon="2.45302">
        <ele>91.57</ele>
        <time>2024-05-27T00:52:19.232Z</time>
      </trkpt>
      <trkpt lat="48.38612" lon="2.45295">
        <ele>90.65</ele>
        <time>2024-05-27T00:52:28.807Z</time>
      </trkpt>
      <trkpt lat="48.38609" lon="2.45289">
        <ele>89.74</ele>
        <time>2024-05-27T00:52:38.383Z</time>
      </trkpt>
      <trkpt lat="48.38609" lon="2.45283">
        <ele>88.86</ele>
        <time>2024-05-27T00:52:47.960Z</time>
      </trkpt>
      <trkpt lat="48.38609" lon="2.45276">
        <ele>88</ele>
        <time>2024-05-27T00:52:57.538Z</time>
      </trkpt>
      <trkpt lat="48.3861" lon="2.45269">
        <ele>87.17</ele>
        <time>2024-05-27T00:53:07.117Z</time>
      </trkpt>
      <trkpt lat="48.3861" lon="2.45263">
        <ele>86.39</ele>
        <time>2024-05-27T00:53:16.697Z</time>
      </trkpt>
      <trkpt lat="48.38612" lon="2.45258">
        <ele>85.64</ele>
        <time>2024-05-27T00:53:26.278Z</time>
      </trkpt>
      <trkpt lat="48.38616" lon="2.45246">
        <ele>84.9</ele>
        <time>2024-05-27T00:53:35.860Z</time>
      </trkpt>
      <trkpt lat="48.38617" lon="2.45239">
        <ele>84.22</ele>
        <time>2024-05-27T00:53:45.443Z</time>
      </trkpt>
      <trkpt lat="48.38618" lon="2.45221">
        <ele>83.55</ele>
        <time>2024-05-27T00:53:55.029Z</time>
      </trkpt>
      <trkpt lat="48.38619" lon="2.45212">
        <ele>82.96</ele>
        <time>2024-05-27T00:54:04.616Z</time>
      </trkpt>
      <trkpt lat="48.38627" lon="2.45173">
        <ele>82.37</ele>
        <time>2024-05-27T00:54:14.208Z</time>
      </trkpt>
      <trkpt lat="48.38632" lon="2.45145">
        <ele>81.9</ele>
        <time>2024-05-27T00:54:23.804Z</time>
      </trkpt>
      <trkpt lat="48.38632" lon="2.45136">
        <ele>81.48</ele>
        <time>2024-05-27T00:54:33.402Z</time>
      </trkpt>
      <trkpt lat="48.38632" lon="2.45126">
        <ele>81.12</ele>
        <time>2024-05-27T00:54:43.001Z</time>
      </trkpt>
      <trkpt lat="48.38625" lon="2.45103">
        <ele>80.84</ele>
        <time>2024-05-27T00:54:52.603Z</time>
      </trkpt>
      <trkpt lat="48.38612" lon="2.45082">
        <ele>80.59</ele>
        <time>2024-05-27T00:55:02.209Z</time>
      </trkpt>
      <trkpt lat="48.38609" lon="2.45077">
        <ele>80.34</ele>
        <time>2024-05-27T00:55:11.816Z</time>
      </trkpt>
      <trkpt lat="48.38587" lon="2.45039">
        <ele>80.21</ele>
        <time>2024-05-27T00:55:21.430Z</time>
      </trkpt>
      <trkpt lat="48.38564" lon="2.44996">
        <ele>80.07</ele>
        <time>2024-05-27T00:55:31.051Z</time>
      </trkpt>
      <trkpt lat="48.38562" lon="2.44989">
        <ele>79.92</ele>
        <time>2024-05-27T00:55:40.673Z</time>
      </trkpt>
      <trkpt lat="48.38549" lon="2.44966">
        <ele>79.77</ele>
        <time>2024-05-27T00:55:50.299Z</time>
      </trkpt>
      <trkpt lat="48.38526" lon="2.44936">
        <ele>79.62</ele>
        <time>2024-05-27T00:55:59.931Z</time>
      </trkpt>
      <trkpt lat="48.38496" lon="2.44899">
        <ele>79.52</ele>
        <time>2024-05-27T00:56:09.571Z</time>
      </trkpt>
      <trkpt lat="48.38483" lon="2.44883">
        <ele>79.55</ele>
        <time>2024-05-27T00:56:19.214Z</time>
      </trkpt>
      <trkpt lat="48.38469" lon="2.44868">
        <ele>79.62</ele>
        <time>2024-05-27T00:56:28.861Z</time>
      </trkpt>
      <trkpt lat="48.38462" lon="2.4486">
        <ele>79.72</ele>
        <time>2024-05-27T00:56:38.509Z</time>
      </trkpt>
      <trkpt lat="48.38438" lon="2.44834">
        <ele>79.86</ele>
        <time>2024-05-27T00:56:48.163Z</time>
      </trkpt>
      <trkpt lat="48.38417" lon="2.44813">
        <ele>80.04</ele>
        <time>2024-05-27T00:56:57.822Z</time>
      </trkpt>
      <trkpt lat="48.38414" lon="2.44811">
        <ele>80.25</ele>
        <time>2024-05-27T00:57:07.482Z</time>
      </trkpt>
      <trkpt lat="48.38403" lon="2.44801">
        <ele>80.52</ele>
        <time>2024-05-27T00:57:17.145Z</time>
      </trkpt>
      <trkpt lat="48.38397" lon="2.44794">
        <ele>80.83</ele>
        <time>2024-05-27T00:57:26.809Z</time>
      </trkpt>
      <trkpt lat="48.38391" lon="2.44787">
        <ele>81.16</ele>
        <time>2024-05-27T00:57:36.475Z</time>
      </trkpt>
      <trkpt lat="48.38368" lon="2.44765">
        <ele>81.55</ele>
        <time>2024-05-27T00:57:46.146Z</time>
      </trkpt>
      <trkpt lat="48.38365" lon="2.44761">
        <ele>81.92</ele>
        <time>2024-05-27T00:57:55.818Z</time>
      </trkpt>
      <trkpt lat="48.38345" lon="2.44736">
        <ele>82.31</ele>
        <time>2024-05-27T00:58:05.495Z</time>
      </trkpt>
      <trkpt lat="48.38315" lon="2.44702">
        <ele>82.73</ele>
        <time>2024-05-27T00:58:15.180Z</time>
      </trkpt>
      <trkpt lat="48.3829" lon="2.44678">
        <ele>83.2</ele>
        <time>2024-05-27T00:58:24.871Z</time>
      </trkpt>
      <trkpt lat="48.38282" lon="2.44671">
        <ele>83.67</ele>
        <time>2024-05-27T00:58:34.563Z</time>
      </trkpt>
      <trkpt lat="48.38264" lon="2.44654">
        <ele>84.14</ele>
        <time>2024-05-27T00:58:44.260Z</time>
      </trkpt>
      <trkpt lat="48.38256" lon="2.44647">
        <ele>84.63</ele>
        <time>2024-05-27T00:58:53.959Z</time>
      </trkpt>
      <trkpt lat="48.3824" lon="2.44627">
        <ele>85.12</ele>
        <time>2024-05-27T00:59:03.662Z</time>
      </trkpt>
      <trkpt lat="48.38226" lon="2.44593">
        <ele>85.65</ele>
        <time>2024-05-27T00:59:13.370Z</time>
      </trkpt>
      <trkpt lat="48.38217" lon="2.44566">
        <ele>86.23</ele>
        <time>2024-05-27T00:59:23.082Z</time>
      </trkpt>
      <trkpt lat="48.38214" lon="2.44561">
        <ele>86.78</ele>
        <time>2024-05-27T00:59:32.795Z</time>
      </trkpt>
      <trkpt lat="48.38208" lon="2.44552">
        <ele>87.36</ele>
        <time>2024-05-27T00:59:42.510Z</time>
      </trkpt>
      <trkpt lat="48.38191" lon="2.44524">
        <ele>87.93</ele>
        <time>2024-05-27T00:59:52.230Z</time>
      </trkpt>
      <trkpt lat="48.38178" lon="2.44496">
        <ele>88.52</ele>
        <time>2024-05-27T01:00:01.954Z</time>
      </trkpt>
      <trkpt lat="48.38164" lon="2.44462">
        <ele>89.1</ele>
        <time>2024-05-27T01:00:11.684Z</time>
      </trkpt>
      <trkpt lat="48.38151" lon="2.44424">
        <ele>89.8</ele>
        <time>2024-05-27T01:00:21.419Z</time>
      </trkpt>
      <trkpt lat="48.38144" lon="2.44407">
        <ele>90.44</ele>
        <time>2024-05-27T01:00:31.157Z</time>
      </trkpt>
      <trkpt lat="48.38141" lon="2.44401">
        <ele>91.03</ele>
        <time>2024-05-27T01:00:40.896Z</time>
      </trkpt>
      <trkpt lat="48.38134" lon="2.44385">
        <ele>91.65</ele>
        <time>2024-05-27T01:00:50.638Z</time>
      </trkpt>
      <trkpt lat="48.38133" lon="2.44384">
        <ele>92.21</ele>
        <time>2024-05-27T01:01:00.380Z</time>
      </trkpt>
      <trkpt lat="48.38133" lon="2.44381">
        <ele>92.77</ele>
        <time>2024-05-27T01:01:10.122Z</time>
      </trkpt>
      <trkpt lat="48.38131" lon="2.44376">
        <ele>93.32</ele>
        <time>2024-05-27T01:01:19.865Z</time>
      </trkpt>
      <trkpt lat="48.38131" lon="2.44374">
        <ele>93.85</ele>
        <time>2024-05-27T01:01:29.608Z</time>
      </trkpt>
      <trkpt lat="48.38127" lon="2.4437">
        <ele>94.39</ele>
        <time>2024-05-27T01:01:39.352Z</time>
      </trkpt>
      <trkpt lat="48.38124" lon="2.44363">
        <ele>94.92</ele>
        <time>2024-05-27T01:01:49.097Z</time>
      </trkpt>
      <trkpt lat="48.38123" lon="2.44356">
        <ele>95.42</ele>
        <time>2024-05-27T01:01:58.843Z</time>
      </trkpt>
      <trkpt lat="48.38124" lon="2.44358">
        <ele>95.9</ele>
        <time>2024-05-27T01:02:08.589Z</time>
      </trkpt>
      <trkpt lat="48.38125" lon="2.44363">
        <ele>96.35</ele>
        <time>2024-05-27T01:02:18.336Z</time>
      </trkpt>
      <trkpt lat="48.38124" lon="2.44365">
        <ele>96.8</ele>
        <time>2024-05-27T01:02:28.084Z</time>
      </trkpt>
      <trkpt lat="48.38122" lon="2.44363">
        <ele>97.25</ele>
        <time>2024-05-27T01:02:37.832Z</time>
      </trkpt>
      <trkpt lat="48.3812" lon="2.44357">
        <ele>97.69</ele>
        <time>2024-05-27T01:02:47.581Z</time>
      </trkpt>
      <trkpt lat="48.3812" lon="2.44356">
        <ele>98.11</ele>
        <time>2024-05-27T01:02:57.330Z</time>
      </trkpt>
      <trkpt lat="48.3812" lon="2.44357">
        <ele>98.51</ele>
        <time>2024-05-27T01:03:07.079Z</time>
      </trkpt>
      <trkpt lat="48.38119" lon="2.44356">
        <ele>98.91</ele>
        <time>2024-05-27T01:03:16.829Z</time>
      </trkpt>
      <trkpt lat="48.38119" lon="2.44356">
        <ele>99.3</ele>
        <time>2024-05-27T01:03:26.579Z</time>
      </trkpt>
      <trkpt lat="48.38117" lon="2.44353">
        <ele>99.68</ele>
        <time>2024-05-27T01:03:36.329Z</time>
      </trkpt>
      <trkpt lat="48.38116" lon="2.44355">
        <ele>100.05</ele>
        <time>2024-05-27T01:03:46.080Z</time>
      </trkpt>
      <trkpt lat="48.38118" lon="2.44354">
        <ele>100.41</ele>
        <time>2024-05-27T01:03:55.831Z</time>
      </trkpt>
      <trkpt lat="48.3812" lon="2.44354">
        <ele>100.76</ele>
        <time>2024-05-27T01:04:05.582Z</time>
      </trkpt>
      <trkpt lat="48.38117" lon="2.4436">
        <ele>101.11</ele>
        <time>2024-05-27T01:04:15.334Z</time>
      </trkpt>
      <trkpt lat="48.38112" lon="2.44367">
        <ele>101.46</ele>
        <time>2024-05-27T01:04:25.088Z</time>
      </trkpt>
      <trkpt lat="48.38106" lon="2.44371">
        <ele>101.83</ele>
        <time>2024-05-27T01:04:34.843Z</time>
      </trkpt>
      <trkpt lat="48.38104" lon="2.44373">
        <ele>102.18</ele>
        <time>2024-05-27T01:04:44.598Z</time>
      </trkpt>
      <trkpt lat="48.38102" lon="2.44381">
        <ele>102.53</ele>
        <time>2024-05-27T01:04:54.355Z</time>
      </trkpt>
      <trkpt lat="48.38099" lon="2.44389">
        <ele>102.87</ele>
        <time>2024-05-27T01:05:04.113Z</time>
      </trkpt>
      <trkpt lat="48.38094" lon="2.44396">
        <ele>103.23</ele>
        <time>2024-05-27T01:05:13.872Z</time>
      </trkpt>
      <trkpt lat="48.38089" lon="2.444">
        <ele>103.6</ele>
        <time>2024-05-27T01:05:23.632Z</time>
      </trkpt>
      <trkpt lat="48.38077" lon="2.44407">
        <ele>104</ele>
        <time>2024-05-27T01:05:33.395Z</time>
      </trkpt>
      <trkpt lat="48.38073" lon="2.44408">
        <ele>104.37</ele>
        <time>2024-05-27T01:05:43.159Z</time>
      </trkpt>
      <trkpt lat="48.38068" lon="2.44407">
        <ele>104.76</ele>
        <time>2024-05-27T01:05:52.924Z</time>
      </trkpt>
      <trkpt lat="48.38063" lon="2.44408">
        <ele>105.13</ele>
        <time>2024-05-27T01:06:02.690Z</time>
      </trkpt>
      <trkpt lat="48.38061" lon="2.4441">
        <ele>105.49</ele>
        <time>2024-05-27T01:06:12.456Z</time>
      </trkpt>
      <trkpt lat="48.3806" lon="2.44411">
        <ele>105.85</ele>
        <time>2024-05-27T01:06:22.222Z</time>
      </trkpt>
      <trkpt lat="48.38059" lon="2.44413">
        <ele>106.21</ele>
        <time>2024-05-27T01:06:31.989Z</time>
      </trkpt>
      <trkpt lat="48.38058" lon="2.44413">
        <ele>106.57</ele>
        <time>2024-05-27T01:06:41.756Z</time>
      </trkpt>
      <trkpt lat="48.38058" lon="2.44414">
        <ele>106.93</ele>
        <time>2024-05-27T01:06:51.523Z</time>
      </trkpt>
      <trkpt lat="48.38056" lon="2.44421">
        <ele>107.3</ele>
        <time>2024-05-27T01:07:01.291Z</time>
      </trkpt>
      <trkpt lat="48.38056" lon="2.44423">
        <ele>107.67</ele>
        <time>2024-05-27T01:07:11.059Z</time>
      </trkpt>
      <trkpt lat="48.38054" lon="2.44429">
        <ele>108.06</ele>
        <time>2024-05-27T01:07:20.828Z</time>
      </trkpt>
      <trkpt lat="48.38053" lon="2.44445">
        <ele>108.46</ele>
        <time>2024-05-27T01:07:30.599Z</time>
      </trkpt>
      <trkpt lat="48.38053" lon="2.44452">
        <ele>108.83</ele>
        <time>2024-05-27T01:07:40.371Z</time>
      </trkpt>
      <trkpt lat="48.38053" lon="2.44457">
        <ele>109.2</ele>
        <time>2024-05-27T01:07:50.144Z</time>
      </trkpt>
      <trkpt lat="48.38052" lon="2.4446">
        <ele>109.58</ele>
        <time>2024-05-27T01:07:59.917Z</time>
      </trkpt>
      <trkpt lat="48.38052" lon="2.44465">
        <ele>109.96</ele>
        <time>2024-05-27T01:08:09.691Z</time>
      </trkpt>
      <trkpt lat="48.3805" lon="2.44471">
        <ele>110.36</ele>
        <time>2024-05-27T01:08:19.466Z</time>
      </trkpt>
      <trkpt lat="48.3805" lon="2.44475">
        <ele>110.75</ele>
        <time>2024-05-27T01:08:29.241Z</time>
      </trkpt>
      <trkpt lat="48.38049" lon="2.44477">
        <ele>111.13</ele>
        <time>2024-05-27T01:08:39.017Z</time>
      </trkpt>
      <trkpt lat="48.38046" lon="2.44485">
        <ele>111.55</ele>
        <time>2024-05-27T01:08:48.794Z</time>
      </trkpt>
      <trkpt lat="48.38042" lon="2.44492">
        <ele>111.97</ele>
        <time>2024-05-27T01:08:58.572Z</time>
      </trkpt>
      <trkpt lat="48.38041" lon="2.44495">
        <ele>112.36</ele>
        <time>2024-05-27T01:09:08.351Z</time>
      </trkpt>
      <trkpt lat="48.38038" lon="2.44499">
        <ele>112.77</ele>
        <time>2024-05-27T01:09:18.130Z</time>
      </trkpt>
      <trkpt lat="48.38035" lon="2.44509">
        <ele>113.16</ele>
        <time>2024-05-27T01:09:27.911Z</time>
      </trkpt>
      <trkpt lat="48.38032" lon="2.44513">
        <ele>113.56</ele>
        <time>2024-05-27T01:09:37.693Z</time>
      </trkpt>
      <trkpt lat="48.38025" lon="2.44525">
        <ele>113.98</ele>
        <time>2024-05-27T01:09:47.477Z</time>
      </trkpt>
      <trkpt lat="48.38023" lon="2.44527">
        <ele>114.36</ele>
        <time>2024-05-27T01:09:57.261Z</time>
      </trkpt>
      <trkpt lat="48.38019" lon="2.4453">
        <ele>114.75</ele>
        <time>2024-05-27T01:10:07.046Z</time>
      </trkpt>
      <trkpt lat="48.38016" lon="2.44531">
        <ele>115.12</ele>
        <time>2024-05-27T01:10:16.832Z</time>
      </trkpt>
      <trkpt lat="48.38013" lon="2.44533">
        <ele>115.49</ele>
        <time>2024-05-27T01:10:26.618Z</time>
      </trkpt>
      <trkpt lat="48.38011" lon="2.44535">
        <ele>115.85</ele>
        <time>2024-05-27T01:10:36.405Z</time>
      </trkpt>
      <trkpt lat="48.38006" lon="2.44541">
        <ele>116.21</ele>
        <time>2024-05-27T01:10:46.193Z</time>
      </trkpt>
      <trkpt lat="48.38001" lon="2.44548">
        <ele>116.57</ele>
        <time>2024-05-27T01:10:55.982Z</time>
      </trkpt>
      <trkpt lat="48.37996" lon="2.44556">
        <ele>116.91</ele>
        <time>2024-05-27T01:11:05.773Z</time>
      </trkpt>
      <trkpt lat="48.37995" lon="2.44562">
        <ele>117.2</ele>
        <time>2024-05-27T01:11:15.565Z</time>
      </trkpt>
      <trkpt lat="48.3799" lon="2.44584">
        <ele>117.49</ele>
        <time>2024-05-27T01:11:25.360Z</time>
      </trkpt>
      <trkpt lat="48.37988" lon="2.44608">
        <ele>117.78</ele>
        <time>2024-05-27T01:11:35.158Z</time>
      </trkpt>
      <trkpt lat="48.37982" lon="2.44634">
        <ele>118.06</ele>
        <time>2024-05-27T01:11:44.960Z</time>
      </trkpt>
      <trkpt lat="48.37982" lon="2.44659">
        <ele>118.31</ele>
        <time>2024-05-27T01:11:54.765Z</time>
      </trkpt>
      <trkpt lat="48.37982" lon="2.44685">
        <ele>118.54</ele>
        <time>2024-05-27T01:12:04.574Z</time>
      </trkpt>
      <trkpt lat="48.37985" lon="2.44694">
        <ele>118.78</ele>
        <time>2024-05-27T01:12:14.384Z</time>
      </trkpt>
      <trkpt lat="48.37991" lon="2.44706">
        <ele>119.01</ele>
        <time>2024-05-27T01:12:24.196Z</time>
      </trkpt>
      <trkpt lat="48.37993" lon="2.44709">
        <ele>119.23</ele>
        <time>2024-05-27T01:12:34.008Z</time>
      </trkpt>
      <trkpt lat="48.37997" lon="2.44714">
        <ele>119.43</ele>
        <time>2024-05-27T01:12:43.821Z</time>
      </trkpt>
      <trkpt lat="48.38003" lon="2.44721">
        <ele>119.63</ele>
        <time>2024-05-27T01:12:53.636Z</time>
      </trkpt>
      <trkpt lat="48.38005" lon="2.44722">
        <ele>119.83</ele>
        <time>2024-05-27T01:13:03.451Z</time>
      </trkpt>
      <trkpt lat="48.38015" lon="2.44726">
        <ele>120.01</ele>
        <time>2024-05-27T01:13:13.268Z</time>
      </trkpt>
      <trkpt lat="48.38017" lon="2.44728">
        <ele>120.2</ele>
        <time>2024-05-27T01:13:23.086Z</time>
      </trkpt>
      <trkpt lat="48.38021" lon="2.44733">
        <ele>120.39</ele>
        <time>2024-05-27T01:13:32.905Z</time>
      </trkpt>
      <trkpt lat="48.38023" lon="2.44741">
        <ele>120.58</ele>
        <time>2024-05-27T01:13:42.725Z</time>
      </trkpt>
      <trkpt lat="48.38028" lon="2.44757">
        <ele>120.79</ele>
        <time>2024-05-27T01:13:52.548Z</time>
      </trkpt>
      <trkpt lat="48.3803" lon="2.4476">
        <ele>120.96</ele>
        <time>2024-05-27T01:14:02.371Z</time>
      </trkpt>
      <trkpt lat="48.38031" lon="2.44763">
        <ele>121.11</ele>
        <time>2024-05-27T01:14:12.195Z</time>
      </trkpt>
      <trkpt lat="48.38037" lon="2.44769">
        <ele>121.26</ele>
        <time>2024-05-27T01:14:22.020Z</time>
      </trkpt>
      <trkpt lat="48.38045" lon="2.44791">
        <ele>121.45</ele>
        <time>2024-05-27T01:14:31.848Z</time>
      </trkpt>
      <trkpt lat="48.38048" lon="2.44801">
        <ele>121.6</ele>
        <time>2024-05-27T01:14:41.678Z</time>
      </trkpt>
      <trkpt lat="48.38052" lon="2.44815">
        <ele>121.76</ele>
        <time>2024-05-27T01:14:51.510Z</time>
      </trkpt>
      <trkpt lat="48.38057" lon="2.44827">
        <ele>121.88</ele>
        <time>2024-05-27T01:15:01.344Z</time>
      </trkpt>
      <trkpt lat="48.38059" lon="2.44844">
        <ele>122</ele>
        <time>2024-05-27T01:15:11.180Z</time>
      </trkpt>
      <trkpt lat="48.3806" lon="2.44857">
        <ele>122.1</ele>
        <time>2024-05-27T01:15:21.018Z</time>
      </trkpt>
      <trkpt lat="48.38061" lon="2.44861">
        <ele>122.2</ele>
        <time>2024-05-27T01:15:30.856Z</time>
      </trkpt>
      <trkpt lat="48.38064" lon="2.44882">
        <ele>122.28</ele>
        <time>2024-05-27T01:15:40.697Z</time>
      </trkpt>
      <trkpt lat="48.38073" lon="2.44899">
        <ele>122.34</ele>
        <time>2024-05-27T01:15:50.541Z</time>
      </trkpt>
      <trkpt lat="48.38075" lon="2.44901">
        <ele>122.42</ele>
        <time>2024-05-27T01:16:00.386Z</time>
      </trkpt>
      <trkpt lat="48.38081" lon="2.44901">
        <ele>122.49</ele>
        <time>2024-05-27T01:16:10.232Z</time>
      </trkpt>
      <trkpt lat="48.38083" lon="2.44901">
        <ele>122.56</ele>
        <time>2024-05-27T01:16:20.078Z</time>
      </trkpt>
      <trkpt lat="48.38086" lon="2.44904">
        <ele>122.62</ele>
        <time>2024-05-27T01:16:29.925Z</time>
      </trkpt>
      <trkpt lat="48.38087" lon="2.44904">
        <ele>122.69</ele>
        <time>2024-05-27T01:16:39.772Z</time>
      </trkpt>
      <trkpt lat="48.38099" lon="2.44904">
        <ele>122.73</ele>
        <time>2024-05-27T01:16:49.621Z</time>
      </trkpt>
      <trkpt lat="48.38101" lon="2.44902">
        <ele>122.78</ele>
        <time>2024-05-27T01:16:59.471Z</time>
      </trkpt>
      <trkpt lat="48.38112" lon="2.44896">
        <ele>122.81</ele>
        <time>2024-05-27T01:17:09.323Z</time>
      </trkpt>
      <trkpt lat="48.38121" lon="2.4491">
        <ele>122.93</ele>
        <time>2024-05-27T01:17:19.178Z</time>
      </trkpt>
      <trkpt lat="48.38132" lon="2.44928">
        <ele>123.05</ele>
        <time>2024-05-27T01:17:29.036Z</time>
      </trkpt>
      <trkpt lat="48.38134" lon="2.4493">
        <ele>123.12</ele>
        <time>2024-05-27T01:17:38.895Z</time>
      </trkpt>
      <trkpt lat="48.38141" lon="2.44944">
        <ele>123.2</ele>
        <time>2024-05-27T01:17:48.756Z</time>
      </trkpt>
      <trkpt lat="48.38141" lon="2.44948">
        <ele>123.26</ele>
        <time>2024-05-27T01:17:58.617Z</time>
      </trkpt>
      <trkpt lat="48.38145" lon="2.44961">
        <ele>123.33</ele>
        <time>2024-05-27T01:18:08.480Z</time>
      </trkpt>
      <trkpt lat="48.38147" lon="2.44963">
        <ele>123.39</ele>
        <time>2024-05-27T01:18:18.344Z</time>
      </trkpt>
      <trkpt lat="48.38149" lon="2.44977">
        <ele>123.46</ele>
        <time>2024-05-27T01:18:28.210Z</time>
      </trkpt>
      <trkpt lat="48.38147" lon="2.44986">
        <ele>123.52</ele>
        <time>2024-05-27T01:18:38.077Z</time>
      </trkpt>
      <trkpt lat="48.38143" lon="2.44998">
        <ele>123.56</ele>
        <time>2024-05-27T01:18:47.946Z</time>
      </trkpt>
      <trkpt lat="48.38136" lon="2.45014">
        <ele>123.61</ele>
        <time>2024-05-27T01:18:57.817Z</time>
      </trkpt>
      <trkpt lat="48.38132" lon="2.4504">
        <ele>123.66</ele>
        <time>2024-05-27T01:19:07.692Z</time>
      </trkpt>
      <trkpt lat="48.38138" lon="2.45064">
        <ele>123.72</ele>
        <time>2024-05-27T01:19:17.570Z</time>
      </trkpt>
      <trkpt lat="48.3814" lon="2.45068">
        <ele>123.79</ele>
        <time>2024-05-27T01:19:27.449Z</time>
      </trkpt>
      <trkpt lat="48.38147" lon="2.45095">
        <ele>123.89</ele>
        <time>2024-05-27T01:19:37.332Z</time>
      </trkpt>
      <trkpt lat="48.38155" lon="2.45132">
        <ele>123.98</ele>
        <time>2024-05-27T01:19:47.220Z</time>
      </trkpt>
      <trkpt lat="48.38161" lon="2.45152">
        <ele>124.06</ele>
        <time>2024-05-27T01:19:57.111Z</time>
      </trkpt>
      <trkpt lat="48.38171" lon="2.45172">
        <ele>124.13</ele>
        <time>2024-05-27T01:20:07.005Z</time>
      </trkpt>
      <trkpt lat="48.38174" lon="2.4518">
        <ele>124.2</ele>
        <time>2024-05-27T01:20:16.900Z</time>
      </trkpt>
      <trkpt lat="48.38179" lon="2.45194">
        <ele>124.27</ele>
        <time>2024-05-27T01:20:26.798Z</time>
      </trkpt>
      <trkpt lat="48.38186" lon="2.45216">
        <ele>124.36</ele>
        <time>2024-05-27T01:20:36.699Z</time>
      </trkpt>
      <trkpt lat="48.38208" lon="2.45261">
        <ele>124.49</ele>
        <time>2024-05-27T01:20:46.607Z</time>
      </trkpt>
      <trkpt lat="48.38216" lon="2.45273">
        <ele>124.61</ele>
        <time>2024-05-27T01:20:56.518Z</time>
      </trkpt>
      <trkpt lat="48.38234" lon="2.45302">
        <ele>124.75</ele>
        <time>2024-05-27T01:21:06.434Z</time>
      </trkpt>
      <trkpt lat="48.38258" lon="2.45332">
        <ele>124.91</ele>
        <time>2024-05-27T01:21:16.356Z</time>
      </trkpt>
      <trkpt lat="48.3829" lon="2.45374">
        <ele>125.06</ele>
        <time>2024-05-27T01:21:26.287Z</time>
      </trkpt>
      <trkpt lat="48.38315" lon="2.45413">
        <ele>125.14</ele>
        <time>2024-05-27T01:21:36.225Z</time>
      </trkpt>
      <trkpt lat="48.38317" lon="2.45418">
        <ele>125.26</ele>
        <time>2024-05-27T01:21:46.164Z</time>
      </trkpt>
      <trkpt lat="48.38328" lon="2.45442">
        <ele>125.36</ele>
        <time>2024-05-27T01:21:56.106Z</time>
      </trkpt>
      <trkpt lat="48.38338" lon="2.45463">
        <ele>125.5</ele>
        <time>2024-05-27T01:22:06.052Z</time>
      </trkpt>
      <trkpt lat="48.38344" lon="2.45476">
        <ele>125.63</ele>
        <time>2024-05-27T01:22:16.000Z</time>
      </trkpt>
      <trkpt lat="48.38354" lon="2.45501">
        <ele>125.75</ele>
        <time>2024-05-27T01:22:25.952Z</time>
      </trkpt>
      <trkpt lat="48.38358" lon="2.45507">
        <ele>125.86</ele>
        <time>2024-05-27T01:22:35.905Z</time>
      </trkpt>
      <trkpt lat="48.38362" lon="2.45512">
        <ele>125.97</ele>
        <time>2024-05-27T01:22:45.859Z</time>
      </trkpt>
      <trkpt lat="48.38366" lon="2.45518">
        <ele>126.08</ele>
        <time>2024-05-27T01:22:55.814Z</time>
      </trkpt>
      <trkpt lat="48.38375" lon="2.4553">
        <ele>126.19</ele>
        <time>2024-05-27T01:23:05.772Z</time>
      </trkpt>
      <trkpt lat="48.3839" lon="2.45541">
        <ele>126.29</ele>
        <time>2024-05-27T01:23:15.733Z</time>
      </trkpt>
      <trkpt lat="48.38419" lon="2.45556">
        <ele>126.42</ele>
        <time>2024-05-27T01:23:25.700Z</time>
      </trkpt>
      <trkpt lat="48.38424" lon="2.45557">
        <ele>126.5</ele>
        <time>2024-05-27T01:23:35.668Z</time>
      </trkpt>
      <trkpt lat="48.38444" lon="2.45556">
        <ele>126.58</ele>
        <time>2024-05-27T01:23:45.640Z</time>
      </trkpt>
      <trkpt lat="48.38462" lon="2.45564">
        <ele>126.67</ele>
        <time>2024-05-27T01:23:55.616Z</time>
      </trkpt>
      <trkpt lat="48.3848" lon="2.45571">
        <ele>126.73</ele>
        <time>2024-05-27T01:24:05.596Z</time>
      </trkpt>
      <trkpt lat="48.38508" lon="2.45579">
        <ele>126.78</ele>
        <time>2024-05-27T01:24:15.581Z</time>
      </trkpt>
      <trkpt lat="48.38529" lon="2.45586">
        <ele>126.76</ele>
        <time>2024-05-27T01:24:25.571Z</time>
      </trkpt>
      <trkpt lat="48.3856" lon="2.45594">
        <ele>126.71</ele>
        <time>2024-05-27T01:24:35.567Z</time>
      </trkpt>
      <trkpt lat="48.38589" lon="2.45603">
        <ele>126.63</ele>
        <time>2024-05-27T01:24:45.569Z</time>
      </trkpt>
      <trkpt lat="48.38603" lon="2.45608">
        <ele>126.52</ele>
        <time>2024-05-27T01:24:55.574Z</time>
      </trkpt>
      <trkpt lat="48.38615" lon="2.45611">
        <ele>126.4</ele>
        <time>2024-05-27T01:25:05.581Z</time>
      </trkpt>
      <trkpt lat="48.38634" lon="2.45616">
        <ele>126.26</ele>
        <time>2024-05-27T01:25:15.592Z</time>
      </trkpt>
      <trkpt lat="48.38651" lon="2.4562">
        <ele>126.1</ele>
        <time>2024-05-27T01:25:25.606Z</time>
      </trkpt>
      <trkpt lat="48.38678" lon="2.45628">
        <ele>125.9</ele>
        <time>2024-05-27T01:25:35.626Z</time>
      </trkpt>
      <trkpt lat="48.38708" lon="2.45636">
        <ele>125.67</ele>
        <time>2024-05-27T01:25:45.652Z</time>
      </trkpt>
      <trkpt lat="48.38743" lon="2.45643">
        <ele>125.4</ele>
        <time>2024-05-27T01:25:55.685Z</time>
      </trkpt>
      <trkpt lat="48.38779" lon="2.45648">
        <ele>125.1</ele>
        <time>2024-05-27T01:26:05.725Z</time>
      </trkpt>
      <trkpt lat="48.38786" lon="2.4565">
        <ele>124.8</ele>
        <time>2024-05-27T01:26:15.767Z</time>
      </trkpt>
      <trkpt lat="48.38805" lon="2.45652">
        <ele>124.43</ele>
        <time>2024-05-27T01:26:25.813Z</time>
      </trkpt>
      <trkpt lat="48.38824" lon="2.45657">
        <ele>124.03</ele>
        <time>2024-05-27T01:26:35.862Z</time>
      </trkpt>
      <trkpt lat="48.38837" lon="2.45663">
        <ele>123.65</ele>
        <time>2024-05-27T01:26:45.914Z</time>
      </trkpt>
      <trkpt lat="48.38869" lon="2.45674">
        <ele>123.23</ele>
        <time>2024-05-27T01:26:55.973Z</time>
      </trkpt>
      <trkpt lat="48.38901" lon="2.45684">
        <ele>122.84</ele>
        <time>2024-05-27T01:27:06.038Z</time>
      </trkpt>
      <trkpt lat="48.38926" lon="2.45689">
        <ele>122.44</ele>
        <time>2024-05-27T01:27:16.108Z</time>
      </trkpt>
      <trkpt lat="48.38939" lon="2.4569">
        <ele>121.99</ele>
        <time>2024-05-27T01:27:26.181Z</time>
      </trkpt>
      <trkpt lat="48.38951" lon="2.45694">
        <ele>121.57</ele>
        <time>2024-05-27T01:27:36.256Z</time>
      </trkpt>
      <trkpt lat="48.38956" lon="2.45696">
        <ele>121.13</ele>
        <time>2024-05-27T01:27:46.332Z</time>
      </trkpt>
      <trkpt lat="48.38981" lon="2.45704">
        <ele>120.7</ele>
        <time>2024-05-27T01:27:56.413Z</time>
      </trkpt>
      <trkpt lat="48.39008" lon="2.45713">
        <ele>120.24</ele>
        <time>2024-05-27T01:28:06.500Z</time>
      </trkpt>
      <trkpt lat="48.39046" lon="2.45722">
        <ele>119.75</ele>
        <time>2024-05-27T01:28:16.595Z</time>
      </trkpt>
      <trkpt lat="48.3906" lon="2.45724">
        <ele>119.25</ele>
        <time>2024-05-27T01:28:26.693Z</time>
      </trkpt>
      <trkpt lat="48.39072" lon="2.45729">
        <ele>118.75</ele>
        <time>2024-05-27T01:28:36.793Z</time>
      </trkpt>
      <trkpt lat="48.39098" lon="2.4574">
        <ele>118.23</ele>
        <time>2024-05-27T01:28:46.899Z</time>
      </trkpt>
      <trkpt lat="48.39118" lon="2.45746">
        <ele>117.73</ele>
        <time>2024-05-27T01:28:57.009Z</time>
      </trkpt>
      <trkpt lat="48.39122" lon="2.45747">
        <ele>117.25</ele>
        <time>2024-05-27T01:29:07.119Z</time>
      </trkpt>
      <trkpt lat="48.39136" lon="2.45749">
        <ele>116.77</ele>
        <time>2024-05-27T01:29:17.232Z</time>
      </trkpt>
      <trkpt lat="48.39141" lon="2.4575">
        <ele>116.3</ele>
        <time>2024-05-27T01:29:27.346Z</time>
      </trkpt>
      <trkpt lat="48.39167" lon="2.45757">
        <ele>115.82</ele>
        <time>2024-05-27T01:29:37.466Z</time>
      </trkpt>
      <trkpt lat="48.39187" lon="2.45769">
        <ele>115.34</ele>
        <time>2024-05-27T01:29:47.590Z</time>
      </trkpt>
      <trkpt lat="48.39191" lon="2.45774">
        <ele>114.91</ele>
        <time>2024-05-27T01:29:57.715Z</time>
      </trkpt>
      <trkpt lat="48.39199" lon="2.45789">
        <ele>114.42</ele>
        <time>2024-05-27T01:30:07.842Z</time>
      </trkpt>
      <trkpt lat="48.392" lon="2.45794">
        <ele>114</ele>
        <time>2024-05-27T01:30:17.970Z</time>
      </trkpt>
      <trkpt lat="48.39201" lon="2.45799">
        <ele>113.6</ele>
        <time>2024-05-27T01:30:28.099Z</time>
      </trkpt>
      <trkpt lat="48.39201" lon="2.45806">
        <ele>113.23</ele>
        <time>2024-05-27T01:30:38.229Z</time>
      </trkpt>
      <trkpt lat="48.39201" lon="2.45811">
        <ele>112.89</ele>
        <time>2024-05-27T01:30:48.359Z</time>
      </trkpt>
      <trkpt lat="48.392" lon="2.45819">
        <ele>112.57</ele>
        <time>2024-05-27T01:30:58.490Z</time>
      </trkpt>
      <trkpt lat="48.39198" lon="2.45826">
        <ele>112.27</ele>
        <time>2024-05-27T01:31:08.622Z</time>
      </trkpt>
      <trkpt lat="48.39195" lon="2.45832">
        <ele>112.02</ele>
        <time>2024-05-27T01:31:18.755Z</time>
      </trkpt>
      <trkpt lat="48.39192" lon="2.45835">
        <ele>111.8</ele>
        <time>2024-05-27T01:31:28.889Z</time>
      </trkpt>
      <trkpt lat="48.3919" lon="2.45836">
        <ele>111.6</ele>
        <time>2024-05-27T01:31:39.024Z</time>
      </trkpt>
      <trkpt lat="48.39186" lon="2.45837">
        <ele>111.44</ele>
        <time>2024-05-27T01:31:49.159Z</time>
      </trkpt>
      <trkpt lat="48.39184" lon="2.45838">
        <ele>111.3</ele>
        <time>2024-05-27T01:31:59.295Z</time>
      </trkpt>
      <trkpt lat="48.39181" lon="2.45838">
        <ele>111.2</ele>
        <time>2024-05-27T01:32:09.431Z</time>
      </trkpt>
      <trkpt lat="48.39179" lon="2.45837">
        <ele>111.13</ele>
        <time>2024-05-27T01:32:19.568Z</time>
      </trkpt>
      <trkpt lat="48.39174" lon="2.45839">
        <ele>111.08</ele>
        <time>2024-05-27T01:32:29.706Z</time>
      </trkpt>
      <trkpt lat="48.39166" lon="2.45844">
        <ele>111.05</ele>
        <time>2024-05-27T01:32:39.846Z</time>
      </trkpt>
      <trkpt lat="48.39156" lon="2.45847">
        <ele>111.05</ele>
        <time>2024-05-27T01:32:49.988Z</time>
      </trkpt>
      <trkpt lat="48.39152" lon="2.45849">
        <ele>111.08</ele>
        <time>2024-05-27T01:33:00.130Z</time>
      </trkpt>
      <trkpt lat="48.39149" lon="2.4585">
        <ele>111.14</ele>
        <time>2024-05-27T01:33:10.273Z</time>
      </trkpt>
      <trkpt lat="48.39141" lon="2.45857">
        <ele>111.21</ele>
        <time>2024-05-27T01:33:20.418Z</time>
      </trkpt>
      <trkpt lat="48.39129" lon="2.45861">
        <ele>111.32</ele>
        <time>2024-05-27T01:33:30.566Z</time>
      </trkpt>
      <trkpt lat="48.39127" lon="2.45862">
        <ele>111.45</ele>
        <time>2024-05-27T01:33:40.714Z</time>
      </trkpt>
      <trkpt lat="48.39115" lon="2.45867">
        <ele>111.58</ele>
        <time>2024-05-27T01:33:50.864Z</time>
      </trkpt>
      <trkpt lat="48.39112" lon="2.45869">
        <ele>111.78</ele>
        <time>2024-05-27T01:34:01.015Z</time>
      </trkpt>
      <trkpt lat="48.39109" lon="2.45869">
        <ele>112</ele>
        <time>2024-05-27T01:34:11.167Z</time>
      </trkpt>
      <trkpt lat="48.39104" lon="2.45869">
        <ele>112.25</ele>
        <time>2024-05-27T01:34:21.320Z</time>
      </trkpt>
      <trkpt lat="48.39102" lon="2.45869">
        <ele>112.51</ele>
        <time>2024-05-27T01:34:31.473Z</time>
      </trkpt>
      <trkpt lat="48.391" lon="2.45869">
        <ele>112.8</ele>
        <time>2024-05-27T01:34:41.626Z</time>
      </trkpt>
      <trkpt lat="48.39092" lon="2.45873">
        <ele>113.11</ele>
        <time>2024-05-27T01:34:51.781Z</time>
      </trkpt>
      <trkpt lat="48.39088" lon="2.45874">
        <ele>113.43</ele>
        <time>2024-05-27T01:35:01.937Z</time>
      </trkpt>
      <trkpt lat="48.39083" lon="2.45875">
        <ele>113.79</ele>
        <time>2024-05-27T01:35:12.094Z</time>
      </trkpt>
      <trkpt lat="48.39081" lon="2.45875">
        <ele>114.16</ele>
        <time>2024-05-27T01:35:22.251Z</time>
      </trkpt>
      <trkpt lat="48.39076" lon="2.45877">
        <ele>114.54</ele>
        <time>2024-05-27T01:35:32.409Z</time>
      </trkpt>
      <trkpt lat="48.39072" lon="2.4588">
        <ele>114.94</ele>
        <time>2024-05-27T01:35:42.568Z</time>
      </trkpt>
      <trkpt lat="48.39068" lon="2.4588">
        <ele>115.37</ele>
        <time>2024-05-27T01:35:52.728Z</time>
      </trkpt>
      <trkpt lat="48.39057" lon="2.45888">
        <ele>115.82</ele>
        <time>2024-05-27T01:36:02.891Z</time>
      </trkpt>
      <trkpt lat="48.3904" lon="2.45898">
        <ele>116.27</ele>
        <time>2024-05-27T01:36:13.057Z</time>
      </trkpt>
      <trkpt lat="48.39025" lon="2.45905">
        <ele>116.76</ele>
        <time>2024-05-27T01:36:23.226Z</time>
      </trkpt>
      <trkpt lat="48.39022" lon="2.45906">
        <ele>117.23</ele>
        <time>2024-05-27T01:36:33.396Z</time>
      </trkpt>
      <trkpt lat="48.39016" lon="2.45906">
        <ele>117.71</ele>
        <time>2024-05-27T01:36:43.567Z</time>
      </trkpt>
      <trkpt lat="48.39013" lon="2.45902">
        <ele>118.2</ele>
        <time>2024-05-27T01:36:53.739Z</time>
      </trkpt>
      <trkpt lat="48.39" lon="2.45892">
        <ele>118.73</ele>
        <time>2024-05-27T01:37:03.914Z</time>
      </trkpt>
      <trkpt lat="48.38998" lon="2.45891">
        <ele>119.23</ele>
        <time>2024-05-27T01:37:14.089Z</time>
      </trkpt>
      <trkpt lat="48.38989" lon="2.45884">
        <ele>119.76</ele>
        <time>2024-05-27T01:37:24.266Z</time>
      </trkpt>
      <trkpt lat="48.38986" lon="2.45882">
        <ele>120.26</ele>
        <time>2024-05-27T01:37:34.444Z</time>
      </trkpt>
      <trkpt lat="48.38979" lon="2.45878">
        <ele>120.78</ele>
        <time>2024-05-27T01:37:44.623Z</time>
      </trkpt>
      <trkpt lat="48.38977" lon="2.45875">
        <ele>121.28</ele>
        <time>2024-05-27T01:37:54.803Z</time>
      </trkpt>
      <trkpt lat="48.38977" lon="2.4587">
        <ele>121.78</ele>
        <time>2024-05-27T01:38:04.984Z</time>
      </trkpt>
      <trkpt lat="48.38975" lon="2.45863">
        <ele>122.28</ele>
        <time>2024-05-27T01:38:15.166Z</time>
      </trkpt>
      <trkpt lat="48.38975" lon="2.4586">
        <ele>122.77</ele>
        <time>2024-05-27T01:38:25.348Z</time>
      </trkpt>
      <trkpt lat="48.38972" lon="2.4585">
        <ele>123.25</ele>
        <time>2024-05-27T01:38:35.531Z</time>
      </trkpt>
      <trkpt lat="48.38971" lon="2.45848">
        <ele>123.71</ele>
        <time>2024-05-27T01:38:45.715Z</time>
      </trkpt>
      <trkpt lat="48.38964" lon="2.45836">
        <ele>124.2</ele>
        <time>2024-05-27T01:38:55.901Z</time>
      </trkpt>
      <trkpt lat="48.3896" lon="2.45831">
        <ele>124.67</ele>
        <time>2024-05-27T01:39:06.088Z</time>
      </trkpt>
      <trkpt lat="48.38948" lon="2.4582">
        <ele>125.16</ele>
        <time>2024-05-27T01:39:16.278Z</time>
      </trkpt>
      <trkpt lat="48.38946" lon="2.4582">
        <ele>125.59</ele>
        <time>2024-05-27T01:39:26.468Z</time>
      </trkpt>
      <trkpt lat="48.38936" lon="2.45822">
        <ele>126.02</ele>
        <time>2024-05-27T01:39:36.660Z</time>
      </trkpt>
      <trkpt lat="48.38934" lon="2.45822">
        <ele>126.41</ele>
        <time>2024-05-27T01:39:46.852Z</time>
      </trkpt>
      <trkpt lat="48.38926" lon="2.45818">
        <ele>126.8</ele>
        <time>2024-05-27T01:39:57.046Z</time>
      </trkpt>
      <trkpt lat="48.38912" lon="2.4582">
        <ele>127.17</ele>
        <time>2024-05-27T01:40:07.243Z</time>
      </trkpt>
      <trkpt lat="48.38909" lon="2.45822">
        <ele>127.5</ele>
        <time>2024-05-27T01:40:17.441Z</time>
      </trkpt>
      <trkpt lat="48.38892" lon="2.45827">
        <ele>127.8</ele>
        <time>2024-05-27T01:40:27.642Z</time>
      </trkpt>
      <trkpt lat="48.38873" lon="2.45831">
        <ele>128.07</ele>
        <time>2024-05-27T01:40:37.847Z</time>
      </trkpt>
      <trkpt lat="48.38848" lon="2.45827">
        <ele>128.35</ele>
        <time>2024-05-27T01:40:48.057Z</time>
      </trkpt>
      <trkpt lat="48.38843" lon="2.45828">
        <ele>128.62</ele>
        <time>2024-05-27T01:40:58.268Z</time>
      </trkpt>
      <trkpt lat="48.38836" lon="2.45831">
        <ele>128.88</ele>
        <time>2024-05-27T01:41:08.480Z</time>
      </trkpt>
      <trkpt lat="48.3883" lon="2.45834">
        <ele>129.11</ele>
        <time>2024-05-27T01:41:18.694Z</time>
      </trkpt>
      <trkpt lat="48.38818" lon="2.45837">
        <ele>129.3</ele>
        <time>2024-05-27T01:41:28.910Z</time>
      </trkpt>
      <trkpt lat="48.38797" lon="2.45844">
        <ele>129.46</ele>
        <time>2024-05-27T01:41:39.131Z</time>
      </trkpt>
      <trkpt lat="48.38782" lon="2.45843">
        <ele>129.65</ele>
        <time>2024-05-27T01:41:49.354Z</time>
      </trkpt>
      <trkpt lat="48.38762" lon="2.45845">
        <ele>129.83</ele>
        <time>2024-05-27T01:41:59.581Z</time>
      </trkpt>
      <trkpt lat="48.38759" lon="2.45844">
        <ele>129.97</ele>
        <time>2024-05-27T01:42:09.809Z</time>
      </trkpt>
      <trkpt lat="48.38751" lon="2.4584">
        <ele>130.09</ele>
        <time>2024-05-27T01:42:20.039Z</time>
      </trkpt>
      <trkpt lat="48.38749" lon="2.45837">
        <ele>130.19</ele>
        <time>2024-05-27T01:42:30.269Z</time>
      </trkpt>
      <trkpt lat="48.38741" lon="2.45837">
        <ele>130.26</ele>
        <time>2024-05-27T01:42:40.501Z</time>
      </trkpt>
      <trkpt lat="48.38734" lon="2.45842">
        <ele>130.3</ele>
        <time>2024-05-27T01:42:50.734Z</time>
      </trkpt>
      <trkpt lat="48.38725" lon="2.45839">
        <ele>130.34</ele>
        <time>2024-05-27T01:43:00.969Z</time>
      </trkpt>
      <trkpt lat="48.38719" lon="2.45842">
        <ele>130.34</ele>
        <time>2024-05-27T01:43:11.206Z</time>
      </trkpt>
      <trkpt lat="48.38698" lon="2.45877">
        <ele>130.18</ele>
        <time>2024-05-27T01:43:21.449Z</time>
      </trkpt>
      <trkpt lat="48.38678" lon="2.45924">
        <ele>129.95</ele>
        <time>2024-05-27T01:43:31.699Z</time>
      </trkpt>
      <trkpt lat="48.38664" lon="2.45905">
        <ele>129.97</ele>
        <time>2024-05-27T01:43:41.953Z</time>
      </trkpt>
      <trkpt lat="48.38655" lon="2.45924">
        <ele>129.89</ele>
        <time>2024-05-27T01:43:52.210Z</time>
      </trkpt>
      <trkpt lat="48.38627" lon="2.45959">
        <ele>129.91</ele>
        <time>2024-05-27T01:44:02.475Z</time>
      </trkpt>
      <trkpt lat="48.38571" lon="2.46026">
        <ele>129.86</ele>
        <time>2024-05-27T01:44:12.754Z</time>
      </trkpt>
      <trkpt lat="48.38582" lon="2.4606">
        <ele>129.69</ele>
        <time>2024-05-27T01:44:23.038Z</time>
      </trkpt>
      <trkpt lat="48.38457" lon="2.46189">
        <ele>129.58</ele>
        <time>2024-05-27T01:44:33.352Z</time>
      </trkpt>
      <trkpt lat="48.38463" lon="2.46196">
        <ele>129.4</ele>
        <time>2024-05-27T01:44:43.668Z</time>
      </trkpt>
      <trkpt lat="48.38465" lon="2.46198">
        <ele>129.19</ele>
        <time>2024-05-27T01:44:53.984Z</time>
      </trkpt>
      <trkpt lat="48.38473" lon="2.46216">
        <ele>128.93</ele>
        <time>2024-05-27T01:45:04.303Z</time>
      </trkpt>
      <trkpt lat="48.38477" lon="2.46225">
        <ele>128.65</ele>
        <time>2024-05-27T01:45:14.624Z</time>
      </trkpt>
      <trkpt lat="48.38481" lon="2.46234">
        <ele>128.34</ele>
        <time>2024-05-27T01:45:24.946Z</time>
      </trkpt>
      <trkpt lat="48.38485" lon="2.46251">
        <ele>127.99</ele>
        <time>2024-05-27T01:45:35.271Z</time>
      </trkpt>
      <trkpt lat="48.38503" lon="2.46301">
        <ele>127.69</ele>
        <time>2024-05-27T01:45:45.603Z</time>
      </trkpt>
      <trkpt lat="48.38517" lon="2.46345">
        <ele>127.37</ele>
        <time>2024-05-27T01:45:55.942Z</time>
      </trkpt>
      <trkpt lat="48.38531" lon="2.46365">
        <ele>126.96</ele>
        <time>2024-05-27T01:46:06.284Z</time>
      </trkpt>
      <trkpt lat="48.38537" lon="2.46378">
        <ele>126.5</ele>
        <time>2024-05-27T01:46:16.629Z</time>
      </trkpt>
      <trkpt lat="48.38547" lon="2.464">
        <ele>126</ele>
        <time>2024-05-27T01:46:26.977Z</time>
      </trkpt>
      <trkpt lat="48.38553" lon="2.4642">
        <ele>125.43</ele>
        <time>2024-05-27T01:46:37.328Z</time>
      </trkpt>
      <trkpt lat="48.38563" lon="2.46447">
        <ele>124.8</ele>
        <time>2024-05-27T01:46:47.683Z</time>
      </trkpt>
      <trkpt lat="48.3857" lon="2.46472">
        <ele>124.1</ele>
        <time>2024-05-27T01:46:58.042Z</time>
      </trkpt>
      <trkpt lat="48.38577" lon="2.46501">
        <ele>123.33</ele>
        <time>2024-05-27T01:47:08.405Z</time>
      </trkpt>
      <trkpt lat="48.38584" lon="2.46528">
        <ele>122.51</ele>
        <time>2024-05-27T01:47:18.772Z</time>
      </trkpt>
      <trkpt lat="48.38591" lon="2.46559">
        <ele>121.62</ele>
        <time>2024-05-27T01:47:29.143Z</time>
      </trkpt>
      <trkpt lat="48.38605" lon="2.46588">
        <ele>120.63</ele>
        <time>2024-05-27T01:47:39.519Z</time>
      </trkpt>
      <trkpt lat="48.38609" lon="2.46599">
        <ele>119.63</ele>
        <time>2024-05-27T01:47:49.897Z</time>
      </trkpt>
      <trkpt lat="48.38611" lon="2.46607">
        <ele>118.62</ele>
        <time>2024-05-27T01:48:00.276Z</time>
      </trkpt>
      <trkpt lat="48.38608" lon="2.46637">
        <ele>117.5</ele>
        <time>2024-05-27T01:48:10.659Z</time>
      </trkpt>
      <trkpt lat="48.38607" lon="2.4665">
        <ele>116.39</ele>
        <time>2024-05-27T01:48:21.043Z</time>
      </trkpt>
      <trkpt lat="48.38605" lon="2.46663">
        <ele>115.25</ele>
        <time>2024-05-27T01:48:31.429Z</time>
      </trkpt>
      <trkpt lat="48.38601" lon="2.46684">
        <ele>114.06</ele>
        <time>2024-05-27T01:48:41.818Z</time>
      </trkpt>
      <trkpt lat="48.38598" lon="2.46693">
        <ele>112.87</ele>
        <time>2024-05-27T01:48:52.209Z</time>
      </trkpt>
      <trkpt lat="48.38595" lon="2.46701">
        <ele>111.7</ele>
        <time>2024-05-27T01:49:02.601Z</time>
      </trkpt>
      <trkpt lat="48.38593" lon="2.46709">
        <ele>110.51</ele>
        <time>2024-05-27T01:49:12.994Z</time>
      </trkpt>
      <trkpt lat="48.38591" lon="2.46716">
        <ele>109.31</ele>
        <time>2024-05-27T01:49:23.388Z</time>
      </trkpt>
      <trkpt lat="48.3859" lon="2.46725">
        <ele>108.11</ele>
        <time>2024-05-27T01:49:33.783Z</time>
      </trkpt>
      <trkpt lat="48.38589" lon="2.46735">
        <ele>106.91</ele>
        <time>2024-05-27T01:49:44.179Z</time>
      </trkpt>
      <trkpt lat="48.38589" lon="2.46749">
        <ele>105.69</ele>
        <time>2024-05-27T01:49:54.577Z</time>
      </trkpt>
      <trkpt lat="48.38588" lon="2.46764">
        <ele>104.49</ele>
        <time>2024-05-27T01:50:04.977Z</time>
      </trkpt>
      <trkpt lat="48.38587" lon="2.46781">
        <ele>103.31</ele>
        <time>2024-05-27T01:50:15.380Z</time>
      </trkpt>
      <trkpt lat="48.38586" lon="2.46798">
        <ele>102.17</ele>
        <time>2024-05-27T01:50:25.785Z</time>
      </trkpt>
      <trkpt lat="48.38587" lon="2.46814">
        <ele>101.06</ele>
        <time>2024-05-27T01:50:36.192Z</time>
      </trkpt>
      <trkpt lat="48.38587" lon="2.4683">
        <ele>99.97</ele>
        <time>2024-05-27T01:50:46.601Z</time>
      </trkpt>
      <trkpt lat="48.38589" lon="2.46845">
        <ele>98.93</ele>
        <time>2024-05-27T01:50:57.012Z</time>
      </trkpt>
      <trkpt lat="48.3859" lon="2.4686">
        <ele>97.98</ele>
        <time>2024-05-27T01:51:07.425Z</time>
      </trkpt>
      <trkpt lat="48.38594" lon="2.46877">
        <ele>97.04</ele>
        <time>2024-05-27T01:51:17.841Z</time>
      </trkpt>
      <trkpt lat="48.38597" lon="2.46892">
        <ele>96.14</ele>
        <time>2024-05-27T01:51:28.259Z</time>
      </trkpt>
      <trkpt lat="48.386" lon="2.46906">
        <ele>95.26</ele>
        <time>2024-05-27T01:51:38.679Z</time>
      </trkpt>
      <trkpt lat="48.38603" lon="2.46919">
        <ele>94.47</ele>
        <time>2024-05-27T01:51:49.101Z</time>
      </trkpt>
      <trkpt lat="48.38608" lon="2.46931">
        <ele>93.7</ele>
        <time>2024-05-27T01:51:59.524Z</time>
      </trkpt>
      <trkpt lat="48.38613" lon="2.46942">
        <ele>93</ele>
        <time>2024-05-27T01:52:09.949Z</time>
      </trkpt>
      <trkpt lat="48.38618" lon="2.46951">
        <ele>92.35</ele>
        <time>2024-05-27T01:52:20.376Z</time>
      </trkpt>
      <trkpt lat="48.38627" lon="2.46971">
        <ele>91.72</ele>
        <time>2024-05-27T01:52:30.806Z</time>
      </trkpt>
      <trkpt lat="48.38631" lon="2.4698">
        <ele>91.18</ele>
        <time>2024-05-27T01:52:41.237Z</time>
      </trkpt>
      <trkpt lat="48.38634" lon="2.4699">
        <ele>90.7</ele>
        <time>2024-05-27T01:52:51.670Z</time>
      </trkpt>
      <trkpt lat="48.38632" lon="2.47006">
        <ele>90.28</ele>
        <time>2024-05-27T01:53:02.105Z</time>
      </trkpt>
      <trkpt lat="48.38623" lon="2.47016">
        <ele>89.95</ele>
        <time>2024-05-27T01:53:12.542Z</time>
      </trkpt>
      <trkpt lat="48.38617" lon="2.47014">
        <ele>89.7</ele>
        <time>2024-05-27T01:53:22.980Z</time>
      </trkpt>
      <trkpt lat="48.38612" lon="2.47013">
        <ele>89.5</ele>
        <time>2024-05-27T01:53:33.419Z</time>
      </trkpt>
      <trkpt lat="48.386" lon="2.47013">
        <ele>89.37</ele>
        <time>2024-05-27T01:53:43.861Z</time>
      </trkpt>
      <trkpt lat="48.38598" lon="2.47012">
        <ele>89.27</ele>
        <time>2024-05-27T01:53:54.303Z</time>
      </trkpt>
      <trkpt lat="48.3859" lon="2.47002">
        <ele>89.26</ele>
        <time>2024-05-27T01:54:04.747Z</time>
      </trkpt>
      <trkpt lat="48.38588" lon="2.46997">
        <ele>89.26</ele>
        <time>2024-05-27T01:54:15.192Z</time>
      </trkpt>
      <trkpt lat="48.38586" lon="2.46996">
        <ele>89.28</ele>
        <time>2024-05-27T01:54:25.638Z</time>
      </trkpt>
      <trkpt lat="48.38582" lon="2.46991">
        <ele>89.36</ele>
        <time>2024-05-27T01:54:36.085Z</time>
      </trkpt>
      <trkpt lat="48.38581" lon="2.46989">
        <ele>89.46</ele>
        <time>2024-05-27T01:54:46.532Z</time>
      </trkpt>
      <trkpt lat="48.38578" lon="2.46979">
        <ele>89.61</ele>
        <time>2024-05-27T01:54:56.980Z</time>
      </trkpt>
      <trkpt lat="48.38577" lon="2.46977">
        <ele>89.76</ele>
        <time>2024-05-27T01:55:07.429Z</time>
      </trkpt>
      <trkpt lat="48.38573" lon="2.46972">
        <ele>89.95</ele>
        <time>2024-05-27T01:55:17.879Z</time>
      </trkpt>
      <trkpt lat="48.38567" lon="2.46971">
        <ele>90.16</ele>
        <time>2024-05-27T01:55:28.330Z</time>
      </trkpt>
      <trkpt lat="48.38566" lon="2.46971">
        <ele>90.34</ele>
        <time>2024-05-27T01:55:38.781Z</time>
      </trkpt>
      <trkpt lat="48.38564" lon="2.46972">
        <ele>90.54</ele>
        <time>2024-05-27T01:55:49.233Z</time>
      </trkpt>
      <trkpt lat="48.38557" lon="2.46972">
        <ele>90.77</ele>
        <time>2024-05-27T01:55:59.686Z</time>
      </trkpt>
      <trkpt lat="48.38551" lon="2.46972">
        <ele>90.99</ele>
        <time>2024-05-27T01:56:10.140Z</time>
      </trkpt>
      <trkpt lat="48.38545" lon="2.46975">
        <ele>91.19</ele>
        <time>2024-05-27T01:56:20.595Z</time>
      </trkpt>
      <trkpt lat="48.38543" lon="2.46976">
        <ele>91.37</ele>
        <time>2024-05-27T01:56:31.051Z</time>
      </trkpt>
      <trkpt lat="48.38539" lon="2.46977">
        <ele>91.54</ele>
        <time>2024-05-27T01:56:41.508Z</time>
      </trkpt>
      <trkpt lat="48.38537" lon="2.46977">
        <ele>91.69</ele>
        <time>2024-05-27T01:56:51.965Z</time>
      </trkpt>
      <trkpt lat="48.38536" lon="2.46977">
        <ele>91.83</ele>
        <time>2024-05-27T01:57:02.422Z</time>
      </trkpt>
      <trkpt lat="48.38533" lon="2.46979">
        <ele>91.95</ele>
        <time>2024-05-27T01:57:12.880Z</time>
      </trkpt>
      <trkpt lat="48.38524" lon="2.46978">
        <ele>92.07</ele>
        <time>2024-05-27T01:57:23.340Z</time>
      </trkpt>
      <trkpt lat="48.38522" lon="2.4698">
        <ele>92.14</ele>
        <time>2024-05-27T01:57:33.800Z</time>
      </trkpt>
      <trkpt lat="48.3852" lon="2.46982">
        <ele>92.18</ele>
        <time>2024-05-27T01:57:44.261Z</time>
      </trkpt>
      <trkpt lat="48.38519" lon="2.46985">
        <ele>92.19</ele>
        <time>2024-05-27T01:57:54.722Z</time>
      </trkpt>
      <trkpt lat="48.38516" lon="2.47002">
        <ele>92.13</ele>
        <time>2024-05-27T01:58:05.185Z</time>
      </trkpt>
      <trkpt lat="48.38511" lon="2.47027">
        <ele>92.04</ele>
        <time>2024-05-27T01:58:15.652Z</time>
      </trkpt>
      <trkpt lat="48.3851" lon="2.47034">
        <ele>91.96</ele>
        <time>2024-05-27T01:58:26.120Z</time>
      </trkpt>
      <trkpt lat="48.38508" lon="2.47042">
        <ele>91.86</ele>
        <time>2024-05-27T01:58:36.589Z</time>
      </trkpt>
      <trkpt lat="48.38508" lon="2.47047">
        <ele>91.75</ele>
        <time>2024-05-27T01:58:47.059Z</time>
      </trkpt>
      <trkpt lat="48.38507" lon="2.47057">
        <ele>91.62</ele>
        <time>2024-05-27T01:58:57.530Z</time>
      </trkpt>
      <trkpt lat="48.38502" lon="2.47068">
        <ele>91.46</ele>
        <time>2024-05-27T01:59:08.003Z</time>
      </trkpt>
      <trkpt lat="48.38493" lon="2.47076">
        <ele>91.3</ele>
        <time>2024-05-27T01:59:18.478Z</time>
      </trkpt>
      <trkpt lat="48.38484" lon="2.47086">
        <ele>91.09</ele>
        <time>2024-05-27T01:59:28.955Z</time>
      </trkpt>
      <trkpt lat="48.38481" lon="2.47101">
        <ele>90.86</ele>
        <time>2024-05-27T01:59:39.434Z</time>
      </trkpt>
      <trkpt lat="48.38479" lon="2.47112">
        <ele>90.63</ele>
        <time>2024-05-27T01:59:49.915Z</time>
      </trkpt>
      <trkpt lat="48.38478" lon="2.47116">
        <ele>90.42</ele>
        <time>2024-05-27T02:00:00.396Z</time>
      </trkpt>
      <trkpt lat="48.38479" lon="2.47117">
        <ele>90.19</ele>
        <time>2024-05-27T02:00:10.878Z</time>
      </trkpt>
      <trkpt lat="48.3848" lon="2.47117">
        <ele>89.96</ele>
        <time>2024-05-27T02:00:21.360Z</time>
      </trkpt>
      <trkpt lat="48.38481" lon="2.4712">
        <ele>89.73</ele>
        <time>2024-05-27T02:00:31.842Z</time>
      </trkpt>
      <trkpt lat="48.38481" lon="2.47122">
        <ele>89.49</ele>
        <time>2024-05-27T02:00:42.324Z</time>
      </trkpt>
      <trkpt lat="48.3848" lon="2.47135">
        <ele>89.22</ele>
        <time>2024-05-27T02:00:52.808Z</time>
      </trkpt>
      <trkpt lat="48.38479" lon="2.47143">
        <ele>88.97</ele>
        <time>2024-05-27T02:01:03.293Z</time>
      </trkpt>
      <trkpt lat="48.38479" lon="2.47156">
        <ele>88.72</ele>
        <time>2024-05-27T02:01:13.780Z</time>
      </trkpt>
      <trkpt lat="48.38479" lon="2.4717">
        <ele>88.47</ele>
        <time>2024-05-27T02:01:24.269Z</time>
      </trkpt>
      <trkpt lat="48.38477" lon="2.47173">
        <ele>88.25</ele>
        <time>2024-05-27T02:01:34.758Z</time>
      </trkpt>
      <trkpt lat="48.38476" lon="2.47177">
        <ele>88.04</ele>
        <time>2024-05-27T02:01:45.248Z</time>
      </trkpt>
      <trkpt lat="48.38472" lon="2.47179">
        <ele>87.85</ele>
        <time>2024-05-27T02:01:55.739Z</time>
      </trkpt>
      <trkpt lat="48.38471" lon="2.4718">
        <ele>87.68</ele>
        <time>2024-05-27T02:02:06.230Z</time>
      </trkpt>
      <trkpt lat="48.3847" lon="2.47181">
        <ele>87.53</ele>
        <time>2024-05-27T02:02:16.721Z</time>
      </trkpt>
      <trkpt lat="48.38467" lon="2.47181">
        <ele>87.39</ele>
        <time>2024-05-27T02:02:27.213Z</time>
      </trkpt>
      <trkpt lat="48.38459" lon="2.47175">
        <ele>87.27</ele>
        <time>2024-05-27T02:02:37.707Z</time>
      </trkpt>
      <trkpt lat="48.38449" lon="2.47168">
        <ele>87.16</ele>
        <time>2024-05-27T02:02:48.203Z</time>
      </trkpt>
      <trkpt lat="48.3844" lon="2.4716">
        <ele>87.11</ele>
        <time>2024-05-27T02:02:58.701Z</time>
      </trkpt>
      <trkpt lat="48.38439" lon="2.47159">
        <ele>87.07</ele>
        <time>2024-05-27T02:03:09.199Z</time>
      </trkpt>
      <trkpt lat="48.38436" lon="2.47154">
        <ele>87.07</ele>
        <time>2024-05-27T02:03:19.698Z</time>
      </trkpt>
      <trkpt lat="48.38432" lon="2.47145">
        <ele>87.11</ele>
        <time>2024-05-27T02:03:30.198Z</time>
      </trkpt>
      <trkpt lat="48.38431" lon="2.47142">
        <ele>87.16</ele>
        <time>2024-05-27T02:03:40.699Z</time>
      </trkpt>
      <trkpt lat="48.38431" lon="2.4714">
        <ele>87.24</ele>
        <time>2024-05-27T02:03:51.200Z</time>
      </trkpt>
      <trkpt lat="48.38431" lon="2.47133">
        <ele>87.36</ele>
        <time>2024-05-27T02:04:01.702Z</time>
      </trkpt>
      <trkpt lat="48.38431" lon="2.47131">
        <ele>87.49</ele>
        <time>2024-05-27T02:04:12.204Z</time>
      </trkpt>
      <trkpt lat="48.38432" lon="2.4713">
        <ele>87.64</ele>
        <time>2024-05-27T02:04:22.707Z</time>
      </trkpt>
      <trkpt lat="48.38435" lon="2.47126">
        <ele>87.84</ele>
        <time>2024-05-27T02:04:33.210Z</time>
      </trkpt>
      <trkpt lat="48.38435" lon="2.47123">
        <ele>88.06</ele>
        <time>2024-05-27T02:04:43.714Z</time>
      </trkpt>
      <trkpt lat="48.38436" lon="2.47118">
        <ele>88.3</ele>
        <time>2024-05-27T02:04:54.218Z</time>
      </trkpt>
      <trkpt lat="48.38436" lon="2.47113">
        <ele>88.57</ele>
        <time>2024-05-27T02:05:04.723Z</time>
      </trkpt>
      <trkpt lat="48.38436" lon="2.47111">
        <ele>88.86</ele>
        <time>2024-05-27T02:05:15.228Z</time>
      </trkpt>
      <trkpt lat="48.38437" lon="2.47105">
        <ele>89.17</ele>
        <time>2024-05-27T02:05:25.734Z</time>
      </trkpt>
      <trkpt lat="48.38437" lon="2.47101">
        <ele>89.51</ele>
        <time>2024-05-27T02:05:36.241Z</time>
      </trkpt>
      <trkpt lat="48.38439" lon="2.47093">
        <ele>89.89</ele>
        <time>2024-05-27T02:05:46.749Z</time>
      </trkpt>
      <trkpt lat="48.38442" lon="2.47089">
        <ele>90.27</ele>
        <time>2024-05-27T02:05:57.258Z</time>
      </trkpt>
      <trkpt lat="48.38443" lon="2.47088">
        <ele>90.66</ele>
        <time>2024-05-27T02:06:07.767Z</time>
      </trkpt>
      <trkpt lat="48.38447" lon="2.47083">
        <ele>91.09</ele>
        <time>2024-05-27T02:06:18.277Z</time>
      </trkpt>
      <trkpt lat="48.38452" lon="2.47078">
        <ele>91.52</ele>
        <time>2024-05-27T02:06:28.788Z</time>
      </trkpt>
      <trkpt lat="48.38456" lon="2.47074">
        <ele>91.97</ele>
        <time>2024-05-27T02:06:39.300Z</time>
      </trkpt>
      <trkpt lat="48.3846" lon="2.47066">
        <ele>92.45</ele>
        <time>2024-05-27T02:06:49.813Z</time>
      </trkpt>
      <trkpt lat="48.38461" lon="2.47063">
        <ele>92.92</ele>
        <time>2024-05-27T02:07:00.327Z</time>
      </trkpt>
      <trkpt lat="48.38463" lon="2.4705">
        <ele>93.43</ele>
        <time>2024-05-27T02:07:10.843Z</time>
      </trkpt>
      <trkpt lat="48.38465" lon="2.4703">
        <ele>93.96</ele>
        <time>2024-05-27T02:07:21.361Z</time>
      </trkpt>
      <trkpt lat="48.38467" lon="2.47013">
        <ele>94.49</ele>
        <time>2024-05-27T02:07:31.882Z</time>
      </trkpt>
      <trkpt lat="48.38469" lon="2.46994">
        <ele>95.02</ele>
        <time>2024-05-27T02:07:42.405Z</time>
      </trkpt>
      <trkpt lat="48.38469" lon="2.46983">
        <ele>95.55</ele>
        <time>2024-05-27T02:07:52.930Z</time>
      </trkpt>
      <trkpt lat="48.38469" lon="2.46978">
        <ele>96.07</ele>
        <time>2024-05-27T02:08:03.455Z</time>
      </trkpt>
      <trkpt lat="48.38471" lon="2.46959">
        <ele>96.61</ele>
        <time>2024-05-27T02:08:13.983Z</time>
      </trkpt>
      <trkpt lat="48.38475" lon="2.46952">
        <ele>97.13</ele>
        <time>2024-05-27T02:08:24.512Z</time>
      </trkpt>
      <trkpt lat="48.38477" lon="2.46951">
        <ele>97.64</ele>
        <time>2024-05-27T02:08:35.042Z</time>
      </trkpt>
      <trkpt lat="48.38478" lon="2.4695">
        <ele>98.14</ele>
        <time>2024-05-27T02:08:45.572Z</time>
      </trkpt>
      <trkpt lat="48.38479" lon="2.46949">
        <ele>98.65</ele>
        <time>2024-05-27T02:08:56.102Z</time>
      </trkpt>
      <trkpt lat="48.3848" lon="2.46951">
        <ele>99.14</ele>
        <time>2024-05-27T02:09:06.632Z</time>
      </trkpt>
      <trkpt lat="48.38481" lon="2.46951">
        <ele>99.64</ele>
        <time>2024-05-27T02:09:17.163Z</time>
      </trkpt>
      <trkpt lat="48.38485" lon="2.46948">
        <ele>100.15</ele>
        <time>2024-05-27T02:09:27.695Z</time>
      </trkpt>
      <trkpt lat="48.38492" lon="2.46941">
        <ele>100.67</ele>
        <time>2024-05-27T02:09:38.228Z</time>
      </trkpt>
      <trkpt lat="48.38496" lon="2.46937">
        <ele>101.17</ele>
        <time>2024-05-27T02:09:48.762Z</time>
      </trkpt>
      <trkpt lat="48.38505" lon="2.46925">
        <ele>101.66</ele>
        <time>2024-05-27T02:09:59.299Z</time>
      </trkpt>
      <trkpt lat="48.38506" lon="2.46921">
        <ele>102.14</ele>
        <time>2024-05-27T02:10:09.836Z</time>
      </trkpt>
      <trkpt lat="48.38517" lon="2.46895">
        <ele>102.62</ele>
        <time>2024-05-27T02:10:20.377Z</time>
      </trkpt>
      <trkpt lat="48.38523" lon="2.46877">
        <ele>103.06</ele>
        <time>2024-05-27T02:10:30.921Z</time>
      </trkpt>
      <trkpt lat="48.38523" lon="2.46866">
        <ele>103.51</ele>
        <time>2024-05-27T02:10:41.466Z</time>
      </trkpt>
      <trkpt lat="48.38521" lon="2.46857">
        <ele>103.97</ele>
        <time>2024-05-27T02:10:52.013Z</time>
      </trkpt>
      <trkpt lat="48.38521" lon="2.46854">
        <ele>104.43</ele>
        <time>2024-05-27T02:11:02.560Z</time>
      </trkpt>
      <trkpt lat="48.38519" lon="2.46836">
        <ele>104.89</ele>
        <time>2024-05-27T02:11:13.110Z</time>
      </trkpt>
      <trkpt lat="48.38513" lon="2.46828">
        <ele>105.37</ele>
        <time>2024-05-27T02:11:23.661Z</time>
      </trkpt>
      <trkpt lat="48.38515" lon="2.46817">
        <ele>105.84</ele>
        <time>2024-05-27T02:11:34.214Z</time>
      </trkpt>
      <trkpt lat="48.38516" lon="2.46813">
        <ele>106.28</ele>
        <time>2024-05-27T02:11:44.767Z</time>
      </trkpt>
      <trkpt lat="48.38523" lon="2.46798">
        <ele>106.73</ele>
        <time>2024-05-27T02:11:55.323Z</time>
      </trkpt>
      <trkpt lat="48.38529" lon="2.46782">
        <ele>107.2</ele>
        <time>2024-05-27T02:12:05.881Z</time>
      </trkpt>
      <trkpt lat="48.38533" lon="2.46769">
        <ele>107.65</ele>
        <time>2024-05-27T02:12:16.441Z</time>
      </trkpt>
      <trkpt lat="48.38538" lon="2.46766">
        <ele>108.07</ele>
        <time>2024-05-27T02:12:27.002Z</time>
      </trkpt>
      <trkpt lat="48.38545" lon="2.4676">
        <ele>108.49</ele>
        <time>2024-05-27T02:12:37.565Z</time>
      </trkpt>
      <trkpt lat="48.3855" lon="2.46753">
        <ele>108.93</ele>
        <time>2024-05-27T02:12:48.129Z</time>
      </trkpt>
      <trkpt lat="48.38556" lon="2.46738">
        <ele>109.41</ele>
        <time>2024-05-27T02:12:58.695Z</time>
      </trkpt>
      <trkpt lat="48.38556" lon="2.46734">
        <ele>109.84</ele>
        <time>2024-05-27T02:13:09.262Z</time>
      </trkpt>
      <trkpt lat="48.38557" lon="2.4673">
        <ele>110.27</ele>
        <time>2024-05-27T02:13:19.829Z</time>
      </trkpt>
      <trkpt lat="48.38559" lon="2.46725">
        <ele>110.69</ele>
        <time>2024-05-27T02:13:30.397Z</time>
      </trkpt>
      <trkpt lat="48.38561" lon="2.46724">
        <ele>111.08</ele>
        <time>2024-05-27T02:13:40.966Z</time>
      </trkpt>
      <trkpt lat="48.38562" lon="2.46722">
        <ele>111.47</ele>
        <time>2024-05-27T02:13:51.535Z</time>
      </trkpt>
      <trkpt lat="48.38564" lon="2.46718">
        <ele>111.86</ele>
        <time>2024-05-27T02:14:02.105Z</time>
      </trkpt>
      <trkpt lat="48.38568" lon="2.46713">
        <ele>112.25</ele>
        <time>2024-05-27T02:14:12.676Z</time>
      </trkpt>
      <trkpt lat="48.38573" lon="2.46708">
        <ele>112.62</ele>
        <time>2024-05-27T02:14:23.248Z</time>
      </trkpt>
      <trkpt lat="48.38575" lon="2.46706">
        <ele>112.96</ele>
        <time>2024-05-27T02:14:33.820Z</time>
      </trkpt>
      <trkpt lat="48.38584" lon="2.46697">
        <ele>113.32</ele>
        <time>2024-05-27T02:14:44.394Z</time>
      </trkpt>
      <trkpt lat="48.38589" lon="2.4669">
        <ele>113.67</ele>
        <time>2024-05-27T02:14:54.970Z</time>
      </trkpt>
      <trkpt lat="48.3859" lon="2.46687">
        <ele>113.98</ele>
        <time>2024-05-27T02:15:05.546Z</time>
      </trkpt>
      <trkpt lat="48.3859" lon="2.46684">
        <ele>114.26</ele>
        <time>2024-05-27T02:15:16.123Z</time>
      </trkpt>
      <trkpt lat="48.38589" lon="2.4668">
        <ele>114.54</ele>
        <time>2024-05-27T02:15:26.700Z</time>
      </trkpt>
      <trkpt lat="48.38588" lon="2.46676">
        <ele>114.78</ele>
        <time>2024-05-27T02:15:37.278Z</time>
      </trkpt>
      <trkpt lat="48.38586" lon="2.46675">
        <ele>114.99</ele>
        <time>2024-05-27T02:15:47.856Z</time>
      </trkpt>
      <trkpt lat="48.38585" lon="2.46675">
        <ele>115.18</ele>
        <time>2024-05-27T02:15:58.434Z</time>
      </trkpt>
      <trkpt lat="48.38582" lon="2.46673">
        <ele>115.34</ele>
        <time>2024-05-27T02:16:09.013Z</time>
      </trkpt>
      <trkpt lat="48.38579" lon="2.46673">
        <ele>115.48</ele>
        <time>2024-05-27T02:16:19.593Z</time>
      </trkpt>
      <trkpt lat="48.38572" lon="2.46681">
        <ele>115.57</ele>
        <time>2024-05-27T02:16:30.174Z</time>
      </trkpt>
      <trkpt lat="48.38565" lon="2.46696">
        <ele>115.59</ele>
        <time>2024-05-27T02:16:40.758Z</time>
      </trkpt>
      <trkpt lat="48.38555" lon="2.46712">
        <ele>115.59</ele>
        <time>2024-05-27T02:16:51.345Z</time>
      </trkpt>
      <trkpt lat="48.38552" lon="2.46714">
        <ele>115.64</ele>
        <time>2024-05-27T02:17:01.932Z</time>
      </trkpt>
      <trkpt lat="48.3855" lon="2.46716">
        <ele>115.67</ele>
        <time>2024-05-27T02:17:12.520Z</time>
      </trkpt>
      <trkpt lat="48.38549" lon="2.46718">
        <ele>115.68</ele>
        <time>2024-05-27T02:17:23.108Z</time>
      </trkpt>
      <trkpt lat="48.38545" lon="2.46724">
        <ele>115.66</ele>
        <time>2024-05-27T02:17:33.697Z</time>
      </trkpt>
      <trkpt lat="48.38543" lon="2.46727">
        <ele>115.63</ele>
        <time>2024-05-27T02:17:44.287Z</time>
      </trkpt>
      <trkpt lat="48.3853" lon="2.46731">
        <ele>115.64</ele>
        <time>2024-05-27T02:17:54.880Z</time>
      </trkpt>
      <trkpt lat="48.38519" lon="2.46736">
        <ele>115.61</ele>
        <time>2024-05-27T02:18:05.475Z</time>
      </trkpt>
      <trkpt lat="48.38517" lon="2.46737">
        <ele>115.53</ele>
        <time>2024-05-27T02:18:16.070Z</time>
      </trkpt>
      <trkpt lat="48.38511" lon="2.46742">
        <ele>115.43</ele>
        <time>2024-05-27T02:18:26.667Z</time>
      </trkpt>
      <trkpt lat="48.38508" lon="2.46744">
        <ele>115.31</ele>
        <time>2024-05-27T02:18:37.264Z</time>
      </trkpt>
      <trkpt lat="48.38506" lon="2.46746">
        <ele>115.15</ele>
        <time>2024-05-27T02:18:47.862Z</time>
      </trkpt>
      <trkpt lat="48.38496" lon="2.4675">
        <ele>115</ele>
        <time>2024-05-27T02:18:58.462Z</time>
      </trkpt>
      <trkpt lat="48.38494" lon="2.46746">
        <ele>114.84</ele>
        <time>2024-05-27T02:19:09.063Z</time>
      </trkpt>
      <trkpt lat="48.38493" lon="2.4674">
        <ele>114.65</ele>
        <time>2024-05-27T02:19:19.664Z</time>
      </trkpt>
      <trkpt lat="48.38491" lon="2.46736">
        <ele>114.44</ele>
        <time>2024-05-27T02:19:30.266Z</time>
      </trkpt>
      <trkpt lat="48.38487" lon="2.46735">
        <ele>114.19</ele>
        <time>2024-05-27T02:19:40.869Z</time>
      </trkpt>
      <trkpt lat="48.38484" lon="2.46734">
        <ele>113.91</ele>
        <time>2024-05-27T02:19:51.472Z</time>
      </trkpt>
      <trkpt lat="48.38483" lon="2.46734">
        <ele>113.59</ele>
        <time>2024-05-27T02:20:02.076Z</time>
      </trkpt>
      <trkpt lat="48.38479" lon="2.46742">
        <ele>113.21</ele>
        <time>2024-05-27T02:20:12.681Z</time>
      </trkpt>
      <trkpt lat="48.38479" lon="2.46746">
        <ele>112.81</ele>
        <time>2024-05-27T02:20:23.287Z</time>
      </trkpt>
      <trkpt lat="48.38476" lon="2.46762">
        <ele>112.34</ele>
        <time>2024-05-27T02:20:33.895Z</time>
      </trkpt>
      <trkpt lat="48.38474" lon="2.46764">
        <ele>111.92</ele>
        <time>2024-05-27T02:20:44.503Z</time>
      </trkpt>
      <trkpt lat="48.38469" lon="2.46764">
        <ele>111.5</ele>
        <time>2024-05-27T02:20:55.112Z</time>
      </trkpt>
      <trkpt lat="48.38461" lon="2.46764">
        <ele>111.05</ele>
        <time>2024-05-27T02:21:05.723Z</time>
      </trkpt>
      <trkpt lat="48.38455" lon="2.46768">
        <ele>110.57</ele>
        <time>2024-05-27T02:21:16.335Z</time>
      </trkpt>
      <trkpt lat="48.3845" lon="2.46779">
        <ele>110.04</ele>
        <time>2024-05-27T02:21:26.949Z</time>
      </trkpt>
      <trkpt lat="48.38443" lon="2.46784">
        <ele>109.53</ele>
        <time>2024-05-27T02:21:37.564Z</time>
      </trkpt>
      <trkpt lat="48.38422" lon="2.46793">
        <ele>108.9</ele>
        <time>2024-05-27T02:21:48.184Z</time>
      </trkpt>
      <trkpt lat="48.38418" lon="2.46795">
        <ele>108.38</ele>
        <time>2024-05-27T02:21:58.805Z</time>
      </trkpt>
      <trkpt lat="48.38413" lon="2.46795">
        <ele>107.85</ele>
        <time>2024-05-27T02:22:09.427Z</time>
      </trkpt>
      <trkpt lat="48.38407" lon="2.46795">
        <ele>107.31</ele>
        <time>2024-05-27T02:22:20.050Z</time>
      </trkpt>
      <trkpt lat="48.38397" lon="2.46795">
        <ele>106.77</ele>
        <time>2024-05-27T02:22:30.675Z</time>
      </trkpt>
      <trkpt lat="48.38388" lon="2.46797">
        <ele>106.22</ele>
        <time>2024-05-27T02:22:41.302Z</time>
      </trkpt>
      <trkpt lat="48.38376" lon="2.46803">
        <ele>105.65</ele>
        <time>2024-05-27T02:22:51.931Z</time>
      </trkpt>
      <trkpt lat="48.38366" lon="2.46808">
        <ele>105.09</ele>
        <time>2024-05-27T02:23:02.562Z</time>
      </trkpt>
      <trkpt lat="48.38358" lon="2.46805">
        <ele>104.58</ele>
        <time>2024-05-27T02:23:13.195Z</time>
      </trkpt>
      <trkpt lat="48.38351" lon="2.46796">
        <ele>104.1</ele>
        <time>2024-05-27T02:23:23.830Z</time>
      </trkpt>
      <trkpt lat="48.38346" lon="2.46788">
        <ele>103.64</ele>
        <time>2024-05-27T02:23:34.466Z</time>
      </trkpt>
      <trkpt lat="48.38344" lon="2.46785">
        <ele>103.18</ele>
        <time>2024-05-27T02:23:45.103Z</time>
      </trkpt>
      <trkpt lat="48.38342" lon="2.46782">
        <ele>102.74</ele>
        <time>2024-05-27T02:23:55.740Z</time>
      </trkpt>
      <trkpt lat="48.38339" lon="2.46774">
        <ele>102.32</ele>
        <time>2024-05-27T02:24:06.379Z</time>
      </trkpt>
      <trkpt lat="48.38338" lon="2.46771">
        <ele>101.9</ele>
        <time>2024-05-27T02:24:17.018Z</time>
      </trkpt>
      <trkpt lat="48.38337" lon="2.46755">
        <ele>101.52</ele>
        <time>2024-05-27T02:24:27.659Z</time>
      </trkpt>
      <trkpt lat="48.38336" lon="2.46747">
        <ele>101.15</ele>
        <time>2024-05-27T02:24:38.301Z</time>
      </trkpt>
      <trkpt lat="48.38336" lon="2.46734">
        <ele>100.8</ele>
        <time>2024-05-27T02:24:48.945Z</time>
      </trkpt>
      <trkpt lat="48.3834" lon="2.46722">
        <ele>100.5</ele>
        <time>2024-05-27T02:24:59.591Z</time>
      </trkpt>
      <trkpt lat="48.38342" lon="2.46716">
        <ele>100.18</ele>
        <time>2024-05-27T02:25:10.238Z</time>
      </trkpt>
      <trkpt lat="48.38344" lon="2.46711">
        <ele>99.89</ele>
        <time>2024-05-27T02:25:20.886Z</time>
      </trkpt>
      <trkpt lat="48.38345" lon="2.46709">
        <ele>99.59</ele>
        <time>2024-05-27T02:25:31.534Z</time>
      </trkpt>
      <trkpt lat="48.38345" lon="2.46707">
        <ele>99.3</ele>
        <time>2024-05-27T02:25:42.182Z</time>
      </trkpt>
      <trkpt lat="48.38347" lon="2.46704">
        <ele>99.04</ele>
        <time>2024-05-27T02:25:52.831Z</time>
      </trkpt>
      <trkpt lat="48.38348" lon="2.46694">
        <ele>98.81</ele>
        <time>2024-05-27T02:26:03.481Z</time>
      </trkpt>
      <trkpt lat="48.38349" lon="2.46686">
        <ele>98.58</ele>
        <time>2024-05-27T02:26:14.132Z</time>
      </trkpt>
      <trkpt lat="48.38346" lon="2.4668">
        <ele>98.33</ele>
        <time>2024-05-27T02:26:24.784Z</time>
      </trkpt>
      <trkpt lat="48.38343" lon="2.46673">
        <ele>98.1</ele>
        <time>2024-05-27T02:26:35.437Z</time>
      </trkpt>
      <trkpt lat="48.3834" lon="2.46666">
        <ele>97.89</ele>
        <time>2024-05-27T02:26:46.091Z</time>
      </trkpt>
      <trkpt lat="48.3833" lon="2.46664">
        <ele>97.66</ele>
        <time>2024-05-27T02:26:56.747Z</time>
      </trkpt>
      <trkpt lat="48.3832" lon="2.46665">
        <ele>97.44</ele>
        <time>2024-05-27T02:27:07.405Z</time>
      </trkpt>
      <trkpt lat="48.38318" lon="2.46663">
        <ele>97.3</ele>
        <time>2024-05-27T02:27:18.064Z</time>
      </trkpt>
      <trkpt lat="48.38301" lon="2.46653">
        <ele>97.13</ele>
        <time>2024-05-27T02:27:28.726Z</time>
      </trkpt>
      <trkpt lat="48.38297" lon="2.46653">
        <ele>97.04</ele>
        <time>2024-05-27T02:27:39.389Z</time>
      </trkpt>
      <trkpt lat="48.38286" lon="2.46654">
        <ele>96.93</ele>
        <time>2024-05-27T02:27:50.054Z</time>
      </trkpt>
      <trkpt lat="48.38282" lon="2.46651">
        <ele>96.91</ele>
        <time>2024-05-27T02:28:00.720Z</time>
      </trkpt>
      <trkpt lat="48.38279" lon="2.46647">
        <ele>96.92</ele>
        <time>2024-05-27T02:28:11.387Z</time>
      </trkpt>
      <trkpt lat="48.38273" lon="2.46638">
        <ele>96.97</ele>
        <time>2024-05-27T02:28:22.056Z</time>
      </trkpt>
      <trkpt lat="48.38271" lon="2.46634">
        <ele>97.05</ele>
        <time>2024-05-27T02:28:32.726Z</time>
      </trkpt>
      <trkpt lat="48.38268" lon="2.46629">
        <ele>97.16</ele>
        <time>2024-05-27T02:28:43.396Z</time>
      </trkpt>
      <trkpt lat="48.38261" lon="2.4662">
        <ele>97.3</ele>
        <time>2024-05-27T02:28:54.068Z</time>
      </trkpt>
      <trkpt lat="48.38258" lon="2.46616">
        <ele>97.48</ele>
        <time>2024-05-27T02:29:04.741Z</time>
      </trkpt>
      <trkpt lat="48.38252" lon="2.46607">
        <ele>97.69</ele>
        <time>2024-05-27T02:29:15.416Z</time>
      </trkpt>
      <trkpt lat="48.38242" lon="2.46587">
        <ele>97.93</ele>
        <time>2024-05-27T02:29:26.094Z</time>
      </trkpt>
      <trkpt lat="48.38241" lon="2.46583">
        <ele>98.22</ele>
        <time>2024-05-27T02:29:36.773Z</time>
      </trkpt>
      <trkpt lat="48.38245" lon="2.46574">
        <ele>98.57</ele>
        <time>2024-05-27T02:29:47.453Z</time>
      </trkpt>
      <trkpt lat="48.38254" lon="2.46557">
        <ele>99.01</ele>
        <time>2024-05-27T02:29:58.136Z</time>
      </trkpt>
      <trkpt lat="48.38256" lon="2.46553">
        <ele>99.4</ele>
        <time>2024-05-27T02:30:08.820Z</time>
      </trkpt>
      <trkpt lat="48.38258" lon="2.46547">
        <ele>99.83</ele>
        <time>2024-05-27T02:30:19.505Z</time>
      </trkpt>
      <trkpt lat="48.38258" lon="2.46545">
        <ele>100.27</ele>
        <time>2024-05-27T02:30:30.190Z</time>
      </trkpt>
      <trkpt lat="48.38259" lon="2.4654">
        <ele>100.74</ele>
        <time>2024-05-27T02:30:40.876Z</time>
      </trkpt>
      <trkpt lat="48.3826" lon="2.46535">
        <ele>101.24</ele>
        <time>2024-05-27T02:30:51.562Z</time>
      </trkpt>
      <trkpt lat="48.38261" lon="2.46533">
        <ele>101.76</ele>
        <time>2024-05-27T02:31:02.249Z</time>
      </trkpt>
      <trkpt lat="48.38262" lon="2.46532">
        <ele>102.3</ele>
        <time>2024-05-27T02:31:12.936Z</time>
      </trkpt>
      <trkpt lat="48.38264" lon="2.46528">
        <ele>102.88</ele>
        <time>2024-05-27T02:31:23.623Z</time>
      </trkpt>
      <trkpt lat="48.38265" lon="2.46525">
        <ele>103.46</ele>
        <time>2024-05-27T02:31:34.311Z</time>
      </trkpt>
      <trkpt lat="48.38265" lon="2.46521">
        <ele>104.06</ele>
        <time>2024-05-27T02:31:44.999Z</time>
      </trkpt>
      <trkpt lat="48.38265" lon="2.46516">
        <ele>104.67</ele>
        <time>2024-05-27T02:31:55.688Z</time>
      </trkpt>
      <trkpt lat="48.38264" lon="2.46514">
        <ele>105.29</ele>
        <time>2024-05-27T02:32:06.377Z</time>
      </trkpt>
      <trkpt lat="48.38262" lon="2.46509">
        <ele>105.92</ele>
        <time>2024-05-27T02:32:17.067Z</time>
      </trkpt>
      <trkpt lat="48.38257" lon="2.4649">
        <ele>106.59</ele>
        <time>2024-05-27T02:32:27.760Z</time>
      </trkpt>
      <trkpt lat="48.38259" lon="2.46476">
        <ele>107.29</ele>
        <time>2024-05-27T02:32:38.455Z</time>
      </trkpt>
      <trkpt lat="48.38263" lon="2.4647">
        <ele>107.99</ele>
        <time>2024-05-27T02:32:49.151Z</time>
      </trkpt>
      <trkpt lat="48.38263" lon="2.46466">
        <ele>108.66</ele>
        <time>2024-05-27T02:32:59.847Z</time>
      </trkpt>
      <trkpt lat="48.38264" lon="2.46465">
        <ele>109.34</ele>
        <time>2024-05-27T02:33:10.544Z</time>
      </trkpt>
      <trkpt lat="48.38265" lon="2.46459">
        <ele>110.03</ele>
        <time>2024-05-27T02:33:21.241Z</time>
      </trkpt>
      <trkpt lat="48.38266" lon="2.46455">
        <ele>110.72</ele>
        <time>2024-05-27T02:33:31.939Z</time>
      </trkpt>
      <trkpt lat="48.38268" lon="2.46452">
        <ele>111.41</ele>
        <time>2024-05-27T02:33:42.638Z</time>
      </trkpt>
      <trkpt lat="48.38268" lon="2.46451">
        <ele>112.09</ele>
        <time>2024-05-27T02:33:53.337Z</time>
      </trkpt>
      <trkpt lat="48.3827" lon="2.46444">
        <ele>112.78</ele>
        <time>2024-05-27T02:34:04.037Z</time>
      </trkpt>
      <trkpt lat="48.38272" lon="2.46438">
        <ele>113.47</ele>
        <time>2024-05-27T02:34:14.738Z</time>
      </trkpt>
      <trkpt lat="48.38274" lon="2.46436">
        <ele>114.14</ele>
        <time>2024-05-27T02:34:25.439Z</time>
      </trkpt>
      <trkpt lat="48.38275" lon="2.46431">
        <ele>114.79</ele>
        <time>2024-05-27T02:34:36.141Z</time>
      </trkpt>
      <trkpt lat="48.38277" lon="2.46428">
        <ele>115.44</ele>
        <time>2024-05-27T02:34:46.843Z</time>
      </trkpt>
      <trkpt lat="48.38279" lon="2.46421">
        <ele>116.09</ele>
        <time>2024-05-27T02:34:57.546Z</time>
      </trkpt>
      <trkpt lat="48.38282" lon="2.46417">
        <ele>116.72</ele>
        <time>2024-05-27T02:35:08.250Z</time>
      </trkpt>
      <trkpt lat="48.38284" lon="2.46412">
        <ele>117.33</ele>
        <time>2024-05-27T02:35:18.955Z</time>
      </trkpt>
      <trkpt lat="48.38285" lon="2.46408">
        <ele>117.91</ele>
        <time>2024-05-27T02:35:29.661Z</time>
      </trkpt>
      <trkpt lat="48.38286" lon="2.46406">
        <ele>118.48</ele>
        <time>2024-05-27T02:35:40.367Z</time>
      </trkpt>
      <trkpt lat="48.38285" lon="2.46403">
        <ele>119.01</ele>
        <time>2024-05-27T02:35:51.073Z</time>
      </trkpt>
      <trkpt lat="48.38285" lon="2.46395">
        <ele>119.54</ele>
        <time>2024-05-27T02:36:01.780Z</time>
      </trkpt>
      <trkpt lat="48.38282" lon="2.46387">
        <ele>120.04</ele>
        <time>2024-05-27T02:36:12.489Z</time>
      </trkpt>
      <trkpt lat="48.38272" lon="2.46381">
        <ele>120.47</ele>
        <time>2024-05-27T02:36:23.200Z</time>
      </trkpt>
      <trkpt lat="48.38261" lon="2.46373">
        <ele>120.9</ele>
        <time>2024-05-27T02:36:33.913Z</time>
      </trkpt>
      <trkpt lat="48.3826" lon="2.46362">
        <ele>121.37</ele>
        <time>2024-05-27T02:36:44.628Z</time>
      </trkpt>
      <trkpt lat="48.38265" lon="2.46352">
        <ele>121.84</ele>
        <time>2024-05-27T02:36:55.345Z</time>
      </trkpt>
      <trkpt lat="48.38268" lon="2.46343">
        <ele>122.28</ele>
        <time>2024-05-27T02:37:06.063Z</time>
      </trkpt>
      <trkpt lat="48.38272" lon="2.46336">
        <ele>122.68</ele>
        <time>2024-05-27T02:37:16.782Z</time>
      </trkpt>
      <trkpt lat="48.38275" lon="2.46327">
        <ele>123.07</ele>
        <time>2024-05-27T02:37:27.502Z</time>
      </trkpt>
      <trkpt lat="48.38283" lon="2.46313">
        <ele>123.44</ele>
        <time>2024-05-27T02:37:38.225Z</time>
      </trkpt>
      <trkpt lat="48.38284" lon="2.4631">
        <ele>123.74</ele>
        <time>2024-05-27T02:37:48.948Z</time>
      </trkpt>
      <trkpt lat="48.38291" lon="2.46298">
        <ele>124.02</ele>
        <time>2024-05-27T02:37:59.673Z</time>
      </trkpt>
      <trkpt lat="48.38294" lon="2.46288">
        <ele>124.27</ele>
        <time>2024-05-27T02:38:10.400Z</time>
      </trkpt>
      <trkpt lat="48.38302" lon="2.46271">
        <ele>124.47</ele>
        <time>2024-05-27T02:38:21.130Z</time>
      </trkpt>
      <trkpt lat="48.38303" lon="2.46268">
        <ele>124.66</ele>
        <time>2024-05-27T02:38:31.860Z</time>
      </trkpt>
      <trkpt lat="48.38305" lon="2.46253">
        <ele>124.8</ele>
        <time>2024-05-27T02:38:42.592Z</time>
      </trkpt>
      <trkpt lat="48.38304" lon="2.46245">
        <ele>124.94</ele>
        <time>2024-05-27T02:38:53.325Z</time>
      </trkpt>
      <trkpt lat="48.38302" lon="2.46239">
        <ele>125.07</ele>
        <time>2024-05-27T02:39:04.059Z</time>
      </trkpt>
      <trkpt lat="48.38301" lon="2.46235">
        <ele>125.17</ele>
        <time>2024-05-27T02:39:14.794Z</time>
      </trkpt>
      <trkpt lat="48.383" lon="2.46233">
        <ele>125.25</ele>
        <time>2024-05-27T02:39:25.529Z</time>
      </trkpt>
      <trkpt lat="48.38299" lon="2.46228">
        <ele>125.31</ele>
        <time>2024-05-27T02:39:36.265Z</time>
      </trkpt>
      <trkpt lat="48.38298" lon="2.46228">
        <ele>125.34</ele>
        <time>2024-05-27T02:39:47.001Z</time>
      </trkpt>
      <trkpt lat="48.38298" lon="2.46228">
        <ele>125.36</ele>
        <time>2024-05-27T02:39:57.737Z</time>
      </trkpt>
      <trkpt lat="48.38297" lon="2.46223">
        <ele>125.35</ele>
        <time>2024-05-27T02:40:08.474Z</time>
      </trkpt>
      <trkpt lat="48.38293" lon="2.46211">
        <ele>125.34</ele>
        <time>2024-05-27T02:40:19.212Z</time>
      </trkpt>
      <trkpt lat="48.38279" lon="2.46181">
        <ele>125.3</ele>
        <time>2024-05-27T02:40:29.955Z</time>
      </trkpt>
      <trkpt lat="48.3826" lon="2.46141">
        <ele>125.21</ele>
        <time>2024-05-27T02:40:40.705Z</time>
      </trkpt>
      <trkpt lat="48.38257" lon="2.46136">
        <ele>125.13</ele>
        <time>2024-05-27T02:40:51.456Z</time>
      </trkpt>
      <trkpt lat="48.38238" lon="2.46096">
        <ele>125.01</ele>
        <time>2024-05-27T02:41:02.213Z</time>
      </trkpt>
      <trkpt lat="48.38236" lon="2.46092">
        <ele>124.9</ele>
        <time>2024-05-27T02:41:12.971Z</time>
      </trkpt>
      <trkpt lat="48.38227" lon="2.46077">
        <ele>124.78</ele>
        <time>2024-05-27T02:41:23.732Z</time>
      </trkpt>
      <trkpt lat="48.38225" lon="2.46077">
        <ele>124.65</ele>
        <time>2024-05-27T02:41:34.493Z</time>
      </trkpt>
      <trkpt lat="48.38225" lon="2.46077">
        <ele>124.5</ele>
        <time>2024-05-27T02:41:45.254Z</time>
      </trkpt>
      <trkpt lat="48.38225" lon="2.46077">
        <ele>124.34</ele>
        <time>2024-05-27T02:41:56.015Z</time>
      </trkpt>
      <trkpt lat="48.38226" lon="2.46074">
        <ele>124.18</ele>
        <time>2024-05-27T02:42:06.776Z</time>
      </trkpt>
      <trkpt lat="48.38226" lon="2.46074">
        <ele>124</ele>
        <time>2024-05-27T02:42:17.537Z</time>
      </trkpt>
      <trkpt lat="48.38226" lon="2.46074">
        <ele>123.82</ele>
        <time>2024-05-27T02:42:28.298Z</time>
      </trkpt>
      <trkpt lat="48.38225" lon="2.46074">
        <ele>123.63</ele>
        <time>2024-05-27T02:42:39.059Z</time>
      </trkpt>
      <trkpt lat="48.38225" lon="2.46072">
        <ele>123.43</ele>
        <time>2024-05-27T02:42:49.821Z</time>
      </trkpt>
      <trkpt lat="48.3822" lon="2.46065">
        <ele>123.21</ele>
        <time>2024-05-27T02:43:00.584Z</time>
      </trkpt>
      <trkpt lat="48.38209" lon="2.46043">
        <ele>123</ele>
        <time>2024-05-27T02:43:11.351Z</time>
      </trkpt>
      <trkpt lat="48.38187" lon="2.46003">
        <ele>122.82</ele>
        <time>2024-05-27T02:43:22.125Z</time>
      </trkpt>
      <trkpt lat="48.38157" lon="2.45953">
        <ele>122.64</ele>
        <time>2024-05-27T02:43:32.908Z</time>
      </trkpt>
      <trkpt lat="48.3813" lon="2.45915">
        <ele>122.43</ele>
        <time>2024-05-27T02:43:43.698Z</time>
      </trkpt>
      <trkpt lat="48.38097" lon="2.45878">
        <ele>122.19</ele>
        <time>2024-05-27T02:43:54.496Z</time>
      </trkpt>
      <trkpt lat="48.38082" lon="2.4586">
        <ele>121.91</ele>
        <time>2024-05-27T02:44:05.298Z</time>
      </trkpt>
      <trkpt lat="48.3807" lon="2.45845">
        <ele>121.65</ele>
        <time>2024-05-27T02:44:16.103Z</time>
      </trkpt>
      <trkpt lat="48.38041" lon="2.45807">
        <ele>121.43</ele>
        <time>2024-05-27T02:44:26.916Z</time>
      </trkpt>
      <trkpt lat="48.38027" lon="2.45793">
        <ele>121.23</ele>
        <time>2024-05-27T02:44:37.732Z</time>
      </trkpt>
      <trkpt lat="48.38011" lon="2.45772">
        <ele>120.99</ele>
        <time>2024-05-27T02:44:48.553Z</time>
      </trkpt>
      <trkpt lat="48.38003" lon="2.45761">
        <ele>120.75</ele>
        <time>2024-05-27T02:44:59.376Z</time>
      </trkpt>
      <trkpt lat="48.37987" lon="2.45738">
        <ele>120.48</ele>
        <time>2024-05-27T02:45:10.203Z</time>
      </trkpt>
      <trkpt lat="48.37964" lon="2.45703">
        <ele>120.21</ele>
        <time>2024-05-27T02:45:21.037Z</time>
      </trkpt>
      <trkpt lat="48.37961" lon="2.45696">
        <ele>119.99</ele>
        <time>2024-05-27T02:45:31.872Z</time>
      </trkpt>
      <trkpt lat="48.37951" lon="2.45672">
        <ele>119.77</ele>
        <time>2024-05-27T02:45:42.711Z</time>
      </trkpt>
      <trkpt lat="48.37943" lon="2.45646">
        <ele>119.58</ele>
        <time>2024-05-27T02:45:53.553Z</time>
      </trkpt>
      <trkpt lat="48.37919" lon="2.45596">
        <ele>119.37</ele>
        <time>2024-05-27T02:46:04.404Z</time>
      </trkpt>
      <trkpt lat="48.37908" lon="2.45576">
        <ele>119.2</ele>
        <time>2024-05-27T02:46:15.258Z</time>
      </trkpt>
      <trkpt lat="48.37898" lon="2.45559">
        <ele>119.06</ele>
        <time>2024-05-27T02:46:26.115Z</time>
      </trkpt>
      <trkpt lat="48.37877" lon="2.45526">
        <ele>118.9</ele>
        <time>2024-05-27T02:46:36.978Z</time>
      </trkpt>
      <trkpt lat="48.37866" lon="2.4551">
        <ele>118.78</ele>
        <time>2024-05-27T02:46:47.844Z</time>
      </trkpt>
      <trkpt lat="48.37859" lon="2.455">
        <ele>118.67</ele>
        <time>2024-05-27T02:46:58.712Z</time>
      </trkpt>
      <trkpt lat="48.37848" lon="2.45485">
        <ele>118.56</ele>
        <time>2024-05-27T02:47:09.583Z</time>
      </trkpt>
      <trkpt lat="48.37844" lon="2.4548">
        <ele>118.47</ele>
        <time>2024-05-27T02:47:20.455Z</time>
      </trkpt>
      <trkpt lat="48.37826" lon="2.45454">
        <ele>118.4</ele>
        <time>2024-05-27T02:47:31.332Z</time>
      </trkpt>
      <trkpt lat="48.37818" lon="2.45444">
        <ele>118.36</ele>
        <time>2024-05-27T02:47:42.211Z</time>
      </trkpt>
      <trkpt lat="48.37793" lon="2.4542">
        <ele>118.37</ele>
        <time>2024-05-27T02:47:53.096Z</time>
      </trkpt>
      <trkpt lat="48.37771" lon="2.45402">
        <ele>118.38</ele>
        <time>2024-05-27T02:48:03.986Z</time>
      </trkpt>
      <trkpt lat="48.37761" lon="2.45397">
        <ele>118.37</ele>
        <time>2024-05-27T02:48:14.878Z</time>
      </trkpt>
      <trkpt lat="48.37724" lon="2.45388">
        <ele>118.38</ele>
        <time>2024-05-27T02:48:25.778Z</time>
      </trkpt>
      <trkpt lat="48.37684" lon="2.45376">
        <ele>118.38</ele>
        <time>2024-05-27T02:48:36.686Z</time>
      </trkpt>
      <trkpt lat="48.37673" lon="2.45369">
        <ele>118.41</ele>
        <time>2024-05-27T02:48:47.596Z</time>
      </trkpt>
      <trkpt lat="48.3766" lon="2.45352">
        <ele>118.44</ele>
        <time>2024-05-27T02:48:58.510Z</time>
      </trkpt>
      <trkpt lat="48.37656" lon="2.45345">
        <ele>118.5</ele>
        <time>2024-05-27T02:49:09.425Z</time>
      </trkpt>
      <trkpt lat="48.37652" lon="2.45337">
        <ele>118.57</ele>
        <time>2024-05-27T02:49:20.341Z</time>
      </trkpt>
      <trkpt lat="48.3764" lon="2.45308">
        <ele>118.61</ele>
        <time>2024-05-27T02:49:31.262Z</time>
      </trkpt>
      <trkpt lat="48.37617" lon="2.45255">
        <ele>118.67</ele>
        <time>2024-05-27T02:49:42.191Z</time>
      </trkpt>
      <trkpt lat="48.37599" lon="2.45234">
        <ele>118.8</ele>
        <time>2024-05-27T02:49:53.125Z</time>
      </trkpt>
      <trkpt lat="48.37594" lon="2.45229">
        <ele>118.93</ele>
        <time>2024-05-27T02:50:04.060Z</time>
      </trkpt>
      <trkpt lat="48.37589" lon="2.45225">
        <ele>119.07</ele>
        <time>2024-05-27T02:50:14.996Z</time>
      </trkpt>
      <trkpt lat="48.3757" lon="2.45209">
        <ele>119.21</ele>
        <time>2024-05-27T02:50:25.937Z</time>
      </trkpt>
      <trkpt lat="48.3756" lon="2.45201">
        <ele>119.37</ele>
        <time>2024-05-27T02:50:36.880Z</time>
      </trkpt>
      <trkpt lat="48.37531" lon="2.4518">
        <ele>119.53</ele>
        <time>2024-05-27T02:50:47.829Z</time>
      </trkpt>
      <trkpt lat="48.37504" lon="2.45156">
        <ele>119.74</ele>
        <time>2024-05-27T02:50:58.785Z</time>
      </trkpt>
      <trkpt lat="48.375" lon="2.45143">
        <ele>119.92</ele>
        <time>2024-05-27T02:51:09.743Z</time>
      </trkpt>
      <trkpt lat="48.37502" lon="2.45129">
        <ele>120.11</ele>
        <time>2024-05-27T02:51:20.702Z</time>
      </trkpt>
      <trkpt lat="48.37505" lon="2.4511">
        <ele>120.3</ele>
        <time>2024-05-27T02:51:31.664Z</time>
      </trkpt>
      <trkpt lat="48.37512" lon="2.45076">
        <ele>120.49</ele>
        <time>2024-05-27T02:51:42.631Z</time>
      </trkpt>
      <trkpt lat="48.37515" lon="2.45065">
        <ele>120.67</ele>
        <time>2024-05-27T02:51:53.599Z</time>
      </trkpt>
      <trkpt lat="48.37516" lon="2.4506">
        <ele>120.83</ele>
        <time>2024-05-27T02:52:04.568Z</time>
      </trkpt>
      <trkpt lat="48.37519" lon="2.45049">
        <ele>121</ele>
        <time>2024-05-27T02:52:15.539Z</time>
      </trkpt>
      <trkpt lat="48.37525" lon="2.45028">
        <ele>121.14</ele>
        <time>2024-05-27T02:52:26.513Z</time>
      </trkpt>
      <trkpt lat="48.37527" lon="2.45023">
        <ele>121.28</ele>
        <time>2024-05-27T02:52:37.487Z</time>
      </trkpt>
      <trkpt lat="48.37532" lon="2.45001">
        <ele>121.4</ele>
        <time>2024-05-27T02:52:48.465Z</time>
      </trkpt>
      <trkpt lat="48.37535" lon="2.4499">
        <ele>121.52</ele>
        <time>2024-05-27T02:52:59.444Z</time>
      </trkpt>
      <trkpt lat="48.37539" lon="2.44974">
        <ele>121.63</ele>
        <time>2024-05-27T02:53:10.425Z</time>
      </trkpt>
      <trkpt lat="48.3755" lon="2.44944">
        <ele>121.74</ele>
        <time>2024-05-27T02:53:21.411Z</time>
      </trkpt>
      <trkpt lat="48.37554" lon="2.44928">
        <ele>121.82</ele>
        <time>2024-05-27T02:53:32.399Z</time>
      </trkpt>
      <trkpt lat="48.37565" lon="2.44882">
        <ele>121.9</ele>
        <time>2024-05-27T02:53:43.394Z</time>
      </trkpt>
      <trkpt lat="48.37566" lon="2.44876">
        <ele>121.93</ele>
        <time>2024-05-27T02:53:54.390Z</time>
      </trkpt>
      <trkpt lat="48.37571" lon="2.4485">
        <ele>121.95</ele>
        <time>2024-05-27T02:54:05.389Z</time>
      </trkpt>
      <trkpt lat="48.37573" lon="2.44836">
        <ele>121.94</ele>
        <time>2024-05-27T02:54:16.390Z</time>
      </trkpt>
      <trkpt lat="48.37574" lon="2.44829">
        <ele>121.91</ele>
        <time>2024-05-27T02:54:27.392Z</time>
      </trkpt>
      <trkpt lat="48.3758" lon="2.44792">
        <ele>121.86</ele>
        <time>2024-05-27T02:54:38.399Z</time>
      </trkpt>
      <trkpt lat="48.37587" lon="2.44738">
        <ele>121.78</ele>
        <time>2024-05-27T02:54:49.414Z</time>
      </trkpt>
      <trkpt lat="48.37594" lon="2.44678">
        <ele>121.64</ele>
        <time>2024-05-27T02:55:00.437Z</time>
      </trkpt>
      <trkpt lat="48.37602" lon="2.44615">
        <ele>121.49</ele>
        <time>2024-05-27T02:55:11.468Z</time>
      </trkpt>
      <trkpt lat="48.37603" lon="2.44606">
        <ele>121.34</ele>
        <time>2024-05-27T02:55:22.500Z</time>
      </trkpt>
      <trkpt lat="48.37611" lon="2.44551">
        <ele>121.21</ele>
        <time>2024-05-27T02:55:33.540Z</time>
      </trkpt>
      <trkpt lat="48.37612" lon="2.44542">
        <ele>121.02</ele>
        <time>2024-05-27T02:55:44.581Z</time>
      </trkpt>
      <trkpt lat="48.37625" lon="2.44458">
        <ele>120.78</ele>
        <time>2024-05-27T02:55:55.634Z</time>
      </trkpt>
      <trkpt lat="48.3763" lon="2.4442">
        <ele>120.55</ele>
        <time>2024-05-27T02:56:06.692Z</time>
      </trkpt>
      <trkpt lat="48.37638" lon="2.44372">
        <ele>120.26</ele>
        <time>2024-05-27T02:56:17.756Z</time>
      </trkpt>
      <trkpt lat="48.37643" lon="2.44337">
        <ele>119.97</ele>
        <time>2024-05-27T02:56:28.825Z</time>
      </trkpt>
      <trkpt lat="48.37647" lon="2.44304">
        <ele>119.66</ele>
        <time>2024-05-27T02:56:39.899Z</time>
      </trkpt>
      <trkpt lat="48.3765" lon="2.44287">
        <ele>119.35</ele>
        <time>2024-05-27T02:56:50.975Z</time>
      </trkpt>
      <trkpt lat="48.37658" lon="2.44233">
        <ele>119.02</ele>
        <time>2024-05-27T02:57:02.058Z</time>
      </trkpt>
      <trkpt lat="48.37663" lon="2.44206">
        <ele>118.69</ele>
        <time>2024-05-27T02:57:13.145Z</time>
      </trkpt>
      <trkpt lat="48.37664" lon="2.44205">
        <ele>118.38</ele>
        <time>2024-05-27T02:57:24.232Z</time>
      </trkpt>
      <trkpt lat="48.37663" lon="2.44208">
        <ele>118.06</ele>
        <time>2024-05-27T02:57:35.320Z</time>
      </trkpt>
      <trkpt lat="48.37662" lon="2.44209">
        <ele>117.73</ele>
        <time>2024-05-27T02:57:46.408Z</time>
      </trkpt>
      <trkpt lat="48.37662" lon="2.44209">
        <ele>117.4</ele>
        <time>2024-05-27T02:57:57.496Z</time>
      </trkpt>
      <trkpt lat="48.37661" lon="2.44206">
        <ele>117.06</ele>
        <time>2024-05-27T02:58:08.585Z</time>
      </trkpt>
      <trkpt lat="48.37662" lon="2.44203">
        <ele>116.72</ele>
        <time>2024-05-27T02:58:19.674Z</time>
      </trkpt>
      <trkpt lat="48.37665" lon="2.44194">
        <ele>116.37</ele>
        <time>2024-05-27T02:58:30.764Z</time>
      </trkpt>
      <trkpt lat="48.37666" lon="2.44188">
        <ele>116.03</ele>
        <time>2024-05-27T02:58:41.855Z</time>
      </trkpt>
      <trkpt lat="48.37671" lon="2.44166">
        <ele>115.7</ele>
        <time>2024-05-27T02:58:52.949Z</time>
      </trkpt>
      <trkpt lat="48.37675" lon="2.44156">
        <ele>115.36</ele>
        <time>2024-05-27T02:59:04.045Z</time>
      </trkpt>
      <trkpt lat="48.37682" lon="2.44141">
        <ele>115.02</ele>
        <time>2024-05-27T02:59:15.143Z</time>
      </trkpt>
      <trkpt lat="48.37697" lon="2.44113">
        <ele>114.65</ele>
        <time>2024-05-27T02:59:26.246Z</time>
      </trkpt>
      <trkpt lat="48.37702" lon="2.44105">
        <ele>114.3</ele>
        <time>2024-05-27T02:59:37.351Z</time>
      </trkpt>
      <trkpt lat="48.37728" lon="2.44057">
        <ele>113.92</ele>
        <time>2024-05-27T02:59:48.464Z</time>
      </trkpt>
      <trkpt lat="48.37732" lon="2.44049">
        <ele>113.63</ele>
        <time>2024-05-27T02:59:59.578Z</time>
      </trkpt>
      <trkpt lat="48.37736" lon="2.44043">
        <ele>113.34</ele>
        <time>2024-05-27T03:00:10.693Z</time>
      </trkpt>
      <trkpt lat="48.3774" lon="2.44036">
        <ele>113.08</ele>
        <time>2024-05-27T03:00:21.810Z</time>
      </trkpt>
      <trkpt lat="48.37753" lon="2.44014">
        <ele>112.84</ele>
        <time>2024-05-27T03:00:32.930Z</time>
      </trkpt>
      <trkpt lat="48.37756" lon="2.4401">
        <ele>112.59</ele>
        <time>2024-05-27T03:00:44.051Z</time>
      </trkpt>
      <trkpt lat="48.37777" lon="2.43994">
        <ele>112.37</ele>
        <time>2024-05-27T03:00:55.177Z</time>
      </trkpt>
      <trkpt lat="48.37781" lon="2.43991">
        <ele>112.16</ele>
        <time>2024-05-27T03:01:06.304Z</time>
      </trkpt>
      <trkpt lat="48.37793" lon="2.43984">
        <ele>111.96</ele>
        <time>2024-05-27T03:01:17.433Z</time>
      </trkpt>
      <trkpt lat="48.378" lon="2.4398">
        <ele>111.78</ele>
        <time>2024-05-27T03:01:28.564Z</time>
      </trkpt>
      <trkpt lat="48.37828" lon="2.43957">
        <ele>111.62</ele>
        <time>2024-05-27T03:01:39.701Z</time>
      </trkpt>
      <trkpt lat="48.37851" lon="2.43927">
        <ele>111.47</ele>
        <time>2024-05-27T03:01:50.845Z</time>
      </trkpt>
      <trkpt lat="48.37871" lon="2.43891">
        <ele>111.34</ele>
        <time>2024-05-27T03:02:01.995Z</time>
      </trkpt>
      <trkpt lat="48.37878" lon="2.43874">
        <ele>111.22</ele>
        <time>2024-05-27T03:02:13.147Z</time>
      </trkpt>
      <trkpt lat="48.37888" lon="2.43851">
        <ele>111.1</ele>
        <time>2024-05-27T03:02:24.303Z</time>
      </trkpt>
      <trkpt lat="48.37896" lon="2.43828">
        <ele>110.97</ele>
        <time>2024-05-27T03:02:35.463Z</time>
      </trkpt>
      <trkpt lat="48.37904" lon="2.43802">
        <ele>110.82</ele>
        <time>2024-05-27T03:02:46.626Z</time>
      </trkpt>
      <trkpt lat="48.37925" lon="2.43755">
        <ele>110.7</ele>
        <time>2024-05-27T03:02:57.797Z</time>
      </trkpt>
      <trkpt lat="48.3793" lon="2.43748">
        <ele>110.63</ele>
        <time>2024-05-27T03:03:08.969Z</time>
      </trkpt>
      <trkpt lat="48.37941" lon="2.43734">
        <ele>110.61</ele>
        <time>2024-05-27T03:03:20.144Z</time>
      </trkpt>
      <trkpt lat="48.37947" lon="2.43729">
        <ele>110.59</ele>
        <time>2024-05-27T03:03:31.321Z</time>
      </trkpt>
      <trkpt lat="48.37959" lon="2.43718">
        <ele>110.57</ele>
        <time>2024-05-27T03:03:42.500Z</time>
      </trkpt>
      <trkpt lat="48.37969" lon="2.43708">
        <ele>110.58</ele>
        <time>2024-05-27T03:03:53.682Z</time>
      </trkpt>
      <trkpt lat="48.37978" lon="2.43696">
        <ele>110.6</ele>
        <time>2024-05-27T03:04:04.866Z</time>
      </trkpt>
      <trkpt lat="48.37982" lon="2.4369">
        <ele>110.62</ele>
        <time>2024-05-27T03:04:16.051Z</time>
      </trkpt>
      <trkpt lat="48.37993" lon="2.43666">
        <ele>110.64</ele>
        <time>2024-05-27T03:04:27.240Z</time>
      </trkpt>
      <trkpt lat="48.37998" lon="2.43653">
        <ele>110.7</ele>
        <time>2024-05-27T03:04:38.431Z</time>
      </trkpt>
      <trkpt lat="48.38011" lon="2.43626">
        <ele>110.8</ele>
        <time>2024-05-27T03:04:49.627Z</time>
      </trkpt>
      <trkpt lat="48.38037" lon="2.4357">
        <ele>111.02</ele>
        <time>2024-05-27T03:05:00.832Z</time>
      </trkpt>
      <trkpt lat="48.38053" lon="2.4353">
        <ele>111.14</ele>
        <time>2024-05-27T03:05:12.043Z</time>
      </trkpt>
      <trkpt lat="48.38083" lon="2.43473">
        <ele>111.38</ele>
        <time>2024-05-27T03:05:23.264Z</time>
      </trkpt>
      <trkpt lat="48.38094" lon="2.43453">
        <ele>111.54</ele>
        <time>2024-05-27T03:05:34.488Z</time>
      </trkpt>
      <trkpt lat="48.38102" lon="2.43439">
        <ele>111.71</ele>
        <time>2024-05-27T03:05:45.715Z</time>
      </trkpt>
      <trkpt lat="48.38104" lon="2.43434">
        <ele>111.88</ele>
        <time>2024-05-27T03:05:56.942Z</time>
      </trkpt>
      <trkpt lat="48.38115" lon="2.43413">
        <ele>112.04</ele>
        <time>2024-05-27T03:06:08.173Z</time>
      </trkpt>
      <trkpt lat="48.38127" lon="2.43386">
        <ele>112.21</ele>
        <time>2024-05-27T03:06:19.408Z</time>
      </trkpt>
      <trkpt lat="48.38131" lon="2.43375">
        <ele>112.42</ele>
        <time>2024-05-27T03:06:30.645Z</time>
      </trkpt>
      <trkpt lat="48.38135" lon="2.43363">
        <ele>112.64</ele>
        <time>2024-05-27T03:06:41.884Z</time>
      </trkpt>
      <trkpt lat="48.3814" lon="2.43352">
        <ele>112.87</ele>
        <time>2024-05-27T03:06:53.124Z</time>
      </trkpt>
      <trkpt lat="48.38143" lon="2.43347">
        <ele>113.11</ele>
        <time>2024-05-27T03:07:04.365Z</time>
      </trkpt>
      <trkpt lat="48.38155" lon="2.43336">
        <ele>113.37</ele>
        <time>2024-05-27T03:07:15.609Z</time>
      </trkpt>
      <trkpt lat="48.38159" lon="2.43333">
        <ele>113.63</ele>
        <time>2024-05-27T03:07:26.854Z</time>
      </trkpt>
      <trkpt lat="48.38175" lon="2.43319">
        <ele>113.93</ele>
        <time>2024-05-27T03:07:38.103Z</time>
      </trkpt>
      <trkpt lat="48.38177" lon="2.43317">
        <ele>114.2</ele>
        <time>2024-05-27T03:07:49.352Z</time>
      </trkpt>
      <trkpt lat="48.38183" lon="2.4331">
        <ele>114.49</ele>
        <time>2024-05-27T03:08:00.603Z</time>
      </trkpt>
      <trkpt lat="48.38183" lon="2.43307">
        <ele>114.77</ele>
        <time>2024-05-27T03:08:11.854Z</time>
      </trkpt>
      <trkpt lat="48.38183" lon="2.43303">
        <ele>115.06</ele>
        <time>2024-05-27T03:08:23.106Z</time>
      </trkpt>
      <trkpt lat="48.38182" lon="2.43298">
        <ele>115.35</ele>
        <time>2024-05-27T03:08:34.358Z</time>
      </trkpt>
      <trkpt lat="48.38177" lon="2.4329">
        <ele>115.65</ele>
        <time>2024-05-27T03:08:45.612Z</time>
      </trkpt>
      <trkpt lat="48.38168" lon="2.43278">
        <ele>115.95</ele>
        <time>2024-05-27T03:08:56.868Z</time>
      </trkpt>
      <trkpt lat="48.38156" lon="2.43256">
        <ele>116.24</ele>
        <time>2024-05-27T03:09:08.128Z</time>
      </trkpt>
      <trkpt lat="48.38156" lon="2.43252">
        <ele>116.54</ele>
        <time>2024-05-27T03:09:19.389Z</time>
      </trkpt>
      <trkpt lat="48.3816" lon="2.43242">
        <ele>116.85</ele>
        <time>2024-05-27T03:09:30.651Z</time>
      </trkpt>
      <trkpt lat="48.38178" lon="2.43198">
        <ele>117.18</ele>
        <time>2024-05-27T03:09:41.920Z</time>
      </trkpt>
      <trkpt lat="48.38192" lon="2.43167">
        <ele>117.5</ele>
        <time>2024-05-27T03:09:53.194Z</time>
      </trkpt>
      <trkpt lat="48.38193" lon="2.43161">
        <ele>117.82</ele>
        <time>2024-05-27T03:10:04.469Z</time>
      </trkpt>
      <trkpt lat="48.38196" lon="2.4315">
        <ele>118.15</ele>
        <time>2024-05-27T03:10:15.745Z</time>
      </trkpt>
      <trkpt lat="48.38203" lon="2.43132">
        <ele>118.49</ele>
        <time>2024-05-27T03:10:27.024Z</time>
      </trkpt>
      <trkpt lat="48.38212" lon="2.43107">
        <ele>118.82</ele>
        <time>2024-05-27T03:10:38.307Z</time>
      </trkpt>
      <trkpt lat="48.38224" lon="2.43083">
        <ele>119.12</ele>
        <time>2024-05-27T03:10:49.594Z</time>
      </trkpt>
      <trkpt lat="48.38229" lon="2.4307">
        <ele>119.44</ele>
        <time>2024-05-27T03:11:00.883Z</time>
      </trkpt>
      <trkpt lat="48.38239" lon="2.43045">
        <ele>119.77</ele>
        <time>2024-05-27T03:11:12.176Z</time>
      </trkpt>
      <trkpt lat="48.38242" lon="2.43039">
        <ele>120.09</ele>
        <time>2024-05-27T03:11:23.470Z</time>
      </trkpt>
      <trkpt lat="48.38249" lon="2.43027">
        <ele>120.41</ele>
        <time>2024-05-27T03:11:34.766Z</time>
      </trkpt>
      <trkpt lat="48.38254" lon="2.43015">
        <ele>120.74</ele>
        <time>2024-05-27T03:11:46.064Z</time>
      </trkpt>
      <trkpt lat="48.38259" lon="2.43002">
        <ele>121.08</ele>
        <time>2024-05-27T03:11:57.364Z</time>
      </trkpt>
      <trkpt lat="48.38268" lon="2.42979">
        <ele>121.4</ele>
        <time>2024-05-27T03:12:08.667Z</time>
      </trkpt>
      <trkpt lat="48.38273" lon="2.42967">
        <ele>121.72</ele>
        <time>2024-05-27T03:12:19.972Z</time>
      </trkpt>
      <trkpt lat="48.38284" lon="2.42934">
        <ele>122.05</ele>
        <time>2024-05-27T03:12:31.282Z</time>
      </trkpt>
      <trkpt lat="48.383" lon="2.42888">
        <ele>122.41</ele>
        <time>2024-05-27T03:12:42.599Z</time>
      </trkpt>
      <trkpt lat="48.38315" lon="2.42853">
        <ele>122.76</ele>
        <time>2024-05-27T03:12:53.922Z</time>
      </trkpt>
      <trkpt lat="48.38319" lon="2.42843">
        <ele>123.07</ele>
        <time>2024-05-27T03:13:05.246Z</time>
      </trkpt>
      <trkpt lat="48.3833" lon="2.42818">
        <ele>123.4</ele>
        <time>2024-05-27T03:13:16.574Z</time>
      </trkpt>
      <trkpt lat="48.38337" lon="2.42803">
        <ele>123.69</ele>
        <time>2024-05-27T03:13:27.905Z</time>
      </trkpt>
      <trkpt lat="48.38346" lon="2.42782">
        <ele>123.98</ele>
        <time>2024-05-27T03:13:39.239Z</time>
      </trkpt>
      <trkpt lat="48.38355" lon="2.42759">
        <ele>124.26</ele>
        <time>2024-05-27T03:13:50.577Z</time>
      </trkpt>
      <trkpt lat="48.38373" lon="2.42718">
        <ele>124.57</ele>
        <time>2024-05-27T03:14:01.921Z</time>
      </trkpt>
      <trkpt lat="48.38377" lon="2.42713">
        <ele>124.84</ele>
        <time>2024-05-27T03:14:13.266Z</time>
      </trkpt>
      <trkpt lat="48.38384" lon="2.42705">
        <ele>125.09</ele>
        <time>2024-05-27T03:14:24.613Z</time>
      </trkpt>
      <trkpt lat="48.38399" lon="2.42698">
        <ele>125.34</ele>
        <time>2024-05-27T03:14:35.963Z</time>
      </trkpt>
      <trkpt lat="48.38423" lon="2.42688">
        <ele>125.59</ele>
        <time>2024-05-27T03:14:47.318Z</time>
      </trkpt>
      <trkpt lat="48.38438" lon="2.42682">
        <ele>125.82</ele>
        <time>2024-05-27T03:14:58.676Z</time>
      </trkpt>
      <trkpt lat="48.38482" lon="2.42667">
        <ele>126.08</ele>
        <time>2024-05-27T03:15:10.043Z</time>
      </trkpt>
      <trkpt lat="48.38502" lon="2.42659">
        <ele>126.29</ele>
        <time>2024-05-27T03:15:21.414Z</time>
      </trkpt>
      <trkpt lat="48.38517" lon="2.42654">
        <ele>126.5</ele>
        <time>2024-05-27T03:15:32.788Z</time>
      </trkpt>
      <trkpt lat="48.38552" lon="2.42643">
        <ele>126.67</ele>
        <time>2024-05-27T03:15:44.170Z</time>
      </trkpt>
      <trkpt lat="48.38582" lon="2.42631">
        <ele>126.85</ele>
        <time>2024-05-27T03:15:55.558Z</time>
      </trkpt>
      <trkpt lat="48.38604" lon="2.42621">
        <ele>127.06</ele>
        <time>2024-05-27T03:16:06.950Z</time>
      </trkpt>
      <trkpt lat="48.38609" lon="2.42618">
        <ele>127.23</ele>
        <time>2024-05-27T03:16:18.343Z</time>
      </trkpt>
      <trkpt lat="48.3864" lon="2.42598">
        <ele>127.42</ele>
        <time>2024-05-27T03:16:29.743Z</time>
      </trkpt>
      <trkpt lat="48.38671" lon="2.42575">
        <ele>127.6</ele>
        <time>2024-05-27T03:16:41.150Z</time>
      </trkpt>
      <trkpt lat="48.38698" lon="2.42548">
        <ele>127.8</ele>
        <time>2024-05-27T03:16:52.564Z</time>
      </trkpt>
      <trkpt lat="48.38703" lon="2.42545">
        <ele>127.94</ele>
        <time>2024-05-27T03:17:03.979Z</time>
      </trkpt>
      <trkpt lat="48.38734" lon="2.42525">
        <ele>128.05</ele>
        <time>2024-05-27T03:17:15.400Z</time>
      </trkpt>
      <trkpt lat="48.3874" lon="2.42508">
        <ele>128.13</ele>
        <time>2024-05-27T03:17:26.824Z</time>
      </trkpt>
      <trkpt lat="48.38733" lon="2.42479">
        <ele>128.2</ele>
        <time>2024-05-27T03:17:38.252Z</time>
      </trkpt>
      <trkpt lat="48.38724" lon="2.42429">
        <ele>128.28</ele>
        <time>2024-05-27T03:17:49.687Z</time>
      </trkpt>
      <trkpt lat="48.38713" lon="2.42374">
        <ele>128.36</ele>
        <time>2024-05-27T03:18:01.130Z</time>
      </trkpt>
      <trkpt lat="48.3871" lon="2.42354">
        <ele>128.44</ele>
        <time>2024-05-27T03:18:12.575Z</time>
      </trkpt>
      <trkpt lat="48.38708" lon="2.42347">
        <ele>128.52</ele>
        <time>2024-05-27T03:18:24.021Z</time>
      </trkpt>
      <trkpt lat="48.38705" lon="2.42334">
        <ele>128.59</ele>
        <time>2024-05-27T03:18:35.469Z</time>
      </trkpt>
      <trkpt lat="48.38699" lon="2.42297">
        <ele>128.69</ele>
        <time>2024-05-27T03:18:46.922Z</time>
      </trkpt>
      <trkpt lat="48.38688" lon="2.42238">
        <ele>128.72</ele>
        <time>2024-05-27T03:18:58.384Z</time>
      </trkpt>
      <trkpt lat="48.38676" lon="2.42176">
        <ele>128.71</ele>
        <time>2024-05-27T03:19:09.854Z</time>
      </trkpt>
      <trkpt lat="48.38661" lon="2.42105">
        <ele>128.77</ele>
        <time>2024-05-27T03:19:21.334Z</time>
      </trkpt>
      <trkpt lat="48.38654" lon="2.42076">
        <ele>128.79</ele>
        <time>2024-05-27T03:19:32.818Z</time>
      </trkpt>
      <trkpt lat="48.38649" lon="2.42062">
        <ele>128.81</ele>
        <time>2024-05-27T03:19:44.304Z</time>
      </trkpt>
      <trkpt lat="48.38647" lon="2.42054">
        <ele>128.84</ele>
        <time>2024-05-27T03:19:55.791Z</time>
      </trkpt>
      <trkpt lat="48.38646" lon="2.42047">
        <ele>128.85</ele>
        <time>2024-05-27T03:20:07.279Z</time>
      </trkpt>
      <trkpt lat="48.38641" lon="2.42026">
        <ele>128.87</ele>
        <time>2024-05-27T03:20:18.770Z</time>
      </trkpt>
      <trkpt lat="48.38636" lon="2.42012">
        <ele>128.89</ele>
        <time>2024-05-27T03:20:30.263Z</time>
      </trkpt>
      <trkpt lat="48.38622" lon="2.41962">
        <ele>128.94</ele>
        <time>2024-05-27T03:20:41.764Z</time>
      </trkpt>
      <trkpt lat="48.38615" lon="2.41911">
        <ele>129.02</ele>
        <time>2024-05-27T03:20:53.272Z</time>
      </trkpt>
      <trkpt lat="48.38615" lon="2.41903">
        <ele>129.02</ele>
        <time>2024-05-27T03:21:04.781Z</time>
      </trkpt>
      <trkpt lat="48.38612" lon="2.41883">
        <ele>129.01</ele>
        <time>2024-05-27T03:21:16.292Z</time>
      </trkpt>
      <trkpt lat="48.38611" lon="2.41876">
        <ele>128.99</ele>
        <time>2024-05-27T03:21:27.804Z</time>
      </trkpt>
      <trkpt lat="48.3861" lon="2.41824">
        <ele>128.97</ele>
        <time>2024-05-27T03:21:39.323Z</time>
      </trkpt>
      <trkpt lat="48.38609" lon="2.41799">
        <ele>128.95</ele>
        <time>2024-05-27T03:21:50.846Z</time>
      </trkpt>
      <trkpt lat="48.38608" lon="2.41788">
        <ele>128.92</ele>
        <time>2024-05-27T03:22:02.370Z</time>
      </trkpt>
      <trkpt lat="48.38607" lon="2.41783">
        <ele>128.88</ele>
        <time>2024-05-27T03:22:13.895Z</time>
      </trkpt>
      <trkpt lat="48.38605" lon="2.41765">
        <ele>128.84</ele>
        <time>2024-05-27T03:22:25.422Z</time>
      </trkpt>
      <trkpt lat="48.38604" lon="2.41754">
        <ele>128.8</ele>
        <time>2024-05-27T03:22:36.951Z</time>
      </trkpt>
      <trkpt lat="48.38603" lon="2.41736">
        <ele>128.75</ele>
        <time>2024-05-27T03:22:48.482Z</time>
      </trkpt>
      <trkpt lat="48.38605" lon="2.41718">
        <ele>128.7</ele>
        <time>2024-05-27T03:23:00.016Z</time>
      </trkpt>
      <trkpt lat="48.38609" lon="2.41687">
        <ele>128.66</ele>
        <time>2024-05-27T03:23:11.554Z</time>
      </trkpt>
      <trkpt lat="48.38614" lon="2.4167">
        <ele>128.61</ele>
        <time>2024-05-27T03:23:23.094Z</time>
      </trkpt>
      <trkpt lat="48.38618" lon="2.41658">
        <ele>128.54</ele>
        <time>2024-05-27T03:23:34.636Z</time>
      </trkpt>
      <trkpt lat="48.38628" lon="2.41637">
        <ele>128.49</ele>
        <time>2024-05-27T03:23:46.181Z</time>
      </trkpt>
      <trkpt lat="48.38633" lon="2.41627">
        <ele>128.44</ele>
        <time>2024-05-27T03:23:57.728Z</time>
      </trkpt>
      <trkpt lat="48.38648" lon="2.41601">
        <ele>128.38</ele>
        <time>2024-05-27T03:24:09.280Z</time>
      </trkpt>
      <trkpt lat="48.3866" lon="2.41587">
        <ele>128.31</ele>
        <time>2024-05-27T03:24:20.835Z</time>
      </trkpt>
      <trkpt lat="48.38676" lon="2.41568">
        <ele>128.26</ele>
        <time>2024-05-27T03:24:32.394Z</time>
      </trkpt>
      <trkpt lat="48.3871" lon="2.41533">
        <ele>128.17</ele>
        <time>2024-05-27T03:24:43.961Z</time>
      </trkpt>
      <trkpt lat="48.38738" lon="2.415">
        <ele>128.12</ele>
        <time>2024-05-27T03:24:55.535Z</time>
      </trkpt>
      <trkpt lat="48.38758" lon="2.41476">
        <ele>128.1</ele>
        <time>2024-05-27T03:25:07.114Z</time>
      </trkpt>
      <trkpt lat="48.38766" lon="2.41466">
        <ele>128.07</ele>
        <time>2024-05-27T03:25:18.695Z</time>
      </trkpt>
      <trkpt lat="48.3878" lon="2.41446">
        <ele>128.07</ele>
        <time>2024-05-27T03:25:30.280Z</time>
      </trkpt>
      <trkpt lat="48.38785" lon="2.41435">
        <ele>128.06</ele>
        <time>2024-05-27T03:25:41.867Z</time>
      </trkpt>
      <trkpt lat="48.38785" lon="2.41414">
        <ele>128.06</ele>
        <time>2024-05-27T03:25:53.457Z</time>
      </trkpt>
      <trkpt lat="48.38784" lon="2.41407">
        <ele>128.08</ele>
        <time>2024-05-27T03:26:05.048Z</time>
      </trkpt>
      <trkpt lat="48.38777" lon="2.41363">
        <ele>128.14</ele>
        <time>2024-05-27T03:26:16.645Z</time>
      </trkpt>
      <trkpt lat="48.38775" lon="2.41349">
        <ele>128.18</ele>
        <time>2024-05-27T03:26:28.244Z</time>
      </trkpt>
      <trkpt lat="48.38764" lon="2.41282">
        <ele>128.25</ele>
        <time>2024-05-27T03:26:39.852Z</time>
      </trkpt>
      <trkpt lat="48.38763" lon="2.41275">
        <ele>128.31</ele>
        <time>2024-05-27T03:26:51.461Z</time>
      </trkpt>
      <trkpt lat="48.38756" lon="2.41226">
        <ele>128.34</ele>
        <time>2024-05-27T03:27:03.077Z</time>
      </trkpt>
      <trkpt lat="48.38753" lon="2.41206">
        <ele>128.41</ele>
        <time>2024-05-27T03:27:14.695Z</time>
      </trkpt>
      <trkpt lat="48.38749" lon="2.41179">
        <ele>128.47</ele>
        <time>2024-05-27T03:27:26.317Z</time>
      </trkpt>
      <trkpt lat="48.3874" lon="2.41124">
        <ele>128.58</ele>
        <time>2024-05-27T03:27:37.947Z</time>
      </trkpt>
      <trkpt lat="48.38732" lon="2.41082">
        <ele>128.67</ele>
        <time>2024-05-27T03:27:49.582Z</time>
      </trkpt>
      <trkpt lat="48.3873" lon="2.41071">
        <ele>128.8</ele>
        <time>2024-05-27T03:28:01.219Z</time>
      </trkpt>
      <trkpt lat="48.38721" lon="2.41021">
        <ele>128.96</ele>
        <time>2024-05-27T03:28:12.863Z</time>
      </trkpt>
      <trkpt lat="48.38714" lon="2.40975">
        <ele>129.11</ele>
        <time>2024-05-27T03:28:24.513Z</time>
      </trkpt>
      <trkpt lat="48.38707" lon="2.40926">
        <ele>129.22</ele>
        <time>2024-05-27T03:28:36.170Z</time>
      </trkpt>
      <trkpt lat="48.38697" lon="2.40864">
        <ele>129.35</ele>
        <time>2024-05-27T03:28:47.835Z</time>
      </trkpt>
      <trkpt lat="48.38692" lon="2.4082">
        <ele>129.61</ele>
        <time>2024-05-27T03:28:59.506Z</time>
      </trkpt>
      <trkpt lat="48.38691" lon="2.40808">
        <ele>129.79</ele>
        <time>2024-05-27T03:29:11.179Z</time>
      </trkpt>
      <trkpt lat="48.3869" lon="2.40803">
        <ele>129.97</ele>
        <time>2024-05-27T03:29:22.852Z</time>
      </trkpt>
      <trkpt lat="48.38691" lon="2.40799">
        <ele>130.16</ele>
        <time>2024-05-27T03:29:34.526Z</time>
      </trkpt>
      <trkpt lat="48.38694" lon="2.40797">
        <ele>130.34</ele>
        <time>2024-05-27T03:29:46.201Z</time>
      </trkpt>
      <trkpt lat="48.38711" lon="2.40797">
        <ele>130.56</ele>
        <time>2024-05-27T03:29:57.879Z</time>
      </trkpt>
      <trkpt lat="48.38728" lon="2.40798">
        <ele>130.75</ele>
        <time>2024-05-27T03:30:09.560Z</time>
      </trkpt>
      <trkpt lat="48.38735" lon="2.40797">
        <ele>130.91</ele>
        <time>2024-05-27T03:30:21.243Z</time>
      </trkpt>
      <trkpt lat="48.38763" lon="2.40792">
        <ele>131.08</ele>
        <time>2024-05-27T03:30:32.932Z</time>
      </trkpt>
      <trkpt lat="48.38771" lon="2.40791">
        <ele>131.23</ele>
        <time>2024-05-27T03:30:44.622Z</time>
      </trkpt>
      <trkpt lat="48.38797" lon="2.40786">
        <ele>131.39</ele>
        <time>2024-05-27T03:30:56.317Z</time>
      </trkpt>
      <trkpt lat="48.38833" lon="2.40783">
        <ele>131.54</ele>
        <time>2024-05-27T03:31:08.020Z</time>
      </trkpt>
      <trkpt lat="48.38859" lon="2.4078">
        <ele>131.66</ele>
        <time>2024-05-27T03:31:19.728Z</time>
      </trkpt>
      <trkpt lat="48.38868" lon="2.40781">
        <ele>131.75</ele>
        <time>2024-05-27T03:31:31.438Z</time>
      </trkpt>
      <trkpt lat="48.38886" lon="2.40779">
        <ele>131.81</ele>
        <time>2024-05-27T03:31:43.151Z</time>
      </trkpt>
      <trkpt lat="48.38904" lon="2.40779">
        <ele>131.88</ele>
        <time>2024-05-27T03:31:54.868Z</time>
      </trkpt>
      <trkpt lat="48.38922" lon="2.40776">
        <ele>131.94</ele>
        <time>2024-05-27T03:32:06.588Z</time>
      </trkpt>
      <trkpt lat="48.38931" lon="2.40772">
        <ele>131.98</ele>
        <time>2024-05-27T03:32:18.310Z</time>
      </trkpt>
      <trkpt lat="48.38945" lon="2.4077">
        <ele>131.99</ele>
        <time>2024-05-27T03:32:30.035Z</time>
      </trkpt>
      <trkpt lat="48.38955" lon="2.40773">
        <ele>131.96</ele>
        <time>2024-05-27T03:32:41.762Z</time>
      </trkpt>
      <trkpt lat="48.38966" lon="2.40767">
        <ele>131.92</ele>
        <time>2024-05-27T03:32:53.491Z</time>
      </trkpt>
      <trkpt lat="48.3898" lon="2.40763">
        <ele>131.82</ele>
        <time>2024-05-27T03:33:05.223Z</time>
      </trkpt>
      <trkpt lat="48.38996" lon="2.40756">
        <ele>131.7</ele>
        <time>2024-05-27T03:33:16.959Z</time>
      </trkpt>
      <trkpt lat="48.3901" lon="2.40751">
        <ele>131.57</ele>
        <time>2024-05-27T03:33:28.698Z</time>
      </trkpt>
      <trkpt lat="48.39013" lon="2.40752">
        <ele>131.41</ele>
        <time>2024-05-27T03:33:40.437Z</time>
      </trkpt>
      <trkpt lat="48.39021" lon="2.40752">
        <ele>131.23</ele>
        <time>2024-05-27T03:33:52.178Z</time>
      </trkpt>
      <trkpt lat="48.39025" lon="2.40747">
        <ele>131.01</ele>
        <time>2024-05-27T03:34:03.920Z</time>
      </trkpt>
      <trkpt lat="48.39028" lon="2.40745">
        <ele>130.78</ele>
        <time>2024-05-27T03:34:15.662Z</time>
      </trkpt>
      <trkpt lat="48.39031" lon="2.40743">
        <ele>130.51</ele>
        <time>2024-05-27T03:34:27.405Z</time>
      </trkpt>
      <trkpt lat="48.39047" lon="2.40738">
        <ele>130.24</ele>
        <time>2024-05-27T03:34:39.151Z</time>
      </trkpt>
      <trkpt lat="48.39064" lon="2.4074">
        <ele>129.9</ele>
        <time>2024-05-27T03:34:50.901Z</time>
      </trkpt>
      <trkpt lat="48.39071" lon="2.40741">
        <ele>129.54</ele>
        <time>2024-05-27T03:35:02.652Z</time>
      </trkpt>
      <trkpt lat="48.39086" lon="2.40747">
        <ele>129.12</ele>
        <time>2024-05-27T03:35:14.406Z</time>
      </trkpt>
      <trkpt lat="48.39095" lon="2.40742">
        <ele>128.69</ele>
        <time>2024-05-27T03:35:26.162Z</time>
      </trkpt>
      <trkpt lat="48.39098" lon="2.40738">
        <ele>128.25</ele>
        <time>2024-05-27T03:35:37.919Z</time>
      </trkpt>
      <trkpt lat="48.39101" lon="2.40733">
        <ele>127.79</ele>
        <time>2024-05-27T03:35:49.677Z</time>
      </trkpt>
      <trkpt lat="48.39111" lon="2.4071">
        <ele>127.28</ele>
        <time>2024-05-27T03:36:01.439Z</time>
      </trkpt>
      <trkpt lat="48.39114" lon="2.40704">
        <ele>126.78</ele>
        <time>2024-05-27T03:36:13.202Z</time>
      </trkpt>
      <trkpt lat="48.3913" lon="2.40681">
        <ele>126.23</ele>
        <time>2024-05-27T03:36:24.969Z</time>
      </trkpt>
      <trkpt lat="48.39134" lon="2.40676">
        <ele>125.71</ele>
        <time>2024-05-27T03:36:36.737Z</time>
      </trkpt>
      <trkpt lat="48.39142" lon="2.40665">
        <ele>125.17</ele>
        <time>2024-05-27T03:36:48.507Z</time>
      </trkpt>
      <trkpt lat="48.39159" lon="2.40643">
        <ele>124.59</ele>
        <time>2024-05-27T03:37:00.282Z</time>
      </trkpt>
      <trkpt lat="48.39162" lon="2.40637">
        <ele>124.05</ele>
        <time>2024-05-27T03:37:12.058Z</time>
      </trkpt>
      <trkpt lat="48.39178" lon="2.40606">
        <ele>123.41</ele>
        <time>2024-05-27T03:37:23.839Z</time>
      </trkpt>
      <trkpt lat="48.3919" lon="2.40588">
        <ele>122.78</ele>
        <time>2024-05-27T03:37:35.623Z</time>
      </trkpt>
      <trkpt lat="48.39193" lon="2.40582">
        <ele>122.21</ele>
        <time>2024-05-27T03:37:47.408Z</time>
      </trkpt>
      <trkpt lat="48.39196" lon="2.40576">
        <ele>121.66</ele>
        <time>2024-05-27T03:37:59.194Z</time>
      </trkpt>
      <trkpt lat="48.39201" lon="2.40561">
        <ele>121.11</ele>
        <time>2024-05-27T03:38:10.983Z</time>
      </trkpt>
      <trkpt lat="48.39208" lon="2.40537">
        <ele>120.59</ele>
        <time>2024-05-27T03:38:22.775Z</time>
      </trkpt>
      <trkpt lat="48.39215" lon="2.40509">
        <ele>120.07</ele>
        <time>2024-05-27T03:38:34.571Z</time>
      </trkpt>
      <trkpt lat="48.39218" lon="2.40479">
        <ele>119.54</ele>
        <time>2024-05-27T03:38:46.371Z</time>
      </trkpt>
      <trkpt lat="48.39225" lon="2.40429">
        <ele>118.95</ele>
        <time>2024-05-27T03:38:58.178Z</time>
      </trkpt>
      <trkpt lat="48.39224" lon="2.40416">
        <ele>118.43</ele>
        <time>2024-05-27T03:39:09.987Z</time>
      </trkpt>
      <trkpt lat="48.39222" lon="2.40395">
        <ele>117.92</ele>
        <time>2024-05-27T03:39:21.798Z</time>
      </trkpt>
      <trkpt lat="48.39221" lon="2.40386">
        <ele>117.44</ele>
        <time>2024-05-27T03:39:33.611Z</time>
      </trkpt>
      <trkpt lat="48.3922" lon="2.40376">
        <ele>116.98</ele>
        <time>2024-05-27T03:39:45.425Z</time>
      </trkpt>
      <trkpt lat="48.39219" lon="2.40368">
        <ele>116.53</ele>
        <time>2024-05-27T03:39:57.240Z</time>
      </trkpt>
      <trkpt lat="48.39219" lon="2.4036">
        <ele>116.1</ele>
        <time>2024-05-27T03:40:09.056Z</time>
      </trkpt>
      <trkpt lat="48.39218" lon="2.40355">
        <ele>115.69</ele>
        <time>2024-05-27T03:40:20.873Z</time>
      </trkpt>
      <trkpt lat="48.39218" lon="2.40353">
        <ele>115.3</ele>
        <time>2024-05-27T03:40:32.690Z</time>
      </trkpt>
      <trkpt lat="48.39216" lon="2.40347">
        <ele>114.93</ele>
        <time>2024-05-27T03:40:44.508Z</time>
      </trkpt>
      <trkpt lat="48.39212" lon="2.40321">
        <ele>114.58</ele>
        <time>2024-05-27T03:40:56.330Z</time>
      </trkpt>
      <trkpt lat="48.39211" lon="2.40317">
        <ele>114.25</ele>
        <time>2024-05-27T03:41:08.152Z</time>
      </trkpt>
      <trkpt lat="48.39206" lon="2.40296">
        <ele>113.95</ele>
        <time>2024-05-27T03:41:19.977Z</time>
      </trkpt>
      <trkpt lat="48.39203" lon="2.40275">
        <ele>113.66</ele>
        <time>2024-05-27T03:41:31.805Z</time>
      </trkpt>
      <trkpt lat="48.3919" lon="2.40233">
        <ele>113.36</ele>
        <time>2024-05-27T03:41:43.639Z</time>
      </trkpt>
      <trkpt lat="48.39188" lon="2.40212">
        <ele>113.06</ele>
        <time>2024-05-27T03:41:55.476Z</time>
      </trkpt>
      <trkpt lat="48.39187" lon="2.40209">
        <ele>112.81</ele>
        <time>2024-05-27T03:42:07.313Z</time>
      </trkpt>
      <trkpt lat="48.39182" lon="2.4019">
        <ele>112.58</ele>
        <time>2024-05-27T03:42:19.153Z</time>
      </trkpt>
      <trkpt lat="48.39171" lon="2.40169">
        <ele>112.39</ele>
        <time>2024-05-27T03:42:30.997Z</time>
      </trkpt>
      <trkpt lat="48.3916" lon="2.40146">
        <ele>112.19</ele>
        <time>2024-05-27T03:42:42.844Z</time>
      </trkpt>
      <trkpt lat="48.3915" lon="2.40121">
        <ele>112</ele>
        <time>2024-05-27T03:42:54.695Z</time>
      </trkpt>
      <trkpt lat="48.39145" lon="2.40113">
        <ele>111.86</ele>
        <time>2024-05-27T03:43:06.548Z</time>
      </trkpt>
      <trkpt lat="48.39142" lon="2.40099">
        <ele>111.71</ele>
        <time>2024-05-27T03:43:18.403Z</time>
      </trkpt>
      <trkpt lat="48.3914" lon="2.40068">
        <ele>111.58</ele>
        <time>2024-05-27T03:43:30.262Z</time>
      </trkpt>
      <trkpt lat="48.39139" lon="2.40041">
        <ele>111.5</ele>
        <time>2024-05-27T03:43:42.125Z</time>
      </trkpt>
      <trkpt lat="48.39136" lon="2.40024">
        <ele>111.46</ele>
        <time>2024-05-27T03:43:53.990Z</time>
      </trkpt>
      <trkpt lat="48.39136" lon="2.40019">
        <ele>111.39</ele>
        <time>2024-05-27T03:44:05.856Z</time>
      </trkpt>
      <trkpt lat="48.39136" lon="2.40009">
        <ele>111.33</ele>
        <time>2024-05-27T03:44:17.723Z</time>
      </trkpt>
      <trkpt lat="48.39136" lon="2.39995">
        <ele>111.29</ele>
        <time>2024-05-27T03:44:29.592Z</time>
      </trkpt>
      <trkpt lat="48.39135" lon="2.39984">
        <ele>111.27</ele>
        <time>2024-05-27T03:44:41.462Z</time>
      </trkpt>
      <trkpt lat="48.39133" lon="2.39974">
        <ele>111.26</ele>
        <time>2024-05-27T03:44:53.334Z</time>
      </trkpt>
      <trkpt lat="48.39131" lon="2.3995">
        <ele>111.25</ele>
        <time>2024-05-27T03:45:05.209Z</time>
      </trkpt>
      <trkpt lat="48.39131" lon="2.39945">
        <ele>111.25</ele>
        <time>2024-05-27T03:45:17.085Z</time>
      </trkpt>
      <trkpt lat="48.39131" lon="2.39923">
        <ele>111.21</ele>
        <time>2024-05-27T03:45:28.964Z</time>
      </trkpt>
      <trkpt lat="48.3913" lon="2.3992">
        <ele>111.24</ele>
        <time>2024-05-27T03:45:40.843Z</time>
      </trkpt>
      <trkpt lat="48.39126" lon="2.39907">
        <ele>111.27</ele>
        <time>2024-05-27T03:45:52.724Z</time>
      </trkpt>
      <trkpt lat="48.39124" lon="2.39903">
        <ele>111.32</ele>
        <time>2024-05-27T03:46:04.605Z</time>
      </trkpt>
      <trkpt lat="48.39122" lon="2.39896">
        <ele>111.36</ele>
        <time>2024-05-27T03:46:16.488Z</time>
      </trkpt>
      <trkpt lat="48.39121" lon="2.39887">
        <ele>111.39</ele>
        <time>2024-05-27T03:46:28.372Z</time>
      </trkpt>
      <trkpt lat="48.39118" lon="2.39864">
        <ele>111.46</ele>
        <time>2024-05-27T03:46:40.259Z</time>
      </trkpt>
      <trkpt lat="48.39117" lon="2.3986">
        <ele>111.55</ele>
        <time>2024-05-27T03:46:52.146Z</time>
      </trkpt>
      <trkpt lat="48.3911" lon="2.39839">
        <ele>111.7</ele>
        <time>2024-05-27T03:47:04.037Z</time>
      </trkpt>
      <trkpt lat="48.39107" lon="2.39814">
        <ele>111.8</ele>
        <time>2024-05-27T03:47:15.931Z</time>
      </trkpt>
      <trkpt lat="48.39111" lon="2.3979">
        <ele>111.86</ele>
        <time>2024-05-27T03:47:27.828Z</time>
      </trkpt>
      <trkpt lat="48.39115" lon="2.39777">
        <ele>111.94</ele>
        <time>2024-05-27T03:47:39.727Z</time>
      </trkpt>
      <trkpt lat="48.39119" lon="2.39761">
        <ele>112.07</ele>
        <time>2024-05-27T03:47:51.628Z</time>
      </trkpt>
      <trkpt lat="48.3912" lon="2.39757">
        <ele>112.2</ele>
        <time>2024-05-27T03:48:03.530Z</time>
      </trkpt>
      <trkpt lat="48.3912" lon="2.39748">
        <ele>112.37</ele>
        <time>2024-05-27T03:48:15.433Z</time>
      </trkpt>
      <trkpt lat="48.39122" lon="2.3974">
        <ele>112.51</ele>
        <time>2024-05-27T03:48:27.337Z</time>
      </trkpt>
      <trkpt lat="48.39123" lon="2.39737">
        <ele>112.64</ele>
        <time>2024-05-27T03:48:39.242Z</time>
      </trkpt>
      <trkpt lat="48.39125" lon="2.3972">
        <ele>112.81</ele>
        <time>2024-05-27T03:48:51.149Z</time>
      </trkpt>
      <trkpt lat="48.39125" lon="2.39713">
        <ele>112.91</ele>
        <time>2024-05-27T03:49:03.057Z</time>
      </trkpt>
      <trkpt lat="48.39125" lon="2.39704">
        <ele>113.01</ele>
        <time>2024-05-27T03:49:14.966Z</time>
      </trkpt>
      <trkpt lat="48.39125" lon="2.39701">
        <ele>113.1</ele>
        <time>2024-05-27T03:49:26.876Z</time>
      </trkpt>
      <trkpt lat="48.39123" lon="2.39702">
        <ele>113.19</ele>
        <time>2024-05-27T03:49:38.786Z</time>
      </trkpt>
      <trkpt lat="48.39121" lon="2.39703">
        <ele>113.25</ele>
        <time>2024-05-27T03:49:50.697Z</time>
      </trkpt>
      <trkpt lat="48.3912" lon="2.39704">
        <ele>113.3</ele>
        <time>2024-05-27T03:50:02.608Z</time>
      </trkpt>
      <trkpt lat="48.39116" lon="2.39705">
        <ele>113.35</ele>
        <time>2024-05-27T03:50:14.520Z</time>
      </trkpt>
      <trkpt lat="48.39115" lon="2.39703">
        <ele>113.34</ele>
        <time>2024-05-27T03:50:26.432Z</time>
      </trkpt>
      <trkpt lat="48.39113" lon="2.39699">
        <ele>113.31</ele>
        <time>2024-05-27T03:50:38.345Z</time>
      </trkpt>
      <trkpt lat="48.39112" lon="2.39692">
        <ele>113.26</ele>
        <time>2024-05-27T03:50:50.259Z</time>
      </trkpt>
      <trkpt lat="48.39111" lon="2.39689">
        <ele>113.16</ele>
        <time>2024-05-27T03:51:02.173Z</time>
      </trkpt>
      <trkpt lat="48.39112" lon="2.39686">
        <ele>113.02</ele>
        <time>2024-05-27T03:51:14.087Z</time>
      </trkpt>
      <trkpt lat="48.39111" lon="2.39676">
        <ele>112.86</ele>
        <time>2024-05-27T03:51:26.003Z</time>
      </trkpt>
      <trkpt lat="48.39112" lon="2.39659">
        <ele>112.64</ele>
        <time>2024-05-27T03:51:37.921Z</time>
      </trkpt>
      <trkpt lat="48.39112" lon="2.3965">
        <ele>112.38</ele>
        <time>2024-05-27T03:51:49.840Z</time>
      </trkpt>
      <trkpt lat="48.39111" lon="2.39629">
        <ele>112.06</ele>
        <time>2024-05-27T03:52:01.762Z</time>
      </trkpt>
      <trkpt lat="48.39111" lon="2.39612">
        <ele>111.68</ele>
        <time>2024-05-27T03:52:13.686Z</time>
      </trkpt>
      <trkpt lat="48.3911" lon="2.39607">
        <ele>111.32</ele>
        <time>2024-05-27T03:52:25.611Z</time>
      </trkpt>
      <trkpt lat="48.39109" lon="2.39602">
        <ele>110.92</ele>
        <time>2024-05-27T03:52:37.537Z</time>
      </trkpt>
      <trkpt lat="48.39105" lon="2.39593">
        <ele>110.48</ele>
        <time>2024-05-27T03:52:49.464Z</time>
      </trkpt>
      <trkpt lat="48.39101" lon="2.39589">
        <ele>110.03</ele>
        <time>2024-05-27T03:53:01.392Z</time>
      </trkpt>
      <trkpt lat="48.39095" lon="2.39583">
        <ele>109.55</ele>
        <time>2024-05-27T03:53:13.322Z</time>
      </trkpt>
      <trkpt lat="48.39093" lon="2.3958">
        <ele>109.01</ele>
        <time>2024-05-27T03:53:25.252Z</time>
      </trkpt>
      <trkpt lat="48.39092" lon="2.39577">
        <ele>108.42</ele>
        <time>2024-05-27T03:53:37.183Z</time>
      </trkpt>
      <trkpt lat="48.39082" lon="2.39561">
        <ele>107.74</ele>
        <time>2024-05-27T03:53:49.116Z</time>
      </trkpt>
      <trkpt lat="48.39071" lon="2.39551">
        <ele>107.04</ele>
        <time>2024-05-27T03:54:01.052Z</time>
      </trkpt>
      <trkpt lat="48.39069" lon="2.3955">
        <ele>106.35</ele>
        <time>2024-05-27T03:54:12.988Z</time>
      </trkpt>
      <trkpt lat="48.39064" lon="2.39547">
        <ele>105.61</ele>
        <time>2024-05-27T03:54:24.925Z</time>
      </trkpt>
      <trkpt lat="48.39061" lon="2.39545">
        <ele>104.85</ele>
        <time>2024-05-27T03:54:36.863Z</time>
      </trkpt>
      <trkpt lat="48.39059" lon="2.39544">
        <ele>104.06</ele>
        <time>2024-05-27T03:54:48.802Z</time>
      </trkpt>
      <trkpt lat="48.39056" lon="2.39542">
        <ele>103.22</ele>
        <time>2024-05-27T03:55:00.741Z</time>
      </trkpt>
      <trkpt lat="48.39052" lon="2.3954">
        <ele>102.36</ele>
        <time>2024-05-27T03:55:12.681Z</time>
      </trkpt>
      <trkpt lat="48.39047" lon="2.39536">
        <ele>101.43</ele>
        <time>2024-05-27T03:55:24.622Z</time>
      </trkpt>
      <trkpt lat="48.39045" lon="2.39529">
        <ele>100.46</ele>
        <time>2024-05-27T03:55:36.564Z</time>
      </trkpt>
      <trkpt lat="48.39046" lon="2.39525">
        <ele>99.5</ele>
        <time>2024-05-27T03:55:48.507Z</time>
      </trkpt>
      <trkpt lat="48.39047" lon="2.39521">
        <ele>98.54</ele>
        <time>2024-05-27T03:56:00.450Z</time>
      </trkpt>
      <trkpt lat="48.3905" lon="2.39519">
        <ele>97.57</ele>
        <time>2024-05-27T03:56:12.394Z</time>
      </trkpt>
      <trkpt lat="48.39053" lon="2.39516">
        <ele>96.57</ele>
        <time>2024-05-27T03:56:24.339Z</time>
      </trkpt>
      <trkpt lat="48.39056" lon="2.39514">
        <ele>95.56</ele>
        <time>2024-05-27T03:56:36.284Z</time>
      </trkpt>
      <trkpt lat="48.39062" lon="2.39507">
        <ele>94.48</ele>
        <time>2024-05-27T03:56:48.231Z</time>
      </trkpt>
      <trkpt lat="48.39065" lon="2.39504">
        <ele>93.45</ele>
        <time>2024-05-27T03:57:00.178Z</time>
      </trkpt>
      <trkpt lat="48.39068" lon="2.39501">
        <ele>92.42</ele>
        <time>2024-05-27T03:57:12.126Z</time>
      </trkpt>
      <trkpt lat="48.39074" lon="2.39496">
        <ele>91.37</ele>
        <time>2024-05-27T03:57:24.076Z</time>
      </trkpt>
      <trkpt lat="48.39076" lon="2.39495">
        <ele>90.38</ele>
        <time>2024-05-27T03:57:36.026Z</time>
      </trkpt>
      <trkpt lat="48.39077" lon="2.39494">
        <ele>89.4</ele>
        <time>2024-05-27T03:57:47.976Z</time>
      </trkpt>
      <trkpt lat="48.39079" lon="2.39493">
        <ele>88.42</ele>
        <time>2024-05-27T03:57:59.927Z</time>
      </trkpt>
      <trkpt lat="48.39085" lon="2.3949">
        <ele>87.42</ele>
        <time>2024-05-27T03:58:11.879Z</time>
      </trkpt>
      <trkpt lat="48.39091" lon="2.39482">
        <ele>86.38</ele>
        <time>2024-05-27T03:58:23.833Z</time>
      </trkpt>
      <trkpt lat="48.39096" lon="2.39476">
        <ele>85.41</ele>
        <time>2024-05-27T03:58:35.788Z</time>
      </trkpt>
      <trkpt lat="48.39101" lon="2.39472">
        <ele>84.46</ele>
        <time>2024-05-27T03:58:47.744Z</time>
      </trkpt>
      <trkpt lat="48.39116" lon="2.39466">
        <ele>83.52</ele>
        <time>2024-05-27T03:58:59.703Z</time>
      </trkpt>
      <trkpt lat="48.3912" lon="2.39468">
        <ele>82.66</ele>
        <time>2024-05-27T03:59:11.663Z</time>
      </trkpt>
      <trkpt lat="48.39123" lon="2.3947">
        <ele>81.82</ele>
        <time>2024-05-27T03:59:23.624Z</time>
      </trkpt>
      <trkpt lat="48.39126" lon="2.39472">
        <ele>80.99</ele>
        <time>2024-05-27T03:59:35.585Z</time>
      </trkpt>
      <trkpt lat="48.39129" lon="2.39474">
        <ele>80.18</ele>
        <time>2024-05-27T03:59:47.547Z</time>
      </trkpt>
      <trkpt lat="48.39133" lon="2.39476">
        <ele>79.39</ele>
        <time>2024-05-27T03:59:59.510Z</time>
      </trkpt>
      <trkpt lat="48.39139" lon="2.39482">
        <ele>78.63</ele>
        <time>2024-05-27T04:00:11.474Z</time>
      </trkpt>
      <trkpt lat="48.39141" lon="2.39485">
        <ele>77.87</ele>
        <time>2024-05-27T04:00:23.439Z</time>
      </trkpt>
      <trkpt lat="48.39151" lon="2.39492">
        <ele>77.15</ele>
        <time>2024-05-27T04:00:35.406Z</time>
      </trkpt>
      <trkpt lat="48.39163" lon="2.39492">
        <ele>76.4</ele>
        <time>2024-05-27T04:00:47.375Z</time>
      </trkpt>
      <trkpt lat="48.39165" lon="2.39489">
        <ele>75.65</ele>
        <time>2024-05-27T04:00:59.345Z</time>
      </trkpt>
      <trkpt lat="48.39167" lon="2.39466">
        <ele>74.84</ele>
        <time>2024-05-27T04:01:11.318Z</time>
      </trkpt>
      <trkpt lat="48.39163" lon="2.39439">
        <ele>74.06</ele>
        <time>2024-05-27T04:01:23.295Z</time>
      </trkpt>
      <trkpt lat="48.39162" lon="2.3943">
        <ele>73.43</ele>
        <time>2024-05-27T04:01:35.273Z</time>
      </trkpt>
      <trkpt lat="48.39157" lon="2.39409">
        <ele>72.8</ele>
        <time>2024-05-27T04:01:47.254Z</time>
      </trkpt>
      <trkpt lat="48.39154" lon="2.39399">
        <ele>72.21</ele>
        <time>2024-05-27T04:01:59.236Z</time>
      </trkpt>
      <trkpt lat="48.39153" lon="2.39394">
        <ele>71.66</ele>
        <time>2024-05-27T04:02:11.219Z</time>
      </trkpt>
      <trkpt lat="48.39151" lon="2.3938">
        <ele>71.13</ele>
        <time>2024-05-27T04:02:23.204Z</time>
      </trkpt>
      <trkpt lat="48.39146" lon="2.39355">
        <ele>70.6</ele>
        <time>2024-05-27T04:02:35.192Z</time>
      </trkpt>
      <trkpt lat="48.39143" lon="2.39347">
        <ele>70.13</ele>
        <time>2024-05-27T04:02:47.182Z</time>
      </trkpt>
      <trkpt lat="48.39133" lon="2.39321">
        <ele>69.68</ele>
        <time>2024-05-27T04:02:59.176Z</time>
      </trkpt>
      <trkpt lat="48.3913" lon="2.39313">
        <ele>69.26</ele>
        <time>2024-05-27T04:03:11.171Z</time>
      </trkpt>
      <trkpt lat="48.39128" lon="2.39301">
        <ele>68.87</ele>
        <time>2024-05-27T04:03:23.168Z</time>
      </trkpt>
      <trkpt lat="48.39127" lon="2.39295">
        <ele>68.48</ele>
        <time>2024-05-27T04:03:35.165Z</time>
      </trkpt>
      <trkpt lat="48.39127" lon="2.39292">
        <ele>68.12</ele>
        <time>2024-05-27T04:03:47.163Z</time>
      </trkpt>
      <trkpt lat="48.39128" lon="2.3929">
        <ele>67.77</ele>
        <time>2024-05-27T04:03:59.161Z</time>
      </trkpt>
      <trkpt lat="48.39128" lon="2.39289">
        <ele>67.44</ele>
        <time>2024-05-27T04:04:11.159Z</time>
      </trkpt>
      <trkpt lat="48.39132" lon="2.39282">
        <ele>67.12</ele>
        <time>2024-05-27T04:04:23.159Z</time>
      </trkpt>
      <trkpt lat="48.39135" lon="2.39282">
        <ele>66.82</ele>
        <time>2024-05-27T04:04:35.159Z</time>
      </trkpt>
      <trkpt lat="48.39152" lon="2.3928">
        <ele>66.47</ele>
        <time>2024-05-27T04:04:47.163Z</time>
      </trkpt>
      <trkpt lat="48.39163" lon="2.39291">
        <ele>66.17</ele>
        <time>2024-05-27T04:04:59.169Z</time>
      </trkpt>
      <trkpt lat="48.39166" lon="2.39297">
        <ele>65.93</ele>
        <time>2024-05-27T04:05:11.176Z</time>
      </trkpt>
      <trkpt lat="48.39178" lon="2.3932">
        <ele>65.71</ele>
        <time>2024-05-27T04:05:23.187Z</time>
      </trkpt>
      <trkpt lat="48.39181" lon="2.39326">
        <ele>65.48</ele>
        <time>2024-05-27T04:05:35.199Z</time>
      </trkpt>
      <trkpt lat="48.39203" lon="2.39373">
        <ele>65.27</ele>
        <time>2024-05-27T04:05:47.219Z</time>
      </trkpt>
      <trkpt lat="48.39226" lon="2.39423">
        <ele>65.02</ele>
        <time>2024-05-27T04:05:59.247Z</time>
      </trkpt>
      <trkpt lat="48.39243" lon="2.39461">
        <ele>64.83</ele>
        <time>2024-05-27T04:06:11.281Z</time>
      </trkpt>
      <trkpt lat="48.39255" lon="2.39488">
        <ele>64.62</ele>
        <time>2024-05-27T04:06:23.319Z</time>
      </trkpt>
      <trkpt lat="48.39273" lon="2.39513">
        <ele>64.39</ele>
        <time>2024-05-27T04:06:35.362Z</time>
      </trkpt>
      <trkpt lat="48.39293" lon="2.39528">
        <ele>64.19</ele>
        <time>2024-05-27T04:06:47.410Z</time>
      </trkpt>
      <trkpt lat="48.393" lon="2.39522">
        <ele>64.01</ele>
        <time>2024-05-27T04:06:59.459Z</time>
      </trkpt>
      <trkpt lat="48.39301" lon="2.39517">
        <ele>63.84</ele>
        <time>2024-05-27T04:07:11.509Z</time>
      </trkpt>
      <trkpt lat="48.39299" lon="2.39492">
        <ele>63.66</ele>
        <time>2024-05-27T04:07:23.562Z</time>
      </trkpt>
      <trkpt lat="48.39297" lon="2.39485">
        <ele>63.52</ele>
        <time>2024-05-27T04:07:35.616Z</time>
      </trkpt>
      <trkpt lat="48.39288" lon="2.3945">
        <ele>63.38</ele>
        <time>2024-05-27T04:07:47.675Z</time>
      </trkpt>
      <trkpt lat="48.3928" lon="2.39421">
        <ele>63.22</ele>
        <time>2024-05-27T04:07:59.738Z</time>
      </trkpt>
      <trkpt lat="48.39274" lon="2.39399">
        <ele>63.07</ele>
        <time>2024-05-27T04:08:11.805Z</time>
      </trkpt>
      <trkpt lat="48.39272" lon="2.39392">
        <ele>62.93</ele>
        <time>2024-05-27T04:08:23.873Z</time>
      </trkpt>
      <trkpt lat="48.39264" lon="2.39354">
        <ele>62.81</ele>
        <time>2024-05-27T04:08:35.946Z</time>
      </trkpt>
      <trkpt lat="48.39262" lon="2.39345">
        <ele>62.68</ele>
        <time>2024-05-27T04:08:48.020Z</time>
      </trkpt>
      <trkpt lat="48.3926" lon="2.39328">
        <ele>62.55</ele>
        <time>2024-05-27T04:09:00.097Z</time>
      </trkpt>
      <trkpt lat="48.39259" lon="2.39318">
        <ele>62.43</ele>
        <time>2024-05-27T04:09:12.175Z</time>
      </trkpt>
      <trkpt lat="48.39256" lon="2.39292">
        <ele>62.31</ele>
        <time>2024-05-27T04:09:24.256Z</time>
      </trkpt>
      <trkpt lat="48.3925" lon="2.39241">
        <ele>62.2</ele>
        <time>2024-05-27T04:09:36.344Z</time>
      </trkpt>
      <trkpt lat="48.3925" lon="2.39233">
        <ele>62.12</ele>
        <time>2024-05-27T04:09:48.433Z</time>
      </trkpt>
      <trkpt lat="48.39251" lon="2.39225">
        <ele>62.05</ele>
        <time>2024-05-27T04:10:00.523Z</time>
      </trkpt>
      <trkpt lat="48.39252" lon="2.39194">
        <ele>61.98</ele>
        <time>2024-05-27T04:10:12.618Z</time>
      </trkpt>
      <trkpt lat="48.39253" lon="2.39169">
        <ele>61.91</ele>
        <time>2024-05-27T04:10:24.716Z</time>
      </trkpt>
      <trkpt lat="48.39259" lon="2.3911">
        <ele>61.88</ele>
        <time>2024-05-27T04:10:36.822Z</time>
      </trkpt>
      <trkpt lat="48.3926" lon="2.39101">
        <ele>61.8</ele>
        <time>2024-05-27T04:10:48.929Z</time>
      </trkpt>
      <trkpt lat="48.39263" lon="2.39084">
        <ele>61.7</ele>
        <time>2024-05-27T04:11:01.038Z</time>
      </trkpt>
      <trkpt lat="48.39267" lon="2.39059">
        <ele>61.63</ele>
        <time>2024-05-27T04:11:13.151Z</time>
      </trkpt>
      <trkpt lat="48.39269" lon="2.3905">
        <ele>61.57</ele>
        <time>2024-05-27T04:11:25.265Z</time>
      </trkpt>
      <trkpt lat="48.39277" lon="2.39025">
        <ele>61.5</ele>
        <time>2024-05-27T04:11:37.383Z</time>
      </trkpt>
      <trkpt lat="48.39278" lon="2.39016">
        <ele>61.43</ele>
        <time>2024-05-27T04:11:49.502Z</time>
      </trkpt>
      <trkpt lat="48.39288" lon="2.38972">
        <ele>61.33</ele>
        <time>2024-05-27T04:12:01.627Z</time>
      </trkpt>
      <trkpt lat="48.3929" lon="2.38964">
        <ele>61.27</ele>
        <time>2024-05-27T04:12:13.753Z</time>
      </trkpt>
      <trkpt lat="48.39303" lon="2.38916">
        <ele>61.21</ele>
        <time>2024-05-27T04:12:25.886Z</time>
      </trkpt>
      <trkpt lat="48.39306" lon="2.38901">
        <ele>61.16</ele>
        <time>2024-05-27T04:12:38.021Z</time>
      </trkpt>
      <trkpt lat="48.39318" lon="2.38848">
        <ele>61.15</ele>
        <time>2024-05-27T04:12:50.164Z</time>
      </trkpt>
      <trkpt lat="48.39324" lon="2.38826">
        <ele>61.06</ele>
        <time>2024-05-27T04:13:02.310Z</time>
      </trkpt>
      <trkpt lat="48.39324" lon="2.38786">
        <ele>61.02</ele>
        <time>2024-05-27T04:13:14.461Z</time>
      </trkpt>
      <trkpt lat="48.39334" lon="2.38731">
        <ele>60.93</ele>
        <time>2024-05-27T04:13:26.620Z</time>
      </trkpt>
      <trkpt lat="48.39348" lon="2.38679">
        <ele>60.86</ele>
        <time>2024-05-27T04:13:38.786Z</time>
      </trkpt>
      <trkpt lat="48.39361" lon="2.38627">
        <ele>60.82</ele>
        <time>2024-05-27T04:13:50.960Z</time>
      </trkpt>
      <trkpt lat="48.3937" lon="2.386">
        <ele>60.79</ele>
        <time>2024-05-27T04:14:03.138Z</time>
      </trkpt>
      <trkpt lat="48.39375" lon="2.38585">
        <ele>60.76</ele>
        <time>2024-05-27T04:14:15.318Z</time>
      </trkpt>
      <trkpt lat="48.39384" lon="2.38558">
        <ele>60.76</ele>
        <time>2024-05-27T04:14:27.502Z</time>
      </trkpt>
      <trkpt lat="48.39393" lon="2.38541">
        <ele>60.76</ele>
        <time>2024-05-27T04:14:39.689Z</time>
      </trkpt>
      <trkpt lat="48.3941" lon="2.385">
        <ele>60.77</ele>
        <time>2024-05-27T04:14:51.882Z</time>
      </trkpt>
      <trkpt lat="48.39421" lon="2.38463">
        <ele>60.78</ele>
        <time>2024-05-27T04:15:04.081Z</time>
      </trkpt>
      <trkpt lat="48.39423" lon="2.38456">
        <ele>60.8</ele>
        <time>2024-05-27T04:15:16.281Z</time>
      </trkpt>
      <trkpt lat="48.39426" lon="2.3844">
        <ele>60.82</ele>
        <time>2024-05-27T04:15:28.483Z</time>
      </trkpt>
      <trkpt lat="48.39428" lon="2.38424">
        <ele>60.84</ele>
        <time>2024-05-27T04:15:40.687Z</time>
      </trkpt>
      <trkpt lat="48.39429" lon="2.38416">
        <ele>60.89</ele>
        <time>2024-05-27T04:15:52.892Z</time>
      </trkpt>
      <trkpt lat="48.39432" lon="2.38355">
        <ele>60.9</ele>
        <time>2024-05-27T04:16:05.105Z</time>
      </trkpt>
      <trkpt lat="48.39434" lon="2.38326">
        <ele>60.94</ele>
        <time>2024-05-27T04:16:17.322Z</time>
      </trkpt>
      <trkpt lat="48.39434" lon="2.3831">
        <ele>61.02</ele>
        <time>2024-05-27T04:16:29.541Z</time>
      </trkpt>
      <trkpt lat="48.39432" lon="2.38229">
        <ele>61.16</ele>
        <time>2024-05-27T04:16:41.771Z</time>
      </trkpt>
      <trkpt lat="48.39432" lon="2.3822">
        <ele>61.23</ele>
        <time>2024-05-27T04:16:54.002Z</time>
      </trkpt>
      <trkpt lat="48.39427" lon="2.38163">
        <ele>61.27</ele>
        <time>2024-05-27T04:17:06.241Z</time>
      </trkpt>
      <trkpt lat="48.39423" lon="2.38112">
        <ele>61.4</ele>
        <time>2024-05-27T04:17:18.487Z</time>
      </trkpt>
      <trkpt lat="48.39422" lon="2.38106">
        <ele>61.5</ele>
        <time>2024-05-27T04:17:30.734Z</time>
      </trkpt>
      <trkpt lat="48.39417" lon="2.38091">
        <ele>61.63</ele>
        <time>2024-05-27T04:17:42.983Z</time>
      </trkpt>
      <trkpt lat="48.39415" lon="2.38089">
        <ele>61.74</ele>
        <time>2024-05-27T04:17:55.232Z</time>
      </trkpt>
      <trkpt lat="48.39412" lon="2.3809">
        <ele>61.85</ele>
        <time>2024-05-27T04:18:07.482Z</time>
      </trkpt>
      <trkpt lat="48.39411" lon="2.38091">
        <ele>61.96</ele>
        <time>2024-05-27T04:18:19.732Z</time>
      </trkpt>
      <trkpt lat="48.39409" lon="2.38083">
        <ele>62.1</ele>
        <time>2024-05-27T04:18:31.983Z</time>
      </trkpt>
      <trkpt lat="48.39408" lon="2.38078">
        <ele>62.22</ele>
        <time>2024-05-27T04:18:44.235Z</time>
      </trkpt>
      <trkpt lat="48.39403" lon="2.38073">
        <ele>62.36</ele>
        <time>2024-05-27T04:18:56.488Z</time>
      </trkpt>
      <trkpt lat="48.39396" lon="2.38069">
        <ele>62.49</ele>
        <time>2024-05-27T04:19:08.743Z</time>
      </trkpt>
      <trkpt lat="48.39386" lon="2.38063">
        <ele>62.64</ele>
        <time>2024-05-27T04:19:21.000Z</time>
      </trkpt>
      <trkpt lat="48.39361" lon="2.38046">
        <ele>62.77</ele>
        <time>2024-05-27T04:19:33.262Z</time>
      </trkpt>
      <trkpt lat="48.39342" lon="2.38029">
        <ele>62.95</ele>
        <time>2024-05-27T04:19:45.529Z</time>
      </trkpt>
      <trkpt lat="48.39338" lon="2.38027">
        <ele>63.12</ele>
        <time>2024-05-27T04:19:57.797Z</time>
      </trkpt>
      <trkpt lat="48.39319" lon="2.3801">
        <ele>63.31</ele>
        <time>2024-05-27T04:20:10.069Z</time>
      </trkpt>
      <trkpt lat="48.39315" lon="2.38006">
        <ele>63.48</ele>
        <time>2024-05-27T04:20:22.342Z</time>
      </trkpt>
      <trkpt lat="48.39313" lon="2.38006">
        <ele>63.65</ele>
        <time>2024-05-27T04:20:34.615Z</time>
      </trkpt>
      <trkpt lat="48.39313" lon="2.38005">
        <ele>63.83</ele>
        <time>2024-05-27T04:20:46.889Z</time>
      </trkpt>
      <trkpt lat="48.39313" lon="2.3799">
        <ele>64.01</ele>
        <time>2024-05-27T04:20:59.165Z</time>
      </trkpt>
      <trkpt lat="48.39315" lon="2.3795">
        <ele>64.23</ele>
        <time>2024-05-27T04:21:11.446Z</time>
      </trkpt>
      <trkpt lat="48.39321" lon="2.37903">
        <ele>64.37</ele>
        <time>2024-05-27T04:21:23.733Z</time>
      </trkpt>
      <trkpt lat="48.39324" lon="2.37862">
        <ele>64.53</ele>
        <time>2024-05-27T04:21:36.026Z</time>
      </trkpt>
      <trkpt lat="48.39313" lon="2.37854">
        <ele>64.68</ele>
        <time>2024-05-27T04:21:48.321Z</time>
      </trkpt>
      <trkpt lat="48.39295" lon="2.37852">
        <ele>64.84</ele>
        <time>2024-05-27T04:22:00.620Z</time>
      </trkpt>
      <trkpt lat="48.39291" lon="2.37852">
        <ele>64.99</ele>
        <time>2024-05-27T04:22:12.920Z</time>
      </trkpt>
      <trkpt lat="48.39256" lon="2.37853">
        <ele>65.12</ele>
        <time>2024-05-27T04:22:25.227Z</time>
      </trkpt>
      <trkpt lat="48.39219" lon="2.37853">
        <ele>65.28</ele>
        <time>2024-05-27T04:22:37.541Z</time>
      </trkpt>
      <trkpt lat="48.39177" lon="2.37852">
        <ele>65.47</ele>
        <time>2024-05-27T04:22:49.864Z</time>
      </trkpt>
      <trkpt lat="48.39167" lon="2.3785">
        <ele>65.61</ele>
        <time>2024-05-27T04:23:02.188Z</time>
      </trkpt>
      <trkpt lat="48.39151" lon="2.3785">
        <ele>65.77</ele>
        <time>2024-05-27T04:23:14.516Z</time>
      </trkpt>
      <trkpt lat="48.39124" lon="2.37849">
        <ele>65.92</ele>
        <time>2024-05-27T04:23:26.849Z</time>
      </trkpt>
      <trkpt lat="48.39121" lon="2.37849">
        <ele>66.02</ele>
        <time>2024-05-27T04:23:39.183Z</time>
      </trkpt>
      <trkpt lat="48.39115" lon="2.3785">
        <ele>66.11</ele>
        <time>2024-05-27T04:23:51.518Z</time>
      </trkpt>
      <trkpt lat="48.39112" lon="2.37854">
        <ele>66.18</ele>
        <time>2024-05-27T04:24:03.854Z</time>
      </trkpt>
      <trkpt lat="48.3911" lon="2.37858">
        <ele>66.24</ele>
        <time>2024-05-27T04:24:16.190Z</time>
      </trkpt>
      <trkpt lat="48.39101" lon="2.3787">
        <ele>66.27</ele>
        <time>2024-05-27T04:24:28.529Z</time>
      </trkpt>
      <trkpt lat="48.39092" lon="2.37884">
        <ele>66.3</ele>
        <time>2024-05-27T04:24:40.870Z</time>
      </trkpt>
      <trkpt lat="48.39088" lon="2.37888">
        <ele>66.33</ele>
        <time>2024-05-27T04:24:53.212Z</time>
      </trkpt>
      <trkpt lat="48.39076" lon="2.37897">
        <ele>66.36</ele>
        <time>2024-05-27T04:25:05.557Z</time>
      </trkpt>
      <trkpt lat="48.39067" lon="2.37905">
        <ele>66.37</ele>
        <time>2024-05-27T04:25:17.904Z</time>
      </trkpt>
      <trkpt lat="48.39031" lon="2.37934">
        <ele>66.39</ele>
        <time>2024-05-27T04:25:30.259Z</time>
      </trkpt>
      <trkpt lat="48.38997" lon="2.37958">
        <ele>66.33</ele>
        <time>2024-05-27T04:25:42.622Z</time>
      </trkpt>
      <trkpt lat="48.3899" lon="2.37961">
        <ele>66.27</ele>
        <time>2024-05-27T04:25:54.986Z</time>
      </trkpt>
      <trkpt lat="48.38984" lon="2.37963">
        <ele>66.21</ele>
        <time>2024-05-27T04:26:07.351Z</time>
      </trkpt>
      <trkpt lat="48.3897" lon="2.37965">
        <ele>66.15</ele>
        <time>2024-05-27T04:26:19.719Z</time>
      </trkpt>
      <trkpt lat="48.38964" lon="2.37964">
        <ele>66.15</ele>
        <time>2024-05-27T04:26:32.089Z</time>
      </trkpt>
      <trkpt lat="48.38957" lon="2.37963">
        <ele>66.19</ele>
        <time>2024-05-27T04:26:44.460Z</time>
      </trkpt>
      <trkpt lat="48.38944" lon="2.3796">
        <ele>66.23</ele>
        <time>2024-05-27T04:26:56.834Z</time>
      </trkpt>
      <trkpt lat="48.38937" lon="2.37957">
        <ele>66.26</ele>
        <time>2024-05-27T04:27:09.209Z</time>
      </trkpt>
      <trkpt lat="48.38919" lon="2.37947">
        <ele>66.3</ele>
        <time>2024-05-27T04:27:21.588Z</time>
      </trkpt>
      <trkpt lat="48.38905" lon="2.37934">
        <ele>66.33</ele>
        <time>2024-05-27T04:27:33.970Z</time>
      </trkpt>
      <trkpt lat="48.38896" lon="2.37923">
        <ele>66.36</ele>
        <time>2024-05-27T04:27:46.354Z</time>
      </trkpt>
      <trkpt lat="48.38872" lon="2.37888">
        <ele>66.37</ele>
        <time>2024-05-27T04:27:58.745Z</time>
      </trkpt>
      <trkpt lat="48.38848" lon="2.37866">
        <ele>66.42</ele>
        <time>2024-05-27T04:28:11.142Z</time>
      </trkpt>
      <trkpt lat="48.38843" lon="2.37864">
        <ele>66.46</ele>
        <time>2024-05-27T04:28:23.540Z</time>
      </trkpt>
      <trkpt lat="48.38809" lon="2.37856">
        <ele>66.5</ele>
        <time>2024-05-27T04:28:35.945Z</time>
      </trkpt>
      <trkpt lat="48.38781" lon="2.37851">
        <ele>66.57</ele>
        <time>2024-05-27T04:28:48.355Z</time>
      </trkpt>
      <trkpt lat="48.38775" lon="2.37852">
        <ele>66.54</ele>
        <time>2024-05-27T04:29:00.766Z</time>
      </trkpt>
      <trkpt lat="48.38737" lon="2.37861">
        <ele>66.46</ele>
        <time>2024-05-27T04:29:13.185Z</time>
      </trkpt>
      <trkpt lat="48.38726" lon="2.37864">
        <ele>66.42</ele>
        <time>2024-05-27T04:29:25.606Z</time>
      </trkpt>
      <trkpt lat="48.38699" lon="2.37869">
        <ele>66.42</ele>
        <time>2024-05-27T04:29:38.033Z</time>
      </trkpt>
      <trkpt lat="48.38668" lon="2.37877">
        <ele>66.45</ele>
        <time>2024-05-27T04:29:50.466Z</time>
      </trkpt>
      <trkpt lat="48.38663" lon="2.37878">
        <ele>66.39</ele>
        <time>2024-05-27T04:30:02.900Z</time>
      </trkpt>
      <trkpt lat="48.38642" lon="2.37881">
        <ele>66.3</ele>
        <time>2024-05-27T04:30:15.338Z</time>
      </trkpt>
      <trkpt lat="48.38628" lon="2.37882">
        <ele>66.19</ele>
        <time>2024-05-27T04:30:27.779Z</time>
      </trkpt>
      <trkpt lat="48.38603" lon="2.37883">
        <ele>66.04</ele>
        <time>2024-05-27T04:30:40.225Z</time>
      </trkpt>
      <trkpt lat="48.38572" lon="2.37881">
        <ele>65.92</ele>
        <time>2024-05-27T04:30:52.677Z</time>
      </trkpt>
      <trkpt lat="48.38568" lon="2.37882">
        <ele>65.77</ele>
        <time>2024-05-27T04:31:05.130Z</time>
      </trkpt>
      <trkpt lat="48.38551" lon="2.37881">
        <ele>65.6</ele>
        <time>2024-05-27T04:31:17.587Z</time>
      </trkpt>
      <trkpt lat="48.38512" lon="2.37879">
        <ele>65.36</ele>
        <time>2024-05-27T04:31:30.051Z</time>
      </trkpt>
      <trkpt lat="48.38472" lon="2.37882">
        <ele>65.17</ele>
        <time>2024-05-27T04:31:42.523Z</time>
      </trkpt>
      <trkpt lat="48.38444" lon="2.3788">
        <ele>64.99</ele>
        <time>2024-05-27T04:31:55.001Z</time>
      </trkpt>
      <trkpt lat="48.3841" lon="2.37876">
        <ele>64.68</ele>
        <time>2024-05-27T04:32:07.486Z</time>
      </trkpt>
      <trkpt lat="48.38377" lon="2.37867">
        <ele>64.32</ele>
        <time>2024-05-27T04:32:19.978Z</time>
      </trkpt>
      <trkpt lat="48.38354" lon="2.37863">
        <ele>63.8</ele>
        <time>2024-05-27T04:32:32.474Z</time>
      </trkpt>
      <trkpt lat="48.38326" lon="2.37856">
        <ele>63.19</ele>
        <time>2024-05-27T04:32:44.976Z</time>
      </trkpt>
      <trkpt lat="48.38302" lon="2.37851">
        <ele>62.72</ele>
        <time>2024-05-27T04:32:57.483Z</time>
      </trkpt>
      <trkpt lat="48.38277" lon="2.37853">
        <ele>62.39</ele>
        <time>2024-05-27T04:33:09.995Z</time>
      </trkpt>
      <trkpt lat="48.38271" lon="2.37856">
        <ele>62.15</ele>
        <time>2024-05-27T04:33:22.508Z</time>
      </trkpt>
      <trkpt lat="48.3827" lon="2.37857">
        <ele>61.94</ele>
        <time>2024-05-27T04:33:35.021Z</time>
      </trkpt>
      <trkpt lat="48.3827" lon="2.37857">
        <ele>61.73</ele>
        <time>2024-05-27T04:33:47.534Z</time>
      </trkpt>
      <trkpt lat="48.3827" lon="2.37857">
        <ele>61.53</ele>
        <time>2024-05-27T04:34:00.047Z</time>
      </trkpt>
    </trkseg>
  </trk>
</gpx>